<?xml version='1.0' encoding='UTF-8'?><gpx version="1.1" creator="JPX - https://github.com/jenetics/jpx" xmlns="http://www.topografix.com/GPX/1/1"><trk><trkseg><trkpt lat="43.668157825805466" lon="12.041455629014727"><ele>436.0</ele><time>2026-04-13T12:56:34Z</time></trkpt><trkpt lat="43.66824351073398" lon="12.041411697506529"><ele>436.0</ele><time>2026-04-13T12:56:35Z</time></trkpt><trkpt lat="43.66834647920232" lon="12.041359927343036"><ele>436.0</ele><time>2026-04-13T12:56:36Z</time></trkpt><trkpt lat="43.66844523514428" lon="12.041292351723996"><ele>436.0</ele><time>2026-04-13T12:56:37Z</time></trkpt><trkpt lat="43.66853784973246" lon="12.041230272188374"><ele>436.0</ele><time>2026-04-13T12:56:38Z</time></trkpt><trkpt lat="43.66862647589754" lon="12.041169114442496"><ele>435.8</ele><time>2026-04-13T12:56:39Z</time></trkpt><trkpt lat="43.668715559527946" lon="12.041110164406595"><ele>435.6</ele><time>2026-04-13T12:56:40Z</time></trkpt><trkpt lat="43.668807373510916" lon="12.041041306864843"><ele>435.4</ele><time>2026-04-13T12:56:41Z</time></trkpt><trkpt lat="43.668905786263025" lon="12.040972307303466"><ele>435.2</ele><time>2026-04-13T12:56:42Z</time></trkpt><trkpt lat="43.66900433213173" lon="12.040903611211515"><ele>435.0</ele><time>2026-04-13T12:56:43Z</time></trkpt><trkpt lat="43.66909953226346" lon="12.040840643761642"><ele>435.25</ele><time>2026-04-13T12:56:44Z</time></trkpt><trkpt lat="43.669202279305004" lon="12.040771601932969"><ele>435.5</ele><time>2026-04-13T12:56:45Z</time></trkpt><trkpt lat="43.66932224336714" lon="12.04068573262833"><ele>435.75</ele><time>2026-04-13T12:56:46Z</time></trkpt><trkpt lat="43.66944163230788" lon="12.040611290489814"><ele>436.0</ele><time>2026-04-13T12:56:47Z</time></trkpt><trkpt lat="43.66955737154079" lon="12.040537227167313"><ele>436.25</ele><time>2026-04-13T12:56:48Z</time></trkpt><trkpt lat="43.669667573337826" lon="12.04045869407949"><ele>436.5</ele><time>2026-04-13T12:56:49Z</time></trkpt><trkpt lat="43.669775741241594" lon="12.040384214690244"><ele>436.75</ele><time>2026-04-13T12:56:50Z</time></trkpt><trkpt lat="43.66987757829859" lon="12.04031570753259"><ele>437.0</ele><time>2026-04-13T12:56:51Z</time></trkpt><trkpt lat="43.66996917435097" lon="12.040254708359548"><ele>436.99999999999994</ele><time>2026-04-13T12:56:52Z</time></trkpt><trkpt lat="43.670057952310785" lon="12.040194645399309"><ele>437.0</ele><time>2026-04-13T12:56:53Z</time></trkpt><trkpt lat="43.67013262011014" lon="12.04014411884745"><ele>437.0</ele><time>2026-04-13T12:56:54Z</time></trkpt><trkpt lat="43.67019107125537" lon="12.040107722719066"><ele>437.0</ele><time>2026-04-13T12:56:55Z</time></trkpt><trkpt lat="43.670276829876386" lon="12.040046799537517"><ele>436.99999999999994</ele><time>2026-04-13T12:56:57Z</time></trkpt><trkpt lat="43.67033511519746" lon="12.039991242355125"><ele>437.0</ele><time>2026-04-13T12:56:59Z</time></trkpt><trkpt lat="43.670308519440425" lon="12.039724959436947"><ele>437.20000000000005</ele><time>2026-04-13T12:57:02Z</time></trkpt><trkpt lat="43.67026735850014" lon="12.03962259662075"><ele>437.40000000000003</ele><time>2026-04-13T12:57:03Z</time></trkpt><trkpt lat="43.670225613475495" lon="12.039511849864393"><ele>437.59999999999997</ele><time>2026-04-13T12:57:04Z</time></trkpt><trkpt lat="43.670186894036775" lon="12.039382216002606"><ele>437.79999999999995</ele><time>2026-04-13T12:57:05Z</time></trkpt><trkpt lat="43.670148998733424" lon="12.039237511085908"><ele>438.0</ele><time>2026-04-13T12:57:06Z</time></trkpt><trkpt lat="43.67010142231876" lon="12.039084603347142"><ele>438.2</ele><time>2026-04-13T12:57:07Z</time></trkpt><trkpt lat="43.67005831827413" lon="12.038935841660672"><ele>438.4</ele><time>2026-04-13T12:57:08Z</time></trkpt><trkpt lat="43.67001844325738" lon="12.03879731692368"><ele>438.59999999999997</ele><time>2026-04-13T12:57:09Z</time></trkpt><trkpt lat="43.66998544381577" lon="12.038654966715047"><ele>438.79999999999995</ele><time>2026-04-13T12:57:10Z</time></trkpt><trkpt lat="43.669965619917846" lon="12.038501993991725"><ele>439.0</ele><time>2026-04-13T12:57:11Z</time></trkpt><trkpt lat="43.669981468943575" lon="12.038331200581776"><ele>439.0</ele><time>2026-04-13T12:57:12Z</time></trkpt><trkpt lat="43.6700360992379" lon="12.038168568168855"><ele>439.0</ele><time>2026-04-13T12:57:13Z</time></trkpt><trkpt lat="43.67011573108541" lon="12.038015968695424"><ele>439.0</ele><time>2026-04-13T12:57:14Z</time></trkpt><trkpt lat="43.67019992186349" lon="12.037863273948048"><ele>439.0</ele><time>2026-04-13T12:57:15Z</time></trkpt><trkpt lat="43.670284806651736" lon="12.03769918682115"><ele>439.0</ele><time>2026-04-13T12:57:16Z</time></trkpt><trkpt lat="43.67036490879946" lon="12.037526831592642"><ele>439.0</ele><time>2026-04-13T12:57:17Z</time></trkpt><trkpt lat="43.67043226196991" lon="12.037361133864302"><ele>439.0</ele><time>2026-04-13T12:57:18Z</time></trkpt><trkpt lat="43.67049154418554" lon="12.037184204462427"><ele>439.0</ele><time>2026-04-13T12:57:19Z</time></trkpt><trkpt lat="43.67052363998067" lon="12.036998066257771"><ele>440.0</ele><time>2026-04-13T12:57:20Z</time></trkpt><trkpt lat="43.6705151041738" lon="12.036800397820304"><ele>441.0</ele><time>2026-04-13T12:57:21Z</time></trkpt><trkpt lat="43.67047315097919" lon="12.036592390446675"><ele>442.0</ele><time>2026-04-13T12:57:22Z</time></trkpt><trkpt lat="43.6704160771876" lon="12.036373456607796"><ele>443.25</ele><time>2026-04-13T12:57:23Z</time></trkpt><trkpt lat="43.67036027337815" lon="12.036171195149041"><ele>444.5</ele><time>2026-04-13T12:57:24Z</time></trkpt><trkpt lat="43.67031218148896" lon="12.03598249940747"><ele>445.75</ele><time>2026-04-13T12:57:25Z</time></trkpt><trkpt lat="43.6702829712136" lon="12.035795163639976"><ele>447.0</ele><time>2026-04-13T12:57:26Z</time></trkpt><trkpt lat="43.67028383264963" lon="12.035604174772883"><ele>449.33333333333337</ele><time>2026-04-13T12:57:27Z</time></trkpt><trkpt lat="43.670327354432196" lon="12.035416789272235"><ele>451.6666666666667</ele><time>2026-04-13T12:57:28.001Z</time></trkpt><trkpt lat="43.670407878521246" lon="12.035241694442131"><ele>454.0</ele><time>2026-04-13T12:57:29.001Z</time></trkpt><trkpt lat="43.670506084902286" lon="12.035065189746993"><ele>457.33333333333337</ele><time>2026-04-13T12:57:30.001Z</time></trkpt><trkpt lat="43.67060218825561" lon="12.03488078919149"><ele>460.66666666666663</ele><time>2026-04-13T12:57:31.001Z</time></trkpt><trkpt lat="43.67069936734403" lon="12.034701295584036"><ele>464.0</ele><time>2026-04-13T12:57:32.001Z</time></trkpt><trkpt lat="43.670792026639546" lon="12.034525007388403"><ele>464.0</ele><time>2026-04-13T12:57:33.001Z</time></trkpt><trkpt lat="43.67087855145644" lon="12.034347024601054"><ele>464.0</ele><time>2026-04-13T12:57:34.001Z</time></trkpt><trkpt lat="43.67102266815847" lon="12.03397885231135"><ele>467.0</ele><time>2026-04-13T12:57:36.001Z</time></trkpt><trkpt lat="43.67106278582862" lon="12.03377088788872"><ele>470.0</ele><time>2026-04-13T12:57:37.001Z</time></trkpt><trkpt lat="43.6710736296238" lon="12.033543101343689"><ele>473.0</ele><time>2026-04-13T12:57:38.001Z</time></trkpt><trkpt lat="43.671059334764976" lon="12.033311531697734"><ele>472.66666666666663</ele><time>2026-04-13T12:57:39.001Z</time></trkpt><trkpt lat="43.6710282752021" lon="12.033092731439087"><ele>472.33333333333337</ele><time>2026-04-13T12:57:40.001Z</time></trkpt><trkpt lat="43.67097460108092" lon="12.032891003518081"><ele>472.0</ele><time>2026-04-13T12:57:41.001Z</time></trkpt><trkpt lat="43.670881945334614" lon="12.032706948479767"><ele>472.0</ele><time>2026-04-13T12:57:42.001Z</time></trkpt><trkpt lat="43.670765130757125" lon="12.032547618063822"><ele>472.0</ele><time>2026-04-13T12:57:43.001Z</time></trkpt><trkpt lat="43.67065174590385" lon="12.03239080582712"><ele>472.0</ele><time>2026-04-13T12:57:44.001Z</time></trkpt><trkpt lat="43.67060610261095" lon="12.032202495216815"><ele>472.25</ele><time>2026-04-13T12:57:45.001Z</time></trkpt><trkpt lat="43.670596264533785" lon="12.032014416149842"><ele>472.5</ele><time>2026-04-13T12:57:46.001Z</time></trkpt><trkpt lat="43.670670913285825" lon="12.031833232423114"><ele>472.75</ele><time>2026-04-13T12:57:47.001Z</time></trkpt><trkpt lat="43.67077300901356" lon="12.031669030774326"><ele>473.0</ele><time>2026-04-13T12:57:48.001Z</time></trkpt><trkpt lat="43.67087222824858" lon="12.031498745905358"><ele>474.0</ele><time>2026-04-13T12:57:49.001Z</time></trkpt><trkpt lat="43.67096967316915" lon="12.031317081763254"><ele>475.0</ele><time>2026-04-13T12:57:50.001Z</time></trkpt><trkpt lat="43.671065531854104" lon="12.03113361039277"><ele>476.0</ele><time>2026-04-13T12:57:51.001Z</time></trkpt><trkpt lat="43.671162014132" lon="12.030950892098058"><ele>476.5</ele><time>2026-04-13T12:57:52.001Z</time></trkpt><trkpt lat="43.671255420123714" lon="12.030777418801934"><ele>477.0</ele><time>2026-04-13T12:57:53.001Z</time></trkpt><trkpt lat="43.67134513458958" lon="12.030612936319718"><ele>477.5</ele><time>2026-04-13T12:57:54.001Z</time></trkpt><trkpt lat="43.671421998160675" lon="12.030447477684096"><ele>478.0</ele><time>2026-04-13T12:57:55.001Z</time></trkpt><trkpt lat="43.67147444198406" lon="12.0302691331741"><ele>478.0</ele><time>2026-04-13T12:57:56.001Z</time></trkpt><trkpt lat="43.67146858212629" lon="12.030080689902615"><ele>478.0</ele><time>2026-04-13T12:57:57.001Z</time></trkpt><trkpt lat="43.67140454810154" lon="12.02991270046904"><ele>478.0</ele><time>2026-04-13T12:57:58.001Z</time></trkpt><trkpt lat="43.671291901447916" lon="12.02977304636894"><ele>478.0</ele><time>2026-04-13T12:57:59.001Z</time></trkpt><trkpt lat="43.67115166011364" lon="12.029657637349988"><ele>481.6666666666667</ele><time>2026-04-13T12:58:00.001Z</time></trkpt><trkpt lat="43.67101457110135" lon="12.029543048785929"><ele>485.33333333333337</ele><time>2026-04-13T12:58:01.001Z</time></trkpt><trkpt lat="43.67088441576974" lon="12.029423359490456"><ele>489.0</ele><time>2026-04-13T12:58:02.001Z</time></trkpt><trkpt lat="43.67075492679078" lon="12.02930070349103"><ele>489.0</ele><time>2026-04-13T12:58:03.001Z</time></trkpt><trkpt lat="43.670633052592606" lon="12.029186899670712"><ele>489.0</ele><time>2026-04-13T12:58:04.001Z</time></trkpt><trkpt lat="43.6705184766959" lon="12.029092965770095"><ele>489.0</ele><time>2026-04-13T12:58:05.001Z</time></trkpt><trkpt lat="43.67040018386812" lon="12.029044265907435"><ele>489.0</ele><time>2026-04-13T12:58:06.001Z</time></trkpt><trkpt lat="43.67028162083343" lon="12.029066255040313"><ele>491.75</ele><time>2026-04-13T12:58:07.001Z</time></trkpt><trkpt lat="43.67017202833417" lon="12.029161308039754"><ele>494.5</ele><time>2026-04-13T12:58:08.001Z</time></trkpt><trkpt lat="43.670092920265695" lon="12.0293176046539"><ele>497.25</ele><time>2026-04-13T12:58:09.001Z</time></trkpt><trkpt lat="43.6700385836916" lon="12.029510075988204"><ele>500.0</ele><time>2026-04-13T12:58:09.999Z</time></trkpt><trkpt lat="43.66998558671144" lon="12.029701665966263"><ele>500.0</ele><time>2026-04-13T12:58:10.999Z</time></trkpt><trkpt lat="43.66993120370004" lon="12.029872742671392"><ele>500.0</ele><time>2026-04-13T12:58:11.999Z</time></trkpt><trkpt lat="43.66987553872108" lon="12.030023349917004"><ele>500.0</ele><time>2026-04-13T12:58:12.999Z</time></trkpt><trkpt lat="43.669813125834374" lon="12.030149543328198"><ele>500.0</ele><time>2026-04-13T12:58:13.999Z</time></trkpt><trkpt lat="43.669728925174375" lon="12.030206181719251"><ele>500.0</ele><time>2026-04-13T12:58:14.999Z</time></trkpt><trkpt lat="43.66965533197833" lon="12.030158209924409"><ele>500.0</ele><time>2026-04-13T12:58:15.999Z</time></trkpt><trkpt lat="43.669616016818026" lon="12.030043711854994"><ele>500.0</ele><time>2026-04-13T12:58:16.999Z</time></trkpt><trkpt lat="43.66963876310944" lon="12.029904139985593"><ele>500.0</ele><time>2026-04-13T12:58:17.999Z</time></trkpt><trkpt lat="43.669630248708536" lon="12.029725428463172"><ele>500.0</ele><time>2026-04-13T12:58:18.999Z</time></trkpt><trkpt lat="43.669636539996496" lon="12.029518028413584"><ele>500.0</ele><time>2026-04-13T12:58:19.999Z</time></trkpt><trkpt lat="43.669640844184364" lon="12.02928548083031"><ele>500.0</ele><time>2026-04-13T12:58:20.999Z</time></trkpt><trkpt lat="43.66964248232843" lon="12.029042756412071"><ele>500.0</ele><time>2026-04-13T12:58:21.999Z</time></trkpt><trkpt lat="43.66964559118991" lon="12.028804265659895"><ele>500.66666666666663</ele><time>2026-04-13T12:58:22.999Z</time></trkpt><trkpt lat="43.66964655019235" lon="12.02856226123101"><ele>501.33333333333337</ele><time>2026-04-13T12:58:23.999Z</time></trkpt><trkpt lat="43.66964541920786" lon="12.028325303174144"><ele>502.0</ele><time>2026-04-13T12:58:24.999Z</time></trkpt><trkpt lat="43.66964671477791" lon="12.028100237464361"><ele>505.6666666666667</ele><time>2026-04-13T12:58:25.999Z</time></trkpt><trkpt lat="43.66966435942388" lon="12.027890254337255"><ele>509.33333333333337</ele><time>2026-04-13T12:58:26.999Z</time></trkpt><trkpt lat="43.66972255310019" lon="12.02770304137456"><ele>513.0</ele><time>2026-04-13T12:58:27.999Z</time></trkpt><trkpt lat="43.66984991434498" lon="12.027591100029968"><ele>516.0</ele><time>2026-04-13T12:58:28.999Z</time></trkpt><trkpt lat="43.669960370746026" lon="12.027441221223384"><ele>519.0</ele><time>2026-04-13T12:58:29.999Z</time></trkpt><trkpt lat="43.670087871303565" lon="12.027307167314506"><ele>522.0</ele><time>2026-04-13T12:58:30.999Z</time></trkpt><trkpt lat="43.67020823290422" lon="12.027175726591436"><ele>518.25</ele><time>2026-04-13T12:58:31.999Z</time></trkpt><trkpt lat="43.67032347290812" lon="12.027054241998686"><ele>514.5</ele><time>2026-04-13T12:58:32.999Z</time></trkpt><trkpt lat="43.67042877426451" lon="12.026941276053817"><ele>510.75</ele><time>2026-04-13T12:58:33.999Z</time></trkpt><trkpt lat="43.67051993554249" lon="12.026829947314074"><ele>507.0</ele><time>2026-04-13T12:58:35Z</time></trkpt><trkpt lat="43.670559984911904" lon="12.026702419855319"><ele>505.6</ele><time>2026-04-13T12:58:36Z</time></trkpt><trkpt lat="43.670533834791954" lon="12.026581509200529"><ele>504.20000000000005</ele><time>2026-04-13T12:58:37Z</time></trkpt><trkpt lat="43.67045652971006" lon="12.026512364946166"><ele>502.8</ele><time>2026-04-13T12:58:38Z</time></trkpt><trkpt lat="43.670353232112504" lon="12.02650596589935"><ele>501.4</ele><time>2026-04-13T12:58:39Z</time></trkpt><trkpt lat="43.67022280057774" lon="12.026515048063013"><ele>500.0</ele><time>2026-04-13T12:58:40Z</time></trkpt><trkpt lat="43.6700870907806" lon="12.026496473553575"><ele>505.3333333333333</ele><time>2026-04-13T12:58:41Z</time></trkpt><trkpt lat="43.66995561170464" lon="12.02640952988892"><ele>510.66666666666663</ele><time>2026-04-13T12:58:42Z</time></trkpt><trkpt lat="43.66983472520438" lon="12.026263788061673"><ele>516.0</ele><time>2026-04-13T12:58:43Z</time></trkpt><trkpt lat="43.66971913282153" lon="12.026092106596133"><ele>516.0</ele><time>2026-04-13T12:58:44Z</time></trkpt><trkpt lat="43.66961528320869" lon="12.02592842172004"><ele>516.0</ele><time>2026-04-13T12:58:45Z</time></trkpt><trkpt lat="43.669508413653695" lon="12.025770034971785"><ele>516.0</ele><time>2026-04-13T12:58:46Z</time></trkpt><trkpt lat="43.66941216460273" lon="12.025604871652188"><ele>523.3333333333334</ele><time>2026-04-13T12:58:47Z</time></trkpt><trkpt lat="43.66934052858164" lon="12.0254174104452"><ele>530.6666666666667</ele><time>2026-04-13T12:58:48Z</time></trkpt><trkpt lat="43.669282507726656" lon="12.025219206436617"><ele>538.0</ele><time>2026-04-13T12:58:49Z</time></trkpt><trkpt lat="43.66922230547471" lon="12.025018735525615"><ele>537.0</ele><time>2026-04-13T12:58:50Z</time></trkpt><trkpt lat="43.669139878176715" lon="12.024825257480968"><ele>536.0</ele><time>2026-04-13T12:58:51Z</time></trkpt><trkpt lat="43.66903790235237" lon="12.024624085682202"><ele>535.0</ele><time>2026-04-13T12:58:52Z</time></trkpt><trkpt lat="43.6689186417979" lon="12.024434545201272"><ele>535.0</ele><time>2026-04-13T12:58:53Z</time></trkpt><trkpt lat="43.66877972521442" lon="12.024262204276834"><ele>535.0</ele><time>2026-04-13T12:58:54Z</time></trkpt><trkpt lat="43.66862348141717" lon="12.024105281284577"><ele>535.0</ele><time>2026-04-13T12:58:55Z</time></trkpt><trkpt lat="43.66846287993934" lon="12.023964642695546"><ele>540.6666666666667</ele><time>2026-04-13T12:58:56Z</time></trkpt><trkpt lat="43.66830127752066" lon="12.023850661731565"><ele>546.3333333333334</ele><time>2026-04-13T12:58:57Z</time></trkpt><trkpt lat="43.668151488749224" lon="12.023759767515374"><ele>552.0</ele><time>2026-04-13T12:58:58Z</time></trkpt><trkpt lat="43.66803445863698" lon="12.023644998888216"><ele>552.0</ele><time>2026-04-13T12:58:59Z</time></trkpt><trkpt lat="43.6679499541601" lon="12.023557440559522"><ele>552.0</ele><time>2026-04-13T12:59:00Z</time></trkpt><trkpt lat="43.66794964702954" lon="12.02343991212469"><ele>552.0</ele><time>2026-04-13T12:59:01Z</time></trkpt><trkpt lat="43.66805774225399" lon="12.023345144896087"><ele>552.0</ele><time>2026-04-13T12:59:02Z</time></trkpt><trkpt lat="43.66815489804324" lon="12.02331095516458"><ele>552.0</ele><time>2026-04-13T12:59:03Z</time></trkpt><trkpt lat="43.66829174055541" lon="12.023313992405203"><ele>551.6</ele><time>2026-04-13T12:59:04Z</time></trkpt><trkpt lat="43.668423909707194" lon="12.023304232441395"><ele>551.2</ele><time>2026-04-13T12:59:05Z</time></trkpt><trkpt lat="43.668526972345354" lon="12.02325126711066"><ele>550.8</ele><time>2026-04-13T12:59:06Z</time></trkpt><trkpt lat="43.668596394440534" lon="12.023152002469883"><ele>550.4</ele><time>2026-04-13T12:59:07Z</time></trkpt><trkpt lat="43.668596715393505" lon="12.023018552435179"><ele>550.0</ele><time>2026-04-13T12:59:08Z</time></trkpt><trkpt lat="43.66852785083572" lon="12.022907383310372"><ele>550.0</ele><time>2026-04-13T12:59:09Z</time></trkpt><trkpt lat="43.668414088044116" lon="12.022867630406497"><ele>550.0</ele><time>2026-04-13T12:59:10Z</time></trkpt><trkpt lat="43.668275821242304" lon="12.022862400329876"><ele>550.0</ele><time>2026-04-13T12:59:11Z</time></trkpt><trkpt lat="43.66812184190958" lon="12.02284571007542"><ele>550.0</ele><time>2026-04-13T12:59:12Z</time></trkpt><trkpt lat="43.66796812447197" lon="12.02281331959852"><ele>550.0</ele><time>2026-04-13T12:59:13Z</time></trkpt><trkpt lat="43.66782492172007" lon="12.022757170129484"><ele>550.0</ele><time>2026-04-13T12:59:14Z</time></trkpt><trkpt lat="43.66770372697377" lon="12.022650431912172"><ele>550.0</ele><time>2026-04-13T12:59:15Z</time></trkpt><trkpt lat="43.667632478862" lon="12.022477352763014"><ele>550.0</ele><time>2026-04-13T12:59:16Z</time></trkpt><trkpt lat="43.667617101756136" lon="12.022272247238982"><ele>555.0</ele><time>2026-04-13T12:59:17Z</time></trkpt><trkpt lat="43.667634252990815" lon="12.022056793026463"><ele>560.0</ele><time>2026-04-13T12:59:18Z</time></trkpt><trkpt lat="43.66765897498664" lon="12.021835632905697"><ele>565.0</ele><time>2026-04-13T12:59:19Z</time></trkpt><trkpt lat="43.667681387454834" lon="12.021623211118104"><ele>565.0</ele><time>2026-04-13T12:59:20Z</time></trkpt><trkpt lat="43.667696841231695" lon="12.021426950423217"><ele>565.0</ele><time>2026-04-13T12:59:21Z</time></trkpt><trkpt lat="43.66769994472441" lon="12.021246816539545"><ele>565.0</ele><time>2026-04-13T12:59:22.001Z</time></trkpt><trkpt lat="43.66767357778428" lon="12.021089038756275"><ele>565.0</ele><time>2026-04-13T12:59:23.001Z</time></trkpt><trkpt lat="43.66759456936387" lon="12.020959554818498"><ele>565.0</ele><time>2026-04-13T12:59:24.001Z</time></trkpt><trkpt lat="43.66747418725521" lon="12.020860265415044"><ele>565.0</ele><time>2026-04-13T12:59:25.001Z</time></trkpt><trkpt lat="43.667341800358244" lon="12.02076536902876"><ele>565.0</ele><time>2026-04-13T12:59:26.001Z</time></trkpt><trkpt lat="43.66721351075973" lon="12.020650735303148"><ele>565.0</ele><time>2026-04-13T12:59:27.001Z</time></trkpt><trkpt lat="43.66710666239538" lon="12.020550873117426"><ele>565.5</ele><time>2026-04-13T12:59:28.001Z</time></trkpt><trkpt lat="43.66702442532739" lon="12.020430952465183"><ele>566.0</ele><time>2026-04-13T12:59:29.001Z</time></trkpt><trkpt lat="43.66697335059432" lon="12.02028724930449"><ele>566.5</ele><time>2026-04-13T12:59:30.001Z</time></trkpt><trkpt lat="43.66696704865059" lon="12.020127344781722"><ele>567.0</ele><time>2026-04-13T12:59:31.001Z</time></trkpt><trkpt lat="43.66701678478127" lon="12.01998620956504"><ele>570.75</ele><time>2026-04-13T12:59:32.001Z</time></trkpt><trkpt lat="43.66710536073839" lon="12.019869197183485"><ele>574.5</ele><time>2026-04-13T12:59:33.001Z</time></trkpt><trkpt lat="43.66722889382341" lon="12.019789261001113"><ele>578.25</ele><time>2026-04-13T12:59:34.001Z</time></trkpt><trkpt lat="43.66736475330137" lon="12.019741747584302"><ele>582.0</ele><time>2026-04-13T12:59:35.001Z</time></trkpt><trkpt lat="43.667475200437835" lon="12.019686507858422"><ele>582.0</ele><time>2026-04-13T12:59:36.001Z</time></trkpt><trkpt lat="43.66755226269675" lon="12.019574810438735"><ele>582.0</ele><time>2026-04-13T12:59:37.001Z</time></trkpt><trkpt lat="43.6675781660615" lon="12.01940403353943"><ele>582.0</ele><time>2026-04-13T12:59:38.001Z</time></trkpt><trkpt lat="43.667582338086255" lon="12.019213914965924"><ele>582.0</ele><time>2026-04-13T12:59:39.001Z</time></trkpt><trkpt lat="43.667589617409405" lon="12.019019216440809"><ele>583.25</ele><time>2026-04-13T12:59:40.001Z</time></trkpt><trkpt lat="43.66760619211605" lon="12.018833686076578"><ele>584.5</ele><time>2026-04-13T12:59:41.001Z</time></trkpt><trkpt lat="43.66761685640184" lon="12.018652006800357"><ele>585.75</ele><time>2026-04-13T12:59:42.001Z</time></trkpt><trkpt lat="43.66761225621482" lon="12.018469699310506"><ele>587.0</ele><time>2026-04-13T12:59:43.001Z</time></trkpt><trkpt lat="43.667577100899756" lon="12.018282735665917"><ele>587.75</ele><time>2026-04-13T12:59:44.001Z</time></trkpt><trkpt lat="43.66752204782455" lon="12.01810129079891"><ele>588.5</ele><time>2026-04-13T12:59:45.001Z</time></trkpt><trkpt lat="43.667456790767126" lon="12.01793081793094"><ele>589.25</ele><time>2026-04-13T12:59:46.001Z</time></trkpt><trkpt lat="43.66738378755739" lon="12.01775995449953"><ele>590.0</ele><time>2026-04-13T12:59:47.001Z</time></trkpt><trkpt lat="43.667317822328435" lon="12.017586445277686"><ele>590.3333333333333</ele><time>2026-04-13T12:59:48.001Z</time></trkpt><trkpt lat="43.667283254688556" lon="12.01738977540792"><ele>590.6666666666666</ele><time>2026-04-13T12:59:49.001Z</time></trkpt><trkpt lat="43.6673021543789" lon="12.017149787224113"><ele>591.0</ele><time>2026-04-13T12:59:50.001Z</time></trkpt><trkpt lat="43.66732011731638" lon="12.016870877677484"><ele>594.3333333333334</ele><time>2026-04-13T12:59:51.001Z</time></trkpt><trkpt lat="43.66737237545148" lon="12.01656867602128"><ele>597.6666666666667</ele><time>2026-04-13T12:59:52.001Z</time></trkpt><trkpt lat="43.667424095790054" lon="12.016308084087868"><ele>601.0</ele><time>2026-04-13T12:59:53.001Z</time></trkpt><trkpt lat="43.667501093414394" lon="12.016088055545033"><ele>601.0</ele><time>2026-04-13T12:59:54.001Z</time></trkpt><trkpt lat="43.66760983522861" lon="12.015903001237564"><ele>601.0</ele><time>2026-04-13T12:59:55.001Z</time></trkpt><trkpt lat="43.66774518406857" lon="12.01573622405141"><ele>601.0</ele><time>2026-04-13T12:59:56.001Z</time></trkpt><trkpt lat="43.66789796694122" lon="12.015609059717432"><ele>601.6666666666667</ele><time>2026-04-13T12:59:57.001Z</time></trkpt><trkpt lat="43.66807400472614" lon="12.015582300742572"><ele>602.3333333333334</ele><time>2026-04-13T12:59:58.001Z</time></trkpt><trkpt lat="43.66825045556325" lon="12.015515142727573"><ele>603.0</ele><time>2026-04-13T12:59:59.001Z</time></trkpt><trkpt lat="43.668408536722566" lon="12.01549043952512"><ele>603.0</ele><time>2026-04-13T13:00:00.001Z</time></trkpt><trkpt lat="43.668548029061796" lon="12.015457533425076"><ele>603.0</ele><time>2026-04-13T13:00:01.001Z</time></trkpt><trkpt lat="43.668677853279206" lon="12.015394504792557"><ele>603.0</ele><time>2026-04-13T13:00:02.001Z</time></trkpt><trkpt lat="43.668793075017334" lon="12.01528419198918"><ele>603.0</ele><time>2026-04-13T13:00:03.001Z</time></trkpt><trkpt lat="43.668891070468746" lon="12.015116790103237"><ele>599.6666666666666</ele><time>2026-04-13T13:00:04.001Z</time></trkpt><trkpt lat="43.66896493495906" lon="12.01491460006928"><ele>596.3333333333333</ele><time>2026-04-13T13:00:05.001Z</time></trkpt><trkpt lat="43.668995827949594" lon="12.014704712290653"><ele>593.0</ele><time>2026-04-13T13:00:06.001Z</time></trkpt><trkpt lat="43.668976465365276" lon="12.01450715237699"><ele>593.0</ele><time>2026-04-13T13:00:07.001Z</time></trkpt><trkpt lat="43.66890362472736" lon="12.014323271852074"><ele>593.0</ele><time>2026-04-13T13:00:08.001Z</time></trkpt><trkpt lat="43.66879719410648" lon="12.014160088395894"><ele>593.0</ele><time>2026-04-13T13:00:09.001Z</time></trkpt><trkpt lat="43.66865420858454" lon="12.01407675796639"><ele>598.25</ele><time>2026-04-13T13:00:10.001Z</time></trkpt><trkpt lat="43.66850060771098" lon="12.01404373962799"><ele>603.5</ele><time>2026-04-13T13:00:11.001Z</time></trkpt><trkpt lat="43.66835735581233" lon="12.01401481131625"><ele>608.75</ele><time>2026-04-13T13:00:12.001Z</time></trkpt><trkpt lat="43.66823060646187" lon="12.013975193074506"><ele>614.0</ele><time>2026-04-13T13:00:13.001Z</time></trkpt><trkpt lat="43.66811765339358" lon="12.013931812529316"><ele>614.0</ele><time>2026-04-13T13:00:14.001Z</time></trkpt><trkpt lat="43.66800871247207" lon="12.013887873384553"><ele>614.0</ele><time>2026-04-13T13:00:15.001Z</time></trkpt><trkpt lat="43.66791335530201" lon="12.013823075043756"><ele>614.0</ele><time>2026-04-13T13:00:15.999Z</time></trkpt><trkpt lat="43.6678407904787" lon="12.013726907946905"><ele>614.0</ele><time>2026-04-13T13:00:16.999Z</time></trkpt><trkpt lat="43.66779034181655" lon="12.01359687916222"><ele>614.0</ele><time>2026-04-13T13:00:17.999Z</time></trkpt><trkpt lat="43.66778369794119" lon="12.013427256475142"><ele>618.5</ele><time>2026-04-13T13:00:18.999Z</time></trkpt><trkpt lat="43.66780160895479" lon="12.013279791594856"><ele>623.0</ele><time>2026-04-13T13:00:19.999Z</time></trkpt><trkpt lat="43.66784907187993" lon="12.013135619506334"><ele>627.5</ele><time>2026-04-13T13:00:20.999Z</time></trkpt><trkpt lat="43.66793368148126" lon="12.013015471549954"><ele>632.0</ele><time>2026-04-13T13:00:21.999Z</time></trkpt><trkpt lat="43.66804103186647" lon="12.012920917331636"><ele>632.0</ele><time>2026-04-13T13:00:22.999Z</time></trkpt><trkpt lat="43.66816857363199" lon="12.012837360245097"><ele>632.0</ele><time>2026-04-13T13:00:23.999Z</time></trkpt><trkpt lat="43.66831761658917" lon="12.012753262456659"><ele>632.0</ele><time>2026-04-13T13:00:24.999Z</time></trkpt><trkpt lat="43.668463419929445" lon="12.012661112531918"><ele>632.0</ele><time>2026-04-13T13:00:25.999Z</time></trkpt><trkpt lat="43.66860249339954" lon="12.01256827108557"><ele>632.0</ele><time>2026-04-13T13:00:27Z</time></trkpt><trkpt lat="43.668739848049114" lon="12.012477295577188"><ele>632.0</ele><time>2026-04-13T13:00:28Z</time></trkpt><trkpt lat="43.66887424631529" lon="12.012391027712138"><ele>636.0</ele><time>2026-04-13T13:00:29Z</time></trkpt><trkpt lat="43.6690038508031" lon="12.012308520625238"><ele>640.0</ele><time>2026-04-13T13:00:30Z</time></trkpt><trkpt lat="43.669122234894424" lon="12.012238914837866"><ele>644.0</ele><time>2026-04-13T13:00:31Z</time></trkpt><trkpt lat="43.6692445794608" lon="12.012195361346446"><ele>648.0</ele><time>2026-04-13T13:00:32Z</time></trkpt><trkpt lat="43.66937636440266" lon="12.012190146534982"><ele>647.5</ele><time>2026-04-13T13:00:33Z</time></trkpt><trkpt lat="43.66950118961226" lon="12.012233847458507"><ele>647.0</ele><time>2026-04-13T13:00:34Z</time></trkpt><trkpt lat="43.669623860411455" lon="12.012304236499636"><ele>646.5</ele><time>2026-04-13T13:00:35Z</time></trkpt><trkpt lat="43.66974484692408" lon="12.012374967794809"><ele>646.0</ele><time>2026-04-13T13:00:36Z</time></trkpt><trkpt lat="43.669864615753184" lon="12.012436034877066"><ele>646.0</ele><time>2026-04-13T13:00:37Z</time></trkpt><trkpt lat="43.66998651994677" lon="12.012488990968855"><ele>646.0</ele><time>2026-04-13T13:00:38Z</time></trkpt><trkpt lat="43.67011356618264" lon="12.012527876229871"><ele>646.0</ele><time>2026-04-13T13:00:39Z</time></trkpt><trkpt lat="43.67024709136904" lon="12.012528890324361"><ele>646.0</ele><time>2026-04-13T13:00:40Z</time></trkpt><trkpt lat="43.67038247813185" lon="12.01248727829694"><ele>643.75</ele><time>2026-04-13T13:00:41Z</time></trkpt><trkpt lat="43.670508477624416" lon="12.012398824876074"><ele>641.5</ele><time>2026-04-13T13:00:42Z</time></trkpt><trkpt lat="43.670612906929776" lon="12.01226752501073"><ele>639.25</ele><time>2026-04-13T13:00:43Z</time></trkpt><trkpt lat="43.67069178607403" lon="12.012102950513443"><ele>637.0</ele><time>2026-04-13T13:00:44Z</time></trkpt><trkpt lat="43.67074210975558" lon="12.011913272981799"><ele>637.0</ele><time>2026-04-13T13:00:45Z</time></trkpt><trkpt lat="43.67076694658705" lon="12.01172107567239"><ele>637.0</ele><time>2026-04-13T13:00:46Z</time></trkpt><trkpt lat="43.67078644067794" lon="12.011532930807906"><ele>637.0</ele><time>2026-04-13T13:00:47Z</time></trkpt><trkpt lat="43.67082742593077" lon="12.01135108884005"><ele>637.0</ele><time>2026-04-13T13:00:48Z</time></trkpt><trkpt lat="43.670839306989976" lon="12.011167435541955"><ele>637.5</ele><time>2026-04-13T13:00:49Z</time></trkpt><trkpt lat="43.67088294504782" lon="12.010992770905938"><ele>638.0</ele><time>2026-04-13T13:00:50Z</time></trkpt><trkpt lat="43.67094856217571" lon="12.010839662210946"><ele>638.5</ele><time>2026-04-13T13:00:51Z</time></trkpt><trkpt lat="43.67104002876439" lon="12.010714388327116"><ele>639.0</ele><time>2026-04-13T13:00:52Z</time></trkpt><trkpt lat="43.67114910139639" lon="12.010605035991285"><ele>639.0</ele><time>2026-04-13T13:00:53Z</time></trkpt><trkpt lat="43.671255751833314" lon="12.010502209937192"><ele>639.0</ele><time>2026-04-13T13:00:54Z</time></trkpt><trkpt lat="43.67135053599829" lon="12.010391121205116"><ele>639.0</ele><time>2026-04-13T13:00:55Z</time></trkpt><trkpt lat="43.67142748051327" lon="12.010248279308767"><ele>639.0</ele><time>2026-04-13T13:00:56Z</time></trkpt><trkpt lat="43.67146134363725" lon="12.01006913485987"><ele>638.0</ele><time>2026-04-13T13:00:57Z</time></trkpt><trkpt lat="43.67144141476183" lon="12.009872671258192"><ele>637.0</ele><time>2026-04-13T13:00:58Z</time></trkpt><trkpt lat="43.671366325920374" lon="12.009677357647604"><ele>636.0</ele><time>2026-04-13T13:00:59Z</time></trkpt><trkpt lat="43.67125524574241" lon="12.009461055631274"><ele>636.0</ele><time>2026-04-13T13:01:00Z</time></trkpt><trkpt lat="43.67114927980323" lon="12.009203199044183"><ele>636.0</ele><time>2026-04-13T13:01:01Z</time></trkpt><trkpt lat="43.67102295320507" lon="12.008920491016054"><ele>649.5</ele><time>2026-04-13T13:01:02Z</time></trkpt><trkpt lat="43.67088577051901" lon="12.008647200822406"><ele>663.0</ele><time>2026-04-13T13:01:03Z</time></trkpt><trkpt lat="43.67080485462671" lon="12.00837003598198"><ele>661.6666666666666</ele><time>2026-04-13T13:01:04Z</time></trkpt><trkpt lat="43.67073435048869" lon="12.008066726090012"><ele>660.3333333333333</ele><time>2026-04-13T13:01:05Z</time></trkpt><trkpt lat="43.67068156167748" lon="12.007779997502729"><ele>659.0</ele><time>2026-04-13T13:01:06Z</time></trkpt><trkpt lat="43.6706482213356" lon="12.007515998186232"><ele>662.0</ele><time>2026-04-13T13:01:07Z</time></trkpt><trkpt lat="43.67062559104144" lon="12.007275584661699"><ele>665.0</ele><time>2026-04-13T13:01:08Z</time></trkpt><trkpt lat="43.67061456840064" lon="12.007054244432553"><ele>668.0</ele><time>2026-04-13T13:01:09Z</time></trkpt><trkpt lat="43.67063729805563" lon="12.00684705610224"><ele>673.0</ele><time>2026-04-13T13:01:10Z</time></trkpt><trkpt lat="43.6707210497002" lon="12.006640141726782"><ele>678.0</ele><time>2026-04-13T13:01:11Z</time></trkpt><trkpt lat="43.67085286096567" lon="12.006436848155943"><ele>683.0</ele><time>2026-04-13T13:01:12Z</time></trkpt><trkpt lat="43.67099773621259" lon="12.00623089283706"><ele>678.3333333333333</ele><time>2026-04-13T13:01:13Z</time></trkpt><trkpt lat="43.67112590679104" lon="12.00602418885608"><ele>673.6666666666666</ele><time>2026-04-13T13:01:14Z</time></trkpt><trkpt lat="43.67123758243834" lon="12.005841287007375"><ele>669.0</ele><time>2026-04-13T13:01:15Z</time></trkpt><trkpt lat="43.67132819123157" lon="12.005634114366226"><ele>669.0</ele><time>2026-04-13T13:01:16Z</time></trkpt><trkpt lat="43.67138305684199" lon="12.00538665171173"><ele>669.0</ele><time>2026-04-13T13:01:17Z</time></trkpt><trkpt lat="43.671410427790775" lon="12.005111521635653"><ele>669.0</ele><time>2026-04-13T13:01:18Z</time></trkpt><trkpt lat="43.67144802475825" lon="12.004858619229548"><ele>675.0</ele><time>2026-04-13T13:01:19Z</time></trkpt><trkpt lat="43.67152479485317" lon="12.004628433040127"><ele>681.0</ele><time>2026-04-13T13:01:20Z</time></trkpt><trkpt lat="43.671650228396224" lon="12.00442622240162"><ele>687.0</ele><time>2026-04-13T13:01:21.001Z</time></trkpt><trkpt lat="43.67179394647747" lon="12.004278279839285"><ele>683.3333333333334</ele><time>2026-04-13T13:01:22.001Z</time></trkpt><trkpt lat="43.67193218750841" lon="12.00415274572232"><ele>679.6666666666667</ele><time>2026-04-13T13:01:23.001Z</time></trkpt><trkpt lat="43.67204921222139" lon="12.003974216235349"><ele>676.0</ele><time>2026-04-13T13:01:24.001Z</time></trkpt><trkpt lat="43.67213035162394" lon="12.003727608396316"><ele>676.0</ele><time>2026-04-13T13:01:25.001Z</time></trkpt><trkpt lat="43.672201065716806" lon="12.003456656257994"><ele>676.0</ele><time>2026-04-13T13:01:26.001Z</time></trkpt><trkpt lat="43.67227979357973" lon="12.003214946800359"><ele>676.0</ele><time>2026-04-13T13:01:27.001Z</time></trkpt><trkpt lat="43.6723622140038" lon="12.00299557631958"><ele>684.0</ele><time>2026-04-13T13:01:28.001Z</time></trkpt><trkpt lat="43.67243854547434" lon="12.002791918868363"><ele>692.0</ele><time>2026-04-13T13:01:29.001Z</time></trkpt><trkpt lat="43.67250515289413" lon="12.002602739405571"><ele>700.0</ele><time>2026-04-13T13:01:30.001Z</time></trkpt><trkpt lat="43.67257961189381" lon="12.00244174968611"><ele>706.3333333333334</ele><time>2026-04-13T13:01:31.001Z</time></trkpt><trkpt lat="43.67269015572954" lon="12.002341799107757"><ele>712.6666666666666</ele><time>2026-04-13T13:01:32.001Z</time></trkpt><trkpt lat="43.67286176553049" lon="12.00234633148165"><ele>719.0</ele><time>2026-04-13T13:01:33.001Z</time></trkpt><trkpt lat="43.67301182324168" lon="12.002424168711325"><ele>720.3333333333333</ele><time>2026-04-13T13:01:34.001Z</time></trkpt><trkpt lat="43.673179409171226" lon="12.00248551361426"><ele>721.6666666666666</ele><time>2026-04-13T13:01:35.001Z</time></trkpt><trkpt lat="43.67336087477806" lon="12.002562553508767"><ele>723.0</ele><time>2026-04-13T13:01:36.001Z</time></trkpt><trkpt lat="43.673553555279696" lon="12.002623809373917"><ele>721.3333333333334</ele><time>2026-04-13T13:01:37.001Z</time></trkpt><trkpt lat="43.67372534952983" lon="12.002684019669042"><ele>719.6666666666667</ele><time>2026-04-13T13:01:38.001Z</time></trkpt><trkpt lat="43.673886330523764" lon="12.002775093595776"><ele>718.0</ele><time>2026-04-13T13:01:39.001Z</time></trkpt><trkpt lat="43.67403182177163" lon="12.002928333021673"><ele>718.0</ele><time>2026-04-13T13:01:40.001Z</time></trkpt><trkpt lat="43.674157391391326" lon="12.0031217216842"><ele>718.0</ele><time>2026-04-13T13:01:41.001Z</time></trkpt><trkpt lat="43.67427442338617" lon="12.003338716773676"><ele>718.0</ele><time>2026-04-13T13:01:42.001Z</time></trkpt><trkpt lat="43.67437682618735" lon="12.003527152470783"><ele>717.0</ele><time>2026-04-13T13:01:43.001Z</time></trkpt><trkpt lat="43.67447056824089" lon="12.003698899715548"><ele>716.0</ele><time>2026-04-13T13:01:44.001Z</time></trkpt><trkpt lat="43.67456161343452" lon="12.003847416938724"><ele>715.0</ele><time>2026-04-13T13:01:45.001Z</time></trkpt><trkpt lat="43.67466174613014" lon="12.003948038544802"><ele>714.0</ele><time>2026-04-13T13:01:46.001Z</time></trkpt><trkpt lat="43.674792062520666" lon="12.00398136663656"><ele>714.0</ele><time>2026-04-13T13:01:47.001Z</time></trkpt><trkpt lat="43.67493154723839" lon="12.003927692425897"><ele>714.0</ele><time>2026-04-13T13:01:48.001Z</time></trkpt><trkpt lat="43.67506222169894" lon="12.003813597195133"><ele>714.0</ele><time>2026-04-13T13:01:49.001Z</time></trkpt><trkpt lat="43.675190401406745" lon="12.003634119341788"><ele>710.6666666666666</ele><time>2026-04-13T13:01:50.001Z</time></trkpt><trkpt lat="43.675329005714175" lon="12.00344797174752"><ele>707.3333333333333</ele><time>2026-04-13T13:01:51.001Z</time></trkpt><trkpt lat="43.67541834680821" lon="12.003265740212704"><ele>704.0</ele><time>2026-04-13T13:01:52.001Z</time></trkpt><trkpt lat="43.675454627593396" lon="12.003057938126076"><ele>704.0</ele><time>2026-04-13T13:01:53.001Z</time></trkpt><trkpt lat="43.67544456612628" lon="12.002822378834257"><ele>704.0</ele><time>2026-04-13T13:01:54.001Z</time></trkpt><trkpt lat="43.67538713597271" lon="12.002569911133554"><ele>704.0</ele><time>2026-04-13T13:01:55.001Z</time></trkpt><trkpt lat="43.67531205879788" lon="12.002303552710105"><ele>711.6666666666666</ele><time>2026-04-13T13:01:56.001Z</time></trkpt><trkpt lat="43.675246729004684" lon="12.002057412883932"><ele>719.3333333333334</ele><time>2026-04-13T13:01:57.001Z</time></trkpt><trkpt lat="43.67519128472141" lon="12.001832749129587"><ele>727.0</ele><time>2026-04-13T13:01:58.001Z</time></trkpt><trkpt lat="43.67517239370125" lon="12.001610388252294"><ele>729.6666666666667</ele><time>2026-04-13T13:01:59.001Z</time></trkpt><trkpt lat="43.67521101237385" lon="12.001382462454023"><ele>732.3333333333334</ele><time>2026-04-13T13:02:00.001Z</time></trkpt><trkpt lat="43.67527692439058" lon="12.00114530888263"><ele>735.0</ele><time>2026-04-13T13:02:01.001Z</time></trkpt><trkpt lat="43.675361282882285" lon="12.000888349838972"><ele>731.0</ele><time>2026-04-13T13:02:02.001Z</time></trkpt><trkpt lat="43.67546264218431" lon="12.000619660048944"><ele>727.0</ele><time>2026-04-13T13:02:03.001Z</time></trkpt><trkpt lat="43.67559175124531" lon="12.000377297522363"><ele>723.0</ele><time>2026-04-13T13:02:04.001Z</time></trkpt><trkpt lat="43.67574341338625" lon="12.000170654104815"><ele>723.0</ele><time>2026-04-13T13:02:05.001Z</time></trkpt><trkpt lat="43.67590191340133" lon="11.999975240249046"><ele>723.0</ele><time>2026-04-13T13:02:06.001Z</time></trkpt><trkpt lat="43.676071316126354" lon="11.99981408572082"><ele>723.0</ele><time>2026-04-13T13:02:07.001Z</time></trkpt><trkpt lat="43.676262414139906" lon="11.999720556499387"><ele>719.0</ele><time>2026-04-13T13:02:08.001Z</time></trkpt><trkpt lat="43.67646469841151" lon="11.999675686756424"><ele>715.0</ele><time>2026-04-13T13:02:09.001Z</time></trkpt><trkpt lat="43.676643179316585" lon="11.999635349233897"><ele>711.0</ele><time>2026-04-13T13:02:10.001Z</time></trkpt><trkpt lat="43.67681704450493" lon="11.999553688892806"><ele>712.0</ele><time>2026-04-13T13:02:11.001Z</time></trkpt><trkpt lat="43.67697178129393" lon="11.999406163931935"><ele>713.0</ele><time>2026-04-13T13:02:12.001Z</time></trkpt><trkpt lat="43.67711589273695" lon="11.999196329698266"><ele>714.0</ele><time>2026-04-13T13:02:13.001Z</time></trkpt><trkpt lat="43.6772448867025" lon="11.998950712951084"><ele>714.0</ele><time>2026-04-13T13:02:14.001Z</time></trkpt><trkpt lat="43.67735149866381" lon="11.998669745083374"><ele>714.0</ele><time>2026-04-13T13:02:15.001Z</time></trkpt><trkpt lat="43.67743232750878" lon="11.99838988575899"><ele>714.0</ele><time>2026-04-13T13:02:16.001Z</time></trkpt><trkpt lat="43.67750294120193" lon="11.998138018832394"><ele>717.3333333333334</ele><time>2026-04-13T13:02:17.001Z</time></trkpt><trkpt lat="43.67760755731193" lon="11.99792709241824"><ele>720.6666666666667</ele><time>2026-04-13T13:02:18.002Z</time></trkpt><trkpt lat="43.67775532798236" lon="11.997766350101612"><ele>724.0</ele><time>2026-04-13T13:02:19.002Z</time></trkpt><trkpt lat="43.67792763145635" lon="11.997681118749494"><ele>724.0</ele><time>2026-04-13T13:02:20.002Z</time></trkpt><trkpt lat="43.67809272056677" lon="11.99768077898697"><ele>724.0</ele><time>2026-04-13T13:02:21.002Z</time></trkpt><trkpt lat="43.678239316846174" lon="11.997743201230374"><ele>724.0</ele><time>2026-04-13T13:02:22Z</time></trkpt><trkpt lat="43.678381354837626" lon="11.997790006556686"><ele>724.0</ele><time>2026-04-13T13:02:23Z</time></trkpt><trkpt lat="43.67850755706551" lon="11.997760533898283"><ele>724.0</ele><time>2026-04-13T13:02:24Z</time></trkpt><trkpt lat="43.67861961780612" lon="11.997665107137381"><ele>724.0</ele><time>2026-04-13T13:02:25Z</time></trkpt><trkpt lat="43.678730970008935" lon="11.997517557377819"><ele>724.0</ele><time>2026-04-13T13:02:26Z</time></trkpt><trkpt lat="43.67884310482668" lon="11.997363515409893"><ele>728.0</ele><time>2026-04-13T13:02:27Z</time></trkpt><trkpt lat="43.67895453956563" lon="11.997207206208486"><ele>732.0</ele><time>2026-04-13T13:02:28Z</time></trkpt><trkpt lat="43.67907491972283" lon="11.99704795642262"><ele>736.0</ele><time>2026-04-13T13:02:29Z</time></trkpt><trkpt lat="43.67920498382342" lon="11.996884501745866"><ele>736.0</ele><time>2026-04-13T13:02:30Z</time></trkpt><trkpt lat="43.67933459785258" lon="11.99671039289507"><ele>736.0</ele><time>2026-04-13T13:02:31Z</time></trkpt><trkpt lat="43.679463165665325" lon="11.996532388869811"><ele>736.0</ele><time>2026-04-13T13:02:32Z</time></trkpt><trkpt lat="43.67960771059424" lon="11.996372352347766"><ele>735.6666666666667</ele><time>2026-04-13T13:02:33Z</time></trkpt><trkpt lat="43.67974717274688" lon="11.99618866008134"><ele>735.3333333333334</ele><time>2026-04-13T13:02:34Z</time></trkpt><trkpt lat="43.67987578904372" lon="11.99599324250371"><ele>735.0</ele><time>2026-04-13T13:02:35Z</time></trkpt><trkpt lat="43.68001972698078" lon="11.995815903392323"><ele>735.0</ele><time>2026-04-13T13:02:36Z</time></trkpt><trkpt lat="43.68015822148112" lon="11.995640201039073"><ele>735.0</ele><time>2026-04-13T13:02:37Z</time></trkpt><trkpt lat="43.68029595771679" lon="11.995464579725173"><ele>735.0</ele><time>2026-04-13T13:02:38Z</time></trkpt><trkpt lat="43.68043160597806" lon="11.99528719819884"><ele>735.0</ele><time>2026-04-13T13:02:39Z</time></trkpt><trkpt lat="43.68056833329603" lon="11.995102672020495"><ele>735.0</ele><time>2026-04-13T13:02:40Z</time></trkpt><trkpt lat="43.68069306347841" lon="11.994892255636833"><ele>735.0</ele><time>2026-04-13T13:02:41Z</time></trkpt><trkpt lat="43.68078128631028" lon="11.994646264306297"><ele>739.6666666666666</ele><time>2026-04-13T13:02:42Z</time></trkpt><trkpt lat="43.680840097522506" lon="11.99438754858657"><ele>744.3333333333333</ele><time>2026-04-13T13:02:43Z</time></trkpt><trkpt lat="43.68090220527584" lon="11.994140869320638"><ele>749.0</ele><time>2026-04-13T13:02:44Z</time></trkpt><trkpt lat="43.68101369784884" lon="11.993956048415793"><ele>750.0</ele><time>2026-04-13T13:02:45Z</time></trkpt><trkpt lat="43.6811507951741" lon="11.993821080702693"><ele>751.0</ele><time>2026-04-13T13:02:46Z</time></trkpt><trkpt lat="43.68132942788846" lon="11.993736808131196"><ele>752.0</ele><time>2026-04-13T13:02:47Z</time></trkpt><trkpt lat="43.681518892172726" lon="11.993687455057461"><ele>752.0</ele><time>2026-04-13T13:02:48Z</time></trkpt><trkpt lat="43.681719284764704" lon="11.993612164561654"><ele>752.0</ele><time>2026-04-13T13:02:49Z</time></trkpt><trkpt lat="43.681931233173835" lon="11.993567303209907"><ele>752.0</ele><time>2026-04-13T13:02:50Z</time></trkpt><trkpt lat="43.68214439703309" lon="11.993507188350723"><ele>751.6666666666666</ele><time>2026-04-13T13:02:51Z</time></trkpt><trkpt lat="43.68235992132766" lon="11.993444108417892"><ele>751.3333333333334</ele><time>2026-04-13T13:02:52Z</time></trkpt><trkpt lat="43.68258120035109" lon="11.99337799601473"><ele>751.0</ele><time>2026-04-13T13:02:53.001Z</time></trkpt><trkpt lat="43.682802034717525" lon="11.993317032729982"><ele>755.3333333333334</ele><time>2026-04-13T13:02:54.001Z</time></trkpt><trkpt lat="43.68302538209772" lon="11.993255040122904"><ele>759.6666666666666</ele><time>2026-04-13T13:02:55.001Z</time></trkpt><trkpt lat="43.68324146118728" lon="11.993187697043034"><ele>764.0</ele><time>2026-04-13T13:02:56.001Z</time></trkpt><trkpt lat="43.683453594791395" lon="11.9931235837661"><ele>765.0</ele><time>2026-04-13T13:02:57.001Z</time></trkpt><trkpt lat="43.68365121672123" lon="11.993068670081225"><ele>766.0</ele><time>2026-04-13T13:02:58.001Z</time></trkpt><trkpt lat="43.68383984387321" lon="11.993015347423238"><ele>767.0</ele><time>2026-04-13T13:02:59.001Z</time></trkpt><trkpt lat="43.68401714737946" lon="11.992964417627853"><ele>767.0</ele><time>2026-04-13T13:03:00.001Z</time></trkpt><trkpt lat="43.68419409268878" lon="11.992915777870552"><ele>767.0</ele><time>2026-04-13T13:03:01.001Z</time></trkpt><trkpt lat="43.68437759468907" lon="11.992848305571213"><ele>767.0</ele><time>2026-04-13T13:03:02.001Z</time></trkpt><trkpt lat="43.6845636024825" lon="11.992743754660257"><ele>770.0</ele><time>2026-04-13T13:03:03.001Z</time></trkpt><trkpt lat="43.68475114927072" lon="11.99261241187469"><ele>773.0</ele><time>2026-04-13T13:03:04.001Z</time></trkpt><trkpt lat="43.684943255323425" lon="11.992476857336523"><ele>776.0</ele><time>2026-04-13T13:03:05.001Z</time></trkpt><trkpt lat="43.68513990992758" lon="11.992348231137518"><ele>773.6666666666667</ele><time>2026-04-13T13:03:06.001Z</time></trkpt><trkpt lat="43.68534226049249" lon="11.99221809739826"><ele>771.3333333333333</ele><time>2026-04-13T13:03:07.001Z</time></trkpt><trkpt lat="43.685541622324735" lon="11.992087606964786"><ele>769.0</ele><time>2026-04-13T13:03:08.001Z</time></trkpt><trkpt lat="43.68573233408839" lon="11.991964043286512"><ele>769.0</ele><time>2026-04-13T13:03:09.001Z</time></trkpt><trkpt lat="43.68591487566769" lon="11.991842695562468"><ele>769.0</ele><time>2026-04-13T13:03:10.001Z</time></trkpt><trkpt lat="43.68609710760456" lon="11.991721102539923"><ele>769.0</ele><time>2026-04-13T13:03:11.001Z</time></trkpt><trkpt lat="43.6862805388893" lon="11.991596290038576"><ele>773.6666666666666</ele><time>2026-04-13T13:03:12.001Z</time></trkpt><trkpt lat="43.6864578350161" lon="11.991501719371763"><ele>778.3333333333333</ele><time>2026-04-13T13:03:13.001Z</time></trkpt><trkpt lat="43.6866233407462" lon="11.991402203391376"><ele>783.0</ele><time>2026-04-13T13:03:14.001Z</time></trkpt><trkpt lat="43.68678475027262" lon="11.991352058148943"><ele>785.0</ele><time>2026-04-13T13:03:15.001Z</time></trkpt><trkpt lat="43.68695436628482" lon="11.99138015973953"><ele>787.0</ele><time>2026-04-13T13:03:16.001Z</time></trkpt><trkpt lat="43.687121720600395" lon="11.991489222823935"><ele>789.0</ele><time>2026-04-13T13:03:17.001Z</time></trkpt><trkpt lat="43.687309751757844" lon="11.991623220977894"><ele>789.3333333333333</ele><time>2026-04-13T13:03:18.001Z</time></trkpt><trkpt lat="43.68750200366653" lon="11.991760226874352"><ele>789.6666666666666</ele><time>2026-04-13T13:03:19.001Z</time></trkpt><trkpt lat="43.68768582619442" lon="11.991892252891256"><ele>790.0</ele><time>2026-04-13T13:03:20.001Z</time></trkpt><trkpt lat="43.687857999717096" lon="11.99201628245849"><ele>790.0</ele><time>2026-04-13T13:03:21.001Z</time></trkpt><trkpt lat="43.688017609895745" lon="11.992131261842724"><ele>790.0</ele><time>2026-04-13T13:03:22.001Z</time></trkpt><trkpt lat="43.6881756909002" lon="11.992221827743967"><ele>790.0</ele><time>2026-04-13T13:03:23.001Z</time></trkpt><trkpt lat="43.68831350681433" lon="11.992324538582801"><ele>790.0</ele><time>2026-04-13T13:03:24.001Z</time></trkpt><trkpt lat="43.68845313246919" lon="11.992418098151289"><ele>790.0</ele><time>2026-04-13T13:03:25.001Z</time></trkpt><trkpt lat="43.68859075492089" lon="11.992482652193099"><ele>790.0</ele><time>2026-04-13T13:03:26.001Z</time></trkpt><trkpt lat="43.68874186343296" lon="11.992485117865636"><ele>788.6666666666666</ele><time>2026-04-13T13:03:27.001Z</time></trkpt><trkpt lat="43.68889821275727" lon="11.9924198123023"><ele>787.3333333333333</ele><time>2026-04-13T13:03:28.001Z</time></trkpt><trkpt lat="43.689060668948066" lon="11.992284116979647"><ele>786.0</ele><time>2026-04-13T13:03:29.001Z</time></trkpt><trkpt lat="43.68923601360068" lon="11.992145981007605"><ele>786.0</ele><time>2026-04-13T13:03:30.001Z</time></trkpt><trkpt lat="43.689416952992225" lon="11.991995113990795"><ele>786.0</ele><time>2026-04-13T13:03:31.001Z</time></trkpt><trkpt lat="43.68960496518816" lon="11.991837761669412"><ele>786.0</ele><time>2026-04-13T13:03:32.001Z</time></trkpt><trkpt lat="43.689779775927626" lon="11.991691937321413"><ele>785.0</ele><time>2026-04-13T13:03:33.001Z</time></trkpt><trkpt lat="43.68995355920437" lon="11.99154973069689"><ele>784.0</ele><time>2026-04-13T13:03:34.001Z</time></trkpt><trkpt lat="43.69012956221101" lon="11.991405892223023"><ele>783.0</ele><time>2026-04-13T13:03:35.001Z</time></trkpt><trkpt lat="43.69030590269416" lon="11.991260524318504"><ele>783.0</ele><time>2026-04-13T13:03:36.001Z</time></trkpt><trkpt lat="43.690481705326434" lon="11.991114478589873"><ele>783.0</ele><time>2026-04-13T13:03:37.001Z</time></trkpt><trkpt lat="43.69064926921656" lon="11.990951846531981"><ele>783.0</ele><time>2026-04-13T13:03:38.001Z</time></trkpt><trkpt lat="43.6908264987703" lon="11.990808934425681"><ele>785.6666666666667</ele><time>2026-04-13T13:03:39.001Z</time></trkpt><trkpt lat="43.69100529195598" lon="11.990661417517982"><ele>788.3333333333334</ele><time>2026-04-13T13:03:40.001Z</time></trkpt><trkpt lat="43.69117513114471" lon="11.9905159990097"><ele>791.0</ele><time>2026-04-13T13:03:41.001Z</time></trkpt><trkpt lat="43.691336788724925" lon="11.990371353315648"><ele>791.0</ele><time>2026-04-13T13:03:42.001Z</time></trkpt><trkpt lat="43.6915037531976" lon="11.990259244638128"><ele>791.0</ele><time>2026-04-13T13:03:43.001Z</time></trkpt><trkpt lat="43.691664956831815" lon="11.990162190326265"><ele>791.0</ele><time>2026-04-13T13:03:44.001Z</time></trkpt><trkpt lat="43.691839454337334" lon="11.99009667652992"><ele>793.0</ele><time>2026-04-13T13:03:45.001Z</time></trkpt><trkpt lat="43.69203036455238" lon="11.990092386684756"><ele>795.0</ele><time>2026-04-13T13:03:46.001Z</time></trkpt><trkpt lat="43.69219624582911" lon="11.990036557307997"><ele>797.0</ele><time>2026-04-13T13:03:47.001Z</time></trkpt><trkpt lat="43.69240283805887" lon="11.990305841638977"><ele>797.0</ele><time>2026-04-13T13:03:48.001Z</time></trkpt><trkpt lat="43.69258227921725" lon="11.990386131427949"><ele>797.0</ele><time>2026-04-13T13:03:49.001Z</time></trkpt><trkpt lat="43.69277892851733" lon="11.990410950069837"><ele>797.0</ele><time>2026-04-13T13:03:50.001Z</time></trkpt><trkpt lat="43.69298238799696" lon="11.990380880366883"><ele>797.3333333333334</ele><time>2026-04-13T13:03:51.001Z</time></trkpt><trkpt lat="43.69319322128263" lon="11.990327179983465"><ele>797.6666666666667</ele><time>2026-04-13T13:03:52.001Z</time></trkpt><trkpt lat="43.69339822011177" lon="11.99026184818157"><ele>798.0</ele><time>2026-04-13T13:03:53.001Z</time></trkpt><trkpt lat="43.69360075088028" lon="11.990208305972715"><ele>797.0</ele><time>2026-04-13T13:03:54.002Z</time></trkpt><trkpt lat="43.693794001743" lon="11.990173709243567"><ele>796.0</ele><time>2026-04-13T13:03:55.002Z</time></trkpt><trkpt lat="43.69397992117049" lon="11.990141281256866"><ele>795.0</ele><time>2026-04-13T13:03:56.002Z</time></trkpt><trkpt lat="43.694159045059656" lon="11.990104783812656"><ele>795.0</ele><time>2026-04-13T13:03:57.002Z</time></trkpt><trkpt lat="43.69433898511434" lon="11.990065095313861"><ele>795.0</ele><time>2026-04-13T13:03:58.002Z</time></trkpt><trkpt lat="43.69451518009996" lon="11.990005673953894"><ele>795.0</ele><time>2026-04-13T13:03:59.002Z</time></trkpt><trkpt lat="43.69467011429937" lon="11.989928913869612"><ele>800.0</ele><time>2026-04-13T13:04:00.002Z</time></trkpt><trkpt lat="43.69481693934396" lon="11.989812745206239"><ele>805.0</ele><time>2026-04-13T13:04:01.002Z</time></trkpt><trkpt lat="43.6949522507621" lon="11.989649332987534"><ele>810.0</ele><time>2026-04-13T13:04:02.002Z</time></trkpt><trkpt lat="43.695067901179094" lon="11.989463195704129"><ele>810.0</ele><time>2026-04-13T13:04:03.002Z</time></trkpt><trkpt lat="43.69515224870556" lon="11.9892523203008"><ele>810.0</ele><time>2026-04-13T13:04:04.002Z</time></trkpt><trkpt lat="43.695237667159475" lon="11.989028641334613"><ele>810.0</ele><time>2026-04-13T13:04:05.002Z</time></trkpt><trkpt lat="43.695323710575444" lon="11.988798704778205"><ele>811.3333333333333</ele><time>2026-04-13T13:04:06.002Z</time></trkpt><trkpt lat="43.695404754784086" lon="11.988580403978373"><ele>812.6666666666666</ele><time>2026-04-13T13:04:07.002Z</time></trkpt><trkpt lat="43.695487162746296" lon="11.988353207473077"><ele>814.0</ele><time>2026-04-13T13:04:08.002Z</time></trkpt><trkpt lat="43.695562794022095" lon="11.988136432021355"><ele>818.0</ele><time>2026-04-13T13:04:09.002Z</time></trkpt><trkpt lat="43.695653577461194" lon="11.987922990274438"><ele>822.0</ele><time>2026-04-13T13:04:10.002Z</time></trkpt><trkpt lat="43.69572676663622" lon="11.987716383768918"><ele>826.0</ele><time>2026-04-13T13:04:11.002Z</time></trkpt><trkpt lat="43.695799369462016" lon="11.987515955237674"><ele>826.75</ele><time>2026-04-13T13:04:12.002Z</time></trkpt><trkpt lat="43.69586985330916" lon="11.987329576285205"><ele>827.5</ele><time>2026-04-13T13:04:13.002Z</time></trkpt><trkpt lat="43.69594927931288" lon="11.987159028383921"><ele>828.25</ele><time>2026-04-13T13:04:14.002Z</time></trkpt><trkpt lat="43.696037801689606" lon="11.987014505992235"><ele>829.0</ele><time>2026-04-13T13:04:15.002Z</time></trkpt><trkpt lat="43.69614045629867" lon="11.98689081807121"><ele>830.75</ele><time>2026-04-13T13:04:16.002Z</time></trkpt><trkpt lat="43.69626200217908" lon="11.986798306405321"><ele>832.5</ele><time>2026-04-13T13:04:17.002Z</time></trkpt><trkpt lat="43.69638730398468" lon="11.986718301892141"><ele>834.25</ele><time>2026-04-13T13:04:18.002Z</time></trkpt><trkpt lat="43.696513505700395" lon="11.986634736674"><ele>836.0</ele><time>2026-04-13T13:04:19.002Z</time></trkpt><trkpt lat="43.696641872114355" lon="11.986542875823726"><ele>836.0</ele><time>2026-04-13T13:04:20.002Z</time></trkpt><trkpt lat="43.69677310937655" lon="11.986442338806453"><ele>836.0</ele><time>2026-04-13T13:04:21.002Z</time></trkpt><trkpt lat="43.696900756631685" lon="11.986345808214152"><ele>836.0</ele><time>2026-04-13T13:04:22.002Z</time></trkpt><trkpt lat="43.69703692110791" lon="11.98627846024661"><ele>836.0</ele><time>2026-04-13T13:04:23.002Z</time></trkpt><trkpt lat="43.69718463160991" lon="11.986261444375696"><ele>838.6666666666667</ele><time>2026-04-13T13:04:24.002Z</time></trkpt><trkpt lat="43.69734030205825" lon="11.986288544227346"><ele>841.3333333333333</ele><time>2026-04-13T13:04:25.002Z</time></trkpt><trkpt lat="43.697508494475656" lon="11.986318677569047"><ele>844.0</ele><time>2026-04-13T13:04:26.002Z</time></trkpt><trkpt lat="43.6976915407396" lon="11.986347682044167"><ele>844.0</ele><time>2026-04-13T13:04:27.002Z</time></trkpt><trkpt lat="43.697877581291216" lon="11.986366853909907"><ele>844.0</ele><time>2026-04-13T13:04:28.001Z</time></trkpt><trkpt lat="43.69805362831448" lon="11.986420423302164"><ele>844.0</ele><time>2026-04-13T13:04:29.001Z</time></trkpt><trkpt lat="43.698223140713615" lon="11.986446672136335"><ele>844.0</ele><time>2026-04-13T13:04:30.001Z</time></trkpt><trkpt lat="43.698386825605326" lon="11.986472283449507"><ele>844.0</ele><time>2026-04-13T13:04:31.001Z</time></trkpt><trkpt lat="43.69854425336142" lon="11.986496942947909"><ele>844.0</ele><time>2026-04-13T13:04:32.001Z</time></trkpt><trkpt lat="43.698698591471285" lon="11.986521679227723"><ele>841.0</ele><time>2026-04-13T13:04:33.001Z</time></trkpt><trkpt lat="43.69884434108982" lon="11.986545039010911"><ele>838.0</ele><time>2026-04-13T13:04:34.001Z</time></trkpt><trkpt lat="43.69898654799553" lon="11.986567830979915"><ele>835.0</ele><time>2026-04-13T13:04:35.001Z</time></trkpt><trkpt lat="43.69913819684768" lon="11.986573514888622"><ele>832.0</ele><time>2026-04-13T13:04:36.001Z</time></trkpt><trkpt lat="43.69929195797416" lon="11.98660002169975"><ele>832.0</ele><time>2026-04-13T13:04:37.001Z</time></trkpt><trkpt lat="43.699446740660065" lon="11.986624006359031"><ele>832.0</ele><time>2026-04-13T13:04:38.001Z</time></trkpt><trkpt lat="43.69960020200049" lon="11.986648677716627"><ele>832.0</ele><time>2026-04-13T13:04:39.001Z</time></trkpt><trkpt lat="43.699752221599645" lon="11.98667321555213"><ele>842.6666666666666</ele><time>2026-04-13T13:04:40.001Z</time></trkpt><trkpt lat="43.699909635987964" lon="11.986696122789983"><ele>853.3333333333333</ele><time>2026-04-13T13:04:41.001Z</time></trkpt><trkpt lat="43.7000690847069" lon="11.986733482160364"><ele>864.0</ele><time>2026-04-13T13:04:42.001Z</time></trkpt><trkpt lat="43.700246689222105" lon="11.986731131476247"><ele>867.3333333333333</ele><time>2026-04-13T13:04:43.001Z</time></trkpt><trkpt lat="43.70043378387312" lon="11.986686995844176"><ele>870.6666666666666</ele><time>2026-04-13T13:04:44.001Z</time></trkpt><trkpt lat="43.70061873359423" lon="11.986588736164999"><ele>874.0</ele><time>2026-04-13T13:04:45.001Z</time></trkpt><trkpt lat="43.700811640047334" lon="11.986489328535994"><ele>870.3333333333333</ele><time>2026-04-13T13:04:46.001Z</time></trkpt><trkpt lat="43.70100582267802" lon="11.986409949078977"><ele>866.6666666666667</ele><time>2026-04-13T13:04:47.001Z</time></trkpt><trkpt lat="43.70118411865634" lon="11.986296953284599"><ele>863.0</ele><time>2026-04-13T13:04:48.001Z</time></trkpt><trkpt lat="43.701369538079945" lon="11.98620031541114"><ele>863.0</ele><time>2026-04-13T13:04:49.001Z</time></trkpt><trkpt lat="43.701538533793276" lon="11.98607702300371"><ele>863.0</ele><time>2026-04-13T13:04:50.001Z</time></trkpt><trkpt lat="43.70169189150498" lon="11.98591203390809"><ele>863.0</ele><time>2026-04-13T13:04:51.001Z</time></trkpt><trkpt lat="43.701824453281986" lon="11.985703109909162"><ele>860.0</ele><time>2026-04-13T13:04:52.001Z</time></trkpt><trkpt lat="43.70194799948031" lon="11.98546461317214"><ele>857.0</ele><time>2026-04-13T13:04:53.001Z</time></trkpt><trkpt lat="43.70208809234657" lon="11.985235014806378"><ele>854.0</ele><time>2026-04-13T13:04:54.001Z</time></trkpt><trkpt lat="43.70221208905751" lon="11.985005002180447"><ele>849.0</ele><time>2026-04-13T13:04:55.001Z</time></trkpt><trkpt lat="43.702338120569884" lon="11.98477126569672"><ele>844.0</ele><time>2026-04-13T13:04:56.001Z</time></trkpt><trkpt lat="43.70245930147237" lon="11.984546538152332"><ele>839.0</ele><time>2026-04-13T13:04:57.001Z</time></trkpt><trkpt lat="43.70258017775312" lon="11.98432241501591"><ele>836.0</ele><time>2026-04-13T13:04:58.001Z</time></trkpt><trkpt lat="43.70270050915486" lon="11.984099474902917"><ele>833.0</ele><time>2026-04-13T13:04:59.001Z</time></trkpt><trkpt lat="43.70282246910806" lon="11.983881951958377"><ele>830.0</ele><time>2026-04-13T13:05:00.001Z</time></trkpt><trkpt lat="43.70294558709714" lon="11.983661763566978"><ele>831.6666666666667</ele><time>2026-04-13T13:05:01.001Z</time></trkpt><trkpt lat="43.70310948794255" lon="11.983490510420678"><ele>833.3333333333333</ele><time>2026-04-13T13:05:02.001Z</time></trkpt><trkpt lat="43.70328280568521" lon="11.983332317583931"><ele>835.0</ele><time>2026-04-13T13:05:03.001Z</time></trkpt><trkpt lat="43.70347339463752" lon="11.983182766152941"><ele>841.3333333333333</ele><time>2026-04-13T13:05:04.001Z</time></trkpt><trkpt lat="43.70365864008134" lon="11.983019910457168"><ele>847.6666666666667</ele><time>2026-04-13T13:05:05.001Z</time></trkpt><trkpt lat="43.703843526146386" lon="11.982879542601646"><ele>854.0</ele><time>2026-04-13T13:05:06.001Z</time></trkpt><trkpt lat="43.704011037176514" lon="11.98274656683416"><ele>854.0</ele><time>2026-04-13T13:05:07.001Z</time></trkpt><trkpt lat="43.70417049609439" lon="11.982617860108244"><ele>854.0</ele><time>2026-04-13T13:05:08.001Z</time></trkpt><trkpt lat="43.70432381136376" lon="11.982493390377323"><ele>854.0</ele><time>2026-04-13T13:05:09.001Z</time></trkpt><trkpt lat="43.70447570295181" lon="11.98239671258465"><ele>849.6666666666667</ele><time>2026-04-13T13:05:10.001Z</time></trkpt><trkpt lat="43.70464978558098" lon="11.982350095002488"><ele>845.3333333333333</ele><time>2026-04-13T13:05:11.001Z</time></trkpt><trkpt lat="43.7048339319427" lon="11.982348220198173"><ele>841.0</ele><time>2026-04-13T13:05:12.001Z</time></trkpt><trkpt lat="43.705023952321746" lon="11.982376599124498"><ele>841.0</ele><time>2026-04-13T13:05:13.001Z</time></trkpt><trkpt lat="43.705213033079694" lon="11.982399515649739"><ele>841.0</ele><time>2026-04-13T13:05:14.001Z</time></trkpt><trkpt lat="43.705394098944815" lon="11.982417853481216"><ele>841.0</ele><time>2026-04-13T13:05:15.001Z</time></trkpt><trkpt lat="43.705578903476905" lon="11.98242797391606"><ele>844.0</ele><time>2026-04-13T13:05:16.001Z</time></trkpt><trkpt lat="43.705766025812665" lon="11.982420991876406"><ele>847.0</ele><time>2026-04-13T13:05:17.001Z</time></trkpt><trkpt lat="43.70593771363693" lon="11.982369162920767"><ele>850.0</ele><time>2026-04-13T13:05:18.001Z</time></trkpt><trkpt lat="43.70609676037648" lon="11.982280296008977"><ele>854.0</ele><time>2026-04-13T13:05:19.001Z</time></trkpt><trkpt lat="43.70623556617427" lon="11.982186908916669"><ele>858.0</ele><time>2026-04-13T13:05:20.001Z</time></trkpt><trkpt lat="43.70636503256118" lon="11.982100386843545"><ele>862.0</ele><time>2026-04-13T13:05:21.001Z</time></trkpt><trkpt lat="43.706470387090604" lon="11.981995977148138"><ele>866.0</ele><time>2026-04-13T13:05:22.001Z</time></trkpt><trkpt lat="43.70653695757398" lon="11.981842200825652"><ele>858.0</ele><time>2026-04-13T13:05:23.001Z</time></trkpt><trkpt lat="43.706543068101325" lon="11.981655804994102"><ele>850.0</ele><time>2026-04-13T13:05:24.001Z</time></trkpt><trkpt lat="43.70648342645218" lon="11.981462538393053"><ele>842.0</ele><time>2026-04-13T13:05:25.001Z</time></trkpt><trkpt lat="43.706402510424994" lon="11.981241338265864"><ele>842.0</ele><time>2026-04-13T13:05:26.001Z</time></trkpt><trkpt lat="43.70632526313933" lon="11.981068602436194"><ele>842.0</ele><time>2026-04-13T13:05:27.001Z</time></trkpt><trkpt lat="43.7062362252239" lon="11.980933833456001"><ele>842.0</ele><time>2026-04-13T13:05:28.001Z</time></trkpt><trkpt lat="43.706111457115746" lon="11.980862594983329"><ele>842.0</ele><time>2026-04-13T13:05:29.001Z</time></trkpt><trkpt lat="43.70594665100597" lon="11.9808434598975"><ele>844.0</ele><time>2026-04-13T13:05:30.001Z</time></trkpt><trkpt lat="43.70576074801324" lon="11.98084478374503"><ele>846.0</ele><time>2026-04-13T13:05:31.001Z</time></trkpt><trkpt lat="43.70556615309275" lon="11.980848246184244"><ele>848.0</ele><time>2026-04-13T13:05:32.001Z</time></trkpt><trkpt lat="43.70539001727657" lon="11.980853122881529"><ele>850.0</ele><time>2026-04-13T13:05:33.001Z</time></trkpt><trkpt lat="43.705234283154596" lon="11.98084056878849"><ele>852.0</ele><time>2026-04-13T13:05:34.001Z</time></trkpt><trkpt lat="43.70506726914747" lon="11.9808343883477"><ele>854.0</ele><time>2026-04-13T13:05:35.001Z</time></trkpt><trkpt lat="43.704884602360906" lon="11.980832625052393"><ele>854.0</ele><time>2026-04-13T13:05:36.001Z</time></trkpt><trkpt lat="43.70469185084221" lon="11.980818868308129"><ele>854.0</ele><time>2026-04-13T13:05:37.001Z</time></trkpt><trkpt lat="43.70449008935174" lon="11.980800654738742"><ele>854.0</ele><time>2026-04-13T13:05:38.001Z</time></trkpt><trkpt lat="43.70428005813729" lon="11.98078767977355"><ele>854.3333333333334</ele><time>2026-04-13T13:05:39.001Z</time></trkpt><trkpt lat="43.704066486997434" lon="11.980775595032625"><ele>854.6666666666667</ele><time>2026-04-13T13:05:40.001Z</time></trkpt><trkpt lat="43.70385358126309" lon="11.980768827385909"><ele>855.0</ele><time>2026-04-13T13:05:41.001Z</time></trkpt><trkpt lat="43.703641872794414" lon="11.980779556405183"><ele>857.6666666666667</ele><time>2026-04-13T13:05:42.001Z</time></trkpt><trkpt lat="43.70343851388664" lon="11.980829468582977"><ele>860.3333333333334</ele><time>2026-04-13T13:05:43.001Z</time></trkpt><trkpt lat="43.70325106923912" lon="11.980914115692228"><ele>863.0</ele><time>2026-04-13T13:05:44.001Z</time></trkpt><trkpt lat="43.7030841914828" lon="11.980998130670619"><ele>856.3333333333334</ele><time>2026-04-13T13:05:45.001Z</time></trkpt><trkpt lat="43.702926927363556" lon="11.98106556298736"><ele>849.6666666666667</ele><time>2026-04-13T13:05:46.001Z</time></trkpt><trkpt lat="43.70277358713663" lon="11.98111170825153"><ele>843.0</ele><time>2026-04-13T13:05:47.001Z</time></trkpt><trkpt lat="43.702623914210264" lon="11.981110893202295"><ele>843.0</ele><time>2026-04-13T13:05:48.001Z</time></trkpt><trkpt lat="43.702471475023614" lon="11.981071160881946"><ele>843.0</ele><time>2026-04-13T13:05:49.001Z</time></trkpt><trkpt lat="43.70233909952588" lon="11.980954198511094"><ele>843.0</ele><time>2026-04-13T13:05:50.001Z</time></trkpt><trkpt lat="43.70222044287661" lon="11.98078552809893"><ele>850.6666666666667</ele><time>2026-04-13T13:05:51.001Z</time></trkpt><trkpt lat="43.7021461107519" lon="11.980563085410834"><ele>858.3333333333334</ele><time>2026-04-13T13:05:52.001Z</time></trkpt><trkpt lat="43.70210452198592" lon="11.98030827052003"><ele>866.0</ele><time>2026-04-13T13:05:53.001Z</time></trkpt><trkpt lat="43.70207185206335" lon="11.980037929892468"><ele>869.3333333333334</ele><time>2026-04-13T13:05:54.001Z</time></trkpt><trkpt lat="43.70203448297525" lon="11.979781420993527"><ele>872.6666666666667</ele><time>2026-04-13T13:05:55.001Z</time></trkpt><trkpt lat="43.70199382093465" lon="11.979531071240245"><ele>876.0</ele><time>2026-04-13T13:05:56.001Z</time></trkpt><trkpt lat="43.70195481334874" lon="11.97927907194916"><ele>873.6666666666667</ele><time>2026-04-13T13:05:57.001Z</time></trkpt><trkpt lat="43.701912318342295" lon="11.979035189908048"><ele>871.3333333333334</ele><time>2026-04-13T13:05:58.001Z</time></trkpt><trkpt lat="43.70186733367804" lon="11.978804399720334"><ele>869.0</ele><time>2026-04-13T13:05:59.001Z</time></trkpt><trkpt lat="43.70180401765276" lon="11.978591123890798"><ele>869.0</ele><time>2026-04-13T13:06:00.001Z</time></trkpt><trkpt lat="43.701696152882654" lon="11.978403506895242"><ele>869.0</ele><time>2026-04-13T13:06:01.002Z</time></trkpt><trkpt lat="43.70154820308815" lon="11.978250500572843"><ele>869.0</ele><time>2026-04-13T13:06:02.002Z</time></trkpt><trkpt lat="43.70138056036341" lon="11.978175744871532"><ele>871.3333333333334</ele><time>2026-04-13T13:06:03.002Z</time></trkpt><trkpt lat="43.70120124781727" lon="11.978142828716956"><ele>873.6666666666667</ele><time>2026-04-13T13:06:04.002Z</time></trkpt><trkpt lat="43.701035920181084" lon="11.978128252548226"><ele>876.0</ele><time>2026-04-13T13:06:05.002Z</time></trkpt><trkpt lat="43.70088642170493" lon="11.978108243106998"><ele>876.0</ele><time>2026-04-13T13:06:06.002Z</time></trkpt><trkpt lat="43.7007544538427" lon="11.978076468911015"><ele>876.0</ele><time>2026-04-13T13:06:07.002Z</time></trkpt><trkpt lat="43.70063337006283" lon="11.978011650552808"><ele>876.0</ele><time>2026-04-13T13:06:08.002Z</time></trkpt><trkpt lat="43.70052561579557" lon="11.977901786872916"><ele>876.0</ele><time>2026-04-13T13:06:09.002Z</time></trkpt><trkpt lat="43.70045681568251" lon="11.977739310451309"><ele>876.0</ele><time>2026-04-13T13:06:10.002Z</time></trkpt><trkpt lat="43.700438155202704" lon="11.9775510456092"><ele>876.0</ele><time>2026-04-13T13:06:11.002Z</time></trkpt><trkpt lat="43.70047968357104" lon="11.977374593949328"><ele>876.0</ele><time>2026-04-13T13:06:12.002Z</time></trkpt><trkpt lat="43.70057327689254" lon="11.977242394160445"><ele>876.0</ele><time>2026-04-13T13:06:13.002Z</time></trkpt><trkpt lat="43.700709704768286" lon="11.977171885422896"><ele>879.3333333333333</ele><time>2026-04-13T13:06:14.002Z</time></trkpt><trkpt lat="43.700860603298686" lon="11.977197338062135"><ele>882.6666666666666</ele><time>2026-04-13T13:06:15.002Z</time></trkpt><trkpt lat="43.70102396323816" lon="11.977241894545951"><ele>886.0</ele><time>2026-04-13T13:06:16.002Z</time></trkpt><trkpt lat="43.701194894454645" lon="11.977328830512443"><ele>889.0</ele><time>2026-04-13T13:06:17.002Z</time></trkpt><trkpt lat="43.70136628211327" lon="11.977380784743858"><ele>892.0</ele><time>2026-04-13T13:06:18.002Z</time></trkpt><trkpt lat="43.70157187047136" lon="11.977446657934038"><ele>895.0</ele><time>2026-04-13T13:06:19.002Z</time></trkpt><trkpt lat="43.70178472293524" lon="11.977516288201002"><ele>893.3333333333333</ele><time>2026-04-13T13:06:20.002Z</time></trkpt><trkpt lat="43.701989350794825" lon="11.977587168906757"><ele>891.6666666666667</ele><time>2026-04-13T13:06:21.002Z</time></trkpt><trkpt lat="43.702193639513446" lon="11.977656385444815"><ele>890.0</ele><time>2026-04-13T13:06:22.002Z</time></trkpt><trkpt lat="43.70238763006913" lon="11.977745655491399"><ele>890.0</ele><time>2026-04-13T13:06:23.002Z</time></trkpt><trkpt lat="43.70258144350861" lon="11.97780057976605"><ele>890.0</ele><time>2026-04-13T13:06:24.002Z</time></trkpt><trkpt lat="43.70275702943555" lon="11.97791153727901"><ele>890.0</ele><time>2026-04-13T13:06:25.002Z</time></trkpt><trkpt lat="43.70290987700728" lon="11.978076900224067"><ele>893.6666666666667</ele><time>2026-04-13T13:06:26.002Z</time></trkpt><trkpt lat="43.70304475129261" lon="11.978260419259767"><ele>897.3333333333333</ele><time>2026-04-13T13:06:27.002Z</time></trkpt><trkpt lat="43.70317539520702" lon="11.978470184561608"><ele>901.0</ele><time>2026-04-13T13:06:28.002Z</time></trkpt><trkpt lat="43.70331504209838" lon="11.978679256877369"><ele>901.0</ele><time>2026-04-13T13:06:29.002Z</time></trkpt><trkpt lat="43.703430505418304" lon="11.978881204945113"><ele>901.0</ele><time>2026-04-13T13:06:30.002Z</time></trkpt><trkpt lat="43.703538887599166" lon="11.979062433550315"><ele>901.0</ele><time>2026-04-13T13:06:31.002Z</time></trkpt><trkpt lat="43.703638237681986" lon="11.979228806489504"><ele>898.25</ele><time>2026-04-13T13:06:32.002Z</time></trkpt><trkpt lat="43.703731519702195" lon="11.979369089940745"><ele>895.5</ele><time>2026-04-13T13:06:33.002Z</time></trkpt><trkpt lat="43.70383673192629" lon="11.97947300232794"><ele>892.75</ele><time>2026-04-13T13:06:34.001Z</time></trkpt><trkpt lat="43.70396207479087" lon="11.979482273437585"><ele>890.0</ele><time>2026-04-13T13:06:35.001Z</time></trkpt><trkpt lat="43.70408104039551" lon="11.979412863053062"><ele>890.0</ele><time>2026-04-13T13:06:36.001Z</time></trkpt><trkpt lat="43.7041576181824" lon="11.979257663082597"><ele>890.0</ele><time>2026-04-13T13:06:37.001Z</time></trkpt><trkpt lat="43.704175185327024" lon="11.979055037618885"><ele>890.0</ele><time>2026-04-13T13:06:38.001Z</time></trkpt><trkpt lat="43.704125231645975" lon="11.978850089768272"><ele>890.0</ele><time>2026-04-13T13:06:39.001Z</time></trkpt><trkpt lat="43.70403686051231" lon="11.978640061785947"><ele>897.6666666666667</ele><time>2026-04-13T13:06:40.001Z</time></trkpt><trkpt lat="43.70395003494774" lon="11.978411943947327"><ele>905.3333333333333</ele><time>2026-04-13T13:06:41.001Z</time></trkpt><trkpt lat="43.70386794840949" lon="11.978156778299404"><ele>913.0</ele><time>2026-04-13T13:06:42.001Z</time></trkpt><trkpt lat="43.70378521849568" lon="11.977899019653151"><ele>915.6666666666666</ele><time>2026-04-13T13:06:43.001Z</time></trkpt><trkpt lat="43.70370018677954" lon="11.977662308290702"><ele>918.3333333333333</ele><time>2026-04-13T13:06:44.001Z</time></trkpt><trkpt lat="43.703589852675975" lon="11.97744182498281"><ele>921.0</ele><time>2026-04-13T13:06:45.001Z</time></trkpt><trkpt lat="43.7034456702956" lon="11.977255667850159"><ele>921.0</ele><time>2026-04-13T13:06:46.001Z</time></trkpt><trkpt lat="43.70327303157242" lon="11.977093066771017"><ele>921.0</ele><time>2026-04-13T13:06:47.001Z</time></trkpt><trkpt lat="43.7030927942323" lon="11.976935599413293"><ele>921.0</ele><time>2026-04-13T13:06:48.001Z</time></trkpt><trkpt lat="43.702918272092006" lon="11.97677815440563"><ele>923.6666666666667</ele><time>2026-04-13T13:06:49.001Z</time></trkpt><trkpt lat="43.70275900166682" lon="11.976616503956464"><ele>926.3333333333334</ele><time>2026-04-13T13:06:50.001Z</time></trkpt><trkpt lat="43.702611758645624" lon="11.976460481034493"><ele>929.0</ele><time>2026-04-13T13:06:51.001Z</time></trkpt><trkpt lat="43.70247256848128" lon="11.976322088658527"><ele>929.0</ele><time>2026-04-13T13:06:52.001Z</time></trkpt><trkpt lat="43.702341552842185" lon="11.976194798787049"><ele>929.0</ele><time>2026-04-13T13:06:53.001Z</time></trkpt><trkpt lat="43.70223771510046" lon="11.976054314163484"><ele>929.0</ele><time>2026-04-13T13:06:54.001Z</time></trkpt><trkpt lat="43.702171405023265" lon="11.975876547909216"><ele>933.3333333333334</ele><time>2026-04-13T13:06:55.001Z</time></trkpt><trkpt lat="43.7021527119272" lon="11.975656396452633"><ele>937.6666666666667</ele><time>2026-04-13T13:06:56.001Z</time></trkpt><trkpt lat="43.7021857049459" lon="11.97541495930863"><ele>942.0</ele><time>2026-04-13T13:06:57.001Z</time></trkpt><trkpt lat="43.70226353494012" lon="11.975182731525333"><ele>942.6666666666667</ele><time>2026-04-13T13:06:58.001Z</time></trkpt><trkpt lat="43.70234156383539" lon="11.974939890539442"><ele>943.3333333333334</ele><time>2026-04-13T13:06:59.001Z</time></trkpt><trkpt lat="43.702414073921254" lon="11.974686119504717"><ele>944.0</ele><time>2026-04-13T13:07:00.001Z</time></trkpt><trkpt lat="43.702486381018915" lon="11.974424509991186"><ele>943.3333333333334</ele><time>2026-04-13T13:07:01.001Z</time></trkpt><trkpt lat="43.70255890838889" lon="11.974156387106383"><ele>942.6666666666667</ele><time>2026-04-13T13:07:02.001Z</time></trkpt><trkpt lat="43.70263351072811" lon="11.973882020728912"><ele>942.0</ele><time>2026-04-13T13:07:03.001Z</time></trkpt><trkpt lat="43.70271505598934" lon="11.973595923572296"><ele>955.0</ele><time>2026-04-13T13:07:04.001Z</time></trkpt><trkpt lat="43.70279939600551" lon="11.973301415021407"><ele>968.0</ele><time>2026-04-13T13:07:05.001Z</time></trkpt><trkpt lat="43.702883291822104" lon="11.973004301802797"><ele>968.0</ele><time>2026-04-13T13:07:06.001Z</time></trkpt><trkpt lat="43.70296605264468" lon="11.972711453343221"><ele>968.0</ele><time>2026-04-13T13:07:07.001Z</time></trkpt><trkpt lat="43.70304720570344" lon="11.972417197236117"><ele>967.6666666666667</ele><time>2026-04-13T13:07:08.001Z</time></trkpt><trkpt lat="43.703127463166815" lon="11.972126744435133"><ele>967.3333333333333</ele><time>2026-04-13T13:07:09.001Z</time></trkpt><trkpt lat="43.70320509808086" lon="11.971840893974635"><ele>967.0</ele><time>2026-04-13T13:07:10.001Z</time></trkpt><trkpt lat="43.703285955628665" lon="11.971553279581984"><ele>965.0</ele><time>2026-04-13T13:07:11.001Z</time></trkpt><trkpt lat="43.70336679683733" lon="11.971275232063014"><ele>963.0</ele><time>2026-04-13T13:07:12.001Z</time></trkpt><trkpt lat="43.70346715920764" lon="11.971017045101819"><ele>961.0</ele><time>2026-04-13T13:07:13.001Z</time></trkpt><trkpt lat="43.70361828909128" lon="11.970807408367758"><ele>966.0</ele><time>2026-04-13T13:07:14.001Z</time></trkpt><trkpt lat="43.703781885724176" lon="11.97060500831654"><ele>971.0</ele><time>2026-04-13T13:07:15.001Z</time></trkpt><trkpt lat="43.70395151696853" lon="11.97039178009887"><ele>976.0</ele><time>2026-04-13T13:07:16.001Z</time></trkpt><trkpt lat="43.704137010196405" lon="11.97019015848509"><ele>974.5</ele><time>2026-04-13T13:07:17.001Z</time></trkpt><trkpt lat="43.704319414398825" lon="11.96997393422971"><ele>973.0</ele><time>2026-04-13T13:07:18.001Z</time></trkpt><trkpt lat="43.70449768288372" lon="11.969763231751132"><ele>977.3333333333333</ele><time>2026-04-13T13:07:19.001Z</time></trkpt><trkpt lat="43.704668358477505" lon="11.96955778707083"><ele>981.6666666666667</ele><time>2026-04-13T13:07:20.001Z</time></trkpt><trkpt lat="43.70482518184016" lon="11.969373917379325"><ele>986.0</ele><time>2026-04-13T13:07:21.001Z</time></trkpt><trkpt lat="43.704977002922334" lon="11.969207388257763"><ele>985.3333333333334</ele><time>2026-04-13T13:07:22.001Z</time></trkpt><trkpt lat="43.70510312205622" lon="11.969015172298601"><ele>984.6666666666667</ele><time>2026-04-13T13:07:23.001Z</time></trkpt><trkpt lat="43.70517768930442" lon="11.96877136143888"><ele>984.0</ele><time>2026-04-13T13:07:24.001Z</time></trkpt><trkpt lat="43.70520635477747" lon="11.968490818908524"><ele>983.3333333333333</ele><time>2026-04-13T13:07:25.001Z</time></trkpt><trkpt lat="43.70519977646003" lon="11.968194001823468"><ele>982.6666666666666</ele><time>2026-04-13T13:07:26.001Z</time></trkpt><trkpt lat="43.70517520174271" lon="11.967902040488147"><ele>982.0</ele><time>2026-04-13T13:07:27.001Z</time></trkpt><trkpt lat="43.705155870524514" lon="11.96763253879094"><ele>983.0</ele><time>2026-04-13T13:07:28.001Z</time></trkpt><trkpt lat="43.705152813188455" lon="11.96736921046928"><ele>984.0</ele><time>2026-04-13T13:07:29.001Z</time></trkpt><trkpt lat="43.70517830560182" lon="11.967104313265594"><ele>985.0</ele><time>2026-04-13T13:07:30.001Z</time></trkpt><trkpt lat="43.70522358364256" lon="11.966831332243638"><ele>992.0</ele><time>2026-04-13T13:07:31.001Z</time></trkpt><trkpt lat="43.70529439698509" lon="11.96654944792051"><ele>999.0</ele><time>2026-04-13T13:07:32.001Z</time></trkpt><trkpt lat="43.705376755256346" lon="11.966259138072529"><ele>1006.0</ele><time>2026-04-13T13:07:33.001Z</time></trkpt><trkpt lat="43.70545929990973" lon="11.965958916904707"><ele>1007.0</ele><time>2026-04-13T13:07:34.001Z</time></trkpt><trkpt lat="43.705540102921034" lon="11.965657785182167"><ele>1008.0</ele><time>2026-04-13T13:07:35.001Z</time></trkpt><trkpt lat="43.70561868376536" lon="11.965360473328607"><ele>1008.0</ele><time>2026-04-13T13:07:36.001Z</time></trkpt><trkpt lat="43.705702967658844" lon="11.965065463090124"><ele>1008.0</ele><time>2026-04-13T13:07:37.001Z</time></trkpt><trkpt lat="43.705793632044234" lon="11.964759282969505"><ele>1007.6666666666667</ele><time>2026-04-13T13:07:38.001Z</time></trkpt><trkpt lat="43.70588236244031" lon="11.964467410385431"><ele>1007.3333333333334</ele><time>2026-04-13T13:07:39.001Z</time></trkpt><trkpt lat="43.70596042188819" lon="11.964207582203567"><ele>1007.0</ele><time>2026-04-13T13:07:40.001Z</time></trkpt><trkpt lat="43.70603527041878" lon="11.963947230754709"><ele>1017.6666666666667</ele><time>2026-04-13T13:07:41.001Z</time></trkpt><trkpt lat="43.706110041371765" lon="11.963683689099337"><ele>1028.3333333333333</ele><time>2026-04-13T13:07:42.001Z</time></trkpt><trkpt lat="43.70618784106268" lon="11.963416017484807"><ele>1039.0</ele><time>2026-04-13T13:07:43.001Z</time></trkpt><trkpt lat="43.70626784937317" lon="11.963145780708894"><ele>1039.0</ele><time>2026-04-13T13:07:44.001Z</time></trkpt><trkpt lat="43.70634365442744" lon="11.962890596619316"><ele>1039.0</ele><time>2026-04-13T13:07:45.001Z</time></trkpt><trkpt lat="43.706390159593326" lon="11.962644053363892"><ele>1039.0</ele><time>2026-04-13T13:07:46.001Z</time></trkpt><trkpt lat="43.706384899260975" lon="11.962386321521125"><ele>1037.6666666666665</ele><time>2026-04-13T13:07:47.001Z</time></trkpt><trkpt lat="43.70630667506693" lon="11.962119673665345"><ele>1036.3333333333333</ele><time>2026-04-13T13:07:48.001Z</time></trkpt><trkpt lat="43.70621614823511" lon="11.961898614538994"><ele>1035.0</ele><time>2026-04-13T13:07:49.001Z</time></trkpt><trkpt lat="43.70609378412769" lon="11.961726520364145"><ele>1029.6666666666667</ele><time>2026-04-13T13:07:50.001Z</time></trkpt><trkpt lat="43.705940339883796" lon="11.961597003459316"><ele>1024.3333333333335</ele><time>2026-04-13T13:07:51.001Z</time></trkpt><trkpt lat="43.7057554456231" lon="11.961492603263316"><ele>1019.0</ele><time>2026-04-13T13:07:52.001Z</time></trkpt><trkpt lat="43.70556418954619" lon="11.961396255204361"><ele>1019.0</ele><time>2026-04-13T13:07:53.001Z</time></trkpt><trkpt lat="43.705370748417124" lon="11.961298309741045"><ele>1019.0</ele><time>2026-04-13T13:07:54.001Z</time></trkpt><trkpt lat="43.70518827547983" lon="11.961190129158387"><ele>1019.0</ele><time>2026-04-13T13:07:55.001Z</time></trkpt><trkpt lat="43.704997029217886" lon="11.961095208017387"><ele>1019.0</ele><time>2026-04-13T13:07:56.001Z</time></trkpt><trkpt lat="43.70479297682351" lon="11.961064120516603"><ele>1019.0</ele><time>2026-04-13T13:07:57.001Z</time></trkpt><trkpt lat="43.704570286228645" lon="11.961094015222274"><ele>1019.0</ele><time>2026-04-13T13:07:58.001Z</time></trkpt><trkpt lat="43.70434194841114" lon="11.961172119996535"><ele>1024.5</ele><time>2026-04-13T13:07:59.001Z</time></trkpt><trkpt lat="43.70411495429557" lon="11.961275644419194"><ele>1030.0</ele><time>2026-04-13T13:08:00.001Z</time></trkpt><trkpt lat="43.703883176291434" lon="11.961382181704364"><ele>1030.0</ele><time>2026-04-13T13:08:01.001Z</time></trkpt><trkpt lat="43.703650417634144" lon="11.96146522360316"><ele>1030.0</ele><time>2026-04-13T13:08:02.001Z</time></trkpt><trkpt lat="43.7034352445707" lon="11.961546480782616"><ele>1025.3333333333333</ele><time>2026-04-13T13:08:03.001Z</time></trkpt><trkpt lat="43.7032151771421" lon="11.961623887345977"><ele>1020.6666666666667</ele><time>2026-04-13T13:08:04.001Z</time></trkpt><trkpt lat="43.703001250373894" lon="11.961700066181157"><ele>1016.0</ele><time>2026-04-13T13:08:05.001Z</time></trkpt><trkpt lat="43.70279774968167" lon="11.961775308412403"><ele>1021.6666666666667</ele><time>2026-04-13T13:08:06.001Z</time></trkpt><trkpt lat="43.70259215074938" lon="11.961850787707682"><ele>1027.3333333333333</ele><time>2026-04-13T13:08:07.001Z</time></trkpt><trkpt lat="43.70239788447113" lon="11.96193903539813"><ele>1033.0</ele><time>2026-04-13T13:08:08.001Z</time></trkpt><trkpt lat="43.70220847118596" lon="11.962022563076179"><ele>1033.0</ele><time>2026-04-13T13:08:09.001Z</time></trkpt><trkpt lat="43.70202650588222" lon="11.962079701207566"><ele>1033.0</ele><time>2026-04-13T13:08:10.001Z</time></trkpt><trkpt lat="43.7018446804208" lon="11.962099181158907"><ele>1033.0</ele><time>2026-04-13T13:08:11.001Z</time></trkpt><trkpt lat="43.70168945167832" lon="11.96207113815642"><ele>1034.1666666666665</ele><time>2026-04-13T13:08:12.001Z</time></trkpt><trkpt lat="43.70159536386195" lon="11.962021025788273"><ele>1035.3333333333333</ele><time>2026-04-13T13:08:13.001Z</time></trkpt><trkpt lat="43.70151645658523" lon="11.961951271116673"><ele>1036.5</ele><time>2026-04-13T13:08:15.001Z</time></trkpt><trkpt lat="43.70144587672615" lon="11.961928749222194"><ele>1037.6666666666667</ele><time>2026-04-13T13:09:15.001Z</time></trkpt><trkpt lat="43.70138805972876" lon="11.961885666983948"><ele>1038.8333333333335</ele><time>2026-04-13T13:09:17.001Z</time></trkpt><trkpt lat="43.70132993231391" lon="11.96184779476912"><ele>1040.0</ele><time>2026-04-13T13:09:19.001Z</time></trkpt><trkpt lat="43.70129346565299" lon="11.961740403452733"><ele>1043.25</ele><time>2026-04-13T13:11:59.001Z</time></trkpt><trkpt lat="43.70122237146572" lon="11.961659400697053"><ele>1046.5</ele><time>2026-04-13T13:12:00.001Z</time></trkpt><trkpt lat="43.70113902265786" lon="11.961539213174003"><ele>1049.75</ele><time>2026-04-13T13:12:01.001Z</time></trkpt><trkpt lat="43.70105798262049" lon="11.961390297965712"><ele>1053.0</ele><time>2026-04-13T13:12:02.001Z</time></trkpt><trkpt lat="43.70097613313029" lon="11.96124462496391"><ele>1053.0</ele><time>2026-04-13T13:12:03.001Z</time></trkpt><trkpt lat="43.70089212931895" lon="11.961088146313958"><ele>1053.0</ele><time>2026-04-13T13:12:04.001Z</time></trkpt><trkpt lat="43.70080745054807" lon="11.96093986447248"><ele>1053.0</ele><time>2026-04-13T13:12:05.001Z</time></trkpt><trkpt lat="43.700720642944496" lon="11.960790238018236"><ele>1053.0</ele><time>2026-04-13T13:12:06.001Z</time></trkpt><trkpt lat="43.70063507092851" lon="11.960639922068712"><ele>1051.5</ele><time>2026-04-13T13:12:07.001Z</time></trkpt><trkpt lat="43.70055126875436" lon="11.96049117678256"><ele>1050.0</ele><time>2026-04-13T13:12:08.001Z</time></trkpt><trkpt lat="43.70046793529917" lon="11.960342661448607"><ele>1048.5</ele><time>2026-04-13T13:12:09.001Z</time></trkpt><trkpt lat="43.70038654412293" lon="11.960198018294193"><ele>1047.0</ele><time>2026-04-13T13:12:10.001Z</time></trkpt><trkpt lat="43.70030530793791" lon="11.960050959946436"><ele>1045.5</ele><time>2026-04-13T13:12:11.001Z</time></trkpt><trkpt lat="43.70022122765843" lon="11.959899892421"><ele>1044.0</ele><time>2026-04-13T13:12:12.001Z</time></trkpt><trkpt lat="43.7001322872907" lon="11.959738538992157"><ele>1042.5</ele><time>2026-04-13T13:12:13.001Z</time></trkpt><trkpt lat="43.700035637141156" lon="11.959572640932942"><ele>1041.0</ele><time>2026-04-13T13:12:14.001Z</time></trkpt><trkpt lat="43.69993604172868" lon="11.959403899716142"><ele>1041.0</ele><time>2026-04-13T13:12:15.001Z</time></trkpt><trkpt lat="43.699836733220565" lon="11.95923154260018"><ele>1041.0</ele><time>2026-04-13T13:12:16.001Z</time></trkpt><trkpt lat="43.69973974080589" lon="11.959055856113654"><ele>1041.0</ele><time>2026-04-13T13:12:17.001Z</time></trkpt><trkpt lat="43.69964048481488" lon="11.958877959966113"><ele>1040.0</ele><time>2026-04-13T13:12:18.001Z</time></trkpt><trkpt lat="43.69953854301419" lon="11.958696647924093"><ele>1039.0</ele><time>2026-04-13T13:12:19.001Z</time></trkpt><trkpt lat="43.69943503214919" lon="11.958510254843578"><ele>1038.0</ele><time>2026-04-13T13:12:20.001Z</time></trkpt><trkpt lat="43.69933361724646" lon="11.958323004714154"><ele>1035.6666666666667</ele><time>2026-04-13T13:12:21.001Z</time></trkpt><trkpt lat="43.69922976038086" lon="11.958139969619316"><ele>1033.3333333333335</ele><time>2026-04-13T13:12:22.001Z</time></trkpt><trkpt lat="43.699122637810525" lon="11.957955964949702"><ele>1031.0</ele><time>2026-04-13T13:12:23.001Z</time></trkpt><trkpt lat="43.699018856198705" lon="11.957773604878687"><ele>1031.0</ele><time>2026-04-13T13:12:24.001Z</time></trkpt><trkpt lat="43.69891988022193" lon="11.9575926301467"><ele>1031.0</ele><time>2026-04-13T13:12:25.001Z</time></trkpt><trkpt lat="43.69882379270037" lon="11.95741370310972"><ele>1031.0</ele><time>2026-04-13T13:12:26.001Z</time></trkpt><trkpt lat="43.69874557888629" lon="11.957228733334826"><ele>1030.5</ele><time>2026-04-13T13:12:27.001Z</time></trkpt><trkpt lat="43.69871205372369" lon="11.957025531382433"><ele>1030.0</ele><time>2026-04-13T13:12:28.001Z</time></trkpt><trkpt lat="43.6987200409845" lon="11.95682388132348"><ele>1029.5</ele><time>2026-04-13T13:12:29.001Z</time></trkpt><trkpt lat="43.69875831633124" lon="11.956629584679657"><ele>1029.0</ele><time>2026-04-13T13:12:30.001Z</time></trkpt><trkpt lat="43.69882324049414" lon="11.95644850024657"><ele>1028.0</ele><time>2026-04-13T13:12:31.001Z</time></trkpt><trkpt lat="43.69891567482515" lon="11.956294773260941"><ele>1027.0</ele><time>2026-04-13T13:12:32.001Z</time></trkpt><trkpt lat="43.69903418915996" lon="11.956178376656565"><ele>1026.0</ele><time>2026-04-13T13:12:33.001Z</time></trkpt><trkpt lat="43.699164361806126" lon="11.956108126922077"><ele>1025.0</ele><time>2026-04-13T13:12:34.001Z</time></trkpt><trkpt lat="43.69930682094716" lon="11.956113160799005"><ele>1023.5</ele><time>2026-04-13T13:12:35.001Z</time></trkpt><trkpt lat="43.69944911009108" lon="11.95614448466556"><ele>1022.0</ele><time>2026-04-13T13:12:36.001Z</time></trkpt><trkpt lat="43.69958239678334" lon="11.95622223191725"><ele>1020.5</ele><time>2026-04-13T13:12:37.001Z</time></trkpt><trkpt lat="43.69970935059424" lon="11.956338361265841"><ele>1019.0</ele><time>2026-04-13T13:12:38.001Z</time></trkpt><trkpt lat="43.69984897468693" lon="11.956445123856827"><ele>1019.0</ele><time>2026-04-13T13:12:39.001Z</time></trkpt><trkpt lat="43.69997620127131" lon="11.956576514132198"><ele>1019.0</ele><time>2026-04-13T13:12:40.001Z</time></trkpt><trkpt lat="43.70010711819696" lon="11.956699487233974"><ele>1019.0</ele><time>2026-04-13T13:12:41.001Z</time></trkpt><trkpt lat="43.700234490757225" lon="11.956820860922278"><ele>1016.3333333333334</ele><time>2026-04-13T13:12:42.001Z</time></trkpt><trkpt lat="43.700366107667804" lon="11.95694579573499"><ele>1013.6666666666667</ele><time>2026-04-13T13:12:43.001Z</time></trkpt><trkpt lat="43.70049279708069" lon="11.957072966969301"><ele>1011.0</ele><time>2026-04-13T13:12:44.001Z</time></trkpt><trkpt lat="43.70062388771038" lon="11.957194875647563"><ele>1011.0</ele><time>2026-04-13T13:12:45.001Z</time></trkpt><trkpt lat="43.700753121627734" lon="11.95731801408517"><ele>1011.0</ele><time>2026-04-13T13:12:46.001Z</time></trkpt><trkpt lat="43.700882737770364" lon="11.957438592415537"><ele>1011.0</ele><time>2026-04-13T13:12:47.001Z</time></trkpt><trkpt lat="43.70101170578426" lon="11.957536530477654"><ele>1010.75</ele><time>2026-04-13T13:12:48.001Z</time></trkpt><trkpt lat="43.70115075911268" lon="11.957589628596436"><ele>1010.5</ele><time>2026-04-13T13:12:49.001Z</time></trkpt><trkpt lat="43.701299001527595" lon="11.95756905570837"><ele>1010.25</ele><time>2026-04-13T13:12:50.001Z</time></trkpt><trkpt lat="43.70143771492193" lon="11.957476551704392"><ele>1010.0</ele><time>2026-04-13T13:12:51.001Z</time></trkpt><trkpt lat="43.70155307221252" lon="11.957328460715436"><ele>1010.0</ele><time>2026-04-13T13:12:52.001Z</time></trkpt><trkpt lat="43.70164845116767" lon="11.95714363960132"><ele>1010.0</ele><time>2026-04-13T13:12:53.001Z</time></trkpt><trkpt lat="43.70174442978263" lon="11.956960362635488"><ele>1010.0</ele><time>2026-04-13T13:12:54.001Z</time></trkpt><trkpt lat="43.70184531175923" lon="11.956779350397053"><ele>1010.3333333333334</ele><time>2026-04-13T13:12:55.001Z</time></trkpt><trkpt lat="43.70195060157074" lon="11.956598063150777"><ele>1010.6666666666667</ele><time>2026-04-13T13:12:56.001Z</time></trkpt><trkpt lat="43.702058087019395" lon="11.95641741551516"><ele>1011.0</ele><time>2026-04-13T13:12:57.001Z</time></trkpt><trkpt lat="43.70216651221756" lon="11.956231432409332"><ele>1011.0</ele><time>2026-04-13T13:12:58.001Z</time></trkpt><trkpt lat="43.70227234093515" lon="11.956043551393988"><ele>1011.0</ele><time>2026-04-13T13:12:59.001Z</time></trkpt><trkpt lat="43.70237534237925" lon="11.955858361779956"><ele>1011.0</ele><time>2026-04-13T13:13:00.001Z</time></trkpt><trkpt lat="43.70248112074848" lon="11.955682855563204"><ele>1007.0</ele><time>2026-04-13T13:13:01.001Z</time></trkpt><trkpt lat="43.7025754021911" lon="11.955500785797623"><ele>1003.0</ele><time>2026-04-13T13:13:02.001Z</time></trkpt><trkpt lat="43.70264686284743" lon="11.955306240282018"><ele>999.0</ele><time>2026-04-13T13:13:03.001Z</time></trkpt><trkpt lat="43.70269860741091" lon="11.955098009575076"><ele>997.0</ele><time>2026-04-13T13:13:04.001Z</time></trkpt><trkpt lat="43.70273461572841" lon="11.954882510495963"><ele>995.0</ele><time>2026-04-13T13:13:05.001Z</time></trkpt><trkpt lat="43.70273974290581" lon="11.954665694728586"><ele>993.0</ele><time>2026-04-13T13:13:06.001Z</time></trkpt><trkpt lat="43.702714298374815" lon="11.954452347984088"><ele>993.0</ele><time>2026-04-13T13:13:07.001Z</time></trkpt><trkpt lat="43.70267684599427" lon="11.95424512304424"><ele>993.0</ele><time>2026-04-13T13:13:08.001Z</time></trkpt><trkpt lat="43.70262460535294" lon="11.954045428528705"><ele>993.0</ele><time>2026-04-13T13:13:09.001Z</time></trkpt><trkpt lat="43.70254886018055" lon="11.95385571366154"><ele>991.0</ele><time>2026-04-13T13:13:10.001Z</time></trkpt><trkpt lat="43.70244866476436" lon="11.953681491532876"><ele>989.0</ele><time>2026-04-13T13:13:11.001Z</time></trkpt><trkpt lat="43.70232848561356" lon="11.953522669877746"><ele>987.0</ele><time>2026-04-13T13:13:12.001Z</time></trkpt><trkpt lat="43.7022014010689" lon="11.953380298024122"><ele>988.3333333333333</ele><time>2026-04-13T13:13:13.001Z</time></trkpt><trkpt lat="43.70207406794411" lon="11.95323765067195"><ele>989.6666666666666</ele><time>2026-04-13T13:13:14.001Z</time></trkpt><trkpt lat="43.70196787659727" lon="11.953077766665336"><ele>991.0</ele><time>2026-04-13T13:13:15.001Z</time></trkpt><trkpt lat="43.70190540385265" lon="11.952886988205977"><ele>992.0</ele><time>2026-04-13T13:13:16.001Z</time></trkpt><trkpt lat="43.70188675757518" lon="11.952685396174092"><ele>993.0</ele><time>2026-04-13T13:13:17.001Z</time></trkpt><trkpt lat="43.701912585438585" lon="11.952475214878783"><ele>994.0</ele><time>2026-04-13T13:13:18.001Z</time></trkpt><trkpt lat="43.701983487874195" lon="11.952294358312113"><ele>994.0</ele><time>2026-04-13T13:13:19.001Z</time></trkpt><trkpt lat="43.70208583614718" lon="11.952138850750504"><ele>994.0</ele><time>2026-04-13T13:13:20.001Z</time></trkpt><trkpt lat="43.70218653600665" lon="11.951977805825047"><ele>994.0</ele><time>2026-04-13T13:13:21.001Z</time></trkpt><trkpt lat="43.70228338936154" lon="11.951808032319455"><ele>990.0</ele><time>2026-04-13T13:13:22.001Z</time></trkpt><trkpt lat="43.70238381695799" lon="11.951638753074961"><ele>986.0</ele><time>2026-04-13T13:13:23.001Z</time></trkpt><trkpt lat="43.7024859144127" lon="11.951466774198236"><ele>982.0</ele><time>2026-04-13T13:13:24.001Z</time></trkpt><trkpt lat="43.70258860262878" lon="11.951290832629429"><ele>982.0</ele><time>2026-04-13T13:13:25.001Z</time></trkpt><trkpt lat="43.702706856818274" lon="11.951135337546559"><ele>982.0</ele><time>2026-04-13T13:13:26.001Z</time></trkpt><trkpt lat="43.70282300885208" lon="11.9509836731498"><ele>982.0</ele><time>2026-04-13T13:13:27.001Z</time></trkpt><trkpt lat="43.70295052526811" lon="11.95085048048955"><ele>983.0</ele><time>2026-04-13T13:13:28.001Z</time></trkpt><trkpt lat="43.70309947445287" lon="11.950756568419006"><ele>984.0</ele><time>2026-04-13T13:13:29.001Z</time></trkpt><trkpt lat="43.70325167951893" lon="11.950664202042061"><ele>985.0</ele><time>2026-04-13T13:13:30.001Z</time></trkpt><trkpt lat="43.70340625226879" lon="11.950570353565494"><ele>985.0</ele><time>2026-04-13T13:13:31.001Z</time></trkpt><trkpt lat="43.70355386506958" lon="11.950481236682261"><ele>985.0</ele><time>2026-04-13T13:13:32.001Z</time></trkpt><trkpt lat="43.70369587579581" lon="11.950396104864943"><ele>985.0</ele><time>2026-04-13T13:13:33.001Z</time></trkpt><trkpt lat="43.70382695045292" lon="11.950302430410709"><ele>983.5</ele><time>2026-04-13T13:13:34.001Z</time></trkpt><trkpt lat="43.70393222884112" lon="11.950171887241101"><ele>982.0</ele><time>2026-04-13T13:13:35.001Z</time></trkpt><trkpt lat="43.704007209047234" lon="11.950004022432301"><ele>980.5</ele><time>2026-04-13T13:13:36.001Z</time></trkpt><trkpt lat="43.704050752259626" lon="11.949810762009056"><ele>979.0</ele><time>2026-04-13T13:13:37.001Z</time></trkpt><trkpt lat="43.70405429157273" lon="11.949605865917373"><ele>979.0</ele><time>2026-04-13T13:13:38.001Z</time></trkpt><trkpt lat="43.7040210339503" lon="11.949397267694811"><ele>979.0</ele><time>2026-04-13T13:13:39.001Z</time></trkpt><trkpt lat="43.703964488334556" lon="11.949180246801125"><ele>979.0</ele><time>2026-04-13T13:13:40.001Z</time></trkpt><trkpt lat="43.70390219387533" lon="11.94895260301407"><ele>979.0</ele><time>2026-04-13T13:13:41.001Z</time></trkpt><trkpt lat="43.703837504393235" lon="11.948715301006072"><ele>979.0</ele><time>2026-04-13T13:13:42.001Z</time></trkpt><trkpt lat="43.703776352181976" lon="11.948471738176197"><ele>979.0</ele><time>2026-04-13T13:13:43.001Z</time></trkpt><trkpt lat="43.703725853916374" lon="11.94823143832468"><ele>979.3333333333333</ele><time>2026-04-13T13:13:44.001Z</time></trkpt><trkpt lat="43.70367420813488" lon="11.947990296787149"><ele>979.6666666666667</ele><time>2026-04-13T13:13:45.001Z</time></trkpt><trkpt lat="43.70361758406516" lon="11.947755100864919"><ele>980.0</ele><time>2026-04-13T13:13:46.001Z</time></trkpt><trkpt lat="43.703559983198545" lon="11.947525344635894"><ele>974.6666666666667</ele><time>2026-04-13T13:13:47.001Z</time></trkpt><trkpt lat="43.703501721080876" lon="11.947295733614622"><ele>969.3333333333333</ele><time>2026-04-13T13:13:48.001Z</time></trkpt><trkpt lat="43.7034435282312" lon="11.947068689392957"><ele>964.0</ele><time>2026-04-13T13:13:49.001Z</time></trkpt><trkpt lat="43.70338235512939" lon="11.946845052676965"><ele>962.6666666666666</ele><time>2026-04-13T13:13:50.001Z</time></trkpt><trkpt lat="43.703325234516875" lon="11.946618522019067"><ele>961.3333333333333</ele><time>2026-04-13T13:13:51.001Z</time></trkpt><trkpt lat="43.703269131936615" lon="11.946395455849368"><ele>960.0</ele><time>2026-04-13T13:13:52.001Z</time></trkpt><trkpt lat="43.703215236503716" lon="11.946173083669962"><ele>960.0</ele><time>2026-04-13T13:13:53.001Z</time></trkpt><trkpt lat="43.7031619216676" lon="11.94594955571151"><ele>960.0</ele><time>2026-04-13T13:13:54.001Z</time></trkpt><trkpt lat="43.70310987942012" lon="11.945731862252634"><ele>960.0</ele><time>2026-04-13T13:13:55.001Z</time></trkpt><trkpt lat="43.70306705757608" lon="11.94550881001004"><ele>959.3333333333333</ele><time>2026-04-13T13:13:56.001Z</time></trkpt><trkpt lat="43.70308868198063" lon="11.94528852348245"><ele>958.6666666666666</ele><time>2026-04-13T13:13:57.001Z</time></trkpt><trkpt lat="43.70314031581385" lon="11.945074932835071"><ele>958.0</ele><time>2026-04-13T13:13:58.001Z</time></trkpt><trkpt lat="43.70322856974988" lon="11.944874878578029"><ele>957.6666666666666</ele><time>2026-04-13T13:13:59.001Z</time></trkpt><trkpt lat="43.70331336539842" lon="11.944673140534242"><ele>957.3333333333333</ele><time>2026-04-13T13:14:00.001Z</time></trkpt><trkpt lat="43.703403703211045" lon="11.944486841771987"><ele>957.0</ele><time>2026-04-13T13:14:01.001Z</time></trkpt><trkpt lat="43.703483073519656" lon="11.94429913221945"><ele>958.3333333333333</ele><time>2026-04-13T13:14:02.001Z</time></trkpt><trkpt lat="43.70355167080989" lon="11.94411099120331"><ele>959.6666666666666</ele><time>2026-04-13T13:14:03.001Z</time></trkpt><trkpt lat="43.70362926557468" lon="11.943937933965747"><ele>961.0</ele><time>2026-04-13T13:14:04.001Z</time></trkpt><trkpt lat="43.70364254287449" lon="11.943714068411145"><ele>961.0</ele><time>2026-04-13T13:14:05.001Z</time></trkpt><trkpt lat="43.70364072340036" lon="11.943497597186727"><ele>961.0</ele><time>2026-04-13T13:14:06.001Z</time></trkpt><trkpt lat="43.70361683166841" lon="11.943286659924128"><ele>961.0</ele><time>2026-04-13T13:14:07.001Z</time></trkpt><trkpt lat="43.70354926519169" lon="11.943089216204825"><ele>957.6666666666666</ele><time>2026-04-13T13:14:08.001Z</time></trkpt><trkpt lat="43.7034566590686" lon="11.942905869389628"><ele>954.3333333333333</ele><time>2026-04-13T13:14:09.001Z</time></trkpt><trkpt lat="43.703315852714795" lon="11.942766976347302"><ele>951.0</ele><time>2026-04-13T13:14:10.001Z</time></trkpt><trkpt lat="43.70314342163446" lon="11.942699337920349"><ele>951.0</ele><time>2026-04-13T13:14:11.001Z</time></trkpt><trkpt lat="43.70298043828092" lon="11.942634315745691"><ele>951.0</ele><time>2026-04-13T13:14:12.001Z</time></trkpt><trkpt lat="43.70283228200089" lon="11.942564815862738"><ele>951.0</ele><time>2026-04-13T13:14:13.001Z</time></trkpt><trkpt lat="43.702699452124854" lon="11.942453191191023"><ele>950.0</ele><time>2026-04-13T13:14:14.001Z</time></trkpt><trkpt lat="43.70259182091983" lon="11.942291368346268"><ele>949.0</ele><time>2026-04-13T13:14:15.001Z</time></trkpt><trkpt lat="43.702513428536854" lon="11.942094136652857"><ele>948.0</ele><time>2026-04-13T13:14:16.001Z</time></trkpt><trkpt lat="43.70244793767862" lon="11.941885789037773"><ele>952.3333333333333</ele><time>2026-04-13T13:14:17.001Z</time></trkpt><trkpt lat="43.70237389956933" lon="11.941671381732625"><ele>956.6666666666666</ele><time>2026-04-13T13:14:18.001Z</time></trkpt><trkpt lat="43.70229488255419" lon="11.941452118106197"><ele>961.0</ele><time>2026-04-13T13:14:19.001Z</time></trkpt><trkpt lat="43.70221007769209" lon="11.941227522798863"><ele>961.0</ele><time>2026-04-13T13:14:20.001Z</time></trkpt><trkpt lat="43.70212492804606" lon="11.941001445353251"><ele>961.0</ele><time>2026-04-13T13:14:21.001Z</time></trkpt><trkpt lat="43.70204682049707" lon="11.940784453317612"><ele>961.0</ele><time>2026-04-13T13:14:22.001Z</time></trkpt><trkpt lat="43.70197916089472" lon="11.940576727242009"><ele>957.6666666666666</ele><time>2026-04-13T13:14:23.001Z</time></trkpt><trkpt lat="43.70191351249451" lon="11.94037917854686"><ele>954.3333333333333</ele><time>2026-04-13T13:14:24.001Z</time></trkpt><trkpt lat="43.701838261779145" lon="11.940199801739945"><ele>951.0</ele><time>2026-04-13T13:14:25.001Z</time></trkpt><trkpt lat="43.70172735140807" lon="11.940055613544407"><ele>956.0</ele><time>2026-04-13T13:14:26.001Z</time></trkpt><trkpt lat="43.701583506514694" lon="11.939966745865634"><ele>961.0</ele><time>2026-04-13T13:14:27.001Z</time></trkpt><trkpt lat="43.70142146752071" lon="11.939929595642038"><ele>966.0</ele><time>2026-04-13T13:14:28.001Z</time></trkpt><trkpt lat="43.701252116597715" lon="11.939918526471795"><ele>964.3333333333333</ele><time>2026-04-13T13:14:29.001Z</time></trkpt><trkpt lat="43.701081671923355" lon="11.93991357870191"><ele>962.6666666666666</ele><time>2026-04-13T13:14:30.001Z</time></trkpt><trkpt lat="43.70092608535516" lon="11.939901441287933"><ele>961.0</ele><time>2026-04-13T13:14:31.001Z</time></trkpt><trkpt lat="43.70077526830918" lon="11.939877047279111"><ele>961.0</ele><time>2026-04-13T13:14:32.001Z</time></trkpt><trkpt lat="43.70062684474325" lon="11.93982502195093"><ele>961.0</ele><time>2026-04-13T13:14:33.001Z</time></trkpt><trkpt lat="43.70048102883608" lon="11.939747944291815"><ele>961.0</ele><time>2026-04-13T13:14:34.001Z</time></trkpt><trkpt lat="43.70033471933313" lon="11.939660538235875"><ele>959.3333333333333</ele><time>2026-04-13T13:14:35.001Z</time></trkpt><trkpt lat="43.70018220241202" lon="11.939567226259244"><ele>957.6666666666667</ele><time>2026-04-13T13:14:36.001Z</time></trkpt><trkpt lat="43.70002578049585" lon="11.939471940796224"><ele>956.0</ele><time>2026-04-13T13:14:37.001Z</time></trkpt><trkpt lat="43.699869660386945" lon="11.939377513258151"><ele>956.0</ele><time>2026-04-13T13:14:38.001Z</time></trkpt><trkpt lat="43.699713390573066" lon="11.939280308160562"><ele>956.0</ele><time>2026-04-13T13:14:39.001Z</time></trkpt><trkpt lat="43.69956271504918" lon="11.93917599402433"><ele>956.0</ele><time>2026-04-13T13:14:40.001Z</time></trkpt><trkpt lat="43.699427403440396" lon="11.939068711754993"><ele>958.75</ele><time>2026-04-13T13:14:41.001Z</time></trkpt><trkpt lat="43.69929910966757" lon="11.93896552324932"><ele>961.5</ele><time>2026-04-13T13:14:42.001Z</time></trkpt><trkpt lat="43.699178479707804" lon="11.938857484830395"><ele>964.25</ele><time>2026-04-13T13:14:43.001Z</time></trkpt><trkpt lat="43.699060280853296" lon="11.938752893735822"><ele>967.0</ele><time>2026-04-13T13:14:44.001Z</time></trkpt><trkpt lat="43.69893806209459" lon="11.938651207720165"><ele>967.0</ele><time>2026-04-13T13:14:45.001Z</time></trkpt><trkpt lat="43.69880640146638" lon="11.938559326653076"><ele>967.0</ele><time>2026-04-13T13:14:46.001Z</time></trkpt><trkpt lat="43.6986607346763" lon="11.938482465414381"><ele>967.0</ele><time>2026-04-13T13:14:47.001Z</time></trkpt><trkpt lat="43.69850150123073" lon="11.938436375120899"><ele>969.3333333333333</ele><time>2026-04-13T13:14:48.001Z</time></trkpt><trkpt lat="43.698329104722845" lon="11.938417784208633"><ele>971.6666666666667</ele><time>2026-04-13T13:14:49.001Z</time></trkpt><trkpt lat="43.69815960916209" lon="11.938389290793335"><ele>974.0</ele><time>2026-04-13T13:14:50.001Z</time></trkpt><trkpt lat="43.697991515829976" lon="11.938365532787627"><ele>974.0</ele><time>2026-04-13T13:14:51.001Z</time></trkpt><trkpt lat="43.69782392427937" lon="11.93834116090357"><ele>974.0</ele><time>2026-04-13T13:14:52.001Z</time></trkpt><trkpt lat="43.69765581851292" lon="11.938319156807356"><ele>974.0</ele><time>2026-04-13T13:14:53.001Z</time></trkpt><trkpt lat="43.69749457530811" lon="11.938299527117547"><ele>972.6</ele><time>2026-04-13T13:14:54.001Z</time></trkpt><trkpt lat="43.697372795643965" lon="11.938278925460567"><ele>971.2</ele><time>2026-04-13T13:14:55.001Z</time></trkpt><trkpt lat="43.69726434655818" lon="11.93823940502409"><ele>969.8000000000001</ele><time>2026-04-13T13:14:56.001Z</time></trkpt><trkpt lat="43.69718357707048" lon="11.938140582994633"><ele>968.4000000000001</ele><time>2026-04-13T13:14:57.001Z</time></trkpt><trkpt lat="43.697150134652205" lon="11.938009219053797"><ele>967.0</ele><time>2026-04-13T13:14:58Z</time></trkpt><trkpt lat="43.69718511042503" lon="11.93788888612499"><ele>967.0</ele><time>2026-04-13T13:14:59Z</time></trkpt><trkpt lat="43.69725709861093" lon="11.937768212993129"><ele>967.0</ele><time>2026-04-13T13:15:00Z</time></trkpt><trkpt lat="43.697321252157245" lon="11.937631587531902"><ele>967.0</ele><time>2026-04-13T13:15:01Z</time></trkpt><trkpt lat="43.69738489802955" lon="11.937507754133174"><ele>967.0</ele><time>2026-04-13T13:15:02Z</time></trkpt><trkpt lat="43.69748170751199" lon="11.937423524517495"><ele>965.5</ele><time>2026-04-13T13:15:03Z</time></trkpt><trkpt lat="43.69760477566749" lon="11.937400950623728"><ele>964.0</ele><time>2026-04-13T13:15:04Z</time></trkpt><trkpt lat="43.69773360701382" lon="11.937371636233806"><ele>962.5</ele><time>2026-04-13T13:15:05Z</time></trkpt><trkpt lat="43.69786687899886" lon="11.937326331294305"><ele>961.0</ele><time>2026-04-13T13:15:06Z</time></trkpt><trkpt lat="43.69799875204102" lon="11.937291624605221"><ele>964.5</ele><time>2026-04-13T13:15:07Z</time></trkpt><trkpt lat="43.698124896351224" lon="11.937254608531777"><ele>968.0</ele><time>2026-04-13T13:15:08Z</time></trkpt><trkpt lat="43.69824756915287" lon="11.937205277244438"><ele>971.5</ele><time>2026-04-13T13:15:09Z</time></trkpt><trkpt lat="43.698360464802164" lon="11.937120795020189"><ele>975.0</ele><time>2026-04-13T13:15:10Z</time></trkpt><trkpt lat="43.698458329265996" lon="11.93700281628062"><ele>975.0</ele><time>2026-04-13T13:15:11Z</time></trkpt><trkpt lat="43.6985365029068" lon="11.936861934248785"><ele>975.0</ele><time>2026-04-13T13:15:12Z</time></trkpt><trkpt lat="43.698603316001545" lon="11.936713406034169"><ele>975.0</ele><time>2026-04-13T13:15:13Z</time></trkpt><trkpt lat="43.698664340323305" lon="11.936562810624874"><ele>975.0</ele><time>2026-04-13T13:15:14Z</time></trkpt><trkpt lat="43.69872956791506" lon="11.936415751751165"><ele>976.25</ele><time>2026-04-13T13:15:15Z</time></trkpt><trkpt lat="43.698791471602554" lon="11.936264694326693"><ele>977.5</ele><time>2026-04-13T13:15:16Z</time></trkpt><trkpt lat="43.6988536934568" lon="11.93611477936284"><ele>978.75</ele><time>2026-04-13T13:15:17Z</time></trkpt><trkpt lat="43.69891756610967" lon="11.93596836177912"><ele>980.0</ele><time>2026-04-13T13:15:18Z</time></trkpt><trkpt lat="43.69898037591648" lon="11.935824741954448"><ele>975.5</ele><time>2026-04-13T13:15:19Z</time></trkpt><trkpt lat="43.69904273688214" lon="11.93568559115143"><ele>971.0</ele><time>2026-04-13T13:15:20Z</time></trkpt><trkpt lat="43.69911343197388" lon="11.935555425320354"><ele>966.5</ele><time>2026-04-13T13:15:21Z</time></trkpt><trkpt lat="43.69920470836938" lon="11.9354393756536"><ele>962.0</ele><time>2026-04-13T13:15:22Z</time></trkpt><trkpt lat="43.69930909813217" lon="11.935329517232026"><ele>964.0</ele><time>2026-04-13T13:15:23Z</time></trkpt><trkpt lat="43.69942292072921" lon="11.935217410722826"><ele>966.0</ele><time>2026-04-13T13:15:24Z</time></trkpt><trkpt lat="43.699549141840386" lon="11.93511251762538"><ele>968.0</ele><time>2026-04-13T13:15:25Z</time></trkpt><trkpt lat="43.69967858395815" lon="11.93500392870731"><ele>970.0</ele><time>2026-04-13T13:15:26Z</time></trkpt><trkpt lat="43.69980375503187" lon="11.93490164151348"><ele>970.0</ele><time>2026-04-13T13:15:27Z</time></trkpt><trkpt lat="43.69991556956539" lon="11.934807690360671"><ele>970.0</ele><time>2026-04-13T13:15:28Z</time></trkpt><trkpt lat="43.70001953381176" lon="11.934715548343862"><ele>970.0</ele><time>2026-04-13T13:15:29Z</time></trkpt><trkpt lat="43.70012639412025" lon="11.934623998063978"><ele>970.0</ele><time>2026-04-13T13:15:30Z</time></trkpt><trkpt lat="43.700233859852844" lon="11.934529802457732"><ele>971.5</ele><time>2026-04-13T13:15:31Z</time></trkpt><trkpt lat="43.700339413002276" lon="11.934429284282423"><ele>973.0</ele><time>2026-04-13T13:15:32Z</time></trkpt><trkpt lat="43.70043977125359" lon="11.934323557342093"><ele>974.5</ele><time>2026-04-13T13:15:33Z</time></trkpt><trkpt lat="43.700535702385885" lon="11.934208904529793"><ele>976.0</ele><time>2026-04-13T13:15:34Z</time></trkpt><trkpt lat="43.700630393618134" lon="11.934079329383964"><ele>976.0</ele><time>2026-04-13T13:15:35Z</time></trkpt><trkpt lat="43.700717161884796" lon="11.93393083159568"><ele>976.0</ele><time>2026-04-13T13:15:36Z</time></trkpt><trkpt lat="43.70079906878327" lon="11.933765358771213"><ele>976.0</ele><time>2026-04-13T13:15:37Z</time></trkpt><trkpt lat="43.700878309279574" lon="11.933593946886846"><ele>976.0</ele><time>2026-04-13T13:15:38Z</time></trkpt><trkpt lat="43.70093789584563" lon="11.933416469171602"><ele>975.0</ele><time>2026-04-13T13:15:39Z</time></trkpt><trkpt lat="43.70097827719904" lon="11.933229179926023"><ele>974.0</ele><time>2026-04-13T13:15:40Z</time></trkpt><trkpt lat="43.701014744701176" lon="11.93303782282688"><ele>973.0</ele><time>2026-04-13T13:15:41Z</time></trkpt><trkpt lat="43.70103786966651" lon="11.932838358143153"><ele>972.0</ele><time>2026-04-13T13:15:42Z</time></trkpt><trkpt lat="43.70105238920082" lon="11.932645634760178"><ele>973.0</ele><time>2026-04-13T13:15:43Z</time></trkpt><trkpt lat="43.701044643404835" lon="11.93246214669468"><ele>974.0</ele><time>2026-04-13T13:15:44Z</time></trkpt><trkpt lat="43.70102084125025" lon="11.932279299053738"><ele>975.0</ele><time>2026-04-13T13:15:45Z</time></trkpt><trkpt lat="43.70099598195736" lon="11.932095179586733"><ele>976.0</ele><time>2026-04-13T13:15:46Z</time></trkpt><trkpt lat="43.700979626783536" lon="11.931930987194406"><ele>976.0</ele><time>2026-04-13T13:15:47Z</time></trkpt><trkpt lat="43.70099274526015" lon="11.931780984353784"><ele>975.9999999999999</ele><time>2026-04-13T13:15:48Z</time></trkpt><trkpt lat="43.701056126396665" lon="11.93166142292527"><ele>975.9999999999999</ele><time>2026-04-13T13:15:49Z</time></trkpt><trkpt lat="43.70115652797822" lon="11.931607559708194"><ele>976.0</ele><time>2026-04-13T13:15:50Z</time></trkpt><trkpt lat="43.701262153103784" lon="11.931627347088604"><ele>976.0</ele><time>2026-04-13T13:15:51Z</time></trkpt><trkpt lat="43.70134097306036" lon="11.93171732024823"><ele>979.5</ele><time>2026-04-13T13:15:52Z</time></trkpt><trkpt lat="43.701385955875075" lon="11.931861672882725"><ele>983.0</ele><time>2026-04-13T13:15:53Z</time></trkpt><trkpt lat="43.70142277612776" lon="11.932029376538885"><ele>986.5</ele><time>2026-04-13T13:15:54Z</time></trkpt><trkpt lat="43.701458221849755" lon="11.932188688283729"><ele>990.0</ele><time>2026-04-13T13:15:55Z</time></trkpt><trkpt lat="43.70149385564326" lon="11.932325029128075"><ele>990.0</ele><time>2026-04-13T13:15:56Z</time></trkpt><trkpt lat="43.701540151474845" lon="11.932446694938418"><ele>990.0</ele><time>2026-04-13T13:15:57Z</time></trkpt><trkpt lat="43.701612068283644" lon="11.932538080176945"><ele>990.0</ele><time>2026-04-13T13:15:58Z</time></trkpt><trkpt lat="43.70170852141178" lon="11.932579780792095"><ele>990.0</ele><time>2026-04-13T13:15:59Z</time></trkpt><trkpt lat="43.701805279167964" lon="11.932556499515373"><ele>990.0</ele><time>2026-04-13T13:16:00Z</time></trkpt><trkpt lat="43.70188452984674" lon="11.932471331517945"><ele>993.25</ele><time>2026-04-13T13:16:01Z</time></trkpt><trkpt lat="43.7019420258331" lon="11.9323247172002"><ele>996.5</ele><time>2026-04-13T13:16:02Z</time></trkpt><trkpt lat="43.701977921804264" lon="11.93214246766697"><ele>999.75</ele><time>2026-04-13T13:16:03Z</time></trkpt><trkpt lat="43.70200761857408" lon="11.931928837172261"><ele>1003.0</ele><time>2026-04-13T13:16:04Z</time></trkpt><trkpt lat="43.70205044175501" lon="11.931701336344771"><ele>1003.0</ele><time>2026-04-13T13:16:05Z</time></trkpt><trkpt lat="43.702080337807445" lon="11.931467836499415"><ele>1003.0</ele><time>2026-04-13T13:16:06Z</time></trkpt><trkpt lat="43.70207560193143" lon="11.931234309845156"><ele>1003.0</ele><time>2026-04-13T13:16:07Z</time></trkpt><trkpt lat="43.70204246367291" lon="11.931005530063558"><ele>1002.6666666666666</ele><time>2026-04-13T13:16:08Z</time></trkpt><trkpt lat="43.701976159208776" lon="11.930790891266499"><ele>1002.3333333333333</ele><time>2026-04-13T13:16:09Z</time></trkpt><trkpt lat="43.70189559439653" lon="11.930596461100484"><ele>1002.0</ele><time>2026-04-13T13:16:10Z</time></trkpt><trkpt lat="43.70181567878784" lon="11.93040975654807"><ele>1001.5</ele><time>2026-04-13T13:16:11Z</time></trkpt><trkpt lat="43.701739906745225" lon="11.930238452592757"><ele>1001.0</ele><time>2026-04-13T13:16:12Z</time></trkpt><trkpt lat="43.70167716117826" lon="11.930074639907751"><ele>1000.5</ele><time>2026-04-13T13:16:13Z</time></trkpt><trkpt lat="43.701640293361734" lon="11.92990050465205"><ele>1000.0</ele><time>2026-04-13T13:16:14Z</time></trkpt><trkpt lat="43.7016448845986" lon="11.929715549388858"><ele>1000.0</ele><time>2026-04-13T13:16:15Z</time></trkpt><trkpt lat="43.70169220465999" lon="11.929536622423946"><ele>1000.0</ele><time>2026-04-13T13:16:16Z</time></trkpt><trkpt lat="43.70177137027696" lon="11.92937816706765"><ele>1000.0</ele><time>2026-04-13T13:16:17Z</time></trkpt><trkpt lat="43.70187893639024" lon="11.929259644068058"><ele>1000.0</ele><time>2026-04-13T13:16:18Z</time></trkpt><trkpt lat="43.70201679008231" lon="11.929182382314062"><ele>1001.3333333333333</ele><time>2026-04-13T13:16:19Z</time></trkpt><trkpt lat="43.702170005487936" lon="11.929143586364958"><ele>1002.6666666666667</ele><time>2026-04-13T13:16:20Z</time></trkpt><trkpt lat="43.702323324644695" lon="11.929122769994366"><ele>1004.0</ele><time>2026-04-13T13:16:21Z</time></trkpt><trkpt lat="43.702465532255594" lon="11.92910414426581"><ele>1004.0</ele><time>2026-04-13T13:16:22Z</time></trkpt><trkpt lat="43.702598542317155" lon="11.92907919609081"><ele>1004.0</ele><time>2026-04-13T13:16:23Z</time></trkpt><trkpt lat="43.70272548574809" lon="11.929055046642642"><ele>1004.0</ele><time>2026-04-13T13:16:24Z</time></trkpt><trkpt lat="43.702860012947575" lon="11.929030952865906"><ele>1004.0</ele><time>2026-04-13T13:16:25Z</time></trkpt><trkpt lat="43.70299816155761" lon="11.929009373803968"><ele>1006.25</ele><time>2026-04-13T13:16:26Z</time></trkpt><trkpt lat="43.70314403600985" lon="11.928987028511642"><ele>1008.5</ele><time>2026-04-13T13:16:27Z</time></trkpt><trkpt lat="43.703294286650625" lon="11.928962605653805"><ele>1010.75</ele><time>2026-04-13T13:16:28Z</time></trkpt><trkpt lat="43.703434108779284" lon="11.92894472034257"><ele>1013.0</ele><time>2026-04-13T13:16:29Z</time></trkpt><trkpt lat="43.70357764273907" lon="11.928923772420953"><ele>1015.5</ele><time>2026-04-13T13:16:30Z</time></trkpt><trkpt lat="43.70372143460578" lon="11.928892567429957"><ele>1018.0</ele><time>2026-04-13T13:16:31Z</time></trkpt><trkpt lat="43.703862357002095" lon="11.92883431217081"><ele>1020.5</ele><time>2026-04-13T13:16:32Z</time></trkpt><trkpt lat="43.703984972087916" lon="11.928735310958311"><ele>1023.0</ele><time>2026-04-13T13:16:33Z</time></trkpt><trkpt lat="43.704094250722086" lon="11.928613737496475"><ele>1023.0</ele><time>2026-04-13T13:16:34Z</time></trkpt><trkpt lat="43.7041902883713" lon="11.928477085490549"><ele>1023.0</ele><time>2026-04-13T13:16:35Z</time></trkpt><trkpt lat="43.70426753564518" lon="11.928317493344455"><ele>1023.0</ele><time>2026-04-13T13:16:36Z</time></trkpt><trkpt lat="43.70433878236213" lon="11.928152526100565"><ele>1023.0</ele><time>2026-04-13T13:16:37Z</time></trkpt><trkpt lat="43.7044128896919" lon="11.927984236045383"><ele>1024.25</ele><time>2026-04-13T13:16:38Z</time></trkpt><trkpt lat="43.70449041658675" lon="11.927817606796955"><ele>1025.5</ele><time>2026-04-13T13:16:39Z</time></trkpt><trkpt lat="43.70456552655654" lon="11.927667692475628"><ele>1026.75</ele><time>2026-04-13T13:16:40Z</time></trkpt><trkpt lat="43.70463969330065" lon="11.927521231755762"><ele>1028.0</ele><time>2026-04-13T13:16:41Z</time></trkpt><trkpt lat="43.7047136667042" lon="11.927360240273696"><ele>1028.0</ele><time>2026-04-13T13:16:42Z</time></trkpt><trkpt lat="43.704792449122" lon="11.927203765265888"><ele>1028.0</ele><time>2026-04-13T13:16:43Z</time></trkpt><trkpt lat="43.70487052948857" lon="11.927039270984185"><ele>1028.0</ele><time>2026-04-13T13:16:44Z</time></trkpt><trkpt lat="43.70494797471052" lon="11.926881570593437"><ele>1028.0</ele><time>2026-04-13T13:16:45Z</time></trkpt><trkpt lat="43.705023622731545" lon="11.926722699074018"><ele>1026.5</ele><time>2026-04-13T13:16:46Z</time></trkpt><trkpt lat="43.705099705056426" lon="11.926564873657087"><ele>1025.0</ele><time>2026-04-13T13:16:47Z</time></trkpt><trkpt lat="43.70517624677116" lon="11.926409619762262"><ele>1023.5</ele><time>2026-04-13T13:16:48Z</time></trkpt><trkpt lat="43.705253562305444" lon="11.926254330478251"><ele>1022.0</ele><time>2026-04-13T13:16:49Z</time></trkpt><trkpt lat="43.70533047801544" lon="11.926090205162575"><ele>1022.75</ele><time>2026-04-13T13:16:50Z</time></trkpt><trkpt lat="43.70541091079534" lon="11.925920320876275"><ele>1023.5</ele><time>2026-04-13T13:16:51Z</time></trkpt><trkpt lat="43.70549723910764" lon="11.92575279059847"><ele>1024.25</ele><time>2026-04-13T13:16:52Z</time></trkpt><trkpt lat="43.70558336831982" lon="11.925584355477948"><ele>1025.0</ele><time>2026-04-13T13:16:53Z</time></trkpt><trkpt lat="43.705666161716145" lon="11.925413902617136"><ele>1025.0</ele><time>2026-04-13T13:16:54Z</time></trkpt><trkpt lat="43.705747446674835" lon="11.925246571549769"><ele>1025.0</ele><time>2026-04-13T13:16:55Z</time></trkpt><trkpt lat="43.705828849562245" lon="11.92508092797125"><ele>1025.0</ele><time>2026-04-13T13:16:56Z</time></trkpt><trkpt lat="43.70590826280953" lon="11.924915038205143"><ele>1025.0</ele><time>2026-04-13T13:16:57Z</time></trkpt><trkpt lat="43.70598551036669" lon="11.924740050341823"><ele>1025.0</ele><time>2026-04-13T13:16:58Z</time></trkpt><trkpt lat="43.706046303668955" lon="11.924557625759848"><ele>1025.0</ele><time>2026-04-13T13:16:59Z</time></trkpt><trkpt lat="43.70608446901305" lon="11.924365185467597"><ele>1025.0</ele><time>2026-04-13T13:17:00Z</time></trkpt><trkpt lat="43.706098873715916" lon="11.924169046792375"><ele>1025.0</ele><time>2026-04-13T13:17:01Z</time></trkpt><trkpt lat="43.70609952988373" lon="11.923965030889509"><ele>1023.6666666666667</ele><time>2026-04-13T13:17:02Z</time></trkpt><trkpt lat="43.706078376104536" lon="11.92375829044923"><ele>1022.3333333333333</ele><time>2026-04-13T13:17:03Z</time></trkpt><trkpt lat="43.70603375005397" lon="11.92354691391611"><ele>1021.0</ele><time>2026-04-13T13:17:04Z</time></trkpt><trkpt lat="43.705968374750846" lon="11.9233346392335"><ele>1016.0</ele><time>2026-04-13T13:17:05Z</time></trkpt><trkpt lat="43.70587462581719" lon="11.923131892955096"><ele>1011.0</ele><time>2026-04-13T13:17:06Z</time></trkpt><trkpt lat="43.70576225469725" lon="11.922934892227936"><ele>1006.0</ele><time>2026-04-13T13:17:07Z</time></trkpt><trkpt lat="43.705642560151894" lon="11.92273904700563"><ele>1004.0</ele><time>2026-04-13T13:17:08Z</time></trkpt><trkpt lat="43.70552078424326" lon="11.922547997349017"><ele>1002.0</ele><time>2026-04-13T13:17:09Z</time></trkpt><trkpt lat="43.7054008832782" lon="11.92235664404826"><ele>1000.0</ele><time>2026-04-13T13:17:10Z</time></trkpt><trkpt lat="43.70528873087102" lon="11.922161316121377"><ele>1000.0</ele><time>2026-04-13T13:17:11Z</time></trkpt><trkpt lat="43.70517698095409" lon="11.921973714311099"><ele>1000.0</ele><time>2026-04-13T13:17:12Z</time></trkpt><trkpt lat="43.70506249146565" lon="11.921783200918576"><ele>1000.0</ele><time>2026-04-13T13:17:13Z</time></trkpt><trkpt lat="43.704946369939236" lon="11.921595564526898"><ele>999.3333333333333</ele><time>2026-04-13T13:17:14Z</time></trkpt><trkpt lat="43.70483010741943" lon="11.921413392218785"><ele>998.6666666666667</ele><time>2026-04-13T13:17:15Z</time></trkpt><trkpt lat="43.704717650756926" lon="11.921230581336962"><ele>998.0</ele><time>2026-04-13T13:17:16Z</time></trkpt><trkpt lat="43.70461339090712" lon="11.921051306236857"><ele>996.0</ele><time>2026-04-13T13:17:17Z</time></trkpt><trkpt lat="43.70451358337553" lon="11.920863646994702"><ele>994.0</ele><time>2026-04-13T13:17:18Z</time></trkpt><trkpt lat="43.70442945691903" lon="11.920660543905665"><ele>992.0</ele><time>2026-04-13T13:17:19Z</time></trkpt><trkpt lat="43.70436833526626" lon="11.920441141420199"><ele>992.0</ele><time>2026-04-13T13:17:20Z</time></trkpt><trkpt lat="43.70433422049363" lon="11.920209026227694"><ele>992.0</ele><time>2026-04-13T13:17:21Z</time></trkpt><trkpt lat="43.70430662090743" lon="11.919971799099716"><ele>992.0</ele><time>2026-04-13T13:17:22Z</time></trkpt><trkpt lat="43.70428192137533" lon="11.91973641039609"><ele>992.6666666666667</ele><time>2026-04-13T13:17:23Z</time></trkpt><trkpt lat="43.7042539398462" lon="11.919506622340611"><ele>993.3333333333333</ele><time>2026-04-13T13:17:24Z</time></trkpt><trkpt lat="43.70422803982534" lon="11.919274784253725"><ele>994.0</ele><time>2026-04-13T13:17:25Z</time></trkpt><trkpt lat="43.704192721628125" lon="11.919045292363942"><ele>990.6666666666666</ele><time>2026-04-13T13:17:26Z</time></trkpt><trkpt lat="43.70413290974618" lon="11.918819526979481"><ele>987.3333333333333</ele><time>2026-04-13T13:17:27Z</time></trkpt><trkpt lat="43.70402952524135" lon="11.918609071259791"><ele>984.0</ele><time>2026-04-13T13:17:28Z</time></trkpt><trkpt lat="43.70389598658241" lon="11.9184307482326"><ele>984.0</ele><time>2026-04-13T13:17:29Z</time></trkpt><trkpt lat="43.70374139711339" lon="11.918282299107057"><ele>984.0</ele><time>2026-04-13T13:17:30Z</time></trkpt><trkpt lat="43.703571481207824" lon="11.91816902072296"><ele>984.0</ele><time>2026-04-13T13:17:31Z</time></trkpt><trkpt lat="43.703398385609994" lon="11.918085091675344"><ele>984.0</ele><time>2026-04-13T13:17:32Z</time></trkpt><trkpt lat="43.70322972063227" lon="11.918014694603157"><ele>984.0</ele><time>2026-04-13T13:17:33Z</time></trkpt><trkpt lat="43.70307775222726" lon="11.91796391383031"><ele>984.0</ele><time>2026-04-13T13:17:34Z</time></trkpt><trkpt lat="43.70293604867935" lon="11.917896716483575"><ele>984.0</ele><time>2026-04-13T13:17:35Z</time></trkpt><trkpt lat="43.702827568333376" lon="11.91775886497703"><ele>984.0</ele><time>2026-04-13T13:17:36Z</time></trkpt><trkpt lat="43.70277266111776" lon="11.917570527220292"><ele>984.0</ele><time>2026-04-13T13:17:37Z</time></trkpt><trkpt lat="43.70277210517057" lon="11.917361812015756"><ele>984.0</ele><time>2026-04-13T13:17:38Z</time></trkpt><trkpt lat="43.70277409462905" lon="11.917144200020646"><ele>976.6666666666667</ele><time>2026-04-13T13:17:39Z</time></trkpt><trkpt lat="43.70276825962798" lon="11.916909312968171"><ele>969.3333333333334</ele><time>2026-04-13T13:17:40Z</time></trkpt><trkpt lat="43.7027638182611" lon="11.916674148744193"><ele>962.0</ele><time>2026-04-13T13:17:41Z</time></trkpt><trkpt lat="43.702766914508736" lon="11.916449380036008"><ele>961.6666666666667</ele><time>2026-04-13T13:17:42Z</time></trkpt><trkpt lat="43.702767000003874" lon="11.916224894673464"><ele>961.3333333333333</ele><time>2026-04-13T13:17:43Z</time></trkpt><trkpt lat="43.70275649728954" lon="11.916005491656326"><ele>961.0</ele><time>2026-04-13T13:17:44Z</time></trkpt><trkpt lat="43.70272428281114" lon="11.915790790709583"><ele>961.0</ele><time>2026-04-13T13:17:45Z</time></trkpt><trkpt lat="43.70265431232931" lon="11.915584516181204"><ele>961.0</ele><time>2026-04-13T13:17:46Z</time></trkpt><trkpt lat="43.70254913192013" lon="11.915397108010033"><ele>961.0</ele><time>2026-04-13T13:17:47Z</time></trkpt><trkpt lat="43.702411962712986" lon="11.91524807623172"><ele>961.0</ele><time>2026-04-13T13:17:48Z</time></trkpt><trkpt lat="43.70225644747065" lon="11.915149444820013"><ele>961.0</ele><time>2026-04-13T13:17:49Z</time></trkpt><trkpt lat="43.70210418546614" lon="11.915060892355584"><ele>961.0</ele><time>2026-04-13T13:17:50Z</time></trkpt><trkpt lat="43.70196191172043" lon="11.914951016578158"><ele>959.6666666666666</ele><time>2026-04-13T13:17:51Z</time></trkpt><trkpt lat="43.70183348943668" lon="11.914810254189058"><ele>958.3333333333333</ele><time>2026-04-13T13:17:52Z</time></trkpt><trkpt lat="43.70171561794413" lon="11.914642361343683"><ele>957.0</ele><time>2026-04-13T13:17:53Z</time></trkpt><trkpt lat="43.701597482820716" lon="11.914457954694274"><ele>957.0</ele><time>2026-04-13T13:17:54Z</time></trkpt><trkpt lat="43.701475648953114" lon="11.91426788621069"><ele>957.0</ele><time>2026-04-13T13:17:55Z</time></trkpt><trkpt lat="43.70135556569402" lon="11.914071205729295"><ele>957.0</ele><time>2026-04-13T13:17:56Z</time></trkpt><trkpt lat="43.70123934996419" lon="11.91387340307939"><ele>954.6666666666667</ele><time>2026-04-13T13:17:57Z</time></trkpt><trkpt lat="43.701123639102036" lon="11.913670235404735"><ele>952.3333333333334</ele><time>2026-04-13T13:17:58Z</time></trkpt><trkpt lat="43.7010083858466" lon="11.913466710585787"><ele>950.0</ele><time>2026-04-13T13:17:59Z</time></trkpt><trkpt lat="43.70089602445802" lon="11.91326801734001"><ele>946.0</ele><time>2026-04-13T13:18:00Z</time></trkpt><trkpt lat="43.70078263122492" lon="11.913074027646596"><ele>942.0</ele><time>2026-04-13T13:18:01Z</time></trkpt><trkpt lat="43.70066927082038" lon="11.912885302464161"><ele>938.0</ele><time>2026-04-13T13:18:02Z</time></trkpt><trkpt lat="43.70055952398692" lon="11.912693839173594"><ele>936.3333333333334</ele><time>2026-04-13T13:18:03Z</time></trkpt><trkpt lat="43.7004498632478" lon="11.91252063875337"><ele>934.6666666666667</ele><time>2026-04-13T13:18:04Z</time></trkpt><trkpt lat="43.700327657583806" lon="11.912382462359538"><ele>933.0</ele><time>2026-04-13T13:18:05Z</time></trkpt><trkpt lat="43.70018184290044" lon="11.912303489424641"><ele>933.0</ele><time>2026-04-13T13:18:06Z</time></trkpt><trkpt lat="43.70002695000738" lon="11.912276924262493"><ele>933.0</ele><time>2026-04-13T13:18:07Z</time></trkpt><trkpt lat="43.69987140976021" lon="11.912301502981197"><ele>933.0</ele><time>2026-04-13T13:18:08Z</time></trkpt><trkpt lat="43.699727168583436" lon="11.9123806612375"><ele>933.0</ele><time>2026-04-13T13:18:09Z</time></trkpt><trkpt lat="43.69959476208858" lon="11.912504395738017"><ele>933.0</ele><time>2026-04-13T13:18:10Z</time></trkpt><trkpt lat="43.69947025081684" lon="11.91264428647333"><ele>933.0</ele><time>2026-04-13T13:18:11Z</time></trkpt><trkpt lat="43.69934493213004" lon="11.912770834922275"><ele>933.75</ele><time>2026-04-13T13:18:12Z</time></trkpt><trkpt lat="43.69922703014601" lon="11.912875294253286"><ele>934.5</ele><time>2026-04-13T13:18:13Z</time></trkpt><trkpt lat="43.69911107739013" lon="11.912939952521784"><ele>935.25</ele><time>2026-04-13T13:18:14Z</time></trkpt><trkpt lat="43.698996104695595" lon="11.912924476651908"><ele>936.0</ele><time>2026-04-13T13:18:15Z</time></trkpt><trkpt lat="43.69890692790293" lon="11.912838446361379"><ele>936.0</ele><time>2026-04-13T13:18:16Z</time></trkpt><trkpt lat="43.69887716502225" lon="11.91270937979926"><ele>936.0</ele><time>2026-04-13T13:18:17Z</time></trkpt><trkpt lat="43.6989035130048" lon="11.912571877043442"><ele>936.0</ele><time>2026-04-13T13:18:18Z</time></trkpt><trkpt lat="43.69899783383279" lon="11.912472882172557"><ele>936.0</ele><time>2026-04-13T13:18:19Z</time></trkpt><trkpt lat="43.699088771152404" lon="11.91232536586562"><ele>931.6666666666667</ele><time>2026-04-13T13:18:20Z</time></trkpt><trkpt lat="43.699196876913945" lon="11.912170845333273"><ele>927.3333333333334</ele><time>2026-04-13T13:18:21Z</time></trkpt><trkpt lat="43.69928936657104" lon="11.911990368066942"><ele>923.0</ele><time>2026-04-13T13:18:22Z</time></trkpt><trkpt lat="43.69935748081291" lon="11.911795520265246"><ele>922.3333333333334</ele><time>2026-04-13T13:18:23Z</time></trkpt><trkpt lat="43.69941677682401" lon="11.911596271324147"><ele>921.6666666666667</ele><time>2026-04-13T13:18:24Z</time></trkpt><trkpt lat="43.69948578901709" lon="11.911401551007987"><ele>921.0</ele><time>2026-04-13T13:18:25Z</time></trkpt><trkpt lat="43.69957612364397" lon="11.911223756606738"><ele>921.0</ele><time>2026-04-13T13:18:26Z</time></trkpt><trkpt lat="43.69968640332636" lon="11.911074308499842"><ele>921.0</ele><time>2026-04-13T13:18:27Z</time></trkpt><trkpt lat="43.6998130225289" lon="11.910952450511685"><ele>921.0</ele><time>2026-04-13T13:18:28Z</time></trkpt><trkpt lat="43.699950924053105" lon="11.910863489665973"><ele>916.3333333333333</ele><time>2026-04-13T13:18:29Z</time></trkpt><trkpt lat="43.700099034178" lon="11.910802322192366"><ele>911.6666666666666</ele><time>2026-04-13T13:18:30Z</time></trkpt><trkpt lat="43.70025642278677" lon="11.910766183041442"><ele>907.0</ele><time>2026-04-13T13:18:31Z</time></trkpt><trkpt lat="43.700421245212794" lon="11.910742091528121"><ele>906.3333333333333</ele><time>2026-04-13T13:18:32Z</time></trkpt><trkpt lat="43.70059108307486" lon="11.910713932413442"><ele>905.6666666666667</ele><time>2026-04-13T13:18:33Z</time></trkpt><trkpt lat="43.70075710423106" lon="11.910682505356968"><ele>905.0</ele><time>2026-04-13T13:18:34Z</time></trkpt><trkpt lat="43.70091805039128" lon="11.910649896648973"><ele>905.0</ele><time>2026-04-13T13:18:35Z</time></trkpt><trkpt lat="43.70108025978826" lon="11.910618586068239"><ele>905.0</ele><time>2026-04-13T13:18:36Z</time></trkpt><trkpt lat="43.70124787785518" lon="11.91058897752303"><ele>905.0</ele><time>2026-04-13T13:18:37Z</time></trkpt><trkpt lat="43.70141916507214" lon="11.910561634715817"><ele>903.6666666666667</ele><time>2026-04-13T13:18:38Z</time></trkpt><trkpt lat="43.70159013459717" lon="11.910529940269342"><ele>902.3333333333333</ele><time>2026-04-13T13:18:39Z</time></trkpt><trkpt lat="43.701761024328725" lon="11.910522278922684"><ele>901.0</ele><time>2026-04-13T13:18:40Z</time></trkpt><trkpt lat="43.70192893350618" lon="11.91049402469883"><ele>899.0</ele><time>2026-04-13T13:18:41Z</time></trkpt><trkpt lat="43.70209354866107" lon="11.910469763023407"><ele>897.0</ele><time>2026-04-13T13:18:42Z</time></trkpt><trkpt lat="43.702255768706074" lon="11.91044196117865"><ele>895.0</ele><time>2026-04-13T13:18:43Z</time></trkpt><trkpt lat="43.70241707738061" lon="11.910463663487272"><ele>895.0</ele><time>2026-04-13T13:18:44Z</time></trkpt><trkpt lat="43.702575794982685" lon="11.91050953606688"><ele>895.0</ele><time>2026-04-13T13:18:45Z</time></trkpt><trkpt lat="43.70272906096563" lon="11.910572006332982"><ele>895.0</ele><time>2026-04-13T13:18:46Z</time></trkpt><trkpt lat="43.702882529259334" lon="11.910637886973356"><ele>892.6666666666666</ele><time>2026-04-13T13:18:47Z</time></trkpt><trkpt lat="43.70303657696353" lon="11.910702169183716"><ele>890.3333333333333</ele><time>2026-04-13T13:18:48Z</time></trkpt><trkpt lat="43.70318939722121" lon="11.910760673510481"><ele>888.0</ele><time>2026-04-13T13:18:49Z</time></trkpt><trkpt lat="43.70335077910427" lon="11.910797374796195"><ele>888.0</ele><time>2026-04-13T13:18:50Z</time></trkpt><trkpt lat="43.7035177185711" lon="11.910797399225512"><ele>888.0</ele><time>2026-04-13T13:18:51Z</time></trkpt><trkpt lat="43.70368115811799" lon="11.910776027992789"><ele>888.0</ele><time>2026-04-13T13:18:52Z</time></trkpt><trkpt lat="43.703836510288674" lon="11.910723535302408"><ele>888.0</ele><time>2026-04-13T13:18:53Z</time></trkpt><trkpt lat="43.70398740668648" lon="11.910645723329987"><ele>888.0</ele><time>2026-04-13T13:18:54Z</time></trkpt><trkpt lat="43.70413359187845" lon="11.910560254669344"><ele>888.0</ele><time>2026-04-13T13:18:55Z</time></trkpt><trkpt lat="43.70427368625475" lon="11.91046686234459"><ele>888.0</ele><time>2026-04-13T13:18:56Z</time></trkpt><trkpt lat="43.70440356295554" lon="11.910356771047073"><ele>888.0</ele><time>2026-04-13T13:18:57Z</time></trkpt><trkpt lat="43.70450135900914" lon="11.910203606467697"><ele>888.0</ele><time>2026-04-13T13:18:58Z</time></trkpt><trkpt lat="43.70455793202829" lon="11.910017417519448"><ele>888.0</ele><time>2026-04-13T13:18:59Z</time></trkpt><trkpt lat="43.70457783934839" lon="11.909806429547269"><ele>883.3333333333333</ele><time>2026-04-13T13:19:00Z</time></trkpt><trkpt lat="43.704552538899584" lon="11.909593283877966"><ele>878.6666666666666</ele><time>2026-04-13T13:19:01Z</time></trkpt><trkpt lat="43.70448380255729" lon="11.90938947290812"><ele>874.0</ele><time>2026-04-13T13:19:02Z</time></trkpt><trkpt lat="43.70437815629979" lon="11.909191816983165"><ele>872.6666666666666</ele><time>2026-04-13T13:19:03Z</time></trkpt><trkpt lat="43.70425392226121" lon="11.908988488572861"><ele>871.3333333333333</ele><time>2026-04-13T13:19:04Z</time></trkpt><trkpt lat="43.70413236264489" lon="11.908783646098302"><ele>870.0</ele><time>2026-04-13T13:19:05Z</time></trkpt><trkpt lat="43.704014601977775" lon="11.908585701696785"><ele>867.6666666666667</ele><time>2026-04-13T13:19:06Z</time></trkpt><trkpt lat="43.70391569061003" lon="11.908374907865563"><ele>865.3333333333334</ele><time>2026-04-13T13:19:07Z</time></trkpt><trkpt lat="43.70380071570245" lon="11.908188358269983"><ele>863.0</ele><time>2026-04-13T13:19:08Z</time></trkpt><trkpt lat="43.703724948495214" lon="11.907972273730966"><ele>863.0</ele><time>2026-04-13T13:19:09Z</time></trkpt><trkpt lat="43.70368320205187" lon="11.907741783722015"><ele>863.0</ele><time>2026-04-13T13:19:10Z</time></trkpt><trkpt lat="43.70368169885519" lon="11.907506964117719"><ele>863.0</ele><time>2026-04-13T13:19:11Z</time></trkpt><trkpt lat="43.7037101088164" lon="11.907272289553019"><ele>860.6666666666667</ele><time>2026-04-13T13:19:12Z</time></trkpt><trkpt lat="43.7037672603499" lon="11.907035006175729"><ele>858.3333333333333</ele><time>2026-04-13T13:19:13Z</time></trkpt><trkpt lat="43.703832238037386" lon="11.906807773621974"><ele>856.0</ele><time>2026-04-13T13:19:14Z</time></trkpt><trkpt lat="43.70388745160746" lon="11.906589793433238"><ele>854.3333333333333</ele><time>2026-04-13T13:19:15Z</time></trkpt><trkpt lat="43.70393582127399" lon="11.906371960368716"><ele>852.6666666666667</ele><time>2026-04-13T13:19:16Z</time></trkpt><trkpt lat="43.70395422000935" lon="11.906160455265193"><ele>851.0</ele><time>2026-04-13T13:19:17Z</time></trkpt><trkpt lat="43.70392432729392" lon="11.905956698315723"><ele>849.6666666666667</ele><time>2026-04-13T13:19:18Z</time></trkpt><trkpt lat="43.703847015897516" lon="11.905778579576003"><ele>848.3333333333333</ele><time>2026-04-13T13:19:19Z</time></trkpt><trkpt lat="43.70373803025907" lon="11.905635820766852"><ele>847.0</ele><time>2026-04-13T13:19:20Z</time></trkpt><trkpt lat="43.70359370413774" lon="11.9055440348619"><ele>849.3333333333333</ele><time>2026-04-13T13:19:21Z</time></trkpt><trkpt lat="43.70343046690024" lon="11.905499778657084"><ele>851.6666666666667</ele><time>2026-04-13T13:19:22Z</time></trkpt><trkpt lat="43.70327142270463" lon="11.905503505944555"><ele>854.0</ele><time>2026-04-13T13:19:23Z</time></trkpt><trkpt lat="43.703119120123745" lon="11.90549748161012"><ele>854.0</ele><time>2026-04-13T13:19:24Z</time></trkpt><trkpt lat="43.702975939030274" lon="11.905429142420704"><ele>854.0</ele><time>2026-04-13T13:19:25Z</time></trkpt><trkpt lat="43.702838009702255" lon="11.905328052212932"><ele>854.0</ele><time>2026-04-13T13:19:26Z</time></trkpt><trkpt lat="43.70269645980357" lon="11.905223211495091"><ele>854.6666666666667</ele><time>2026-04-13T13:19:27Z</time></trkpt><trkpt lat="43.702556176139815" lon="11.905121086263469"><ele>855.3333333333333</ele><time>2026-04-13T13:19:28Z</time></trkpt><trkpt lat="43.70241975221882" lon="11.905012268384347"><ele>856.0</ele><time>2026-04-13T13:19:29Z</time></trkpt><trkpt lat="43.702289736502856" lon="11.904891751444442"><ele>853.25</ele><time>2026-04-13T13:19:30Z</time></trkpt><trkpt lat="43.702175883080734" lon="11.904750567466575"><ele>850.5</ele><time>2026-04-13T13:19:31Z</time></trkpt><trkpt lat="43.70206895374097" lon="11.904603322578696"><ele>847.75</ele><time>2026-04-13T13:19:32Z</time></trkpt><trkpt lat="43.701967276877106" lon="11.904480465246959"><ele>845.0</ele><time>2026-04-13T13:19:33Z</time></trkpt><trkpt lat="43.701855204014976" lon="11.904405564908787"><ele>845.0</ele><time>2026-04-13T13:19:34Z</time></trkpt><trkpt lat="43.701723420532396" lon="11.904392166057807"><ele>845.0</ele><time>2026-04-13T13:19:35Z</time></trkpt><trkpt lat="43.70157857465605" lon="11.904404429004908"><ele>845.0</ele><time>2026-04-13T13:19:36Z</time></trkpt><trkpt lat="43.70143795662653" lon="11.90441114810091"><ele>845.0</ele><time>2026-04-13T13:19:37Z</time></trkpt><trkpt lat="43.70130516716234" lon="11.904411673090404"><ele>845.0</ele><time>2026-04-13T13:19:38Z</time></trkpt><trkpt lat="43.701182886548594" lon="11.904425144949373"><ele>845.0</ele><time>2026-04-13T13:19:39Z</time></trkpt><trkpt lat="43.701072071060445" lon="11.904488324703305"><ele>845.0</ele><time>2026-04-13T13:19:40Z</time></trkpt><trkpt lat="43.70099553142617" lon="11.904610493604386"><ele>845.0</ele><time>2026-04-13T13:19:41Z</time></trkpt><trkpt lat="43.700945763732285" lon="11.904767698479127"><ele>846.5</ele><time>2026-04-13T13:19:42Z</time></trkpt><trkpt lat="43.7009113494091" lon="11.904921701337244"><ele>848.0</ele><time>2026-04-13T13:19:43Z</time></trkpt><trkpt lat="43.700850697127805" lon="11.905058777153172"><ele>849.5</ele><time>2026-04-13T13:19:44Z</time></trkpt><trkpt lat="43.700750394101426" lon="11.905133287328423"><ele>851.0</ele><time>2026-04-13T13:19:45Z</time></trkpt><trkpt lat="43.70063307292611" lon="11.905141661163949"><ele>851.0</ele><time>2026-04-13T13:19:46Z</time></trkpt><trkpt lat="43.70049559835484" lon="11.905154236933035"><ele>851.0</ele><time>2026-04-13T13:19:47Z</time></trkpt><trkpt lat="43.700346045552635" lon="11.905178577647806"><ele>851.0</ele><time>2026-04-13T13:19:48Z</time></trkpt><trkpt lat="43.700187394969795" lon="11.905205087762813"><ele>851.0</ele><time>2026-04-13T13:19:49Z</time></trkpt><trkpt lat="43.70002741705587" lon="11.905223329029209"><ele>847.3333333333334</ele><time>2026-04-13T13:19:50Z</time></trkpt><trkpt lat="43.69987244891224" lon="11.905237613266817"><ele>843.6666666666667</ele><time>2026-04-13T13:19:51Z</time></trkpt><trkpt lat="43.6997181786498" lon="11.905253458249407"><ele>840.0</ele><time>2026-04-13T13:19:52Z</time></trkpt><trkpt lat="43.699569887020814" lon="11.905270590659006"><ele>840.0</ele><time>2026-04-13T13:19:53Z</time></trkpt><trkpt lat="43.6994337641665" lon="11.905306551419798"><ele>840.0</ele><time>2026-04-13T13:19:54Z</time></trkpt><trkpt lat="43.69930380258312" lon="11.905392108518729"><ele>840.0</ele><time>2026-04-13T13:19:55Z</time></trkpt><trkpt lat="43.69918747944983" lon="11.905519824256352"><ele>840.0</ele><time>2026-04-13T13:19:56Z</time></trkpt><trkpt lat="43.69906370869071" lon="11.905602521518237"><ele>836.5</ele><time>2026-04-13T13:19:57Z</time></trkpt><trkpt lat="43.69893133572977" lon="11.905661919856797"><ele>833.0</ele><time>2026-04-13T13:19:58Z</time></trkpt><trkpt lat="43.698804229129024" lon="11.90571210607505"><ele>829.5</ele><time>2026-04-13T13:19:59Z</time></trkpt><trkpt lat="43.698700820879665" lon="11.905738232670684"><ele>826.0</ele><time>2026-04-13T13:20:00Z</time></trkpt><trkpt lat="43.69862269258254" lon="11.905678457450808"><ele>826.0</ele><time>2026-04-13T13:20:01Z</time></trkpt><trkpt lat="43.698585442633515" lon="11.90556961660106"><ele>826.0</ele><time>2026-04-13T13:20:02Z</time></trkpt><trkpt lat="43.698609126858074" lon="11.905438921176644"><ele>826.0</ele><time>2026-04-13T13:20:03Z</time></trkpt><trkpt lat="43.69870379344213" lon="11.905370289294261"><ele>826.0</ele><time>2026-04-13T13:20:04Z</time></trkpt><trkpt lat="43.69880623724055" lon="11.905387147439821"><ele>826.0</ele><time>2026-04-13T13:20:05Z</time></trkpt><trkpt lat="43.698920396389354" lon="11.905371335072635"><ele>826.0</ele><time>2026-04-13T13:20:06Z</time></trkpt><trkpt lat="43.69904438219309" lon="11.90533885683252"><ele>826.0</ele><time>2026-04-13T13:20:07Z</time></trkpt><trkpt lat="43.69915371724299" lon="11.90524265003617"><ele>826.0</ele><time>2026-04-13T13:20:08Z</time></trkpt><trkpt lat="43.699203994466075" lon="11.90506951753122"><ele>826.0</ele><time>2026-04-13T13:20:09Z</time></trkpt><trkpt lat="43.69928987377813" lon="11.90493071341097"><ele>824.25</ele><time>2026-04-13T13:20:10Z</time></trkpt><trkpt lat="43.69941651054629" lon="11.904845314022868"><ele>822.5</ele><time>2026-04-13T13:20:11Z</time></trkpt><trkpt lat="43.699541776341746" lon="11.904767008398364"><ele>820.75</ele><time>2026-04-13T13:20:12Z</time></trkpt><trkpt lat="43.69967623397827" lon="11.904726595134166"><ele>819.0</ele><time>2026-04-13T13:20:13Z</time></trkpt><trkpt lat="43.699807952684814" lon="11.904707044510515"><ele>819.0</ele><time>2026-04-13T13:20:14Z</time></trkpt><trkpt lat="43.69993494218177" lon="11.90462716989428"><ele>819.0</ele><time>2026-04-13T13:20:15Z</time></trkpt><trkpt lat="43.70004243053168" lon="11.904476284776976"><ele>819.0</ele><time>2026-04-13T13:20:16Z</time></trkpt><trkpt lat="43.70013910313475" lon="11.904331317895515"><ele>819.0</ele><time>2026-04-13T13:20:17Z</time></trkpt><trkpt lat="43.7002375175494" lon="11.904192842160535"><ele>818.5</ele><time>2026-04-13T13:20:18Z</time></trkpt><trkpt lat="43.700336359723586" lon="11.904065369821883"><ele>818.0</ele><time>2026-04-13T13:20:19Z</time></trkpt><trkpt lat="43.70042385057994" lon="11.90395384780877"><ele>817.5</ele><time>2026-04-13T13:20:20Z</time></trkpt><trkpt lat="43.700471550257475" lon="11.903818009471614"><ele>817.0</ele><time>2026-04-13T13:20:21Z</time></trkpt><trkpt lat="43.70045932066776" lon="11.903648851661327"><ele>817.0</ele><time>2026-04-13T13:20:22Z</time></trkpt><trkpt lat="43.7004011233557" lon="11.903478351889062"><ele>817.0</ele><time>2026-04-13T13:20:23Z</time></trkpt><trkpt lat="43.700327312540566" lon="11.903327386982705"><ele>817.0</ele><time>2026-04-13T13:20:24Z</time></trkpt><trkpt lat="43.700258091453804" lon="11.903189193968066"><ele>817.0</ele><time>2026-04-13T13:20:25Z</time></trkpt><trkpt lat="43.70019966109585" lon="11.903044861983055"><ele>811.0</ele><time>2026-04-13T13:20:26Z</time></trkpt><trkpt lat="43.700140894804065" lon="11.902895589661227"><ele>805.0</ele><time>2026-04-13T13:20:27Z</time></trkpt><trkpt lat="43.70009315869518" lon="11.902739136113924"><ele>799.0</ele><time>2026-04-13T13:20:28Z</time></trkpt><trkpt lat="43.70011650191686" lon="11.902568286377994"><ele>793.0</ele><time>2026-04-13T13:20:29Z</time></trkpt><trkpt lat="43.70016950538764" lon="11.902435166920574"><ele>791.75</ele><time>2026-04-13T13:20:30Z</time></trkpt><trkpt lat="43.70024854372369" lon="11.902330996254921"><ele>790.5</ele><time>2026-04-13T13:20:31Z</time></trkpt><trkpt lat="43.70038015376817" lon="11.902353748596264"><ele>789.25</ele><time>2026-04-13T13:20:32Z</time></trkpt><trkpt lat="43.70050467668706" lon="11.902405700630046"><ele>788.0</ele><time>2026-04-13T13:20:33Z</time></trkpt><trkpt lat="43.700607291187566" lon="11.902480482658476"><ele>791.75</ele><time>2026-04-13T13:20:34Z</time></trkpt><trkpt lat="43.7007303925145" lon="11.902583222180173"><ele>795.5</ele><time>2026-04-13T13:20:35Z</time></trkpt><trkpt lat="43.70082351212364" lon="11.90264352091042"><ele>799.25</ele><time>2026-04-13T13:20:36Z</time></trkpt><trkpt lat="43.70093517104423" lon="11.902680841983477"><ele>803.0</ele><time>2026-04-13T13:20:37Z</time></trkpt><trkpt lat="43.701061990051755" lon="11.902663426859075"><ele>803.75</ele><time>2026-04-13T13:20:38Z</time></trkpt><trkpt lat="43.70118781973926" lon="11.902618820346527"><ele>804.5</ele><time>2026-04-13T13:20:39Z</time></trkpt><trkpt lat="43.70129890073894" lon="11.902547199868353"><ele>805.25</ele><time>2026-04-13T13:20:40Z</time></trkpt><trkpt lat="43.70140553981508" lon="11.902436806341296"><ele>806.0</ele><time>2026-04-13T13:20:41Z</time></trkpt><trkpt lat="43.70150005803683" lon="11.902290489010458"><ele>801.75</ele><time>2026-04-13T13:20:42Z</time></trkpt><trkpt lat="43.7015903556534" lon="11.902134691669259"><ele>797.5</ele><time>2026-04-13T13:20:43Z</time></trkpt><trkpt lat="43.70167783808526" lon="11.90198490102876"><ele>793.25</ele><time>2026-04-13T13:20:44Z</time></trkpt><trkpt lat="43.701759586398374" lon="11.901829837090796"><ele>789.0</ele><time>2026-04-13T13:20:45Z</time></trkpt><trkpt lat="43.70182197932135" lon="11.90166869352556"><ele>789.0</ele><time>2026-04-13T13:20:46Z</time></trkpt><trkpt lat="43.701864488464906" lon="11.90151685671135"><ele>789.0</ele><time>2026-04-13T13:20:47Z</time></trkpt><trkpt lat="43.701938521983365" lon="11.901403429043643"><ele>789.0</ele><time>2026-04-13T13:20:48Z</time></trkpt><trkpt lat="43.70205551467943" lon="11.901369813230017"><ele>789.0</ele><time>2026-04-13T13:20:49Z</time></trkpt><trkpt lat="43.70215816078014" lon="11.90130741620879"><ele>789.0</ele><time>2026-04-13T13:20:50Z</time></trkpt><trkpt lat="43.702249412586454" lon="11.90121473489518"><ele>789.0</ele><time>2026-04-13T13:20:51Z</time></trkpt><trkpt lat="43.702297018599985" lon="11.901073305802594"><ele>789.0</ele><time>2026-04-13T13:20:52Z</time></trkpt><trkpt lat="43.70230734443041" lon="11.900906885626782"><ele>789.0</ele><time>2026-04-13T13:20:53Z</time></trkpt><trkpt lat="43.70231482477806" lon="11.90073522178068"><ele>786.5</ele><time>2026-04-13T13:20:54Z</time></trkpt><trkpt lat="43.70234302344278" lon="11.900573589409008"><ele>784.0</ele><time>2026-04-13T13:20:55Z</time></trkpt><trkpt lat="43.70236891462252" lon="11.900416697467634"><ele>781.5</ele><time>2026-04-13T13:20:56Z</time></trkpt><trkpt lat="43.70236606787872" lon="11.900241591856128"><ele>779.0</ele><time>2026-04-13T13:20:57Z</time></trkpt><trkpt lat="43.70232759851396" lon="11.900074338145586"><ele>778.0</ele><time>2026-04-13T13:20:58Z</time></trkpt><trkpt lat="43.70227501233576" lon="11.899919151831304"><ele>777.0</ele><time>2026-04-13T13:20:59Z</time></trkpt><trkpt lat="43.702254573118665" lon="11.899757858423238"><ele>776.0</ele><time>2026-04-13T13:21:00Z</time></trkpt><trkpt lat="43.702268194484915" lon="11.8995895604483"><ele>775.0</ele><time>2026-04-13T13:21:01Z</time></trkpt><trkpt lat="43.70233459788701" lon="11.899432073578657"><ele>774.5</ele><time>2026-04-13T13:21:02Z</time></trkpt><trkpt lat="43.702339352870986" lon="11.899246581810907"><ele>774.0</ele><time>2026-04-13T13:21:03Z</time></trkpt><trkpt lat="43.702327570498596" lon="11.899051008665618"><ele>773.5</ele><time>2026-04-13T13:21:04Z</time></trkpt><trkpt lat="43.70230044595838" lon="11.898860729192604"><ele>773.0</ele><time>2026-04-13T13:21:05Z</time></trkpt><trkpt lat="43.702304448704986" lon="11.89867482604001"><ele>773.0</ele><time>2026-04-13T13:21:06Z</time></trkpt><trkpt lat="43.70227868783933" lon="11.89849089156091"><ele>773.0</ele><time>2026-04-13T13:21:07Z</time></trkpt><trkpt lat="43.70222597259848" lon="11.89831847091535"><ele>773.0</ele><time>2026-04-13T13:21:08Z</time></trkpt><trkpt lat="43.70215847609921" lon="11.89815230615618"><ele>773.0</ele><time>2026-04-13T13:21:09Z</time></trkpt><trkpt lat="43.702107922170086" lon="11.897968697677726"><ele>772.6666666666667</ele><time>2026-04-13T13:21:10Z</time></trkpt><trkpt lat="43.702045562523814" lon="11.89777939456666"><ele>772.3333333333333</ele><time>2026-04-13T13:21:11Z</time></trkpt><trkpt lat="43.70202801048125" lon="11.897570802778938"><ele>772.0</ele><time>2026-04-13T13:21:12Z</time></trkpt><trkpt lat="43.701997396829405" lon="11.897363994135505"><ele>771.0</ele><time>2026-04-13T13:21:13Z</time></trkpt><trkpt lat="43.7019824405276" lon="11.897150758463265"><ele>770.0</ele><time>2026-04-13T13:21:14Z</time></trkpt><trkpt lat="43.70197453867869" lon="11.89694409754941"><ele>769.0</ele><time>2026-04-13T13:21:15.001Z</time></trkpt><trkpt lat="43.701946521443084" lon="11.89672778009202"><ele>767.3333333333333</ele><time>2026-04-13T13:21:16Z</time></trkpt><trkpt lat="43.701924720553365" lon="11.896515982219501"><ele>765.6666666666666</ele><time>2026-04-13T13:21:17Z</time></trkpt><trkpt lat="43.7019209927148" lon="11.896306567133207"><ele>764.0</ele><time>2026-04-13T13:21:18Z</time></trkpt><trkpt lat="43.70193483094201" lon="11.896096807002209"><ele>761.3333333333333</ele><time>2026-04-13T13:21:19Z</time></trkpt><trkpt lat="43.701976315278564" lon="11.895891666285378"><ele>758.6666666666666</ele><time>2026-04-13T13:21:20Z</time></trkpt><trkpt lat="43.70201000884867" lon="11.895689927996141"><ele>756.0</ele><time>2026-04-13T13:21:21Z</time></trkpt><trkpt lat="43.702031601597945" lon="11.895489696946017"><ele>756.0</ele><time>2026-04-13T13:21:22Z</time></trkpt><trkpt lat="43.702018525623316" lon="11.895278843844917"><ele>756.0</ele><time>2026-04-13T13:21:23Z</time></trkpt><trkpt lat="43.70199266587828" lon="11.89507537223777"><ele>756.0</ele><time>2026-04-13T13:21:24Z</time></trkpt><trkpt lat="43.70200399237654" lon="11.894879383285643"><ele>756.0</ele><time>2026-04-13T13:21:25Z</time></trkpt><trkpt lat="43.70204820430448" lon="11.894704392568977"><ele>753.5</ele><time>2026-04-13T13:21:26Z</time></trkpt><trkpt lat="43.70210474106289" lon="11.894543535228284"><ele>751.0</ele><time>2026-04-13T13:21:27Z</time></trkpt><trkpt lat="43.702169394716805" lon="11.894394199643871"><ele>748.5</ele><time>2026-04-13T13:21:28Z</time></trkpt><trkpt lat="43.702249257199455" lon="11.894260877827973"><ele>746.0</ele><time>2026-04-13T13:21:29Z</time></trkpt><trkpt lat="43.70233991165918" lon="11.894142653099747"><ele>743.5</ele><time>2026-04-13T13:21:30Z</time></trkpt><trkpt lat="43.70241921873725" lon="11.89401795882711"><ele>741.0</ele><time>2026-04-13T13:21:31Z</time></trkpt><trkpt lat="43.7024655957976" lon="11.89386252554761"><ele>738.5</ele><time>2026-04-13T13:21:32Z</time></trkpt><trkpt lat="43.70248049554651" lon="11.893689356776923"><ele>736.0</ele><time>2026-04-13T13:21:33Z</time></trkpt><trkpt lat="43.70247965160353" lon="11.893512564398122"><ele>734.75</ele><time>2026-04-13T13:21:34Z</time></trkpt><trkpt lat="43.70246302341063" lon="11.893324045487772"><ele>733.5</ele><time>2026-04-13T13:21:35Z</time></trkpt><trkpt lat="43.70243048563058" lon="11.893130172527965"><ele>732.25</ele><time>2026-04-13T13:21:36Z</time></trkpt><trkpt lat="43.70238579964168" lon="11.892945978162164"><ele>731.0</ele><time>2026-04-13T13:21:37Z</time></trkpt><trkpt lat="43.70234260902247" lon="11.89276436536599"><ele>729.75</ele><time>2026-04-13T13:21:38Z</time></trkpt><trkpt lat="43.70233555734603" lon="11.892576082008352"><ele>728.5</ele><time>2026-04-13T13:21:39Z</time></trkpt><trkpt lat="43.702337578110914" lon="11.892388397635845"><ele>727.25</ele><time>2026-04-13T13:21:40Z</time></trkpt><trkpt lat="43.702347263867004" lon="11.892204766922227"><ele>726.0</ele><time>2026-04-13T13:21:41Z</time></trkpt><trkpt lat="43.70235057814204" lon="11.892024140492651"><ele>726.0</ele><time>2026-04-13T13:21:42Z</time></trkpt><trkpt lat="43.7023923896224" lon="11.891855806436672"><ele>726.0</ele><time>2026-04-13T13:21:43Z</time></trkpt><trkpt lat="43.70245632068245" lon="11.891701214229984"><ele>726.0</ele><time>2026-04-13T13:21:44Z</time></trkpt><trkpt lat="43.702531031218165" lon="11.891567777082113"><ele>726.0</ele><time>2026-04-13T13:21:45Z</time></trkpt><trkpt lat="43.70260131651978" lon="11.891435517859248"><ele>725.75</ele><time>2026-04-13T13:21:46Z</time></trkpt><trkpt lat="43.70264773220503" lon="11.891288630862674"><ele>725.5</ele><time>2026-04-13T13:21:47Z</time></trkpt><trkpt lat="43.7026594964003" lon="11.891128352046344"><ele>725.25</ele><time>2026-04-13T13:21:48Z</time></trkpt><trkpt lat="43.70262868282691" lon="11.890963047247988"><ele>725.0</ele><time>2026-04-13T13:21:49Z</time></trkpt><trkpt lat="43.70256117312894" lon="11.890803305535085"><ele>724.0</ele><time>2026-04-13T13:21:50Z</time></trkpt><trkpt lat="43.702352484061215" lon="11.89060803286489"><ele>723.0</ele><time>2026-04-13T13:21:52Z</time></trkpt><trkpt lat="43.70222795925863" lon="11.890581087858932"><ele>722.0</ele><time>2026-04-13T13:21:53Z</time></trkpt><trkpt lat="43.70210681732909" lon="11.890601832402712"><ele>722.0</ele><time>2026-04-13T13:21:54Z</time></trkpt><trkpt lat="43.7020008427687" lon="11.890678586640686"><ele>722.0</ele><time>2026-04-13T13:21:55Z</time></trkpt><trkpt lat="43.70192262744547" lon="11.890811402029122"><ele>722.0</ele><time>2026-04-13T13:21:56Z</time></trkpt><trkpt lat="43.70186638435836" lon="11.89095982743888"><ele>722.0</ele><time>2026-04-13T13:21:57Z</time></trkpt><trkpt lat="43.70183350546245" lon="11.89111686197399"><ele>720.75</ele><time>2026-04-13T13:21:58Z</time></trkpt><trkpt lat="43.70182558020564" lon="11.891280339068318"><ele>719.5</ele><time>2026-04-13T13:21:59Z</time></trkpt><trkpt lat="43.701844165121685" lon="11.891438795464119"><ele>718.25</ele><time>2026-04-13T13:22:00Z</time></trkpt><trkpt lat="43.70186773858293" lon="11.891603689417035"><ele>717.0</ele><time>2026-04-13T13:22:01Z</time></trkpt><trkpt lat="43.70185683720942" lon="11.891762802366669"><ele>717.0</ele><time>2026-04-13T13:22:02Z</time></trkpt><trkpt lat="43.70181664115968" lon="11.891909987348125"><ele>717.0</ele><time>2026-04-13T13:22:03Z</time></trkpt><trkpt lat="43.70173243975052" lon="11.892048651996383"><ele>717.0</ele><time>2026-04-13T13:22:04Z</time></trkpt><trkpt lat="43.70165801344926" lon="11.892216544952847"><ele>717.0</ele><time>2026-04-13T13:22:05Z</time></trkpt><trkpt lat="43.701562731376725" lon="11.892374635821913"><ele>717.0</ele><time>2026-04-13T13:22:06Z</time></trkpt><trkpt lat="43.70147364602577" lon="11.892535863230231"><ele>717.0</ele><time>2026-04-13T13:22:07Z</time></trkpt><trkpt lat="43.701388610199665" lon="11.892692084008795"><ele>717.0</ele><time>2026-04-13T13:22:08Z</time></trkpt><trkpt lat="43.701308370574345" lon="11.892838721401523"><ele>717.0</ele><time>2026-04-13T13:22:09Z</time></trkpt><trkpt lat="43.701239821498945" lon="11.892964998639105"><ele>717.8</ele><time>2026-04-13T13:22:10Z</time></trkpt><trkpt lat="43.701202811107365" lon="11.893089400346891"><ele>718.6</ele><time>2026-04-13T13:22:11Z</time></trkpt><trkpt lat="43.701201809671005" lon="11.89323265193782"><ele>719.4</ele><time>2026-04-13T13:22:12Z</time></trkpt><trkpt lat="43.7012387388503" lon="11.893382049772214"><ele>720.1999999999999</ele><time>2026-04-13T13:22:13Z</time></trkpt><trkpt lat="43.701297436385595" lon="11.893528527910235"><ele>721.0</ele><time>2026-04-13T13:22:14Z</time></trkpt><trkpt lat="43.70135863414284" lon="11.89367047211504"><ele>721.0</ele><time>2026-04-13T13:22:15Z</time></trkpt><trkpt lat="43.70141367260756" lon="11.893805482277335"><ele>721.0</ele><time>2026-04-13T13:22:16Z</time></trkpt><trkpt lat="43.701423387628346" lon="11.89395457735359"><ele>721.0</ele><time>2026-04-13T13:22:17Z</time></trkpt><trkpt lat="43.7013456649649" lon="11.894090763679154"><ele>721.0</ele><time>2026-04-13T13:22:18Z</time></trkpt><trkpt lat="43.70130613146414" lon="11.894262051151761"><ele>722.25</ele><time>2026-04-13T13:22:19Z</time></trkpt><trkpt lat="43.70125989200222" lon="11.894443231521883"><ele>723.5</ele><time>2026-04-13T13:22:20Z</time></trkpt><trkpt lat="43.701246384938194" lon="11.894645076551841"><ele>724.75</ele><time>2026-04-13T13:22:21Z</time></trkpt><trkpt lat="43.701233164482986" lon="11.894849148524635"><ele>726.0</ele><time>2026-04-13T13:22:22Z</time></trkpt><trkpt lat="43.7011709596508" lon="11.89502098276536"><ele>728.5</ele><time>2026-04-13T13:22:23Z</time></trkpt><trkpt lat="43.701084976769806" lon="11.895169414549953"><ele>731.0</ele><time>2026-04-13T13:22:24Z</time></trkpt><trkpt lat="43.70100416361736" lon="11.895319952180811"><ele>733.5</ele><time>2026-04-13T13:22:25Z</time></trkpt><trkpt lat="43.700917198733876" lon="11.895467128314886"><ele>736.0</ele><time>2026-04-13T13:22:26Z</time></trkpt><trkpt lat="43.70082541657237" lon="11.895605071266766"><ele>730.25</ele><time>2026-04-13T13:22:27Z</time></trkpt><trkpt lat="43.70073561171961" lon="11.895746341894416"><ele>724.5</ele><time>2026-04-13T13:22:28Z</time></trkpt><trkpt lat="43.70064860518077" lon="11.895883771394795"><ele>718.75</ele><time>2026-04-13T13:22:29Z</time></trkpt><trkpt lat="43.70056693717138" lon="11.896042156010372"><ele>713.0</ele><time>2026-04-13T13:22:30Z</time></trkpt><trkpt lat="43.700495841572334" lon="11.896221289545522"><ele>713.0</ele><time>2026-04-13T13:22:31Z</time></trkpt><trkpt lat="43.70042928471078" lon="11.896400045754442"><ele>713.0</ele><time>2026-04-13T13:22:32Z</time></trkpt><trkpt lat="43.700365497909864" lon="11.896576341410269"><ele>713.0</ele><time>2026-04-13T13:22:33Z</time></trkpt><trkpt lat="43.700295413045346" lon="11.896747031019771"><ele>713.0</ele><time>2026-04-13T13:22:34Z</time></trkpt><trkpt lat="43.700220357701355" lon="11.896912827232576"><ele>708.75</ele><time>2026-04-13T13:22:35Z</time></trkpt><trkpt lat="43.700138325145396" lon="11.897074491668091"><ele>704.5</ele><time>2026-04-13T13:22:36Z</time></trkpt><trkpt lat="43.700038230702425" lon="11.897207787134779"><ele>700.25</ele><time>2026-04-13T13:22:37Z</time></trkpt><trkpt lat="43.69995134351466" lon="11.897348362425218"><ele>696.0</ele><time>2026-04-13T13:22:38Z</time></trkpt><trkpt lat="43.69986310252702" lon="11.89749279676898"><ele>696.0</ele><time>2026-04-13T13:22:39Z</time></trkpt><trkpt lat="43.699744130910304" lon="11.897560597654774"><ele>696.0</ele><time>2026-04-13T13:22:40Z</time></trkpt><trkpt lat="43.69962614436506" lon="11.897640694950226"><ele>696.0</ele><time>2026-04-13T13:22:41Z</time></trkpt><trkpt lat="43.699521310782885" lon="11.897712216565122"><ele>696.0</ele><time>2026-04-13T13:22:42Z</time></trkpt><trkpt lat="43.69941338499229" lon="11.897769898415614"><ele>695.8</ele><time>2026-04-13T13:22:43Z</time></trkpt><trkpt lat="43.69930852561752" lon="11.897795688224612"><ele>695.5999999999999</ele><time>2026-04-13T13:22:44Z</time></trkpt><trkpt lat="43.69919698923149" lon="11.897776070453551"><ele>695.4</ele><time>2026-04-13T13:22:45Z</time></trkpt><trkpt lat="43.699092861893305" lon="11.89770819346381"><ele>695.2</ele><time>2026-04-13T13:22:46Z</time></trkpt><trkpt lat="43.69899694476704" lon="11.89763429851827"><ele>695.0</ele><time>2026-04-13T13:22:47Z</time></trkpt><trkpt lat="43.69887834897368" lon="11.897615140007172"><ele>695.0</ele><time>2026-04-13T13:22:48Z</time></trkpt><trkpt lat="43.698758545096766" lon="11.897624015957957"><ele>695.0</ele><time>2026-04-13T13:22:49Z</time></trkpt><trkpt lat="43.69864021945566" lon="11.897641549372866"><ele>695.0</ele><time>2026-04-13T13:22:50Z</time></trkpt><trkpt lat="43.698520131865735" lon="11.897639276330894"><ele>695.0</ele><time>2026-04-13T13:22:51Z</time></trkpt><trkpt lat="43.6984061585513" lon="11.897598539159333"><ele>691.8</ele><time>2026-04-13T13:22:52Z</time></trkpt><trkpt lat="43.69831157065045" lon="11.89750953377646"><ele>688.6</ele><time>2026-04-13T13:22:53Z</time></trkpt><trkpt lat="43.698246175359124" lon="11.897395422217247"><ele>685.4000000000001</ele><time>2026-04-13T13:22:54Z</time></trkpt><trkpt lat="43.69821461438459" lon="11.897250944421621"><ele>682.2</ele><time>2026-04-13T13:22:55Z</time></trkpt><trkpt lat="43.69822344191018" lon="11.897096053636114"><ele>679.0</ele><time>2026-04-13T13:22:56Z</time></trkpt><trkpt lat="43.69827195729693" lon="11.896957221262724"><ele>679.0</ele><time>2026-04-13T13:22:57Z</time></trkpt><trkpt lat="43.69835279947504" lon="11.896848565986472"><ele>679.0</ele><time>2026-04-13T13:22:58Z</time></trkpt><trkpt lat="43.698457606412184" lon="11.896765618900305"><ele>679.0</ele><time>2026-04-13T13:22:59Z</time></trkpt><trkpt lat="43.69857402675885" lon="11.896708414202168"><ele>679.0</ele><time>2026-04-13T13:23:00Z</time></trkpt><trkpt lat="43.69869600503792" lon="11.89667072761022"><ele>677.25</ele><time>2026-04-13T13:23:01Z</time></trkpt><trkpt lat="43.698826217333696" lon="11.896654907375726"><ele>675.5</ele><time>2026-04-13T13:23:02Z</time></trkpt><trkpt lat="43.698960268561436" lon="11.896650450317324"><ele>673.75</ele><time>2026-04-13T13:23:03Z</time></trkpt><trkpt lat="43.69909060707506" lon="11.89664263925449"><ele>672.0</ele><time>2026-04-13T13:23:04Z</time></trkpt><trkpt lat="43.69921821920464" lon="11.896639473233042"><ele>672.0</ele><time>2026-04-13T13:23:05Z</time></trkpt><trkpt lat="43.69933811619554" lon="11.896626550743713"><ele>672.0</ele><time>2026-04-13T13:23:06Z</time></trkpt><trkpt lat="43.69945040315289" lon="11.896583610736783"><ele>672.0</ele><time>2026-04-13T13:23:07Z</time></trkpt><trkpt lat="43.69954767361573" lon="11.896496830880963"><ele>672.0</ele><time>2026-04-13T13:23:08Z</time></trkpt><trkpt lat="43.69957708600878" lon="11.896329626639597"><ele>673.25</ele><time>2026-04-13T13:23:09Z</time></trkpt><trkpt lat="43.69957560607713" lon="11.896160262594085"><ele>674.5</ele><time>2026-04-13T13:23:10Z</time></trkpt><trkpt lat="43.699557568790716" lon="11.895967940885086"><ele>675.75</ele><time>2026-04-13T13:23:11Z</time></trkpt><trkpt lat="43.69954567204143" lon="11.895768936783304"><ele>677.0</ele><time>2026-04-13T13:23:12Z</time></trkpt><trkpt lat="43.69953758968847" lon="11.895577168800422"><ele>677.0</ele><time>2026-04-13T13:23:13Z</time></trkpt><trkpt lat="43.69951605811822" lon="11.895378642256084"><ele>677.0</ele><time>2026-04-13T13:23:14Z</time></trkpt><trkpt lat="43.699463286731614" lon="11.895177236348907"><ele>677.0</ele><time>2026-04-13T13:23:15Z</time></trkpt><trkpt lat="43.69938844109816" lon="11.894983923826626"><ele>669.6666666666666</ele><time>2026-04-13T13:23:16Z</time></trkpt><trkpt lat="43.69931110935681" lon="11.89479517916797"><ele>662.3333333333334</ele><time>2026-04-13T13:23:17Z</time></trkpt><trkpt lat="43.69923251954713" lon="11.894608126455122"><ele>655.0</ele><time>2026-04-13T13:23:18Z</time></trkpt><trkpt lat="43.699158357222835" lon="11.894420083511301"><ele>655.0</ele><time>2026-04-13T13:23:19Z</time></trkpt><trkpt lat="43.69908584544803" lon="11.894228151748536"><ele>655.0</ele><time>2026-04-13T13:23:20Z</time></trkpt><trkpt lat="43.69901495532152" lon="11.894036673093394"><ele>655.0</ele><time>2026-04-13T13:23:21Z</time></trkpt><trkpt lat="43.69894519302254" lon="11.89384659584217"><ele>655.0</ele><time>2026-04-13T13:23:22Z</time></trkpt><trkpt lat="43.69886932043902" lon="11.893663235734648"><ele>655.0</ele><time>2026-04-13T13:23:23Z</time></trkpt><trkpt lat="43.69877888795845" lon="11.893490346438721"><ele>655.0</ele><time>2026-04-13T13:23:24Z</time></trkpt><trkpt lat="43.698674459922344" lon="11.893334417083217"><ele>651.5</ele><time>2026-04-13T13:23:25Z</time></trkpt><trkpt lat="43.69856857302706" lon="11.893186055112942"><ele>648.0</ele><time>2026-04-13T13:23:26Z</time></trkpt><trkpt lat="43.698500905477005" lon="11.893037248165582"><ele>644.5</ele><time>2026-04-13T13:23:27Z</time></trkpt><trkpt lat="43.69848134673642" lon="11.89288999806067"><ele>641.0</ele><time>2026-04-13T13:23:28Z</time></trkpt><trkpt lat="43.69850328158808" lon="11.892734195054363"><ele>641.0</ele><time>2026-04-13T13:23:29Z</time></trkpt><trkpt lat="43.69854327376301" lon="11.892593971581299"><ele>641.0</ele><time>2026-04-13T13:23:30Z</time></trkpt><trkpt lat="43.69857201195781" lon="11.892455374645772"><ele>641.0</ele><time>2026-04-13T13:23:31Z</time></trkpt><trkpt lat="43.69858175469547" lon="11.892309977964894"><ele>641.0</ele><time>2026-04-13T13:23:32Z</time></trkpt><trkpt lat="43.69856557087368" lon="11.892162471419548"><ele>641.0</ele><time>2026-04-13T13:23:33Z</time></trkpt><trkpt lat="43.69851715265051" lon="11.892026779401737"><ele>641.1999999999999</ele><time>2026-04-13T13:23:34Z</time></trkpt><trkpt lat="43.698461386845736" lon="11.891896404831579"><ele>641.4</ele><time>2026-04-13T13:23:35Z</time></trkpt><trkpt lat="43.69841922960433" lon="11.89175909915638"><ele>641.6</ele><time>2026-04-13T13:23:36Z</time></trkpt><trkpt lat="43.69841212121684" lon="11.891606314032773"><ele>641.8</ele><time>2026-04-13T13:23:37Z</time></trkpt><trkpt lat="43.69845013988785" lon="11.891452485761127"><ele>642.0</ele><time>2026-04-13T13:23:38Z</time></trkpt><trkpt lat="43.69853169155945" lon="11.891302167593695"><ele>644.6666666666666</ele><time>2026-04-13T13:23:39Z</time></trkpt><trkpt lat="43.69862236684198" lon="11.891120727941955"><ele>647.3333333333333</ele><time>2026-04-13T13:23:40Z</time></trkpt><trkpt lat="43.698723007880645" lon="11.890888396867954"><ele>650.0</ele><time>2026-04-13T13:23:41Z</time></trkpt><trkpt lat="43.69881353357618" lon="11.8906590992624"><ele>650.0</ele><time>2026-04-13T13:23:42Z</time></trkpt><trkpt lat="43.698882866220444" lon="11.890436114970296"><ele>650.0</ele><time>2026-04-13T13:23:43Z</time></trkpt><trkpt lat="43.698942407763056" lon="11.890236632173432"><ele>650.0</ele><time>2026-04-13T13:23:44Z</time></trkpt><trkpt lat="43.698998744603614" lon="11.890050252122242"><ele>648.0</ele><time>2026-04-13T13:23:45Z</time></trkpt><trkpt lat="43.699048428910224" lon="11.889876564877735"><ele>646.0</ele><time>2026-04-13T13:23:46Z</time></trkpt><trkpt lat="43.69907536750107" lon="11.889707931327145"><ele>644.0</ele><time>2026-04-13T13:23:47Z</time></trkpt><trkpt lat="43.69907623268047" lon="11.889549231475103"><ele>642.0</ele><time>2026-04-13T13:23:48Z</time></trkpt><trkpt lat="43.69904379207403" lon="11.889422940815058"><ele>642.0</ele><time>2026-04-13T13:23:49Z</time></trkpt><trkpt lat="43.69899003638673" lon="11.88931080030207"><ele>642.0</ele><time>2026-04-13T13:23:50Z</time></trkpt><trkpt lat="43.69895915476494" lon="11.889206376634776"><ele>642.0</ele><time>2026-04-13T13:23:51Z</time></trkpt><trkpt lat="43.698909827463694" lon="11.889124362566054"><ele>642.0</ele><time>2026-04-13T13:23:52Z</time></trkpt><trkpt lat="43.69889707312751" lon="11.889026143860821"><ele>642.0</ele><time>2026-04-13T13:23:53Z</time></trkpt><trkpt lat="43.698897431975624" lon="11.888914869784848"><ele>642.0</ele><time>2026-04-13T13:23:54Z</time></trkpt><trkpt lat="43.698911308028585" lon="11.8887684807582"><ele>641.5</ele><time>2026-04-13T13:23:55Z</time></trkpt><trkpt lat="43.69893352556437" lon="11.888600951247165"><ele>641.0</ele><time>2026-04-13T13:23:56Z</time></trkpt><trkpt lat="43.698953778940414" lon="11.888437961879118"><ele>640.5</ele><time>2026-04-13T13:23:57Z</time></trkpt><trkpt lat="43.69896767264263" lon="11.888281929376642"><ele>640.0</ele><time>2026-04-13T13:23:58Z</time></trkpt><trkpt lat="43.6990034422697" lon="11.888132227701854"><ele>637.75</ele><time>2026-04-13T13:23:59Z</time></trkpt><trkpt lat="43.6990697215062" lon="11.887990918656945"><ele>635.5</ele><time>2026-04-13T13:24:00Z</time></trkpt><trkpt lat="43.69914366818864" lon="11.887843503177358"><ele>633.25</ele><time>2026-04-13T13:24:01Z</time></trkpt><trkpt lat="43.699197831257486" lon="11.887662402336817"><ele>631.0</ele><time>2026-04-13T13:24:02Z</time></trkpt><trkpt lat="43.699230096422326" lon="11.887451639534584"><ele>627.6666666666667</ele><time>2026-04-13T13:24:03Z</time></trkpt><trkpt lat="43.699251210235104" lon="11.88723246951264"><ele>624.3333333333334</ele><time>2026-04-13T13:24:04Z</time></trkpt><trkpt lat="43.69927027265223" lon="11.887018828788642"><ele>621.0</ele><time>2026-04-13T13:24:05Z</time></trkpt><trkpt lat="43.69928964469972" lon="11.886809743213682"><ele>619.5</ele><time>2026-04-13T13:24:06Z</time></trkpt><trkpt lat="43.69928219376239" lon="11.886607194887878"><ele>618.0</ele><time>2026-04-13T13:24:07Z</time></trkpt><trkpt lat="43.6992418696038" lon="11.886411061002125"><ele>616.5</ele><time>2026-04-13T13:24:08Z</time></trkpt><trkpt lat="43.69919124264593" lon="11.88621270288022"><ele>615.0</ele><time>2026-04-13T13:24:09Z</time></trkpt><trkpt lat="43.6991386736704" lon="11.886032319794761"><ele>614.5</ele><time>2026-04-13T13:24:10Z</time></trkpt><trkpt lat="43.69909014837626" lon="11.885850811144376"><ele>614.0</ele><time>2026-04-13T13:24:11Z</time></trkpt><trkpt lat="43.69907189851826" lon="11.885661002367302"><ele>613.5</ele><time>2026-04-13T13:24:12Z</time></trkpt><trkpt lat="43.69909369246974" lon="11.885468787028643"><ele>613.0</ele><time>2026-04-13T13:24:13Z</time></trkpt><trkpt lat="43.699133516190955" lon="11.88531275861011"><ele>613.0</ele><time>2026-04-13T13:24:14Z</time></trkpt><trkpt lat="43.699166503863694" lon="11.885227062135655"><ele>613.0</ele><time>2026-04-13T13:24:15Z</time></trkpt><trkpt lat="43.69920234876761" lon="11.885147767049729"><ele>613.0</ele><time>2026-04-13T13:24:18Z</time></trkpt><trkpt lat="43.69920768567419" lon="11.885038033938187"><ele>613.0</ele><time>2026-04-13T13:27:15.001Z</time></trkpt><trkpt lat="43.69919922731798" lon="11.884927108197147"><ele>613.0</ele><time>2026-04-13T13:27:16.001Z</time></trkpt><trkpt lat="43.69921338864532" lon="11.884786566009147"><ele>613.0</ele><time>2026-04-13T13:27:17.001Z</time></trkpt><trkpt lat="43.69924228328767" lon="11.884648495278764"><ele>612.6666666666667</ele><time>2026-04-13T13:27:18.001Z</time></trkpt><trkpt lat="43.69925455730673" lon="11.884511064748306"><ele>612.3333333333334</ele><time>2026-04-13T13:27:19.001Z</time></trkpt><trkpt lat="43.6992595625745" lon="11.884379861207472"><ele>612.0</ele><time>2026-04-13T13:27:20.001Z</time></trkpt><trkpt lat="43.69922358819196" lon="11.884273084207651"><ele>611.6666666666666</ele><time>2026-04-13T13:27:21.001Z</time></trkpt><trkpt lat="43.69918550308093" lon="11.884173064869653"><ele>611.3333333333333</ele><time>2026-04-13T13:27:22.001Z</time></trkpt><trkpt lat="43.69916116592273" lon="11.884072564728333"><ele>611.0</ele><time>2026-04-13T13:27:23.001Z</time></trkpt><trkpt lat="43.69915366359995" lon="11.883959282709146"><ele>610.4</ele><time>2026-04-13T13:27:24.001Z</time></trkpt><trkpt lat="43.69916990113582" lon="11.883840132246483"><ele>609.8</ele><time>2026-04-13T13:27:25.001Z</time></trkpt><trkpt lat="43.699198324565025" lon="11.883716177990216"><ele>609.1999999999999</ele><time>2026-04-13T13:27:26.001Z</time></trkpt><trkpt lat="43.69923060949949" lon="11.88359145758189"><ele>608.6</ele><time>2026-04-13T13:27:27.001Z</time></trkpt><trkpt lat="43.69926551819405" lon="11.883465294859727"><ele>608.0</ele><time>2026-04-13T13:27:28.001Z</time></trkpt><trkpt lat="43.69929321755883" lon="11.883331437647023"><ele>607.4</ele><time>2026-04-13T13:27:29.001Z</time></trkpt><trkpt lat="43.69935503031918" lon="11.883219556888143"><ele>606.8</ele><time>2026-04-13T13:27:30.001Z</time></trkpt><trkpt lat="43.699449719458805" lon="11.88315273871487"><ele>606.2</ele><time>2026-04-13T13:27:31.001Z</time></trkpt><trkpt lat="43.699557516242194" lon="11.883135890246317"><ele>605.6</ele><time>2026-04-13T13:27:32.001Z</time></trkpt><trkpt lat="43.699661294381535" lon="11.883116375198664"><ele>605.0</ele><time>2026-04-13T13:27:33.001Z</time></trkpt><trkpt lat="43.69976045227885" lon="11.88307019230199"><ele>605.0</ele><time>2026-04-13T13:27:34.001Z</time></trkpt><trkpt lat="43.69985033372247" lon="11.882992880178316"><ele>605.0</ele><time>2026-04-13T13:27:35.001Z</time></trkpt><trkpt lat="43.6999357322329" lon="11.882905415097468"><ele>605.0</ele><time>2026-04-13T13:27:36.001Z</time></trkpt><trkpt lat="43.70002293721362" lon="11.882821769818246"><ele>605.0</ele><time>2026-04-13T13:27:37.001Z</time></trkpt><trkpt lat="43.700120838337206" lon="11.882766515213739"><ele>605.0</ele><time>2026-04-13T13:27:38.001Z</time></trkpt><trkpt lat="43.70022900850303" lon="11.882752879783466"><ele>604.2</ele><time>2026-04-13T13:27:39.001Z</time></trkpt><trkpt lat="43.70033528288539" lon="11.882758751463172"><ele>603.4</ele><time>2026-04-13T13:27:40.001Z</time></trkpt><trkpt lat="43.700440215868596" lon="11.882798692629384"><ele>602.6</ele><time>2026-04-13T13:27:41.001Z</time></trkpt><trkpt lat="43.70052980839476" lon="11.88287398354866"><ele>601.8</ele><time>2026-04-13T13:27:42.001Z</time></trkpt><trkpt lat="43.70061077647357" lon="11.882967123634431"><ele>601.0</ele><time>2026-04-13T13:27:43.001Z</time></trkpt><trkpt lat="43.70069943831228" lon="11.883026777391914"><ele>601.0</ele><time>2026-04-13T13:27:44.001Z</time></trkpt><trkpt lat="43.70079504164856" lon="11.883036027262422"><ele>601.0</ele><time>2026-04-13T13:27:45.001Z</time></trkpt><trkpt lat="43.70087981401265" lon="11.882975328611344"><ele>601.0</ele><time>2026-04-13T13:27:46.001Z</time></trkpt><trkpt lat="43.700939896635816" lon="11.882861611062992"><ele>601.0</ele><time>2026-04-13T13:27:47.001Z</time></trkpt><trkpt lat="43.70095523892038" lon="11.882725136234821"><ele>601.0</ele><time>2026-04-13T13:27:48.001Z</time></trkpt><trkpt lat="43.700974361364025" lon="11.882600747054013"><ele>599.2</ele><time>2026-04-13T13:27:49.001Z</time></trkpt><trkpt lat="43.70100243694624" lon="11.882478480893905"><ele>597.4000000000001</ele><time>2026-04-13T13:27:50.001Z</time></trkpt><trkpt lat="43.701072018042844" lon="11.882387114882347"><ele>595.6</ele><time>2026-04-13T13:27:51.001Z</time></trkpt><trkpt lat="43.70114036111133" lon="11.88229179952706"><ele>593.8000000000001</ele><time>2026-04-13T13:27:52.001Z</time></trkpt><trkpt lat="43.701223197481944" lon="11.882215475623942"><ele>592.0</ele><time>2026-04-13T13:27:53.001Z</time></trkpt><trkpt lat="43.70130857039869" lon="11.882138403209918"><ele>592.0</ele><time>2026-04-13T13:27:54.001Z</time></trkpt><trkpt lat="43.70141045764234" lon="11.882108803862408"><ele>592.0</ele><time>2026-04-13T13:27:55Z</time></trkpt><trkpt lat="43.70151578640211" lon="11.882111634490645"><ele>592.0</ele><time>2026-04-13T13:27:56Z</time></trkpt><trkpt lat="43.701617284795155" lon="11.882120272120098"><ele>592.0</ele><time>2026-04-13T13:27:57Z</time></trkpt><trkpt lat="43.70172172535539" lon="11.88212746464727"><ele>592.0</ele><time>2026-04-13T13:27:58Z</time></trkpt><trkpt lat="43.70182463195541" lon="11.882106536338267"><ele>591.8000000000001</ele><time>2026-04-13T13:27:59Z</time></trkpt><trkpt lat="43.70191666561613" lon="11.8820346847658"><ele>591.6</ele><time>2026-04-13T13:28:00Z</time></trkpt><trkpt lat="43.701980700896534" lon="11.881916260936862"><ele>591.4000000000001</ele><time>2026-04-13T13:28:01Z</time></trkpt><trkpt lat="43.702018308366554" lon="11.8817793317582"><ele>591.2</ele><time>2026-04-13T13:28:02Z</time></trkpt><trkpt lat="43.7020173142917" lon="11.881636854028816"><ele>591.0</ele><time>2026-04-13T13:28:03Z</time></trkpt><trkpt lat="43.70198273038937" lon="11.881503770123595"><ele>591.0</ele><time>2026-04-13T13:28:04Z</time></trkpt><trkpt lat="43.701945294976355" lon="11.881373079534892"><ele>591.0</ele><time>2026-04-13T13:28:05Z</time></trkpt><trkpt lat="43.70189729471367" lon="11.881246570666093"><ele>591.0</ele><time>2026-04-13T13:28:06Z</time></trkpt><trkpt lat="43.70184479268552" lon="11.881118905647346"><ele>591.0</ele><time>2026-04-13T13:28:07Z</time></trkpt><trkpt lat="43.701764946945175" lon="11.881017463116331"><ele>591.0</ele><time>2026-04-13T13:28:08Z</time></trkpt><trkpt lat="43.70168676953228" lon="11.880920716273275"><ele>588.0</ele><time>2026-04-13T13:28:09Z</time></trkpt><trkpt lat="43.70160311752629" lon="11.88082954033949"><ele>585.0</ele><time>2026-04-13T13:28:10Z</time></trkpt><trkpt lat="43.7015348249716" lon="11.880721055049763"><ele>582.0</ele><time>2026-04-13T13:28:11Z</time></trkpt><trkpt lat="43.701482082529395" lon="11.880592673478908"><ele>579.0</ele><time>2026-04-13T13:28:12Z</time></trkpt><trkpt lat="43.70144328247611" lon="11.880455036241504"><ele>576.0</ele><time>2026-04-13T13:28:13Z</time></trkpt><trkpt lat="43.7014074304211" lon="11.88030635702116"><ele>576.0</ele><time>2026-04-13T13:28:14Z</time></trkpt><trkpt lat="43.701372159792" lon="11.880143640608388"><ele>576.0</ele><time>2026-04-13T13:28:15Z</time></trkpt><trkpt lat="43.70133917889175" lon="11.87997676158383"><ele>576.0</ele><time>2026-04-13T13:28:16Z</time></trkpt><trkpt lat="43.70130498010167" lon="11.879800817001943"><ele>576.0</ele><time>2026-04-13T13:28:17Z</time></trkpt><trkpt lat="43.701265167762" lon="11.879628865305023"><ele>576.0</ele><time>2026-04-13T13:28:18Z</time></trkpt><trkpt lat="43.701227211886646" lon="11.879453277320168"><ele>576.0</ele><time>2026-04-13T13:28:19Z</time></trkpt><trkpt lat="43.70118924110604" lon="11.87927273882128"><ele>576.0</ele><time>2026-04-13T13:28:20Z</time></trkpt><trkpt lat="43.70115580807527" lon="11.879091666132089"><ele>576.0</ele><time>2026-04-13T13:28:21Z</time></trkpt><trkpt lat="43.701117130793044" lon="11.87891579107149"><ele>571.5</ele><time>2026-04-13T13:28:22Z</time></trkpt><trkpt lat="43.701064307833796" lon="11.878747141355065"><ele>567.0</ele><time>2026-04-13T13:28:23Z</time></trkpt><trkpt lat="43.70099306121735" lon="11.878593819343655"><ele>562.5</ele><time>2026-04-13T13:28:24Z</time></trkpt><trkpt lat="43.70091698021639" lon="11.87844319321843"><ele>558.0</ele><time>2026-04-13T13:28:25Z</time></trkpt><trkpt lat="43.70086979512501" lon="11.878285092274748"><ele>557.75</ele><time>2026-04-13T13:28:26Z</time></trkpt><trkpt lat="43.70085814057826" lon="11.878117763334068"><ele>557.5</ele><time>2026-04-13T13:28:27Z</time></trkpt><trkpt lat="43.70088194538703" lon="11.877954459258351"><ele>557.25</ele><time>2026-04-13T13:28:28Z</time></trkpt><trkpt lat="43.70092173052914" lon="11.877788515174075"><ele>557.0</ele><time>2026-04-13T13:28:29Z</time></trkpt><trkpt lat="43.70096529515447" lon="11.877620355265796"><ele>557.0</ele><time>2026-04-13T13:28:30Z</time></trkpt><trkpt lat="43.70100666612657" lon="11.87744711052186"><ele>557.0</ele><time>2026-04-13T13:28:31Z</time></trkpt><trkpt lat="43.70104831557884" lon="11.877271757714178"><ele>557.0</ele><time>2026-04-13T13:28:32Z</time></trkpt><trkpt lat="43.701095852370116" lon="11.877104181503375"><ele>557.0</ele><time>2026-04-13T13:28:33Z</time></trkpt><trkpt lat="43.701162281874325" lon="11.876946373947755"><ele>557.0</ele><time>2026-04-13T13:28:34Z</time></trkpt><trkpt lat="43.701258444572495" lon="11.876804749881812"><ele>557.0</ele><time>2026-04-13T13:28:35Z</time></trkpt><trkpt lat="43.70136061790726" lon="11.876681708028023"><ele>557.0</ele><time>2026-04-13T13:28:36Z</time></trkpt><trkpt lat="43.70146268698713" lon="11.876563736771175"><ele>557.0</ele><time>2026-04-13T13:28:37Z</time></trkpt><trkpt lat="43.701564718183995" lon="11.87648321493753"><ele>555.25</ele><time>2026-04-13T13:28:38Z</time></trkpt><trkpt lat="43.7016872607278" lon="11.87646758416666"><ele>553.5</ele><time>2026-04-13T13:28:39Z</time></trkpt><trkpt lat="43.70181548217465" lon="11.876505371190458"><ele>551.75</ele><time>2026-04-13T13:28:40Z</time></trkpt><trkpt lat="43.701950089644434" lon="11.876572002885455"><ele>550.0</ele><time>2026-04-13T13:28:41Z</time></trkpt><trkpt lat="43.702088856318056" lon="11.87663569674293"><ele>551.6666666666667</ele><time>2026-04-13T13:28:42Z</time></trkpt><trkpt lat="43.70223945279934" lon="11.876711628793203"><ele>553.3333333333334</ele><time>2026-04-13T13:28:43Z</time></trkpt><trkpt lat="43.70238772913697" lon="11.876780035446734"><ele>555.0</ele><time>2026-04-13T13:28:44Z</time></trkpt><trkpt lat="43.70253495537072" lon="11.87684600045008"><ele>555.0</ele><time>2026-04-13T13:28:45Z</time></trkpt><trkpt lat="43.70268421209183" lon="11.876910865773384"><ele>555.0</ele><time>2026-04-13T13:28:46Z</time></trkpt><trkpt lat="43.7028297006873" lon="11.876979418450286"><ele>555.0</ele><time>2026-04-13T13:28:47.001Z</time></trkpt><trkpt lat="43.70297242889622" lon="11.877043868556239"><ele>552.25</ele><time>2026-04-13T13:28:48.001Z</time></trkpt><trkpt lat="43.7031152151651" lon="11.877110577089704"><ele>549.5</ele><time>2026-04-13T13:28:49.001Z</time></trkpt><trkpt lat="43.703254064319914" lon="11.87718735022025"><ele>546.75</ele><time>2026-04-13T13:28:50.001Z</time></trkpt><trkpt lat="43.70338119533392" lon="11.877294764982755"><ele>544.0</ele><time>2026-04-13T13:28:51.001Z</time></trkpt><trkpt lat="43.703492886939415" lon="11.877418094368174"><ele>541.5</ele><time>2026-04-13T13:28:52.001Z</time></trkpt><trkpt lat="43.703612374350115" lon="11.87751521849765"><ele>539.0</ele><time>2026-04-13T13:28:53.001Z</time></trkpt><trkpt lat="43.703739339561984" lon="11.877556326346161"><ele>536.5</ele><time>2026-04-13T13:28:54.001Z</time></trkpt><trkpt lat="43.70387287488548" lon="11.877543454597483"><ele>534.0</ele><time>2026-04-13T13:28:55.001Z</time></trkpt><trkpt lat="43.70399991753845" lon="11.87749208045942"><ele>534.0</ele><time>2026-04-13T13:28:56.001Z</time></trkpt><trkpt lat="43.704136382167796" lon="11.877455460623473"><ele>534.0</ele><time>2026-04-13T13:28:57.001Z</time></trkpt><trkpt lat="43.70426239475401" lon="11.877428374551135"><ele>534.0</ele><time>2026-04-13T13:28:58.001Z</time></trkpt><trkpt lat="43.70438291735761" lon="11.877509395140873"><ele>534.0</ele><time>2026-04-13T13:28:59.001Z</time></trkpt><trkpt lat="43.70447890671432" lon="11.877644030350174"><ele>533.75</ele><time>2026-04-13T13:29:00.001Z</time></trkpt><trkpt lat="43.70458746622915" lon="11.877775637456889"><ele>533.5</ele><time>2026-04-13T13:29:01.001Z</time></trkpt><trkpt lat="43.70469127938761" lon="11.877907317872232"><ele>533.25</ele><time>2026-04-13T13:29:02.001Z</time></trkpt><trkpt lat="43.70479497723235" lon="11.878035781184957"><ele>533.0</ele><time>2026-04-13T13:29:03.001Z</time></trkpt><trkpt lat="43.70489742502136" lon="11.87816163018706"><ele>533.0</ele><time>2026-04-13T13:29:04.001Z</time></trkpt><trkpt lat="43.70499611288815" lon="11.878279354758861"><ele>533.0</ele><time>2026-04-13T13:29:05.001Z</time></trkpt><trkpt lat="43.705091124503326" lon="11.878391614409269"><ele>533.0</ele><time>2026-04-13T13:29:06.001Z</time></trkpt><trkpt lat="43.70519185117564" lon="11.878505197241399"><ele>533.0</ele><time>2026-04-13T13:29:07.001Z</time></trkpt><trkpt lat="43.705310594869694" lon="11.878564467147648"><ele>533.8</ele><time>2026-04-13T13:29:08.001Z</time></trkpt><trkpt lat="43.7054447704211" lon="11.878548685969367"><ele>534.5999999999999</ele><time>2026-04-13T13:29:09.001Z</time></trkpt><trkpt lat="43.70555024561218" lon="11.878529067190376"><ele>535.4000000000001</ele><time>2026-04-13T13:29:10.001Z</time></trkpt><trkpt lat="43.705664734467604" lon="11.878523849625418"><ele>536.2</ele><time>2026-04-13T13:29:11.001Z</time></trkpt><trkpt lat="43.705742218728595" lon="11.878595664738276"><ele>537.0</ele><time>2026-04-13T13:29:12.001Z</time></trkpt><trkpt lat="43.705828167567404" lon="11.878695226024517"><ele>537.0</ele><time>2026-04-13T13:29:13.001Z</time></trkpt><trkpt lat="43.70591883857668" lon="11.878799153368982"><ele>537.0</ele><time>2026-04-13T13:29:14.001Z</time></trkpt><trkpt lat="43.70600475989752" lon="11.878895815200186"><ele>537.0</ele><time>2026-04-13T13:29:15.001Z</time></trkpt><trkpt lat="43.70610376557811" lon="11.878962232690126"><ele>537.0</ele><time>2026-04-13T13:29:16.001Z</time></trkpt><trkpt lat="43.70622493479915" lon="11.878968379460987"><ele>533.75</ele><time>2026-04-13T13:29:17.001Z</time></trkpt><trkpt lat="43.70633286624347" lon="11.878834555064993"><ele>530.5</ele><time>2026-04-13T13:29:18.001Z</time></trkpt><trkpt lat="43.70643037168556" lon="11.87872230717812"><ele>527.25</ele><time>2026-04-13T13:29:19.001Z</time></trkpt><trkpt lat="43.70653066042802" lon="11.878610645587328"><ele>524.0</ele><time>2026-04-13T13:29:20.001Z</time></trkpt><trkpt lat="43.70661295098223" lon="11.878509160127766"><ele>523.5</ele><time>2026-04-13T13:29:21.001Z</time></trkpt><trkpt lat="43.7066704814751" lon="11.878367804006654"><ele>523.0</ele><time>2026-04-13T13:29:22.001Z</time></trkpt><trkpt lat="43.70669661422815" lon="11.878184980290056"><ele>522.5</ele><time>2026-04-13T13:29:23.001Z</time></trkpt><trkpt lat="43.70670101369179" lon="11.877983365873908"><ele>522.0</ele><time>2026-04-13T13:29:24.001Z</time></trkpt><trkpt lat="43.70668711491262" lon="11.87779195070422"><ele>522.0</ele><time>2026-04-13T13:29:25.001Z</time></trkpt><trkpt lat="43.706668954056305" lon="11.877626490442884"><ele>522.0</ele><time>2026-04-13T13:29:26.001Z</time></trkpt><trkpt lat="43.706687139060904" lon="11.87745224525056"><ele>522.0</ele><time>2026-04-13T13:29:27.001Z</time></trkpt><trkpt lat="43.70671080669459" lon="11.877280859655412"><ele>522.0</ele><time>2026-04-13T13:29:28.001Z</time></trkpt><trkpt lat="43.70675560141038" lon="11.877116041921344"><ele>521.0</ele><time>2026-04-13T13:29:29.001Z</time></trkpt><trkpt lat="43.70678542708865" lon="11.876944109928825"><ele>520.0</ele><time>2026-04-13T13:29:30.001Z</time></trkpt><trkpt lat="43.706829840755496" lon="11.876778322108725"><ele>519.0</ele><time>2026-04-13T13:29:31.001Z</time></trkpt><trkpt lat="43.70686002371373" lon="11.87661149942042"><ele>518.0</ele><time>2026-04-13T13:29:32.001Z</time></trkpt><trkpt lat="43.70685900748832" lon="11.87644129366876"><ele>516.5</ele><time>2026-04-13T13:29:33.001Z</time></trkpt><trkpt lat="43.70681854929997" lon="11.876277743478154"><ele>515.0</ele><time>2026-04-13T13:29:34.001Z</time></trkpt><trkpt lat="43.70676809429412" lon="11.87611597275192"><ele>513.5</ele><time>2026-04-13T13:29:35.001Z</time></trkpt><trkpt lat="43.70674215132272" lon="11.875947734833998"><ele>512.0</ele><time>2026-04-13T13:29:36.001Z</time></trkpt><trkpt lat="43.706753925418" lon="11.875779182361319"><ele>511.0</ele><time>2026-04-13T13:29:37.001Z</time></trkpt><trkpt lat="43.70679535918604" lon="11.875610864461756"><ele>510.0</ele><time>2026-04-13T13:29:38.001Z</time></trkpt><trkpt lat="43.70685306958357" lon="11.875450439883066"><ele>509.0</ele><time>2026-04-13T13:29:39.001Z</time></trkpt><trkpt lat="43.706930690892456" lon="11.875307872674426"><ele>508.0</ele><time>2026-04-13T13:29:40Z</time></trkpt><trkpt lat="43.70700144759931" lon="11.875151144718302"><ele>508.5</ele><time>2026-04-13T13:29:41Z</time></trkpt><trkpt lat="43.70710235758139" lon="11.875021534859295"><ele>509.0</ele><time>2026-04-13T13:29:42Z</time></trkpt><trkpt lat="43.70720243096999" lon="11.874895885895034"><ele>509.5</ele><time>2026-04-13T13:29:43Z</time></trkpt><trkpt lat="43.70732130202198" lon="11.87481460558152"><ele>510.0</ele><time>2026-04-13T13:29:44Z</time></trkpt><trkpt lat="43.70743919443198" lon="11.874754828213673"><ele>510.0</ele><time>2026-04-13T13:29:45Z</time></trkpt><trkpt lat="43.707557790825746" lon="11.874698716509753"><ele>510.0</ele><time>2026-04-13T13:29:46Z</time></trkpt><trkpt lat="43.707673001905945" lon="11.874666363021245"><ele>510.0</ele><time>2026-04-13T13:29:47Z</time></trkpt><trkpt lat="43.707775578141096" lon="11.874591815786825"><ele>510.0</ele><time>2026-04-13T13:29:48Z</time></trkpt><trkpt lat="43.70786094089739" lon="11.874467947996976"><ele>508.5</ele><time>2026-04-13T13:29:49Z</time></trkpt><trkpt lat="43.70791654694411" lon="11.874300660361476"><ele>507.0</ele><time>2026-04-13T13:29:50Z</time></trkpt><trkpt lat="43.70795170603333" lon="11.874143878281139"><ele>505.5</ele><time>2026-04-13T13:29:51Z</time></trkpt><trkpt lat="43.70799019067315" lon="11.873991037305627"><ele>504.0</ele><time>2026-04-13T13:29:52Z</time></trkpt><trkpt lat="43.7080342958949" lon="11.873842248702067"><ele>504.0</ele><time>2026-04-13T13:29:53Z</time></trkpt><trkpt lat="43.708099842061195" lon="11.873702024127237"><ele>504.0</ele><time>2026-04-13T13:29:54Z</time></trkpt><trkpt lat="43.70821183362607" lon="11.873617753499172"><ele>504.0</ele><time>2026-04-13T13:29:55Z</time></trkpt><trkpt lat="43.70833131232601" lon="11.87354089731324"><ele>504.0</ele><time>2026-04-13T13:29:56Z</time></trkpt><trkpt lat="43.708470411281354" lon="11.873509063436519"><ele>505.75</ele><time>2026-04-13T13:29:57Z</time></trkpt><trkpt lat="43.70861122123306" lon="11.87347260655739"><ele>507.5</ele><time>2026-04-13T13:29:58Z</time></trkpt><trkpt lat="43.708744837723835" lon="11.87341862512408"><ele>509.25</ele><time>2026-04-13T13:29:59Z</time></trkpt><trkpt lat="43.70886116723227" lon="11.873325580511853"><ele>511.0</ele><time>2026-04-13T13:30:00Z</time></trkpt><trkpt lat="43.70893939863305" lon="11.873176232249781"><ele>507.5</ele><time>2026-04-13T13:30:01Z</time></trkpt><trkpt lat="43.70899076007754" lon="11.873006143372278"><ele>504.0</ele><time>2026-04-13T13:30:02Z</time></trkpt><trkpt lat="43.70906677782003" lon="11.872861762479454"><ele>500.5</ele><time>2026-04-13T13:30:03Z</time></trkpt><trkpt lat="43.7091787472856" lon="11.872774656658098"><ele>497.0</ele><time>2026-04-13T13:30:04Z</time></trkpt><trkpt lat="43.7092959640721" lon="11.872709610975848"><ele>497.75</ele><time>2026-04-13T13:30:05Z</time></trkpt><trkpt lat="43.70941774569874" lon="11.872697371923739"><ele>498.5</ele><time>2026-04-13T13:30:06Z</time></trkpt><trkpt lat="43.70954420684021" lon="11.872677967493273"><ele>499.25</ele><time>2026-04-13T13:30:07Z</time></trkpt><trkpt lat="43.709676278358465" lon="11.872671939095373"><ele>500.0</ele><time>2026-04-13T13:30:08Z</time></trkpt><trkpt lat="43.70981407390688" lon="11.87260821801081"><ele>498.25</ele><time>2026-04-13T13:30:09Z</time></trkpt><trkpt lat="43.709952512849966" lon="11.872521785473058"><ele>496.5</ele><time>2026-04-13T13:30:10Z</time></trkpt><trkpt lat="43.710081012978044" lon="11.872436779660722"><ele>494.75</ele><time>2026-04-13T13:30:11Z</time></trkpt><trkpt lat="43.710204959303354" lon="11.872359869632966"><ele>493.0</ele><time>2026-04-13T13:30:12Z</time></trkpt><trkpt lat="43.710311123535654" lon="11.87225548425267"><ele>493.0</ele><time>2026-04-13T13:30:13Z</time></trkpt><trkpt lat="43.710382390690285" lon="11.872100290627964"><ele>493.0</ele><time>2026-04-13T13:30:14Z</time></trkpt><trkpt lat="43.710443654321885" lon="11.871927856480001"><ele>493.0</ele><time>2026-04-13T13:30:15Z</time></trkpt><trkpt lat="43.71054912214363" lon="11.871803054869297"><ele>493.0</ele><time>2026-04-13T13:30:16Z</time></trkpt><trkpt lat="43.71066124692924" lon="11.871683972468686"><ele>488.75</ele><time>2026-04-13T13:30:17Z</time></trkpt><trkpt lat="43.71077977415074" lon="11.871573141500534"><ele>484.5</ele><time>2026-04-13T13:30:18Z</time></trkpt><trkpt lat="43.7109000734289" lon="11.871475725515594"><ele>480.25</ele><time>2026-04-13T13:30:19Z</time></trkpt><trkpt lat="43.71101999772723" lon="11.87140934757971"><ele>476.0</ele><time>2026-04-13T13:30:20Z</time></trkpt><trkpt lat="43.71113962560317" lon="11.871381996963443"><ele>474.75</ele><time>2026-04-13T13:30:21Z</time></trkpt><trkpt lat="43.71125464563141" lon="11.871388252943628"><ele>473.5</ele><time>2026-04-13T13:30:22Z</time></trkpt><trkpt lat="43.71135122352062" lon="11.871495787987694"><ele>472.25</ele><time>2026-04-13T13:30:23Z</time></trkpt><trkpt lat="43.71139550346291" lon="11.871649554336662"><ele>471.0</ele><time>2026-04-13T13:30:24Z</time></trkpt><trkpt lat="43.71136638172819" lon="11.871809387096379"><ele>471.0</ele><time>2026-04-13T13:30:25Z</time></trkpt><trkpt lat="43.71134867675057" lon="11.871974169314216"><ele>471.0</ele><time>2026-04-13T13:30:26Z</time></trkpt><trkpt lat="43.7113204836044" lon="11.872125124892486"><ele>471.0</ele><time>2026-04-13T13:30:27Z</time></trkpt><trkpt lat="43.71132947646186" lon="11.872276061975306"><ele>471.0</ele><time>2026-04-13T13:30:28Z</time></trkpt><trkpt lat="43.71138320887798" lon="11.872415336367903"><ele>471.0</ele><time>2026-04-13T13:30:29Z</time></trkpt><trkpt lat="43.711458102239135" lon="11.872529772502444"><ele>471.0</ele><time>2026-04-13T13:30:30Z</time></trkpt><trkpt lat="43.711587330332875" lon="11.872540773778429"><ele>471.0</ele><time>2026-04-13T13:30:31Z</time></trkpt><trkpt lat="43.71170947589975" lon="11.872494829351492"><ele>471.0</ele><time>2026-04-13T13:30:32Z</time></trkpt><trkpt lat="43.7118379440053" lon="11.872446729050674"><ele>467.75</ele><time>2026-04-13T13:30:33Z</time></trkpt><trkpt lat="43.71197145498562" lon="11.872447600206899"><ele>464.5</ele><time>2026-04-13T13:30:34Z</time></trkpt><trkpt lat="43.7121142228561" lon="11.872481310351262"><ele>461.25</ele><time>2026-04-13T13:30:35Z</time></trkpt><trkpt lat="43.71226304592057" lon="11.872524498064086"><ele>458.0</ele><time>2026-04-13T13:30:36Z</time></trkpt><trkpt lat="43.71241841283034" lon="11.872569005447387"><ele>458.0</ele><time>2026-04-13T13:30:37Z</time></trkpt><trkpt lat="43.712566155756036" lon="11.87260003888379"><ele>458.0</ele><time>2026-04-13T13:30:38Z</time></trkpt><trkpt lat="43.7127166073762" lon="11.872650333922126"><ele>458.0</ele><time>2026-04-13T13:30:39Z</time></trkpt><trkpt lat="43.7128687651413" lon="11.872719324858677"><ele>459.0</ele><time>2026-04-13T13:30:40Z</time></trkpt><trkpt lat="43.71301322990672" lon="11.872807062139023"><ele>460.0</ele><time>2026-04-13T13:30:41Z</time></trkpt><trkpt lat="43.71316232899767" lon="11.872885038709141"><ele>461.0</ele><time>2026-04-13T13:30:42Z</time></trkpt><trkpt lat="43.71331776268368" lon="11.872944700995955"><ele>461.0</ele><time>2026-04-13T13:30:43Z</time></trkpt><trkpt lat="43.71347460994579" lon="11.87299011413467"><ele>461.0</ele><time>2026-04-13T13:30:44Z</time></trkpt><trkpt lat="43.71361996259779" lon="11.873054589463193"><ele>461.0</ele><time>2026-04-13T13:30:45Z</time></trkpt><trkpt lat="43.713749658745456" lon="11.873164172853032"><ele>458.3333333333333</ele><time>2026-04-13T13:30:46Z</time></trkpt><trkpt lat="43.71387099417556" lon="11.873301020179786"><ele>455.66666666666663</ele><time>2026-04-13T13:30:47Z</time></trkpt><trkpt lat="43.71399731425098" lon="11.87340088923768"><ele>453.0</ele><time>2026-04-13T13:30:48Z</time></trkpt><trkpt lat="43.71415109205553" lon="11.873426864467568"><ele>453.0</ele><time>2026-04-13T13:30:49Z</time></trkpt><trkpt lat="43.714298512273565" lon="11.8734006701771"><ele>453.0</ele><time>2026-04-13T13:30:50Z</time></trkpt><trkpt lat="43.714435750607045" lon="11.873415235750842"><ele>453.0</ele><time>2026-04-13T13:30:51Z</time></trkpt><trkpt lat="43.71454723351284" lon="11.87348049558018"><ele>453.0</ele><time>2026-04-13T13:30:52Z</time></trkpt><trkpt lat="43.71465214334556" lon="11.873600879759277"><ele>451.0</ele><time>2026-04-13T13:30:53Z</time></trkpt><trkpt lat="43.71475394081203" lon="11.873735856498422"><ele>449.0</ele><time>2026-04-13T13:30:54Z</time></trkpt><trkpt lat="43.71486063182708" lon="11.87386697715016"><ele>447.0</ele><time>2026-04-13T13:30:55Z</time></trkpt><trkpt lat="43.714934031035966" lon="11.87401921751718"><ele>445.0</ele><time>2026-04-13T13:30:56Z</time></trkpt><trkpt lat="43.714971876734474" lon="11.874210870542226"><ele>447.0</ele><time>2026-04-13T13:30:57Z</time></trkpt><trkpt lat="43.715000277969" lon="11.874410867291273"><ele>449.0</ele><time>2026-04-13T13:30:58Z</time></trkpt><trkpt lat="43.71505799819969" lon="11.874610756020672"><ele>451.0</ele><time>2026-04-13T13:30:59Z</time></trkpt><trkpt lat="43.715128741449924" lon="11.87480069928503"><ele>451.0</ele><time>2026-04-13T13:31:00Z</time></trkpt><trkpt lat="43.71519168779493" lon="11.874983656977154"><ele>451.0</ele><time>2026-04-13T13:31:01Z</time></trkpt><trkpt lat="43.7152520022207" lon="11.875165426916036"><ele>451.0</ele><time>2026-04-13T13:31:02Z</time></trkpt><trkpt lat="43.71530831460201" lon="11.87534666766771"><ele>451.0</ele><time>2026-04-13T13:31:03Z</time></trkpt><trkpt lat="43.71532887328465" lon="11.875542167535752"><ele>449.75</ele><time>2026-04-13T13:31:04Z</time></trkpt><trkpt lat="43.71529580315788" lon="11.875732053796336"><ele>448.5</ele><time>2026-04-13T13:31:05Z</time></trkpt><trkpt lat="43.71522763780925" lon="11.875907063399593"><ele>447.25</ele><time>2026-04-13T13:31:06Z</time></trkpt><trkpt lat="43.71515893073583" lon="11.876078999830716"><ele>446.0</ele><time>2026-04-13T13:31:07Z</time></trkpt><trkpt lat="43.71509222470701" lon="11.876244459487273"><ele>445.25</ele><time>2026-04-13T13:31:08Z</time></trkpt><trkpt lat="43.715030050540875" lon="11.876405158211785"><ele>444.5</ele><time>2026-04-13T13:31:09Z</time></trkpt><trkpt lat="43.7149853815015" lon="11.876557237920489"><ele>443.75</ele><time>2026-04-13T13:31:10Z</time></trkpt><trkpt lat="43.71497026471815" lon="11.876691697514268"><ele>443.0</ele><time>2026-04-13T13:31:11Z</time></trkpt><trkpt lat="43.71502119122171" lon="11.876822286478644"><ele>443.0</ele><time>2026-04-13T13:31:12Z</time></trkpt><trkpt lat="43.715121113690095" lon="11.876910356867153"><ele>443.0</ele><time>2026-04-13T13:31:13Z</time></trkpt><trkpt lat="43.71522802731301" lon="11.876948776827046"><ele>443.0</ele><time>2026-04-13T13:31:14Z</time></trkpt><trkpt lat="43.71533278678163" lon="11.876947648509143"><ele>443.0</ele><time>2026-04-13T13:31:15Z</time></trkpt><trkpt lat="43.715411473995076" lon="11.876827492107715"><ele>441.25</ele><time>2026-04-13T13:31:16Z</time></trkpt><trkpt lat="43.715429036949565" lon="11.8766447417307"><ele>439.5</ele><time>2026-04-13T13:31:17Z</time></trkpt><trkpt lat="43.71550722448787" lon="11.876508739937632"><ele>437.75</ele><time>2026-04-13T13:31:18Z</time></trkpt><trkpt lat="43.71561013862507" lon="11.876404103330348"><ele>436.0</ele><time>2026-04-13T13:31:19Z</time></trkpt><trkpt lat="43.7157306506401" lon="11.876303301482448"><ele>436.0</ele><time>2026-04-13T13:31:20Z</time></trkpt><trkpt lat="43.715843277678026" lon="11.87615245537833"><ele>436.0</ele><time>2026-04-13T13:31:21Z</time></trkpt><trkpt lat="43.7159368166797" lon="11.875992323885681"><ele>436.0</ele><time>2026-04-13T13:31:22Z</time></trkpt><trkpt lat="43.71601201068733" lon="11.875828119209544"><ele>436.0</ele><time>2026-04-13T13:31:23Z</time></trkpt><trkpt lat="43.71605526884233" lon="11.875645972706574"><ele>433.0</ele><time>2026-04-13T13:31:24Z</time></trkpt><trkpt lat="43.71605982608456" lon="11.875440385640681"><ele>430.0</ele><time>2026-04-13T13:31:25Z</time></trkpt><trkpt lat="43.71604263735124" lon="11.87523262491805"><ele>427.0</ele><time>2026-04-13T13:31:26Z</time></trkpt><trkpt lat="43.71601225988818" lon="11.875038185792155"><ele>424.0</ele><time>2026-04-13T13:31:27Z</time></trkpt><trkpt lat="43.715968073882955" lon="11.874850763784599"><ele>423.0</ele><time>2026-04-13T13:31:28Z</time></trkpt><trkpt lat="43.7159388228986" lon="11.874664984117217"><ele>422.0</ele><time>2026-04-13T13:31:29Z</time></trkpt><trkpt lat="43.71588572461212" lon="11.874498414528043"><ele>421.0</ele><time>2026-04-13T13:31:30Z</time></trkpt><trkpt lat="43.71587976088681" lon="11.874324484298869"><ele>420.0</ele><time>2026-04-13T13:31:31Z</time></trkpt><trkpt lat="43.71590885082344" lon="11.874160739822024"><ele>420.25</ele><time>2026-04-13T13:31:32Z</time></trkpt><trkpt lat="43.71596472524314" lon="11.874013245962814"><ele>420.5</ele><time>2026-04-13T13:31:33Z</time></trkpt><trkpt lat="43.7160705535694" lon="11.873916747820127"><ele>420.75</ele><time>2026-04-13T13:31:34Z</time></trkpt><trkpt lat="43.71618282904871" lon="11.87382047280085"><ele>421.0</ele><time>2026-04-13T13:31:35Z</time></trkpt><trkpt lat="43.716306461023635" lon="11.873734419328542"><ele>421.0</ele><time>2026-04-13T13:31:36Z</time></trkpt><trkpt lat="43.716442313467574" lon="11.873653863406043"><ele>421.0</ele><time>2026-04-13T13:31:37Z</time></trkpt><trkpt lat="43.71656507577583" lon="11.873583669328527"><ele>421.0</ele><time>2026-04-13T13:31:38Z</time></trkpt><trkpt lat="43.716687864134556" lon="11.873535528025217"><ele>421.0</ele><time>2026-04-13T13:31:39Z</time></trkpt><trkpt lat="43.71680144300279" lon="11.873470907456642"><ele>417.25</ele><time>2026-04-13T13:31:40Z</time></trkpt><trkpt lat="43.7168906578555" lon="11.873362487468986"><ele>413.5</ele><time>2026-04-13T13:31:41Z</time></trkpt><trkpt lat="43.716978856931796" lon="11.873233263817792"><ele>409.75</ele><time>2026-04-13T13:31:42Z</time></trkpt><trkpt lat="43.717021759175225" lon="11.873065144483173"><ele>406.0</ele><time>2026-04-13T13:31:43Z</time></trkpt><trkpt lat="43.717012358047576" lon="11.872889128324124"><ele>406.0</ele><time>2026-04-13T13:31:44Z</time></trkpt><trkpt lat="43.71698957193959" lon="11.872713893745013"><ele>406.0</ele><time>2026-04-13T13:31:45Z</time></trkpt><trkpt lat="43.71697626557639" lon="11.872531202556322"><ele>406.0</ele><time>2026-04-13T13:31:45.999Z</time></trkpt><trkpt lat="43.716946207696985" lon="11.872351179598533"><ele>406.0</ele><time>2026-04-13T13:31:46.999Z</time></trkpt><trkpt lat="43.71691345245502" lon="11.872167733359312"><ele>406.25</ele><time>2026-04-13T13:31:47.999Z</time></trkpt><trkpt lat="43.71686059377188" lon="11.871983462306055"><ele>406.5</ele><time>2026-04-13T13:31:48.999Z</time></trkpt><trkpt lat="43.716822128063264" lon="11.871786820126294"><ele>406.75</ele><time>2026-04-13T13:31:49.999Z</time></trkpt><trkpt lat="43.71679457309894" lon="11.871596448023451"><ele>407.0</ele><time>2026-04-13T13:31:51Z</time></trkpt><trkpt lat="43.71679388360938" lon="11.871412180762382"><ele>407.0</ele><time>2026-04-13T13:31:52Z</time></trkpt><trkpt lat="43.71682182555097" lon="11.871246628829827"><ele>407.0</ele><time>2026-04-13T13:31:53Z</time></trkpt><trkpt lat="43.716834076888404" lon="11.871098058334178"><ele>407.0</ele><time>2026-04-13T13:31:54Z</time></trkpt><trkpt lat="43.716816442650476" lon="11.870947532041301"><ele>407.0</ele><time>2026-04-13T13:31:55Z</time></trkpt><trkpt lat="43.716718242249094" lon="11.870838969605327"><ele>409.0</ele><time>2026-04-13T13:31:56Z</time></trkpt><trkpt lat="43.71661833071879" lon="11.870720930775596"><ele>411.0</ele><time>2026-04-13T13:31:57Z</time></trkpt><trkpt lat="43.71652291470548" lon="11.870572254836025"><ele>413.0</ele><time>2026-04-13T13:31:58Z</time></trkpt><trkpt lat="43.71644126360642" lon="11.870393719000969"><ele>415.0</ele><time>2026-04-13T13:31:59Z</time></trkpt><trkpt lat="43.7163876091013" lon="11.870179088890042"><ele>419.75</ele><time>2026-04-13T13:32:00Z</time></trkpt><trkpt lat="43.716325266163516" lon="11.869970783329721"><ele>424.5</ele><time>2026-04-13T13:32:01Z</time></trkpt><trkpt lat="43.71627053575512" lon="11.869794960351433"><ele>429.25</ele><time>2026-04-13T13:32:02Z</time></trkpt><trkpt lat="43.716223060103154" lon="11.869630194348671"><ele>434.0</ele><time>2026-04-13T13:32:03Z</time></trkpt><trkpt lat="43.71619816975903" lon="11.869468341930544"><ele>434.0</ele><time>2026-04-13T13:32:04Z</time></trkpt><trkpt lat="43.71620070104611" lon="11.86929116512351"><ele>434.0</ele><time>2026-04-13T13:32:05Z</time></trkpt><trkpt lat="43.71624514413246" lon="11.869112498846865"><ele>434.0</ele><time>2026-04-13T13:32:06Z</time></trkpt><trkpt lat="43.7162792102199" lon="11.86893945603783"><ele>434.0</ele><time>2026-04-13T13:32:07Z</time></trkpt><trkpt lat="43.71626800418623" lon="11.86876244547626"><ele>436.25</ele><time>2026-04-13T13:32:08Z</time></trkpt><trkpt lat="43.71621426842428" lon="11.868602605988205"><ele>438.5</ele><time>2026-04-13T13:32:09Z</time></trkpt><trkpt lat="43.71613207588715" lon="11.868469069212273"><ele>440.75</ele><time>2026-04-13T13:32:10Z</time></trkpt><trkpt lat="43.71606426217414" lon="11.868346933166332"><ele>443.0</ele><time>2026-04-13T13:32:11Z</time></trkpt><trkpt lat="43.715999207754926" lon="11.868238612984792"><ele>444.75</ele><time>2026-04-13T13:32:12Z</time></trkpt><trkpt lat="43.71600806219904" lon="11.8680894979489"><ele>446.5</ele><time>2026-04-13T13:32:13Z</time></trkpt><trkpt lat="43.71606359396525" lon="11.867941546932885"><ele>448.25</ele><time>2026-04-13T13:32:14Z</time></trkpt><trkpt lat="43.716129862222765" lon="11.867791941823002"><ele>450.0</ele><time>2026-04-13T13:32:15Z</time></trkpt><trkpt lat="43.71618241160515" lon="11.867620784901598"><ele>449.4</ele><time>2026-04-13T13:32:16Z</time></trkpt><trkpt lat="43.71621629491919" lon="11.867455924085219"><ele>448.8</ele><time>2026-04-13T13:32:17Z</time></trkpt><trkpt lat="43.71626074629974" lon="11.867315380084637"><ele>448.20000000000005</ele><time>2026-04-13T13:32:18Z</time></trkpt><trkpt lat="43.71633972010991" lon="11.86722021420244"><ele>447.6</ele><time>2026-04-13T13:32:19Z</time></trkpt><trkpt lat="43.71641906055154" lon="11.867177657128599"><ele>447.0</ele><time>2026-04-13T13:32:20Z</time></trkpt><trkpt lat="43.71649742913623" lon="11.867147080148488"><ele>447.0</ele><time>2026-04-13T13:32:21Z</time></trkpt><trkpt lat="43.71657883699532" lon="11.867083105399374"><ele>447.00000000000006</ele><time>2026-04-13T13:32:22Z</time></trkpt><trkpt lat="43.71667000934944" lon="11.867025777885358"><ele>447.00000000000006</ele><time>2026-04-13T13:32:23Z</time></trkpt><trkpt lat="43.71675095060861" lon="11.866974684280859"><ele>447.0</ele><time>2026-04-13T13:32:24Z</time></trkpt><trkpt lat="43.71682300202284" lon="11.866929202327736"><ele>447.0</ele><time>2026-04-13T13:32:25Z</time></trkpt><trkpt lat="43.71677843880763" lon="11.866619225862081"><ele>444.8</ele><time>2026-04-13T13:32:26Z</time></trkpt><trkpt lat="43.71674286692328" lon="11.86647829363637"><ele>442.6</ele><time>2026-04-13T13:32:27Z</time></trkpt><trkpt lat="43.71668200099582" lon="11.866356730195076"><ele>440.40000000000003</ele><time>2026-04-13T13:32:28Z</time></trkpt><trkpt lat="43.71659712493362" lon="11.86627312329273"><ele>438.20000000000005</ele><time>2026-04-13T13:32:29Z</time></trkpt><trkpt lat="43.71648696529818" lon="11.86622422966905"><ele>436.0</ele><time>2026-04-13T13:32:30Z</time></trkpt><trkpt lat="43.71635976597222" lon="11.86620605690613"><ele>436.0</ele><time>2026-04-13T13:32:31Z</time></trkpt><trkpt lat="43.716220227452524" lon="11.866204200883955"><ele>436.0</ele><time>2026-04-13T13:32:32Z</time></trkpt><trkpt lat="43.716076280175834" lon="11.866199035535566"><ele>436.0</ele><time>2026-04-13T13:32:33Z</time></trkpt><trkpt lat="43.71593796859077" lon="11.866191454498678"><ele>436.0</ele><time>2026-04-13T13:32:34Z</time></trkpt><trkpt lat="43.715809176039286" lon="11.8661902697318"><ele>433.5</ele><time>2026-04-13T13:32:35Z</time></trkpt><trkpt lat="43.71568861093666" lon="11.866198433123685"><ele>431.0</ele><time>2026-04-13T13:32:36Z</time></trkpt><trkpt lat="43.71557245992448" lon="11.866202674737247"><ele>428.5</ele><time>2026-04-13T13:32:37Z</time></trkpt><trkpt lat="43.715455579550614" lon="11.866169068941963"><ele>426.0</ele><time>2026-04-13T13:32:38Z</time></trkpt><trkpt lat="43.715341347038425" lon="11.866077164795488"><ele>427.0</ele><time>2026-04-13T13:32:39Z</time></trkpt><trkpt lat="43.715238703729774" lon="11.865940552449649"><ele>428.0</ele><time>2026-04-13T13:32:40Z</time></trkpt><trkpt lat="43.71515016170763" lon="11.865777333699489"><ele>429.0</ele><time>2026-04-13T13:32:41Z</time></trkpt><trkpt lat="43.71507335514864" lon="11.865609470131194"><ele>430.0</ele><time>2026-04-13T13:32:42Z</time></trkpt><trkpt lat="43.715008159454825" lon="11.86543808092013"><ele>430.0</ele><time>2026-04-13T13:32:43Z</time></trkpt><trkpt lat="43.71495910023661" lon="11.865262273118393"><ele>430.0</ele><time>2026-04-13T13:32:44Z</time></trkpt><trkpt lat="43.71493149632514" lon="11.865086470672653"><ele>430.0</ele><time>2026-04-13T13:32:45Z</time></trkpt><trkpt lat="43.714920203697744" lon="11.864908360617601"><ele>430.0</ele><time>2026-04-13T13:32:46Z</time></trkpt><trkpt lat="43.714938797576565" lon="11.864713396143957"><ele>431.75</ele><time>2026-04-13T13:32:47Z</time></trkpt><trkpt lat="43.714974617961154" lon="11.864519893229817"><ele>433.5</ele><time>2026-04-13T13:32:48Z</time></trkpt><trkpt lat="43.71500380220695" lon="11.86433062721832"><ele>435.25</ele><time>2026-04-13T13:32:49Z</time></trkpt><trkpt lat="43.71499495112399" lon="11.864126644897796"><ele>437.0</ele><time>2026-04-13T13:32:50Z</time></trkpt><trkpt lat="43.714974181345596" lon="11.86391507201369"><ele>437.25</ele><time>2026-04-13T13:32:51Z</time></trkpt><trkpt lat="43.71495847487752" lon="11.86372779834817"><ele>437.5</ele><time>2026-04-13T13:32:52Z</time></trkpt><trkpt lat="43.714936470615214" lon="11.863556874848523"><ele>437.75</ele><time>2026-04-13T13:32:53Z</time></trkpt><trkpt lat="43.71486988358629" lon="11.863414564632302"><ele>438.0</ele><time>2026-04-13T13:32:54Z</time></trkpt><trkpt lat="43.71476410777357" lon="11.863309368575294"><ele>438.25</ele><time>2026-04-13T13:32:55Z</time></trkpt><trkpt lat="43.71463720231703" lon="11.863222012079948"><ele>438.5</ele><time>2026-04-13T13:32:56Z</time></trkpt><trkpt lat="43.714502356703335" lon="11.863125096612258"><ele>438.75</ele><time>2026-04-13T13:32:57Z</time></trkpt><trkpt lat="43.71436704453094" lon="11.8630252572497"><ele>439.0</ele><time>2026-04-13T13:32:58Z</time></trkpt><trkpt lat="43.71424531014638" lon="11.862932498265216"><ele>439.0</ele><time>2026-04-13T13:32:59Z</time></trkpt><trkpt lat="43.71413053035598" lon="11.86283694442912"><ele>439.0</ele><time>2026-04-13T13:33:00Z</time></trkpt><trkpt lat="43.7140297300279" lon="11.8627103159645"><ele>439.0</ele><time>2026-04-13T13:33:01Z</time></trkpt><trkpt lat="43.71394757900889" lon="11.862547228969952"><ele>439.0</ele><time>2026-04-13T13:33:02Z</time></trkpt><trkpt lat="43.71387756380956" lon="11.86235897434239"><ele>444.33333333333337</ele><time>2026-04-13T13:33:03Z</time></trkpt><trkpt lat="43.7138205274682" lon="11.862152540973954"><ele>449.66666666666663</ele><time>2026-04-13T13:33:04Z</time></trkpt><trkpt lat="43.71377123745964" lon="11.861935770964779"><ele>455.0</ele><time>2026-04-13T13:33:05Z</time></trkpt><trkpt lat="43.71373103937261" lon="11.861711306899602"><ele>458.66666666666663</ele><time>2026-04-13T13:33:06Z</time></trkpt><trkpt lat="43.71371356836937" lon="11.861468532386205"><ele>462.33333333333337</ele><time>2026-04-13T13:33:07Z</time></trkpt><trkpt lat="43.71371466406255" lon="11.861210361765025"><ele>466.0</ele><time>2026-04-13T13:33:08Z</time></trkpt><trkpt lat="43.71371336233231" lon="11.860958944504892"><ele>465.0</ele><time>2026-04-13T13:33:09Z</time></trkpt><trkpt lat="43.71370670336235" lon="11.860725095202751"><ele>464.0</ele><time>2026-04-13T13:33:10Z</time></trkpt><trkpt lat="43.7136855344353" lon="11.860503677232524"><ele>463.0</ele><time>2026-04-13T13:33:11Z</time></trkpt><trkpt lat="43.71364941112762" lon="11.860292588575998"><ele>465.0</ele><time>2026-04-13T13:33:12Z</time></trkpt><trkpt lat="43.71359508015625" lon="11.860076205808031"><ele>467.0</ele><time>2026-04-13T13:33:13Z</time></trkpt><trkpt lat="43.71352525101239" lon="11.859870250180228"><ele>469.0</ele><time>2026-04-13T13:33:14Z</time></trkpt><trkpt lat="43.713441363817864" lon="11.859671336464935"><ele>467.5</ele><time>2026-04-13T13:33:15Z</time></trkpt><trkpt lat="43.713355514826496" lon="11.859500457374592"><ele>466.0</ele><time>2026-04-13T13:33:16Z</time></trkpt><trkpt lat="43.71329770553944" lon="11.859322087813265"><ele>464.5</ele><time>2026-04-13T13:33:17Z</time></trkpt><trkpt lat="43.71330063425614" lon="11.859135634725869"><ele>463.0</ele><time>2026-04-13T13:33:18Z</time></trkpt><trkpt lat="43.713353225188214" lon="11.858958569259817"><ele>463.0</ele><time>2026-04-13T13:33:19Z</time></trkpt><trkpt lat="43.713419291696106" lon="11.858780997299247"><ele>463.0</ele><time>2026-04-13T13:33:20Z</time></trkpt><trkpt lat="43.713472512426065" lon="11.858572812048056"><ele>463.0</ele><time>2026-04-13T13:33:21Z</time></trkpt><trkpt lat="43.71350354768437" lon="11.858346900397823"><ele>463.0</ele><time>2026-04-13T13:33:22Z</time></trkpt><trkpt lat="43.71351531507928" lon="11.858123155945679"><ele>463.0</ele><time>2026-04-13T13:33:23Z</time></trkpt><trkpt lat="43.71350525575231" lon="11.857908415235679"><ele>463.0</ele><time>2026-04-13T13:33:24Z</time></trkpt><trkpt lat="43.713475957984464" lon="11.85770557839576"><ele>463.75</ele><time>2026-04-13T13:33:25Z</time></trkpt><trkpt lat="43.713435496227774" lon="11.857512970467367"><ele>464.5</ele><time>2026-04-13T13:33:26Z</time></trkpt><trkpt lat="43.71339366904497" lon="11.8573305552138"><ele>465.25</ele><time>2026-04-13T13:33:27Z</time></trkpt><trkpt lat="43.71336087991767" lon="11.857159426111389"><ele>466.0</ele><time>2026-04-13T13:33:28Z</time></trkpt><trkpt lat="43.71335771877055" lon="11.85698916429402"><ele>466.0</ele><time>2026-04-13T13:33:29Z</time></trkpt><trkpt lat="43.713383154306875" lon="11.856814691099174"><ele>466.0</ele><time>2026-04-13T13:33:30Z</time></trkpt><trkpt lat="43.713426448342744" lon="11.856642423975563"><ele>466.0</ele><time>2026-04-13T13:33:31Z</time></trkpt><trkpt lat="43.71347476714641" lon="11.856490904470673"><ele>466.0</ele><time>2026-04-13T13:33:32Z</time></trkpt><trkpt lat="43.71352617738488" lon="11.856338927735047"><ele>466.0</ele><time>2026-04-13T13:33:33Z</time></trkpt><trkpt lat="43.71357191581194" lon="11.8561785001193"><ele>466.0</ele><time>2026-04-13T13:33:34Z</time></trkpt><trkpt lat="43.71360400216894" lon="11.856017166245572"><ele>466.0</ele><time>2026-04-13T13:33:35Z</time></trkpt><trkpt lat="43.713606621255536" lon="11.85584741729487"><ele>466.0</ele><time>2026-04-13T13:33:36Z</time></trkpt><trkpt lat="43.71356976802975" lon="11.855674373700566"><ele>466.0</ele><time>2026-04-13T13:33:37Z</time></trkpt><trkpt lat="43.71349299704777" lon="11.855511597085647"><ele>466.0</ele><time>2026-04-13T13:33:38Z</time></trkpt><trkpt lat="43.71339346533745" lon="11.855364827861404"><ele>466.0</ele><time>2026-04-13T13:33:39Z</time></trkpt><trkpt lat="43.71328146404796" lon="11.85522472074626"><ele>466.0</ele><time>2026-04-13T13:33:40Z</time></trkpt><trkpt lat="43.71316917384763" lon="11.855093476836629"><ele>467.0</ele><time>2026-04-13T13:33:41Z</time></trkpt><trkpt lat="43.71305301165798" lon="11.854967637035093"><ele>468.0</ele><time>2026-04-13T13:33:42Z</time></trkpt><trkpt lat="43.71294422397908" lon="11.85484114453096"><ele>469.0</ele><time>2026-04-13T13:33:43Z</time></trkpt><trkpt lat="43.712840359870164" lon="11.854705352863942"><ele>470.0</ele><time>2026-04-13T13:33:44Z</time></trkpt><trkpt lat="43.71275308516699" lon="11.85455524624197"><ele>470.5</ele><time>2026-04-13T13:33:45Z</time></trkpt><trkpt lat="43.71270048299846" lon="11.854383025031769"><ele>471.0</ele><time>2026-04-13T13:33:46Z</time></trkpt><trkpt lat="43.71269542312335" lon="11.854193071375176"><ele>471.5</ele><time>2026-04-13T13:33:47Z</time></trkpt><trkpt lat="43.71272091437198" lon="11.854015558204885"><ele>472.0</ele><time>2026-04-13T13:33:48Z</time></trkpt><trkpt lat="43.712765200492214" lon="11.853850146703616"><ele>472.0</ele><time>2026-04-13T13:33:49Z</time></trkpt><trkpt lat="43.71283051305602" lon="11.853693495270448"><ele>472.0</ele><time>2026-04-13T13:33:50Z</time></trkpt><trkpt lat="43.712921946352914" lon="11.853543407517696"><ele>472.0</ele><time>2026-04-13T13:33:51Z</time></trkpt><trkpt lat="43.71303348952763" lon="11.853419532807658"><ele>472.0</ele><time>2026-04-13T13:33:52Z</time></trkpt><trkpt lat="43.71315345047561" lon="11.853335399424198"><ele>469.5</ele><time>2026-04-13T13:33:53Z</time></trkpt><trkpt lat="43.7132686109816" lon="11.853255689128932"><ele>467.0</ele><time>2026-04-13T13:33:54Z</time></trkpt><trkpt lat="43.71336744387969" lon="11.853147973993323"><ele>464.5</ele><time>2026-04-13T13:33:55Z</time></trkpt><trkpt lat="43.713439037217334" lon="11.852995978059928"><ele>462.0</ele><time>2026-04-13T13:33:56Z</time></trkpt><trkpt lat="43.71347975890535" lon="11.852813668208434"><ele>462.0</ele><time>2026-04-13T13:33:57Z</time></trkpt><trkpt lat="43.71346068401109" lon="11.852633724585605"><ele>462.0</ele><time>2026-04-13T13:33:58Z</time></trkpt><trkpt lat="43.71339526483778" lon="11.852480991606273"><ele>462.0</ele><time>2026-04-13T13:33:59Z</time></trkpt><trkpt lat="43.71329252367695" lon="11.852355579585648"><ele>462.0</ele><time>2026-04-13T13:34:00Z</time></trkpt><trkpt lat="43.71316754747912" lon="11.8522537691564"><ele>462.25</ele><time>2026-04-13T13:34:01Z</time></trkpt><trkpt lat="43.71303501509881" lon="11.852152011791494"><ele>462.5</ele><time>2026-04-13T13:34:02Z</time></trkpt><trkpt lat="43.71291293893309" lon="11.852052948478661"><ele>462.75</ele><time>2026-04-13T13:34:03Z</time></trkpt><trkpt lat="43.71279570965892" lon="11.851950991164701"><ele>463.0</ele><time>2026-04-13T13:34:04Z</time></trkpt><trkpt lat="43.7126923061415" lon="11.851820876063554"><ele>462.6666666666667</ele><time>2026-04-13T13:34:05Z</time></trkpt><trkpt lat="43.712603609259986" lon="11.85165935218616"><ele>462.33333333333337</ele><time>2026-04-13T13:34:06Z</time></trkpt><trkpt lat="43.71253108330315" lon="11.851476379971345"><ele>462.0</ele><time>2026-04-13T13:34:07Z</time></trkpt><trkpt lat="43.71249792907688" lon="11.85126864885764"><ele>462.0</ele><time>2026-04-13T13:34:08Z</time></trkpt><trkpt lat="43.71247101544674" lon="11.851057048186728"><ele>462.0</ele><time>2026-04-13T13:34:09Z</time></trkpt><trkpt lat="43.71243891549902" lon="11.850855734136646"><ele>462.0</ele><time>2026-04-13T13:34:10Z</time></trkpt><trkpt lat="43.71242047962621" lon="11.850657846896405"><ele>462.0</ele><time>2026-04-13T13:34:11Z</time></trkpt><trkpt lat="43.71241030728161" lon="11.850463955273511"><ele>462.0</ele><time>2026-04-13T13:34:12Z</time></trkpt><trkpt lat="43.712434853593074" lon="11.850276076654588"><ele>462.0</ele><time>2026-04-13T13:34:13Z</time></trkpt><trkpt lat="43.712500505650645" lon="11.850108845512565"><ele>462.0</ele><time>2026-04-13T13:34:14Z</time></trkpt><trkpt lat="43.71259687769499" lon="11.849967975778842"><ele>462.0</ele><time>2026-04-13T13:34:15Z</time></trkpt><trkpt lat="43.712695717403804" lon="11.849846230664934"><ele>461.25</ele><time>2026-04-13T13:34:16Z</time></trkpt><trkpt lat="43.71276280234119" lon="11.849705438612952"><ele>460.5</ele><time>2026-04-13T13:34:17Z</time></trkpt><trkpt lat="43.71277669095487" lon="11.849530298766965"><ele>459.75</ele><time>2026-04-13T13:34:18Z</time></trkpt><trkpt lat="43.712737745494124" lon="11.849344649612714"><ele>459.0</ele><time>2026-04-13T13:34:19Z</time></trkpt><trkpt lat="43.712658566813644" lon="11.84916793204204"><ele>459.0</ele><time>2026-04-13T13:34:20Z</time></trkpt><trkpt lat="43.71258997134083" lon="11.848973807685807"><ele>459.0</ele><time>2026-04-13T13:34:21Z</time></trkpt><trkpt lat="43.71249568430917" lon="11.848796083269002"><ele>459.0</ele><time>2026-04-13T13:34:22Z</time></trkpt><trkpt lat="43.71242020457724" lon="11.848614924292947"><ele>461.25</ele><time>2026-04-13T13:34:23Z</time></trkpt><trkpt lat="43.712346718531535" lon="11.848436659804747"><ele>463.5</ele><time>2026-04-13T13:34:24Z</time></trkpt><trkpt lat="43.71228462581422" lon="11.848261008154124"><ele>465.75</ele><time>2026-04-13T13:34:25Z</time></trkpt><trkpt lat="43.71221523482762" lon="11.848098411909252"><ele>468.0</ele><time>2026-04-13T13:34:26Z</time></trkpt><trkpt lat="43.71215721019674" lon="11.847935136760647"><ele>468.0</ele><time>2026-04-13T13:34:27Z</time></trkpt><trkpt lat="43.7121056840513" lon="11.847771734806969"><ele>468.0</ele><time>2026-04-13T13:34:28Z</time></trkpt><trkpt lat="43.712107502085914" lon="11.847595185298369"><ele>468.0</ele><time>2026-04-13T13:34:29Z</time></trkpt><trkpt lat="43.712139212442864" lon="11.847417796878343"><ele>468.0</ele><time>2026-04-13T13:34:30Z</time></trkpt><trkpt lat="43.71218661969127" lon="11.847229684230825"><ele>468.75</ele><time>2026-04-13T13:34:31Z</time></trkpt><trkpt lat="43.712230033439845" lon="11.847027566901573"><ele>469.5</ele><time>2026-04-13T13:34:32Z</time></trkpt><trkpt lat="43.712263857651436" lon="11.846823739159214"><ele>470.25</ele><time>2026-04-13T13:34:33Z</time></trkpt><trkpt lat="43.712294858445816" lon="11.846633060690005"><ele>471.0</ele><time>2026-04-13T13:34:34Z</time></trkpt><trkpt lat="43.712350971018246" lon="11.846459088288237"><ele>469.25</ele><time>2026-04-13T13:34:35Z</time></trkpt><trkpt lat="43.71238633707744" lon="11.846269688132445"><ele>467.5</ele><time>2026-04-13T13:34:36Z</time></trkpt><trkpt lat="43.7124402348054" lon="11.846090918858025"><ele>465.75</ele><time>2026-04-13T13:34:37Z</time></trkpt><trkpt lat="43.71248625822295" lon="11.845907760227547"><ele>464.0</ele><time>2026-04-13T13:34:38Z</time></trkpt><trkpt lat="43.71250651982145" lon="11.845717258819885"><ele>463.5</ele><time>2026-04-13T13:34:39Z</time></trkpt><trkpt lat="43.712495521449" lon="11.845521135877537"><ele>463.0</ele><time>2026-04-13T13:34:40Z</time></trkpt><trkpt lat="43.712459252002446" lon="11.845328844961255"><ele>462.5</ele><time>2026-04-13T13:34:41Z</time></trkpt><trkpt lat="43.71240251547701" lon="11.845155849369304"><ele>462.0</ele><time>2026-04-13T13:34:42Z</time></trkpt><trkpt lat="43.71234834227459" lon="11.844987007649424"><ele>461.5</ele><time>2026-04-13T13:34:43Z</time></trkpt><trkpt lat="43.71233622154154" lon="11.844827631513725"><ele>461.0</ele><time>2026-04-13T13:34:44Z</time></trkpt><trkpt lat="43.71237369969074" lon="11.844687613919408"><ele>460.5</ele><time>2026-04-13T13:34:45Z</time></trkpt><trkpt lat="43.71245859070238" lon="11.84457577051122"><ele>460.0</ele><time>2026-04-13T13:34:46Z</time></trkpt><trkpt lat="43.7125690306138" lon="11.844523361004681"><ele>460.0</ele><time>2026-04-13T13:34:47Z</time></trkpt><trkpt lat="43.712700949645445" lon="11.844501506913918"><ele>460.0</ele><time>2026-04-13T13:34:48Z</time></trkpt><trkpt lat="43.712857368047345" lon="11.844488377566817"><ele>460.0</ele><time>2026-04-13T13:34:49Z</time></trkpt><trkpt lat="43.713017684512614" lon="11.844470357666449"><ele>463.0</ele><time>2026-04-13T13:34:50Z</time></trkpt><trkpt lat="43.71317178854755" lon="11.844455323215694"><ele>466.0</ele><time>2026-04-13T13:34:51Z</time></trkpt><trkpt lat="43.713321866658916" lon="11.844460650634884"><ele>469.0</ele><time>2026-04-13T13:34:52Z</time></trkpt><trkpt lat="43.71346621384818" lon="11.844499670951791"><ele>466.75</ele><time>2026-04-13T13:34:53Z</time></trkpt><trkpt lat="43.713603054611184" lon="11.844542462955"><ele>464.5</ele><time>2026-04-13T13:34:54Z</time></trkpt><trkpt lat="43.71373408698235" lon="11.844549446393446"><ele>462.25</ele><time>2026-04-13T13:34:55Z</time></trkpt><trkpt lat="43.713865641527796" lon="11.844515782314097"><ele>460.0</ele><time>2026-04-13T13:34:56Z</time></trkpt><trkpt lat="43.71397399493" lon="11.844398533848475"><ele>457.5</ele><time>2026-04-13T13:34:57Z</time></trkpt><trkpt lat="43.714067145828366" lon="11.844276676432283"><ele>455.0</ele><time>2026-04-13T13:34:58Z</time></trkpt><trkpt lat="43.71415958536695" lon="11.844177540178626"><ele>452.5</ele><time>2026-04-13T13:34:59Z</time></trkpt><trkpt lat="43.71426250967552" lon="11.844118462113359"><ele>450.0</ele><time>2026-04-13T13:35:00Z</time></trkpt><trkpt lat="43.71439186887345" lon="11.844148927086326"><ele>449.75</ele><time>2026-04-13T13:35:01Z</time></trkpt><trkpt lat="43.714507661240546" lon="11.8442459095412"><ele>449.5</ele><time>2026-04-13T13:35:02Z</time></trkpt><trkpt lat="43.71459119236986" lon="11.844396455572772"><ele>449.25</ele><time>2026-04-13T13:35:03Z</time></trkpt><trkpt lat="43.71467679434786" lon="11.844552094221763"><ele>449.0</ele><time>2026-04-13T13:35:04Z</time></trkpt><trkpt lat="43.71479009138135" lon="11.84467870518382"><ele>449.0</ele><time>2026-04-13T13:35:05Z</time></trkpt><trkpt lat="43.71491818542267" lon="11.844781838056205"><ele>449.0</ele><time>2026-04-13T13:35:06Z</time></trkpt><trkpt lat="43.715050499599066" lon="11.844870595650006"><ele>449.0</ele><time>2026-04-13T13:35:07Z</time></trkpt><trkpt lat="43.715178032442836" lon="11.844958734100697"><ele>449.0</ele><time>2026-04-13T13:35:08Z</time></trkpt><trkpt lat="43.71529581208935" lon="11.845046638032963"><ele>448.75</ele><time>2026-04-13T13:35:09Z</time></trkpt><trkpt lat="43.71541343217556" lon="11.845118861168956"><ele>448.5</ele><time>2026-04-13T13:35:10Z</time></trkpt><trkpt lat="43.7155292212794" lon="11.845197376811226"><ele>448.25</ele><time>2026-04-13T13:35:11Z</time></trkpt><trkpt lat="43.71567081440385" lon="11.845239841434138"><ele>448.0</ele><time>2026-04-13T13:35:12Z</time></trkpt><trkpt lat="43.71580210748435" lon="11.845133445954332"><ele>446.0</ele><time>2026-04-13T13:35:13Z</time></trkpt><trkpt lat="43.71585018237521" lon="11.844922547124195"><ele>444.0</ele><time>2026-04-13T13:35:14Z</time></trkpt><trkpt lat="43.715902141309854" lon="11.844748392812672"><ele>442.0</ele><time>2026-04-13T13:35:15Z</time></trkpt><trkpt lat="43.715932068080505" lon="11.844544085990352"><ele>440.0</ele><time>2026-04-13T13:35:16Z</time></trkpt><trkpt lat="43.71596284081697" lon="11.844337740193595"><ele>439.5</ele><time>2026-04-13T13:35:17Z</time></trkpt><trkpt lat="43.71599570142122" lon="11.84414176161254"><ele>439.0</ele><time>2026-04-13T13:35:18Z</time></trkpt><trkpt lat="43.716028744616736" lon="11.843949717466884"><ele>438.5</ele><time>2026-04-13T13:35:19Z</time></trkpt><trkpt lat="43.71607717090451" lon="11.843756762978519"><ele>438.0</ele><time>2026-04-13T13:35:20Z</time></trkpt><trkpt lat="43.7161105481831" lon="11.843558125089402"><ele>440.0</ele><time>2026-04-13T13:35:21Z</time></trkpt><trkpt lat="43.71614268491229" lon="11.843364230494302"><ele>442.0</ele><time>2026-04-13T13:35:22Z</time></trkpt><trkpt lat="43.716168117719704" lon="11.84316207309182"><ele>444.0</ele><time>2026-04-13T13:35:23Z</time></trkpt><trkpt lat="43.71614493874578" lon="11.842965238585034"><ele>446.0</ele><time>2026-04-13T13:35:24Z</time></trkpt><trkpt lat="43.71613647616659" lon="11.842777948277485"><ele>445.5</ele><time>2026-04-13T13:35:25Z</time></trkpt><trkpt lat="43.716116405257125" lon="11.842607016158835"><ele>445.0</ele><time>2026-04-13T13:35:26Z</time></trkpt><trkpt lat="43.71612185799112" lon="11.842442549441191"><ele>444.5</ele><time>2026-04-13T13:35:27Z</time></trkpt><trkpt lat="43.71615992971611" lon="11.842272238636221"><ele>444.0</ele><time>2026-04-13T13:35:28Z</time></trkpt><trkpt lat="43.716224304015604" lon="11.842110321232523"><ele>444.0</ele><time>2026-04-13T13:35:29Z</time></trkpt><trkpt lat="43.71630706153686" lon="11.841960101723934"><ele>444.0</ele><time>2026-04-13T13:35:30Z</time></trkpt><trkpt lat="43.71640310317396" lon="11.841824906088554"><ele>444.0</ele><time>2026-04-13T13:35:31Z</time></trkpt><trkpt lat="43.71649241211138" lon="11.84169049047576"><ele>444.0</ele><time>2026-04-13T13:35:32Z</time></trkpt><trkpt lat="43.716574338676885" lon="11.841558055078014"><ele>442.75</ele><time>2026-04-13T13:35:33Z</time></trkpt><trkpt lat="43.71664521737293" lon="11.84140393006282"><ele>441.5</ele><time>2026-04-13T13:35:34Z</time></trkpt><trkpt lat="43.71669114336115" lon="11.84122362260238"><ele>440.25</ele><time>2026-04-13T13:35:35Z</time></trkpt><trkpt lat="43.716723850375374" lon="11.841037072398397"><ele>439.0</ele><time>2026-04-13T13:35:36Z</time></trkpt><trkpt lat="43.716756685875204" lon="11.840870420128672"><ele>437.5</ele><time>2026-04-13T13:35:37Z</time></trkpt><trkpt lat="43.7168275503119" lon="11.84072522962988"><ele>436.0</ele><time>2026-04-13T13:35:38Z</time></trkpt><trkpt lat="43.716926351463734" lon="11.840602697544039"><ele>434.5</ele><time>2026-04-13T13:35:39Z</time></trkpt><trkpt lat="43.71703483697814" lon="11.840472954686298"><ele>433.0</ele><time>2026-04-13T13:35:40Z</time></trkpt><trkpt lat="43.71712925086021" lon="11.840336537925069"><ele>434.0</ele><time>2026-04-13T13:35:41Z</time></trkpt><trkpt lat="43.71721925560801" lon="11.84020945031958"><ele>435.0</ele><time>2026-04-13T13:35:42Z</time></trkpt><trkpt lat="43.717302910014645" lon="11.840093943381541"><ele>436.0</ele><time>2026-04-13T13:35:43Z</time></trkpt><trkpt lat="43.71741850034367" lon="11.840044199998795"><ele>437.0</ele><time>2026-04-13T13:35:44Z</time></trkpt><trkpt lat="43.717548811292815" lon="11.840041473309673"><ele>437.0</ele><time>2026-04-13T13:35:45Z</time></trkpt><trkpt lat="43.71767623269086" lon="11.840091577758328"><ele>437.0</ele><time>2026-04-13T13:35:46Z</time></trkpt><trkpt lat="43.71777365099377" lon="11.840207666228956"><ele>437.0</ele><time>2026-04-13T13:35:47Z</time></trkpt><trkpt lat="43.71788332892605" lon="11.840322793725669"><ele>437.0</ele><time>2026-04-13T13:35:48Z</time></trkpt><trkpt lat="43.71798793039018" lon="11.840461305086741"><ele>436.75</ele><time>2026-04-13T13:35:49Z</time></trkpt><trkpt lat="43.71809225541016" lon="11.840599976476874"><ele>436.5</ele><time>2026-04-13T13:35:50Z</time></trkpt><trkpt lat="43.718187206142595" lon="11.840757609369037"><ele>436.25</ele><time>2026-04-13T13:35:51Z</time></trkpt><trkpt lat="43.718271073245305" lon="11.840934416572134"><ele>436.0</ele><time>2026-04-13T13:35:52Z</time></trkpt><trkpt lat="43.71834744708215" lon="11.841115785180842"><ele>436.0</ele><time>2026-04-13T13:35:53.001Z</time></trkpt><trkpt lat="43.71841870021891" lon="11.841291041144324"><ele>436.0</ele><time>2026-04-13T13:35:54.001Z</time></trkpt><trkpt lat="43.71848883189869" lon="11.841461322690446"><ele>436.0</ele><time>2026-04-13T13:35:55.001Z</time></trkpt><trkpt lat="43.71856805999081" lon="11.84163367283163"><ele>436.0</ele><time>2026-04-13T13:35:56.001Z</time></trkpt><trkpt lat="43.718658947025084" lon="11.841793898871678"><ele>437.25</ele><time>2026-04-13T13:35:57.001Z</time></trkpt><trkpt lat="43.71876543743547" lon="11.841922359115701"><ele>438.5</ele><time>2026-04-13T13:35:57.999Z</time></trkpt><trkpt lat="43.71885262201102" lon="11.842027800076547"><ele>439.75</ele><time>2026-04-13T13:35:58.999Z</time></trkpt><trkpt lat="43.718982132865165" lon="11.842069516376306"><ele>441.0</ele><time>2026-04-13T13:35:59.999Z</time></trkpt><trkpt lat="43.7191109849142" lon="11.842040543710507"><ele>441.0</ele><time>2026-04-13T13:36:00.999Z</time></trkpt><trkpt lat="43.719220485731654" lon="11.841928246496332"><ele>441.0</ele><time>2026-04-13T13:36:01.999Z</time></trkpt><trkpt lat="43.71926743799868" lon="11.84175542808165"><ele>441.0</ele><time>2026-04-13T13:36:02.999Z</time></trkpt><trkpt lat="43.71925733528346" lon="11.84155296320892"><ele>441.0</ele><time>2026-04-13T13:36:03.999Z</time></trkpt><trkpt lat="43.71925069265242" lon="11.841355213971125"><ele>439.75</ele><time>2026-04-13T13:36:04.999Z</time></trkpt><trkpt lat="43.71925155337396" lon="11.841159001989313"><ele>438.5</ele><time>2026-04-13T13:36:06Z</time></trkpt><trkpt lat="43.71926385502537" lon="11.840984433824595"><ele>437.25</ele><time>2026-04-13T13:36:07Z</time></trkpt><trkpt lat="43.71929348774794" lon="11.84081692080149"><ele>436.0</ele><time>2026-04-13T13:36:08Z</time></trkpt><trkpt lat="43.719342659538064" lon="11.840661208271971"><ele>437.0</ele><time>2026-04-13T13:36:09Z</time></trkpt><trkpt lat="43.71942616030445" lon="11.840530321479847"><ele>438.0</ele><time>2026-04-13T13:36:10Z</time></trkpt><trkpt lat="43.7195398450008" lon="11.840423188529215"><ele>439.0</ele><time>2026-04-13T13:36:11Z</time></trkpt><trkpt lat="43.719675448784585" lon="11.840348355658284"><ele>440.0</ele><time>2026-04-13T13:36:12Z</time></trkpt><trkpt lat="43.71981157810196" lon="11.84024820599493"><ele>440.0</ele><time>2026-04-13T13:36:13Z</time></trkpt><trkpt lat="43.71995037825509" lon="11.840164484722289"><ele>440.0</ele><time>2026-04-13T13:36:14Z</time></trkpt><trkpt lat="43.72008613704374" lon="11.840063400995847"><ele>440.0</ele><time>2026-04-13T13:36:15Z</time></trkpt><trkpt lat="43.72021390526136" lon="11.83993491026483"><ele>439.3333333333333</ele><time>2026-04-13T13:36:16Z</time></trkpt><trkpt lat="43.72034747914473" lon="11.839808192740005"><ele>438.66666666666663</ele><time>2026-04-13T13:36:17Z</time></trkpt><trkpt lat="43.72045340402975" lon="11.839658037362508"><ele>438.0</ele><time>2026-04-13T13:36:18Z</time></trkpt><trkpt lat="43.72055452759423" lon="11.839514206676897"><ele>438.0</ele><time>2026-04-13T13:36:19Z</time></trkpt><trkpt lat="43.720668106520606" lon="11.839390753342496"><ele>438.0</ele><time>2026-04-13T13:36:20Z</time></trkpt><trkpt lat="43.72079470243079" lon="11.83929670459501"><ele>438.0</ele><time>2026-04-13T13:36:21Z</time></trkpt><trkpt lat="43.72094717013682" lon="11.839289717487892"><ele>438.0</ele><time>2026-04-13T13:36:22Z</time></trkpt><trkpt lat="43.721102595391955" lon="11.83930518418468"><ele>438.75</ele><time>2026-04-13T13:36:23Z</time></trkpt><trkpt lat="43.72125366030567" lon="11.839328261637037"><ele>439.5</ele><time>2026-04-13T13:36:24Z</time></trkpt><trkpt lat="43.72139399517101" lon="11.839351344936805"><ele>440.25</ele><time>2026-04-13T13:36:25Z</time></trkpt><trkpt lat="43.72153077100257" lon="11.839375531887232"><ele>441.0</ele><time>2026-04-13T13:36:26Z</time></trkpt><trkpt lat="43.721666893446134" lon="11.839387883672725"><ele>441.0</ele><time>2026-04-13T13:36:27Z</time></trkpt><trkpt lat="43.72180421163106" lon="11.839382213386601"><ele>441.0</ele><time>2026-04-13T13:36:28Z</time></trkpt><trkpt lat="43.721924908140785" lon="11.839320407102164"><ele>441.0</ele><time>2026-04-13T13:36:29Z</time></trkpt><trkpt lat="43.72203131599422" lon="11.83920602845428"><ele>441.0</ele><time>2026-04-13T13:36:30Z</time></trkpt><trkpt lat="43.722134552985686" lon="11.839068243055932"><ele>441.25</ele><time>2026-04-13T13:36:31Z</time></trkpt><trkpt lat="43.72219795407509" lon="11.838894523567884"><ele>441.5</ele><time>2026-04-13T13:36:32Z</time></trkpt><trkpt lat="43.72227594506698" lon="11.838741559554824"><ele>441.75</ele><time>2026-04-13T13:36:33Z</time></trkpt><trkpt lat="43.722361408816155" lon="11.838596516580601"><ele>442.0</ele><time>2026-04-13T13:36:34Z</time></trkpt><trkpt lat="43.722476617299385" lon="11.838489482301577"><ele>441.0</ele><time>2026-04-13T13:36:35Z</time></trkpt><trkpt lat="43.72259861485399" lon="11.83838939517582"><ele>440.0</ele><time>2026-04-13T13:36:36Z</time></trkpt><trkpt lat="43.72272231272533" lon="11.838269051999072"><ele>439.0</ele><time>2026-04-13T13:36:37Z</time></trkpt><trkpt lat="43.722853201746005" lon="11.838164801950397"><ele>438.0</ele><time>2026-04-13T13:36:38Z</time></trkpt><trkpt lat="43.72298702534833" lon="11.838087148270013"><ele>438.0</ele><time>2026-04-13T13:36:39Z</time></trkpt><trkpt lat="43.72311247623547" lon="11.837999374716533"><ele>438.0</ele><time>2026-04-13T13:36:40Z</time></trkpt><trkpt lat="43.72324132571721" lon="11.837921137529833"><ele>438.0</ele><time>2026-04-13T13:36:41Z</time></trkpt><trkpt lat="43.72337702558183" lon="11.837838500612515"><ele>438.0</ele><time>2026-04-13T13:36:42Z</time></trkpt><trkpt lat="43.72352063625559" lon="11.83781194248664"><ele>438.0</ele><time>2026-04-13T13:36:43Z</time></trkpt><trkpt lat="43.72364950086089" lon="11.837747243586218"><ele>438.0</ele><time>2026-04-13T13:36:44Z</time></trkpt><trkpt lat="43.72377779025807" lon="11.83770641175192"><ele>438.0</ele><time>2026-04-13T13:36:45Z</time></trkpt><trkpt lat="43.723896120528195" lon="11.837660375832941"><ele>438.0</ele><time>2026-04-13T13:36:46Z</time></trkpt><trkpt lat="43.7239974888781" lon="11.83758401235354"><ele>438.0</ele><time>2026-04-13T13:36:47Z</time></trkpt><trkpt lat="43.72407684554389" lon="11.837470279736092"><ele>438.0</ele><time>2026-04-13T13:36:48Z</time></trkpt><trkpt lat="43.72409600673565" lon="11.83730549300498"><ele>438.0</ele><time>2026-04-13T13:36:49Z</time></trkpt><trkpt lat="43.72404551361143" lon="11.8371421772349"><ele>438.0</ele><time>2026-04-13T13:36:50Z</time></trkpt><trkpt lat="43.72395175258037" lon="11.837044159859554"><ele>438.0</ele><time>2026-04-13T13:36:51Z</time></trkpt><trkpt lat="43.72382769941409" lon="11.837027173857239"><ele>438.0</ele><time>2026-04-13T13:36:52Z</time></trkpt><trkpt lat="43.72369272430001" lon="11.837035581188056"><ele>438.0</ele><time>2026-04-13T13:36:53Z</time></trkpt><trkpt lat="43.72354192371483" lon="11.837059363549743"><ele>438.0</ele><time>2026-04-13T13:36:54Z</time></trkpt><trkpt lat="43.723387859637" lon="11.837071370733634"><ele>436.25</ele><time>2026-04-13T13:36:55Z</time></trkpt><trkpt lat="43.723236107627635" lon="11.837084271128452"><ele>434.5</ele><time>2026-04-13T13:36:56Z</time></trkpt><trkpt lat="43.72309146248991" lon="11.837095981741285"><ele>432.75</ele><time>2026-04-13T13:36:57Z</time></trkpt><trkpt lat="43.722950287225466" lon="11.837100604478435"><ele>431.0</ele><time>2026-04-13T13:36:58Z</time></trkpt><trkpt lat="43.72280594283113" lon="11.837074537342058"><ele>430.0</ele><time>2026-04-13T13:36:59Z</time></trkpt><trkpt lat="43.72266184344599" lon="11.837012813210086"><ele>429.0</ele><time>2026-04-13T13:37:00Z</time></trkpt><trkpt lat="43.722522202947374" lon="11.83692416111892"><ele>428.0</ele><time>2026-04-13T13:37:01Z</time></trkpt><trkpt lat="43.72240137016934" lon="11.836794634656538"><ele>432.3333333333333</ele><time>2026-04-13T13:37:02Z</time></trkpt><trkpt lat="43.722271084696445" lon="11.83667625249409"><ele>436.66666666666663</ele><time>2026-04-13T13:37:03Z</time></trkpt><trkpt lat="43.722167575030504" lon="11.836513951682743"><ele>441.0</ele><time>2026-04-13T13:37:04Z</time></trkpt><trkpt lat="43.72205115692571" lon="11.836368105833717"><ele>441.0</ele><time>2026-04-13T13:37:05Z</time></trkpt><trkpt lat="43.721947471228695" lon="11.836195093434029"><ele>441.0</ele><time>2026-04-13T13:37:06Z</time></trkpt><trkpt lat="43.72184164997016" lon="11.836008804790461"><ele>441.0</ele><time>2026-04-13T13:37:07Z</time></trkpt><trkpt lat="43.72177197275719" lon="11.835798311657644"><ele>439.33333333333337</ele><time>2026-04-13T13:37:08Z</time></trkpt><trkpt lat="43.721682619873405" lon="11.835598744640548"><ele>437.6666666666667</ele><time>2026-04-13T13:37:09Z</time></trkpt><trkpt lat="43.72161218574447" lon="11.835394576237343"><ele>436.0</ele><time>2026-04-13T13:37:10Z</time></trkpt><trkpt lat="43.721542884798694" lon="11.835205568645675"><ele>435.0</ele><time>2026-04-13T13:37:11Z</time></trkpt><trkpt lat="43.72145840616251" lon="11.835029613183695"><ele>434.0</ele><time>2026-04-13T13:37:12Z</time></trkpt><trkpt lat="43.721358780500715" lon="11.834868750505018"><ele>433.0</ele><time>2026-04-13T13:37:13Z</time></trkpt><trkpt lat="43.72124639805006" lon="11.834715580768126"><ele>433.0</ele><time>2026-04-13T13:37:14Z</time></trkpt><trkpt lat="43.721118441392036" lon="11.834582811822893"><ele>433.0</ele><time>2026-04-13T13:37:15Z</time></trkpt><trkpt lat="43.720979137456666" lon="11.834467211846276"><ele>433.0</ele><time>2026-04-13T13:37:16Z</time></trkpt><trkpt lat="43.72083581167555" lon="11.834362984103928"><ele>434.33333333333337</ele><time>2026-04-13T13:37:17Z</time></trkpt><trkpt lat="43.720697366045655" lon="11.834246561379226"><ele>435.66666666666663</ele><time>2026-04-13T13:37:18Z</time></trkpt><trkpt lat="43.72055826326094" lon="11.834125650580027"><ele>437.0</ele><time>2026-04-13T13:37:19Z</time></trkpt><trkpt lat="43.72041915126789" lon="11.833994679591362"><ele>437.0</ele><time>2026-04-13T13:37:20Z</time></trkpt><trkpt lat="43.720285135276725" lon="11.833857642197204"><ele>437.0</ele><time>2026-04-13T13:37:21Z</time></trkpt><trkpt lat="43.72015071699442" lon="11.833713037334924"><ele>437.0</ele><time>2026-04-13T13:37:22Z</time></trkpt><trkpt lat="43.72001192126383" lon="11.833575810219905"><ele>434.66666666666663</ele><time>2026-04-13T13:37:23Z</time></trkpt><trkpt lat="43.71987220683857" lon="11.833431020285582"><ele>432.33333333333337</ele><time>2026-04-13T13:37:24Z</time></trkpt><trkpt lat="43.719742468953" lon="11.83326701250018"><ele>430.0</ele><time>2026-04-13T13:37:25Z</time></trkpt><trkpt lat="43.71960225266163" lon="11.833117517632576"><ele>430.0</ele><time>2026-04-13T13:37:26Z</time></trkpt><trkpt lat="43.71945420400072" lon="11.832983801898166"><ele>430.0</ele><time>2026-04-13T13:37:27Z</time></trkpt><trkpt lat="43.719315723269006" lon="11.832831606337482"><ele>430.0</ele><time>2026-04-13T13:37:28Z</time></trkpt><trkpt lat="43.719173710883766" lon="11.83267686874542"><ele>429.0</ele><time>2026-04-13T13:37:29Z</time></trkpt><trkpt lat="43.719027557294" lon="11.832526079125659"><ele>428.0</ele><time>2026-04-13T13:37:30Z</time></trkpt><trkpt lat="43.718896616427735" lon="11.832352704988944"><ele>427.0</ele><time>2026-04-13T13:37:31Z</time></trkpt><trkpt lat="43.71875159106122" lon="11.832201159888562"><ele>427.0</ele><time>2026-04-13T13:37:32Z</time></trkpt><trkpt lat="43.71860508269555" lon="11.83205743177515"><ele>427.0</ele><time>2026-04-13T13:37:33Z</time></trkpt><trkpt lat="43.71844839255744" lon="11.831931717367416"><ele>427.0</ele><time>2026-04-13T13:37:34.001Z</time></trkpt><trkpt lat="43.7183005320456" lon="11.83179523696035"><ele>425.6666666666667</ele><time>2026-04-13T13:37:35.001Z</time></trkpt><trkpt lat="43.71816105708973" lon="11.83163874746205"><ele>424.33333333333337</ele><time>2026-04-13T13:37:36.001Z</time></trkpt><trkpt lat="43.71801529278579" lon="11.831500991883534"><ele>423.0</ele><time>2026-04-13T13:37:37.001Z</time></trkpt><trkpt lat="43.71787165763748" lon="11.831365248486511"><ele>421.66666666666663</ele><time>2026-04-13T13:37:38.001Z</time></trkpt><trkpt lat="43.71773273458168" lon="11.831233958295451"><ele>420.3333333333333</ele><time>2026-04-13T13:37:39.001Z</time></trkpt><trkpt lat="43.717583853675684" lon="11.831118274328432"><ele>419.0</ele><time>2026-04-13T13:37:40.001Z</time></trkpt><trkpt lat="43.7174528362307" lon="11.83096100919621"><ele>419.0</ele><time>2026-04-13T13:37:41.001Z</time></trkpt><trkpt lat="43.71730361120721" lon="11.830832449474743"><ele>419.0</ele><time>2026-04-13T13:37:42.001Z</time></trkpt><trkpt lat="43.71716978295658" lon="11.830672906166095"><ele>419.0</ele><time>2026-04-13T13:37:43.001Z</time></trkpt><trkpt lat="43.717053415154" lon="11.830489514459869"><ele>419.0</ele><time>2026-04-13T13:37:44.001Z</time></trkpt><trkpt lat="43.716930001133484" lon="11.830319461681773"><ele>419.0</ele><time>2026-04-13T13:37:45.001Z</time></trkpt><trkpt lat="43.71679808849794" lon="11.830167122966863"><ele>419.0</ele><time>2026-04-13T13:37:46.001Z</time></trkpt><trkpt lat="43.71668307303608" lon="11.829997896340211"><ele>418.3333333333333</ele><time>2026-04-13T13:37:47.001Z</time></trkpt><trkpt lat="43.71656863741011" lon="11.829829935551896"><ele>417.66666666666663</ele><time>2026-04-13T13:37:48.001Z</time></trkpt><trkpt lat="43.7164547261" lon="11.829668492889825"><ele>417.0</ele><time>2026-04-13T13:37:49.001Z</time></trkpt><trkpt lat="43.716333599270605" lon="11.829522522443234"><ele>417.0</ele><time>2026-04-13T13:37:50.001Z</time></trkpt><trkpt lat="43.71619643196674" lon="11.82939588350353"><ele>417.0</ele><time>2026-04-13T13:37:51.001Z</time></trkpt><trkpt lat="43.716048074521005" lon="11.829278537998533"><ele>417.0</ele><time>2026-04-13T13:37:52.001Z</time></trkpt><trkpt lat="43.71588081402536" lon="11.829215103558669"><ele>416.33333333333337</ele><time>2026-04-13T13:37:53.001Z</time></trkpt><trkpt lat="43.71571070795002" lon="11.829148277433436"><ele>415.6666666666667</ele><time>2026-04-13T13:37:54.001Z</time></trkpt><trkpt lat="43.715534655774896" lon="11.829079924475625"><ele>415.0</ele><time>2026-04-13T13:37:55.001Z</time></trkpt><trkpt lat="43.71536444754018" lon="11.829013468283597"><ele>414.0</ele><time>2026-04-13T13:37:56.001Z</time></trkpt><trkpt lat="43.715192739896786" lon="11.828963872332267"><ele>413.0</ele><time>2026-04-13T13:37:57.001Z</time></trkpt><trkpt lat="43.715025152877935" lon="11.82891269856848"><ele>412.0</ele><time>2026-04-13T13:37:58.001Z</time></trkpt><trkpt lat="43.71485573801941" lon="11.828880881579199"><ele>412.0</ele><time>2026-04-13T13:37:59.001Z</time></trkpt><trkpt lat="43.714687091664274" lon="11.828852002455577"><ele>412.0</ele><time>2026-04-13T13:38:00.001Z</time></trkpt><trkpt lat="43.714518369764" lon="11.828833435236206"><ele>412.0</ele><time>2026-04-13T13:38:01.001Z</time></trkpt><trkpt lat="43.71435006674225" lon="11.828821431710148"><ele>411.6666666666667</ele><time>2026-04-13T13:38:02.001Z</time></trkpt><trkpt lat="43.71418261270282" lon="11.82880961792919"><ele>411.33333333333337</ele><time>2026-04-13T13:38:03Z</time></trkpt><trkpt lat="43.71401993265493" lon="11.828773370543836"><ele>411.0</ele><time>2026-04-13T13:38:04Z</time></trkpt><trkpt lat="43.713858520835416" lon="11.828707574733855"><ele>411.0</ele><time>2026-04-13T13:38:05Z</time></trkpt><trkpt lat="43.71370524274528" lon="11.828616701982005"><ele>411.0</ele><time>2026-04-13T13:38:06Z</time></trkpt><trkpt lat="43.713560164133426" lon="11.828510621050754"><ele>411.0</ele><time>2026-04-13T13:38:07Z</time></trkpt><trkpt lat="43.71342043140168" lon="11.82839634129672"><ele>410.66666666666663</ele><time>2026-04-13T13:38:08Z</time></trkpt><trkpt lat="43.71328804769397" lon="11.828252544238419"><ele>410.3333333333333</ele><time>2026-04-13T13:38:09Z</time></trkpt><trkpt lat="43.71316456375929" lon="11.828086064111272"><ele>410.0</ele><time>2026-04-13T13:38:10Z</time></trkpt><trkpt lat="43.71304754242319" lon="11.827909107637142"><ele>410.0</ele><time>2026-04-13T13:38:11Z</time></trkpt><trkpt lat="43.71293772339345" lon="11.827723414994985"><ele>410.0</ele><time>2026-04-13T13:38:12Z</time></trkpt><trkpt lat="43.712829476174" lon="11.827534850935596"><ele>410.0</ele><time>2026-04-13T13:38:13Z</time></trkpt><trkpt lat="43.7127204799898" lon="11.827339891571103"><ele>410.0</ele><time>2026-04-13T13:38:14Z</time></trkpt><trkpt lat="43.71261281792335" lon="11.827146867872445"><ele>410.0</ele><time>2026-04-13T13:38:15Z</time></trkpt><trkpt lat="43.71250818092053" lon="11.826958638531538"><ele>410.0</ele><time>2026-04-13T13:38:16Z</time></trkpt><trkpt lat="43.7124077456044" lon="11.826774570921419"><ele>410.0</ele><time>2026-04-13T13:38:17Z</time></trkpt><trkpt lat="43.71230884166682" lon="11.826597404090483"><ele>410.0</ele><time>2026-04-13T13:38:18Z</time></trkpt><trkpt lat="43.7122104304219" lon="11.82642586904822"><ele>410.0</ele><time>2026-04-13T13:38:19Z</time></trkpt><trkpt lat="43.71211393642623" lon="11.826253967631008"><ele>410.0</ele><time>2026-04-13T13:38:20Z</time></trkpt><trkpt lat="43.71202271472459" lon="11.826088925200017"><ele>410.0</ele><time>2026-04-13T13:38:21Z</time></trkpt><trkpt lat="43.711929448296004" lon="11.825927246304852"><ele>410.0</ele><time>2026-04-13T13:38:22Z</time></trkpt><trkpt lat="43.711834168745554" lon="11.825763016814895"><ele>408.3333333333333</ele><time>2026-04-13T13:38:23Z</time></trkpt><trkpt lat="43.71173770566103" lon="11.825585378397857"><ele>406.66666666666663</ele><time>2026-04-13T13:38:24Z</time></trkpt><trkpt lat="43.711633209545255" lon="11.825408158097238"><ele>405.0</ele><time>2026-04-13T13:38:25Z</time></trkpt><trkpt lat="43.7115291731126" lon="11.825233181848771"><ele>405.66666666666663</ele><time>2026-04-13T13:38:26Z</time></trkpt><trkpt lat="43.7114184596357" lon="11.825068145930079"><ele>406.3333333333333</ele><time>2026-04-13T13:38:27Z</time></trkpt><trkpt lat="43.71130251989618" lon="11.82491256094774"><ele>407.0</ele><time>2026-04-13T13:38:28Z</time></trkpt><trkpt lat="43.71118793518268" lon="11.824763430896725"><ele>407.0</ele><time>2026-04-13T13:38:29Z</time></trkpt><trkpt lat="43.71107487914402" lon="11.824617661270553"><ele>407.0</ele><time>2026-04-13T13:38:30Z</time></trkpt><trkpt lat="43.71096338158026" lon="11.824468798629864"><ele>407.0</ele><time>2026-04-13T13:38:31Z</time></trkpt><trkpt lat="43.71084681546939" lon="11.824323367511608"><ele>407.3333333333333</ele><time>2026-04-13T13:38:32Z</time></trkpt><trkpt lat="43.71073783838518" lon="11.824162964300879"><ele>407.66666666666663</ele><time>2026-04-13T13:38:33Z</time></trkpt><trkpt lat="43.71062161709944" lon="11.824011208335163"><ele>408.0</ele><time>2026-04-13T13:38:34Z</time></trkpt><trkpt lat="43.71050786516585" lon="11.823862128361373"><ele>408.0</ele><time>2026-04-13T13:38:35Z</time></trkpt><trkpt lat="43.71039328288915" lon="11.823713747830885"><ele>408.0</ele><time>2026-04-13T13:38:36Z</time></trkpt><trkpt lat="43.710275576642" lon="11.823570795776796"><ele>408.0</ele><time>2026-04-13T13:38:37Z</time></trkpt><trkpt lat="43.71015398834409" lon="11.82343900696557"><ele>407.0</ele><time>2026-04-13T13:38:38Z</time></trkpt><trkpt lat="43.71003793608422" lon="11.823290331726"><ele>406.0</ele><time>2026-04-13T13:38:39Z</time></trkpt><trkpt lat="43.70991225425013" lon="11.82315197860243"><ele>405.0</ele><time>2026-04-13T13:38:40Z</time></trkpt><trkpt lat="43.70978008028742" lon="11.823019716206066"><ele>405.0</ele><time>2026-04-13T13:38:41Z</time></trkpt><trkpt lat="43.70964763942152" lon="11.822884804379573"><ele>405.0</ele><time>2026-04-13T13:38:42Z</time></trkpt><trkpt lat="43.70951770453669" lon="11.822754555038278"><ele>405.0</ele><time>2026-04-13T13:38:43Z</time></trkpt><trkpt lat="43.70938780595235" lon="11.822623858747159"><ele>403.0</ele><time>2026-04-13T13:38:44Z</time></trkpt><trkpt lat="43.70926035592923" lon="11.822495954055487"><ele>401.0</ele><time>2026-04-13T13:38:45Z</time></trkpt><trkpt lat="43.709136430966375" lon="11.822368696748963"><ele>399.0</ele><time>2026-04-13T13:38:46Z</time></trkpt><trkpt lat="43.70901359308568" lon="11.822243530094653"><ele>399.0</ele><time>2026-04-13T13:38:47Z</time></trkpt><trkpt lat="43.70888683983062" lon="11.822114222716252"><ele>399.0</ele><time>2026-04-13T13:38:48Z</time></trkpt><trkpt lat="43.70876309206616" lon="11.82198545939764"><ele>399.0</ele><time>2026-04-13T13:38:49Z</time></trkpt><trkpt lat="43.708641510161335" lon="11.821855377585496"><ele>399.0</ele><time>2026-04-13T13:38:50Z</time></trkpt><trkpt lat="43.70851932249424" lon="11.821722940956214"><ele>399.0</ele><time>2026-04-13T13:38:51Z</time></trkpt><trkpt lat="43.708396961431504" lon="11.821593687455582"><ele>399.0</ele><time>2026-04-13T13:38:52Z</time></trkpt><trkpt lat="43.70827385779903" lon="11.821483233293709"><ele>399.0</ele><time>2026-04-13T13:38:53Z</time></trkpt><trkpt lat="43.70814917033567" lon="11.821388752411085"><ele>399.0</ele><time>2026-04-13T13:38:54Z</time></trkpt><trkpt lat="43.7080272970321" lon="11.821311694082633"><ele>399.0</ele><time>2026-04-13T13:38:55Z</time></trkpt><trkpt lat="43.70791649939128" lon="11.821247021342502"><ele>399.0</ele><time>2026-04-13T13:38:56Z</time></trkpt><trkpt lat="43.70782733917586" lon="11.821203319603699"><ele>399.0</ele><time>2026-04-13T13:38:57Z</time></trkpt><trkpt lat="43.70776267071962" lon="11.821175556897263"><ele>399.0</ele><time>2026-04-13T13:38:58Z</time></trkpt><trkpt lat="43.70769018971334" lon="11.821085285737631"><ele>399.0</ele><time>2026-04-13T13:39:00Z</time></trkpt><trkpt lat="43.70770533448667" lon="11.820898352204837"><ele>399.0</ele><time>2026-04-13T13:39:01Z</time></trkpt><trkpt lat="43.7077033642588" lon="11.820768209148628"><ele>399.0</ele><time>2026-04-13T13:39:02Z</time></trkpt><trkpt lat="43.70770955073046" lon="11.820648717402825"><ele>399.1666666666667</ele><time>2026-04-13T13:39:03Z</time></trkpt><trkpt lat="43.70774130511772" lon="11.82057074271662"><ele>399.33333333333337</ele><time>2026-04-13T13:39:04Z</time></trkpt><trkpt lat="43.70780333519871" lon="11.820525356728405"><ele>399.5</ele><time>2026-04-13T13:39:05Z</time></trkpt><trkpt lat="43.70787446125232" lon="11.820550318288344"><ele>399.6666666666667</ele><time>2026-04-13T13:39:06Z</time></trkpt><trkpt lat="43.70794502924711" lon="11.820639124687284"><ele>399.83333333333337</ele><time>2026-04-13T13:39:07Z</time></trkpt><trkpt lat="43.70801745301233" lon="11.820738056706325"><ele>400.0</ele><time>2026-04-13T13:39:08Z</time></trkpt><trkpt lat="43.708093901817286" lon="11.820825576491933"><ele>398.5</ele><time>2026-04-13T13:39:09Z</time></trkpt><trkpt lat="43.7082072621772" lon="11.820826738678639"><ele>397.0</ele><time>2026-04-13T13:39:10Z</time></trkpt><trkpt lat="43.7083315620503" lon="11.820833899809108"><ele>395.5</ele><time>2026-04-13T13:39:11Z</time></trkpt><trkpt lat="43.70846336597675" lon="11.820783479120005"><ele>394.0</ele><time>2026-04-13T13:39:12Z</time></trkpt><trkpt lat="43.70859980257756" lon="11.820744576510961"><ele>391.25</ele><time>2026-04-13T13:39:13Z</time></trkpt><trkpt lat="43.708732373859746" lon="11.820692550005772"><ele>388.5</ele><time>2026-04-13T13:39:14Z</time></trkpt><trkpt lat="43.70886252721214" lon="11.820670884635053"><ele>385.75</ele><time>2026-04-13T13:39:15Z</time></trkpt><trkpt lat="43.709000492689746" lon="11.82065408688451"><ele>383.0</ele><time>2026-04-13T13:39:16Z</time></trkpt><trkpt lat="43.70914116043834" lon="11.820601835370613"><ele>383.0</ele><time>2026-04-13T13:39:17Z</time></trkpt><trkpt lat="43.70928392159011" lon="11.820560735735146"><ele>383.0</ele><time>2026-04-13T13:39:18Z</time></trkpt><trkpt lat="43.70942679232081" lon="11.820503823548053"><ele>383.0</ele><time>2026-04-13T13:39:19Z</time></trkpt><trkpt lat="43.70957086217208" lon="11.820451765083615"><ele>383.0</ele><time>2026-04-13T13:39:20Z</time></trkpt><trkpt lat="43.709716816609514" lon="11.820405925284078"><ele>382.0</ele><time>2026-04-13T13:39:21Z</time></trkpt><trkpt lat="43.70986957902949" lon="11.820378227592954"><ele>381.0</ele><time>2026-04-13T13:39:22Z</time></trkpt><trkpt lat="43.71001961040217" lon="11.820324370184883"><ele>380.0</ele><time>2026-04-13T13:39:23Z</time></trkpt><trkpt lat="43.71017331046785" lon="11.820273126318035"><ele>381.0</ele><time>2026-04-13T13:39:24Z</time></trkpt><trkpt lat="43.71033094143194" lon="11.820219980497134"><ele>382.0</ele><time>2026-04-13T13:39:25Z</time></trkpt><trkpt lat="43.71049015229672" lon="11.820165712347727"><ele>383.0</ele><time>2026-04-13T13:39:26Z</time></trkpt><trkpt lat="43.71065062717248" lon="11.820108793706918"><ele>376.0</ele><time>2026-04-13T13:39:27.001Z</time></trkpt><trkpt lat="43.71081244919844" lon="11.820049052604244"><ele>369.0</ele><time>2026-04-13T13:39:28.001Z</time></trkpt><trkpt lat="43.710973118479586" lon="11.819991106666627"><ele>362.0</ele><time>2026-04-13T13:39:29.001Z</time></trkpt><trkpt lat="43.71113192769441" lon="11.819937787362061"><ele>362.0</ele><time>2026-04-13T13:39:30.001Z</time></trkpt><trkpt lat="43.7112897651107" lon="11.81988652324443"><ele>362.0</ele><time>2026-04-13T13:39:31.001Z</time></trkpt><trkpt lat="43.71145081077932" lon="11.819834217100441"><ele>362.0</ele><time>2026-04-13T13:39:32.001Z</time></trkpt><trkpt lat="43.71161042507014" lon="11.81975904555612"><ele>362.0</ele><time>2026-04-13T13:39:33.001Z</time></trkpt><trkpt lat="43.711777671672024" lon="11.819706089648736"><ele>362.0</ele><time>2026-04-13T13:39:34.001Z</time></trkpt><trkpt lat="43.71194123848908" lon="11.81965102443141"><ele>362.0</ele><time>2026-04-13T13:39:35.001Z</time></trkpt><trkpt lat="43.71210146753452" lon="11.819595869638741"><ele>361.0</ele><time>2026-04-13T13:39:36.001Z</time></trkpt><trkpt lat="43.71225764147825" lon="11.819544496389211"><ele>360.0</ele><time>2026-04-13T13:39:37.001Z</time></trkpt><trkpt lat="43.712410823179866" lon="11.819504195600233"><ele>359.0</ele><time>2026-04-13T13:39:38.001Z</time></trkpt><trkpt lat="43.71256519657197" lon="11.819503627759778"><ele>359.0</ele><time>2026-04-13T13:39:39.001Z</time></trkpt><trkpt lat="43.712725455949375" lon="11.819491100904935"><ele>359.0</ele><time>2026-04-13T13:39:40.001Z</time></trkpt><trkpt lat="43.71288976366518" lon="11.81947825761034"><ele>359.0</ele><time>2026-04-13T13:39:41.001Z</time></trkpt><trkpt lat="43.7130537267164" lon="11.8194431525561"><ele>361.0</ele><time>2026-04-13T13:39:42.001Z</time></trkpt><trkpt lat="43.713221272691875" lon="11.819433753120007"><ele>363.0</ele><time>2026-04-13T13:39:43.001Z</time></trkpt><trkpt lat="43.71339027319752" lon="11.819425988218946"><ele>365.0</ele><time>2026-04-13T13:39:44.001Z</time></trkpt><trkpt lat="43.713561878333984" lon="11.819417106945824"><ele>365.0</ele><time>2026-04-13T13:39:45.001Z</time></trkpt><trkpt lat="43.7137322411517" lon="11.819404967351199"><ele>365.0</ele><time>2026-04-13T13:39:46.001Z</time></trkpt><trkpt lat="43.71390334641834" lon="11.819393986388011"><ele>365.0</ele><time>2026-04-13T13:39:47.001Z</time></trkpt><trkpt lat="43.71407358880942" lon="11.81938255442646"><ele>365.0</ele><time>2026-04-13T13:39:48.001Z</time></trkpt><trkpt lat="43.714244534542885" lon="11.819371776860876"><ele>365.0</ele><time>2026-04-13T13:39:49.001Z</time></trkpt><trkpt lat="43.71441600120333" lon="11.819360689935086"><ele>365.0</ele><time>2026-04-13T13:39:50.001Z</time></trkpt><trkpt lat="43.714587541816485" lon="11.819346470760726"><ele>363.33333333333337</ele><time>2026-04-13T13:39:51.001Z</time></trkpt><trkpt lat="43.71475828118381" lon="11.819331672501384"><ele>361.6666666666667</ele><time>2026-04-13T13:39:52.001Z</time></trkpt><trkpt lat="43.71492726889786" lon="11.819320505922558"><ele>360.0</ele><time>2026-04-13T13:39:53.001Z</time></trkpt><trkpt lat="43.7150967921256" lon="11.81931252909276"><ele>358.6666666666667</ele><time>2026-04-13T13:39:54.001Z</time></trkpt><trkpt lat="43.71526331484534" lon="11.819300439209776"><ele>357.33333333333337</ele><time>2026-04-13T13:39:55.001Z</time></trkpt><trkpt lat="43.7154286048325" lon="11.819286576521918"><ele>356.0</ele><time>2026-04-13T13:39:56.001Z</time></trkpt><trkpt lat="43.71559182093181" lon="11.819269841185255"><ele>356.0</ele><time>2026-04-13T13:39:57.001Z</time></trkpt><trkpt lat="43.71575394635588" lon="11.819252532496025"><ele>356.0</ele><time>2026-04-13T13:39:58.001Z</time></trkpt><trkpt lat="43.71591191699709" lon="11.819238947546834"><ele>356.0</ele><time>2026-04-13T13:39:59.001Z</time></trkpt><trkpt lat="43.71607091847218" lon="11.819226826182335"><ele>356.0</ele><time>2026-04-13T13:40:00.001Z</time></trkpt><trkpt lat="43.7162308433839" lon="11.819213979258635"><ele>356.0</ele><time>2026-04-13T13:40:01.001Z</time></trkpt><trkpt lat="43.71639401147678" lon="11.819204880654672"><ele>356.0</ele><time>2026-04-13T13:40:02.001Z</time></trkpt><trkpt lat="43.71655538343858" lon="11.819193484767073"><ele>356.0</ele><time>2026-04-13T13:40:03.001Z</time></trkpt><trkpt lat="43.71671713260566" lon="11.819176973158125"><ele>356.0</ele><time>2026-04-13T13:40:04.001Z</time></trkpt><trkpt lat="43.71687287538077" lon="11.819163911999503"><ele>356.0</ele><time>2026-04-13T13:40:05.001Z</time></trkpt><trkpt lat="43.717020123405916" lon="11.819174320191017"><ele>356.6666666666667</ele><time>2026-04-13T13:40:06.001Z</time></trkpt><trkpt lat="43.71717471797054" lon="11.819162198560866"><ele>357.3333333333333</ele><time>2026-04-13T13:40:07.001Z</time></trkpt><trkpt lat="43.717332712512906" lon="11.819147950172455"><ele>358.0</ele><time>2026-04-13T13:40:08.001Z</time></trkpt><trkpt lat="43.71749962863382" lon="11.819131377514832"><ele>358.0</ele><time>2026-04-13T13:40:09Z</time></trkpt><trkpt lat="43.71767183026564" lon="11.819112587861364"><ele>358.0</ele><time>2026-04-13T13:40:10Z</time></trkpt><trkpt lat="43.717847061318444" lon="11.81909153059907"><ele>358.0</ele><time>2026-04-13T13:40:11Z</time></trkpt><trkpt lat="43.718020700257995" lon="11.819070632921145"><ele>359.0</ele><time>2026-04-13T13:40:12Z</time></trkpt><trkpt lat="43.718188656734256" lon="11.819050419132846"><ele>360.0</ele><time>2026-04-13T13:40:13Z</time></trkpt><trkpt lat="43.718351505267684" lon="11.819029636672882"><ele>361.0</ele><time>2026-04-13T13:40:14Z</time></trkpt><trkpt lat="43.71851007315538" lon="11.818989710281134"><ele>361.3333333333333</ele><time>2026-04-13T13:40:15Z</time></trkpt><trkpt lat="43.71867133969064" lon="11.818980345057396"><ele>361.6666666666667</ele><time>2026-04-13T13:40:16Z</time></trkpt><trkpt lat="43.71883227402516" lon="11.81899580287217"><ele>362.0</ele><time>2026-04-13T13:40:17Z</time></trkpt><trkpt lat="43.718990304912545" lon="11.818993315072365"><ele>362.0</ele><time>2026-04-13T13:40:18Z</time></trkpt><trkpt lat="43.71914686949736" lon="11.818990850354519"><ele>362.0</ele><time>2026-04-13T13:40:19Z</time></trkpt><trkpt lat="43.71929804060836" lon="11.81898553126404"><ele>362.0</ele><time>2026-04-13T13:40:20Z</time></trkpt><trkpt lat="43.719438713277405" lon="11.818966698465468"><ele>362.0</ele><time>2026-04-13T13:40:21Z</time></trkpt><trkpt lat="43.719571078607636" lon="11.819003673813949"><ele>362.25</ele><time>2026-04-13T13:40:22Z</time></trkpt><trkpt lat="43.71969811177618" lon="11.819022453959498"><ele>362.5</ele><time>2026-04-13T13:40:23Z</time></trkpt><trkpt lat="43.71982199678878" lon="11.819040238288919"><ele>362.75</ele><time>2026-04-13T13:40:24Z</time></trkpt><trkpt lat="43.7199447851743" lon="11.81905778322315"><ele>363.0</ele><time>2026-04-13T13:40:25Z</time></trkpt><trkpt lat="43.72006652370998" lon="11.819077251036333"><ele>363.0</ele><time>2026-04-13T13:40:26Z</time></trkpt><trkpt lat="43.72018859082885" lon="11.819095257916759"><ele>363.0</ele><time>2026-04-13T13:40:27Z</time></trkpt><trkpt lat="43.72030520593013" lon="11.819106672066079"><ele>363.0</ele><time>2026-04-13T13:40:28Z</time></trkpt><trkpt lat="43.72041599447288" lon="11.819111443482827"><ele>363.0</ele><time>2026-04-13T13:40:29Z</time></trkpt><trkpt lat="43.720518637529686" lon="11.819112220219848"><ele>363.4</ele><time>2026-04-13T13:40:30Z</time></trkpt><trkpt lat="43.72061603048926" lon="11.81909485070887"><ele>363.79999999999995</ele><time>2026-04-13T13:40:31Z</time></trkpt><trkpt lat="43.72074094239287" lon="11.819039995338862"><ele>364.2</ele><time>2026-04-13T13:40:32Z</time></trkpt><trkpt lat="43.720792535526776" lon="11.818962291136497"><ele>364.6</ele><time>2026-04-13T13:40:33Z</time></trkpt><trkpt lat="43.720837246231504" lon="11.81881203872384"><ele>365.0</ele><time>2026-04-13T13:40:34Z</time></trkpt><trkpt lat="43.72088125107815" lon="11.818650586119707"><ele>364.75</ele><time>2026-04-13T13:40:35Z</time></trkpt><trkpt lat="43.72093325966842" lon="11.818473742950117"><ele>364.5</ele><time>2026-04-13T13:40:36Z</time></trkpt><trkpt lat="43.721010602208864" lon="11.818297810074032"><ele>364.25</ele><time>2026-04-13T13:40:37Z</time></trkpt><trkpt lat="43.72108021792201" lon="11.818109029480821"><ele>364.0</ele><time>2026-04-13T13:40:38Z</time></trkpt><trkpt lat="43.72115558130242" lon="11.81793647536356"><ele>364.25</ele><time>2026-04-13T13:40:39Z</time></trkpt><trkpt lat="43.72121958668685" lon="11.817767129061032"><ele>364.5</ele><time>2026-04-13T13:40:40Z</time></trkpt><trkpt lat="43.72130401402149" lon="11.817623676959382"><ele>364.75</ele><time>2026-04-13T13:40:41Z</time></trkpt><trkpt lat="43.72141018145315" lon="11.817523672371019"><ele>365.0</ele><time>2026-04-13T13:40:42Z</time></trkpt><trkpt lat="43.72151903251191" lon="11.817455485103748"><ele>365.0</ele><time>2026-04-13T13:40:43Z</time></trkpt><trkpt lat="43.72162221656716" lon="11.817381796355813"><ele>365.0</ele><time>2026-04-13T13:40:44Z</time></trkpt><trkpt lat="43.721710628663665" lon="11.817290872272551"><ele>365.0</ele><time>2026-04-13T13:40:45Z</time></trkpt><trkpt lat="43.72174815891135" lon="11.817144674246498"><ele>365.0</ele><time>2026-04-13T13:40:46Z</time></trkpt><trkpt lat="43.72178278097674" lon="11.81701463137643"><ele>365.0</ele><time>2026-04-13T13:40:47Z</time></trkpt><trkpt lat="43.72181012299385" lon="11.816886378908928"><ele>364.6</ele><time>2026-04-13T13:40:48Z</time></trkpt><trkpt lat="43.72182722973281" lon="11.816756879063993"><ele>364.2</ele><time>2026-04-13T13:40:49Z</time></trkpt><trkpt lat="43.72183904859273" lon="11.816613217673503"><ele>363.79999999999995</ele><time>2026-04-13T13:40:50Z</time></trkpt><trkpt lat="43.721851825821105" lon="11.816475730618299"><ele>363.4</ele><time>2026-04-13T13:40:51Z</time></trkpt><trkpt lat="43.72186491833503" lon="11.81633484042837"><ele>363.0</ele><time>2026-04-13T13:40:52Z</time></trkpt><trkpt lat="43.72187539175059" lon="11.81619515762658"><ele>363.0</ele><time>2026-04-13T13:40:53Z</time></trkpt><trkpt lat="43.72188361337519" lon="11.816060275903075"><ele>363.0</ele><time>2026-04-13T13:40:54Z</time></trkpt><trkpt lat="43.72189298685103" lon="11.81593255321517"><ele>363.0</ele><time>2026-04-13T13:40:55Z</time></trkpt><trkpt lat="43.72189809954534" lon="11.81582544727182"><ele>363.0</ele><time>2026-04-13T13:40:56Z</time></trkpt><trkpt lat="43.7218960556854" lon="11.815733426793894"><ele>363.0</ele><time>2026-04-13T13:40:57Z</time></trkpt><trkpt lat="43.72188990511388" lon="11.815635870641271"><ele>363.0</ele><time>2026-04-13T13:40:58Z</time></trkpt><trkpt lat="43.7218746290651" lon="11.815507045998636"><ele>363.5</ele><time>2026-04-13T13:41:00Z</time></trkpt><trkpt lat="43.72187485094857" lon="11.815388277790554"><ele>364.0</ele><time>2026-04-13T13:41:09Z</time></trkpt><trkpt lat="43.721869967983125" lon="11.815210375721206"><ele>364.5</ele><time>2026-04-13T13:41:11Z</time></trkpt><trkpt lat="43.72187456441369" lon="11.815117306688354"><ele>365.0</ele><time>2026-04-13T13:41:12Z</time></trkpt><trkpt lat="43.72187498142975" lon="11.815027008865712"><ele>365.5</ele><time>2026-04-13T13:41:13Z</time></trkpt><trkpt lat="43.72186861252226" lon="11.814924492796726"><ele>366.0</ele><time>2026-04-13T13:41:14Z</time></trkpt><trkpt lat="43.72186854301426" lon="11.814803460641915"><ele>366.0</ele><time>2026-04-13T13:41:15Z</time></trkpt><trkpt lat="43.72185814015526" lon="11.814674478971218"><ele>366.0</ele><time>2026-04-13T13:41:16Z</time></trkpt><trkpt lat="43.72183548104624" lon="11.814545191063106"><ele>366.0</ele><time>2026-04-13T13:41:17Z</time></trkpt><trkpt lat="43.7218209354946" lon="11.814404878155164"><ele>366.0</ele><time>2026-04-13T13:41:18Z</time></trkpt><trkpt lat="43.72182625415534" lon="11.814258986171488"><ele>366.0</ele><time>2026-04-13T13:41:19Z</time></trkpt><trkpt lat="43.72184990913865" lon="11.814129871770547"><ele>366.20000000000005</ele><time>2026-04-13T13:41:20Z</time></trkpt><trkpt lat="43.72187817521109" lon="11.813981355094297"><ele>366.40000000000003</ele><time>2026-04-13T13:41:21Z</time></trkpt><trkpt lat="43.721908515568224" lon="11.8138312634731"><ele>366.6</ele><time>2026-04-13T13:41:22Z</time></trkpt><trkpt lat="43.72193380575419" lon="11.813682534878948"><ele>366.8</ele><time>2026-04-13T13:41:23Z</time></trkpt><trkpt lat="43.7219561400167" lon="11.813538294432067"><ele>367.0</ele><time>2026-04-13T13:41:24Z</time></trkpt><trkpt lat="43.72197788944804" lon="11.81338708731229"><ele>367.0</ele><time>2026-04-13T13:41:25Z</time></trkpt><trkpt lat="43.7219843334421" lon="11.813211299625634"><ele>367.0</ele><time>2026-04-13T13:41:26.001Z</time></trkpt><trkpt lat="43.722013617530855" lon="11.813024074045646"><ele>367.0</ele><time>2026-04-13T13:41:27.001Z</time></trkpt><trkpt lat="43.7220301086427" lon="11.81283131144875"><ele>367.0</ele><time>2026-04-13T13:41:28.001Z</time></trkpt><trkpt lat="43.722045870923495" lon="11.812634012016792"><ele>367.0</ele><time>2026-04-13T13:41:29.001Z</time></trkpt><trkpt lat="43.72206199345492" lon="11.812439099437851"><ele>367.0</ele><time>2026-04-13T13:41:30.001Z</time></trkpt><trkpt lat="43.72207689313237" lon="11.812229424240446"><ele>367.0</ele><time>2026-04-13T13:41:31.001Z</time></trkpt><trkpt lat="43.72208921556779" lon="11.812023300319664"><ele>367.0</ele><time>2026-04-13T13:41:32.001Z</time></trkpt><trkpt lat="43.722115905518145" lon="11.811824034395805"><ele>367.25</ele><time>2026-04-13T13:41:33.001Z</time></trkpt><trkpt lat="43.72212941059616" lon="11.811626972349961"><ele>367.5</ele><time>2026-04-13T13:41:34.001Z</time></trkpt><trkpt lat="43.72214338076007" lon="11.811447019210878"><ele>367.75</ele><time>2026-04-13T13:41:35.001Z</time></trkpt><trkpt lat="43.72215725479815" lon="11.811276377192415"><ele>368.0</ele><time>2026-04-13T13:41:36.001Z</time></trkpt><trkpt lat="43.722156691807335" lon="11.811107470406633"><ele>368.75</ele><time>2026-04-13T13:41:37.001Z</time></trkpt><trkpt lat="43.72213796801321" lon="11.810936302030775"><ele>369.5</ele><time>2026-04-13T13:41:38.001Z</time></trkpt><trkpt lat="43.72210121491667" lon="11.810763831445902"><ele>370.25</ele><time>2026-04-13T13:41:39.001Z</time></trkpt><trkpt lat="43.72203980550698" lon="11.810599226892153"><ele>371.0</ele><time>2026-04-13T13:41:40.001Z</time></trkpt><trkpt lat="43.72199271380253" lon="11.810450579039198"><ele>371.0</ele><time>2026-04-13T13:41:41.001Z</time></trkpt><trkpt lat="43.72195186724471" lon="11.810317637711313"><ele>371.0</ele><time>2026-04-13T13:41:42.001Z</time></trkpt><trkpt lat="43.72191748860052" lon="11.810201558101358"><ele>371.0</ele><time>2026-04-13T13:41:43.001Z</time></trkpt><trkpt lat="43.721905425351245" lon="11.810096287195819"><ele>371.0</ele><time>2026-04-13T13:41:44.001Z</time></trkpt><trkpt lat="43.721919493031415" lon="11.810010048956723"><ele>371.0</ele><time>2026-04-13T13:41:46.001Z</time></trkpt><trkpt lat="43.72207165609414" lon="11.809982580186949"><ele>371.6</ele><time>2026-04-13T13:41:47.001Z</time></trkpt><trkpt lat="43.722155589071264" lon="11.810012765061563"><ele>372.20000000000005</ele><time>2026-04-13T13:41:48.001Z</time></trkpt><trkpt lat="43.72225033519918" lon="11.810039688756602"><ele>372.79999999999995</ele><time>2026-04-13T13:41:49.001Z</time></trkpt><trkpt lat="43.72235470351219" lon="11.81005832961007"><ele>373.4</ele><time>2026-04-13T13:41:50.001Z</time></trkpt><trkpt lat="43.722471892711965" lon="11.810075206027278"><ele>374.0</ele><time>2026-04-13T13:41:51.001Z</time></trkpt><trkpt lat="43.722592847994626" lon="11.810099506454565"><ele>374.0</ele><time>2026-04-13T13:41:52.001Z</time></trkpt><trkpt lat="43.722721199563345" lon="11.810119056367448"><ele>374.0</ele><time>2026-04-13T13:41:53.001Z</time></trkpt><trkpt lat="43.72285253887845" lon="11.810134608189617"><ele>374.0</ele><time>2026-04-13T13:41:54.001Z</time></trkpt><trkpt lat="43.72298770164509" lon="11.810159713141472"><ele>374.0</ele><time>2026-04-13T13:41:55.001Z</time></trkpt><trkpt lat="43.72312228757419" lon="11.81018503448505"><ele>374.25</ele><time>2026-04-13T13:41:56.001Z</time></trkpt><trkpt lat="43.72326078208246" lon="11.810207241571012"><ele>374.5</ele><time>2026-04-13T13:41:57.001Z</time></trkpt><trkpt lat="43.72340073821842" lon="11.810229750978516"><ele>374.75</ele><time>2026-04-13T13:41:58.001Z</time></trkpt><trkpt lat="43.72353421335924" lon="11.810256337824763"><ele>375.0</ele><time>2026-04-13T13:41:59.001Z</time></trkpt><trkpt lat="43.72366751082923" lon="11.810283063296485"><ele>375.75</ele><time>2026-04-13T13:42:00.001Z</time></trkpt><trkpt lat="43.72379827796199" lon="11.810303602361149"><ele>376.5</ele><time>2026-04-13T13:42:01.001Z</time></trkpt><trkpt lat="43.72392672776398" lon="11.810325936030965"><ele>377.25</ele><time>2026-04-13T13:42:02.001Z</time></trkpt><trkpt lat="43.724049371555736" lon="11.810351197127854"><ele>378.0</ele><time>2026-04-13T13:42:03.001Z</time></trkpt><trkpt lat="43.72418227241416" lon="11.810377318745594"><ele>378.0</ele><time>2026-04-13T13:42:04.001Z</time></trkpt><trkpt lat="43.724311077307334" lon="11.81040595190688"><ele>378.0</ele><time>2026-04-13T13:42:05.001Z</time></trkpt><trkpt lat="43.72443980675726" lon="11.81042607213179"><ele>378.0</ele><time>2026-04-13T13:42:06.001Z</time></trkpt><trkpt lat="43.7245703431138" lon="11.810449512297854"><ele>378.0</ele><time>2026-04-13T13:42:07.001Z</time></trkpt><trkpt lat="43.72470335113101" lon="11.810474446907886"><ele>378.25</ele><time>2026-04-13T13:42:08.001Z</time></trkpt><trkpt lat="43.72483501678898" lon="11.810502272083284"><ele>378.5</ele><time>2026-04-13T13:42:09.001Z</time></trkpt><trkpt lat="43.724968243148275" lon="11.810531357912144"><ele>378.75</ele><time>2026-04-13T13:42:10.001Z</time></trkpt><trkpt lat="43.72510051696662" lon="11.810559694651296"><ele>379.0</ele><time>2026-04-13T13:42:11.001Z</time></trkpt><trkpt lat="43.725240005906485" lon="11.810591445933902"><ele>379.5</ele><time>2026-04-13T13:42:12.001Z</time></trkpt><trkpt lat="43.72538107047994" lon="11.810622506683172"><ele>380.0</ele><time>2026-04-13T13:42:13.001Z</time></trkpt><trkpt lat="43.725527552829426" lon="11.810653964298316"><ele>380.5</ele><time>2026-04-13T13:42:14.001Z</time></trkpt><trkpt lat="43.72567413367621" lon="11.81068210033576"><ele>381.0</ele><time>2026-04-13T13:42:15Z</time></trkpt><trkpt lat="43.72582628421961" lon="11.810712045878928"><ele>381.0</ele><time>2026-04-13T13:42:16Z</time></trkpt><trkpt lat="43.72597719915279" lon="11.810740597707973"><ele>381.0</ele><time>2026-04-13T13:42:17Z</time></trkpt><trkpt lat="43.72613310094442" lon="11.810778250432909"><ele>381.0</ele><time>2026-04-13T13:42:18Z</time></trkpt><trkpt lat="43.726286003887594" lon="11.810805047556338"><ele>381.3333333333333</ele><time>2026-04-13T13:42:19Z</time></trkpt><trkpt lat="43.72644505368005" lon="11.810832724122944"><ele>381.66666666666663</ele><time>2026-04-13T13:42:20Z</time></trkpt><trkpt lat="43.72660302660209" lon="11.810854636099808"><ele>382.0</ele><time>2026-04-13T13:42:21Z</time></trkpt><trkpt lat="43.72675647970589" lon="11.810873542069727"><ele>382.5</ele><time>2026-04-13T13:42:22Z</time></trkpt><trkpt lat="43.726899084819514" lon="11.81089443893135"><ele>383.0</ele><time>2026-04-13T13:42:23Z</time></trkpt><trkpt lat="43.72703491451014" lon="11.810911934275087"><ele>383.5</ele><time>2026-04-13T13:42:24Z</time></trkpt><trkpt lat="43.72716682803222" lon="11.81092908114541"><ele>384.0</ele><time>2026-04-13T13:42:25Z</time></trkpt><trkpt lat="43.72729397351625" lon="11.810949247936795"><ele>384.0</ele><time>2026-04-13T13:42:26Z</time></trkpt><trkpt lat="43.7274224483334" lon="11.810966230585684"><ele>384.0</ele><time>2026-04-13T13:42:27Z</time></trkpt><trkpt lat="43.72755021992959" lon="11.81098044290735"><ele>384.0</ele><time>2026-04-13T13:42:28Z</time></trkpt><trkpt lat="43.7276937006969" lon="11.810993268097594"><ele>384.0</ele><time>2026-04-13T13:42:29Z</time></trkpt><trkpt lat="43.72781161071118" lon="11.81101303072873"><ele>384.25</ele><time>2026-04-13T13:42:30Z</time></trkpt><trkpt lat="43.7279371801682" lon="11.811030895129269"><ele>384.5</ele><time>2026-04-13T13:42:31Z</time></trkpt><trkpt lat="43.72806598466951" lon="11.811054697287576"><ele>384.75</ele><time>2026-04-13T13:42:32Z</time></trkpt><trkpt lat="43.72819020314566" lon="11.8110696646328"><ele>385.0</ele><time>2026-04-13T13:42:33Z</time></trkpt><trkpt lat="43.7283232917258" lon="11.811096213294887"><ele>385.0</ele><time>2026-04-13T13:42:34Z</time></trkpt><trkpt lat="43.7284541785893" lon="11.811108958496208"><ele>385.0</ele><time>2026-04-13T13:42:35Z</time></trkpt><trkpt lat="43.72859199023236" lon="11.811126647481817"><ele>385.0</ele><time>2026-04-13T13:42:36Z</time></trkpt><trkpt lat="43.72872994723366" lon="11.811147346450966"><ele>385.0</ele><time>2026-04-13T13:42:37Z</time></trkpt><trkpt lat="43.72886975076599" lon="11.81117239947426"><ele>385.25</ele><time>2026-04-13T13:42:38Z</time></trkpt><trkpt lat="43.72900922097236" lon="11.811197544325847"><ele>385.5</ele><time>2026-04-13T13:42:39Z</time></trkpt><trkpt lat="43.72915438716426" lon="11.811225726441892"><ele>385.75</ele><time>2026-04-13T13:42:40Z</time></trkpt><trkpt lat="43.72929440474511" lon="11.81126400696249"><ele>386.0</ele><time>2026-04-13T13:42:41Z</time></trkpt><trkpt lat="43.729437652090816" lon="11.81131119903083"><ele>386.5</ele><time>2026-04-13T13:42:42Z</time></trkpt><trkpt lat="43.72958198087694" lon="11.811360830079908"><ele>387.0</ele><time>2026-04-13T13:42:43Z</time></trkpt><trkpt lat="43.7297261062831" lon="11.811413111605331"><ele>387.5</ele><time>2026-04-13T13:42:44Z</time></trkpt><trkpt lat="43.7298718861274" lon="11.811459930908967"><ele>388.0</ele><time>2026-04-13T13:42:45Z</time></trkpt><trkpt lat="43.73001722541481" lon="11.81150414187567"><ele>388.0</ele><time>2026-04-13T13:42:46Z</time></trkpt><trkpt lat="43.73016388232515" lon="11.811551387581622"><ele>388.0</ele><time>2026-04-13T13:42:47Z</time></trkpt><trkpt lat="43.73031102839386" lon="11.811601705704964"><ele>388.0</ele><time>2026-04-13T13:42:48Z</time></trkpt><trkpt lat="43.7304493566673" lon="11.811649271294197"><ele>388.0</ele><time>2026-04-13T13:42:49Z</time></trkpt><trkpt lat="43.730587081139234" lon="11.811696933629126"><ele>388.5</ele><time>2026-04-13T13:42:50Z</time></trkpt><trkpt lat="43.73071631910942" lon="11.811735736248052"><ele>389.0</ele><time>2026-04-13T13:42:51Z</time></trkpt><trkpt lat="43.73084568818958" lon="11.811774932384731"><ele>389.5</ele><time>2026-04-13T13:42:52Z</time></trkpt><trkpt lat="43.73098594031628" lon="11.81182429217316"><ele>390.0</ele><time>2026-04-13T13:42:53Z</time></trkpt><trkpt lat="43.73113245618224" lon="11.811880991621106"><ele>390.0</ele><time>2026-04-13T13:42:54Z</time></trkpt><trkpt lat="43.73128203735129" lon="11.81193226810429"><ele>390.0</ele><time>2026-04-13T13:42:55Z</time></trkpt><trkpt lat="43.7314299968102" lon="11.811985019130628"><ele>390.0</ele><time>2026-04-13T13:42:56Z</time></trkpt><trkpt lat="43.73156837469365" lon="11.812029409375393"><ele>390.0</ele><time>2026-04-13T13:42:57Z</time></trkpt><trkpt lat="43.731703397682494" lon="11.812080197574554"><ele>390.0</ele><time>2026-04-13T13:42:58Z</time></trkpt><trkpt lat="43.73183198595715" lon="11.812121863417724"><ele>390.0</ele><time>2026-04-13T13:42:59Z</time></trkpt><trkpt lat="43.731953623314006" lon="11.812157021324381"><ele>390.0</ele><time>2026-04-13T13:43:00Z</time></trkpt><trkpt lat="43.73207078970186" lon="11.8121795316061"><ele>390.0</ele><time>2026-04-13T13:43:01Z</time></trkpt><trkpt lat="43.73218483656288" lon="11.812199896035127"><ele>390.6</ele><time>2026-04-13T13:43:02Z</time></trkpt><trkpt lat="43.73229307234221" lon="11.8122286721121"><ele>391.2</ele><time>2026-04-13T13:43:03Z</time></trkpt><trkpt lat="43.732395221892034" lon="11.812244863740844"><ele>391.79999999999995</ele><time>2026-04-13T13:43:04Z</time></trkpt><trkpt lat="43.73249604436707" lon="11.812260621113257"><ele>392.4</ele><time>2026-04-13T13:43:05Z</time></trkpt><trkpt lat="43.73260282004083" lon="11.81227714677813"><ele>393.0</ele><time>2026-04-13T13:43:06Z</time></trkpt><trkpt lat="43.73271243473603" lon="11.81229683661593"><ele>393.59999999999997</ele><time>2026-04-13T13:43:07Z</time></trkpt><trkpt lat="43.73282692343201" lon="11.812312635306606"><ele>394.2</ele><time>2026-04-13T13:43:08Z</time></trkpt><trkpt lat="43.73293398840207" lon="11.812325738262864"><ele>394.8</ele><time>2026-04-13T13:43:09Z</time></trkpt><trkpt lat="43.733032475029766" lon="11.812344365475576"><ele>395.4</ele><time>2026-04-13T13:43:10Z</time></trkpt><trkpt lat="43.73312461469683" lon="11.812358978752647"><ele>396.0</ele><time>2026-04-13T13:43:11Z</time></trkpt><trkpt lat="43.73321347003977" lon="11.812373030986835"><ele>396.0</ele><time>2026-04-13T13:43:12Z</time></trkpt><trkpt lat="43.73330665650959" lon="11.812387963988806"><ele>396.0</ele><time>2026-04-13T13:43:13Z</time></trkpt><trkpt lat="43.73339414565719" lon="11.812397902346667"><ele>396.0</ele><time>2026-04-13T13:43:14Z</time></trkpt><trkpt lat="43.73348940245483" lon="11.812427755436172"><ele>396.0</ele><time>2026-04-13T13:43:15Z</time></trkpt><trkpt lat="43.73359203155828" lon="11.812423492569328"><ele>396.0</ele><time>2026-04-13T13:43:16.001Z</time></trkpt><trkpt lat="43.73369449309645" lon="11.812447361646115"><ele>396.4</ele><time>2026-04-13T13:43:17.001Z</time></trkpt><trkpt lat="43.733785263570965" lon="11.81246441890249"><ele>396.8</ele><time>2026-04-13T13:43:18.001Z</time></trkpt><trkpt lat="43.73388320338169" lon="11.812474302583265"><ele>397.2</ele><time>2026-04-13T13:43:19.001Z</time></trkpt><trkpt lat="43.73398374765251" lon="11.812490887012041"><ele>397.59999999999997</ele><time>2026-04-13T13:43:20.001Z</time></trkpt><trkpt lat="43.73408336357339" lon="11.81251312977107"><ele>398.0</ele><time>2026-04-13T13:43:21.001Z</time></trkpt><trkpt lat="43.73417640824182" lon="11.812525542168519"><ele>398.0</ele><time>2026-04-13T13:43:22.001Z</time></trkpt><trkpt lat="43.73427110937571" lon="11.81253166003613"><ele>398.0</ele><time>2026-04-13T13:43:23.001Z</time></trkpt><trkpt lat="43.734365575038765" lon="11.812568084657945"><ele>398.0</ele><time>2026-04-13T13:43:24.001Z</time></trkpt><trkpt lat="43.73446239891116" lon="11.812583998991242"><ele>398.0</ele><time>2026-04-13T13:43:25.001Z</time></trkpt><trkpt lat="43.73456366513958" lon="11.812600306935916"><ele>398.0</ele><time>2026-04-13T13:43:26.001Z</time></trkpt><trkpt lat="43.73465299632725" lon="11.812605463620072"><ele>398.16666666666663</ele><time>2026-04-13T13:43:27.001Z</time></trkpt><trkpt lat="43.734741318830174" lon="11.8126216020921"><ele>398.3333333333333</ele><time>2026-04-13T13:43:28.001Z</time></trkpt><trkpt lat="43.73482693925422" lon="11.812631224893202"><ele>398.5</ele><time>2026-04-13T13:43:29.001Z</time></trkpt><trkpt lat="43.73491115130873" lon="11.812638472851088"><ele>398.66666666666663</ele><time>2026-04-13T13:43:30.001Z</time></trkpt><trkpt lat="43.73500197216316" lon="11.812663037806931"><ele>398.8333333333333</ele><time>2026-04-13T13:43:31.001Z</time></trkpt><trkpt lat="43.735077222139715" lon="11.812666514648662"><ele>399.0</ele><time>2026-04-13T13:43:32.001Z</time></trkpt><trkpt lat="43.73515078698279" lon="11.812680251259746"><ele>399.2857142857143</ele><time>2026-04-13T13:43:33.001Z</time></trkpt><trkpt lat="43.73522592594738" lon="11.812705306812228"><ele>399.57142857142856</ele><time>2026-04-13T13:43:34.001Z</time></trkpt><trkpt lat="43.735292366991104" lon="11.812704809660927"><ele>399.8571428571429</ele><time>2026-04-13T13:43:35.001Z</time></trkpt><trkpt lat="43.735357138056386" lon="11.812714997662956"><ele>400.1428571428571</ele><time>2026-04-13T13:43:36.001Z</time></trkpt><trkpt lat="43.73543282602217" lon="11.81272191316258"><ele>400.42857142857144</ele><time>2026-04-13T13:43:37.001Z</time></trkpt><trkpt lat="43.73550770299541" lon="11.812731141958217"><ele>400.7142857142857</ele><time>2026-04-13T13:43:38.001Z</time></trkpt><trkpt lat="43.73558342424414" lon="11.812761285120335"><ele>401.0</ele><time>2026-04-13T13:43:39.001Z</time></trkpt><trkpt lat="43.735664402233965" lon="11.81277184788679"><ele>401.0</ele><time>2026-04-13T13:43:40.001Z</time></trkpt><trkpt lat="43.73573703575076" lon="11.81278143866611"><ele>401.0</ele><time>2026-04-13T13:43:41.001Z</time></trkpt><trkpt lat="43.735806068877416" lon="11.812790554022293"><ele>401.0</ele><time>2026-04-13T13:43:42.001Z</time></trkpt><trkpt lat="43.73587177540374" lon="11.812797542304619"><ele>401.0</ele><time>2026-04-13T13:43:43.001Z</time></trkpt><trkpt lat="43.73593940172023" lon="11.812804333364946"><ele>401.0</ele><time>2026-04-13T13:43:44.001Z</time></trkpt><trkpt lat="43.736014967243754" lon="11.812811921689953"><ele>401.0</ele><time>2026-04-13T13:43:45.001Z</time></trkpt><trkpt lat="43.73609859533268" lon="11.812819162130497"><ele>401.0</ele><time>2026-04-13T13:43:46.001Z</time></trkpt><trkpt lat="43.7361936569928" lon="11.81281916213089"><ele>401.16666666666663</ele><time>2026-04-13T13:43:47.001Z</time></trkpt><trkpt lat="43.73629134594148" lon="11.812821107816873"><ele>401.3333333333333</ele><time>2026-04-13T13:43:48.001Z</time></trkpt><trkpt lat="43.7363784953907" lon="11.812832392258718"><ele>401.5</ele><time>2026-04-13T13:43:49.001Z</time></trkpt><trkpt lat="43.73645939556428" lon="11.812846246821806"><ele>401.66666666666663</ele><time>2026-04-13T13:43:50.001Z</time></trkpt><trkpt lat="43.73653664659916" lon="11.812843221308986"><ele>401.8333333333333</ele><time>2026-04-13T13:43:51.001Z</time></trkpt><trkpt lat="43.73660821971393" lon="11.812858048716537"><ele>402.0</ele><time>2026-04-13T13:43:52.001Z</time></trkpt><trkpt lat="43.73667894524701" lon="11.812876985378926"><ele>402.0</ele><time>2026-04-13T13:43:53.001Z</time></trkpt><trkpt lat="43.73674831767092" lon="11.812892122992004"><ele>402.0</ele><time>2026-04-13T13:43:54.001Z</time></trkpt><trkpt lat="43.73682223946994" lon="11.812914316980768"><ele>402.0</ele><time>2026-04-13T13:43:55.001Z</time></trkpt><trkpt lat="43.73688561695455" lon="11.81292773362435"><ele>402.0</ele><time>2026-04-13T13:43:56.001Z</time></trkpt><trkpt lat="43.736995738649625" lon="11.812956127167176"><ele>402.0</ele><time>2026-04-13T13:43:58.001Z</time></trkpt><trkpt lat="43.737090794195964" lon="11.812984521825978"><ele>402.0</ele><time>2026-04-13T13:44:00.001Z</time></trkpt><trkpt lat="43.73715887767598" lon="11.81300755074464"><ele>402.6666666666667</ele><time>2026-04-13T13:44:02.001Z</time></trkpt><trkpt lat="43.7372440590076" lon="11.813023512464866"><ele>403.33333333333337</ele><time>2026-04-13T13:44:05.001Z</time></trkpt><trkpt lat="43.737322742205784" lon="11.813049794866215"><ele>404.0</ele><time>2026-04-13T13:44:09.001Z</time></trkpt><trkpt lat="43.73738649313108" lon="11.813064387567033"><ele>404.6666666666667</ele><time>2026-04-13T13:44:10.001Z</time></trkpt><trkpt lat="43.73746375199765" lon="11.813074344810326"><ele>405.33333333333337</ele><time>2026-04-13T13:44:11.001Z</time></trkpt><trkpt lat="43.73757397840155" lon="11.813124486995562"><ele>406.0</ele><time>2026-04-13T13:44:12.001Z</time></trkpt><trkpt lat="43.73770933860812" lon="11.81315907697625"><ele>406.6666666666667</ele><time>2026-04-13T13:44:13.001Z</time></trkpt><trkpt lat="43.73785862595032" lon="11.813197302873597"><ele>407.33333333333337</ele><time>2026-04-13T13:44:14.001Z</time></trkpt><trkpt lat="43.73803205758621" lon="11.813241539151027"><ele>408.0</ele><time>2026-04-13T13:44:15.001Z</time></trkpt><trkpt lat="43.73821760719758" lon="11.813285593070416"><ele>408.0</ele><time>2026-04-13T13:44:16.001Z</time></trkpt><trkpt lat="43.73840943426571" lon="11.813333498406731"><ele>408.0</ele><time>2026-04-13T13:44:17.001Z</time></trkpt><trkpt lat="43.73860541413654" lon="11.813386454369647"><ele>408.0</ele><time>2026-04-13T13:44:18.001Z</time></trkpt><trkpt lat="43.73880569524379" lon="11.813434938057304"><ele>408.66666666666663</ele><time>2026-04-13T13:44:19.001Z</time></trkpt><trkpt lat="43.7390075015902" lon="11.813487056147785"><ele>409.3333333333333</ele><time>2026-04-13T13:44:20.001Z</time></trkpt><trkpt lat="43.73920122125615" lon="11.813535646800162"><ele>410.0</ele><time>2026-04-13T13:44:21Z</time></trkpt><trkpt lat="43.73937469798175" lon="11.813583141819024"><ele>410.66666666666663</ele><time>2026-04-13T13:44:22Z</time></trkpt><trkpt lat="43.739534791595524" lon="11.813626157866763"><ele>411.33333333333337</ele><time>2026-04-13T13:44:23Z</time></trkpt><trkpt lat="43.73968739046988" lon="11.813664286549622"><ele>412.0</ele><time>2026-04-13T13:44:24Z</time></trkpt><trkpt lat="43.739833923300466" lon="11.813696696408725"><ele>412.0</ele><time>2026-04-13T13:44:25Z</time></trkpt><trkpt lat="43.739980695890445" lon="11.813735060470188"><ele>412.0</ele><time>2026-04-13T13:44:26Z</time></trkpt><trkpt lat="43.740132131663565" lon="11.813773597004833"><ele>412.0</ele><time>2026-04-13T13:44:27Z</time></trkpt><trkpt lat="43.74028538931239" lon="11.813813321958694"><ele>412.33333333333337</ele><time>2026-04-13T13:44:28Z</time></trkpt><trkpt lat="43.740440687136015" lon="11.813852928493947"><ele>412.66666666666663</ele><time>2026-04-13T13:44:29Z</time></trkpt><trkpt lat="43.74059939379491" lon="11.813893954869911"><ele>413.0</ele><time>2026-04-13T13:44:30Z</time></trkpt><trkpt lat="43.74076373493609" lon="11.813940315916927"><ele>413.0</ele><time>2026-04-13T13:44:31Z</time></trkpt><trkpt lat="43.74092651160407" lon="11.813987941308456"><ele>413.0</ele><time>2026-04-13T13:44:32Z</time></trkpt><trkpt lat="43.74109308509021" lon="11.814029481145973"><ele>413.0</ele><time>2026-04-13T13:44:33Z</time></trkpt><trkpt lat="43.74126227335059" lon="11.81407198233531"><ele>414.0</ele><time>2026-04-13T13:44:34Z</time></trkpt><trkpt lat="43.74143032827292" lon="11.814114668157119"><ele>415.0</ele><time>2026-04-13T13:44:35Z</time></trkpt><trkpt lat="43.74159808830234" lon="11.814154923682269"><ele>416.0</ele><time>2026-04-13T13:44:36Z</time></trkpt><trkpt lat="43.74176058222515" lon="11.814198744507557"><ele>418.0</ele><time>2026-04-13T13:44:37Z</time></trkpt><trkpt lat="43.741921804153144" lon="11.81424294356935"><ele>420.0</ele><time>2026-04-13T13:44:38Z</time></trkpt><trkpt lat="43.742083306459" lon="11.814280254867663"><ele>422.0</ele><time>2026-04-13T13:44:39Z</time></trkpt><trkpt lat="43.742239017941145" lon="11.814312916261644"><ele>421.5</ele><time>2026-04-13T13:44:40Z</time></trkpt><trkpt lat="43.74238544233816" lon="11.81434841521271"><ele>421.0</ele><time>2026-04-13T13:44:41Z</time></trkpt><trkpt lat="43.74252033332076" lon="11.814391229469038"><ele>420.5</ele><time>2026-04-13T13:44:42Z</time></trkpt><trkpt lat="43.7426482218872" lon="11.81446448963624"><ele>420.0</ele><time>2026-04-13T13:44:43Z</time></trkpt><trkpt lat="43.74277306897612" lon="11.814567848457378"><ele>422.0</ele><time>2026-04-13T13:44:44Z</time></trkpt><trkpt lat="43.74289888618353" lon="11.81469140646598"><ele>424.0</ele><time>2026-04-13T13:44:45Z</time></trkpt><trkpt lat="43.743022388103505" lon="11.814823157535175"><ele>426.0</ele><time>2026-04-13T13:44:46Z</time></trkpt><trkpt lat="43.743142851245146" lon="11.81496067302593"><ele>426.0</ele><time>2026-04-13T13:44:47Z</time></trkpt><trkpt lat="43.74325339449419" lon="11.815086710277479"><ele>426.0</ele><time>2026-04-13T13:44:48Z</time></trkpt><trkpt lat="43.743355089083245" lon="11.815216097929543"><ele>426.0</ele><time>2026-04-13T13:44:49Z</time></trkpt><trkpt lat="43.74345582504177" lon="11.815358769319355"><ele>426.0</ele><time>2026-04-13T13:44:50Z</time></trkpt><trkpt lat="43.74355218019167" lon="11.815516312137918"><ele>426.0</ele><time>2026-04-13T13:44:51Z</time></trkpt><trkpt lat="43.74363825088322" lon="11.815694031259182"><ele>426.0</ele><time>2026-04-13T13:44:52Z</time></trkpt><trkpt lat="43.743710514755364" lon="11.815886249782487"><ele>426.0</ele><time>2026-04-13T13:44:53Z</time></trkpt><trkpt lat="43.74377781324781" lon="11.816083190796466"><ele>424.0</ele><time>2026-04-13T13:44:54Z</time></trkpt><trkpt lat="43.74385008400029" lon="11.816271249592907"><ele>422.0</ele><time>2026-04-13T13:44:55Z</time></trkpt><trkpt lat="43.743929932711104" lon="11.81644747734341"><ele>420.0</ele><time>2026-04-13T13:44:56Z</time></trkpt><trkpt lat="43.74402557025924" lon="11.81661094807849"><ele>420.0</ele><time>2026-04-13T13:44:57Z</time></trkpt><trkpt lat="43.74414208584188" lon="11.816756543670547"><ele>420.0</ele><time>2026-04-13T13:44:58Z</time></trkpt><trkpt lat="43.74427530380498" lon="11.81688346933355"><ele>420.0</ele><time>2026-04-13T13:44:59Z</time></trkpt><trkpt lat="43.74441251596107" lon="11.817008726903895"><ele>421.0</ele><time>2026-04-13T13:45:00Z</time></trkpt><trkpt lat="43.7445527470493" lon="11.817137934687528"><ele>422.0</ele><time>2026-04-13T13:45:01Z</time></trkpt><trkpt lat="43.74469636498713" lon="11.817263708489424"><ele>423.0</ele><time>2026-04-13T13:45:02Z</time></trkpt><trkpt lat="43.74484255579629" lon="11.817370782693773"><ele>423.0</ele><time>2026-04-13T13:45:03Z</time></trkpt><trkpt lat="43.744984073864735" lon="11.817460163328168"><ele>423.0</ele><time>2026-04-13T13:45:04Z</time></trkpt><trkpt lat="43.7451187161339" lon="11.817547990960495"><ele>423.0</ele><time>2026-04-13T13:45:05Z</time></trkpt><trkpt lat="43.74525076398936" lon="11.817647983571753"><ele>423.0</ele><time>2026-04-13T13:45:06Z</time></trkpt><trkpt lat="43.74537912759483" lon="11.817757154099038"><ele>423.0</ele><time>2026-04-13T13:45:07Z</time></trkpt><trkpt lat="43.74549656093286" lon="11.817873061843855"><ele>423.0</ele><time>2026-04-13T13:45:08Z</time></trkpt><trkpt lat="43.74560027805631" lon="11.817996947260106"><ele>423.0</ele><time>2026-04-13T13:45:09Z</time></trkpt><trkpt lat="43.74569344612365" lon="11.818127351658942"><ele>423.0</ele><time>2026-04-13T13:45:10Z</time></trkpt><trkpt lat="43.74577899910851" lon="11.818257466068513"><ele>423.0</ele><time>2026-04-13T13:45:11Z</time></trkpt><trkpt lat="43.74586261329768" lon="11.818378495210293"><ele>423.0</ele><time>2026-04-13T13:45:12Z</time></trkpt><trkpt lat="43.74596407498189" lon="11.818480219058536"><ele>423.0</ele><time>2026-04-13T13:45:13Z</time></trkpt><trkpt lat="43.74608339443937" lon="11.818561320187259"><ele>423.5</ele><time>2026-04-13T13:45:14Z</time></trkpt><trkpt lat="43.74621040818539" lon="11.81864408667732"><ele>424.0</ele><time>2026-04-13T13:45:15Z</time></trkpt><trkpt lat="43.74633795555517" lon="11.818732230463928"><ele>424.5</ele><time>2026-04-13T13:45:16Z</time></trkpt><trkpt lat="43.746465664097194" lon="11.818833862173838"><ele>425.0</ele><time>2026-04-13T13:45:17Z</time></trkpt><trkpt lat="43.7465914660943" lon="11.818947162993242"><ele>425.0</ele><time>2026-04-13T13:45:18Z</time></trkpt><trkpt lat="43.74671611229247" lon="11.819064977795515"><ele>425.0</ele><time>2026-04-13T13:45:19.001Z</time></trkpt><trkpt lat="43.74684225452153" lon="11.819183869730024"><ele>425.0</ele><time>2026-04-13T13:45:20.001Z</time></trkpt><trkpt lat="43.74697064406997" lon="11.819304094922154"><ele>427.0</ele><time>2026-04-13T13:45:21.001Z</time></trkpt><trkpt lat="43.747098762843116" lon="11.819424146567712"><ele>429.0</ele><time>2026-04-13T13:45:22.001Z</time></trkpt><trkpt lat="43.74722695546517" lon="11.81954124719433"><ele>431.0</ele><time>2026-04-13T13:45:23.001Z</time></trkpt><trkpt lat="43.747356692845685" lon="11.819658583403323"><ele>431.0</ele><time>2026-04-13T13:45:24.001Z</time></trkpt><trkpt lat="43.74748448806731" lon="11.819769672982137"><ele>431.0</ele><time>2026-04-13T13:45:25.001Z</time></trkpt><trkpt lat="43.747612283024736" lon="11.819887498487375"><ele>431.0</ele><time>2026-04-13T13:45:26.001Z</time></trkpt><trkpt lat="43.747735527364064" lon="11.820005702782485"><ele>430.5</ele><time>2026-04-13T13:45:27.001Z</time></trkpt><trkpt lat="43.747859514092944" lon="11.820123343581"><ele>430.0</ele><time>2026-04-13T13:45:28.001Z</time></trkpt><trkpt lat="43.74798320101506" lon="11.820229598344252"><ele>429.5</ele><time>2026-04-13T13:45:29.001Z</time></trkpt><trkpt lat="43.748106346994085" lon="11.820338584596234"><ele>429.0</ele><time>2026-04-13T13:45:30.001Z</time></trkpt><trkpt lat="43.74822627677117" lon="11.820453928181031"><ele>429.0</ele><time>2026-04-13T13:45:31.001Z</time></trkpt><trkpt lat="43.748342650784714" lon="11.820575715111524"><ele>429.0</ele><time>2026-04-13T13:45:32.001Z</time></trkpt><trkpt lat="43.74844952666346" lon="11.820705015205712"><ele>429.0</ele><time>2026-04-13T13:45:33.001Z</time></trkpt><trkpt lat="43.74854586043626" lon="11.820828691591421"><ele>429.0</ele><time>2026-04-13T13:45:34.001Z</time></trkpt><trkpt lat="43.74863753181344" lon="11.820944337732964"><ele>429.5</ele><time>2026-04-13T13:45:35.001Z</time></trkpt><trkpt lat="43.74872516697664" lon="11.821058009196735"><ele>430.0</ele><time>2026-04-13T13:45:36.001Z</time></trkpt><trkpt lat="43.748813941586675" lon="11.821174423230561"><ele>430.5</ele><time>2026-04-13T13:45:37.001Z</time></trkpt><trkpt lat="43.74890983428661" lon="11.821298890428315"><ele>431.0</ele><time>2026-04-13T13:45:38.001Z</time></trkpt><trkpt lat="43.74900874042447" lon="11.821425549662377"><ele>431.0</ele><time>2026-04-13T13:45:39.001Z</time></trkpt><trkpt lat="43.74911377061724" lon="11.821555380721211"><ele>431.0</ele><time>2026-04-13T13:45:40.001Z</time></trkpt><trkpt lat="43.74922068760047" lon="11.821687833651177"><ele>431.0</ele><time>2026-04-13T13:45:41.001Z</time></trkpt><trkpt lat="43.749326786741875" lon="11.821821904164961"><ele>431.0</ele><time>2026-04-13T13:45:42.001Z</time></trkpt><trkpt lat="43.74942049495165" lon="11.821948765907635"><ele>432.0</ele><time>2026-04-13T13:45:43.001Z</time></trkpt><trkpt lat="43.74949965897344" lon="11.822083796720447"><ele>433.0</ele><time>2026-04-13T13:45:44.001Z</time></trkpt><trkpt lat="43.74956791812352" lon="11.822217487740312"><ele>434.0</ele><time>2026-04-13T13:45:45.001Z</time></trkpt><trkpt lat="43.749621700428925" lon="11.822355256192974"><ele>435.0</ele><time>2026-04-13T13:45:46.001Z</time></trkpt><trkpt lat="43.74967173443225" lon="11.82249451479501"><ele>435.0</ele><time>2026-04-13T13:45:47.001Z</time></trkpt><trkpt lat="43.74972063370573" lon="11.822627978273673"><ele>435.0</ele><time>2026-04-13T13:45:48.001Z</time></trkpt><trkpt lat="43.749787712362874" lon="11.822755054228644"><ele>435.0</ele><time>2026-04-13T13:45:49.001Z</time></trkpt><trkpt lat="43.749872303763375" lon="11.82287532577246"><ele>435.0</ele><time>2026-04-13T13:45:50.001Z</time></trkpt><trkpt lat="43.74996869842715" lon="11.822989532890276"><ele>434.75</ele><time>2026-04-13T13:45:51.001Z</time></trkpt><trkpt lat="43.750068788874664" lon="11.823105859969187"><ele>434.5</ele><time>2026-04-13T13:45:52.001Z</time></trkpt><trkpt lat="43.75016946772917" lon="11.82322278319699"><ele>434.25</ele><time>2026-04-13T13:45:53.001Z</time></trkpt><trkpt lat="43.750277001544156" lon="11.823343451829393"><ele>434.0</ele><time>2026-04-13T13:45:54.001Z</time></trkpt><trkpt lat="43.75039050241085" lon="11.823455059890911"><ele>435.5</ele><time>2026-04-13T13:45:55.001Z</time></trkpt><trkpt lat="43.75050498972035" lon="11.82359160872077"><ele>437.0</ele><time>2026-04-13T13:45:56.001Z</time></trkpt><trkpt lat="43.75061637847751" lon="11.823720558544656"><ele>438.5</ele><time>2026-04-13T13:45:57.001Z</time></trkpt><trkpt lat="43.75072261675043" lon="11.82383599677519"><ele>440.0</ele><time>2026-04-13T13:45:58.001Z</time></trkpt><trkpt lat="43.75083169817628" lon="11.823950052439082"><ele>440.0</ele><time>2026-04-13T13:45:59.001Z</time></trkpt><trkpt lat="43.75094398180765" lon="11.824071056155146"><ele>440.0</ele><time>2026-04-13T13:46:00.001Z</time></trkpt><trkpt lat="43.75105908405655" lon="11.824201360827777"><ele>440.0</ele><time>2026-04-13T13:46:01.001Z</time></trkpt><trkpt lat="43.75117541534896" lon="11.824334158875635"><ele>440.0</ele><time>2026-04-13T13:46:02.001Z</time></trkpt><trkpt lat="43.75129829864563" lon="11.824473756618183"><ele>442.3333333333333</ele><time>2026-04-13T13:46:03.001Z</time></trkpt><trkpt lat="43.75142166533215" lon="11.8246181886081"><ele>444.66666666666663</ele><time>2026-04-13T13:46:04.001Z</time></trkpt><trkpt lat="43.75154284796495" lon="11.824772051647807"><ele>447.0</ele><time>2026-04-13T13:46:05.001Z</time></trkpt><trkpt lat="43.75166344362383" lon="11.824931682827408"><ele>447.0</ele><time>2026-04-13T13:46:06.001Z</time></trkpt><trkpt lat="43.75178162242983" lon="11.82509362914864"><ele>447.0</ele><time>2026-04-13T13:46:07.001Z</time></trkpt><trkpt lat="43.7518973862951" lon="11.825254906753853"><ele>447.0</ele><time>2026-04-13T13:46:08.001Z</time></trkpt><trkpt lat="43.7520159164777" lon="11.825399770898043"><ele>447.33333333333337</ele><time>2026-04-13T13:46:09.001Z</time></trkpt><trkpt lat="43.752147665114514" lon="11.825527271671408"><ele>447.6666666666667</ele><time>2026-04-13T13:46:10.001Z</time></trkpt><trkpt lat="43.75229059949343" lon="11.82563365136236"><ele>448.0</ele><time>2026-04-13T13:46:11.001Z</time></trkpt><trkpt lat="43.75243770928829" lon="11.825729376553907"><ele>448.0</ele><time>2026-04-13T13:46:12.001Z</time></trkpt><trkpt lat="43.75259394718102" lon="11.825809746281363"><ele>448.0</ele><time>2026-04-13T13:46:13.001Z</time></trkpt><trkpt lat="43.75274465495196" lon="11.825880934163179"><ele>448.0</ele><time>2026-04-13T13:46:14.001Z</time></trkpt><trkpt lat="43.75289535174872" lon="11.825938181547512"><ele>447.33333333333337</ele><time>2026-04-13T13:46:15.001Z</time></trkpt><trkpt lat="43.75305242638362" lon="11.825984261348033"><ele>446.66666666666663</ele><time>2026-04-13T13:46:16.001Z</time></trkpt><trkpt lat="43.75321190368799" lon="11.826021816395402"><ele>446.0</ele><time>2026-04-13T13:46:17.001Z</time></trkpt><trkpt lat="43.75337231506117" lon="11.826057679360778"><ele>446.0</ele><time>2026-04-13T13:46:18.001Z</time></trkpt><trkpt lat="43.7535201849965" lon="11.826107709494966"><ele>446.0</ele><time>2026-04-13T13:46:19.001Z</time></trkpt><trkpt lat="43.753661745100935" lon="11.826192979606628"><ele>446.0</ele><time>2026-04-13T13:46:20.001Z</time></trkpt><trkpt lat="43.75379372796213" lon="11.826312619792619"><ele>450.0</ele><time>2026-04-13T13:46:21.001Z</time></trkpt><trkpt lat="43.753919381220676" lon="11.82644524316193"><ele>454.0</ele><time>2026-04-13T13:46:22.001Z</time></trkpt><trkpt lat="43.75403456455976" lon="11.826578417510136"><ele>458.0</ele><time>2026-04-13T13:46:23.001Z</time></trkpt><trkpt lat="43.754148733864426" lon="11.826705814623304"><ele>459.3333333333333</ele><time>2026-04-13T13:46:24.001Z</time></trkpt><trkpt lat="43.754275716261944" lon="11.826821335741581"><ele>460.66666666666663</ele><time>2026-04-13T13:46:25.001Z</time></trkpt><trkpt lat="43.75441744041098" lon="11.826914199153832"><ele>462.0</ele><time>2026-04-13T13:46:26.001Z</time></trkpt><trkpt lat="43.75457232816277" lon="11.826999620717606"><ele>462.0</ele><time>2026-04-13T13:46:27Z</time></trkpt><trkpt lat="43.75473184518519" lon="11.827088977209904"><ele>462.0</ele><time>2026-04-13T13:46:28Z</time></trkpt><trkpt lat="43.754893504198414" lon="11.827193321296834"><ele>462.0</ele><time>2026-04-13T13:46:29Z</time></trkpt><trkpt lat="43.75505353546401" lon="11.827317213575308"><ele>461.66666666666663</ele><time>2026-04-13T13:46:30Z</time></trkpt><trkpt lat="43.75521591465981" lon="11.827453102455465"><ele>461.3333333333333</ele><time>2026-04-13T13:46:31Z</time></trkpt><trkpt lat="43.75538052923445" lon="11.82759740913157"><ele>461.0</ele><time>2026-04-13T13:46:32Z</time></trkpt><trkpt lat="43.755547900232266" lon="11.827728392158745"><ele>461.0</ele><time>2026-04-13T13:46:33Z</time></trkpt><trkpt lat="43.75571488115" lon="11.827842393003237"><ele>461.0</ele><time>2026-04-13T13:46:34Z</time></trkpt><trkpt lat="43.755887374322086" lon="11.827945484224374"><ele>461.0</ele><time>2026-04-13T13:46:35Z</time></trkpt><trkpt lat="43.75605179387481" lon="11.828037812368533"><ele>466.0</ele><time>2026-04-13T13:46:36Z</time></trkpt><trkpt lat="43.75620504724205" lon="11.82812945047492"><ele>471.0</ele><time>2026-04-13T13:46:37Z</time></trkpt><trkpt lat="43.75634694308775" lon="11.828219315964889"><ele>476.0</ele><time>2026-04-13T13:46:38Z</time></trkpt><trkpt lat="43.75648078669239" lon="11.828313773377918"><ele>476.0</ele><time>2026-04-13T13:46:39Z</time></trkpt><trkpt lat="43.75660441548448" lon="11.828434502829344"><ele>476.0</ele><time>2026-04-13T13:46:40Z</time></trkpt><trkpt lat="43.75670461003672" lon="11.828580409076471"><ele>476.0</ele><time>2026-04-13T13:46:41Z</time></trkpt><trkpt lat="43.756774189611974" lon="11.828741593589069"><ele>476.0</ele><time>2026-04-13T13:46:42Z</time></trkpt><trkpt lat="43.756797239112544" lon="11.828935412117872"><ele>476.0</ele><time>2026-04-13T13:46:43Z</time></trkpt><trkpt lat="43.756803575781305" lon="11.829130546233781"><ele>476.0</ele><time>2026-04-13T13:46:44Z</time></trkpt><trkpt lat="43.75682367281126" lon="11.829319729757326"><ele>476.0</ele><time>2026-04-13T13:46:45Z</time></trkpt><trkpt lat="43.756883942863006" lon="11.829502058591983"><ele>476.0</ele><time>2026-04-13T13:46:46Z</time></trkpt><trkpt lat="43.756984347163815" lon="11.82967500960868"><ele>476.0</ele><time>2026-04-13T13:46:47Z</time></trkpt><trkpt lat="43.75711563162011" lon="11.829833275127449"><ele>476.0</ele><time>2026-04-13T13:46:48Z</time></trkpt><trkpt lat="43.75725977608921" lon="11.82995655595292"><ele>476.0</ele><time>2026-04-13T13:46:49Z</time></trkpt><trkpt lat="43.75741935157684" lon="11.830035487018522"><ele>476.0</ele><time>2026-04-13T13:46:50Z</time></trkpt><trkpt lat="43.75759557437137" lon="11.830083358316596"><ele>476.0</ele><time>2026-04-13T13:46:51Z</time></trkpt><trkpt lat="43.757779278112295" lon="11.830123573804753"><ele>476.0</ele><time>2026-04-13T13:46:52Z</time></trkpt><trkpt lat="43.75796014859476" lon="11.830164996177889"><ele>474.3333333333333</ele><time>2026-04-13T13:46:53Z</time></trkpt><trkpt lat="43.75813088414283" lon="11.830201775540868"><ele>472.66666666666663</ele><time>2026-04-13T13:46:54Z</time></trkpt><trkpt lat="43.75829410740179" lon="11.830237500387435"><ele>471.0</ele><time>2026-04-13T13:46:55Z</time></trkpt><trkpt lat="43.7584536766059" lon="11.830283598478962"><ele>480.0</ele><time>2026-04-13T13:46:56Z</time></trkpt><trkpt lat="43.758595876642744" lon="11.830390562345206"><ele>489.0</ele><time>2026-04-13T13:46:57Z</time></trkpt><trkpt lat="43.75871584344399" lon="11.830550464307338"><ele>498.0</ele><time>2026-04-13T13:46:58Z</time></trkpt><trkpt lat="43.758827407257556" lon="11.830726950808822"><ele>498.0</ele><time>2026-04-13T13:46:59Z</time></trkpt><trkpt lat="43.758953609202884" lon="11.830875491347186"><ele>498.0</ele><time>2026-04-13T13:47:00Z</time></trkpt><trkpt lat="43.75910396212992" lon="11.830978959113034"><ele>498.0</ele><time>2026-04-13T13:47:01Z</time></trkpt><trkpt lat="43.75926567405381" lon="11.831062473548814"><ele>498.66666666666663</ele><time>2026-04-13T13:47:02Z</time></trkpt><trkpt lat="43.75941594057546" lon="11.831142137808378"><ele>499.3333333333333</ele><time>2026-04-13T13:47:03Z</time></trkpt><trkpt lat="43.7595583957801" lon="11.83124117633169"><ele>500.0</ele><time>2026-04-13T13:47:04Z</time></trkpt><trkpt lat="43.75969854650717" lon="11.831364986943004"><ele>500.0</ele><time>2026-04-13T13:47:05Z</time></trkpt><trkpt lat="43.75983899681605" lon="11.831515040886678"><ele>500.0</ele><time>2026-04-13T13:47:06Z</time></trkpt><trkpt lat="43.75997432347194" lon="11.831678389185772"><ele>500.0</ele><time>2026-04-13T13:47:07Z</time></trkpt><trkpt lat="43.76010213628124" lon="11.831847573658823"><ele>506.3333333333333</ele><time>2026-04-13T13:47:08Z</time></trkpt><trkpt lat="43.76022230301232" lon="11.83203369827152"><ele>512.6666666666666</ele><time>2026-04-13T13:47:09Z</time></trkpt><trkpt lat="43.760328453134335" lon="11.832236725889857"><ele>519.0</ele><time>2026-04-13T13:47:10Z</time></trkpt><trkpt lat="43.76041580283899" lon="11.832457587146532"><ele>514.3333333333334</ele><time>2026-04-13T13:47:11Z</time></trkpt><trkpt lat="43.760488953847045" lon="11.832698465856806"><ele>509.6666666666667</ele><time>2026-04-13T13:47:12Z</time></trkpt><trkpt lat="43.7605681585639" lon="11.832940610102282"><ele>505.0</ele><time>2026-04-13T13:47:13Z</time></trkpt><trkpt lat="43.7606550862142" lon="11.833176360243"><ele>505.0</ele><time>2026-04-13T13:47:14Z</time></trkpt><trkpt lat="43.76074146810715" lon="11.833411351980647"><ele>505.0</ele><time>2026-04-13T13:47:15Z</time></trkpt><trkpt lat="43.76082384302197" lon="11.833644802434803"><ele>505.0</ele><time>2026-04-13T13:47:16Z</time></trkpt><trkpt lat="43.760901785058955" lon="11.833867378555125"><ele>506.33333333333337</ele><time>2026-04-13T13:47:17Z</time></trkpt><trkpt lat="43.760979050671615" lon="11.834080731916963"><ele>507.66666666666663</ele><time>2026-04-13T13:47:18Z</time></trkpt><trkpt lat="43.761058588773935" lon="11.834283250492945"><ele>509.0</ele><time>2026-04-13T13:47:19Z</time></trkpt><trkpt lat="43.761148529757406" lon="11.83447368826555"><ele>509.0</ele><time>2026-04-13T13:47:20Z</time></trkpt><trkpt lat="43.761261862253754" lon="11.834634066323629"><ele>509.0</ele><time>2026-04-13T13:47:21Z</time></trkpt><trkpt lat="43.76137940072344" lon="11.834777909667167"><ele>509.0</ele><time>2026-04-13T13:47:22Z</time></trkpt><trkpt lat="43.76146944871023" lon="11.834932381234548"><ele>509.0</ele><time>2026-04-13T13:47:23Z</time></trkpt><trkpt lat="43.761527065476194" lon="11.835100782875493"><ele>509.0</ele><time>2026-04-13T13:47:24Z</time></trkpt><trkpt lat="43.76157779943892" lon="11.83525234263336"><ele>509.0</ele><time>2026-04-13T13:47:25Z</time></trkpt><trkpt lat="43.76165151779817" lon="11.835365244602096"><ele>509.0</ele><time>2026-04-13T13:47:26Z</time></trkpt><trkpt lat="43.761769228875984" lon="11.83545174059654"><ele>507.0</ele><time>2026-04-13T13:47:27Z</time></trkpt><trkpt lat="43.76190112617886" lon="11.835469829323046"><ele>505.0</ele><time>2026-04-13T13:47:28Z</time></trkpt><trkpt lat="43.762044671962116" lon="11.835443129683668"><ele>503.0</ele><time>2026-04-13T13:47:29Z</time></trkpt><trkpt lat="43.76220576764534" lon="11.835406157771853"><ele>501.0</ele><time>2026-04-13T13:47:30Z</time></trkpt><trkpt lat="43.76236694068222" lon="11.83539981521839"><ele>501.0</ele><time>2026-04-13T13:47:31Z</time></trkpt><trkpt lat="43.76252626871882" lon="11.835397804590759"><ele>501.0</ele><time>2026-04-13T13:47:32Z</time></trkpt><trkpt lat="43.76267817272295" lon="11.835400162064857"><ele>501.0</ele><time>2026-04-13T13:47:33Z</time></trkpt><trkpt lat="43.76282771416433" lon="11.835473528055347"><ele>508.33333333333337</ele><time>2026-04-13T13:47:34Z</time></trkpt><trkpt lat="43.76297819418391" lon="11.8355986899393"><ele>515.6666666666667</ele><time>2026-04-13T13:47:35Z</time></trkpt><trkpt lat="43.76310757929252" lon="11.835754193839072"><ele>523.0</ele><time>2026-04-13T13:47:36Z</time></trkpt><trkpt lat="43.763235604869564" lon="11.835940704399881"><ele>520.3333333333334</ele><time>2026-04-13T13:47:37Z</time></trkpt><trkpt lat="43.76336513326871" lon="11.83612327554548"><ele>517.6666666666666</ele><time>2026-04-13T13:47:38Z</time></trkpt><trkpt lat="43.76349709416652" lon="11.836273516443889"><ele>515.0</ele><time>2026-04-13T13:47:39Z</time></trkpt><trkpt lat="43.763633036779254" lon="11.83640295067054"><ele>515.0</ele><time>2026-04-13T13:47:40Z</time></trkpt><trkpt lat="43.76377438568848" lon="11.836513673030023"><ele>515.0</ele><time>2026-04-13T13:47:41Z</time></trkpt><trkpt lat="43.7639198297267" lon="11.836580668433347"><ele>515.0</ele><time>2026-04-13T13:47:42Z</time></trkpt><trkpt lat="43.76407764599423" lon="11.836600360940174"><ele>515.0</ele><time>2026-04-13T13:47:43.001Z</time></trkpt><trkpt lat="43.764242683825614" lon="11.836582873064442"><ele>515.0</ele><time>2026-04-13T13:47:44.001Z</time></trkpt><trkpt lat="43.764408796968034" lon="11.83653228059186"><ele>515.0</ele><time>2026-04-13T13:47:45.001Z</time></trkpt><trkpt lat="43.76457548404252" lon="11.836467399071843"><ele>515.3333333333333</ele><time>2026-04-13T13:47:46.001Z</time></trkpt><trkpt lat="43.76474003829757" lon="11.836425886279317"><ele>515.6666666666666</ele><time>2026-04-13T13:47:47.001Z</time></trkpt><trkpt lat="43.76490070706892" lon="11.836466983848887"><ele>516.0</ele><time>2026-04-13T13:47:48.001Z</time></trkpt><trkpt lat="43.76506971492195" lon="11.836507989565387"><ele>515.0</ele><time>2026-04-13T13:47:49.001Z</time></trkpt><trkpt lat="43.76523597405303" lon="11.836527305775547"><ele>514.0</ele><time>2026-04-13T13:47:50.001Z</time></trkpt><trkpt lat="43.76539717027989" lon="11.83653073251456"><ele>513.0</ele><time>2026-04-13T13:47:51.001Z</time></trkpt><trkpt lat="43.76555166220674" lon="11.836506828782259"><ele>513.0</ele><time>2026-04-13T13:47:52.001Z</time></trkpt><trkpt lat="43.765708760541465" lon="11.836460162986548"><ele>513.0</ele><time>2026-04-13T13:47:53.001Z</time></trkpt><trkpt lat="43.765864043959965" lon="11.836378240668125"><ele>513.0</ele><time>2026-04-13T13:47:54.001Z</time></trkpt><trkpt lat="43.76601425903015" lon="11.836280863124827"><ele>510.0</ele><time>2026-04-13T13:47:55.001Z</time></trkpt><trkpt lat="43.766158508591815" lon="11.836197897651283"><ele>507.0</ele><time>2026-04-13T13:47:56.001Z</time></trkpt><trkpt lat="43.76631062005769" lon="11.836144468287856"><ele>504.0</ele><time>2026-04-13T13:47:57.001Z</time></trkpt><trkpt lat="43.76646485167097" lon="11.83613454283946"><ele>504.0</ele><time>2026-04-13T13:47:58.001Z</time></trkpt><trkpt lat="43.76661876079357" lon="11.836106811695114"><ele>504.0</ele><time>2026-04-13T13:47:59.001Z</time></trkpt><trkpt lat="43.766764781712425" lon="11.836073110914688"><ele>504.0</ele><time>2026-04-13T13:48:00.001Z</time></trkpt><trkpt lat="43.76690903940374" lon="11.836075225750148"><ele>504.0</ele><time>2026-04-13T13:48:01.001Z</time></trkpt><trkpt lat="43.76703666077442" lon="11.836121133617342"><ele>505.75</ele><time>2026-04-13T13:48:02.001Z</time></trkpt><trkpt lat="43.767143394345176" lon="11.836179920166327"><ele>507.5</ele><time>2026-04-13T13:48:03.001Z</time></trkpt><trkpt lat="43.76724158890053" lon="11.836261623345747"><ele>509.25</ele><time>2026-04-13T13:48:04.001Z</time></trkpt><trkpt lat="43.767315933708886" lon="11.836397320389484"><ele>511.0</ele><time>2026-04-13T13:48:05.001Z</time></trkpt><trkpt lat="43.76738599099738" lon="11.836531572655502"><ele>511.0</ele><time>2026-04-13T13:48:06.001Z</time></trkpt><trkpt lat="43.767445393474" lon="11.836664685549552"><ele>511.0</ele><time>2026-04-13T13:48:07.001Z</time></trkpt><trkpt lat="43.767484158928" lon="11.836802983823413"><ele>511.0</ele><time>2026-04-13T13:48:08.001Z</time></trkpt><trkpt lat="43.767470024752235" lon="11.836945082085592"><ele>511.0</ele><time>2026-04-13T13:48:09.001Z</time></trkpt><trkpt lat="43.76740256819431" lon="11.83706638316053"><ele>511.0</ele><time>2026-04-13T13:48:10.001Z</time></trkpt><trkpt lat="43.76729607192253" lon="11.837145502607093"><ele>511.75</ele><time>2026-04-13T13:48:11.001Z</time></trkpt><trkpt lat="43.767164608851935" lon="11.837188775463849"><ele>512.5</ele><time>2026-04-13T13:48:12.001Z</time></trkpt><trkpt lat="43.76704031949546" lon="11.837260957917401"><ele>513.25</ele><time>2026-04-13T13:48:13.001Z</time></trkpt><trkpt lat="43.76692185287023" lon="11.83733670665456"><ele>514.0</ele><time>2026-04-13T13:48:14.001Z</time></trkpt><trkpt lat="43.76681437161062" lon="11.837425313444193"><ele>514.0</ele><time>2026-04-13T13:48:15.001Z</time></trkpt><trkpt lat="43.76673208139563" lon="11.837553230082404"><ele>514.0</ele><time>2026-04-13T13:48:16.001Z</time></trkpt><trkpt lat="43.766685786867114" lon="11.837710034122196"><ele>514.0</ele><time>2026-04-13T13:48:17.001Z</time></trkpt><trkpt lat="43.76667910893313" lon="11.837885050646618"><ele>514.0</ele><time>2026-04-13T13:48:18.001Z</time></trkpt><trkpt lat="43.76670953629422" lon="11.838047126032404"><ele>514.75</ele><time>2026-04-13T13:48:19.001Z</time></trkpt><trkpt lat="43.76677516400587" lon="11.838205603056608"><ele>515.5</ele><time>2026-04-13T13:48:20.001Z</time></trkpt><trkpt lat="43.76686421628812" lon="11.838362352488774"><ele>516.25</ele><time>2026-04-13T13:48:21.001Z</time></trkpt><trkpt lat="43.76694517728052" lon="11.838524521899505"><ele>517.0</ele><time>2026-04-13T13:48:22.001Z</time></trkpt><trkpt lat="43.76700733540798" lon="11.838705257486993"><ele>527.0</ele><time>2026-04-13T13:48:23.001Z</time></trkpt><trkpt lat="43.767045735700286" lon="11.838904710217419"><ele>537.0</ele><time>2026-04-13T13:48:24.001Z</time></trkpt><trkpt lat="43.76705697072891" lon="11.839117325585573"><ele>547.0</ele><time>2026-04-13T13:48:25.001Z</time></trkpt><trkpt lat="43.76705799159906" lon="11.839344503059355"><ele>548.0</ele><time>2026-04-13T13:48:26.001Z</time></trkpt><trkpt lat="43.76706037497345" lon="11.839584641914056"><ele>549.0</ele><time>2026-04-13T13:48:27.001Z</time></trkpt><trkpt lat="43.76707419088621" lon="11.839827266740464"><ele>550.0</ele><time>2026-04-13T13:48:28.001Z</time></trkpt><trkpt lat="43.76709608672381" lon="11.84006332903457"><ele>548.3333333333334</ele><time>2026-04-13T13:48:29.001Z</time></trkpt><trkpt lat="43.76712266683004" lon="11.84029640832865"><ele>546.6666666666666</ele><time>2026-04-13T13:48:30.001Z</time></trkpt><trkpt lat="43.76714928463648" lon="11.840500038452321"><ele>545.0</ele><time>2026-04-13T13:48:31.001Z</time></trkpt><trkpt lat="43.76717573442231" lon="11.84068797978425"><ele>545.0</ele><time>2026-04-13T13:48:32.001Z</time></trkpt><trkpt lat="43.76720923074762" lon="11.840853109441014"><ele>545.0</ele><time>2026-04-13T13:48:33Z</time></trkpt><trkpt lat="43.76728350959863" lon="11.840975613153201"><ele>545.0</ele><time>2026-04-13T13:48:34Z</time></trkpt><trkpt lat="43.767398909308035" lon="11.84107531471049"><ele>545.0</ele><time>2026-04-13T13:48:35Z</time></trkpt><trkpt lat="43.76754551972363" lon="11.841140885087357"><ele>545.0</ele><time>2026-04-13T13:48:36Z</time></trkpt><trkpt lat="43.767705751280374" lon="11.841162602107923"><ele>545.0</ele><time>2026-04-13T13:48:37Z</time></trkpt><trkpt lat="43.76787723238376" lon="11.841164858186712"><ele>545.0</ele><time>2026-04-13T13:48:38Z</time></trkpt><trkpt lat="43.768060716689504" lon="11.84117201094228"><ele>545.0</ele><time>2026-04-13T13:48:39Z</time></trkpt><trkpt lat="43.76823822229303" lon="11.841224151239627"><ele>545.0</ele><time>2026-04-13T13:48:40Z</time></trkpt><trkpt lat="43.768407283223745" lon="11.841258353676"><ele>545.0</ele><time>2026-04-13T13:48:41Z</time></trkpt><trkpt lat="43.76856256910222" lon="11.84126726685624"><ele>551.5</ele><time>2026-04-13T13:48:42Z</time></trkpt><trkpt lat="43.768700481370885" lon="11.841297268388221"><ele>558.0</ele><time>2026-04-13T13:48:43Z</time></trkpt><trkpt lat="43.76882872558034" lon="11.84132370750824"><ele>564.5</ele><time>2026-04-13T13:48:44Z</time></trkpt><trkpt lat="43.76893923978368" lon="11.84136006962415"><ele>571.0</ele><time>2026-04-13T13:48:45Z</time></trkpt><trkpt lat="43.76901317709494" lon="11.841458296595706"><ele>571.0</ele><time>2026-04-13T13:48:46Z</time></trkpt><trkpt lat="43.76905240992461" lon="11.841623217515028"><ele>571.0</ele><time>2026-04-13T13:48:47Z</time></trkpt><trkpt lat="43.7690478034283" lon="11.84180136078381"><ele>571.0</ele><time>2026-04-13T13:48:48Z</time></trkpt><trkpt lat="43.769047421805496" lon="11.841985990405078"><ele>571.0</ele><time>2026-04-13T13:48:49Z</time></trkpt><trkpt lat="43.76907285430541" lon="11.842182248643816"><ele>568.25</ele><time>2026-04-13T13:48:50Z</time></trkpt><trkpt lat="43.7691143068353" lon="11.842364173804034"><ele>565.5</ele><time>2026-04-13T13:48:51Z</time></trkpt><trkpt lat="43.769162505300145" lon="11.842534721031463"><ele>562.75</ele><time>2026-04-13T13:48:52Z</time></trkpt><trkpt lat="43.76924008362301" lon="11.842698693762154"><ele>560.0</ele><time>2026-04-13T13:48:53Z</time></trkpt><trkpt lat="43.76932427472164" lon="11.842838814597156"><ele>564.5</ele><time>2026-04-13T13:48:54Z</time></trkpt><trkpt lat="43.769391819038226" lon="11.842996058801756"><ele>569.0</ele><time>2026-04-13T13:48:55Z</time></trkpt><trkpt lat="43.76941962412809" lon="11.843183550957741"><ele>573.5</ele><time>2026-04-13T13:48:56Z</time></trkpt><trkpt lat="43.7694417654638" lon="11.843363049328111"><ele>578.0</ele><time>2026-04-13T13:48:57Z</time></trkpt><trkpt lat="43.76946770712131" lon="11.843519398910603"><ele>578.0</ele><time>2026-04-13T13:48:58Z</time></trkpt><trkpt lat="43.76950893490509" lon="11.84366278091713"><ele>578.0</ele><time>2026-04-13T13:48:59Z</time></trkpt><trkpt lat="43.76956644916705" lon="11.843807691772536"><ele>578.0</ele><time>2026-04-13T13:49:00Z</time></trkpt><trkpt lat="43.76965814870065" lon="11.843937869747709"><ele>578.0</ele><time>2026-04-13T13:49:01Z</time></trkpt><trkpt lat="43.76978382829798" lon="11.844056397880609"><ele>578.0</ele><time>2026-04-13T13:49:02Z</time></trkpt><trkpt lat="43.769910759345585" lon="11.844174241350897"><ele>578.0</ele><time>2026-04-13T13:49:03Z</time></trkpt><trkpt lat="43.77002209285441" lon="11.844296496310934"><ele>578.0</ele><time>2026-04-13T13:49:04Z</time></trkpt><trkpt lat="43.7701176803634" lon="11.844429555745178"><ele>578.0</ele><time>2026-04-13T13:49:05Z</time></trkpt><trkpt lat="43.77019470238689" lon="11.844573477549382"><ele>582.8</ele><time>2026-04-13T13:49:06Z</time></trkpt><trkpt lat="43.770257448501766" lon="11.844716760113318"><ele>587.5999999999999</ele><time>2026-04-13T13:49:07Z</time></trkpt><trkpt lat="43.77030765259041" lon="11.844836164297577"><ele>592.4000000000001</ele><time>2026-04-13T13:49:08Z</time></trkpt><trkpt lat="43.77035084058685" lon="11.844933261011944"><ele>597.2</ele><time>2026-04-13T13:49:09Z</time></trkpt><trkpt lat="43.77039164998217" lon="11.845001263161395"><ele>602.0</ele><time>2026-04-13T13:49:10Z</time></trkpt><trkpt lat="43.77054274981187" lon="11.844928161269527"><ele>602.0</ele><time>2026-04-13T13:49:13Z</time></trkpt><trkpt lat="43.77055120319558" lon="11.844785404475928"><ele>602.0</ele><time>2026-04-13T13:49:14Z</time></trkpt><trkpt lat="43.77052143572402" lon="11.84463914218892"><ele>602.0</ele><time>2026-04-13T13:49:15Z</time></trkpt><trkpt lat="43.770441536196124" lon="11.844507219870394"><ele>602.0</ele><time>2026-04-13T13:49:16Z</time></trkpt><trkpt lat="43.770340021055915" lon="11.844393824132444"><ele>609.6666666666666</ele><time>2026-04-13T13:49:17Z</time></trkpt><trkpt lat="43.7702131197281" lon="11.844242647907334"><ele>617.3333333333334</ele><time>2026-04-13T13:49:18Z</time></trkpt><trkpt lat="43.7700948928356" lon="11.84409358072068"><ele>625.0</ele><time>2026-04-13T13:49:19Z</time></trkpt><trkpt lat="43.77000052411464" lon="11.843974543007885"><ele>618.5</ele><time>2026-04-13T13:49:20Z</time></trkpt><trkpt lat="43.769907863333934" lon="11.843882530261226"><ele>612.0</ele><time>2026-04-13T13:49:21Z</time></trkpt><trkpt lat="43.769842325513416" lon="11.843770610420187"><ele>605.5</ele><time>2026-04-13T13:49:22Z</time></trkpt><trkpt lat="43.76981486341288" lon="11.843624957547227"><ele>599.0</ele><time>2026-04-13T13:49:23Z</time></trkpt><trkpt lat="43.76984222500746" lon="11.843453118975502"><ele>599.0</ele><time>2026-04-13T13:49:24Z</time></trkpt><trkpt lat="43.76985569427356" lon="11.84324681992659"><ele>599.0</ele><time>2026-04-13T13:49:25Z</time></trkpt><trkpt lat="43.769861350759086" lon="11.843051963690984"><ele>599.0</ele><time>2026-04-13T13:49:26Z</time></trkpt><trkpt lat="43.76985563930682" lon="11.84286474178864"><ele>599.0</ele><time>2026-04-13T13:49:27Z</time></trkpt><trkpt lat="43.769802169708875" lon="11.842674112186828"><ele>601.0</ele><time>2026-04-13T13:49:28Z</time></trkpt><trkpt lat="43.76976934028017" lon="11.842506028204626"><ele>603.0</ele><time>2026-04-13T13:49:29Z</time></trkpt><trkpt lat="43.769744739277265" lon="11.842350598998308"><ele>605.0</ele><time>2026-04-13T13:49:30Z</time></trkpt><trkpt lat="43.76976016182283" lon="11.84218144228686"><ele>607.0</ele><time>2026-04-13T13:49:31Z</time></trkpt><trkpt lat="43.76979032843454" lon="11.842011415154056"><ele>607.0</ele><time>2026-04-13T13:49:32Z</time></trkpt><trkpt lat="43.76980282133636" lon="11.841827920554756"><ele>607.0</ele><time>2026-04-13T13:49:33Z</time></trkpt><trkpt lat="43.76981926003301" lon="11.841638243083448"><ele>607.0</ele><time>2026-04-13T13:49:34Z</time></trkpt><trkpt lat="43.7698331144204" lon="11.841443922810738"><ele>607.0</ele><time>2026-04-13T13:49:35Z</time></trkpt><trkpt lat="43.769846038133096" lon="11.841268533123712"><ele>607.25</ele><time>2026-04-13T13:49:36Z</time></trkpt><trkpt lat="43.76983729580718" lon="11.841107958589031"><ele>607.5</ele><time>2026-04-13T13:49:37Z</time></trkpt><trkpt lat="43.769803667657136" lon="11.840937976400724"><ele>607.75</ele><time>2026-04-13T13:49:38Z</time></trkpt><trkpt lat="43.769716212558166" lon="11.840778863178082"><ele>608.0</ele><time>2026-04-13T13:49:39Z</time></trkpt><trkpt lat="43.76963060887142" lon="11.840649848457186"><ele>609.0</ele><time>2026-04-13T13:49:40Z</time></trkpt><trkpt lat="43.76954541514132" lon="11.840525498430475"><ele>610.0</ele><time>2026-04-13T13:49:41Z</time></trkpt><trkpt lat="43.7694790751839" lon="11.840382127455216"><ele>611.0</ele><time>2026-04-13T13:49:42Z</time></trkpt><trkpt lat="43.76944689137529" lon="11.840232602665674"><ele>612.0</ele><time>2026-04-13T13:49:43Z</time></trkpt><trkpt lat="43.769451474637734" lon="11.84007290794806"><ele>614.25</ele><time>2026-04-13T13:49:44.001Z</time></trkpt><trkpt lat="43.76948030096109" lon="11.839885426931"><ele>616.5</ele><time>2026-04-13T13:49:45.001Z</time></trkpt><trkpt lat="43.76952097335694" lon="11.839701315945558"><ele>618.75</ele><time>2026-04-13T13:49:46.001Z</time></trkpt><trkpt lat="43.76955707448272" lon="11.839528121884966"><ele>621.0</ele><time>2026-04-13T13:49:47.001Z</time></trkpt><trkpt lat="43.76958779340568" lon="11.83934585344698"><ele>620.0</ele><time>2026-04-13T13:49:48.001Z</time></trkpt><trkpt lat="43.76963179241426" lon="11.839165184317565"><ele>619.0</ele><time>2026-04-13T13:49:49.001Z</time></trkpt><trkpt lat="43.76967975661498" lon="11.838997651930192"><ele>618.0</ele><time>2026-04-13T13:49:50.001Z</time></trkpt><trkpt lat="43.76973603645181" lon="11.838817122064626"><ele>617.0</ele><time>2026-04-13T13:49:51.001Z</time></trkpt><trkpt lat="43.76979402275854" lon="11.838631343492356"><ele>616.5</ele><time>2026-04-13T13:49:52.001Z</time></trkpt><trkpt lat="43.76985156665866" lon="11.83844217671984"><ele>616.0</ele><time>2026-04-13T13:49:53.001Z</time></trkpt><trkpt lat="43.76990686826623" lon="11.83826246923448"><ele>615.5</ele><time>2026-04-13T13:49:54.001Z</time></trkpt><trkpt lat="43.76996081795059" lon="11.838101088892648"><ele>615.0</ele><time>2026-04-13T13:49:55.001Z</time></trkpt><trkpt lat="43.7700190250539" lon="11.837932798517315"><ele>615.0</ele><time>2026-04-13T13:49:56.001Z</time></trkpt><trkpt lat="43.770076902430446" lon="11.837777519855361"><ele>615.0</ele><time>2026-04-13T13:49:57.001Z</time></trkpt><trkpt lat="43.77014612637802" lon="11.837656999228187"><ele>615.0</ele><time>2026-04-13T13:49:58.001Z</time></trkpt><trkpt lat="43.770241381166976" lon="11.83757154806752"><ele>615.0</ele><time>2026-04-13T13:49:59.001Z</time></trkpt><trkpt lat="43.770330231220804" lon="11.837453286104754"><ele>616.75</ele><time>2026-04-13T13:50:00.001Z</time></trkpt><trkpt lat="43.77047143641999" lon="11.837518603243147"><ele>618.5</ele><time>2026-04-13T13:50:01.001Z</time></trkpt><trkpt lat="43.77060170396436" lon="11.83754448271561"><ele>620.25</ele><time>2026-04-13T13:50:02.001Z</time></trkpt><trkpt lat="43.77073487423324" lon="11.837582778526308"><ele>622.0</ele><time>2026-04-13T13:50:03.001Z</time></trkpt><trkpt lat="43.770866661294356" lon="11.837619069701377"><ele>626.5</ele><time>2026-04-13T13:50:04.001Z</time></trkpt><trkpt lat="43.77097597293947" lon="11.837656896561207"><ele>631.0</ele><time>2026-04-13T13:50:05.001Z</time></trkpt><trkpt lat="43.771064678189475" lon="11.837723720879623"><ele>635.5</ele><time>2026-04-13T13:50:06.001Z</time></trkpt><trkpt lat="43.77115824035589" lon="11.837843223533834"><ele>640.0</ele><time>2026-04-13T13:50:07.001Z</time></trkpt><trkpt lat="43.77125184014551" lon="11.837973839587214"><ele>642.0</ele><time>2026-04-13T13:50:08.001Z</time></trkpt><trkpt lat="43.77135837483693" lon="11.838096458933167"><ele>644.0</ele><time>2026-04-13T13:50:09.001Z</time></trkpt><trkpt lat="43.77147589363779" lon="11.838197288545345"><ele>646.0</ele><time>2026-04-13T13:50:10.001Z</time></trkpt><trkpt lat="43.771591981063025" lon="11.838279713335437"><ele>648.0</ele><time>2026-04-13T13:50:11.001Z</time></trkpt><trkpt lat="43.771700046190524" lon="11.838348690220366"><ele>648.0</ele><time>2026-04-13T13:50:12.001Z</time></trkpt><trkpt lat="43.77180801580886" lon="11.838396001394564"><ele>648.0</ele><time>2026-04-13T13:50:13.001Z</time></trkpt><trkpt lat="43.77192013635783" lon="11.83839020285736"><ele>648.0</ele><time>2026-04-13T13:50:14.001Z</time></trkpt><trkpt lat="43.772035143344006" lon="11.838326451447942"><ele>648.0</ele><time>2026-04-13T13:50:15.001Z</time></trkpt><trkpt lat="43.77216533897826" lon="11.838222815098622"><ele>654.0</ele><time>2026-04-13T13:50:16.001Z</time></trkpt><trkpt lat="43.77227624481133" lon="11.838081144438759"><ele>660.0</ele><time>2026-04-13T13:50:17.001Z</time></trkpt><trkpt lat="43.77240892313741" lon="11.837966381550702"><ele>666.0</ele><time>2026-04-13T13:50:18.001Z</time></trkpt><trkpt lat="43.77254471299626" lon="11.837856401123323"><ele>666.0</ele><time>2026-04-13T13:50:19.001Z</time></trkpt><trkpt lat="43.772681854442325" lon="11.837777719267438"><ele>666.0</ele><time>2026-04-13T13:50:20.001Z</time></trkpt><trkpt lat="43.772800337382705" lon="11.837656676979057"><ele>666.0</ele><time>2026-04-13T13:50:21.001Z</time></trkpt><trkpt lat="43.77293780773747" lon="11.837564292184355"><ele>666.0</ele><time>2026-04-13T13:50:22.001Z</time></trkpt><trkpt lat="43.77309027365058" lon="11.837487741769912"><ele>666.6666666666666</ele><time>2026-04-13T13:50:23.001Z</time></trkpt><trkpt lat="43.773254188604" lon="11.837417973757107"><ele>667.3333333333333</ele><time>2026-04-13T13:50:24.001Z</time></trkpt><trkpt lat="43.77342274661765" lon="11.837359606931427"><ele>668.0</ele><time>2026-04-13T13:50:25.001Z</time></trkpt><trkpt lat="43.77357853306499" lon="11.837313994417222"><ele>672.0</ele><time>2026-04-13T13:50:26.001Z</time></trkpt><trkpt lat="43.773715105414645" lon="11.837271550403658"><ele>676.0</ele><time>2026-04-13T13:50:27.001Z</time></trkpt><trkpt lat="43.773834159410754" lon="11.837227912847522"><ele>680.0</ele><time>2026-04-13T13:50:28.001Z</time></trkpt><trkpt lat="43.77395167431822" lon="11.837210929902982"><ele>684.0</ele><time>2026-04-13T13:50:29.001Z</time></trkpt><trkpt lat="43.774071343231945" lon="11.837255782002076"><ele>684.0</ele><time>2026-04-13T13:50:30.001Z</time></trkpt><trkpt lat="43.774196454472424" lon="11.837331647625584"><ele>684.0</ele><time>2026-04-13T13:50:31.001Z</time></trkpt><trkpt lat="43.77431422653661" lon="11.837345245859673"><ele>684.0</ele><time>2026-04-13T13:50:32.001Z</time></trkpt><trkpt lat="43.77444422894956" lon="11.837325877472178"><ele>684.0</ele><time>2026-04-13T13:50:33.001Z</time></trkpt><trkpt lat="43.774572270642906" lon="11.837291501377118"><ele>687.75</ele><time>2026-04-13T13:50:34.001Z</time></trkpt><trkpt lat="43.77470160281574" lon="11.837262058672579"><ele>691.5</ele><time>2026-04-13T13:50:35.001Z</time></trkpt><trkpt lat="43.774832414610586" lon="11.83724809290898"><ele>695.25</ele><time>2026-04-13T13:50:36.001Z</time></trkpt><trkpt lat="43.7749625181851" lon="11.837256401013866"><ele>699.0</ele><time>2026-04-13T13:50:37.001Z</time></trkpt><trkpt lat="43.77509082865755" lon="11.83724822023488"><ele>703.5</ele><time>2026-04-13T13:50:38.001Z</time></trkpt><trkpt lat="43.775220011182746" lon="11.837208405735586"><ele>708.0</ele><time>2026-04-13T13:50:39Z</time></trkpt><trkpt lat="43.77535026661993" lon="11.837177204593546"><ele>712.5</ele><time>2026-04-13T13:50:40Z</time></trkpt><trkpt lat="43.77546974344037" lon="11.837120845597786"><ele>717.0</ele><time>2026-04-13T13:50:41Z</time></trkpt><trkpt lat="43.775563902575264" lon="11.837019925685256"><ele>717.0</ele><time>2026-04-13T13:50:42Z</time></trkpt><trkpt lat="43.77567721315283" lon="11.836972859894846"><ele>717.0</ele><time>2026-04-13T13:50:43Z</time></trkpt><trkpt lat="43.77578481018412" lon="11.836935678397582"><ele>717.0</ele><time>2026-04-13T13:50:44Z</time></trkpt><trkpt lat="43.77589695941302" lon="11.83690662940758"><ele>717.0</ele><time>2026-04-13T13:50:45Z</time></trkpt><trkpt lat="43.776015212808396" lon="11.836956618529928"><ele>718.25</ele><time>2026-04-13T13:50:46Z</time></trkpt><trkpt lat="43.77613901207219" lon="11.837035624493021"><ele>719.5</ele><time>2026-04-13T13:50:47Z</time></trkpt><trkpt lat="43.77627025294594" lon="11.837119465011673"><ele>720.75</ele><time>2026-04-13T13:50:48Z</time></trkpt><trkpt lat="43.776403081953305" lon="11.837193554729957"><ele>722.0</ele><time>2026-04-13T13:50:49Z</time></trkpt><trkpt lat="43.776535131175756" lon="11.837260122770434"><ele>722.0</ele><time>2026-04-13T13:50:50Z</time></trkpt><trkpt lat="43.77667241008557" lon="11.837282794349811"><ele>722.0</ele><time>2026-04-13T13:50:51Z</time></trkpt><trkpt lat="43.776812951777146" lon="11.83727153822947"><ele>722.0</ele><time>2026-04-13T13:50:52Z</time></trkpt><trkpt lat="43.77695406321309" lon="11.837236480738726"><ele>722.0</ele><time>2026-04-13T13:50:53Z</time></trkpt><trkpt lat="43.77708467713145" lon="11.837198962715318"><ele>726.0</ele><time>2026-04-13T13:50:54Z</time></trkpt><trkpt lat="43.77719919241415" lon="11.837170160608187"><ele>730.0</ele><time>2026-04-13T13:50:55Z</time></trkpt><trkpt lat="43.777321893974396" lon="11.837114499975902"><ele>734.0</ele><time>2026-04-13T13:50:56Z</time></trkpt><trkpt lat="43.77744601832125" lon="11.837020675693054"><ele>738.0</ele><time>2026-04-13T13:50:57Z</time></trkpt><trkpt lat="43.77756175003715" lon="11.836892576249369"><ele>733.5</ele><time>2026-04-13T13:50:58Z</time></trkpt><trkpt lat="43.777662905693994" lon="11.836772493417186"><ele>729.0</ele><time>2026-04-13T13:50:59Z</time></trkpt><trkpt lat="43.777756865279734" lon="11.836665447189036"><ele>724.5</ele><time>2026-04-13T13:51:00Z</time></trkpt><trkpt lat="43.77784638785654" lon="11.836571190424351"><ele>720.0</ele><time>2026-04-13T13:51:01Z</time></trkpt><trkpt lat="43.777938851701094" lon="11.836484946949806"><ele>720.0</ele><time>2026-04-13T13:51:02Z</time></trkpt><trkpt lat="43.77803059794464" lon="11.836423755857108"><ele>720.0</ele><time>2026-04-13T13:51:03Z</time></trkpt><trkpt lat="43.778135275843" lon="11.836454528647609"><ele>720.0</ele><time>2026-04-13T13:51:04Z</time></trkpt><trkpt lat="43.778251446904946" lon="11.836532697883651"><ele>720.0</ele><time>2026-04-13T13:51:05Z</time></trkpt><trkpt lat="43.77837263669887" lon="11.83661361046221"><ele>720.0</ele><time>2026-04-13T13:51:06Z</time></trkpt><trkpt lat="43.77850152506335" lon="11.83668478212252"><ele>720.0</ele><time>2026-04-13T13:51:07Z</time></trkpt><trkpt lat="43.778621229384655" lon="11.836755866722921"><ele>720.0</ele><time>2026-04-13T13:51:08Z</time></trkpt><trkpt lat="43.77873099047524" lon="11.836819192755504"><ele>720.0</ele><time>2026-04-13T13:51:09Z</time></trkpt><trkpt lat="43.77884706474496" lon="11.836842027990865"><ele>721.25</ele><time>2026-04-13T13:51:10Z</time></trkpt><trkpt lat="43.778977106204074" lon="11.836839359373768"><ele>722.5</ele><time>2026-04-13T13:51:11Z</time></trkpt><trkpt lat="43.779114472382616" lon="11.836766995464517"><ele>723.75</ele><time>2026-04-13T13:51:12Z</time></trkpt><trkpt lat="43.7792570638023" lon="11.8366930104527"><ele>725.0</ele><time>2026-04-13T13:51:13Z</time></trkpt><trkpt lat="43.779399353969" lon="11.836640499385073"><ele>727.75</ele><time>2026-04-13T13:51:14Z</time></trkpt><trkpt lat="43.779551653084035" lon="11.83658809559638"><ele>730.5</ele><time>2026-04-13T13:51:15Z</time></trkpt><trkpt lat="43.77969516599784" lon="11.836547141369422"><ele>733.25</ele><time>2026-04-13T13:51:16Z</time></trkpt><trkpt lat="43.779828865455315" lon="11.836530323890438"><ele>736.0</ele><time>2026-04-13T13:51:17Z</time></trkpt><trkpt lat="43.779958560338784" lon="11.8365233777244"><ele>736.0</ele><time>2026-04-13T13:51:18Z</time></trkpt><trkpt lat="43.780089868590885" lon="11.836517797994894"><ele>736.0</ele><time>2026-04-13T13:51:19Z</time></trkpt><trkpt lat="43.78021817016223" lon="11.836583829040888"><ele>736.0</ele><time>2026-04-13T13:51:20Z</time></trkpt><trkpt lat="43.780341887141375" lon="11.836652474228872"><ele>736.0</ele><time>2026-04-13T13:51:21Z</time></trkpt><trkpt lat="43.78047087387085" lon="11.836699628499689"><ele>738.5</ele><time>2026-04-13T13:51:22Z</time></trkpt><trkpt lat="43.78061110582188" lon="11.836690073609764"><ele>741.0</ele><time>2026-04-13T13:51:23Z</time></trkpt><trkpt lat="43.78075424995374" lon="11.83666461866836"><ele>743.5</ele><time>2026-04-13T13:51:24Z</time></trkpt><trkpt lat="43.78088790431618" lon="11.836587108718106"><ele>746.0</ele><time>2026-04-13T13:51:25Z</time></trkpt><trkpt lat="43.78101532577185" lon="11.836487718457809"><ele>754.25</ele><time>2026-04-13T13:51:26Z</time></trkpt><trkpt lat="43.781142512429774" lon="11.836424866341794"><ele>762.5</ele><time>2026-04-13T13:51:27Z</time></trkpt><trkpt lat="43.78125678756586" lon="11.836346646838003"><ele>770.75</ele><time>2026-04-13T13:51:28Z</time></trkpt><trkpt lat="43.78135871748748" lon="11.836258620565879"><ele>779.0</ele><time>2026-04-13T13:51:29Z</time></trkpt><trkpt lat="43.78141327226758" lon="11.83607637157777"><ele>771.75</ele><time>2026-04-13T13:51:30Z</time></trkpt><trkpt lat="43.78146974960081" lon="11.835903889617772"><ele>764.5</ele><time>2026-04-13T13:51:31Z</time></trkpt><trkpt lat="43.78154635272863" lon="11.835742082650462"><ele>757.25</ele><time>2026-04-13T13:51:32Z</time></trkpt><trkpt lat="43.78159381046512" lon="11.835578190543462"><ele>750.0</ele><time>2026-04-13T13:51:33Z</time></trkpt><trkpt lat="43.78167253448227" lon="11.835446913381915"><ele>750.0</ele><time>2026-04-13T13:51:34Z</time></trkpt><trkpt lat="43.781775757132486" lon="11.835346590144978"><ele>750.0</ele><time>2026-04-13T13:51:35Z</time></trkpt><trkpt lat="43.78190573008013" lon="11.835302708716"><ele>750.0</ele><time>2026-04-13T13:51:36Z</time></trkpt><trkpt lat="43.78201798951052" lon="11.835199423331169"><ele>750.0</ele><time>2026-04-13T13:51:37Z</time></trkpt><trkpt lat="43.78212484715462" lon="11.835052268268699"><ele>753.3333333333334</ele><time>2026-04-13T13:51:38Z</time></trkpt><trkpt lat="43.782222769733465" lon="11.834885007283269"><ele>756.6666666666667</ele><time>2026-04-13T13:51:39Z</time></trkpt><trkpt lat="43.78231502940708" lon="11.834706599843418"><ele>760.0</ele><time>2026-04-13T13:51:40Z</time></trkpt><trkpt lat="43.78240576280118" lon="11.834517143761772"><ele>760.0</ele><time>2026-04-13T13:51:41Z</time></trkpt><trkpt lat="43.78249282748195" lon="11.834309994073584"><ele>760.0</ele><time>2026-04-13T13:51:42Z</time></trkpt><trkpt lat="43.782566312708425" lon="11.834106663389226"><ele>760.0</ele><time>2026-04-13T13:51:43Z</time></trkpt><trkpt lat="43.782628453624824" lon="11.833914958525833"><ele>759.75</ele><time>2026-04-13T13:51:44Z</time></trkpt><trkpt lat="43.78268358437872" lon="11.833731337567073"><ele>759.5</ele><time>2026-04-13T13:51:45Z</time></trkpt><trkpt lat="43.78274540245501" lon="11.833585585213857"><ele>759.25</ele><time>2026-04-13T13:51:46Z</time></trkpt><trkpt lat="43.78283127048592" lon="11.833449215885032"><ele>759.0</ele><time>2026-04-13T13:51:47Z</time></trkpt><trkpt lat="43.782931428458944" lon="11.833309453578801"><ele>759.0</ele><time>2026-04-13T13:51:48Z</time></trkpt><trkpt lat="43.783035394627674" lon="11.833164377206883"><ele>759.0</ele><time>2026-04-13T13:51:49Z</time></trkpt><trkpt lat="43.78314584854487" lon="11.833009072294434"><ele>759.0</ele><time>2026-04-13T13:51:50Z</time></trkpt><trkpt lat="43.78325060634206" lon="11.832847215667607"><ele>759.0</ele><time>2026-04-13T13:51:51.001Z</time></trkpt><trkpt lat="43.783369916325675" lon="11.832712441975753"><ele>759.0</ele><time>2026-04-13T13:51:52.001Z</time></trkpt><trkpt lat="43.78348883568734" lon="11.832577640716204"><ele>759.0</ele><time>2026-04-13T13:51:53.001Z</time></trkpt><trkpt lat="43.783599834024415" lon="11.832436986757351"><ele>761.3333333333334</ele><time>2026-04-13T13:51:54.001Z</time></trkpt><trkpt lat="43.783704082729614" lon="11.832282206624765"><ele>763.6666666666667</ele><time>2026-04-13T13:51:55.001Z</time></trkpt><trkpt lat="43.78380102496488" lon="11.832106603606736"><ele>766.0</ele><time>2026-04-13T13:51:56.001Z</time></trkpt><trkpt lat="43.783884366209634" lon="11.831911302697057"><ele>765.0</ele><time>2026-04-13T13:51:57.001Z</time></trkpt><trkpt lat="43.78395949052889" lon="11.831710949889343"><ele>764.0</ele><time>2026-04-13T13:51:58.001Z</time></trkpt><trkpt lat="43.78402524990804" lon="11.831511254024988"><ele>763.0</ele><time>2026-04-13T13:51:59.001Z</time></trkpt><trkpt lat="43.78410589200041" lon="11.831331193669797"><ele>763.0</ele><time>2026-04-13T13:52:00.001Z</time></trkpt><trkpt lat="43.78417532447368" lon="11.831154305071628"><ele>763.0</ele><time>2026-04-13T13:52:01.001Z</time></trkpt><trkpt lat="43.784227753983586" lon="11.831013792888557"><ele>763.0</ele><time>2026-04-13T13:52:02.001Z</time></trkpt><trkpt lat="43.78430849967949" lon="11.830903336762283"><ele>763.0</ele><time>2026-04-13T13:52:03.001Z</time></trkpt><trkpt lat="43.78441133868558" lon="11.830821859979"><ele>766.25</ele><time>2026-04-13T13:52:04.001Z</time></trkpt><trkpt lat="43.78453568281491" lon="11.830778377643748"><ele>769.5</ele><time>2026-04-13T13:52:05.001Z</time></trkpt><trkpt lat="43.784656778482656" lon="11.830737002602353"><ele>772.75</ele><time>2026-04-13T13:52:06.001Z</time></trkpt><trkpt lat="43.784750405513755" lon="11.830631744699486"><ele>776.0</ele><time>2026-04-13T13:52:07.001Z</time></trkpt><trkpt lat="43.78482080149597" lon="11.83048532410359"><ele>776.0</ele><time>2026-04-13T13:52:08.001Z</time></trkpt><trkpt lat="43.78488858969691" lon="11.83033224643958"><ele>776.0</ele><time>2026-04-13T13:52:09.001Z</time></trkpt><trkpt lat="43.78491784355629" lon="11.830176288839745"><ele>776.0</ele><time>2026-04-13T13:52:10.001Z</time></trkpt><trkpt lat="43.784901780266004" lon="11.829997370238486"><ele>776.0</ele><time>2026-04-13T13:52:11.001Z</time></trkpt><trkpt lat="43.78485713938023" lon="11.829837716002602"><ele>774.0</ele><time>2026-04-13T13:52:12.001Z</time></trkpt><trkpt lat="43.7848402381555" lon="11.829710065025683"><ele>772.0</ele><time>2026-04-13T13:52:13.001Z</time></trkpt><trkpt lat="43.78486780074492" lon="11.829582178953483"><ele>770.0</ele><time>2026-04-13T13:52:14.001Z</time></trkpt><trkpt lat="43.78492570827661" lon="11.829447009781807"><ele>768.0</ele><time>2026-04-13T13:52:15.001Z</time></trkpt><trkpt lat="43.78499812680234" lon="11.82929745135439"><ele>766.0</ele><time>2026-04-13T13:52:16.001Z</time></trkpt><trkpt lat="43.78507517185477" lon="11.82913491102915"><ele>763.6666666666667</ele><time>2026-04-13T13:52:17.001Z</time></trkpt><trkpt lat="43.785157252434516" lon="11.828962919810262"><ele>761.3333333333334</ele><time>2026-04-13T13:52:18.001Z</time></trkpt><trkpt lat="43.785261281876785" lon="11.828811057011235"><ele>759.0</ele><time>2026-04-13T13:52:19.001Z</time></trkpt><trkpt lat="43.78536808764753" lon="11.828664020977138"><ele>766.0</ele><time>2026-04-13T13:52:20.001Z</time></trkpt><trkpt lat="43.78548688107031" lon="11.828511272834554"><ele>773.0</ele><time>2026-04-13T13:52:21.001Z</time></trkpt><trkpt lat="43.78560785165791" lon="11.828357427183866"><ele>780.0</ele><time>2026-04-13T13:52:22.001Z</time></trkpt><trkpt lat="43.785730429308416" lon="11.828191063824237"><ele>780.0</ele><time>2026-04-13T13:52:23.001Z</time></trkpt><trkpt lat="43.78582152018751" lon="11.827990363480133"><ele>780.0</ele><time>2026-04-13T13:52:24.001Z</time></trkpt><trkpt lat="43.785918784030876" lon="11.827779194812928"><ele>780.0</ele><time>2026-04-13T13:52:25.001Z</time></trkpt><trkpt lat="43.78602372401533" lon="11.827592449526584"><ele>788.6666666666667</ele><time>2026-04-13T13:52:26.001Z</time></trkpt><trkpt lat="43.786103808172506" lon="11.827414404955206"><ele>797.3333333333334</ele><time>2026-04-13T13:52:27.001Z</time></trkpt><trkpt lat="43.786184494612954" lon="11.827233014521536"><ele>806.0</ele><time>2026-04-13T13:52:28.001Z</time></trkpt><trkpt lat="43.78626785019974" lon="11.827050759141022"><ele>806.0</ele><time>2026-04-13T13:52:29.001Z</time></trkpt><trkpt lat="43.786349289666404" lon="11.826881926681907"><ele>806.0</ele><time>2026-04-13T13:52:30.001Z</time></trkpt><trkpt lat="43.786456690453264" lon="11.826745080720183"><ele>806.0</ele><time>2026-04-13T13:52:31.001Z</time></trkpt><trkpt lat="43.78656785830971" lon="11.82659684614817"><ele>806.0</ele><time>2026-04-13T13:52:32.001Z</time></trkpt><trkpt lat="43.786645643422325" lon="11.826419855229684"><ele>807.0</ele><time>2026-04-13T13:52:33.001Z</time></trkpt><trkpt lat="43.786744950239665" lon="11.82625960176721"><ele>808.0</ele><time>2026-04-13T13:52:34.001Z</time></trkpt><trkpt lat="43.7868064696821" lon="11.826055125587725"><ele>809.0</ele><time>2026-04-13T13:52:35.001Z</time></trkpt><trkpt lat="43.786847251489604" lon="11.825856998118004"><ele>809.0</ele><time>2026-04-13T13:52:36.001Z</time></trkpt><trkpt lat="43.78688313749479" lon="11.825673142432896"><ele>809.0</ele><time>2026-04-13T13:52:37.001Z</time></trkpt><trkpt lat="43.78691618483625" lon="11.825503830304124"><ele>809.0</ele><time>2026-04-13T13:52:38.001Z</time></trkpt><trkpt lat="43.786958676189386" lon="11.825348623525876"><ele>809.0</ele><time>2026-04-13T13:52:39.001Z</time></trkpt><trkpt lat="43.7870320921707" lon="11.825216979693568"><ele>803.75</ele><time>2026-04-13T13:52:40.001Z</time></trkpt><trkpt lat="43.78711294589022" lon="11.825087665040403"><ele>798.5</ele><time>2026-04-13T13:52:41.001Z</time></trkpt><trkpt lat="43.78718217603499" lon="11.82495109419148"><ele>793.25</ele><time>2026-04-13T13:52:42.001Z</time></trkpt><trkpt lat="43.787238600186335" lon="11.824794944562306"><ele>788.0</ele><time>2026-04-13T13:52:43.001Z</time></trkpt><trkpt lat="43.78727185464527" lon="11.824628709568747"><ele>788.0</ele><time>2026-04-13T13:52:44.001Z</time></trkpt><trkpt lat="43.78728095011358" lon="11.82446379628185"><ele>788.0</ele><time>2026-04-13T13:52:45Z</time></trkpt><trkpt lat="43.7873028785213" lon="11.824314362497875"><ele>788.0</ele><time>2026-04-13T13:52:46Z</time></trkpt><trkpt lat="43.78735167408877" lon="11.824177660823318"><ele>788.0</ele><time>2026-04-13T13:52:47Z</time></trkpt><trkpt lat="43.78743077182691" lon="11.8240548877999"><ele>788.5</ele><time>2026-04-13T13:52:48Z</time></trkpt><trkpt lat="43.787509463141966" lon="11.82395282753441"><ele>789.0</ele><time>2026-04-13T13:52:49Z</time></trkpt><trkpt lat="43.78762020118082" lon="11.823924811163648"><ele>789.5</ele><time>2026-04-13T13:52:50Z</time></trkpt><trkpt lat="43.78774669711335" lon="11.823940632382142"><ele>790.0</ele><time>2026-04-13T13:52:51Z</time></trkpt><trkpt lat="43.78787901828852" lon="11.823964104827498"><ele>790.0</ele><time>2026-04-13T13:52:52Z</time></trkpt><trkpt lat="43.78801330023481" lon="11.823982572848516"><ele>790.0</ele><time>2026-04-13T13:52:53Z</time></trkpt><trkpt lat="43.788158718207804" lon="11.823991796918106"><ele>790.0</ele><time>2026-04-13T13:52:54Z</time></trkpt><trkpt lat="43.78829863376219" lon="11.824010101076036"><ele>790.0</ele><time>2026-04-13T13:52:55Z</time></trkpt><trkpt lat="43.78842353786022" lon="11.823978168626766"><ele>795.5</ele><time>2026-04-13T13:52:56Z</time></trkpt><trkpt lat="43.78853324269029" lon="11.823923153940108"><ele>801.0</ele><time>2026-04-13T13:52:57Z</time></trkpt><trkpt lat="43.78864188702996" lon="11.823859704147054"><ele>806.5</ele><time>2026-04-13T13:52:58Z</time></trkpt><trkpt lat="43.78877361052592" lon="11.823872492487222"><ele>812.0</ele><time>2026-04-13T13:52:59Z</time></trkpt><trkpt lat="43.788909845357416" lon="11.82390196814622"><ele>812.0</ele><time>2026-04-13T13:53:00Z</time></trkpt><trkpt lat="43.78904642199879" lon="11.823882122661521"><ele>812.0</ele><time>2026-04-13T13:53:01Z</time></trkpt><trkpt lat="43.789178451028434" lon="11.823877881175843"><ele>812.0</ele><time>2026-04-13T13:53:02Z</time></trkpt><trkpt lat="43.789312593506935" lon="11.823867860515486"><ele>812.0</ele><time>2026-04-13T13:53:03Z</time></trkpt><trkpt lat="43.789444071674474" lon="11.82383157702606"><ele>819.3333333333334</ele><time>2026-04-13T13:53:04Z</time></trkpt><trkpt lat="43.78957600779276" lon="11.823762626354993"><ele>826.6666666666667</ele><time>2026-04-13T13:53:05Z</time></trkpt><trkpt lat="43.789717806797434" lon="11.823720873851329"><ele>834.0</ele><time>2026-04-13T13:53:06Z</time></trkpt><trkpt lat="43.78989445045414" lon="11.82364316522708"><ele>834.0</ele><time>2026-04-13T13:53:07Z</time></trkpt><trkpt lat="43.79005617508635" lon="11.823567871522556"><ele>834.0</ele><time>2026-04-13T13:53:08Z</time></trkpt><trkpt lat="43.790218389377465" lon="11.82346324347924"><ele>834.0</ele><time>2026-04-13T13:53:09Z</time></trkpt><trkpt lat="43.79036169697786" lon="11.823351411301008"><ele>827.3333333333333</ele><time>2026-04-13T13:53:10Z</time></trkpt><trkpt lat="43.790513490147916" lon="11.823239336822255"><ele>820.6666666666666</ele><time>2026-04-13T13:53:11Z</time></trkpt><trkpt lat="43.790659533310546" lon="11.8231586686243"><ele>814.0</ele><time>2026-04-13T13:53:12Z</time></trkpt><trkpt lat="43.79079500594882" lon="11.823075792589298"><ele>814.0</ele><time>2026-04-13T13:53:13Z</time></trkpt><trkpt lat="43.79092889742305" lon="11.822971096613136"><ele>814.0</ele><time>2026-04-13T13:53:14Z</time></trkpt><trkpt lat="43.79104823942813" lon="11.822868089703743"><ele>814.0</ele><time>2026-04-13T13:53:15Z</time></trkpt><trkpt lat="43.79116793784719" lon="11.822793303068407"><ele>814.0</ele><time>2026-04-13T13:53:16Z</time></trkpt><trkpt lat="43.79127882686377" lon="11.822736601981378"><ele>811.75</ele><time>2026-04-13T13:53:17Z</time></trkpt><trkpt lat="43.791402302389535" lon="11.822674234901617"><ele>809.5</ele><time>2026-04-13T13:53:18Z</time></trkpt><trkpt lat="43.79152530296434" lon="11.822587413990776"><ele>807.25</ele><time>2026-04-13T13:53:19Z</time></trkpt><trkpt lat="43.79162302114132" lon="11.822455938606794"><ele>805.0</ele><time>2026-04-13T13:53:20Z</time></trkpt><trkpt lat="43.791714384271124" lon="11.822329505257128"><ele>805.0</ele><time>2026-04-13T13:53:21Z</time></trkpt><trkpt lat="43.791803829857514" lon="11.822202177987874"><ele>805.0</ele><time>2026-04-13T13:53:22Z</time></trkpt><trkpt lat="43.79189200048098" lon="11.822070016057282"><ele>805.0</ele><time>2026-04-13T13:53:23Z</time></trkpt><trkpt lat="43.79197232259857" lon="11.821956758617016"><ele>805.0</ele><time>2026-04-13T13:53:24Z</time></trkpt><trkpt lat="43.79204782941216" lon="11.821839825454925"><ele>807.5</ele><time>2026-04-13T13:53:25Z</time></trkpt><trkpt lat="43.79215557616211" lon="11.821774477642442"><ele>810.0</ele><time>2026-04-13T13:53:26Z</time></trkpt><trkpt lat="43.79226278136897" lon="11.821688058840088"><ele>812.5</ele><time>2026-04-13T13:53:27Z</time></trkpt><trkpt lat="43.792360294250464" lon="11.82157377011313"><ele>815.0</ele><time>2026-04-13T13:53:28Z</time></trkpt><trkpt lat="43.79242160977462" lon="11.82145143016161"><ele>815.0</ele><time>2026-04-13T13:53:29Z</time></trkpt><trkpt lat="43.79249706695596" lon="11.821375521182803"><ele>815.0</ele><time>2026-04-13T13:53:30Z</time></trkpt><trkpt lat="43.79257983562364" lon="11.82135008293611"><ele>815.0</ele><time>2026-04-13T13:53:31Z</time></trkpt><trkpt lat="43.79267535575866" lon="11.821378675361533"><ele>815.0</ele><time>2026-04-13T13:53:32Z</time></trkpt><trkpt lat="43.79277020450743" lon="11.821427553031931"><ele>815.0</ele><time>2026-04-13T13:53:33Z</time></trkpt><trkpt lat="43.79287041389616" lon="11.821461796897443"><ele>820.0</ele><time>2026-04-13T13:53:34Z</time></trkpt><trkpt lat="43.792974905493985" lon="11.821497504071901"><ele>825.0</ele><time>2026-04-13T13:53:35Z</time></trkpt><trkpt lat="43.79307665187595" lon="11.821527387381806"><ele>830.0</ele><time>2026-04-13T13:53:36Z</time></trkpt><trkpt lat="43.79320303865399" lon="11.821557410958448"><ele>835.0</ele><time>2026-04-13T13:53:37Z</time></trkpt><trkpt lat="43.793320004149" lon="11.82158384441044"><ele>835.0</ele><time>2026-04-13T13:53:38Z</time></trkpt><trkpt lat="43.79344129587111" lon="11.821611253250397"><ele>835.0</ele><time>2026-04-13T13:53:39Z</time></trkpt><trkpt lat="43.79355614943837" lon="11.821637207235828"><ele>835.0</ele><time>2026-04-13T13:53:40Z</time></trkpt><trkpt lat="43.79367834271629" lon="11.82149209321332"><ele>835.0</ele><time>2026-04-13T13:53:41Z</time></trkpt><trkpt lat="43.79376275334923" lon="11.821405247195248"><ele>833.2</ele><time>2026-04-13T13:53:42Z</time></trkpt><trkpt lat="43.79383753994422" lon="11.821300462261286"><ele>831.4</ele><time>2026-04-13T13:53:43Z</time></trkpt><trkpt lat="43.793902013631296" lon="11.821183745686971"><ele>829.5999999999999</ele><time>2026-04-13T13:53:44Z</time></trkpt><trkpt lat="43.79395890775504" lon="11.821079485026726"><ele>827.8</ele><time>2026-04-13T13:53:45Z</time></trkpt><trkpt lat="43.794030334262935" lon="11.82099133719216"><ele>826.0</ele><time>2026-04-13T13:53:46Z</time></trkpt><trkpt lat="43.79410185201216" lon="11.820914528364144"><ele>825.9999999999999</ele><time>2026-04-13T13:53:47Z</time></trkpt><trkpt lat="43.794154793089525" lon="11.82083703076158"><ele>826.0</ele><time>2026-04-13T13:53:48Z</time></trkpt><trkpt lat="43.79420955688448" lon="11.820777817301545"><ele>826.0</ele><time>2026-04-13T13:53:49Z</time></trkpt><trkpt lat="43.794306507195024" lon="11.820684302858096"><ele>826.0</ele><time>2026-04-13T13:53:51Z</time></trkpt><trkpt lat="43.79433345690957" lon="11.820604267113985"><ele>825.9999999999999</ele><time>2026-04-13T13:53:52Z</time></trkpt><trkpt lat="43.79436759795702" lon="11.820520874324947"><ele>826.0</ele><time>2026-04-13T13:53:53Z</time></trkpt><trkpt lat="43.79441146734436" lon="11.82038332199267"><ele>827.3333333333333</ele><time>2026-04-13T13:53:55Z</time></trkpt><trkpt lat="43.794446917502846" lon="11.820272347241097"><ele>828.6666666666666</ele><time>2026-04-13T13:53:57Z</time></trkpt><trkpt lat="43.7944312620112" lon="11.820176800517968"><ele>830.0</ele><time>2026-04-13T13:54:00Z</time></trkpt><trkpt lat="43.794331698761084" lon="11.82014043275363"><ele>831.3333333333333</ele><time>2026-04-13T13:54:16.001Z</time></trkpt><trkpt lat="43.7942699609106" lon="11.820121525550695"><ele>832.6666666666666</ele><time>2026-04-13T13:54:17.001Z</time></trkpt><trkpt lat="43.79419367010315" lon="11.820106331605862"><ele>834.0</ele><time>2026-04-13T13:54:18.001Z</time></trkpt><trkpt lat="43.79410908246771" lon="11.82009477350277"><ele>834.2</ele><time>2026-04-13T13:54:19.001Z</time></trkpt><trkpt lat="43.794015355902026" lon="11.820079674755847"><ele>834.4000000000001</ele><time>2026-04-13T13:54:20.001Z</time></trkpt><trkpt lat="43.79390849451197" lon="11.820074077016011"><ele>834.6</ele><time>2026-04-13T13:54:21.001Z</time></trkpt><trkpt lat="43.793807182562865" lon="11.820063835516498"><ele>834.8</ele><time>2026-04-13T13:54:22.001Z</time></trkpt><trkpt lat="43.79370524369194" lon="11.820051564995472"><ele>835.0</ele><time>2026-04-13T13:54:23.001Z</time></trkpt><trkpt lat="43.793604831289336" lon="11.820035694374177"><ele>833.6</ele><time>2026-04-13T13:54:24.001Z</time></trkpt><trkpt lat="43.793503617476944" lon="11.820020396306147"><ele>832.2</ele><time>2026-04-13T13:54:25.001Z</time></trkpt><trkpt lat="43.79341193553987" lon="11.820007162906016"><ele>830.8</ele><time>2026-04-13T13:54:26.001Z</time></trkpt><trkpt lat="43.7933189702843" lon="11.819997888297719"><ele>829.4</ele><time>2026-04-13T13:54:27.001Z</time></trkpt><trkpt lat="43.79322433428641" lon="11.819990070509359"><ele>828.0</ele><time>2026-04-13T13:54:28.001Z</time></trkpt><trkpt lat="43.7931303436396" lon="11.819988019556542"><ele>828.0</ele><time>2026-04-13T13:54:29.001Z</time></trkpt><trkpt lat="43.793042606811525" lon="11.819990537422104"><ele>828.0</ele><time>2026-04-13T13:54:30.001Z</time></trkpt><trkpt lat="43.79295625255281" lon="11.819986224424667"><ele>828.0</ele><time>2026-04-13T13:54:31.001Z</time></trkpt><trkpt lat="43.79287431398234" lon="11.81995913094058"><ele>828.0</ele><time>2026-04-13T13:54:32.001Z</time></trkpt><trkpt lat="43.792785534566434" lon="11.819919066077976"><ele>828.0</ele><time>2026-04-13T13:54:33.001Z</time></trkpt><trkpt lat="43.79269587733886" lon="11.819891558945143"><ele>828.0</ele><time>2026-04-13T13:54:34.001Z</time></trkpt><trkpt lat="43.79262441579863" lon="11.819829158659369"><ele>827.0</ele><time>2026-04-13T13:54:35.001Z</time></trkpt><trkpt lat="43.79253238890922" lon="11.8197930433241"><ele>826.0</ele><time>2026-04-13T13:54:36.001Z</time></trkpt><trkpt lat="43.79243360194113" lon="11.819754276599705"><ele>825.0</ele><time>2026-04-13T13:54:37.001Z</time></trkpt><trkpt lat="43.792328033880736" lon="11.819712936897062"><ele>824.0</ele><time>2026-04-13T13:54:38.001Z</time></trkpt><trkpt lat="43.79220960055823" lon="11.819687779597867"><ele>823.0</ele><time>2026-04-13T13:54:39.001Z</time></trkpt><trkpt lat="43.79208800554852" lon="11.819646043402331"><ele>823.0</ele><time>2026-04-13T13:54:40.001Z</time></trkpt><trkpt lat="43.79196205670183" lon="11.819603442409417"><ele>823.0</ele><time>2026-04-13T13:54:41.001Z</time></trkpt><trkpt lat="43.79183569207473" lon="11.819559376663554"><ele>823.0</ele><time>2026-04-13T13:54:42.001Z</time></trkpt><trkpt lat="43.79171976359096" lon="11.819505623258504"><ele>823.0</ele><time>2026-04-13T13:54:43.001Z</time></trkpt><trkpt lat="43.791611866744326" lon="11.819430101866393"><ele>823.8</ele><time>2026-04-13T13:54:44.001Z</time></trkpt><trkpt lat="43.791503180784616" lon="11.819395913777443"><ele>824.5999999999999</ele><time>2026-04-13T13:54:45.001Z</time></trkpt><trkpt lat="43.79140932690942" lon="11.81932440950304"><ele>825.4000000000001</ele><time>2026-04-13T13:54:46.001Z</time></trkpt><trkpt lat="43.791311956169295" lon="11.819274571840053"><ele>826.2</ele><time>2026-04-13T13:54:47.001Z</time></trkpt><trkpt lat="43.79122451799726" lon="11.81923793874575"><ele>827.0</ele><time>2026-04-13T13:54:48.001Z</time></trkpt><trkpt lat="43.79112627565158" lon="11.819231364311056"><ele>830.25</ele><time>2026-04-13T13:54:49.001Z</time></trkpt><trkpt lat="43.79102604391991" lon="11.819291887416734"><ele>833.5</ele><time>2026-04-13T13:54:50.001Z</time></trkpt><trkpt lat="43.79095033352829" lon="11.819386977958217"><ele>836.75</ele><time>2026-04-13T13:54:51Z</time></trkpt><trkpt lat="43.79086351399561" lon="11.81950829984675"><ele>840.0</ele><time>2026-04-13T13:54:52Z</time></trkpt><trkpt lat="43.79077920923025" lon="11.819643594079091"><ele>840.0</ele><time>2026-04-13T13:54:53Z</time></trkpt><trkpt lat="43.79070383565323" lon="11.819797930429372"><ele>840.0</ele><time>2026-04-13T13:54:54Z</time></trkpt><trkpt lat="43.790653935322254" lon="11.81996644129435"><ele>840.0</ele><time>2026-04-13T13:54:55Z</time></trkpt><trkpt lat="43.79058777033594" lon="11.820117121800733"><ele>840.0</ele><time>2026-04-13T13:54:56Z</time></trkpt><trkpt lat="43.790549066917855" lon="11.82025926994455"><ele>837.2</ele><time>2026-04-13T13:54:57Z</time></trkpt><trkpt lat="43.790502587909394" lon="11.820367710961193"><ele>834.4</ele><time>2026-04-13T13:54:58Z</time></trkpt><trkpt lat="43.790436262161975" lon="11.820438804122569"><ele>831.5999999999999</ele><time>2026-04-13T13:54:59Z</time></trkpt><trkpt lat="43.79034024750121" lon="11.820436635582334"><ele>828.8</ele><time>2026-04-13T13:55:00Z</time></trkpt><trkpt lat="43.79023732797392" lon="11.820442052436517"><ele>826.0</ele><time>2026-04-13T13:55:01Z</time></trkpt><trkpt lat="43.79012628722748" lon="11.82039531610635"><ele>826.0</ele><time>2026-04-13T13:55:02Z</time></trkpt><trkpt lat="43.790012064743635" lon="11.820298900462287"><ele>826.0</ele><time>2026-04-13T13:55:03Z</time></trkpt><trkpt lat="43.78989098884244" lon="11.820199547482323"><ele>826.0</ele><time>2026-04-13T13:55:04Z</time></trkpt><trkpt lat="43.789755661119415" lon="11.820093126529626"><ele>826.0</ele><time>2026-04-13T13:55:05Z</time></trkpt><trkpt lat="43.78962360883091" lon="11.819993357762716"><ele>830.75</ele><time>2026-04-13T13:55:06Z</time></trkpt><trkpt lat="43.789486363755984" lon="11.819913122346932"><ele>835.5</ele><time>2026-04-13T13:55:07Z</time></trkpt><trkpt lat="43.789338818553624" lon="11.819885475784101"><ele>840.25</ele><time>2026-04-13T13:55:08Z</time></trkpt><trkpt lat="43.789201379090024" lon="11.81987148851894"><ele>845.0</ele><time>2026-04-13T13:55:09Z</time></trkpt><trkpt lat="43.78905923068266" lon="11.819860373626263"><ele>845.0</ele><time>2026-04-13T13:55:10Z</time></trkpt><trkpt lat="43.78891966757139" lon="11.819844764207684"><ele>845.0</ele><time>2026-04-13T13:55:11Z</time></trkpt><trkpt lat="43.78878210995877" lon="11.81982091850197"><ele>845.0</ele><time>2026-04-13T13:55:12Z</time></trkpt><trkpt lat="43.78864184161435" lon="11.819788003599903"><ele>845.0</ele><time>2026-04-13T13:55:13Z</time></trkpt><trkpt lat="43.78849932677158" lon="11.8197491285108"><ele>845.3333333333334</ele><time>2026-04-13T13:55:14Z</time></trkpt><trkpt lat="43.78835543191963" lon="11.819708193628667"><ele>845.6666666666667</ele><time>2026-04-13T13:55:15Z</time></trkpt><trkpt lat="43.78820537478786" lon="11.819666969242554"><ele>846.0</ele><time>2026-04-13T13:55:16Z</time></trkpt><trkpt lat="43.788053753802274" lon="11.819637669526214"><ele>846.0</ele><time>2026-04-13T13:55:17Z</time></trkpt><trkpt lat="43.78790132440089" lon="11.819626773419827"><ele>846.0</ele><time>2026-04-13T13:55:18Z</time></trkpt><trkpt lat="43.78774840389507" lon="11.819639997155878"><ele>846.0</ele><time>2026-04-13T13:55:19Z</time></trkpt><trkpt lat="43.787595393495394" lon="11.819674720438966"><ele>846.5</ele><time>2026-04-13T13:55:20Z</time></trkpt><trkpt lat="43.78745254514953" lon="11.819712244345084"><ele>847.0</ele><time>2026-04-13T13:55:21Z</time></trkpt><trkpt lat="43.787318772459024" lon="11.819744507687602"><ele>847.5</ele><time>2026-04-13T13:55:22Z</time></trkpt><trkpt lat="43.78719518316154" lon="11.819762762776447"><ele>848.0</ele><time>2026-04-13T13:55:23Z</time></trkpt><trkpt lat="43.787077117273704" lon="11.819753908901916"><ele>848.0</ele><time>2026-04-13T13:55:24Z</time></trkpt><trkpt lat="43.78696976361837" lon="11.819687092105465"><ele>848.0</ele><time>2026-04-13T13:55:25Z</time></trkpt><trkpt lat="43.78685317002501" lon="11.819597152331008"><ele>848.0</ele><time>2026-04-13T13:55:26Z</time></trkpt><trkpt lat="43.786732058142995" lon="11.819500813432434"><ele>848.0</ele><time>2026-04-13T13:55:27Z</time></trkpt><trkpt lat="43.78660750974827" lon="11.819391925360918"><ele>853.5</ele><time>2026-04-13T13:55:28Z</time></trkpt><trkpt lat="43.786484626160814" lon="11.819276038163181"><ele>859.0</ele><time>2026-04-13T13:55:29Z</time></trkpt><trkpt lat="43.78636509323394" lon="11.819169600744388"><ele>864.5</ele><time>2026-04-13T13:55:30Z</time></trkpt><trkpt lat="43.78626290386135" lon="11.819054357935494"><ele>870.0</ele><time>2026-04-13T13:55:31Z</time></trkpt><trkpt lat="43.78614497715501" lon="11.818962047475242"><ele>870.0</ele><time>2026-04-13T13:55:32Z</time></trkpt><trkpt lat="43.78601729700445" lon="11.818901416403532"><ele>870.0</ele><time>2026-04-13T13:55:33Z</time></trkpt><trkpt lat="43.78588689269287" lon="11.818865032198644"><ele>870.0</ele><time>2026-04-13T13:55:34Z</time></trkpt><trkpt lat="43.785747290178655" lon="11.81884712384506"><ele>870.0</ele><time>2026-04-13T13:55:35Z</time></trkpt><trkpt lat="43.78562182720203" lon="11.81883703496477"><ele>869.6</ele><time>2026-04-13T13:55:36Z</time></trkpt><trkpt lat="43.7855079844895" lon="11.8188402565077"><ele>869.2</ele><time>2026-04-13T13:55:37Z</time></trkpt><trkpt lat="43.78539505607267" lon="11.818845609496776"><ele>868.8</ele><time>2026-04-13T13:55:38Z</time></trkpt><trkpt lat="43.7853054314913" lon="11.818887891550563"><ele>868.4</ele><time>2026-04-13T13:55:39Z</time></trkpt><trkpt lat="43.785236485905784" lon="11.818965197665708"><ele>868.0</ele><time>2026-04-13T13:55:40Z</time></trkpt><trkpt lat="43.78516315751615" lon="11.819038382501892"><ele>869.6666666666666</ele><time>2026-04-13T13:55:41Z</time></trkpt><trkpt lat="43.785100528262696" lon="11.819132943494045"><ele>871.3333333333333</ele><time>2026-04-13T13:55:42Z</time></trkpt><trkpt lat="43.785034676045754" lon="11.819191890153613"><ele>873.0</ele><time>2026-04-13T13:55:43Z</time></trkpt><trkpt lat="43.78497614067343" lon="11.819289641080292"><ele>874.6666666666667</ele><time>2026-04-13T13:55:44Z</time></trkpt><trkpt lat="43.78490185279921" lon="11.819333149639974"><ele>876.3333333333334</ele><time>2026-04-13T13:55:45Z</time></trkpt><trkpt lat="43.784821067006256" lon="11.81940110585179"><ele>878.0</ele><time>2026-04-13T13:55:46Z</time></trkpt><trkpt lat="43.78473697644392" lon="11.819427703968685"><ele>878.0</ele><time>2026-04-13T13:55:47.001Z</time></trkpt><trkpt lat="43.784657584848475" lon="11.819399646478997"><ele>878.0</ele><time>2026-04-13T13:55:48.001Z</time></trkpt><trkpt lat="43.78459749430403" lon="11.81929020762626"><ele>878.0</ele><time>2026-04-13T13:55:49.001Z</time></trkpt><trkpt lat="43.78449910704408" lon="11.81921261375127"><ele>878.0</ele><time>2026-04-13T13:55:50.001Z</time></trkpt><trkpt lat="43.78441226581905" lon="11.819087137658931"><ele>878.0</ele><time>2026-04-13T13:55:51.001Z</time></trkpt><trkpt lat="43.78432540359482" lon="11.818962969790798"><ele>878.3333333333334</ele><time>2026-04-13T13:55:52.001Z</time></trkpt><trkpt lat="43.784224128298995" lon="11.81881437056874"><ele>878.6666666666667</ele><time>2026-04-13T13:55:53.001Z</time></trkpt><trkpt lat="43.78412058456568" lon="11.818669096612261"><ele>879.0</ele><time>2026-04-13T13:55:54.001Z</time></trkpt><trkpt lat="43.78400169649913" lon="11.818524568847435"><ele>887.0</ele><time>2026-04-13T13:55:55.001Z</time></trkpt><trkpt lat="43.783891091568144" lon="11.818375579405682"><ele>895.0</ele><time>2026-04-13T13:55:56.001Z</time></trkpt><trkpt lat="43.78378384411181" lon="11.818224530757584"><ele>903.0</ele><time>2026-04-13T13:55:57.001Z</time></trkpt><trkpt lat="43.78366763681954" lon="11.818089956645013"><ele>903.0</ele><time>2026-04-13T13:55:58.001Z</time></trkpt><trkpt lat="43.783545985424844" lon="11.81796517481643"><ele>903.0</ele><time>2026-04-13T13:55:59.001Z</time></trkpt><trkpt lat="43.78341092333786" lon="11.817839801723522"><ele>903.0</ele><time>2026-04-13T13:56:00.001Z</time></trkpt><trkpt lat="43.78327058648622" lon="11.817746640896281"><ele>902.5</ele><time>2026-04-13T13:56:01.001Z</time></trkpt><trkpt lat="43.78313576096459" lon="11.817655215955863"><ele>902.0</ele><time>2026-04-13T13:56:02.001Z</time></trkpt><trkpt lat="43.78300802733891" lon="11.81756801861627"><ele>901.5</ele><time>2026-04-13T13:56:03.001Z</time></trkpt><trkpt lat="43.7828795702774" lon="11.817458338242238"><ele>901.0</ele><time>2026-04-13T13:56:04.001Z</time></trkpt><trkpt lat="43.782742288284574" lon="11.817343056542722"><ele>906.6666666666666</ele><time>2026-04-13T13:56:05.001Z</time></trkpt><trkpt lat="43.78259700160964" lon="11.817235131486532"><ele>912.3333333333333</ele><time>2026-04-13T13:56:06.001Z</time></trkpt><trkpt lat="43.78245989443699" lon="11.817150159445195"><ele>918.0</ele><time>2026-04-13T13:56:07.001Z</time></trkpt><trkpt lat="43.78232841766892" lon="11.817023874395323"><ele>918.0</ele><time>2026-04-13T13:56:08.001Z</time></trkpt><trkpt lat="43.782219614025976" lon="11.816908339051048"><ele>918.0</ele><time>2026-04-13T13:56:09.001Z</time></trkpt><trkpt lat="43.782116090329104" lon="11.816784930364129"><ele>918.0</ele><time>2026-04-13T13:56:10.001Z</time></trkpt><trkpt lat="43.782028491220224" lon="11.816653921505422"><ele>918.0</ele><time>2026-04-13T13:56:11.001Z</time></trkpt><trkpt lat="43.78196032486206" lon="11.81650824741281"><ele>919.0</ele><time>2026-04-13T13:56:12.001Z</time></trkpt><trkpt lat="43.781917349781196" lon="11.816345864113387"><ele>920.0</ele><time>2026-04-13T13:56:13.001Z</time></trkpt><trkpt lat="43.78188694260825" lon="11.81617262975767"><ele>921.0</ele><time>2026-04-13T13:56:14.001Z</time></trkpt><trkpt lat="43.781857699855" lon="11.816012133983467"><ele>922.0</ele><time>2026-04-13T13:56:15.001Z</time></trkpt><trkpt lat="43.781852426585054" lon="11.815838955678615"><ele>923.25</ele><time>2026-04-13T13:56:16.001Z</time></trkpt><trkpt lat="43.781858721725065" lon="11.815678342032818"><ele>924.5</ele><time>2026-04-13T13:56:17.001Z</time></trkpt><trkpt lat="43.78190098333078" lon="11.815528821257683"><ele>925.75</ele><time>2026-04-13T13:56:18.001Z</time></trkpt><trkpt lat="43.78192657818412" lon="11.815363861357737"><ele>927.0</ele><time>2026-04-13T13:56:19.001Z</time></trkpt><trkpt lat="43.781971083379446" lon="11.815219653162496"><ele>926.25</ele><time>2026-04-13T13:56:20.001Z</time></trkpt><trkpt lat="43.782038252522476" lon="11.815085599116074"><ele>925.5</ele><time>2026-04-13T13:56:21.001Z</time></trkpt><trkpt lat="43.78211054017401" lon="11.814947884185793"><ele>924.75</ele><time>2026-04-13T13:56:22.001Z</time></trkpt><trkpt lat="43.78219713149262" lon="11.814830565879982"><ele>924.0</ele><time>2026-04-13T13:56:23.001Z</time></trkpt><trkpt lat="43.78228444489305" lon="11.814712446430411"><ele>924.0</ele><time>2026-04-13T13:56:24.001Z</time></trkpt><trkpt lat="43.78239404495473" lon="11.81463626116098"><ele>924.0000000000001</ele><time>2026-04-13T13:56:25.001Z</time></trkpt><trkpt lat="43.78249326578106" lon="11.814537570395153"><ele>924.0000000000001</ele><time>2026-04-13T13:56:26.001Z</time></trkpt><trkpt lat="43.78255834972271" lon="11.814430640542904"><ele>924.0</ele><time>2026-04-13T13:56:27.001Z</time></trkpt><trkpt lat="43.782621059422574" lon="11.814359171920698"><ele>924.0</ele><time>2026-04-13T13:56:28.001Z</time></trkpt><trkpt lat="43.7826443344423" lon="11.814234523600604"><ele>922.4000000000001</ele><time>2026-04-13T13:56:29.001Z</time></trkpt><trkpt lat="43.78266281322021" lon="11.814117313778597"><ele>920.8000000000001</ele><time>2026-04-13T13:56:30.001Z</time></trkpt><trkpt lat="43.78267298017215" lon="11.813992601880976"><ele>919.1999999999999</ele><time>2026-04-13T13:56:31.001Z</time></trkpt><trkpt lat="43.782663132298104" lon="11.81386240471329"><ele>917.5999999999999</ele><time>2026-04-13T13:56:32.001Z</time></trkpt><trkpt lat="43.78265335913393" lon="11.813724382718064"><ele>916.0</ele><time>2026-04-13T13:56:33.001Z</time></trkpt><trkpt lat="43.78264482008546" lon="11.813602957061747"><ele>915.9999999999999</ele><time>2026-04-13T13:56:34.001Z</time></trkpt><trkpt lat="43.78263614141776" lon="11.81350407490597"><ele>916.0</ele><time>2026-04-13T13:56:35.001Z</time></trkpt><trkpt lat="43.782654257476096" lon="11.813417965972459"><ele>916.0</ele><time>2026-04-13T13:56:37.001Z</time></trkpt><trkpt lat="43.782752412999" lon="11.813459768559301"><ele>916.0</ele><time>2026-04-13T13:56:39.001Z</time></trkpt><trkpt lat="43.782771069187895" lon="11.813575700976777"><ele>915.9999999999999</ele><time>2026-04-13T13:56:40.001Z</time></trkpt><trkpt lat="43.78280218120539" lon="11.813682656866662"><ele>916.0</ele><time>2026-04-13T13:56:41.001Z</time></trkpt><trkpt lat="43.78283219607582" lon="11.813808413613744"><ele>921.75</ele><time>2026-04-13T13:56:42.001Z</time></trkpt><trkpt lat="43.78284490524323" lon="11.813951831332188"><ele>927.5</ele><time>2026-04-13T13:56:43.001Z</time></trkpt><trkpt lat="43.782834080929646" lon="11.814098941368774"><ele>933.25</ele><time>2026-04-13T13:56:44.001Z</time></trkpt><trkpt lat="43.7828078976739" lon="11.814252229813622"><ele>939.0</ele><time>2026-04-13T13:56:45.001Z</time></trkpt><trkpt lat="43.78277210874806" lon="11.814431348977795"><ele>941.75</ele><time>2026-04-13T13:56:46.001Z</time></trkpt><trkpt lat="43.782752570128515" lon="11.814584924153944"><ele>944.5</ele><time>2026-04-13T13:56:47.001Z</time></trkpt><trkpt lat="43.782694265101696" lon="11.814746748412762"><ele>947.25</ele><time>2026-04-13T13:56:48.001Z</time></trkpt><trkpt lat="43.78264377277058" lon="11.814883493267747"><ele>950.0</ele><time>2026-04-13T13:56:49.001Z</time></trkpt><trkpt lat="43.78258567649892" lon="11.815000216310892"><ele>945.4</ele><time>2026-04-13T13:56:50.001Z</time></trkpt><trkpt lat="43.78252109165556" lon="11.815090198333488"><ele>940.8</ele><time>2026-04-13T13:56:51.001Z</time></trkpt><trkpt lat="43.782479607885755" lon="11.815211375156991"><ele>936.2</ele><time>2026-04-13T13:56:52.001Z</time></trkpt><trkpt lat="43.78245315303885" lon="11.815328134082895"><ele>931.6</ele><time>2026-04-13T13:56:53.001Z</time></trkpt><trkpt lat="43.782456205826605" lon="11.815467300782073"><ele>927.0</ele><time>2026-04-13T13:56:54.001Z</time></trkpt><trkpt lat="43.782521725926436" lon="11.815584141381063"><ele>927.0</ele><time>2026-04-13T13:56:55.001Z</time></trkpt><trkpt lat="43.7825829269801" lon="11.815733248617713"><ele>927.0</ele><time>2026-04-13T13:56:56.001Z</time></trkpt><trkpt lat="43.78265079743753" lon="11.815863840346342"><ele>927.0</ele><time>2026-04-13T13:56:57Z</time></trkpt><trkpt lat="43.78274460244264" lon="11.815980167024971"><ele>927.0</ele><time>2026-04-13T13:56:58Z</time></trkpt><trkpt lat="43.78283152629153" lon="11.816089393098162"><ele>928.75</ele><time>2026-04-13T13:56:59Z</time></trkpt><trkpt lat="43.782923802488014" lon="11.816217322915774"><ele>930.5</ele><time>2026-04-13T13:57:00Z</time></trkpt><trkpt lat="43.78301851035609" lon="11.816335511558227"><ele>932.25</ele><time>2026-04-13T13:57:01Z</time></trkpt><trkpt lat="43.783104180281846" lon="11.816448962151826"><ele>934.0</ele><time>2026-04-13T13:57:02Z</time></trkpt><trkpt lat="43.78318695192596" lon="11.816557645336534"><ele>934.0</ele><time>2026-04-13T13:57:03Z</time></trkpt><trkpt lat="43.78327211998458" lon="11.816661400911208"><ele>934.0000000000001</ele><time>2026-04-13T13:57:04Z</time></trkpt><trkpt lat="43.7833570127111" lon="11.816746715909714"><ele>934.0000000000001</ele><time>2026-04-13T13:57:05Z</time></trkpt><trkpt lat="43.783456010787376" lon="11.816793389554988"><ele>934.0</ele><time>2026-04-13T13:57:06Z</time></trkpt><trkpt lat="43.783559286461376" lon="11.81680652993504"><ele>934.0</ele><time>2026-04-13T13:57:07Z</time></trkpt><trkpt lat="43.783668635558556" lon="11.816737880752955"><ele>937.2</ele><time>2026-04-13T13:57:08Z</time></trkpt><trkpt lat="43.783777611521245" lon="11.816659605380185"><ele>940.4000000000001</ele><time>2026-04-13T13:57:09Z</time></trkpt><trkpt lat="43.78388626878751" lon="11.81658636211461"><ele>943.6</ele><time>2026-04-13T13:57:10Z</time></trkpt><trkpt lat="43.783987244623155" lon="11.816546861360939"><ele>946.8</ele><time>2026-04-13T13:57:11Z</time></trkpt><trkpt lat="43.7840770402829" lon="11.81654647803336"><ele>950.0</ele><time>2026-04-13T13:57:12Z</time></trkpt><trkpt lat="43.78415077919331" lon="11.816589229644894"><ele>950.0</ele><time>2026-04-13T13:57:13Z</time></trkpt><trkpt lat="43.78424343419717" lon="11.816684474375677"><ele>950.0</ele><time>2026-04-13T13:57:14Z</time></trkpt><trkpt lat="43.7843306359637" lon="11.816806231177221"><ele>950.0</ele><time>2026-04-13T13:57:15Z</time></trkpt><trkpt lat="43.78438652414167" lon="11.816955437641615"><ele>950.0</ele><time>2026-04-13T13:57:16Z</time></trkpt><trkpt lat="43.78443431966563" lon="11.817092515336983"><ele>947.2</ele><time>2026-04-13T13:57:17Z</time></trkpt><trkpt lat="43.784475853596014" lon="11.817209151656732"><ele>944.4</ele><time>2026-04-13T13:57:18Z</time></trkpt><trkpt lat="43.78453097755206" lon="11.817294448483539"><ele>941.5999999999999</ele><time>2026-04-13T13:57:19Z</time></trkpt><trkpt lat="43.784630603884004" lon="11.817335485595443"><ele>938.8</ele><time>2026-04-13T13:57:20Z</time></trkpt><trkpt lat="43.78474370282604" lon="11.817301367667733"><ele>936.0</ele><time>2026-04-13T13:57:21Z</time></trkpt><trkpt lat="43.78482873777702" lon="11.817208261876573"><ele>936.0</ele><time>2026-04-13T13:57:22Z</time></trkpt><trkpt lat="43.78486542293187" lon="11.817063734200984"><ele>936.0</ele><time>2026-04-13T13:57:23Z</time></trkpt><trkpt lat="43.784902964400224" lon="11.8169063051117"><ele>936.0</ele><time>2026-04-13T13:57:24Z</time></trkpt><trkpt lat="43.784939342909496" lon="11.816750505692863"><ele>936.0</ele><time>2026-04-13T13:57:25Z</time></trkpt><trkpt lat="43.785013232803585" lon="11.816594935154104"><ele>934.75</ele><time>2026-04-13T13:57:26Z</time></trkpt><trkpt lat="43.78508736242915" lon="11.816443466734695"><ele>933.5</ele><time>2026-04-13T13:57:27Z</time></trkpt><trkpt lat="43.78514852270534" lon="11.816280675730857"><ele>932.25</ele><time>2026-04-13T13:57:28Z</time></trkpt><trkpt lat="43.78521187137553" lon="11.816145136165119"><ele>931.0</ele><time>2026-04-13T13:57:29Z</time></trkpt><trkpt lat="43.78523468304638" lon="11.816006183421184"><ele>934.75</ele><time>2026-04-13T13:57:30Z</time></trkpt><trkpt lat="43.78523414080205" lon="11.815858590062165"><ele>938.5</ele><time>2026-04-13T13:57:31Z</time></trkpt><trkpt lat="43.78521629464681" lon="11.815676579515973"><ele>942.25</ele><time>2026-04-13T13:57:32Z</time></trkpt><trkpt lat="43.785227082388005" lon="11.815483596075483"><ele>946.0</ele><time>2026-04-13T13:57:33Z</time></trkpt><trkpt lat="43.78523089125449" lon="11.815288707179292"><ele>948.5</ele><time>2026-04-13T13:57:34Z</time></trkpt><trkpt lat="43.7852808475569" lon="11.81513167773663"><ele>951.0</ele><time>2026-04-13T13:57:35Z</time></trkpt><trkpt lat="43.78534336300627" lon="11.814992158435402"><ele>953.5</ele><time>2026-04-13T13:57:36Z</time></trkpt><trkpt lat="43.785427342759796" lon="11.81486381149618"><ele>956.0</ele><time>2026-04-13T13:57:37Z</time></trkpt><trkpt lat="43.785512476313" lon="11.814727541146969"><ele>956.0</ele><time>2026-04-13T13:57:38Z</time></trkpt><trkpt lat="43.78561157148392" lon="11.81461626918954"><ele>956.0</ele><time>2026-04-13T13:57:39Z</time></trkpt><trkpt lat="43.785686439556116" lon="11.814485746208572"><ele>956.0</ele><time>2026-04-13T13:57:40Z</time></trkpt><trkpt lat="43.78575580872581" lon="11.814318795892712"><ele>956.0</ele><time>2026-04-13T13:57:41Z</time></trkpt><trkpt lat="43.785807326940926" lon="11.81413652933261"><ele>957.0</ele><time>2026-04-13T13:57:42Z</time></trkpt><trkpt lat="43.78586700148353" lon="11.813947448313176"><ele>958.0</ele><time>2026-04-13T13:57:43Z</time></trkpt><trkpt lat="43.78593603578356" lon="11.81376105217645"><ele>959.0</ele><time>2026-04-13T13:57:44Z</time></trkpt><trkpt lat="43.78602889434324" lon="11.81360919175907"><ele>960.0</ele><time>2026-04-13T13:57:45Z</time></trkpt><trkpt lat="43.78609699189858" lon="11.813442431117512"><ele>963.25</ele><time>2026-04-13T13:57:46Z</time></trkpt><trkpt lat="43.78620022550178" lon="11.813299342947074"><ele>966.5</ele><time>2026-04-13T13:57:47Z</time></trkpt><trkpt lat="43.78630869918972" lon="11.81316082401834"><ele>969.75</ele><time>2026-04-13T13:57:48Z</time></trkpt><trkpt lat="43.786420365954356" lon="11.813018132753875"><ele>973.0</ele><time>2026-04-13T13:57:49Z</time></trkpt><trkpt lat="43.78654399010682" lon="11.812909636031833"><ele>973.0</ele><time>2026-04-13T13:57:50Z</time></trkpt><trkpt lat="43.78666411856471" lon="11.812781333300801"><ele>973.0</ele><time>2026-04-13T13:57:51Z</time></trkpt><trkpt lat="43.78678885834642" lon="11.812697881936831"><ele>973.0</ele><time>2026-04-13T13:57:52Z</time></trkpt><trkpt lat="43.786917684210664" lon="11.812642837207152"><ele>973.0</ele><time>2026-04-13T13:57:53.001Z</time></trkpt><trkpt lat="43.787060163517076" lon="11.812591744762573"><ele>977.75</ele><time>2026-04-13T13:57:54.001Z</time></trkpt><trkpt lat="43.78720077788282" lon="11.812524576120953"><ele>982.5</ele><time>2026-04-13T13:57:55.001Z</time></trkpt><trkpt lat="43.78731553391611" lon="11.812494328935715"><ele>987.25</ele><time>2026-04-13T13:57:56.001Z</time></trkpt><trkpt lat="43.78743228137741" lon="11.81248685760668"><ele>992.0</ele><time>2026-04-13T13:57:57.001Z</time></trkpt><trkpt lat="43.78754805313885" lon="11.812486479773387"><ele>992.0</ele><time>2026-04-13T13:57:58.001Z</time></trkpt><trkpt lat="43.78767117086542" lon="11.812526726792552"><ele>992.0</ele><time>2026-04-13T13:57:59.001Z</time></trkpt><trkpt lat="43.78779405442115" lon="11.812564045281603"><ele>992.0</ele><time>2026-04-13T13:58:00.001Z</time></trkpt><trkpt lat="43.787931556547946" lon="11.812605748756214"><ele>992.0</ele><time>2026-04-13T13:58:01.001Z</time></trkpt><trkpt lat="43.78806965817042" lon="11.812632936219059"><ele>992.25</ele><time>2026-04-13T13:58:02.001Z</time></trkpt><trkpt lat="43.788167281404775" lon="11.812625083750497"><ele>992.5</ele><time>2026-04-13T13:58:03.001Z</time></trkpt><trkpt lat="43.78827741874808" lon="11.812583675758427"><ele>992.75</ele><time>2026-04-13T13:58:04.001Z</time></trkpt><trkpt lat="43.788386845529445" lon="11.812473066054297"><ele>993.0</ele><time>2026-04-13T13:58:05.001Z</time></trkpt><trkpt lat="43.78849952721099" lon="11.812392708627554"><ele>993.8</ele><time>2026-04-13T13:58:06.001Z</time></trkpt><trkpt lat="43.788602924995196" lon="11.812349070156996"><ele>994.5999999999999</ele><time>2026-04-13T13:58:07.001Z</time></trkpt><trkpt lat="43.78870682425764" lon="11.812341426320536"><ele>995.4000000000001</ele><time>2026-04-13T13:58:08.001Z</time></trkpt><trkpt lat="43.78880522533595" lon="11.812385546681663"><ele>996.2</ele><time>2026-04-13T13:58:09.001Z</time></trkpt><trkpt lat="43.78893402991431" lon="11.812403505492162"><ele>997.0</ele><time>2026-04-13T13:58:10.001Z</time></trkpt><trkpt lat="43.789056394006614" lon="11.812368241463975"><ele>997.0</ele><time>2026-04-13T13:58:11.001Z</time></trkpt><trkpt lat="43.789200408686234" lon="11.812307800856281"><ele>997.0</ele><time>2026-04-13T13:58:12.001Z</time></trkpt><trkpt lat="43.789356740938246" lon="11.812291942178659"><ele>997.0</ele><time>2026-04-13T13:58:13.001Z</time></trkpt><trkpt lat="43.78949849950806" lon="11.81224382899592"><ele>997.5</ele><time>2026-04-13T13:58:14.001Z</time></trkpt><trkpt lat="43.789629076675624" lon="11.812279113125589"><ele>998.0</ele><time>2026-04-13T13:58:15.001Z</time></trkpt><trkpt lat="43.78973956228857" lon="11.81229755662098"><ele>998.5</ele><time>2026-04-13T13:58:16.001Z</time></trkpt><trkpt lat="43.78984836499271" lon="11.81231629220512"><ele>999.0</ele><time>2026-04-13T13:58:17.001Z</time></trkpt><trkpt lat="43.78995841394581" lon="11.812337060433503"><ele>999.0</ele><time>2026-04-13T13:58:18.001Z</time></trkpt><trkpt lat="43.790094353034775" lon="11.812356315561797"><ele>999.0000000000001</ele><time>2026-04-13T13:58:19.001Z</time></trkpt><trkpt lat="43.79019749368334" lon="11.812359780490493"><ele>999.0000000000001</ele><time>2026-04-13T13:58:20.001Z</time></trkpt><trkpt lat="43.790299998176046" lon="11.812337307052056"><ele>999.0</ele><time>2026-04-13T13:58:21.001Z</time></trkpt><trkpt lat="43.79038318588316" lon="11.812280806538613"><ele>999.0</ele><time>2026-04-13T13:58:22.001Z</time></trkpt><trkpt lat="43.79046296182537" lon="11.81221874866787"><ele>997.0</ele><time>2026-04-13T13:58:23.001Z</time></trkpt><trkpt lat="43.79053908730726" lon="11.812062632330914"><ele>995.0</ele><time>2026-04-13T13:58:24.001Z</time></trkpt><trkpt lat="43.790624713717634" lon="11.81188733484342"><ele>993.0</ele><time>2026-04-13T13:58:25.001Z</time></trkpt><trkpt lat="43.79068651730659" lon="11.811779851466317"><ele>991.0</ele><time>2026-04-13T13:58:26.001Z</time></trkpt><trkpt lat="43.790749662514806" lon="11.811697593020476"><ele>995.75</ele><time>2026-04-13T13:58:27.001Z</time></trkpt><trkpt lat="43.790839389392694" lon="11.81160863913987"><ele>1000.5</ele><time>2026-04-13T13:58:28.001Z</time></trkpt><trkpt lat="43.79095354547634" lon="11.811617141937955"><ele>1005.25</ele><time>2026-04-13T13:58:29.001Z</time></trkpt><trkpt lat="43.7910668562657" lon="11.811648719563358"><ele>1010.0</ele><time>2026-04-13T13:58:30.001Z</time></trkpt><trkpt lat="43.791195275518845" lon="11.811668914842652"><ele>1010.0</ele><time>2026-04-13T13:58:31.001Z</time></trkpt><trkpt lat="43.791313715856255" lon="11.811689607393337"><ele>1010.0</ele><time>2026-04-13T13:58:32.001Z</time></trkpt><trkpt lat="43.791442370018274" lon="11.811735384834499"><ele>1010.0</ele><time>2026-04-13T13:58:33.001Z</time></trkpt><trkpt lat="43.791586749595886" lon="11.811746364123712"><ele>1010.0</ele><time>2026-04-13T13:58:34.001Z</time></trkpt><trkpt lat="43.79171755807128" lon="11.811691213793946"><ele>1010.0</ele><time>2026-04-13T13:58:35.001Z</time></trkpt><trkpt lat="43.79182197314518" lon="11.811654774844934"><ele>1010.0</ele><time>2026-04-13T13:58:36.001Z</time></trkpt><trkpt lat="43.7919201815919" lon="11.811654881549877"><ele>1010.0</ele><time>2026-04-13T13:58:37.001Z</time></trkpt><trkpt lat="43.79203484870712" lon="11.81166032191152"><ele>1010.0</ele><time>2026-04-13T13:58:38.001Z</time></trkpt><trkpt lat="43.79211612521658" lon="11.811738242577931"><ele>1010.0</ele><time>2026-04-13T13:58:39.001Z</time></trkpt><trkpt lat="43.79220125661924" lon="11.811837917347262"><ele>1008.75</ele><time>2026-04-13T13:58:40.001Z</time></trkpt><trkpt lat="43.79233180087583" lon="11.811966396592208"><ele>1007.5</ele><time>2026-04-13T13:58:41.001Z</time></trkpt><trkpt lat="43.79242683238783" lon="11.812075566797365"><ele>1006.25</ele><time>2026-04-13T13:58:42.001Z</time></trkpt><trkpt lat="43.7925006188408" lon="11.812187677020304"><ele>1005.0</ele><time>2026-04-13T13:58:43.001Z</time></trkpt><trkpt lat="43.7925478896989" lon="11.812333034217517"><ele>1005.0</ele><time>2026-04-13T13:58:44.001Z</time></trkpt><trkpt lat="43.79257877013249" lon="11.812496940497782"><ele>1005.0</ele><time>2026-04-13T13:58:45.001Z</time></trkpt><trkpt lat="43.79260153587632" lon="11.812672546264869"><ele>1005.0</ele><time>2026-04-13T13:58:46.001Z</time></trkpt><trkpt lat="43.792621551487166" lon="11.812836114755289"><ele>1005.0</ele><time>2026-04-13T13:58:47.001Z</time></trkpt><trkpt lat="43.792658623085586" lon="11.812976916710877"><ele>1007.8</ele><time>2026-04-13T13:58:48.001Z</time></trkpt><trkpt lat="43.79269415166642" lon="11.813085910779273"><ele>1010.6</ele><time>2026-04-13T13:58:49.001Z</time></trkpt><trkpt lat="43.792753432069375" lon="11.813160314570407"><ele>1013.4000000000001</ele><time>2026-04-13T13:58:50.001Z</time></trkpt><trkpt lat="43.79283339466893" lon="11.813195889426895"><ele>1016.2</ele><time>2026-04-13T13:58:51.001Z</time></trkpt><trkpt lat="43.79293812884989" lon="11.81324372562216"><ele>1019.0</ele><time>2026-04-13T13:58:52.001Z</time></trkpt><trkpt lat="43.793040966083794" lon="11.81328120639763"><ele>1019.0</ele><time>2026-04-13T13:58:53.001Z</time></trkpt><trkpt lat="43.79312853598611" lon="11.813333549310794"><ele>1019.0000000000001</ele><time>2026-04-13T13:58:54.001Z</time></trkpt><trkpt lat="43.79319740379035" lon="11.813411195026559"><ele>1019.0000000000001</ele><time>2026-04-13T13:58:55.001Z</time></trkpt><trkpt lat="43.793255659708926" lon="11.813533485667147"><ele>1019.0</ele><time>2026-04-13T13:58:56.001Z</time></trkpt><trkpt lat="43.79327536530599" lon="11.813679265331375"><ele>1019.0</ele><time>2026-04-13T13:58:57.001Z</time></trkpt><trkpt lat="43.793256200669845" lon="11.813828133725375"><ele>1016.4000000000001</ele><time>2026-04-13T13:58:58.001Z</time></trkpt><trkpt lat="43.79324525797647" lon="11.813952097192852"><ele>1013.8000000000001</ele><time>2026-04-13T13:58:59.001Z</time></trkpt><trkpt lat="43.79322857546476" lon="11.814075385010105"><ele>1011.1999999999999</ele><time>2026-04-13T13:59:00.001Z</time></trkpt><trkpt lat="43.793241311952954" lon="11.814212538412932"><ele>1008.5999999999999</ele><time>2026-04-13T13:59:01.001Z</time></trkpt><trkpt lat="43.793269754152696" lon="11.814319283219085"><ele>1006.0</ele><time>2026-04-13T13:59:02.001Z</time></trkpt><trkpt lat="43.7933325418771" lon="11.814438910814692"><ele>1004.8</ele><time>2026-04-13T13:59:03Z</time></trkpt><trkpt lat="43.7934282073933" lon="11.814497603640094"><ele>1003.5999999999999</ele><time>2026-04-13T13:59:04Z</time></trkpt><trkpt lat="43.79354287495092" lon="11.814511979183212"><ele>1002.4</ele><time>2026-04-13T13:59:05Z</time></trkpt><trkpt lat="43.793654812967155" lon="11.81453080054692"><ele>1001.2</ele><time>2026-04-13T13:59:06Z</time></trkpt><trkpt lat="43.79375529129276" lon="11.814523939110098"><ele>1000.0</ele><time>2026-04-13T13:59:07Z</time></trkpt><trkpt lat="43.79385609338284" lon="11.814485734752134"><ele>1000.0</ele><time>2026-04-13T13:59:08Z</time></trkpt><trkpt lat="43.79396595824735" lon="11.81441257871346"><ele>1000.0</ele><time>2026-04-13T13:59:09Z</time></trkpt><trkpt lat="43.794051902305796" lon="11.814308317628871"><ele>1000.0</ele><time>2026-04-13T13:59:10Z</time></trkpt><trkpt lat="43.79414083908352" lon="11.814240612379743"><ele>1000.0</ele><time>2026-04-13T13:59:11Z</time></trkpt><trkpt lat="43.79421974014654" lon="11.814216826575404"><ele>1000.0</ele><time>2026-04-13T13:59:12Z</time></trkpt><trkpt lat="43.79430291004097" lon="11.81421538155429"><ele>1005.8</ele><time>2026-04-13T13:59:13Z</time></trkpt><trkpt lat="43.794367735019755" lon="11.814254643980764"><ele>1011.6</ele><time>2026-04-13T13:59:14Z</time></trkpt><trkpt lat="43.794450485536515" lon="11.814333103885998"><ele>1017.4000000000001</ele><time>2026-04-13T13:59:15Z</time></trkpt><trkpt lat="43.79448033515156" lon="11.814468248932204"><ele>1023.2</ele><time>2026-04-13T13:59:16Z</time></trkpt><trkpt lat="43.79449739127703" lon="11.814612119255019"><ele>1029.0</ele><time>2026-04-13T13:59:17Z</time></trkpt><trkpt lat="43.794503267789956" lon="11.814739838584176"><ele>1029.0</ele><time>2026-04-13T13:59:18Z</time></trkpt><trkpt lat="43.79453836104586" lon="11.814875044163339"><ele>1029.0</ele><time>2026-04-13T13:59:19Z</time></trkpt><trkpt lat="43.79458072024962" lon="11.815019255312581"><ele>1029.0</ele><time>2026-04-13T13:59:20Z</time></trkpt><trkpt lat="43.794676330060966" lon="11.815132575287716"><ele>1029.0</ele><time>2026-04-13T13:59:21Z</time></trkpt><trkpt lat="43.79476494504969" lon="11.815251966668443"><ele>1023.75</ele><time>2026-04-13T13:59:22Z</time></trkpt><trkpt lat="43.7948348095569" lon="11.81538529919757"><ele>1018.5</ele><time>2026-04-13T13:59:23Z</time></trkpt><trkpt lat="43.794923221414734" lon="11.815515203831673"><ele>1013.25</ele><time>2026-04-13T13:59:24Z</time></trkpt><trkpt lat="43.79500783978822" lon="11.815639534654771"><ele>1008.0</ele><time>2026-04-13T13:59:25Z</time></trkpt><trkpt lat="43.79509168092868" lon="11.815762723479116"><ele>1009.25</ele><time>2026-04-13T13:59:26Z</time></trkpt><trkpt lat="43.79518771812894" lon="11.815862621328472"><ele>1010.5</ele><time>2026-04-13T13:59:27Z</time></trkpt><trkpt lat="43.795267055477034" lon="11.81599582537191"><ele>1011.75</ele><time>2026-04-13T13:59:28Z</time></trkpt><trkpt lat="43.79533355004436" lon="11.816134951510136"><ele>1013.0</ele><time>2026-04-13T13:59:29Z</time></trkpt><trkpt lat="43.79539093137842" lon="11.816272669602021"><ele>1013.0</ele><time>2026-04-13T13:59:30Z</time></trkpt><trkpt lat="43.79543176282464" lon="11.816418197795484"><ele>1013.0</ele><time>2026-04-13T13:59:31Z</time></trkpt><trkpt lat="43.79546031438432" lon="11.81656215001055"><ele>1013.0</ele><time>2026-04-13T13:59:32Z</time></trkpt><trkpt lat="43.79551722646521" lon="11.816672148101393"><ele>1013.0</ele><time>2026-04-13T13:59:33Z</time></trkpt><trkpt lat="43.795586192641274" lon="11.816765722763328"><ele>1013.0</ele><time>2026-04-13T13:59:34Z</time></trkpt><trkpt lat="43.79566918636512" lon="11.816809885540335"><ele>1008.4</ele><time>2026-04-13T13:59:35Z</time></trkpt><trkpt lat="43.79577783252682" lon="11.816876235400958"><ele>1003.8</ele><time>2026-04-13T13:59:36Z</time></trkpt><trkpt lat="43.79589356761145" lon="11.81690037021838"><ele>999.2</ele><time>2026-04-13T13:59:37Z</time></trkpt><trkpt lat="43.79601402758681" lon="11.816918146606612"><ele>994.6</ele><time>2026-04-13T13:59:38Z</time></trkpt><trkpt lat="43.796102404255905" lon="11.816951310677416"><ele>990.0</ele><time>2026-04-13T13:59:39Z</time></trkpt><trkpt lat="43.79620307881215" lon="11.816997213430762"><ele>990.0</ele><time>2026-04-13T13:59:40Z</time></trkpt><trkpt lat="43.79628955779696" lon="11.817066933649954"><ele>990.0</ele><time>2026-04-13T13:59:41Z</time></trkpt><trkpt lat="43.79639004691491" lon="11.817137005324307"><ele>990.0</ele><time>2026-04-13T13:59:42Z</time></trkpt><trkpt lat="43.79647457453666" lon="11.817193001340254"><ele>990.0</ele><time>2026-04-13T13:59:43Z</time></trkpt><trkpt lat="43.79657155501075" lon="11.817224350171355"><ele>990.0</ele><time>2026-04-13T13:59:44Z</time></trkpt><trkpt lat="43.79667412837203" lon="11.817218832909534"><ele>990.0</ele><time>2026-04-13T13:59:45Z</time></trkpt><trkpt lat="43.79678156513993" lon="11.817145194075035"><ele>990.0</ele><time>2026-04-13T13:59:46Z</time></trkpt><trkpt lat="43.79689173514347" lon="11.817044607228944"><ele>990.0</ele><time>2026-04-13T13:59:47Z</time></trkpt><trkpt lat="43.79700009059986" lon="11.816950380964924"><ele>990.0</ele><time>2026-04-13T13:59:48Z</time></trkpt><trkpt lat="43.79711185368089" lon="11.81686226911684"><ele>994.2</ele><time>2026-04-13T13:59:49Z</time></trkpt><trkpt lat="43.79721773025808" lon="11.816807198647796"><ele>998.4</ele><time>2026-04-13T13:59:50Z</time></trkpt><trkpt lat="43.79733433227388" lon="11.816722735588986"><ele>1002.5999999999999</ele><time>2026-04-13T13:59:51Z</time></trkpt><trkpt lat="43.797409020931035" lon="11.816662866282726"><ele>1006.8</ele><time>2026-04-13T13:59:52Z</time></trkpt><trkpt lat="43.797494935917776" lon="11.816565847424188"><ele>1011.0</ele><time>2026-04-13T13:59:53Z</time></trkpt><trkpt lat="43.7975845453298" lon="11.816494471255643"><ele>1009.1999999999999</ele><time>2026-04-13T13:59:54Z</time></trkpt><trkpt lat="43.797697327707255" lon="11.816392146962624"><ele>1007.3999999999999</ele><time>2026-04-13T13:59:55Z</time></trkpt><trkpt lat="43.797795314236986" lon="11.816338227981872"><ele>1005.6</ele><time>2026-04-13T13:59:56Z</time></trkpt><trkpt lat="43.79787774339705" lon="11.81628994715184"><ele>1003.8</ele><time>2026-04-13T13:59:57Z</time></trkpt><trkpt lat="43.79798571694551" lon="11.816284204596315"><ele>1002.0</ele><time>2026-04-13T13:59:58Z</time></trkpt><trkpt lat="43.79809329486263" lon="11.816275849864919"><ele>1002.0</ele><time>2026-04-13T13:59:59Z</time></trkpt><trkpt lat="43.798184516394805" lon="11.816313667843408"><ele>1002.0</ele><time>2026-04-13T14:00:00Z</time></trkpt><trkpt lat="43.79826645455254" lon="11.816326361935268"><ele>1002.0</ele><time>2026-04-13T14:00:01.001Z</time></trkpt><trkpt lat="43.798353747962935" lon="11.816344674730212"><ele>1002.0</ele><time>2026-04-13T14:00:02.001Z</time></trkpt><trkpt lat="43.798453784330036" lon="11.816352901703674"><ele>1002.0</ele><time>2026-04-13T14:00:03.001Z</time></trkpt><trkpt lat="43.79852787802797" lon="11.81630470409504"><ele>1002.0</ele><time>2026-04-13T14:00:04.001Z</time></trkpt><trkpt lat="43.798634616017054" lon="11.81628821979559"><ele>1003.8</ele><time>2026-04-13T14:00:05.001Z</time></trkpt><trkpt lat="43.79874138628038" lon="11.816266739536418"><ele>1005.6</ele><time>2026-04-13T14:00:06.001Z</time></trkpt><trkpt lat="43.798843549082" lon="11.816203562064434"><ele>1007.3999999999999</ele><time>2026-04-13T14:00:07.001Z</time></trkpt><trkpt lat="43.79893580517028" lon="11.816211008282144"><ele>1009.1999999999999</ele><time>2026-04-13T14:00:08.001Z</time></trkpt><trkpt lat="43.79902929133753" lon="11.8162410548257"><ele>1011.0</ele><time>2026-04-13T14:00:09.001Z</time></trkpt><trkpt lat="43.799167389289885" lon="11.816451650430132"><ele>1011.0</ele><time>2026-04-13T14:00:11.001Z</time></trkpt><trkpt lat="43.799233177425286" lon="11.816586072811416"><ele>1011.0</ele><time>2026-04-13T14:00:12.001Z</time></trkpt><trkpt lat="43.79929932426635" lon="11.816720198510636"><ele>1011.0</ele><time>2026-04-13T14:00:13.001Z</time></trkpt><trkpt lat="43.799394061085" lon="11.816819286882579"><ele>1011.0</ele><time>2026-04-13T14:00:14.001Z</time></trkpt><trkpt lat="43.7994811457881" lon="11.816877822004095"><ele>1011.1999999999999</ele><time>2026-04-13T14:00:15.001Z</time></trkpt><trkpt lat="43.79956853717963" lon="11.816887835031455"><ele>1011.3999999999999</ele><time>2026-04-13T14:00:16.001Z</time></trkpt><trkpt lat="43.79967837719082" lon="11.816878254376851"><ele>1011.6</ele><time>2026-04-13T14:00:17.001Z</time></trkpt><trkpt lat="43.7997628503258" lon="11.81683672308639"><ele>1011.8</ele><time>2026-04-13T14:00:18.001Z</time></trkpt><trkpt lat="43.79981246428007" lon="11.816712985085443"><ele>1012.0</ele><time>2026-04-13T14:00:19.001Z</time></trkpt><trkpt lat="43.79989653143816" lon="11.816608364987353"><ele>1012.0</ele><time>2026-04-13T14:00:20.001Z</time></trkpt><trkpt lat="43.799979023432115" lon="11.816496605100744"><ele>1012.0</ele><time>2026-04-13T14:00:21.001Z</time></trkpt><trkpt lat="43.8000720941217" lon="11.816416473559086"><ele>1012.0</ele><time>2026-04-13T14:00:22.001Z</time></trkpt><trkpt lat="43.80015913200816" lon="11.816343520229955"><ele>1012.0</ele><time>2026-04-13T14:00:23.001Z</time></trkpt><trkpt lat="43.800271347061546" lon="11.816319483317487"><ele>1012.0</ele><time>2026-04-13T14:00:24.001Z</time></trkpt><trkpt lat="43.800387137369064" lon="11.816324817466782"><ele>1006.8</ele><time>2026-04-13T14:00:25.001Z</time></trkpt><trkpt lat="43.80048169784469" lon="11.816354173954204"><ele>1001.6</ele><time>2026-04-13T14:00:26.001Z</time></trkpt><trkpt lat="43.8005519454458" lon="11.816355966826332"><ele>996.3999999999999</ele><time>2026-04-13T14:00:27.001Z</time></trkpt><trkpt lat="43.80065466448093" lon="11.816337493248511"><ele>991.1999999999999</ele><time>2026-04-13T14:00:28.001Z</time></trkpt><trkpt lat="43.80072433332592" lon="11.816246589058734"><ele>986.0</ele><time>2026-04-13T14:00:29.001Z</time></trkpt><trkpt lat="43.80076243317779" lon="11.816119094274194"><ele>985.8</ele><time>2026-04-13T14:00:30.001Z</time></trkpt><trkpt lat="43.80079171340645" lon="11.815971383293345"><ele>985.5999999999999</ele><time>2026-04-13T14:00:31.001Z</time></trkpt><trkpt lat="43.800853563892446" lon="11.815854327795778"><ele>985.4</ele><time>2026-04-13T14:00:32.001Z</time></trkpt><trkpt lat="43.8009219363787" lon="11.815773412829573"><ele>985.2</ele><time>2026-04-13T14:00:33.001Z</time></trkpt><trkpt lat="43.80100395266208" lon="11.815695228701776"><ele>985.0</ele><time>2026-04-13T14:00:34.001Z</time></trkpt><trkpt lat="43.801079367699785" lon="11.815607578732452"><ele>984.9999999999999</ele><time>2026-04-13T14:00:35.001Z</time></trkpt><trkpt lat="43.80112396867491" lon="11.815503034825696"><ele>985.0</ele><time>2026-04-13T14:00:36.001Z</time></trkpt><trkpt lat="43.8011318127696" lon="11.815389168975459"><ele>985.0</ele><time>2026-04-13T14:00:37.001Z</time></trkpt><trkpt lat="43.801134349242105" lon="11.81525281603785"><ele>985.0</ele><time>2026-04-13T14:00:38.001Z</time></trkpt><trkpt lat="43.80114566662024" lon="11.815121382996509"><ele>984.9999999999999</ele><time>2026-04-13T14:00:39.001Z</time></trkpt><trkpt lat="43.80116294564509" lon="11.81501194541742"><ele>985.0</ele><time>2026-04-13T14:00:40.001Z</time></trkpt><trkpt lat="43.801218893133196" lon="11.814909132037462"><ele>992.75</ele><time>2026-04-13T14:00:41.001Z</time></trkpt><trkpt lat="43.801290209644236" lon="11.814825222869711"><ele>1000.5</ele><time>2026-04-13T14:00:42.001Z</time></trkpt><trkpt lat="43.80138924350945" lon="11.814759951041713"><ele>1008.25</ele><time>2026-04-13T14:00:43.001Z</time></trkpt><trkpt lat="43.80150912313657" lon="11.814718127759715"><ele>1016.0</ele><time>2026-04-13T14:00:44.001Z</time></trkpt><trkpt lat="43.80163836199984" lon="11.814693366107551"><ele>1016.0</ele><time>2026-04-13T14:00:45.001Z</time></trkpt><trkpt lat="43.80176360140522" lon="11.81466709341031"><ele>1016.0</ele><time>2026-04-13T14:00:46.001Z</time></trkpt><trkpt lat="43.801867342547" lon="11.814706592652524"><ele>1016.0</ele><time>2026-04-13T14:00:47.001Z</time></trkpt><trkpt lat="43.80198154375584" lon="11.814754111607302"><ele>1016.0</ele><time>2026-04-13T14:00:48.001Z</time></trkpt><trkpt lat="43.802073571507165" lon="11.814832301242733"><ele>1017.5999999999999</ele><time>2026-04-13T14:00:49.001Z</time></trkpt><trkpt lat="43.80216051419832" lon="11.81494503347316"><ele>1019.1999999999999</ele><time>2026-04-13T14:00:50.001Z</time></trkpt><trkpt lat="43.80224366219143" lon="11.81506964051825"><ele>1020.8000000000001</ele><time>2026-04-13T14:00:51.001Z</time></trkpt><trkpt lat="43.80232474362791" lon="11.815175343015857"><ele>1022.4000000000001</ele><time>2026-04-13T14:00:52.001Z</time></trkpt><trkpt lat="43.8023747045166" lon="11.815249058509892"><ele>1024.0</ele><time>2026-04-13T14:00:53.001Z</time></trkpt><trkpt lat="43.8024310321575" lon="11.81530929950215"><ele>1022.0</ele><time>2026-04-13T14:00:54.001Z</time></trkpt><trkpt lat="43.802501586567764" lon="11.815316060502541"><ele>1020.0</ele><time>2026-04-13T14:00:55.001Z</time></trkpt><trkpt lat="43.802612633594016" lon="11.81530435462872"><ele>1018.0</ele><time>2026-04-13T14:00:56.001Z</time></trkpt><trkpt lat="43.802730283869614" lon="11.81522015601363"><ele>1016.0</ele><time>2026-04-13T14:00:57.001Z</time></trkpt><trkpt lat="43.80287241554157" lon="11.81514529156048"><ele>1016.0</ele><time>2026-04-13T14:00:58.001Z</time></trkpt><trkpt lat="43.8029557722713" lon="11.815104532712281"><ele>1015.9999999999999</ele><time>2026-04-13T14:00:59.001Z</time></trkpt><trkpt lat="43.803033250063095" lon="11.815049556825478"><ele>1015.9999999999999</ele><time>2026-04-13T14:01:00.001Z</time></trkpt><trkpt lat="43.80306241840243" lon="11.814925286195267"><ele>1016.0</ele><time>2026-04-13T14:01:01.001Z</time></trkpt><trkpt lat="43.80306717341415" lon="11.81478930363155"><ele>1016.0</ele><time>2026-04-13T14:01:02.001Z</time></trkpt><trkpt lat="43.80305978501127" lon="11.814644752225513"><ele>1016.0</ele><time>2026-04-13T14:01:03.001Z</time></trkpt><trkpt lat="43.80310165577614" lon="11.81443365183603"><ele>1016.0</ele><time>2026-04-13T14:01:04.001Z</time></trkpt><trkpt lat="43.80313885111177" lon="11.814288247579958"><ele>1016.0</ele><time>2026-04-13T14:01:05.001Z</time></trkpt><trkpt lat="43.80322848922585" lon="11.814134605641428"><ele>1016.0</ele><time>2026-04-13T14:01:06.001Z</time></trkpt><trkpt lat="43.80330059701708" lon="11.813971916384226"><ele>1018.75</ele><time>2026-04-13T14:01:07.001Z</time></trkpt><trkpt lat="43.80336142503418" lon="11.813790882231233"><ele>1021.5</ele><time>2026-04-13T14:01:08.001Z</time></trkpt><trkpt lat="43.80340339521519" lon="11.813636411738674"><ele>1024.25</ele><time>2026-04-13T14:01:09Z</time></trkpt><trkpt lat="43.80343237969445" lon="11.813493945281916"><ele>1027.0</ele><time>2026-04-13T14:01:10Z</time></trkpt><trkpt lat="43.803484521843465" lon="11.813359869965566"><ele>1028.25</ele><time>2026-04-13T14:01:11Z</time></trkpt><trkpt lat="43.803581840590994" lon="11.813270556483301"><ele>1029.5</ele><time>2026-04-13T14:01:12Z</time></trkpt><trkpt lat="43.80369766616157" lon="11.813215993233902"><ele>1030.75</ele><time>2026-04-13T14:01:13Z</time></trkpt><trkpt lat="43.80383034572074" lon="11.81319255236169"><ele>1032.0</ele><time>2026-04-13T14:01:14Z</time></trkpt><trkpt lat="43.80395423428626" lon="11.813207724164076"><ele>1032.0</ele><time>2026-04-13T14:01:15Z</time></trkpt><trkpt lat="43.804062988263304" lon="11.813260465545236"><ele>1032.0</ele><time>2026-04-13T14:01:16Z</time></trkpt><trkpt lat="43.80415288474591" lon="11.813347496188152"><ele>1032.0</ele><time>2026-04-13T14:01:17Z</time></trkpt><trkpt lat="43.804210544469036" lon="11.813419704246623"><ele>1032.0</ele><time>2026-04-13T14:01:18Z</time></trkpt><trkpt lat="43.80431078308558" lon="11.81345393333808"><ele>1032.0</ele><time>2026-04-13T14:01:19Z</time></trkpt><trkpt lat="43.804428077287284" lon="11.813454023417886"><ele>1029.0</ele><time>2026-04-13T14:01:20Z</time></trkpt><trkpt lat="43.804538593534694" lon="11.813413394028847"><ele>1026.0</ele><time>2026-04-13T14:01:21Z</time></trkpt><trkpt lat="43.80463683872013" lon="11.81332564188317"><ele>1023.0</ele><time>2026-04-13T14:01:22Z</time></trkpt><trkpt lat="43.80473219924986" lon="11.813230418102195"><ele>1020.0</ele><time>2026-04-13T14:01:23Z</time></trkpt><trkpt lat="43.80482712927363" lon="11.813165129030125"><ele>1020.0</ele><time>2026-04-13T14:01:24Z</time></trkpt><trkpt lat="43.80493782405722" lon="11.813142896382411"><ele>1020.0</ele><time>2026-04-13T14:01:25Z</time></trkpt><trkpt lat="43.805054589743904" lon="11.813152406080736"><ele>1020.0</ele><time>2026-04-13T14:01:26Z</time></trkpt><trkpt lat="43.805156053439475" lon="11.81316985145327"><ele>1020.0</ele><time>2026-04-13T14:01:27Z</time></trkpt><trkpt lat="43.805250439631564" lon="11.813164324820988"><ele>1020.0</ele><time>2026-04-13T14:01:28Z</time></trkpt><trkpt lat="43.80535014906838" lon="11.81311005230375"><ele>1020.75</ele><time>2026-04-13T14:01:29Z</time></trkpt><trkpt lat="43.80541311301616" lon="11.81301543274438"><ele>1021.5</ele><time>2026-04-13T14:01:30Z</time></trkpt><trkpt lat="43.80547973232386" lon="11.812902782563022"><ele>1022.25</ele><time>2026-04-13T14:01:31Z</time></trkpt><trkpt lat="43.80554584185955" lon="11.812756710171099"><ele>1023.0</ele><time>2026-04-13T14:01:32Z</time></trkpt><trkpt lat="43.805607525145" lon="11.812584477033658"><ele>1023.0</ele><time>2026-04-13T14:01:33Z</time></trkpt><trkpt lat="43.80566977074909" lon="11.812386187091388"><ele>1023.0</ele><time>2026-04-13T14:01:34Z</time></trkpt><trkpt lat="43.805722360615256" lon="11.812192445258685"><ele>1023.0</ele><time>2026-04-13T14:01:35Z</time></trkpt><trkpt lat="43.80575333451827" lon="11.811993120300174"><ele>1025.6</ele><time>2026-04-13T14:01:36Z</time></trkpt><trkpt lat="43.80577789484728" lon="11.811804307700418"><ele>1028.1999999999998</ele><time>2026-04-13T14:01:37Z</time></trkpt><trkpt lat="43.805799497322944" lon="11.811630302802524"><ele>1030.8</ele><time>2026-04-13T14:01:38Z</time></trkpt><trkpt lat="43.80582266990583" lon="11.811492942816777"><ele>1033.3999999999999</ele><time>2026-04-13T14:01:39Z</time></trkpt><trkpt lat="43.80586393937026" lon="11.811405770313778"><ele>1036.0</ele><time>2026-04-13T14:01:40Z</time></trkpt><trkpt lat="43.80595162019159" lon="11.81135426915989"><ele>1037.2</ele><time>2026-04-13T14:01:41Z</time></trkpt><trkpt lat="43.806056416132606" lon="11.811355786044178"><ele>1038.3999999999999</ele><time>2026-04-13T14:01:42Z</time></trkpt><trkpt lat="43.80615064742794" lon="11.811383881363922"><ele>1039.6</ele><time>2026-04-13T14:01:43Z</time></trkpt><trkpt lat="43.806218817951326" lon="11.811467759685122"><ele>1040.8</ele><time>2026-04-13T14:01:44Z</time></trkpt><trkpt lat="43.806264815585095" lon="11.811576693218726"><ele>1042.0</ele><time>2026-04-13T14:01:45Z</time></trkpt><trkpt lat="43.806333336005224" lon="11.811704534823633"><ele>1042.0</ele><time>2026-04-13T14:01:46Z</time></trkpt><trkpt lat="43.806430403235105" lon="11.811818453519598"><ele>1042.0</ele><time>2026-04-13T14:01:47Z</time></trkpt><trkpt lat="43.806526106119" lon="11.811924126591851"><ele>1042.0</ele><time>2026-04-13T14:01:48Z</time></trkpt><trkpt lat="43.80661835646943" lon="11.812013490917773"><ele>1042.0</ele><time>2026-04-13T14:01:49Z</time></trkpt><trkpt lat="43.80670159567958" lon="11.812057729698491"><ele>1042.0</ele><time>2026-04-13T14:01:50Z</time></trkpt><trkpt lat="43.80678427009225" lon="11.812073289186774"><ele>1042.0</ele><time>2026-04-13T14:01:51Z</time></trkpt><trkpt lat="43.80687269741961" lon="11.81203996165509"><ele>1042.0</ele><time>2026-04-13T14:01:52Z</time></trkpt><trkpt lat="43.806956741277006" lon="11.81196126330404"><ele>1042.0</ele><time>2026-04-13T14:01:53Z</time></trkpt><trkpt lat="43.80701879156849" lon="11.811843076692508"><ele>1042.0</ele><time>2026-04-13T14:01:54Z</time></trkpt><trkpt lat="43.807076453965536" lon="11.811712632192684"><ele>1042.0</ele><time>2026-04-13T14:01:55Z</time></trkpt><trkpt lat="43.807127841818236" lon="11.81160867469783"><ele>1042.0</ele><time>2026-04-13T14:01:56Z</time></trkpt><trkpt lat="43.80723635340271" lon="11.811541303101343"><ele>1042.0</ele><time>2026-04-13T14:01:57Z</time></trkpt><trkpt lat="43.80734648976579" lon="11.811508202083294"><ele>1042.0</ele><time>2026-04-13T14:01:58Z</time></trkpt><trkpt lat="43.80745893314912" lon="11.811456295047384"><ele>1042.0</ele><time>2026-04-13T14:01:59Z</time></trkpt><trkpt lat="43.80757867712334" lon="11.81137722603671"><ele>1042.5</ele><time>2026-04-13T14:02:00Z</time></trkpt><trkpt lat="43.80769517693624" lon="11.811287308505294"><ele>1043.0</ele><time>2026-04-13T14:02:01Z</time></trkpt><trkpt lat="43.80780840889763" lon="11.811175715825385"><ele>1043.5</ele><time>2026-04-13T14:02:02Z</time></trkpt><trkpt lat="43.80791657269164" lon="11.811046878461191"><ele>1044.0</ele><time>2026-04-13T14:02:03Z</time></trkpt><trkpt lat="43.80801455930902" lon="11.81090829972118"><ele>1044.0</ele><time>2026-04-13T14:02:04Z</time></trkpt><trkpt lat="43.80810506498621" lon="11.810768697091616"><ele>1044.0</ele><time>2026-04-13T14:02:05Z</time></trkpt><trkpt lat="43.808201033385295" lon="11.810636160146252"><ele>1044.0</ele><time>2026-04-13T14:02:06Z</time></trkpt><trkpt lat="43.80829089787839" lon="11.810526969467997"><ele>1044.0</ele><time>2026-04-13T14:02:07Z</time></trkpt><trkpt lat="43.808351317381536" lon="11.810401787650564"><ele>1044.0</ele><time>2026-04-13T14:02:08Z</time></trkpt><trkpt lat="43.80839715165142" lon="11.810257039517687"><ele>1044.0</ele><time>2026-04-13T14:02:09Z</time></trkpt><trkpt lat="43.808425964779396" lon="11.810143491146432"><ele>1044.0</ele><time>2026-04-13T14:02:10Z</time></trkpt><trkpt lat="43.80848820063909" lon="11.810051889327982"><ele>1044.0</ele><time>2026-04-13T14:02:11Z</time></trkpt><trkpt lat="43.808574466178655" lon="11.80999729037147"><ele>1044.0</ele><time>2026-04-13T14:02:12Z</time></trkpt><trkpt lat="43.80865058437692" lon="11.80999085390191"><ele>1044.2</ele><time>2026-04-13T14:02:13Z</time></trkpt><trkpt lat="43.808728451379714" lon="11.810037910070282"><ele>1044.4</ele><time>2026-04-13T14:02:14Z</time></trkpt><trkpt lat="43.80880996117893" lon="11.810125242015086"><ele>1044.6</ele><time>2026-04-13T14:02:15Z</time></trkpt><trkpt lat="43.808901838123504" lon="11.810234942401697"><ele>1044.8</ele><time>2026-04-13T14:02:16Z</time></trkpt><trkpt lat="43.80898925874188" lon="11.81031298436398"><ele>1045.0</ele><time>2026-04-13T14:02:17Z</time></trkpt><trkpt lat="43.80905446200305" lon="11.810388071785999"><ele>1045.0</ele><time>2026-04-13T14:02:18.001Z</time></trkpt><trkpt lat="43.80914340182616" lon="11.810431183681793"><ele>1045.0</ele><time>2026-04-13T14:02:19.001Z</time></trkpt><trkpt lat="43.80922349286511" lon="11.810456003001995"><ele>1045.0</ele><time>2026-04-13T14:02:20.001Z</time></trkpt><trkpt lat="43.80932102509518" lon="11.8104276962414"><ele>1045.0</ele><time>2026-04-13T14:02:21.001Z</time></trkpt><trkpt lat="43.80944332300456" lon="11.810379112150098"><ele>1045.0</ele><time>2026-04-13T14:02:22.001Z</time></trkpt><trkpt lat="43.80957319318085" lon="11.810343763074002"><ele>1046.75</ele><time>2026-04-13T14:02:23.001Z</time></trkpt><trkpt lat="43.80971815369719" lon="11.81029494964885"><ele>1048.5</ele><time>2026-04-13T14:02:24.001Z</time></trkpt><trkpt lat="43.80987108373497" lon="11.810222180385434"><ele>1050.25</ele><time>2026-04-13T14:02:25.001Z</time></trkpt><trkpt lat="43.81000279558458" lon="11.810166432359031"><ele>1052.0</ele><time>2026-04-13T14:02:26.001Z</time></trkpt><trkpt lat="43.810110622473694" lon="11.810110301082602"><ele>1056.5</ele><time>2026-04-13T14:02:27.001Z</time></trkpt><trkpt lat="43.81022066969739" lon="11.810078335689221"><ele>1061.0</ele><time>2026-04-13T14:02:28.001Z</time></trkpt><trkpt lat="43.810325332536" lon="11.810029878180243"><ele>1065.5</ele><time>2026-04-13T14:02:29.001Z</time></trkpt><trkpt lat="43.81041471670451" lon="11.809945597216933"><ele>1070.0</ele><time>2026-04-13T14:02:30.001Z</time></trkpt><trkpt lat="43.81050586420257" lon="11.80982668429189"><ele>1070.0</ele><time>2026-04-13T14:02:31.001Z</time></trkpt><trkpt lat="43.81060259422121" lon="11.809699289386973"><ele>1070.0</ele><time>2026-04-13T14:02:32.001Z</time></trkpt><trkpt lat="43.810715504712284" lon="11.809564423094272"><ele>1070.0</ele><time>2026-04-13T14:02:33.001Z</time></trkpt><trkpt lat="43.81083049005466" lon="11.80949613366327"><ele>1070.0</ele><time>2026-04-13T14:02:34.001Z</time></trkpt><trkpt lat="43.81094322435438" lon="11.809444167184884"><ele>1070.75</ele><time>2026-04-13T14:02:35.001Z</time></trkpt><trkpt lat="43.81105026964693" lon="11.809361025088146"><ele>1071.5</ele><time>2026-04-13T14:02:36.001Z</time></trkpt><trkpt lat="43.811139261125504" lon="11.809254527257917"><ele>1072.25</ele><time>2026-04-13T14:02:37.001Z</time></trkpt><trkpt lat="43.81122837185263" lon="11.809118429655092"><ele>1073.0</ele><time>2026-04-13T14:02:38.001Z</time></trkpt><trkpt lat="43.81132555043369" lon="11.809007382943994"><ele>1073.0</ele><time>2026-04-13T14:02:39.001Z</time></trkpt><trkpt lat="43.811449032462114" lon="11.808934597020862"><ele>1073.0</ele><time>2026-04-13T14:02:40.001Z</time></trkpt><trkpt lat="43.81158367800172" lon="11.808898883648116"><ele>1073.0</ele><time>2026-04-13T14:02:41.001Z</time></trkpt><trkpt lat="43.8117285158955" lon="11.808869097821887"><ele>1073.0</ele><time>2026-04-13T14:02:42.001Z</time></trkpt><trkpt lat="43.811868692888176" lon="11.808844907109632"><ele>1072.5</ele><time>2026-04-13T14:02:43.001Z</time></trkpt><trkpt lat="43.81201209298585" lon="11.80882635463485"><ele>1072.0</ele><time>2026-04-13T14:02:44.001Z</time></trkpt><trkpt lat="43.81214404981903" lon="11.808808827940792"><ele>1071.5</ele><time>2026-04-13T14:02:45.001Z</time></trkpt><trkpt lat="43.81225467107284" lon="11.808775465787496"><ele>1071.0</ele><time>2026-04-13T14:02:46.001Z</time></trkpt><trkpt lat="43.81234054895045" lon="11.808680031347814"><ele>1071.0</ele><time>2026-04-13T14:02:47.001Z</time></trkpt><trkpt lat="43.812413693256445" lon="11.8085443586899"><ele>1071.0</ele><time>2026-04-13T14:02:48.001Z</time></trkpt><trkpt lat="43.812482822893074" lon="11.808390733288723"><ele>1071.0</ele><time>2026-04-13T14:02:49.001Z</time></trkpt><trkpt lat="43.81256186039009" lon="11.80826553389257"><ele>1071.0</ele><time>2026-04-13T14:02:50.001Z</time></trkpt><trkpt lat="43.81263172551244" lon="11.808183348267404"><ele>1072.8</ele><time>2026-04-13T14:02:51.001Z</time></trkpt><trkpt lat="43.81273060236517" lon="11.808129612707573"><ele>1074.6</ele><time>2026-04-13T14:02:52.001Z</time></trkpt><trkpt lat="43.812834992320845" lon="11.80810343271183"><ele>1076.4</ele><time>2026-04-13T14:02:53.001Z</time></trkpt><trkpt lat="43.812939968956705" lon="11.808083243506127"><ele>1078.2</ele><time>2026-04-13T14:02:54.001Z</time></trkpt><trkpt lat="43.81304050809636" lon="11.808075268518719"><ele>1080.0</ele><time>2026-04-13T14:02:55.001Z</time></trkpt><trkpt lat="43.81312173914574" lon="11.808089178246771"><ele>1080.0</ele><time>2026-04-13T14:02:56.001Z</time></trkpt><trkpt lat="43.81319644731644" lon="11.808141215635802"><ele>1080.0</ele><time>2026-04-13T14:02:57.001Z</time></trkpt><trkpt lat="43.81323280953486" lon="11.808236129019935"><ele>1080.0</ele><time>2026-04-13T14:02:58.001Z</time></trkpt><trkpt lat="43.81325098426954" lon="11.808359589693175"><ele>1080.0</ele><time>2026-04-13T14:02:59.001Z</time></trkpt><trkpt lat="43.81323509254269" lon="11.808484420518525"><ele>1080.0</ele><time>2026-04-13T14:03:00.001Z</time></trkpt><trkpt lat="43.81319172682957" lon="11.808620947984545"><ele>1082.8</ele><time>2026-04-13T14:03:01.001Z</time></trkpt><trkpt lat="43.81312808176076" lon="11.808734476887658"><ele>1085.6</ele><time>2026-04-13T14:03:02.001Z</time></trkpt><trkpt lat="43.813049057242914" lon="11.808831174308358"><ele>1088.4</ele><time>2026-04-13T14:03:03.001Z</time></trkpt><trkpt lat="43.81297621425522" lon="11.808951730981715"><ele>1091.2</ele><time>2026-04-13T14:03:04.001Z</time></trkpt><trkpt lat="43.812895962245484" lon="11.809077112814652"><ele>1094.0</ele><time>2026-04-13T14:03:05.001Z</time></trkpt><trkpt lat="43.81283294336075" lon="11.809233810207798"><ele>1092.0</ele><time>2026-04-13T14:03:06.001Z</time></trkpt><trkpt lat="43.81274691651782" lon="11.80938489031875"><ele>1090.0</ele><time>2026-04-13T14:03:07.001Z</time></trkpt><trkpt lat="43.812662939538356" lon="11.809545940308064"><ele>1088.0</ele><time>2026-04-13T14:03:08.001Z</time></trkpt><trkpt lat="43.812575211910875" lon="11.809713083327415"><ele>1086.0</ele><time>2026-04-13T14:03:09.001Z</time></trkpt><trkpt lat="43.812478685433256" lon="11.80986826983721"><ele>1086.0</ele><time>2026-04-13T14:03:10.001Z</time></trkpt><trkpt lat="43.81239685547945" lon="11.81001501267279"><ele>1086.0</ele><time>2026-04-13T14:03:11.001Z</time></trkpt><trkpt lat="43.81230931819237" lon="11.810164562971627"><ele>1086.0</ele><time>2026-04-13T14:03:12.001Z</time></trkpt><trkpt lat="43.812225140286586" lon="11.810285993594402"><ele>1086.0</ele><time>2026-04-13T14:03:13.001Z</time></trkpt><trkpt lat="43.812148977667604" lon="11.810395182234078"><ele>1088.8</ele><time>2026-04-13T14:03:14.001Z</time></trkpt><trkpt lat="43.81207700104011" lon="11.810504007463235"><ele>1091.6</ele><time>2026-04-13T14:03:15.001Z</time></trkpt><trkpt lat="43.8120208971528" lon="11.810632123613217"><ele>1094.4</ele><time>2026-04-13T14:03:16.001Z</time></trkpt><trkpt lat="43.81196191883622" lon="11.810763645368963"><ele>1097.2</ele><time>2026-04-13T14:03:17.001Z</time></trkpt><trkpt lat="43.811898858570885" lon="11.810868472103921"><ele>1100.0</ele><time>2026-04-13T14:03:18.001Z</time></trkpt><trkpt lat="43.811848261506356" lon="11.810981330701187"><ele>1099.5</ele><time>2026-04-13T14:03:19.001Z</time></trkpt><trkpt lat="43.81180344879529" lon="11.811093902111075"><ele>1099.0</ele><time>2026-04-13T14:03:20.001Z</time></trkpt><trkpt lat="43.81176506851173" lon="11.811217531928428"><ele>1098.5</ele><time>2026-04-13T14:03:22.001Z</time></trkpt><trkpt lat="43.81172654515098" lon="11.811307243369813"><ele>1098.0</ele><time>2026-04-13T14:03:24.001Z</time></trkpt><trkpt lat="43.81167241434927" lon="11.811382581299242"><ele>1097.5</ele><time>2026-04-13T14:03:26Z</time></trkpt><trkpt lat="43.81162927406846" lon="11.811450051422861"><ele>1097.0</ele><time>2026-04-13T14:03:27Z</time></trkpt><trkpt lat="43.81157318796032" lon="11.811524717209322"><ele>1097.0</ele><time>2026-04-13T14:03:28Z</time></trkpt><trkpt lat="43.81151806416649" lon="11.811624518429369"><ele>1097.0</ele><time>2026-04-13T14:03:29Z</time></trkpt><trkpt lat="43.81144475199208" lon="11.81172532890051"><ele>1097.0</ele><time>2026-04-13T14:03:30Z</time></trkpt><trkpt lat="43.81137290640688" lon="11.811818034915047"><ele>1097.0</ele><time>2026-04-13T14:03:31Z</time></trkpt><trkpt lat="43.81129554353749" lon="11.811926439227152"><ele>1097.0</ele><time>2026-04-13T14:03:32Z</time></trkpt><trkpt lat="43.81121487317858" lon="11.812041026611686"><ele>1096.4</ele><time>2026-04-13T14:03:33Z</time></trkpt><trkpt lat="43.81112512870286" lon="11.812146875710178"><ele>1095.8000000000002</ele><time>2026-04-13T14:03:34Z</time></trkpt><trkpt lat="43.811032707833036" lon="11.812227067871468"><ele>1095.2</ele><time>2026-04-13T14:03:35Z</time></trkpt><trkpt lat="43.81092795698202" lon="11.812271933290488"><ele>1094.6000000000001</ele><time>2026-04-13T14:03:36Z</time></trkpt><trkpt lat="43.81082333647767" lon="11.812309360610348"><ele>1094.0</ele><time>2026-04-13T14:03:37Z</time></trkpt><trkpt lat="43.810724779993585" lon="11.81235766042459"><ele>1094.0</ele><time>2026-04-13T14:03:38Z</time></trkpt><trkpt lat="43.81063980723261" lon="11.812439445013581"><ele>1094.0</ele><time>2026-04-13T14:03:39Z</time></trkpt><trkpt lat="43.81055802861709" lon="11.812551922356143"><ele>1094.0</ele><time>2026-04-13T14:03:40Z</time></trkpt><trkpt lat="43.81047933083317" lon="11.812673721431384"><ele>1094.0</ele><time>2026-04-13T14:03:41Z</time></trkpt><trkpt lat="43.81039668292465" lon="11.81278504014909"><ele>1094.4</ele><time>2026-04-13T14:03:42Z</time></trkpt><trkpt lat="43.81031862978442" lon="11.812894134334654"><ele>1094.8000000000002</ele><time>2026-04-13T14:03:43Z</time></trkpt><trkpt lat="43.81024452168078" lon="11.813007898730739"><ele>1095.1999999999998</ele><time>2026-04-13T14:03:44Z</time></trkpt><trkpt lat="43.810182143085676" lon="11.8131232686109"><ele>1095.6</ele><time>2026-04-13T14:03:45Z</time></trkpt><trkpt lat="43.81014001188354" lon="11.813228565980694"><ele>1096.0</ele><time>2026-04-13T14:03:46Z</time></trkpt><trkpt lat="43.81013419608142" lon="11.813343081915468"><ele>1100.3333333333333</ele><time>2026-04-13T14:03:47Z</time></trkpt><trkpt lat="43.810176649360336" lon="11.813473255911394"><ele>1104.6666666666665</ele><time>2026-04-13T14:03:48Z</time></trkpt><trkpt lat="43.81022500475188" lon="11.813571277896138"><ele>1109.0</ele><time>2026-04-13T14:03:49Z</time></trkpt><trkpt lat="43.81027907766711" lon="11.813660647079187"><ele>1113.3333333333333</ele><time>2026-04-13T14:03:50Z</time></trkpt><trkpt lat="43.8103199100535" lon="11.813751130815477"><ele>1117.6666666666667</ele><time>2026-04-13T14:03:51Z</time></trkpt><trkpt lat="43.810358600794466" lon="11.813874779201656"><ele>1122.0</ele><time>2026-04-13T14:03:52Z</time></trkpt><trkpt lat="43.810376389001675" lon="11.814000509611727"><ele>1123.0</ele><time>2026-04-13T14:03:53Z</time></trkpt><trkpt lat="43.81036663109422" lon="11.814111940531376"><ele>1124.0</ele><time>2026-04-13T14:03:54Z</time></trkpt><trkpt lat="43.810346698725546" lon="11.814222819824383"><ele>1125.0</ele><time>2026-04-13T14:03:55Z</time></trkpt><trkpt lat="43.81032344916884" lon="11.81436162357365"><ele>1126.0</ele><time>2026-04-13T14:03:56Z</time></trkpt><trkpt lat="43.810300851870075" lon="11.814516813587746"><ele>1127.0</ele><time>2026-04-13T14:03:57Z</time></trkpt><trkpt lat="43.81027349458554" lon="11.81467324472238"><ele>1127.0</ele><time>2026-04-13T14:03:58Z</time></trkpt><trkpt lat="43.810235145185295" lon="11.814831931917153"><ele>1127.0</ele><time>2026-04-13T14:03:59Z</time></trkpt><trkpt lat="43.81020314908702" lon="11.814997230430478"><ele>1127.0</ele><time>2026-04-13T14:04:00Z</time></trkpt><trkpt lat="43.81017429532492" lon="11.815143919793902"><ele>1127.0</ele><time>2026-04-13T14:04:01Z</time></trkpt><trkpt lat="43.81014688929148" lon="11.815279207606542"><ele>1122.4</ele><time>2026-04-13T14:04:02Z</time></trkpt><trkpt lat="43.81011326912722" lon="11.81541633928688"><ele>1117.8000000000002</ele><time>2026-04-13T14:04:03Z</time></trkpt><trkpt lat="43.810076231626965" lon="11.815553960416942"><ele>1113.2</ele><time>2026-04-13T14:04:04Z</time></trkpt><trkpt lat="43.810050457290316" lon="11.81569796174415"><ele>1108.6000000000001</ele><time>2026-04-13T14:04:05Z</time></trkpt><trkpt lat="43.81003272958037" lon="11.815839137149233"><ele>1104.0</ele><time>2026-04-13T14:04:06Z</time></trkpt><trkpt lat="43.81001219748573" lon="11.815961094200437"><ele>1103.8333333333333</ele><time>2026-04-13T14:04:07Z</time></trkpt><trkpt lat="43.8099968349376" lon="11.816076417571558"><ele>1103.6666666666667</ele><time>2026-04-13T14:04:08Z</time></trkpt><trkpt lat="43.809981965422644" lon="11.816174752596753"><ele>1103.5</ele><time>2026-04-13T14:04:09Z</time></trkpt><trkpt lat="43.80997950695944" lon="11.81633297731225"><ele>1103.3333333333335</ele><time>2026-04-13T14:04:11Z</time></trkpt><trkpt lat="43.809986215788946" lon="11.816459203637766"><ele>1103.1666666666667</ele><time>2026-04-13T14:04:13Z</time></trkpt><trkpt lat="43.810000833187914" lon="11.816546701415094"><ele>1103.0</ele><time>2026-04-13T14:04:15Z</time></trkpt><trkpt lat="43.80998129652686" lon="11.816639940635687"><ele>1103.0</ele><time>2026-04-13T14:04:17Z</time></trkpt><trkpt lat="43.809970287979915" lon="11.816730305804185"><ele>1103.0</ele><time>2026-04-13T14:05:48Z</time></trkpt><trkpt lat="43.810034990384075" lon="11.816727174419984"><ele>1103.0</ele><time>2026-04-13T14:05:56Z</time></trkpt><trkpt lat="43.810120425836665" lon="11.81671328795985"><ele>1103.0</ele><time>2026-04-13T14:06:08Z</time></trkpt><trkpt lat="43.810322419928426" lon="11.816662804416032"><ele>1103.0</ele><time>2026-04-13T14:06:13Z</time></trkpt><trkpt lat="43.81044785439972" lon="11.816828471362072"><ele>1104.2</ele><time>2026-04-13T14:06:14Z</time></trkpt><trkpt lat="43.810251860860475" lon="11.816859975662966"><ele>1105.4</ele><time>2026-04-13T14:06:15Z</time></trkpt><trkpt lat="43.81030319770512" lon="11.816807829683459"><ele>1106.6000000000001</ele><time>2026-04-13T14:06:34Z</time></trkpt><trkpt lat="43.81037018328326" lon="11.816825967128569"><ele>1107.8</ele><time>2026-04-13T14:06:45.001Z</time></trkpt><trkpt lat="43.8104318730153" lon="11.81677989423096"><ele>1109.0</ele><time>2026-04-13T14:06:52.001Z</time></trkpt><trkpt lat="43.81051545373975" lon="11.816734387445678"><ele>1109.0</ele><time>2026-04-13T14:07:03.001Z</time></trkpt><trkpt lat="43.810494781869075" lon="11.816817507828677"><ele>1109.0</ele><time>2026-04-13T14:07:06.001Z</time></trkpt><trkpt lat="43.81049751775095" lon="11.816709167659381"><ele>1109.0</ele><time>2026-04-13T14:07:31Z</time></trkpt><trkpt lat="43.81048102081826" lon="11.816618339704746"><ele>1109.0</ele><time>2026-04-13T14:07:42Z</time></trkpt><trkpt lat="43.810435554210684" lon="11.816686653047679"><ele>1109.0</ele><time>2026-04-13T14:07:44Z</time></trkpt><trkpt lat="43.81038008303994" lon="11.816412487119734"><ele>1109.0</ele><time>2026-04-13T14:07:46Z</time></trkpt><trkpt lat="43.810224088905855" lon="11.816690734431855"><ele>1109.0</ele><time>2026-04-13T14:08:39Z</time></trkpt><trkpt lat="43.81027159388132" lon="11.816631211119857"><ele>1109.0</ele><time>2026-04-13T14:08:40Z</time></trkpt><trkpt lat="43.81029469754189" lon="11.816540422209993"><ele>1109.0</ele><time>2026-04-13T14:08:44Z</time></trkpt><trkpt lat="43.810373282399574" lon="11.81650314779995"><ele>1109.0</ele><time>2026-04-13T14:08:46Z</time></trkpt><trkpt lat="43.81042078820673" lon="11.81643466628582"><ele>1109.0</ele><time>2026-04-13T14:08:53Z</time></trkpt><trkpt lat="43.81036598107335" lon="11.816351207750401"><ele>1109.0</ele><time>2026-04-13T14:09:01Z</time></trkpt><trkpt lat="43.81048259813245" lon="11.816606972120443"><ele>1109.0</ele><time>2026-04-13T14:09:02Z</time></trkpt><trkpt lat="43.81048648662417" lon="11.816798339208143"><ele>1108.9999999999998</ele><time>2026-04-13T14:09:05Z</time></trkpt><trkpt lat="43.81041016475776" lon="11.816787921552185"><ele>1109.0</ele><time>2026-04-13T14:09:09Z</time></trkpt><trkpt lat="43.81034240015884" lon="11.816780858007922"><ele>1109.0</ele><time>2026-04-13T14:09:15Z</time></trkpt><trkpt lat="43.8102716438886" lon="11.816775772840115"><ele>1109.0</ele><time>2026-04-13T14:09:20Z</time></trkpt><trkpt lat="43.810202070914045" lon="11.816782835557307"><ele>1109.0</ele><time>2026-04-13T14:09:26Z</time></trkpt><trkpt lat="43.8101515340843" lon="11.816854156210708"><ele>1108.9999999999998</ele><time>2026-04-13T14:09:30Z</time></trkpt><trkpt lat="43.81010035935242" lon="11.816791770992676"><ele>1109.0</ele><time>2026-04-13T14:09:46Z</time></trkpt><trkpt lat="43.8100569941594" lon="11.816720322273408"><ele>1108.3333333333335</ele><time>2026-04-13T14:09:49Z</time></trkpt><trkpt lat="43.80999222468803" lon="11.816727209744899"><ele>1107.6666666666667</ele><time>2026-04-13T14:09:55Z</time></trkpt><trkpt lat="43.80992478537002" lon="11.816751931561091"><ele>1107.0</ele><time>2026-04-13T14:10:04Z</time></trkpt><trkpt lat="43.80994999130978" lon="11.816838352004563"><ele>1106.3333333333333</ele><time>2026-04-13T14:11:36Z</time></trkpt><trkpt lat="43.809976337108324" lon="11.81693118928821"><ele>1105.6666666666665</ele><time>2026-04-13T14:11:37Z</time></trkpt><trkpt lat="43.81000746777659" lon="11.817042273677217"><ele>1105.0</ele><time>2026-04-13T14:11:38Z</time></trkpt><trkpt lat="43.81003411287909" lon="11.817174478411356"><ele>1105.0</ele><time>2026-04-13T14:11:39Z</time></trkpt><trkpt lat="43.81005342162124" lon="11.817308247697323"><ele>1105.0</ele><time>2026-04-13T14:11:40Z</time></trkpt><trkpt lat="43.81005839603797" lon="11.817433920894734"><ele>1105.0</ele><time>2026-04-13T14:11:41Z</time></trkpt><trkpt lat="43.810063813086295" lon="11.817552868130916"><ele>1105.0</ele><time>2026-04-13T14:11:42Z</time></trkpt><trkpt lat="43.8100690436461" lon="11.817674813407468"><ele>1105.0</ele><time>2026-04-13T14:11:43Z</time></trkpt><trkpt lat="43.810067437753155" lon="11.817791861695174"><ele>1105.0</ele><time>2026-04-13T14:11:44Z</time></trkpt><trkpt lat="43.81006017723591" lon="11.81791536420398"><ele>1106.8333333333333</ele><time>2026-04-13T14:11:45Z</time></trkpt><trkpt lat="43.810035866505174" lon="11.818028342868867"><ele>1108.6666666666665</ele><time>2026-04-13T14:11:46Z</time></trkpt><trkpt lat="43.81001307221879" lon="11.818119388867022"><ele>1110.5</ele><time>2026-04-13T14:11:47Z</time></trkpt><trkpt lat="43.809979479064765" lon="11.818259773828226"><ele>1112.3333333333333</ele><time>2026-04-13T14:11:49Z</time></trkpt><trkpt lat="43.80993062255415" lon="11.818324641679293"><ele>1114.1666666666667</ele><time>2026-04-13T14:11:50Z</time></trkpt><trkpt lat="43.80987073888684" lon="11.81839955814729"><ele>1116.0</ele><time>2026-04-13T14:11:51Z</time></trkpt><trkpt lat="43.8098064393456" lon="11.818477201061874"><ele>1118.0</ele><time>2026-04-13T14:11:52Z</time></trkpt><trkpt lat="43.809729256911766" lon="11.818496337443083"><ele>1120.0</ele><time>2026-04-13T14:11:53Z</time></trkpt><trkpt lat="43.809662228332414" lon="11.818545506544758"><ele>1122.0</ele><time>2026-04-13T14:11:54Z</time></trkpt><trkpt lat="43.80957384380034" lon="11.818698663621394"><ele>1124.0</ele><time>2026-04-13T14:11:56Z</time></trkpt><trkpt lat="43.80953431562234" lon="11.818790716837908"><ele>1126.0</ele><time>2026-04-13T14:11:57Z</time></trkpt><trkpt lat="43.80950037538856" lon="11.818884313518733"><ele>1128.0</ele><time>2026-04-13T14:11:58Z</time></trkpt><trkpt lat="43.8094457244189" lon="11.819053296944112"><ele>1128.0</ele><time>2026-04-13T14:12:00Z</time></trkpt><trkpt lat="43.8093875747031" lon="11.819124498390382"><ele>1128.0</ele><time>2026-04-13T14:12:03Z</time></trkpt><trkpt lat="43.809464247352835" lon="11.819191411775382"><ele>1128.0</ele><time>2026-04-13T14:15:42Z</time></trkpt><trkpt lat="43.809380667779486" lon="11.81915778617526"><ele>1128.0</ele><time>2026-04-13T14:15:43Z</time></trkpt><trkpt lat="43.80937199258961" lon="11.819245776512036"><ele>1128.0</ele><time>2026-04-13T14:18:11.001Z</time></trkpt><trkpt lat="43.80937244924187" lon="11.819363687327636"><ele>1128.0</ele><time>2026-04-13T14:18:13Z</time></trkpt><trkpt lat="43.80941587098475" lon="11.819463246584995"><ele>1128.6666666666667</ele><time>2026-04-13T14:18:15Z</time></trkpt><trkpt lat="43.80951381269107" lon="11.819521708845004"><ele>1129.3333333333333</ele><time>2026-04-13T14:18:17Z</time></trkpt><trkpt lat="43.80957878408999" lon="11.81951148121552"><ele>1130.0</ele><time>2026-04-13T14:18:18Z</time></trkpt><trkpt lat="43.80965882581069" lon="11.819511479952215"><ele>1130.6666666666665</ele><time>2026-04-13T14:18:19Z</time></trkpt><trkpt lat="43.809749569994146" lon="11.819502500709332"><ele>1131.3333333333333</ele><time>2026-04-13T14:18:20Z</time></trkpt><trkpt lat="43.80982780831859" lon="11.81952600190204"><ele>1132.0</ele><time>2026-04-13T14:18:21Z</time></trkpt><trkpt lat="43.80988291878109" lon="11.819568270156031"><ele>1132.0</ele><time>2026-04-13T14:18:22Z</time></trkpt><trkpt lat="43.80995843101719" lon="11.819675538194256"><ele>1132.0</ele><time>2026-04-13T14:18:24Z</time></trkpt><trkpt lat="43.809982744173766" lon="11.819760515181667"><ele>1132.0</ele><time>2026-04-13T14:18:25Z</time></trkpt><trkpt lat="43.80998635975866" lon="11.819865368344775"><ele>1132.0</ele><time>2026-04-13T14:18:26Z</time></trkpt><trkpt lat="43.80999604138886" lon="11.819987856027266"><ele>1132.0</ele><time>2026-04-13T14:18:27Z</time></trkpt><trkpt lat="43.81002660865502" lon="11.820175547192534"><ele>1132.8</ele><time>2026-04-13T14:18:28Z</time></trkpt><trkpt lat="43.81005488208409" lon="11.82032984235418"><ele>1133.6</ele><time>2026-04-13T14:18:29Z</time></trkpt><trkpt lat="43.81008007423575" lon="11.820472168879181"><ele>1134.3999999999999</ele><time>2026-04-13T14:18:30Z</time></trkpt><trkpt lat="43.810122259614786" lon="11.820599468634017"><ele>1135.2</ele><time>2026-04-13T14:18:31Z</time></trkpt><trkpt lat="43.810111356222365" lon="11.820744309923645"><ele>1136.0</ele><time>2026-04-13T14:18:32Z</time></trkpt><trkpt lat="43.81009169654129" lon="11.820846785199986"><ele>1136.0</ele><time>2026-04-13T14:18:33Z</time></trkpt><trkpt lat="43.81009363589342" lon="11.820966064311966"><ele>1136.0</ele><time>2026-04-13T14:18:34Z</time></trkpt><trkpt lat="43.810075152863625" lon="11.821121648327807"><ele>1136.0</ele><time>2026-04-13T14:18:35Z</time></trkpt><trkpt lat="43.81009543310758" lon="11.821253189617318"><ele>1136.0</ele><time>2026-04-13T14:18:36Z</time></trkpt><trkpt lat="43.81012299201556" lon="11.82136018417074"><ele>1136.0</ele><time>2026-04-13T14:18:37Z</time></trkpt><trkpt lat="43.81014699999789" lon="11.821466651517522"><ele>1137.2</ele><time>2026-04-13T14:18:38Z</time></trkpt><trkpt lat="43.810150662017286" lon="11.821565376802685"><ele>1138.3999999999999</ele><time>2026-04-13T14:18:39Z</time></trkpt><trkpt lat="43.810131349483314" lon="11.821698853415434"><ele>1139.6</ele><time>2026-04-13T14:18:40Z</time></trkpt><trkpt lat="43.810032945897674" lon="11.821818612167872"><ele>1140.8</ele><time>2026-04-13T14:18:42Z</time></trkpt><trkpt lat="43.80995040367848" lon="11.821843840514"><ele>1142.0</ele><time>2026-04-13T14:18:43Z</time></trkpt><trkpt lat="43.80986924556776" lon="11.821900661554423"><ele>1143.8</ele><time>2026-04-13T14:18:44Z</time></trkpt><trkpt lat="43.809782289018" lon="11.821966327376748"><ele>1145.6</ele><time>2026-04-13T14:18:45Z</time></trkpt><trkpt lat="43.809704105110896" lon="11.822055599833714"><ele>1147.3999999999999</ele><time>2026-04-13T14:18:46Z</time></trkpt><trkpt lat="43.80964592852072" lon="11.822176450161356"><ele>1149.2</ele><time>2026-04-13T14:18:47Z</time></trkpt><trkpt lat="43.80960090029582" lon="11.822327611387855"><ele>1151.0</ele><time>2026-04-13T14:18:48Z</time></trkpt><trkpt lat="43.80955024384965" lon="11.822476738643514"><ele>1151.0</ele><time>2026-04-13T14:18:49Z</time></trkpt><trkpt lat="43.809504962190594" lon="11.8226218136782"><ele>1151.0</ele><time>2026-04-13T14:18:50Z</time></trkpt><trkpt lat="43.80947591078698" lon="11.822751534916025"><ele>1151.0</ele><time>2026-04-13T14:18:51Z</time></trkpt><trkpt lat="43.80941756508669" lon="11.822902064860974"><ele>1151.0</ele><time>2026-04-13T14:18:52Z</time></trkpt><trkpt lat="43.809351057757944" lon="11.823003205664294"><ele>1151.0</ele><time>2026-04-13T14:18:53Z</time></trkpt><trkpt lat="43.80928235837118" lon="11.823100901043027"><ele>1151.6</ele><time>2026-04-13T14:18:54Z</time></trkpt><trkpt lat="43.80919046124594" lon="11.823206411778415"><ele>1152.1999999999998</ele><time>2026-04-13T14:18:55Z</time></trkpt><trkpt lat="43.8091048388706" lon="11.823243330166259"><ele>1152.8000000000002</ele><time>2026-04-13T14:18:56Z</time></trkpt><trkpt lat="43.809040236535004" lon="11.823340795791513"><ele>1153.4</ele><time>2026-04-13T14:18:57Z</time></trkpt><trkpt lat="43.80898940377978" lon="11.823454716771913"><ele>1154.0</ele><time>2026-04-13T14:18:58Z</time></trkpt><trkpt lat="43.80894331792519" lon="11.82359611100327"><ele>1154.0</ele><time>2026-04-13T14:18:59Z</time></trkpt><trkpt lat="43.80892065689365" lon="11.823719400057701"><ele>1154.0</ele><time>2026-04-13T14:19:00Z</time></trkpt><trkpt lat="43.80889739362231" lon="11.823844042348043"><ele>1154.0</ele><time>2026-04-13T14:19:01Z</time></trkpt><trkpt lat="43.80888357898975" lon="11.823977635657783"><ele>1154.0</ele><time>2026-04-13T14:19:02Z</time></trkpt><trkpt lat="43.808890408289585" lon="11.824116963325643"><ele>1154.0</ele><time>2026-04-13T14:19:03Z</time></trkpt><trkpt lat="43.80890239045194" lon="11.824238527961835"><ele>1154.25</ele><time>2026-04-13T14:19:04Z</time></trkpt><trkpt lat="43.80893853739567" lon="11.824401399306177"><ele>1154.5</ele><time>2026-04-13T14:19:05Z</time></trkpt><trkpt lat="43.80895203317021" lon="11.824562338205618"><ele>1154.75</ele><time>2026-04-13T14:19:06Z</time></trkpt><trkpt lat="43.80896573834936" lon="11.82470919653159"><ele>1155.0</ele><time>2026-04-13T14:19:07Z</time></trkpt><trkpt lat="43.80899192238084" lon="11.824900497246587"><ele>1155.0</ele><time>2026-04-13T14:19:08Z</time></trkpt><trkpt lat="43.80899027831448" lon="11.825102323523751"><ele>1155.0</ele><time>2026-04-13T14:19:09Z</time></trkpt><trkpt lat="43.8089953346307" lon="11.825319447306622"><ele>1155.0</ele><time>2026-04-13T14:19:10Z</time></trkpt><trkpt lat="43.809001287431954" lon="11.825531309003832"><ele>1155.5</ele><time>2026-04-13T14:19:11Z</time></trkpt><trkpt lat="43.80899992155652" lon="11.825755556062232"><ele>1156.0</ele><time>2026-04-13T14:19:12Z</time></trkpt><trkpt lat="43.80900198008681" lon="11.82595386827548"><ele>1156.5</ele><time>2026-04-13T14:19:13Z</time></trkpt><trkpt lat="43.80900717318956" lon="11.826150473971326"><ele>1157.0</ele><time>2026-04-13T14:19:14Z</time></trkpt><trkpt lat="43.809002084195264" lon="11.826337546505059"><ele>1158.75</ele><time>2026-04-13T14:19:15Z</time></trkpt><trkpt lat="43.80899591588291" lon="11.826523670873213"><ele>1160.5</ele><time>2026-04-13T14:19:16Z</time></trkpt><trkpt lat="43.80900628877933" lon="11.826683411406638"><ele>1162.25</ele><time>2026-04-13T14:19:17Z</time></trkpt><trkpt lat="43.80898807770353" lon="11.826848081361621"><ele>1164.0</ele><time>2026-04-13T14:19:18Z</time></trkpt><trkpt lat="43.80898239335071" lon="11.827012209096885"><ele>1165.2</ele><time>2026-04-13T14:19:19Z</time></trkpt><trkpt lat="43.808957840098714" lon="11.82716514562553"><ele>1166.4</ele><time>2026-04-13T14:19:20Z</time></trkpt><trkpt lat="43.80892214242171" lon="11.827307901966911"><ele>1167.6</ele><time>2026-04-13T14:19:21Z</time></trkpt><trkpt lat="43.80888235610546" lon="11.827431363718063"><ele>1168.8</ele><time>2026-04-13T14:19:22Z</time></trkpt><trkpt lat="43.80883470569665" lon="11.827568254729076"><ele>1170.0</ele><time>2026-04-13T14:19:23Z</time></trkpt><trkpt lat="43.8087736066045" lon="11.827705540828848"><ele>1173.25</ele><time>2026-04-13T14:19:24Z</time></trkpt><trkpt lat="43.80869603008495" lon="11.827828123987718"><ele>1176.5</ele><time>2026-04-13T14:19:25Z</time></trkpt><trkpt lat="43.80864164879503" lon="11.827966310706739"><ele>1179.75</ele><time>2026-04-13T14:19:26Z</time></trkpt><trkpt lat="43.80858142318103" lon="11.828093670038196"><ele>1183.0</ele><time>2026-04-13T14:19:27Z</time></trkpt><trkpt lat="43.80851379935581" lon="11.828245521343625"><ele>1181.75</ele><time>2026-04-13T14:19:28Z</time></trkpt><trkpt lat="43.808448353227774" lon="11.828400881374435"><ele>1180.5</ele><time>2026-04-13T14:19:29Z</time></trkpt><trkpt lat="43.80838680325003" lon="11.8285386224559"><ele>1179.25</ele><time>2026-04-13T14:19:30Z</time></trkpt><trkpt lat="43.80834275948559" lon="11.828664153016872"><ele>1178.0</ele><time>2026-04-13T14:19:31Z</time></trkpt><trkpt lat="43.80828666184525" lon="11.828789855513444"><ele>1178.0</ele><time>2026-04-13T14:19:32Z</time></trkpt><trkpt lat="43.8082293191008" lon="11.82891096762057"><ele>1178.0</ele><time>2026-04-13T14:19:33Z</time></trkpt><trkpt lat="43.80815555357167" lon="11.829031858556906"><ele>1178.0</ele><time>2026-04-13T14:19:34Z</time></trkpt><trkpt lat="43.80806904197351" lon="11.829151071187388"><ele>1178.0</ele><time>2026-04-13T14:19:35Z</time></trkpt><trkpt lat="43.80801967808392" lon="11.829246785979755"><ele>1178.0</ele><time>2026-04-13T14:19:36Z</time></trkpt><trkpt lat="43.80794590107991" lon="11.829339147511647"><ele>1180.25</ele><time>2026-04-13T14:19:37Z</time></trkpt><trkpt lat="43.80786539366067" lon="11.829443081330844"><ele>1182.5</ele><time>2026-04-13T14:19:38Z</time></trkpt><trkpt lat="43.80777826444042" lon="11.82955936381682"><ele>1184.75</ele><time>2026-04-13T14:19:40Z</time></trkpt><trkpt lat="43.80777005546248" lon="11.82972241077364"><ele>1187.0</ele><time>2026-04-13T14:19:42Z</time></trkpt><trkpt lat="43.80779283150495" lon="11.829892140677796"><ele>1187.0</ele><time>2026-04-13T14:19:44Z</time></trkpt><trkpt lat="43.807809940316815" lon="11.829978243520918"><ele>1187.0</ele><time>2026-04-13T14:19:45Z</time></trkpt><trkpt lat="43.807829661294235" lon="11.83007593954656"><ele>1187.0</ele><time>2026-04-13T14:19:46Z</time></trkpt><trkpt lat="43.80781999210893" lon="11.83022944103012"><ele>1187.0</ele><time>2026-04-13T14:19:48Z</time></trkpt><trkpt lat="43.807780240879794" lon="11.830298577134716"><ele>1187.0</ele><time>2026-04-13T14:19:49Z</time></trkpt><trkpt lat="43.80771655818684" lon="11.830429421233971"><ele>1187.0</ele><time>2026-04-13T14:19:51Z</time></trkpt><trkpt lat="43.8076460740916" lon="11.830507831833721"><ele>1186.5</ele><time>2026-04-13T14:19:52Z</time></trkpt><trkpt lat="43.80756030181729" lon="11.830552054211767"><ele>1186.0</ele><time>2026-04-13T14:19:53Z</time></trkpt><trkpt lat="43.80747083533552" lon="11.830593801121294"><ele>1185.5</ele><time>2026-04-13T14:19:54Z</time></trkpt><trkpt lat="43.80739173378385" lon="11.83061534703459"><ele>1185.0</ele><time>2026-04-13T14:19:55Z</time></trkpt><trkpt lat="43.807323632749984" lon="11.830654767976307"><ele>1184.5</ele><time>2026-04-13T14:19:56Z</time></trkpt><trkpt lat="43.80725165932978" lon="11.830691088304409"><ele>1184.0</ele><time>2026-04-13T14:19:57Z</time></trkpt><trkpt lat="43.80720408009894" lon="11.830834027034438"><ele>1184.0</ele><time>2026-04-13T14:19:59Z</time></trkpt><trkpt lat="43.80717611612284" lon="11.83091557614057"><ele>1184.0</ele><time>2026-04-13T14:20:00Z</time></trkpt><trkpt lat="43.80714515273864" lon="11.831024538725245"><ele>1184.0</ele><time>2026-04-13T14:20:01Z</time></trkpt><trkpt lat="43.807134231587014" lon="11.831121293037853"><ele>1184.0</ele><time>2026-04-13T14:20:02Z</time></trkpt><trkpt lat="43.80713247766821" lon="11.831214229401647"><ele>1184.0</ele><time>2026-04-13T14:20:03Z</time></trkpt><trkpt lat="43.80713638474924" lon="11.83131648200821"><ele>1184.0</ele><time>2026-04-13T14:20:04Z</time></trkpt><trkpt lat="43.80708601036969" lon="11.831510653005054"><ele>1186.8</ele><time>2026-04-13T14:20:06Z</time></trkpt><trkpt lat="43.807057773004914" lon="11.831612957007888"><ele>1189.6000000000001</ele><time>2026-04-13T14:20:07Z</time></trkpt><trkpt lat="43.807019434361855" lon="11.83170933169206"><ele>1192.4</ele><time>2026-04-13T14:20:08Z</time></trkpt><trkpt lat="43.80697797954005" lon="11.831828859465807"><ele>1195.2</ele><time>2026-04-13T14:20:09Z</time></trkpt><trkpt lat="43.80691768719728" lon="11.831960364072895"><ele>1198.0</ele><time>2026-04-13T14:20:10Z</time></trkpt><trkpt lat="43.80684283820389" lon="11.832096599062751"><ele>1198.0</ele><time>2026-04-13T14:20:11Z</time></trkpt><trkpt lat="43.806762503803604" lon="11.832165228735525"><ele>1198.0</ele><time>2026-04-13T14:20:12Z</time></trkpt><trkpt lat="43.80669487074174" lon="11.832244836064003"><ele>1198.0</ele><time>2026-04-13T14:20:13Z</time></trkpt><trkpt lat="43.80664247904314" lon="11.832329971759542"><ele>1198.0</ele><time>2026-04-13T14:20:14Z</time></trkpt><trkpt lat="43.8065639779657" lon="11.832403533372863"><ele>1198.0</ele><time>2026-04-13T14:20:15Z</time></trkpt><trkpt lat="43.8065000227001" lon="11.832411821426067"><ele>1198.0</ele><time>2026-04-13T14:20:16Z</time></trkpt><trkpt lat="43.80640139880214" lon="11.832346471554649"><ele>1198.0</ele><time>2026-04-13T14:20:18Z</time></trkpt><trkpt lat="43.806336912217745" lon="11.832256321623202"><ele>1198.0</ele><time>2026-04-13T14:20:19Z</time></trkpt><trkpt lat="43.806271601874634" lon="11.832170533869705"><ele>1198.0</ele><time>2026-04-13T14:20:20Z</time></trkpt><trkpt lat="43.806218853756235" lon="11.832092948404108"><ele>1198.0</ele><time>2026-04-13T14:20:21Z</time></trkpt><trkpt lat="43.80614655466731" lon="11.832019582549004"><ele>1198.0</ele><time>2026-04-13T14:20:22Z</time></trkpt><trkpt lat="43.80606234706057" lon="11.831957027782927"><ele>1198.0</ele><time>2026-04-13T14:20:23Z</time></trkpt><trkpt lat="43.805988427647165" lon="11.831887462483445"><ele>1196.0</ele><time>2026-04-13T14:20:24Z</time></trkpt><trkpt lat="43.80590394708046" lon="11.831846800743671"><ele>1194.0</ele><time>2026-04-13T14:20:25Z</time></trkpt><trkpt lat="43.805792305877446" lon="11.83181834646355"><ele>1192.0</ele><time>2026-04-13T14:20:26Z</time></trkpt><trkpt lat="43.805688469279204" lon="11.831806195263255"><ele>1190.0</ele><time>2026-04-13T14:20:27Z</time></trkpt><trkpt lat="43.805577808565275" lon="11.831779248930474"><ele>1188.0</ele><time>2026-04-13T14:20:28Z</time></trkpt><trkpt lat="43.805471958196904" lon="11.83174154788559"><ele>1188.0</ele><time>2026-04-13T14:20:29Z</time></trkpt><trkpt lat="43.80538018788517" lon="11.831705667378932"><ele>1188.0</ele><time>2026-04-13T14:20:30Z</time></trkpt><trkpt lat="43.805295226063" lon="11.83167121188751"><ele>1188.0</ele><time>2026-04-13T14:20:31Z</time></trkpt><trkpt lat="43.80522515515787" lon="11.83165621691139"><ele>1188.0</ele><time>2026-04-13T14:20:32Z</time></trkpt><trkpt lat="43.80514165624161" lon="11.831648128339262"><ele>1188.0</ele><time>2026-04-13T14:20:33Z</time></trkpt><trkpt lat="43.805069983772725" lon="11.831644693581174"><ele>1188.0</ele><time>2026-04-13T14:20:34Z</time></trkpt><trkpt lat="43.80498387564625" lon="11.831729615337085"><ele>1193.0</ele><time>2026-04-13T14:20:36Z</time></trkpt><trkpt lat="43.804988678883966" lon="11.831882529360525"><ele>1198.0</ele><time>2026-04-13T14:20:38Z</time></trkpt><trkpt lat="43.80503414461694" lon="11.831952213835878"><ele>1203.0</ele><time>2026-04-13T14:20:39Z</time></trkpt><trkpt lat="43.80515300679193" lon="11.832006362445568"><ele>1208.0</ele><time>2026-04-13T14:20:41Z</time></trkpt><trkpt lat="43.80523355200671" lon="11.832001287385074"><ele>1213.0</ele><time>2026-04-13T14:20:42Z</time></trkpt><trkpt lat="43.80532157509544" lon="11.831990140771913"><ele>1213.0</ele><time>2026-04-13T14:20:43Z</time></trkpt><trkpt lat="43.805411365533764" lon="11.831967846304073"><ele>1213.0</ele><time>2026-04-13T14:20:44Z</time></trkpt><trkpt lat="43.80549540824879" lon="11.831971145852428"><ele>1213.0</ele><time>2026-04-13T14:20:45Z</time></trkpt><trkpt lat="43.80557056006154" lon="11.831988122280304"><ele>1213.0</ele><time>2026-04-13T14:20:46Z</time></trkpt><trkpt lat="43.80565344524471" lon="11.832016926550725"><ele>1213.0</ele><time>2026-04-13T14:20:47Z</time></trkpt><trkpt lat="43.80575419634782" lon="11.832063161562562"><ele>1213.0</ele><time>2026-04-13T14:20:48Z</time></trkpt><trkpt lat="43.80584260014785" lon="11.832112203429979"><ele>1213.0</ele><time>2026-04-13T14:20:49Z</time></trkpt><trkpt lat="43.80591628335017" lon="11.832183455808092"><ele>1213.0</ele><time>2026-04-13T14:20:50Z</time></trkpt><trkpt lat="43.80598430150162" lon="11.832265144646765"><ele>1213.0</ele><time>2026-04-13T14:20:51Z</time></trkpt><trkpt lat="43.80605307289328" lon="11.832369095524358"><ele>1213.0</ele><time>2026-04-13T14:20:52Z</time></trkpt><trkpt lat="43.80610307418329" lon="11.832476148901346"><ele>1213.0</ele><time>2026-04-13T14:20:53Z</time></trkpt><trkpt lat="43.80616207430057" lon="11.832582128037473"><ele>1214.0</ele><time>2026-04-13T14:20:54Z</time></trkpt><trkpt lat="43.80621641418149" lon="11.832698000670002"><ele>1215.0</ele><time>2026-04-13T14:20:55Z</time></trkpt><trkpt lat="43.80627142214551" lon="11.83277099105328"><ele>1216.0</ele><time>2026-04-13T14:20:56Z</time></trkpt><trkpt lat="43.80632516597391" lon="11.83285306562303"><ele>1217.0</ele><time>2026-04-13T14:20:57Z</time></trkpt><trkpt lat="43.80638000833026" lon="11.832924373578358"><ele>1218.0</ele><time>2026-04-13T14:20:58Z</time></trkpt><trkpt lat="43.80645095404195" lon="11.832996825989044"><ele>1219.0</ele><time>2026-04-13T14:20:59Z</time></trkpt><trkpt lat="43.80652220347344" lon="11.833049686938235"><ele>1219.0</ele><time>2026-04-13T14:21:00Z</time></trkpt><trkpt lat="43.806597410443445" lon="11.833103133916758"><ele>1219.0</ele><time>2026-04-13T14:21:01Z</time></trkpt><trkpt lat="43.806649360369015" lon="11.83317134615926"><ele>1219.0</ele><time>2026-04-13T14:21:02Z</time></trkpt><trkpt lat="43.80670417535757" lon="11.833267122665664"><ele>1219.0</ele><time>2026-04-13T14:21:03Z</time></trkpt><trkpt lat="43.806739896793246" lon="11.833366204330574"><ele>1219.0</ele><time>2026-04-13T14:21:04Z</time></trkpt><trkpt lat="43.80681121289297" lon="11.833473982214926"><ele>1219.0</ele><time>2026-04-13T14:21:06Z</time></trkpt><trkpt lat="43.8068757858639" lon="11.833483633014236"><ele>1219.5</ele><time>2026-04-13T14:21:07Z</time></trkpt><trkpt lat="43.80695574230631" lon="11.833467774956786"><ele>1220.0</ele><time>2026-04-13T14:21:08Z</time></trkpt><trkpt lat="43.807020452946894" lon="11.833442822896338"><ele>1220.5</ele><time>2026-04-13T14:21:09Z</time></trkpt><trkpt lat="43.807095367086" lon="11.833452718487587"><ele>1221.0</ele><time>2026-04-13T14:21:10Z</time></trkpt><trkpt lat="43.807190964360295" lon="11.833462704045914"><ele>1221.5</ele><time>2026-04-13T14:21:11Z</time></trkpt><trkpt lat="43.80728801688574" lon="11.833449035704428"><ele>1222.0</ele><time>2026-04-13T14:21:12Z</time></trkpt><trkpt lat="43.80737990091281" lon="11.833415773780366"><ele>1222.0</ele><time>2026-04-13T14:21:13Z</time></trkpt><trkpt lat="43.80747040959926" lon="11.8333742963619"><ele>1222.0</ele><time>2026-04-13T14:21:14Z</time></trkpt><trkpt lat="43.80754171790626" lon="11.833318933760548"><ele>1222.0</ele><time>2026-04-13T14:21:15Z</time></trkpt><trkpt lat="43.807617017125445" lon="11.833253410975228"><ele>1222.0</ele><time>2026-04-13T14:21:16Z</time></trkpt><trkpt lat="43.807688363466525" lon="11.833188378666291"><ele>1222.0</ele><time>2026-04-13T14:21:17Z</time></trkpt><trkpt lat="43.80777366753791" lon="11.833128270791013"><ele>1222.0</ele><time>2026-04-13T14:21:18Z</time></trkpt><trkpt lat="43.80786415813399" lon="11.833111881134274"><ele>1224.4</ele><time>2026-04-13T14:21:19Z</time></trkpt><trkpt lat="43.80796031849711" lon="11.833118563282659"><ele>1226.8000000000002</ele><time>2026-04-13T14:21:20Z</time></trkpt><trkpt lat="43.808060929281815" lon="11.833121930579521"><ele>1229.2</ele><time>2026-04-13T14:21:21Z</time></trkpt><trkpt lat="43.80815264286295" lon="11.833105876695274"><ele>1231.6000000000001</ele><time>2026-04-13T14:21:22Z</time></trkpt><trkpt lat="43.808232410839686" lon="11.833071484675727"><ele>1234.0</ele><time>2026-04-13T14:21:23Z</time></trkpt><trkpt lat="43.80830706360859" lon="11.833031916248888"><ele>1234.0</ele><time>2026-04-13T14:21:24Z</time></trkpt><trkpt lat="43.80838325572837" lon="11.83299218896955"><ele>1234.0</ele><time>2026-04-13T14:21:25Z</time></trkpt><trkpt lat="43.80846047067743" lon="11.83293786022281"><ele>1234.0</ele><time>2026-04-13T14:21:26Z</time></trkpt><trkpt lat="43.80852821159919" lon="11.832872020537257"><ele>1234.0</ele><time>2026-04-13T14:21:27Z</time></trkpt><trkpt lat="43.80858030991909" lon="11.832796224912927"><ele>1234.0</ele><time>2026-04-13T14:21:28Z</time></trkpt><trkpt lat="43.80861662044952" lon="11.832702100899159"><ele>1234.0</ele><time>2026-04-13T14:21:29Z</time></trkpt><trkpt lat="43.808632954315705" lon="11.832604865504145"><ele>1234.8333333333333</ele><time>2026-04-13T14:21:30Z</time></trkpt><trkpt lat="43.80865385019916" lon="11.832495858563796"><ele>1235.6666666666665</ele><time>2026-04-13T14:21:31Z</time></trkpt><trkpt lat="43.80866670711116" lon="11.832408972409167"><ele>1236.5</ele><time>2026-04-13T14:21:32Z</time></trkpt><trkpt lat="43.80874510333855" lon="11.832283697770313"><ele>1237.3333333333333</ele><time>2026-04-13T14:21:34Z</time></trkpt><trkpt lat="43.80881067540987" lon="11.832243613282648"><ele>1238.1666666666667</ele><time>2026-04-13T14:21:35Z</time></trkpt><trkpt lat="43.808879630611465" lon="11.83220235827896"><ele>1239.0</ele><time>2026-04-13T14:21:36Z</time></trkpt><trkpt lat="43.80897202316879" lon="11.832169936488118"><ele>1239.0</ele><time>2026-04-13T14:21:37Z</time></trkpt><trkpt lat="43.80907498127956" lon="11.832145239133892"><ele>1239.0</ele><time>2026-04-13T14:21:38Z</time></trkpt><trkpt lat="43.809180661121765" lon="11.832100241015434"><ele>1239.0</ele><time>2026-04-13T14:21:39Z</time></trkpt><trkpt lat="43.80927702115175" lon="11.832030656120208"><ele>1239.0</ele><time>2026-04-13T14:21:40Z</time></trkpt><trkpt lat="43.809383314257765" lon="11.831972965669436"><ele>1239.0</ele><time>2026-04-13T14:21:41Z</time></trkpt><trkpt lat="43.809489591706374" lon="11.831915773188502"><ele>1239.4</ele><time>2026-04-13T14:21:42Z</time></trkpt><trkpt lat="43.80958638626401" lon="11.831864252058772"><ele>1239.8000000000002</ele><time>2026-04-13T14:21:43Z</time></trkpt><trkpt lat="43.80968168422633" lon="11.831822997632504"><ele>1240.1999999999998</ele><time>2026-04-13T14:21:44Z</time></trkpt><trkpt lat="43.809778058459166" lon="11.83179656121746"><ele>1240.6</ele><time>2026-04-13T14:21:45Z</time></trkpt><trkpt lat="43.80987070433698" lon="11.831779742414168"><ele>1241.0</ele><time>2026-04-13T14:21:46Z</time></trkpt><trkpt lat="43.80994849278291" lon="11.831764760103011"><ele>1241.0</ele><time>2026-04-13T14:21:47Z</time></trkpt><trkpt lat="43.81002214347605" lon="11.831723848863861"><ele>1241.0</ele><time>2026-04-13T14:21:48Z</time></trkpt><trkpt lat="43.81008881764253" lon="11.83165820895136"><ele>1241.0</ele><time>2026-04-13T14:21:49Z</time></trkpt><trkpt lat="43.81014621485591" lon="11.83160322904254"><ele>1241.0</ele><time>2026-04-13T14:21:50Z</time></trkpt><trkpt lat="43.81026465826932" lon="11.831565877376121"><ele>1241.0</ele><time>2026-04-13T14:21:52Z</time></trkpt><trkpt lat="43.81033399261227" lon="11.831595548247282"><ele>1241.0</ele><time>2026-04-13T14:21:53Z</time></trkpt><trkpt lat="43.810416907751566" lon="11.831611646609936"><ele>1243.0</ele><time>2026-04-13T14:21:54Z</time></trkpt><trkpt lat="43.81051067859102" lon="11.831603865352191"><ele>1245.0</ele><time>2026-04-13T14:21:55Z</time></trkpt><trkpt lat="43.81060831138103" lon="11.831583014923655"><ele>1247.0</ele><time>2026-04-13T14:21:56Z</time></trkpt><trkpt lat="43.81070157069451" lon="11.831530083496252"><ele>1249.0</ele><time>2026-04-13T14:21:57Z</time></trkpt><trkpt lat="43.81079969540566" lon="11.831482093194898"><ele>1251.0</ele><time>2026-04-13T14:21:58Z</time></trkpt><trkpt lat="43.810900793451125" lon="11.831437855214824"><ele>1251.0</ele><time>2026-04-13T14:21:59Z</time></trkpt><trkpt lat="43.810989703805994" lon="11.831395288800472"><ele>1251.0</ele><time>2026-04-13T14:22:00Z</time></trkpt><trkpt lat="43.811077386519976" lon="11.831346538015131"><ele>1251.0</ele><time>2026-04-13T14:22:01Z</time></trkpt><trkpt lat="43.81116107845486" lon="11.831305603390188"><ele>1251.0</ele><time>2026-04-13T14:22:02Z</time></trkpt><trkpt lat="43.811244597801284" lon="11.83128165495643"><ele>1251.0</ele><time>2026-04-13T14:22:03Z</time></trkpt><trkpt lat="43.81133482245197" lon="11.831267811353284"><ele>1253.0</ele><time>2026-04-13T14:22:04Z</time></trkpt><trkpt lat="43.81142711112871" lon="11.831240979349213"><ele>1255.0</ele><time>2026-04-13T14:22:05Z</time></trkpt><trkpt lat="43.8115148302147" lon="11.831178589057947"><ele>1257.0</ele><time>2026-04-13T14:22:06Z</time></trkpt><trkpt lat="43.81160736458231" lon="11.831117270107352"><ele>1259.0</ele><time>2026-04-13T14:22:07Z</time></trkpt><trkpt lat="43.81169542870558" lon="11.831071668912108"><ele>1261.0</ele><time>2026-04-13T14:22:08Z</time></trkpt><trkpt lat="43.81178237519833" lon="11.831050109902703"><ele>1261.0</ele><time>2026-04-13T14:22:09Z</time></trkpt><trkpt lat="43.81187127713476" lon="11.831021476552776"><ele>1261.0</ele><time>2026-04-13T14:22:10Z</time></trkpt><trkpt lat="43.81195856227967" lon="11.830986952806283"><ele>1261.0</ele><time>2026-04-13T14:22:11Z</time></trkpt><trkpt lat="43.812040027017716" lon="11.830953224070003"><ele>1261.0</ele><time>2026-04-13T14:22:12Z</time></trkpt><trkpt lat="43.81211619801837" lon="11.830909089091769"><ele>1261.0</ele><time>2026-04-13T14:22:13Z</time></trkpt><trkpt lat="43.812184730992676" lon="11.830869045506063"><ele>1261.0</ele><time>2026-04-13T14:22:14Z</time></trkpt><trkpt lat="43.81229925930089" lon="11.830786234589654"><ele>1259.8333333333333</ele><time>2026-04-13T14:22:16Z</time></trkpt><trkpt lat="43.81236305210875" lon="11.830744524670804"><ele>1258.6666666666665</ele><time>2026-04-13T14:22:17Z</time></trkpt><trkpt lat="43.81243314413795" lon="11.830705398389098"><ele>1257.5</ele><time>2026-04-13T14:22:18Z</time></trkpt><trkpt lat="43.812501593544404" lon="11.830666645487137"><ele>1256.3333333333333</ele><time>2026-04-13T14:22:19Z</time></trkpt><trkpt lat="43.812561373800094" lon="11.83063314821268"><ele>1255.1666666666667</ele><time>2026-04-13T14:22:20Z</time></trkpt><trkpt lat="43.812663358358414" lon="11.83059591414001"><ele>1254.0</ele><time>2026-04-13T14:22:22Z</time></trkpt><trkpt lat="43.81278023126442" lon="11.830666232684557"><ele>1251.7142857142858</ele><time>2026-04-13T14:22:24Z</time></trkpt><trkpt lat="43.81282267598374" lon="11.830737936709296"><ele>1249.4285714285713</ele><time>2026-04-13T14:22:25Z</time></trkpt><trkpt lat="43.81284262485009" lon="11.83082854710189"><ele>1247.142857142857</ele><time>2026-04-13T14:22:26Z</time></trkpt><trkpt lat="43.812853430371334" lon="11.830926280089919"><ele>1244.857142857143</ele><time>2026-04-13T14:22:27Z</time></trkpt><trkpt lat="43.812855943741916" lon="11.831027231523489"><ele>1242.5714285714287</ele><time>2026-04-13T14:22:28Z</time></trkpt><trkpt lat="43.81285217342388" lon="11.831135274898719"><ele>1240.2857142857142</ele><time>2026-04-13T14:22:29Z</time></trkpt><trkpt lat="43.812842854998266" lon="11.831242836793399"><ele>1238.0</ele><time>2026-04-13T14:22:30Z</time></trkpt><trkpt lat="43.81282969268956" lon="11.831360434035174"><ele>1237.8333333333335</ele><time>2026-04-13T14:22:31Z</time></trkpt><trkpt lat="43.81282199278307" lon="11.831471653999092"><ele>1237.6666666666667</ele><time>2026-04-13T14:22:32Z</time></trkpt><trkpt lat="43.81281493120294" lon="11.831580427734927"><ele>1237.5</ele><time>2026-04-13T14:22:33Z</time></trkpt><trkpt lat="43.812809788469586" lon="11.831692824680706"><ele>1237.3333333333333</ele><time>2026-04-13T14:22:34Z</time></trkpt><trkpt lat="43.81280257266698" lon="11.831795720854117"><ele>1237.1666666666665</ele><time>2026-04-13T14:22:35Z</time></trkpt><trkpt lat="43.812796834175096" lon="11.831899557295602"><ele>1237.0</ele><time>2026-04-13T14:22:36Z</time></trkpt><trkpt lat="43.81277995160056" lon="11.832002695234538"><ele>1239.3333333333333</ele><time>2026-04-13T14:22:37Z</time></trkpt><trkpt lat="43.8127589618065" lon="11.832098648957338"><ele>1241.6666666666665</ele><time>2026-04-13T14:22:38Z</time></trkpt><trkpt lat="43.81276683344889" lon="11.83227672700927"><ele>1244.0</ele><time>2026-04-13T14:22:40Z</time></trkpt><trkpt lat="43.81279770459589" lon="11.832353375394337"><ele>1246.3333333333333</ele><time>2026-04-13T14:22:41Z</time></trkpt><trkpt lat="43.812840362391135" lon="11.832422730410538"><ele>1248.6666666666667</ele><time>2026-04-13T14:22:42Z</time></trkpt><trkpt lat="43.81287928894787" lon="11.832495649943926"><ele>1251.0</ele><time>2026-04-13T14:22:43Z</time></trkpt><trkpt lat="43.812925891957" lon="11.83257669146792"><ele>1254.0</ele><time>2026-04-13T14:22:44Z</time></trkpt><trkpt lat="43.812959119491175" lon="11.832656064562679"><ele>1257.0</ele><time>2026-04-13T14:22:45Z</time></trkpt><trkpt lat="43.81301589285986" lon="11.832789492562119"><ele>1260.0</ele><time>2026-04-13T14:22:47Z</time></trkpt><trkpt lat="43.813069304558454" lon="11.832842587712287"><ele>1263.0</ele><time>2026-04-13T14:22:48Z</time></trkpt><trkpt lat="43.813187354171184" lon="11.83286399764723"><ele>1266.0</ele><time>2026-04-13T14:22:50Z</time></trkpt><trkpt lat="43.813310408900975" lon="11.832848483162314"><ele>1266.0</ele><time>2026-04-13T14:22:52Z</time></trkpt><trkpt lat="43.813386672664976" lon="11.832880100423354"><ele>1266.0</ele><time>2026-04-13T14:22:53Z</time></trkpt><trkpt lat="43.81347142967841" lon="11.832898730663622"><ele>1266.0</ele><time>2026-04-13T14:22:54Z</time></trkpt><trkpt lat="43.813563261495545" lon="11.83289036574977"><ele>1266.0</ele><time>2026-04-13T14:22:55Z</time></trkpt><trkpt lat="43.813638248059" lon="11.832903019084812"><ele>1266.0</ele><time>2026-04-13T14:22:56Z</time></trkpt><trkpt lat="43.81368942063876" lon="11.832988895181213"><ele>1266.0</ele><time>2026-04-13T14:22:58Z</time></trkpt><trkpt lat="43.81373381401475" lon="11.833054375422085"><ele>1258.2</ele><time>2026-04-13T14:22:59Z</time></trkpt><trkpt lat="43.81369245240488" lon="11.833229478265114"><ele>1250.3999999999999</ele><time>2026-04-13T14:23:01Z</time></trkpt><trkpt lat="43.813670003278375" lon="11.833316513738831"><ele>1242.6</ele><time>2026-04-13T14:23:02Z</time></trkpt><trkpt lat="43.81365761732564" lon="11.83342383249487"><ele>1234.8</ele><time>2026-04-13T14:23:03Z</time></trkpt><trkpt lat="43.813648470261455" lon="11.833596427996758"><ele>1227.0</ele><time>2026-04-13T14:23:05Z</time></trkpt><trkpt lat="43.813613011811086" lon="11.833698561519656"><ele>1223.8</ele><time>2026-04-13T14:23:06Z</time></trkpt><trkpt lat="43.813585148519316" lon="11.833781937042465"><ele>1220.6</ele><time>2026-04-13T14:23:07Z</time></trkpt><trkpt lat="43.81349317867918" lon="11.833871268032205"><ele>1217.3999999999999</ele><time>2026-04-13T14:23:09Z</time></trkpt><trkpt lat="43.81337667917006" lon="11.833902754761198"><ele>1214.2</ele><time>2026-04-13T14:23:11Z</time></trkpt><trkpt lat="43.8132920139385" lon="11.833975796921813"><ele>1211.0</ele><time>2026-04-13T14:23:13Z</time></trkpt><trkpt lat="43.81324048349412" lon="11.834095828372636"><ele>1217.6</ele><time>2026-04-13T14:23:15Z</time></trkpt><trkpt lat="43.81320925822159" lon="11.83424589021234"><ele>1224.1999999999998</ele><time>2026-04-13T14:23:17Z</time></trkpt><trkpt lat="43.813195316725036" lon="11.834340383174277"><ele>1230.8000000000002</ele><time>2026-04-13T14:23:18Z</time></trkpt><trkpt lat="43.813161435418984" lon="11.83451838397491"><ele>1237.4</ele><time>2026-04-13T14:23:20Z</time></trkpt><trkpt lat="43.8131439540323" lon="11.83462256760269"><ele>1244.0</ele><time>2026-04-13T14:23:21Z</time></trkpt><trkpt lat="43.8131264898125" lon="11.834713820609624"><ele>1244.0</ele><time>2026-04-13T14:23:22Z</time></trkpt><trkpt lat="43.813131084290795" lon="11.834876226508948"><ele>1244.0</ele><time>2026-04-13T14:23:24Z</time></trkpt><trkpt lat="43.81305260449559" lon="11.835017974450988"><ele>1244.0</ele><time>2026-04-13T14:23:26Z</time></trkpt><trkpt lat="43.81298228916186" lon="11.835145056118124"><ele>1244.0</ele><time>2026-04-13T14:23:28Z</time></trkpt><trkpt lat="43.8128959752703" lon="11.835285244724892"><ele>1242.0</ele><time>2026-04-13T14:23:30Z</time></trkpt><trkpt lat="43.81282475467576" lon="11.835402496289506"><ele>1240.0</ele><time>2026-04-13T14:23:32Z</time></trkpt><trkpt lat="43.81274702755365" lon="11.835543234201108"><ele>1238.0</ele><time>2026-04-13T14:23:34Z</time></trkpt><trkpt lat="43.81271008413896" lon="11.835617025418387"><ele>1236.0</ele><time>2026-04-13T14:23:35Z</time></trkpt><trkpt lat="43.812640427065254" lon="11.83576602509101"><ele>1234.0</ele><time>2026-04-13T14:23:37Z</time></trkpt><trkpt lat="43.812589147569525" lon="11.835922522568163"><ele>1240.5</ele><time>2026-04-13T14:23:39Z</time></trkpt><trkpt lat="43.812587180521085" lon="11.836020670379282"><ele>1247.0</ele><time>2026-04-13T14:23:40Z</time></trkpt><trkpt lat="43.81255988759484" lon="11.83610117531568"><ele>1253.5</ele><time>2026-04-13T14:23:41Z</time></trkpt><trkpt lat="43.81255515291221" lon="11.836278769999279"><ele>1260.0</ele><time>2026-04-13T14:23:43Z</time></trkpt><trkpt lat="43.812559552955726" lon="11.83638000664081"><ele>1266.5</ele><time>2026-04-13T14:23:44Z</time></trkpt><trkpt lat="43.812568079915195" lon="11.836466960799196"><ele>1273.0</ele><time>2026-04-13T14:23:45Z</time></trkpt><trkpt lat="43.81258225150215" lon="11.83655940374036"><ele>1273.0</ele><time>2026-04-13T14:23:46Z</time></trkpt><trkpt lat="43.81260127980099" lon="11.83664900976779"><ele>1273.0</ele><time>2026-04-13T14:23:47Z</time></trkpt><trkpt lat="43.81262945939462" lon="11.8367515762722"><ele>1273.0</ele><time>2026-04-13T14:23:48Z</time></trkpt><trkpt lat="43.81266491486844" lon="11.836849795142724"><ele>1273.0</ele><time>2026-04-13T14:23:49Z</time></trkpt><trkpt lat="43.812697822091614" lon="11.836935452876792"><ele>1273.0</ele><time>2026-04-13T14:23:50Z</time></trkpt><trkpt lat="43.812757037518516" lon="11.837069559638755"><ele>1273.0</ele><time>2026-04-13T14:23:52Z</time></trkpt><trkpt lat="43.812798600973075" lon="11.837151588642001"><ele>1265.1666666666665</ele><time>2026-04-13T14:23:53Z</time></trkpt><trkpt lat="43.81284972167258" lon="11.837227561602425"><ele>1257.3333333333333</ele><time>2026-04-13T14:23:54Z</time></trkpt><trkpt lat="43.81289040176174" lon="11.837294274206114"><ele>1249.5</ele><time>2026-04-13T14:23:55Z</time></trkpt><trkpt lat="43.812930582435335" lon="11.837365009559763"><ele>1241.6666666666667</ele><time>2026-04-13T14:23:56Z</time></trkpt><trkpt lat="43.81294435494457" lon="11.837462213244995"><ele>1233.8333333333335</ele><time>2026-04-13T14:23:57Z</time></trkpt><trkpt lat="43.812959336752726" lon="11.837598111567708"><ele>1226.0</ele><time>2026-04-13T14:23:59Z</time></trkpt><trkpt lat="43.81291064108705" lon="11.837721833515825"><ele>1220.25</ele><time>2026-04-13T14:24:01Z</time></trkpt><trkpt lat="43.81284102632634" lon="11.837848937298947"><ele>1214.5</ele><time>2026-04-13T14:24:03Z</time></trkpt><trkpt lat="43.8127609074224" lon="11.837943305604323"><ele>1208.75</ele><time>2026-04-13T14:24:05Z</time></trkpt><trkpt lat="43.81263615222761" lon="11.83789020762561"><ele>1203.0</ele><time>2026-04-13T14:24:07Z</time></trkpt><trkpt lat="43.81252284495123" lon="11.837838654900061"><ele>1211.0</ele><time>2026-04-13T14:24:09Z</time></trkpt><trkpt lat="43.812451219750486" lon="11.837814548217693"><ele>1219.0</ele><time>2026-04-13T14:24:10Z</time></trkpt><trkpt lat="43.81238572702135" lon="11.837798889183857"><ele>1227.0</ele><time>2026-04-13T14:24:11Z</time></trkpt><trkpt lat="43.812320467024314" lon="11.837812162616622"><ele>1235.0</ele><time>2026-04-13T14:24:12Z</time></trkpt><trkpt lat="43.8122072216075" lon="11.837835367687767"><ele>1243.0</ele><time>2026-04-13T14:24:14Z</time></trkpt><trkpt lat="43.81212939774118" lon="11.83788055262375"><ele>1251.0</ele><time>2026-04-13T14:24:15Z</time></trkpt><trkpt lat="43.812069074823725" lon="11.837930364307555"><ele>1251.0</ele><time>2026-04-13T14:24:16Z</time></trkpt><trkpt lat="43.81199466987904" lon="11.837980981471086"><ele>1251.0</ele><time>2026-04-13T14:24:17Z</time></trkpt><trkpt lat="43.81193261989581" lon="11.838021257749096"><ele>1251.0</ele><time>2026-04-13T14:24:18Z</time></trkpt><trkpt lat="43.81188002047234" lon="11.838070166504407"><ele>1251.0</ele><time>2026-04-13T14:24:19Z</time></trkpt><trkpt lat="43.8118338182004" lon="11.838137017924286"><ele>1251.0</ele><time>2026-04-13T14:24:20Z</time></trkpt><trkpt lat="43.81179173837866" lon="11.838217632760847"><ele>1251.0</ele><time>2026-04-13T14:24:21Z</time></trkpt><trkpt lat="43.811766760695825" lon="11.838299695715333"><ele>1251.0</ele><time>2026-04-13T14:24:22Z</time></trkpt><trkpt lat="43.811767323267894" lon="11.83840255944885"><ele>1247.0</ele><time>2026-04-13T14:24:23Z</time></trkpt><trkpt lat="43.81178193378309" lon="11.83856335061001"><ele>1243.0</ele><time>2026-04-13T14:24:25Z</time></trkpt><trkpt lat="43.8118069902718" lon="11.838729116481304"><ele>1239.0</ele><time>2026-04-13T14:24:27Z</time></trkpt><trkpt lat="43.8118694942803" lon="11.838906444689359"><ele>1235.0</ele><time>2026-04-13T14:24:29Z</time></trkpt><trkpt lat="43.81191511181781" lon="11.83898450695532"><ele>1235.0</ele><time>2026-04-13T14:24:30Z</time></trkpt><trkpt lat="43.81195680992371" lon="11.839050462270345"><ele>1235.0</ele><time>2026-04-13T14:24:31Z</time></trkpt><trkpt lat="43.81200974654907" lon="11.839114506407904"><ele>1235.0</ele><time>2026-04-13T14:24:32Z</time></trkpt><trkpt lat="43.81205719477476" lon="11.839177150217099"><ele>1235.0</ele><time>2026-04-13T14:24:33Z</time></trkpt><trkpt lat="43.812136135651315" lon="11.839293502532637"><ele>1235.0</ele><time>2026-04-13T14:24:35Z</time></trkpt><trkpt lat="43.8122008575735" lon="11.839447866207548"><ele>1235.0</ele><time>2026-04-13T14:24:37Z</time></trkpt><trkpt lat="43.81223634486901" lon="11.8395843654976"><ele>1235.4</ele><time>2026-04-13T14:24:39Z</time></trkpt><trkpt lat="43.812285400174254" lon="11.839755112002784"><ele>1235.8</ele><time>2026-04-13T14:24:41Z</time></trkpt><trkpt lat="43.81230782063973" lon="11.839843255662501"><ele>1236.2</ele><time>2026-04-13T14:24:42Z</time></trkpt><trkpt lat="43.81233089450902" lon="11.83999340129529"><ele>1236.6</ele><time>2026-04-13T14:24:44Z</time></trkpt><trkpt lat="43.812302821015926" lon="11.84010839723552"><ele>1237.0</ele><time>2026-04-13T14:24:46Z</time></trkpt><trkpt lat="43.81221549252297" lon="11.84022954681077"><ele>1234.6666666666665</ele><time>2026-04-13T14:24:48Z</time></trkpt><trkpt lat="43.81216587697287" lon="11.840299042811193"><ele>1232.3333333333333</ele><time>2026-04-13T14:24:49Z</time></trkpt><trkpt lat="43.81211597942526" lon="11.840356374259429"><ele>1230.0</ele><time>2026-04-13T14:24:50Z</time></trkpt><trkpt lat="43.81202825074763" lon="11.84045673783066"><ele>1227.6666666666667</ele><time>2026-04-13T14:24:52Z</time></trkpt><trkpt lat="43.8119802023982" lon="11.840527630049664"><ele>1225.3333333333335</ele><time>2026-04-13T14:24:53Z</time></trkpt><trkpt lat="43.81192621800684" lon="11.840592560059942"><ele>1223.0</ele><time>2026-04-13T14:24:54Z</time></trkpt><trkpt lat="43.81187858601133" lon="11.840667551031581"><ele>1223.0</ele><time>2026-04-13T14:24:55Z</time></trkpt><trkpt lat="43.81182727665082" lon="11.840719142708148"><ele>1223.0</ele><time>2026-04-13T14:24:56Z</time></trkpt><trkpt lat="43.811757715973386" lon="11.84083475163443"><ele>1223.0</ele><time>2026-04-13T14:24:58Z</time></trkpt><trkpt lat="43.8117458816684" lon="11.84094886848046"><ele>1223.0</ele><time>2026-04-13T14:24:59Z</time></trkpt><trkpt lat="43.81170815120237" lon="11.841027541097796"><ele>1223.0</ele><time>2026-04-13T14:25:00Z</time></trkpt><trkpt lat="43.81167731815036" lon="11.841114803400169"><ele>1223.0</ele><time>2026-04-13T14:25:01Z</time></trkpt><trkpt lat="43.81165037901525" lon="11.84120058831312"><ele>1229.2</ele><time>2026-04-13T14:25:02Z</time></trkpt><trkpt lat="43.81161309566123" lon="11.8412746291961"><ele>1235.4</ele><time>2026-04-13T14:25:03Z</time></trkpt><trkpt lat="43.81158660049815" lon="11.841355038092713"><ele>1241.6000000000001</ele><time>2026-04-13T14:25:04Z</time></trkpt><trkpt lat="43.81151681950179" lon="11.8415107889779"><ele>1247.8</ele><time>2026-04-13T14:25:06Z</time></trkpt><trkpt lat="43.811500970872906" lon="11.841680714950744"><ele>1254.0</ele><time>2026-04-13T14:25:08Z</time></trkpt><trkpt lat="43.8115085798395" lon="11.841788988764423"><ele>1252.4285714285716</ele><time>2026-04-13T14:25:09Z</time></trkpt><trkpt lat="43.81151467085473" lon="11.841890224917497"><ele>1250.857142857143</ele><time>2026-04-13T14:25:10Z</time></trkpt><trkpt lat="43.81153806595439" lon="11.841992381075908"><ele>1249.2857142857142</ele><time>2026-04-13T14:25:11Z</time></trkpt><trkpt lat="43.811547945946444" lon="11.8420887084993"><ele>1247.7142857142858</ele><time>2026-04-13T14:25:12Z</time></trkpt><trkpt lat="43.81156646953346" lon="11.842184392743162"><ele>1246.142857142857</ele><time>2026-04-13T14:25:13Z</time></trkpt><trkpt lat="43.81157894513808" lon="11.842278172542352"><ele>1244.5714285714287</ele><time>2026-04-13T14:25:14Z</time></trkpt><trkpt lat="43.81159111359463" lon="11.842372592824619"><ele>1243.0</ele><time>2026-04-13T14:25:15Z</time></trkpt><trkpt lat="43.81162163707266" lon="11.842539113871329"><ele>1240.2</ele><time>2026-04-13T14:25:17Z</time></trkpt><trkpt lat="43.81160651795601" lon="11.842699985397381"><ele>1237.4</ele><time>2026-04-13T14:25:19Z</time></trkpt><trkpt lat="43.81151200593727" lon="11.842791039088251"><ele>1234.6000000000001</ele><time>2026-04-13T14:25:21Z</time></trkpt><trkpt lat="43.81143881760455" lon="11.84292663235166"><ele>1231.8</ele><time>2026-04-13T14:25:23Z</time></trkpt><trkpt lat="43.811431304416836" lon="11.843017537399124"><ele>1229.0</ele><time>2026-04-13T14:25:24Z</time></trkpt><trkpt lat="43.81142479426467" lon="11.843190776947756"><ele>1229.0</ele><time>2026-04-13T14:25:26Z</time></trkpt><trkpt lat="43.81143120575164" lon="11.843344703923092"><ele>1229.0</ele><time>2026-04-13T14:25:28Z</time></trkpt><trkpt lat="43.811445548900394" lon="11.84348463712826"><ele>1229.0</ele><time>2026-04-13T14:25:30Z</time></trkpt><trkpt lat="43.81141286391717" lon="11.843643932262447"><ele>1229.0</ele><time>2026-04-13T14:25:32Z</time></trkpt><trkpt lat="43.81135950654149" lon="11.84378785337928"><ele>1226.0</ele><time>2026-04-13T14:25:34Z</time></trkpt><trkpt lat="43.81126590419952" lon="11.843882504254772"><ele>1223.0</ele><time>2026-04-13T14:25:36Z</time></trkpt><trkpt lat="43.81115210072949" lon="11.84391713212977"><ele>1220.0</ele><time>2026-04-13T14:25:38Z</time></trkpt><trkpt lat="43.81103512160602" lon="11.843930105135966"><ele>1217.0</ele><time>2026-04-13T14:25:40Z</time></trkpt><trkpt lat="43.81092311784423" lon="11.843956701939529"><ele>1222.6666666666667</ele><time>2026-04-13T14:25:42Z</time></trkpt><trkpt lat="43.81081771714648" lon="11.844037260207324"><ele>1228.3333333333335</ele><time>2026-04-13T14:25:44Z</time></trkpt><trkpt lat="43.81076115203219" lon="11.844087472432587"><ele>1234.0</ele><time>2026-04-13T14:25:45Z</time></trkpt><trkpt lat="43.81071151183014" lon="11.844154296248266"><ele>1239.6666666666667</ele><time>2026-04-13T14:25:46Z</time></trkpt><trkpt lat="43.81064869990214" lon="11.844186258982184"><ele>1245.3333333333333</ele><time>2026-04-13T14:25:47Z</time></trkpt><trkpt lat="43.810594556683974" lon="11.844239599196193"><ele>1251.0</ele><time>2026-04-13T14:25:48Z</time></trkpt><trkpt lat="43.81054343984037" lon="11.844292512464294"><ele>1249.4285714285713</ele><time>2026-04-13T14:25:49Z</time></trkpt><trkpt lat="43.810488455291846" lon="11.844351632223846"><ele>1247.857142857143</ele><time>2026-04-13T14:25:50Z</time></trkpt><trkpt lat="43.81043236174713" lon="11.84441284686841"><ele>1246.2857142857142</ele><time>2026-04-13T14:25:51Z</time></trkpt><trkpt lat="43.81039310356625" lon="11.844484263531431"><ele>1244.7142857142858</ele><time>2026-04-13T14:25:52Z</time></trkpt><trkpt lat="43.81034436064259" lon="11.844543021808676"><ele>1243.142857142857</ele><time>2026-04-13T14:25:53Z</time></trkpt><trkpt lat="43.81029416931775" lon="11.844600924763457"><ele>1241.5714285714287</ele><time>2026-04-13T14:25:54Z</time></trkpt><trkpt lat="43.810250609209604" lon="11.844692468712724"><ele>1240.0</ele><time>2026-04-13T14:25:55Z</time></trkpt><trkpt lat="43.81022992879986" lon="11.84486546810356"><ele>1240.0</ele><time>2026-04-13T14:25:57Z</time></trkpt><trkpt lat="43.8102522512947" lon="11.844958341099245"><ele>1240.0</ele><time>2026-04-13T14:25:58Z</time></trkpt><trkpt lat="43.81025765894729" lon="11.845057554839778"><ele>1240.0</ele><time>2026-04-13T14:25:59Z</time></trkpt><trkpt lat="43.81028981405848" lon="11.845154277922118"><ele>1240.0</ele><time>2026-04-13T14:26:00Z</time></trkpt><trkpt lat="43.81032250091727" lon="11.845242497472556"><ele>1240.0</ele><time>2026-04-13T14:26:01Z</time></trkpt><trkpt lat="43.810330895083354" lon="11.845338047098789"><ele>1240.0</ele><time>2026-04-13T14:26:02Z</time></trkpt><trkpt lat="43.8103545055873" lon="11.84542894223057"><ele>1240.0</ele><time>2026-04-13T14:26:03Z</time></trkpt><trkpt lat="43.81038704372896" lon="11.84558130422235"><ele>1239.8333333333333</ele><time>2026-04-13T14:26:05Z</time></trkpt><trkpt lat="43.81037085489445" lon="11.845737012184165"><ele>1239.6666666666665</ele><time>2026-04-13T14:26:07Z</time></trkpt><trkpt lat="43.810353686926945" lon="11.845830357952154"><ele>1239.5</ele><time>2026-04-13T14:26:08Z</time></trkpt><trkpt lat="43.81029497374215" lon="11.84597926430082"><ele>1239.3333333333333</ele><time>2026-04-13T14:26:10Z</time></trkpt><trkpt lat="43.810267844681164" lon="11.846063760026075"><ele>1239.1666666666667</ele><time>2026-04-13T14:26:11Z</time></trkpt><trkpt lat="43.810259088933435" lon="11.84615938393152"><ele>1239.0</ele><time>2026-04-13T14:26:12Z</time></trkpt><trkpt lat="43.81025791524997" lon="11.846362066646643"><ele>1238.6666666666667</ele><time>2026-04-13T14:26:14Z</time></trkpt><trkpt lat="43.81028167987744" lon="11.846504475446658"><ele>1238.3333333333333</ele><time>2026-04-13T14:26:16Z</time></trkpt><trkpt lat="43.81030795857328" lon="11.846593690494219"><ele>1238.0</ele><time>2026-04-13T14:26:17Z</time></trkpt><trkpt lat="43.81030813303342" lon="11.846698487605881"><ele>1237.6666666666665</ele><time>2026-04-13T14:26:18Z</time></trkpt><trkpt lat="43.81026235833315" lon="11.846853827659059"><ele>1237.3333333333333</ele><time>2026-04-13T14:26:20Z</time></trkpt><trkpt lat="43.81020035121786" lon="11.846899769947647"><ele>1237.0</ele><time>2026-04-13T14:26:21Z</time></trkpt><trkpt lat="43.810133298203105" lon="11.846899452188199"><ele>1237.0</ele><time>2026-04-13T14:26:22Z</time></trkpt><trkpt lat="43.810031601441494" lon="11.84697814588777"><ele>1237.0</ele><time>2026-04-13T14:26:24Z</time></trkpt><trkpt lat="43.809919423535185" lon="11.847059512604513"><ele>1237.0</ele><time>2026-04-13T14:26:26Z</time></trkpt><trkpt lat="43.80987389367897" lon="11.847129411942705"><ele>1237.0</ele><time>2026-04-13T14:26:27Z</time></trkpt><trkpt lat="43.809835280589226" lon="11.847202042907655"><ele>1237.0</ele><time>2026-04-13T14:26:28Z</time></trkpt><trkpt lat="43.80981346391217" lon="11.84730649678981"><ele>1237.0</ele><time>2026-04-13T14:26:29Z</time></trkpt><trkpt lat="43.80978477900344" lon="11.847409476915612"><ele>1237.0</ele><time>2026-04-13T14:26:30Z</time></trkpt><trkpt lat="43.80976066595047" lon="11.847509363953213"><ele>1237.0</ele><time>2026-04-13T14:26:31Z</time></trkpt><trkpt lat="43.80973635295353" lon="11.847592539984237"><ele>1237.0</ele><time>2026-04-13T14:26:32Z</time></trkpt><trkpt lat="43.809716309176174" lon="11.847700876966012"><ele>1237.0</ele><time>2026-04-13T14:26:33Z</time></trkpt><trkpt lat="43.80966470587844" lon="11.84778239549648"><ele>1237.0</ele><time>2026-04-13T14:26:34Z</time></trkpt><trkpt lat="43.80961082954341" lon="11.847865649059804"><ele>1236.3333333333333</ele><time>2026-04-13T14:26:35Z</time></trkpt><trkpt lat="43.8095739346517" lon="11.847954229921454"><ele>1235.6666666666665</ele><time>2026-04-13T14:26:36Z</time></trkpt><trkpt lat="43.809551826451106" lon="11.848060225319774"><ele>1235.0</ele><time>2026-04-13T14:26:37Z</time></trkpt><trkpt lat="43.80951250049369" lon="11.848152121164913"><ele>1234.3333333333333</ele><time>2026-04-13T14:26:38Z</time></trkpt><trkpt lat="43.80947984392032" lon="11.848252944699329"><ele>1233.6666666666667</ele><time>2026-04-13T14:26:39Z</time></trkpt><trkpt lat="43.80944824880458" lon="11.848348583936847"><ele>1233.0</ele><time>2026-04-13T14:26:40Z</time></trkpt><trkpt lat="43.80943087557774" lon="11.848442131905326"><ele>1234.2857142857142</ele><time>2026-04-13T14:26:41Z</time></trkpt><trkpt lat="43.80941790642958" lon="11.848552234737776"><ele>1235.5714285714284</ele><time>2026-04-13T14:26:42Z</time></trkpt><trkpt lat="43.809398683217616" lon="11.848654277231098"><ele>1236.8571428571427</ele><time>2026-04-13T14:26:43Z</time></trkpt><trkpt lat="43.809383824983065" lon="11.848747993811388"><ele>1238.142857142857</ele><time>2026-04-13T14:26:44Z</time></trkpt><trkpt lat="43.8093736183884" lon="11.848834403385958"><ele>1239.4285714285713</ele><time>2026-04-13T14:26:45Z</time></trkpt><trkpt lat="43.80934761852495" lon="11.84891752666546"><ele>1240.7142857142856</ele><time>2026-04-13T14:26:46Z</time></trkpt><trkpt lat="43.809336454475904" lon="11.849006604493377"><ele>1242.0</ele><time>2026-04-13T14:26:47Z</time></trkpt><trkpt lat="43.80931908974595" lon="11.849101452848904"><ele>1242.7142857142856</ele><time>2026-04-13T14:26:48Z</time></trkpt><trkpt lat="43.80928045943194" lon="11.849198310468328"><ele>1243.4285714285713</ele><time>2026-04-13T14:26:49Z</time></trkpt><trkpt lat="43.809272589611425" lon="11.849296108442996"><ele>1244.142857142857</ele><time>2026-04-13T14:26:50Z</time></trkpt><trkpt lat="43.80925688489865" lon="11.849398487890122"><ele>1244.8571428571427</ele><time>2026-04-13T14:26:51Z</time></trkpt><trkpt lat="43.80924300173523" lon="11.849495346434539"><ele>1245.5714285714284</ele><time>2026-04-13T14:26:52Z</time></trkpt><trkpt lat="43.80924375537265" lon="11.849597773934411"><ele>1246.2857142857142</ele><time>2026-04-13T14:26:53Z</time></trkpt><trkpt lat="43.80925149105809" lon="11.849693227798841"><ele>1247.0</ele><time>2026-04-13T14:26:54Z</time></trkpt><trkpt lat="43.80927353330823" lon="11.849787430143161"><ele>1247.4285714285716</ele><time>2026-04-13T14:26:55Z</time></trkpt><trkpt lat="43.809311618467476" lon="11.84987393528833"><ele>1247.857142857143</ele><time>2026-04-13T14:26:56Z</time></trkpt><trkpt lat="43.8093581443207" lon="11.849953162386415"><ele>1248.2857142857142</ele><time>2026-04-13T14:26:57Z</time></trkpt><trkpt lat="43.809405148902364" lon="11.850030461862131"><ele>1248.7142857142858</ele><time>2026-04-13T14:26:58Z</time></trkpt><trkpt lat="43.80943921181262" lon="11.85012232406725"><ele>1249.142857142857</ele><time>2026-04-13T14:26:59Z</time></trkpt><trkpt lat="43.809435168997645" lon="11.850214068013743"><ele>1249.5714285714287</ele><time>2026-04-13T14:27:00Z</time></trkpt><trkpt lat="43.80942519176813" lon="11.850317009901703"><ele>1250.0</ele><time>2026-04-13T14:27:01Z</time></trkpt><trkpt lat="43.80941144493336" lon="11.85041434229996"><ele>1250.0</ele><time>2026-04-13T14:27:02Z</time></trkpt><trkpt lat="43.80939640883848" lon="11.850518370286272"><ele>1250.0</ele><time>2026-04-13T14:27:03Z</time></trkpt><trkpt lat="43.809379180157535" lon="11.850623254295"><ele>1250.0</ele><time>2026-04-13T14:27:04Z</time></trkpt><trkpt lat="43.80936110523611" lon="11.850724958906914"><ele>1250.0</ele><time>2026-04-13T14:27:05Z</time></trkpt><trkpt lat="43.80934140594211" lon="11.850822115675006"><ele>1250.0</ele><time>2026-04-13T14:27:06Z</time></trkpt><trkpt lat="43.8093135255573" lon="11.850985938921731"><ele>1250.0</ele><time>2026-04-13T14:27:08Z</time></trkpt><trkpt lat="43.80930066105846" lon="11.851078657053732"><ele>1247.0</ele><time>2026-04-13T14:27:09Z</time></trkpt><trkpt lat="43.8093153559769" lon="11.851168574721527"><ele>1244.0</ele><time>2026-04-13T14:27:10Z</time></trkpt><trkpt lat="43.809354256603406" lon="11.85124944270967"><ele>1241.0</ele><time>2026-04-13T14:27:11Z</time></trkpt><trkpt lat="43.80941873809779" lon="11.851317538973058"><ele>1238.0</ele><time>2026-04-13T14:27:12Z</time></trkpt><trkpt lat="43.80947705717206" lon="11.85139574673181"><ele>1235.0</ele><time>2026-04-13T14:27:13Z</time></trkpt><trkpt lat="43.80953593269964" lon="11.851472819987855"><ele>1232.0</ele><time>2026-04-13T14:27:14Z</time></trkpt><trkpt lat="43.80959212017656" lon="11.851544117898081"><ele>1232.0</ele><time>2026-04-13T14:27:15Z</time></trkpt><trkpt lat="43.80965313598699" lon="11.851613797275194"><ele>1232.0</ele><time>2026-04-13T14:27:16Z</time></trkpt><trkpt lat="43.80971159010834" lon="11.851671881511121"><ele>1232.0</ele><time>2026-04-13T14:27:17Z</time></trkpt><trkpt lat="43.80976864316794" lon="11.851721720324399"><ele>1232.0</ele><time>2026-04-13T14:27:18Z</time></trkpt><trkpt lat="43.809881048987435" lon="11.851777962560684"><ele>1232.0</ele><time>2026-04-13T14:27:20Z</time></trkpt><trkpt lat="43.80994964774803" lon="11.85177222254091"><ele>1232.0</ele><time>2026-04-13T14:27:21Z</time></trkpt><trkpt lat="43.810025739407045" lon="11.851799100190496"><ele>1231.1666666666667</ele><time>2026-04-13T14:27:22Z</time></trkpt><trkpt lat="43.810108354704376" lon="11.851792039812041"><ele>1230.3333333333335</ele><time>2026-04-13T14:27:23Z</time></trkpt><trkpt lat="43.8102012228806" lon="11.851762990220573"><ele>1229.5</ele><time>2026-04-13T14:27:24Z</time></trkpt><trkpt lat="43.810276250277866" lon="11.851716890118256"><ele>1228.6666666666667</ele><time>2026-04-13T14:27:25Z</time></trkpt><trkpt lat="43.810343176887656" lon="11.851672385274888"><ele>1227.8333333333333</ele><time>2026-04-13T14:27:26Z</time></trkpt><trkpt lat="43.81040780506664" lon="11.851636325656154"><ele>1227.0</ele><time>2026-04-13T14:27:27Z</time></trkpt><trkpt lat="43.81053267037386" lon="11.85159191305805"><ele>1227.0</ele><time>2026-04-13T14:27:29Z</time></trkpt><trkpt lat="43.81060500906859" lon="11.851603213286253"><ele>1227.0</ele><time>2026-04-13T14:27:30Z</time></trkpt><trkpt lat="43.81068675234164" lon="11.851606708508154"><ele>1227.0</ele><time>2026-04-13T14:27:31Z</time></trkpt><trkpt lat="43.81075921994261" lon="11.851616518305532"><ele>1227.0</ele><time>2026-04-13T14:27:32Z</time></trkpt><trkpt lat="43.81083885846047" lon="11.85163053591527"><ele>1227.0</ele><time>2026-04-13T14:27:33Z</time></trkpt><trkpt lat="43.81095318078792" lon="11.851660814215203"><ele>1227.0</ele><time>2026-04-13T14:27:35Z</time></trkpt><trkpt lat="43.81106643785594" lon="11.851718399824446"><ele>1229.8</ele><time>2026-04-13T14:27:37Z</time></trkpt><trkpt lat="43.81111338163406" lon="11.851776901601038"><ele>1232.6</ele><time>2026-04-13T14:27:38Z</time></trkpt><trkpt lat="43.81117427571604" lon="11.851872799322583"><ele>1235.3999999999999</ele><time>2026-04-13T14:27:40Z</time></trkpt><trkpt lat="43.81115027581508" lon="11.851982008804189"><ele>1238.2</ele><time>2026-04-13T14:27:42Z</time></trkpt><trkpt lat="43.81109016989557" lon="11.852086243296862"><ele>1241.0</ele><time>2026-04-13T14:27:44Z</time></trkpt><trkpt lat="43.81101516146556" lon="11.852209598573545"><ele>1238.0</ele><time>2026-04-13T14:27:46Z</time></trkpt><trkpt lat="43.81096758791953" lon="11.852285044217783"><ele>1235.0</ele><time>2026-04-13T14:27:47Z</time></trkpt><trkpt lat="43.81092246548354" lon="11.852356602712991"><ele>1232.0</ele><time>2026-04-13T14:27:48Z</time></trkpt><trkpt lat="43.810870115828536" lon="11.852439622673781"><ele>1229.0</ele><time>2026-04-13T14:27:49Z</time></trkpt><trkpt lat="43.81083419159027" lon="11.852529869758955"><ele>1226.0</ele><time>2026-04-13T14:27:50Z</time></trkpt><trkpt lat="43.810770054448" lon="11.852595442282276"><ele>1223.0</ele><time>2026-04-13T14:27:51Z</time></trkpt><trkpt lat="43.810732542905285" lon="11.852684903229315"><ele>1220.0</ele><time>2026-04-13T14:27:52Z</time></trkpt><trkpt lat="43.81068615342322" lon="11.852748646645942"><ele>1220.0</ele><time>2026-04-13T14:27:53Z</time></trkpt><trkpt lat="43.81064608305117" lon="11.852827828679775"><ele>1220.0</ele><time>2026-04-13T14:27:54Z</time></trkpt><trkpt lat="43.81061055328192" lon="11.852922864991344"><ele>1220.0</ele><time>2026-04-13T14:27:55Z</time></trkpt><trkpt lat="43.810594438202344" lon="11.85302026074485"><ele>1220.0</ele><time>2026-04-13T14:27:56Z</time></trkpt><trkpt lat="43.81061298462726" lon="11.853130905458926"><ele>1220.0</ele><time>2026-04-13T14:27:57Z</time></trkpt><trkpt lat="43.81065610665029" lon="11.853234291268759"><ele>1220.0</ele><time>2026-04-13T14:27:58Z</time></trkpt><trkpt lat="43.810693973073" lon="11.85340939117628"><ele>1220.8333333333335</ele><time>2026-04-13T14:28:00Z</time></trkpt><trkpt lat="43.81070417923836" lon="11.85351109767056"><ele>1221.6666666666667</ele><time>2026-04-13T14:28:01Z</time></trkpt><trkpt lat="43.810692254758145" lon="11.853625952021934"><ele>1222.5</ele><time>2026-04-13T14:28:02Z</time></trkpt><trkpt lat="43.81067147357215" lon="11.853746057915183"><ele>1223.3333333333333</ele><time>2026-04-13T14:28:03Z</time></trkpt><trkpt lat="43.81064476435851" lon="11.853855647537411"><ele>1224.1666666666665</ele><time>2026-04-13T14:28:04Z</time></trkpt><trkpt lat="43.810627505238394" lon="11.853950513640124"><ele>1225.0</ele><time>2026-04-13T14:28:05Z</time></trkpt><trkpt lat="43.8106284986345" lon="11.85406809719751"><ele>1225.0</ele><time>2026-04-13T14:28:06Z</time></trkpt><trkpt lat="43.81064710556985" lon="11.854168568170468"><ele>1225.0</ele><time>2026-04-13T14:28:07Z</time></trkpt><trkpt lat="43.81065351659862" lon="11.854270463132089"><ele>1225.0</ele><time>2026-04-13T14:28:08Z</time></trkpt><trkpt lat="43.81065515276757" lon="11.854371066510332"><ele>1225.0</ele><time>2026-04-13T14:28:10Z</time></trkpt><trkpt lat="43.810604848862255" lon="11.854431108777156"><ele>1225.0</ele><time>2026-04-13T14:28:12Z</time></trkpt><trkpt lat="43.81047625820422" lon="11.854455749495752"><ele>1225.0</ele><time>2026-04-13T14:28:14Z</time></trkpt><trkpt lat="43.81035202390643" lon="11.854489701364589"><ele>1227.5</ele><time>2026-04-13T14:28:16Z</time></trkpt><trkpt lat="43.81027505618229" lon="11.854542402970505"><ele>1230.0</ele><time>2026-04-13T14:28:17Z</time></trkpt><trkpt lat="43.810208009706294" lon="11.854605100807579"><ele>1232.5</ele><time>2026-04-13T14:28:18Z</time></trkpt><trkpt lat="43.810159704123095" lon="11.854690853404437"><ele>1235.0</ele><time>2026-04-13T14:28:19Z</time></trkpt><trkpt lat="43.81010564406867" lon="11.85477316053991"><ele>1237.5</ele><time>2026-04-13T14:28:20Z</time></trkpt><trkpt lat="43.81005481931233" lon="11.854857762420307"><ele>1240.0</ele><time>2026-04-13T14:28:21Z</time></trkpt><trkpt lat="43.81001156666681" lon="11.854928985792817"><ele>1237.4285714285716</ele><time>2026-04-13T14:28:22Z</time></trkpt><trkpt lat="43.80997559806572" lon="11.855018374709447"><ele>1234.857142857143</ele><time>2026-04-13T14:28:23Z</time></trkpt><trkpt lat="43.80994032976751" lon="11.85510621710548"><ele>1232.2857142857142</ele><time>2026-04-13T14:28:24Z</time></trkpt><trkpt lat="43.80989511673668" lon="11.85518406494255"><ele>1229.7142857142858</ele><time>2026-04-13T14:28:25Z</time></trkpt><trkpt lat="43.80985217528477" lon="11.855276085836845"><ele>1227.142857142857</ele><time>2026-04-13T14:28:26Z</time></trkpt><trkpt lat="43.809806998360905" lon="11.855363189418867"><ele>1224.5714285714287</ele><time>2026-04-13T14:28:27Z</time></trkpt><trkpt lat="43.809755550862285" lon="11.855432209402979"><ele>1222.0</ele><time>2026-04-13T14:28:28Z</time></trkpt><trkpt lat="43.809706058029086" lon="11.855502640298743"><ele>1222.0</ele><time>2026-04-13T14:28:29Z</time></trkpt><trkpt lat="43.80962674800031" lon="11.855649669312937"><ele>1222.0</ele><time>2026-04-13T14:28:31Z</time></trkpt><trkpt lat="43.80957641386005" lon="11.855714505158456"><ele>1222.0</ele><time>2026-04-13T14:28:32Z</time></trkpt><trkpt lat="43.80954132244789" lon="11.855789600016784"><ele>1222.0</ele><time>2026-04-13T14:28:33Z</time></trkpt><trkpt lat="43.809503315993474" lon="11.855881147906734"><ele>1222.0</ele><time>2026-04-13T14:28:34Z</time></trkpt><trkpt lat="43.80947727294087" lon="11.8559708052116"><ele>1222.0</ele><time>2026-04-13T14:28:35Z</time></trkpt><trkpt lat="43.809435906873695" lon="11.85604743306991"><ele>1223.8</ele><time>2026-04-13T14:28:36Z</time></trkpt><trkpt lat="43.809386706023695" lon="11.856143828126381"><ele>1225.6</ele><time>2026-04-13T14:28:37Z</time></trkpt><trkpt lat="43.80930864887417" lon="11.856319484530808"><ele>1227.3999999999999</ele><time>2026-04-13T14:28:39Z</time></trkpt><trkpt lat="43.80926339351897" lon="11.856387517409068"><ele>1229.2</ele><time>2026-04-13T14:28:40Z</time></trkpt><trkpt lat="43.80921297282846" lon="11.856468857345074"><ele>1231.0</ele><time>2026-04-13T14:28:41Z</time></trkpt><trkpt lat="43.809164638337364" lon="11.85656156609309"><ele>1227.6666666666665</ele><time>2026-04-13T14:28:42Z</time></trkpt><trkpt lat="43.809120257401325" lon="11.856647440623004"><ele>1224.3333333333333</ele><time>2026-04-13T14:28:43Z</time></trkpt><trkpt lat="43.80905740021935" lon="11.856784004539083"><ele>1221.0</ele><time>2026-04-13T14:28:45Z</time></trkpt><trkpt lat="43.80900210146487" lon="11.856845928272149"><ele>1217.6666666666667</ele><time>2026-04-13T14:28:46Z</time></trkpt><trkpt lat="43.808951486274424" lon="11.856914531308957"><ele>1214.3333333333335</ele><time>2026-04-13T14:28:47Z</time></trkpt><trkpt lat="43.80890386102788" lon="11.856981512451974"><ele>1211.0</ele><time>2026-04-13T14:28:48Z</time></trkpt><trkpt lat="43.80885055157954" lon="11.857052760431506"><ele>1211.0</ele><time>2026-04-13T14:28:49Z</time></trkpt><trkpt lat="43.80878345552699" lon="11.857170197295098"><ele>1211.0</ele><time>2026-04-13T14:28:51Z</time></trkpt><trkpt lat="43.80869534883602" lon="11.857221469076688"><ele>1211.0</ele><time>2026-04-13T14:28:53Z</time></trkpt><trkpt lat="43.808623258410435" lon="11.857215968711467"><ele>1211.0</ele><time>2026-04-13T14:28:55Z</time></trkpt><trkpt lat="43.8085322826664" lon="11.857160692628344"><ele>1211.0</ele><time>2026-04-13T14:28:57Z</time></trkpt><trkpt lat="43.80848011888962" lon="11.857049528646234"><ele>1211.0</ele><time>2026-04-13T14:28:59Z</time></trkpt><trkpt lat="43.80851004114301" lon="11.856952061900001"><ele>1211.0</ele><time>2026-04-13T14:29:01Z</time></trkpt><trkpt lat="43.80851756049698" lon="11.856860727663298"><ele>1211.0</ele><time>2026-04-13T14:29:02Z</time></trkpt><trkpt lat="43.808518347299454" lon="11.856716396804437"><ele>1211.0</ele><time>2026-04-13T14:29:04Z</time></trkpt><trkpt lat="43.80850474826706" lon="11.856629815203807"><ele>1211.0</ele><time>2026-04-13T14:29:05Z</time></trkpt><trkpt lat="43.80847035400852" lon="11.856537605900565"><ele>1211.0</ele><time>2026-04-13T14:29:06Z</time></trkpt><trkpt lat="43.8084289922935" lon="11.856460604033435"><ele>1206.3333333333335</ele><time>2026-04-13T14:29:07Z</time></trkpt><trkpt lat="43.80836632723845" lon="11.85632637393203"><ele>1201.6666666666667</ele><time>2026-04-13T14:29:09Z</time></trkpt><trkpt lat="43.80832191857241" lon="11.856247028603727"><ele>1197.0</ele><time>2026-04-13T14:29:10Z</time></trkpt><trkpt lat="43.80827328605553" lon="11.856144858269145"><ele>1192.3333333333333</ele><time>2026-04-13T14:29:11Z</time></trkpt><trkpt lat="43.80823871559152" lon="11.85604988624391"><ele>1187.6666666666665</ele><time>2026-04-13T14:29:12Z</time></trkpt><trkpt lat="43.8082180308001" lon="11.855962210361724"><ele>1183.0</ele><time>2026-04-13T14:29:13Z</time></trkpt><trkpt lat="43.80821366979307" lon="11.85586022938515"><ele>1181.6</ele><time>2026-04-13T14:29:14Z</time></trkpt><trkpt lat="43.808199335827815" lon="11.855693630082019"><ele>1180.1999999999998</ele><time>2026-04-13T14:29:16Z</time></trkpt><trkpt lat="43.8082381982778" lon="11.855575149373887"><ele>1178.8</ele><time>2026-04-13T14:29:18Z</time></trkpt><trkpt lat="43.80834577389069" lon="11.855530103624192"><ele>1177.3999999999999</ele><time>2026-04-13T14:29:20Z</time></trkpt><trkpt lat="43.808460702213694" lon="11.855473666915513"><ele>1176.0</ele><time>2026-04-13T14:29:22Z</time></trkpt><trkpt lat="43.808580125381965" lon="11.855434291899748"><ele>1176.857142857143</ele><time>2026-04-13T14:29:24Z</time></trkpt><trkpt lat="43.80863806821016" lon="11.855375358650239"><ele>1177.7142857142858</ele><time>2026-04-13T14:29:25Z</time></trkpt><trkpt lat="43.808699496126735" lon="11.855317716904402"><ele>1178.5714285714284</ele><time>2026-04-13T14:29:26Z</time></trkpt><trkpt lat="43.80874441114145" lon="11.855227237528862"><ele>1179.4285714285716</ele><time>2026-04-13T14:29:27Z</time></trkpt><trkpt lat="43.80880368141859" lon="11.855175605747771"><ele>1180.2857142857142</ele><time>2026-04-13T14:29:28Z</time></trkpt><trkpt lat="43.808838611395004" lon="11.85509284410563"><ele>1181.142857142857</ele><time>2026-04-13T14:29:29Z</time></trkpt><trkpt lat="43.80888079763237" lon="11.854999169545188"><ele>1182.0</ele><time>2026-04-13T14:29:30Z</time></trkpt><trkpt lat="43.80895607658597" lon="11.85484792194459"><ele>1182.0</ele><time>2026-04-13T14:29:32Z</time></trkpt><trkpt lat="43.80901823705506" lon="11.854803925230074"><ele>1182.0</ele><time>2026-04-13T14:29:33Z</time></trkpt><trkpt lat="43.80905834766555" lon="11.854723703497442"><ele>1182.0</ele><time>2026-04-13T14:29:34Z</time></trkpt><trkpt lat="43.809093156384066" lon="11.854633173170841"><ele>1182.0</ele><time>2026-04-13T14:29:35Z</time></trkpt><trkpt lat="43.80913084306367" lon="11.854508731041328"><ele>1182.0</ele><time>2026-04-13T14:29:37Z</time></trkpt><trkpt lat="43.80912412051737" lon="11.854408542089008"><ele>1182.0</ele><time>2026-04-13T14:29:38Z</time></trkpt><trkpt lat="43.80908140895951" lon="11.854275909840952"><ele>1182.0</ele><time>2026-04-13T14:29:40Z</time></trkpt><trkpt lat="43.80903277929167" lon="11.854219604242054"><ele>1182.0</ele><time>2026-04-13T14:29:42Z</time></trkpt><trkpt lat="43.808920861344845" lon="11.854196352139352"><ele>1182.0</ele><time>2026-04-13T14:29:43Z</time></trkpt><trkpt lat="43.808839842541275" lon="11.854248750253001"><ele>1182.0</ele><time>2026-04-13T14:29:44Z</time></trkpt><trkpt lat="43.80876833623122" lon="11.854251360414423"><ele>1182.0</ele><time>2026-04-13T14:29:45Z</time></trkpt><trkpt lat="43.808697590835" lon="11.854269068458295"><ele>1182.0</ele><time>2026-04-13T14:29:46Z</time></trkpt><trkpt lat="43.80858184829103" lon="11.854307539665653"><ele>1178.4</ele><time>2026-04-13T14:29:48Z</time></trkpt><trkpt lat="43.80848157057508" lon="11.854301377841846"><ele>1174.8000000000002</ele><time>2026-04-13T14:29:50Z</time></trkpt><trkpt lat="43.80835090826903" lon="11.854258055197343"><ele>1171.2</ele><time>2026-04-13T14:29:52Z</time></trkpt><trkpt lat="43.80827429360846" lon="11.85423502799432"><ele>1167.6000000000001</ele><time>2026-04-13T14:29:53Z</time></trkpt><trkpt lat="43.80821035117992" lon="11.854201902579298"><ele>1164.0</ele><time>2026-04-13T14:29:54Z</time></trkpt><trkpt lat="43.80812049861576" lon="11.854094519547061"><ele>1164.0</ele><time>2026-04-13T14:29:56Z</time></trkpt><trkpt lat="43.808062722708016" lon="11.85405122352013"><ele>1164.0</ele><time>2026-04-13T14:29:57Z</time></trkpt><trkpt lat="43.80799762696241" lon="11.854024519137646"><ele>1164.0</ele><time>2026-04-13T14:29:58Z</time></trkpt><trkpt lat="43.8079091444123" lon="11.854055936988026"><ele>1164.0</ele><time>2026-04-13T14:29:59Z</time></trkpt><trkpt lat="43.80784362189693" lon="11.854168091165597"><ele>1164.0</ele><time>2026-04-13T14:30:00Z</time></trkpt><trkpt lat="43.807795045551515" lon="11.854245741680149"><ele>1164.0</ele><time>2026-04-13T14:30:01Z</time></trkpt><trkpt lat="43.80771529531806" lon="11.854307074312505"><ele>1162.5</ele><time>2026-04-13T14:30:02Z</time></trkpt><trkpt lat="43.807644659579466" lon="11.854397877926871"><ele>1161.0</ele><time>2026-04-13T14:30:03Z</time></trkpt><trkpt lat="43.80758868108466" lon="11.854493978803436"><ele>1159.5</ele><time>2026-04-13T14:30:04Z</time></trkpt><trkpt lat="43.807578936527705" lon="11.85464345356522"><ele>1158.0</ele><time>2026-04-13T14:30:05Z</time></trkpt><trkpt lat="43.80758005261346" lon="11.854756121139342"><ele>1156.5</ele><time>2026-04-13T14:30:06Z</time></trkpt><trkpt lat="43.80757837049131" lon="11.854856715583074"><ele>1155.0</ele><time>2026-04-13T14:30:07Z</time></trkpt><trkpt lat="43.807582511702954" lon="11.854963132865851"><ele>1155.0</ele><time>2026-04-13T14:30:08Z</time></trkpt><trkpt lat="43.80749363198382" lon="11.855112089664253"><ele>1155.0</ele><time>2026-04-13T14:30:10Z</time></trkpt><trkpt lat="43.80743760005636" lon="11.855204286018287"><ele>1155.0</ele><time>2026-04-13T14:30:11Z</time></trkpt><trkpt lat="43.8073748929256" lon="11.855269384087741"><ele>1155.0</ele><time>2026-04-13T14:30:12Z</time></trkpt><trkpt lat="43.80731468368094" lon="11.855342682084789"><ele>1155.0</ele><time>2026-04-13T14:30:13Z</time></trkpt><trkpt lat="43.80724043119483" lon="11.855390100149592"><ele>1155.0</ele><time>2026-04-13T14:30:14Z</time></trkpt><trkpt lat="43.80717796485554" lon="11.855484095490525"><ele>1155.0</ele><time>2026-04-13T14:30:15Z</time></trkpt><trkpt lat="43.80711299475239" lon="11.855599132731069"><ele>1155.0</ele><time>2026-04-13T14:30:16Z</time></trkpt><trkpt lat="43.80704310871951" lon="11.855705779683511"><ele>1155.0</ele><time>2026-04-13T14:30:17Z</time></trkpt><trkpt lat="43.80698423227101" lon="11.85582929272132"><ele>1155.0</ele><time>2026-04-13T14:30:18Z</time></trkpt><trkpt lat="43.80692854906056" lon="11.855955792972749"><ele>1155.0</ele><time>2026-04-13T14:30:19Z</time></trkpt><trkpt lat="43.80688312281102" lon="11.856068359082757"><ele>1155.0</ele><time>2026-04-13T14:30:20Z</time></trkpt><trkpt lat="43.806822158304136" lon="11.856152251860532"><ele>1155.0</ele><time>2026-04-13T14:30:21Z</time></trkpt><trkpt lat="43.806756238076545" lon="11.856218865905511"><ele>1155.0</ele><time>2026-04-13T14:30:22Z</time></trkpt><trkpt lat="43.80667624227204" lon="11.856243120793781"><ele>1155.0</ele><time>2026-04-13T14:30:23Z</time></trkpt><trkpt lat="43.80658730264831" lon="11.856232672611174"><ele>1155.0</ele><time>2026-04-13T14:30:24Z</time></trkpt><trkpt lat="43.806490313433926" lon="11.856224487048554"><ele>1150.8333333333333</ele><time>2026-04-13T14:30:25Z</time></trkpt><trkpt lat="43.806399697885425" lon="11.856211310513228"><ele>1146.6666666666667</ele><time>2026-04-13T14:30:26Z</time></trkpt><trkpt lat="43.806299328939616" lon="11.856177019047518"><ele>1142.5</ele><time>2026-04-13T14:30:27Z</time></trkpt><trkpt lat="43.80620585482814" lon="11.856141132518117"><ele>1138.3333333333335</ele><time>2026-04-13T14:30:28Z</time></trkpt><trkpt lat="43.806123690460154" lon="11.856115109555558"><ele>1134.1666666666667</ele><time>2026-04-13T14:30:29Z</time></trkpt><trkpt lat="43.8060544922576" lon="11.85610944764391"><ele>1130.0</ele><time>2026-04-13T14:30:30Z</time></trkpt><trkpt lat="43.80593989751764" lon="11.856165633521751"><ele>1130.0</ele><time>2026-04-13T14:30:32Z</time></trkpt><trkpt lat="43.80593263093432" lon="11.85628308413841"><ele>1130.0</ele><time>2026-04-13T14:30:33Z</time></trkpt><trkpt lat="43.80593865084247" lon="11.856387659273974"><ele>1130.0</ele><time>2026-04-13T14:30:34Z</time></trkpt><trkpt lat="43.805960262450824" lon="11.856491571518859"><ele>1130.0</ele><time>2026-04-13T14:30:35Z</time></trkpt><trkpt lat="43.80594711046952" lon="11.856594760694893"><ele>1130.0</ele><time>2026-04-13T14:30:36Z</time></trkpt><trkpt lat="43.80594883314775" lon="11.856702256056792"><ele>1130.0</ele><time>2026-04-13T14:30:37Z</time></trkpt><trkpt lat="43.805913805009524" lon="11.85681688519894"><ele>1128.2</ele><time>2026-04-13T14:30:38Z</time></trkpt><trkpt lat="43.805859607534614" lon="11.856931457490195"><ele>1126.4</ele><time>2026-04-13T14:30:39Z</time></trkpt><trkpt lat="43.80581664003636" lon="11.85705140446167"><ele>1124.6</ele><time>2026-04-13T14:30:40Z</time></trkpt><trkpt lat="43.80576356214148" lon="11.8571774799789"><ele>1122.8</ele><time>2026-04-13T14:30:41Z</time></trkpt><trkpt lat="43.805711603398485" lon="11.857306335552096"><ele>1121.0</ele><time>2026-04-13T14:30:42Z</time></trkpt><trkpt lat="43.80565335346183" lon="11.857430740026777"><ele>1121.0</ele><time>2026-04-13T14:30:43Z</time></trkpt><trkpt lat="43.805606528872474" lon="11.857562896415484"><ele>1121.0</ele><time>2026-04-13T14:30:44Z</time></trkpt><trkpt lat="43.805560113857595" lon="11.85769762432568"><ele>1121.0</ele><time>2026-04-13T14:30:45Z</time></trkpt><trkpt lat="43.80555884794903" lon="11.857843537019995"><ele>1121.0</ele><time>2026-04-13T14:30:46Z</time></trkpt><trkpt lat="43.80558524670993" lon="11.857977953068191"><ele>1121.0</ele><time>2026-04-13T14:30:47Z</time></trkpt><trkpt lat="43.80557545250636" lon="11.858093270269126"><ele>1119.3333333333335</ele><time>2026-04-13T14:30:48Z</time></trkpt><trkpt lat="43.80558094486215" lon="11.858191209298813"><ele>1117.6666666666667</ele><time>2026-04-13T14:30:49Z</time></trkpt><trkpt lat="43.80552443656044" lon="11.858263934867644"><ele>1116.0</ele><time>2026-04-13T14:30:50Z</time></trkpt><trkpt lat="43.80547503719833" lon="11.858332202726949"><ele>1114.3333333333333</ele><time>2026-04-13T14:30:51Z</time></trkpt><trkpt lat="43.805419938088484" lon="11.858431361135555"><ele>1112.6666666666665</ele><time>2026-04-13T14:30:52Z</time></trkpt><trkpt lat="43.80534917680965" lon="11.858509173953358"><ele>1111.0</ele><time>2026-04-13T14:30:53Z</time></trkpt><trkpt lat="43.8052790770277" lon="11.858602177420309"><ele>1110.6</ele><time>2026-04-13T14:30:54Z</time></trkpt><trkpt lat="43.80520596500287" lon="11.85869592537265"><ele>1110.1999999999998</ele><time>2026-04-13T14:30:55Z</time></trkpt><trkpt lat="43.805140431226306" lon="11.85879967673946"><ele>1109.8000000000002</ele><time>2026-04-13T14:30:56Z</time></trkpt><trkpt lat="43.80507456377546" lon="11.858919359941734"><ele>1109.4</ele><time>2026-04-13T14:30:57Z</time></trkpt><trkpt lat="43.805015055057765" lon="11.859046803028367"><ele>1109.0</ele><time>2026-04-13T14:30:58Z</time></trkpt><trkpt lat="43.80494284817349" lon="11.859178225443374"><ele>1106.2</ele><time>2026-04-13T14:30:59Z</time></trkpt><trkpt lat="43.80487236469882" lon="11.859306377217397"><ele>1103.4</ele><time>2026-04-13T14:31:00Z</time></trkpt><trkpt lat="43.80480110695481" lon="11.859422983543215"><ele>1100.6</ele><time>2026-04-13T14:31:01Z</time></trkpt><trkpt lat="43.80473030696789" lon="11.859544334754176"><ele>1097.8</ele><time>2026-04-13T14:31:02Z</time></trkpt><trkpt lat="43.80465079216823" lon="11.859638058832337"><ele>1095.0</ele><time>2026-04-13T14:31:03Z</time></trkpt><trkpt lat="43.80455067070504" lon="11.859736303443043"><ele>1095.0</ele><time>2026-04-13T14:31:04Z</time></trkpt><trkpt lat="43.80445038162659" lon="11.859812125136045"><ele>1095.0</ele><time>2026-04-13T14:31:05Z</time></trkpt><trkpt lat="43.80434726975711" lon="11.859889943090181"><ele>1095.0</ele><time>2026-04-13T14:31:06Z</time></trkpt><trkpt lat="43.80424064376767" lon="11.859961133229676"><ele>1095.0</ele><time>2026-04-13T14:31:07Z</time></trkpt><trkpt lat="43.80414332070766" lon="11.86004354346228"><ele>1091.75</ele><time>2026-04-13T14:31:08Z</time></trkpt><trkpt lat="43.80404024608422" lon="11.86013922980634"><ele>1088.5</ele><time>2026-04-13T14:31:09Z</time></trkpt><trkpt lat="43.80395031155557" lon="11.860239936214908"><ele>1085.25</ele><time>2026-04-13T14:31:10Z</time></trkpt><trkpt lat="43.803853671518745" lon="11.860329380866657"><ele>1082.0</ele><time>2026-04-13T14:31:11Z</time></trkpt><trkpt lat="43.803766231997706" lon="11.860430250048735"><ele>1082.0</ele><time>2026-04-13T14:31:12Z</time></trkpt><trkpt lat="43.803681007727064" lon="11.860510845185612"><ele>1082.0</ele><time>2026-04-13T14:31:13Z</time></trkpt><trkpt lat="43.80360232678031" lon="11.860590308875505"><ele>1082.0</ele><time>2026-04-13T14:31:14Z</time></trkpt><trkpt lat="43.803529966164284" lon="11.86068339231538"><ele>1082.0</ele><time>2026-04-13T14:31:15Z</time></trkpt><trkpt lat="43.80347284536933" lon="11.860770273132283"><ele>1082.0</ele><time>2026-04-13T14:31:16Z</time></trkpt><trkpt lat="43.80345855128351" lon="11.860889774555874"><ele>1083.2</ele><time>2026-04-13T14:31:17Z</time></trkpt><trkpt lat="43.803446733074175" lon="11.861028796301676"><ele>1084.4</ele><time>2026-04-13T14:31:18Z</time></trkpt><trkpt lat="43.803457683865716" lon="11.861163085969098"><ele>1085.6</ele><time>2026-04-13T14:31:19Z</time></trkpt><trkpt lat="43.80347807343261" lon="11.861300054738338"><ele>1086.8</ele><time>2026-04-13T14:31:20Z</time></trkpt><trkpt lat="43.80348249200801" lon="11.861433504054455"><ele>1088.0</ele><time>2026-04-13T14:31:21Z</time></trkpt><trkpt lat="43.80350123353421" lon="11.861556793666765"><ele>1088.0</ele><time>2026-04-13T14:31:22Z</time></trkpt><trkpt lat="43.803498341539424" lon="11.861664377791927"><ele>1088.0</ele><time>2026-04-13T14:31:23Z</time></trkpt><trkpt lat="43.80347485369741" lon="11.861773965936028"><ele>1088.0</ele><time>2026-04-13T14:31:24Z</time></trkpt><trkpt lat="43.803428863362306" lon="11.861873399466818"><ele>1088.0</ele><time>2026-04-13T14:31:25Z</time></trkpt><trkpt lat="43.80337202529149" lon="11.86194888255872"><ele>1088.0</ele><time>2026-04-13T14:31:26Z</time></trkpt><trkpt lat="43.8033032441648" lon="11.862023398947859"><ele>1088.0</ele><time>2026-04-13T14:31:27Z</time></trkpt><trkpt lat="43.80324498232095" lon="11.862127841681152"><ele>1085.4</ele><time>2026-04-13T14:31:28Z</time></trkpt><trkpt lat="43.80322610645977" lon="11.862276738524917"><ele>1082.8</ele><time>2026-04-13T14:31:29Z</time></trkpt><trkpt lat="43.803258652025455" lon="11.862416988517499"><ele>1080.2</ele><time>2026-04-13T14:31:30Z</time></trkpt><trkpt lat="43.80328561945029" lon="11.862531829426898"><ele>1077.6</ele><time>2026-04-13T14:31:31Z</time></trkpt><trkpt lat="43.80328778997907" lon="11.862649927706588"><ele>1075.0</ele><time>2026-04-13T14:31:32Z</time></trkpt><trkpt lat="43.803240933462554" lon="11.862751182058243"><ele>1072.3333333333333</ele><time>2026-04-13T14:31:33Z</time></trkpt><trkpt lat="43.803196514165684" lon="11.862848421976171"><ele>1069.6666666666665</ele><time>2026-04-13T14:31:34Z</time></trkpt><trkpt lat="43.80314567945582" lon="11.86294752088008"><ele>1067.0</ele><time>2026-04-13T14:31:35Z</time></trkpt><trkpt lat="43.80310239075427" lon="11.863054099825517"><ele>1064.3333333333333</ele><time>2026-04-13T14:31:36Z</time></trkpt><trkpt lat="43.80302681322127" lon="11.863125749113427"><ele>1061.6666666666667</ele><time>2026-04-13T14:31:37Z</time></trkpt><trkpt lat="43.80295908417595" lon="11.863208062728326"><ele>1059.0</ele><time>2026-04-13T14:31:38Z</time></trkpt><trkpt lat="43.80288938319044" lon="11.863280702557013"><ele>1059.0</ele><time>2026-04-13T14:31:39Z</time></trkpt><trkpt lat="43.802811525622026" lon="11.863352072634207"><ele>1059.0</ele><time>2026-04-13T14:31:40Z</time></trkpt><trkpt lat="43.802737976168565" lon="11.86342243968646"><ele>1059.0</ele><time>2026-04-13T14:31:41Z</time></trkpt><trkpt lat="43.802662484813894" lon="11.863482137871683"><ele>1059.0</ele><time>2026-04-13T14:31:42Z</time></trkpt><trkpt lat="43.80259129242811" lon="11.863509428156648"><ele>1059.0</ele><time>2026-04-13T14:31:43Z</time></trkpt><trkpt lat="43.802509630046366" lon="11.863540268391537"><ele>1059.0</ele><time>2026-04-13T14:31:44Z</time></trkpt><trkpt lat="43.80242146660309" lon="11.863512728548612"><ele>1059.6000000000001</ele><time>2026-04-13T14:31:45Z</time></trkpt><trkpt lat="43.802344154179394" lon="11.863452589223211"><ele>1060.2</ele><time>2026-04-13T14:31:46Z</time></trkpt><trkpt lat="43.80226030424127" lon="11.863419856601828"><ele>1060.8000000000002</ele><time>2026-04-13T14:31:47Z</time></trkpt><trkpt lat="43.80216578266084" lon="11.863397203109209"><ele>1061.4</ele><time>2026-04-13T14:31:48Z</time></trkpt><trkpt lat="43.80207279847168" lon="11.863395298106871"><ele>1062.0</ele><time>2026-04-13T14:31:49Z</time></trkpt><trkpt lat="43.80197884985714" lon="11.86340665316024"><ele>1062.0</ele><time>2026-04-13T14:31:50Z</time></trkpt><trkpt lat="43.80188930127405" lon="11.863428746974716"><ele>1062.0</ele><time>2026-04-13T14:31:51Z</time></trkpt><trkpt lat="43.801801275316684" lon="11.863472044447137"><ele>1062.0</ele><time>2026-04-13T14:31:52Z</time></trkpt><trkpt lat="43.80172553111814" lon="11.863546369581108"><ele>1062.0</ele><time>2026-04-13T14:31:53Z</time></trkpt><trkpt lat="43.80167452478161" lon="11.863657680342337"><ele>1062.0</ele><time>2026-04-13T14:31:54Z</time></trkpt><trkpt lat="43.801643894793216" lon="11.86378728079655"><ele>1056.4</ele><time>2026-04-13T14:31:55Z</time></trkpt><trkpt lat="43.80163261282744" lon="11.863892156094943"><ele>1050.8000000000002</ele><time>2026-04-13T14:31:56Z</time></trkpt><trkpt lat="43.80164418201124" lon="11.864028710664655"><ele>1045.2</ele><time>2026-04-13T14:31:57Z</time></trkpt><trkpt lat="43.80167919655173" lon="11.86415553578103"><ele>1039.6000000000001</ele><time>2026-04-13T14:31:58Z</time></trkpt><trkpt lat="43.801755448204474" lon="11.86424511471343"><ele>1034.0</ele><time>2026-04-13T14:31:59Z</time></trkpt><trkpt lat="43.80180162765904" lon="11.864351572163795"><ele>1034.6666666666667</ele><time>2026-04-13T14:32:00Z</time></trkpt><trkpt lat="43.80185529394882" lon="11.864439727293211"><ele>1035.3333333333335</ele><time>2026-04-13T14:32:01Z</time></trkpt><trkpt lat="43.801892576027534" lon="11.864521755013367"><ele>1036.0</ele><time>2026-04-13T14:32:02Z</time></trkpt><trkpt lat="43.80190208767244" lon="11.864690958272757"><ele>1036.6666666666667</ele><time>2026-04-13T14:32:04Z</time></trkpt><trkpt lat="43.801854524728064" lon="11.864755388450341"><ele>1037.3333333333333</ele><time>2026-04-13T14:32:05Z</time></trkpt><trkpt lat="43.80178995241334" lon="11.86482702389058"><ele>1038.0</ele><time>2026-04-13T14:32:06Z</time></trkpt><trkpt lat="43.80171788781488" lon="11.864905772607155"><ele>1036.0</ele><time>2026-04-13T14:32:07Z</time></trkpt><trkpt lat="43.801626218511565" lon="11.86495237610897"><ele>1034.0</ele><time>2026-04-13T14:32:08Z</time></trkpt><trkpt lat="43.80153275077843" lon="11.864980235412675"><ele>1032.0</ele><time>2026-04-13T14:32:09Z</time></trkpt><trkpt lat="43.80143451521071" lon="11.864995436544799"><ele>1030.0</ele><time>2026-04-13T14:32:10Z</time></trkpt><trkpt lat="43.801328608997295" lon="11.864995908260193"><ele>1028.0</ele><time>2026-04-13T14:32:11Z</time></trkpt><trkpt lat="43.801224648980224" lon="11.864995275253602"><ele>1028.0</ele><time>2026-04-13T14:32:12Z</time></trkpt><trkpt lat="43.80113546673674" lon="11.865013970120787"><ele>1028.0</ele><time>2026-04-13T14:32:13Z</time></trkpt><trkpt lat="43.80105093699448" lon="11.865081213635854"><ele>1028.0</ele><time>2026-04-13T14:32:14Z</time></trkpt><trkpt lat="43.800987663323895" lon="11.865185465614951"><ele>1028.0</ele><time>2026-04-13T14:32:15Z</time></trkpt><trkpt lat="43.80095089623821" lon="11.865309427048135"><ele>1028.0</ele><time>2026-04-13T14:32:16Z</time></trkpt><trkpt lat="43.80093435198018" lon="11.865443335286505"><ele>1025.0</ele><time>2026-04-13T14:32:17Z</time></trkpt><trkpt lat="43.800905918409676" lon="11.865577352308977"><ele>1022.0</ele><time>2026-04-13T14:32:18Z</time></trkpt><trkpt lat="43.80089316614036" lon="11.865716715822328"><ele>1019.0</ele><time>2026-04-13T14:32:19Z</time></trkpt><trkpt lat="43.80088121263864" lon="11.86585603592969"><ele>1016.0</ele><time>2026-04-13T14:32:20Z</time></trkpt><trkpt lat="43.80086944217945" lon="11.865998186793552"><ele>1013.0</ele><time>2026-04-13T14:32:21Z</time></trkpt><trkpt lat="43.80085891656911" lon="11.866136174211338"><ele>1013.0</ele><time>2026-04-13T14:32:22Z</time></trkpt><trkpt lat="43.80084813828118" lon="11.86627747398317"><ele>1013.0</ele><time>2026-04-13T14:32:23Z</time></trkpt><trkpt lat="43.80085206755571" lon="11.866417150939222"><ele>1013.0</ele><time>2026-04-13T14:32:24Z</time></trkpt><trkpt lat="43.80083813326142" lon="11.866554488840253"><ele>1013.0</ele><time>2026-04-13T14:32:25Z</time></trkpt><trkpt lat="43.80083672688333" lon="11.866691516863508"><ele>1013.0</ele><time>2026-04-13T14:32:26Z</time></trkpt><trkpt lat="43.80085422428921" lon="11.866824069717449"><ele>1011.8333333333334</ele><time>2026-04-13T14:32:27Z</time></trkpt><trkpt lat="43.80089317055456" lon="11.866930640808349"><ele>1010.6666666666667</ele><time>2026-04-13T14:32:28Z</time></trkpt><trkpt lat="43.80094339091972" lon="11.867014366247824"><ele>1009.5</ele><time>2026-04-13T14:32:29Z</time></trkpt><trkpt lat="43.80100173635248" lon="11.867059109263222"><ele>1008.3333333333333</ele><time>2026-04-13T14:32:30Z</time></trkpt><trkpt lat="43.801062950420075" lon="11.867087271381987"><ele>1007.1666666666666</ele><time>2026-04-13T14:32:31Z</time></trkpt><trkpt lat="43.80112326817746" lon="11.867010798799301"><ele>1006.0</ele><time>2026-04-13T14:32:32Z</time></trkpt><trkpt lat="43.801196160307256" lon="11.866949273461369"><ele>1005.5999999999999</ele><time>2026-04-13T14:32:33Z</time></trkpt><trkpt lat="43.80125192386734" lon="11.866848868095316"><ele>1005.1999999999999</ele><time>2026-04-13T14:32:34Z</time></trkpt><trkpt lat="43.801316887636276" lon="11.866753610833465"><ele>1004.8000000000001</ele><time>2026-04-13T14:32:35Z</time></trkpt><trkpt lat="43.80137510669827" lon="11.866640808286515"><ele>1004.4000000000001</ele><time>2026-04-13T14:32:36Z</time></trkpt><trkpt lat="43.801428173339" lon="11.866527022572965"><ele>1004.0</ele><time>2026-04-13T14:32:37Z</time></trkpt><trkpt lat="43.80150695735056" lon="11.866446567350001"><ele>1004.0</ele><time>2026-04-13T14:32:38Z</time></trkpt><trkpt lat="43.80157997794389" lon="11.866374042538698"><ele>1004.0000000000001</ele><time>2026-04-13T14:32:39Z</time></trkpt><trkpt lat="43.80165112679965" lon="11.866327576008654"><ele>1004.0000000000001</ele><time>2026-04-13T14:32:40Z</time></trkpt><trkpt lat="43.8017355327787" lon="11.866383359738077"><ele>1004.0</ele><time>2026-04-13T14:32:41Z</time></trkpt><trkpt lat="43.80182598557941" lon="11.866403907572959"><ele>1004.0</ele><time>2026-04-13T14:32:42Z</time></trkpt><trkpt lat="43.8019247385466" lon="11.866387409258312"><ele>1002.0</ele><time>2026-04-13T14:32:43Z</time></trkpt><trkpt lat="43.802034693404565" lon="11.866342042961234"><ele>1000.0000000000001</ele><time>2026-04-13T14:32:44Z</time></trkpt><trkpt lat="43.802124698182574" lon="11.866305274307463"><ele>998.0000000000001</ele><time>2026-04-13T14:32:45Z</time></trkpt><trkpt lat="43.802216795840955" lon="11.86629078930702"><ele>996.0</ele><time>2026-04-13T14:32:46Z</time></trkpt><trkpt lat="43.80229547582966" lon="11.866325583987415"><ele>994.0</ele><time>2026-04-13T14:32:47Z</time></trkpt><trkpt lat="43.802372267186726" lon="11.866393286326902"><ele>994.0</ele><time>2026-04-13T14:32:48Z</time></trkpt><trkpt lat="43.80245910401491" lon="11.866431908634304"><ele>994.0000000000001</ele><time>2026-04-13T14:32:49Z</time></trkpt><trkpt lat="43.80253112981731" lon="11.866471475911652"><ele>994.0000000000001</ele><time>2026-04-13T14:32:50Z</time></trkpt><trkpt lat="43.802624565585816" lon="11.866454270469339"><ele>994.0</ele><time>2026-04-13T14:32:51Z</time></trkpt><trkpt lat="43.80269060623853" lon="11.866338692628291"><ele>994.0</ele><time>2026-04-13T14:32:52Z</time></trkpt><trkpt lat="43.802719146354114" lon="11.86622836002329"><ele>998.1428571428571</ele><time>2026-04-13T14:32:53Z</time></trkpt><trkpt lat="43.802751208333056" lon="11.866133831941278"><ele>1002.2857142857142</ele><time>2026-04-13T14:32:54Z</time></trkpt><trkpt lat="43.802791603514535" lon="11.866048963906788"><ele>1006.4285714285714</ele><time>2026-04-13T14:32:55Z</time></trkpt><trkpt lat="43.80282845747819" lon="11.865971971404344"><ele>1010.5714285714286</ele><time>2026-04-13T14:32:56Z</time></trkpt><trkpt lat="43.80286633421904" lon="11.865901935192388"><ele>1014.7142857142857</ele><time>2026-04-13T14:32:57Z</time></trkpt><trkpt lat="43.80292375371491" lon="11.865818765244006"><ele>1018.8571428571429</ele><time>2026-04-13T14:32:59Z</time></trkpt><trkpt lat="43.80299288207725" lon="11.865783246756823"><ele>1023.0</ele><time>2026-04-13T14:33:02Z</time></trkpt><trkpt lat="43.803079082401716" lon="11.86582137882495"><ele>1023.0</ele><time>2026-04-13T14:37:58Z</time></trkpt><trkpt lat="43.80313024489621" lon="11.865911382678652"><ele>1023.0</ele><time>2026-04-13T14:38:00Z</time></trkpt><trkpt lat="43.80311503589702" lon="11.86606426928177"><ele>1023.0</ele><time>2026-04-13T14:38:02Z</time></trkpt><trkpt lat="43.803080197307416" lon="11.866161106812482"><ele>1023.0</ele><time>2026-04-13T14:38:03Z</time></trkpt><trkpt lat="43.8030389494094" lon="11.866253602711145"><ele>1023.0</ele><time>2026-04-13T14:38:04Z</time></trkpt><trkpt lat="43.80297478539457" lon="11.86634339892989"><ele>1023.0</ele><time>2026-04-13T14:38:05Z</time></trkpt><trkpt lat="43.80295592212763" lon="11.866445237173902"><ele>1024.3333333333333</ele><time>2026-04-13T14:38:06Z</time></trkpt><trkpt lat="43.80293502428765" lon="11.866551586874206"><ele>1025.6666666666667</ele><time>2026-04-13T14:38:07Z</time></trkpt><trkpt lat="43.802914852688" lon="11.866667461261969"><ele>1027.0</ele><time>2026-04-13T14:38:08Z</time></trkpt><trkpt lat="43.802850949460684" lon="11.866745518522526"><ele>1028.3333333333335</ele><time>2026-04-13T14:38:09Z</time></trkpt><trkpt lat="43.80277119230003" lon="11.86680192626065"><ele>1029.6666666666667</ele><time>2026-04-13T14:38:10Z</time></trkpt><trkpt lat="43.80269264343315" lon="11.866857122325097"><ele>1031.0</ele><time>2026-04-13T14:38:11Z</time></trkpt><trkpt lat="43.80261903045197" lon="11.866925115174105"><ele>1024.1666666666667</ele><time>2026-04-13T14:38:12Z</time></trkpt><trkpt lat="43.80254081521209" lon="11.866997890365154"><ele>1017.3333333333334</ele><time>2026-04-13T14:38:13Z</time></trkpt><trkpt lat="43.80247441468009" lon="11.867050789490774"><ele>1010.5</ele><time>2026-04-13T14:38:14Z</time></trkpt><trkpt lat="43.80245472623708" lon="11.867136933104856"><ele>1003.6666666666667</ele><time>2026-04-13T14:38:15Z</time></trkpt><trkpt lat="43.80246740739536" lon="11.867269525037097"><ele>996.8333333333334</ele><time>2026-04-13T14:38:16Z</time></trkpt><trkpt lat="43.802489655278706" lon="11.867386635630618"><ele>990.0</ele><time>2026-04-13T14:38:17Z</time></trkpt><trkpt lat="43.80247336896673" lon="11.867491862878962"><ele>990.0</ele><time>2026-04-13T14:38:18Z</time></trkpt><trkpt lat="43.80247090303108" lon="11.867608017314499"><ele>990.0</ele><time>2026-04-13T14:38:19Z</time></trkpt><trkpt lat="43.80241879757145" lon="11.86771010941717"><ele>990.0</ele><time>2026-04-13T14:38:20Z</time></trkpt><trkpt lat="43.802349079941095" lon="11.867805976327862"><ele>990.0</ele><time>2026-04-13T14:38:21Z</time></trkpt><trkpt lat="43.802281948052034" lon="11.867886510110726"><ele>990.0</ele><time>2026-04-13T14:38:22Z</time></trkpt><trkpt lat="43.80222580350639" lon="11.867963462722104"><ele>990.0</ele><time>2026-04-13T14:38:23Z</time></trkpt><trkpt lat="43.80219330137862" lon="11.868053750345279"><ele>988.5</ele><time>2026-04-13T14:38:24Z</time></trkpt><trkpt lat="43.80220144696215" lon="11.868160652055364"><ele>987.0</ele><time>2026-04-13T14:38:25Z</time></trkpt><trkpt lat="43.802245749102646" lon="11.868266314465773"><ele>985.5</ele><time>2026-04-13T14:38:26Z</time></trkpt><trkpt lat="43.80230840601164" lon="11.868364096161779"><ele>984.0</ele><time>2026-04-13T14:38:27Z</time></trkpt><trkpt lat="43.802354524605995" lon="11.868467359285441"><ele>982.5</ele><time>2026-04-13T14:38:28Z</time></trkpt><trkpt lat="43.80240636380133" lon="11.86857004359667"><ele>981.0</ele><time>2026-04-13T14:38:29Z</time></trkpt><trkpt lat="43.80244030724476" lon="11.86865369129469"><ele>984.5999999999999</ele><time>2026-04-13T14:38:30Z</time></trkpt><trkpt lat="43.80241966386715" lon="11.868772475414756"><ele>988.1999999999999</ele><time>2026-04-13T14:38:31Z</time></trkpt><trkpt lat="43.8023597606619" lon="11.86887675808479"><ele>991.8000000000001</ele><time>2026-04-13T14:38:32Z</time></trkpt><trkpt lat="43.80228526152862" lon="11.868941974862956"><ele>995.4000000000001</ele><time>2026-04-13T14:38:33Z</time></trkpt><trkpt lat="43.802169886635916" lon="11.869012361471755"><ele>999.0</ele><time>2026-04-13T14:38:34Z</time></trkpt><trkpt lat="43.802077260952736" lon="11.86908929477457"><ele>999.0</ele><time>2026-04-13T14:38:35Z</time></trkpt><trkpt lat="43.80197679141347" lon="11.869154045419512"><ele>999.0</ele><time>2026-04-13T14:38:36Z</time></trkpt><trkpt lat="43.801868725387976" lon="11.869226248519428"><ele>999.0</ele><time>2026-04-13T14:38:37Z</time></trkpt><trkpt lat="43.80177918585259" lon="11.869327719687842"><ele>999.0</ele><time>2026-04-13T14:38:38Z</time></trkpt><trkpt lat="43.80170274561572" lon="11.869440818593056"><ele>990.75</ele><time>2026-04-13T14:38:39Z</time></trkpt><trkpt lat="43.801634092574155" lon="11.8695809043505"><ele>982.5</ele><time>2026-04-13T14:38:40Z</time></trkpt><trkpt lat="43.80154528301984" lon="11.869691359108872"><ele>974.25</ele><time>2026-04-13T14:38:41Z</time></trkpt><trkpt lat="43.801468130557424" lon="11.869819419740852"><ele>966.0</ele><time>2026-04-13T14:38:42Z</time></trkpt><trkpt lat="43.80140213692933" lon="11.869966791237681"><ele>969.5</ele><time>2026-04-13T14:38:43Z</time></trkpt><trkpt lat="43.80133774160398" lon="11.870114518743177"><ele>973.0</ele><time>2026-04-13T14:38:44Z</time></trkpt><trkpt lat="43.80128686911006" lon="11.870253202824836"><ele>976.5</ele><time>2026-04-13T14:38:45Z</time></trkpt><trkpt lat="43.801251004331405" lon="11.8704173407701"><ele>980.0</ele><time>2026-04-13T14:38:46Z</time></trkpt><trkpt lat="43.801224290053256" lon="11.870584370040335"><ele>980.0</ele><time>2026-04-13T14:38:47Z</time></trkpt><trkpt lat="43.801174350780755" lon="11.87071091817109"><ele>980.0</ele><time>2026-04-13T14:38:48Z</time></trkpt><trkpt lat="43.801117321298534" lon="11.870839869170712"><ele>980.0</ele><time>2026-04-13T14:38:49Z</time></trkpt><trkpt lat="43.801029306092005" lon="11.870895395602558"><ele>980.0</ele><time>2026-04-13T14:38:50Z</time></trkpt><trkpt lat="43.80091949523025" lon="11.870933198961376"><ele>980.0</ele><time>2026-04-13T14:38:51Z</time></trkpt><trkpt lat="43.800802834730874" lon="11.870971808332344"><ele>976.25</ele><time>2026-04-13T14:38:52Z</time></trkpt><trkpt lat="43.80067857670739" lon="11.8710183153088"><ele>972.5</ele><time>2026-04-13T14:38:53Z</time></trkpt><trkpt lat="43.80056620800827" lon="11.871088232722553"><ele>968.75</ele><time>2026-04-13T14:38:54Z</time></trkpt><trkpt lat="43.80045476511956" lon="11.871160730611754"><ele>965.0</ele><time>2026-04-13T14:38:55Z</time></trkpt><trkpt lat="43.800348533426806" lon="11.871256271531596"><ele>965.0</ele><time>2026-04-13T14:38:56Z</time></trkpt><trkpt lat="43.80024857159315" lon="11.871350783444154"><ele>965.0</ele><time>2026-04-13T14:38:57Z</time></trkpt><trkpt lat="43.80016082387302" lon="11.871478947952262"><ele>965.0</ele><time>2026-04-13T14:38:58Z</time></trkpt><trkpt lat="43.80008769922956" lon="11.871616714636193"><ele>965.0</ele><time>2026-04-13T14:38:59Z</time></trkpt><trkpt lat="43.80002508527769" lon="11.87176505987805"><ele>956.25</ele><time>2026-04-13T14:39:00Z</time></trkpt><trkpt lat="43.799941112384325" lon="11.871898680724506"><ele>947.5</ele><time>2026-04-13T14:39:01Z</time></trkpt><trkpt lat="43.79989301411713" lon="11.872064785335114"><ele>938.75</ele><time>2026-04-13T14:39:02Z</time></trkpt><trkpt lat="43.79986193024011" lon="11.872232164847931"><ele>930.0</ele><time>2026-04-13T14:39:03Z</time></trkpt><trkpt lat="43.79983891085971" lon="11.872403174072197"><ele>930.0</ele><time>2026-04-13T14:39:04Z</time></trkpt><trkpt lat="43.7998206513045" lon="11.872570001427837"><ele>930.0</ele><time>2026-04-13T14:39:05Z</time></trkpt><trkpt lat="43.79982058942128" lon="11.87273976241705"><ele>930.0</ele><time>2026-04-13T14:39:06Z</time></trkpt><trkpt lat="43.79980187602917" lon="11.87290474366868"><ele>930.0</ele><time>2026-04-13T14:39:07Z</time></trkpt><trkpt lat="43.799781278135534" lon="11.873076905201861"><ele>926.75</ele><time>2026-04-13T14:39:08Z</time></trkpt><trkpt lat="43.79976401094151" lon="11.873241818118352"><ele>923.5</ele><time>2026-04-13T14:39:09Z</time></trkpt><trkpt lat="43.7997568167159" lon="11.873417251716528"><ele>920.25</ele><time>2026-04-13T14:39:10Z</time></trkpt><trkpt lat="43.79974608212172" lon="11.873583554361883"><ele>917.0</ele><time>2026-04-13T14:39:11Z</time></trkpt><trkpt lat="43.79973118524758" lon="11.873723539143535"><ele>914.5</ele><time>2026-04-13T14:39:12Z</time></trkpt><trkpt lat="43.79969369070102" lon="11.87386456331254"><ele>912.0</ele><time>2026-04-13T14:39:13Z</time></trkpt><trkpt lat="43.79961158629322" lon="11.873975520942823"><ele>909.5</ele><time>2026-04-13T14:39:14Z</time></trkpt><trkpt lat="43.79953839810766" lon="11.874092710463438"><ele>907.0</ele><time>2026-04-13T14:39:15Z</time></trkpt><trkpt lat="43.799422567100926" lon="11.874137418013879"><ele>903.8</ele><time>2026-04-13T14:39:16Z</time></trkpt><trkpt lat="43.79932342222438" lon="11.874221307425058"><ele>900.6</ele><time>2026-04-13T14:39:17Z</time></trkpt><trkpt lat="43.79922890925393" lon="11.874317077251899"><ele>897.3999999999999</ele><time>2026-04-13T14:39:18Z</time></trkpt><trkpt lat="43.79914867307584" lon="11.87441060912077"><ele>894.1999999999999</ele><time>2026-04-13T14:39:19Z</time></trkpt><trkpt lat="43.79904996541524" lon="11.874455822125404"><ele>891.0</ele><time>2026-04-13T14:39:20Z</time></trkpt><trkpt lat="43.79894112409912" lon="11.874470111205884"><ele>891.25</ele><time>2026-04-13T14:39:21Z</time></trkpt><trkpt lat="43.79882264652099" lon="11.874487258174886"><ele>891.5</ele><time>2026-04-13T14:39:22Z</time></trkpt><trkpt lat="43.798695713227914" lon="11.874505131555662"><ele>891.75</ele><time>2026-04-13T14:39:23Z</time></trkpt><trkpt lat="43.79857918814512" lon="11.874519135250369"><ele>892.0</ele><time>2026-04-13T14:39:24Z</time></trkpt><trkpt lat="43.798474231395765" lon="11.874539263374372"><ele>892.0</ele><time>2026-04-13T14:39:25Z</time></trkpt><trkpt lat="43.79835928213165" lon="11.874580507054258"><ele>892.0</ele><time>2026-04-13T14:39:26Z</time></trkpt><trkpt lat="43.798251375114916" lon="11.874649534889057"><ele>892.0</ele><time>2026-04-13T14:39:27Z</time></trkpt><trkpt lat="43.79815512951752" lon="11.874741029146701"><ele>892.0</ele><time>2026-04-13T14:39:28Z</time></trkpt><trkpt lat="43.79806186301275" lon="11.874838928335532"><ele>892.0</ele><time>2026-04-13T14:39:29Z</time></trkpt><trkpt lat="43.797959976058195" lon="11.87492957358319"><ele>892.0</ele><time>2026-04-13T14:39:30Z</time></trkpt><trkpt lat="43.797853290602525" lon="11.875013091485688"><ele>892.0</ele><time>2026-04-13T14:39:31Z</time></trkpt><trkpt lat="43.79774591602468" lon="11.875092683085404"><ele>892.0</ele><time>2026-04-13T14:39:32Z</time></trkpt><trkpt lat="43.79763756695532" lon="11.875176473769796"><ele>894.0</ele><time>2026-04-13T14:39:33Z</time></trkpt><trkpt lat="43.79753592182398" lon="11.875271567255139"><ele>896.0</ele><time>2026-04-13T14:39:34Z</time></trkpt><trkpt lat="43.79743974579109" lon="11.875379048542337"><ele>898.0</ele><time>2026-04-13T14:39:35Z</time></trkpt><trkpt lat="43.79733953971056" lon="11.875474322378542"><ele>900.0</ele><time>2026-04-13T14:39:36Z</time></trkpt><trkpt lat="43.79722564252189" lon="11.875544344730185"><ele>900.0</ele><time>2026-04-13T14:39:37Z</time></trkpt><trkpt lat="43.79710606630082" lon="11.875587830867486"><ele>900.0</ele><time>2026-04-13T14:39:38Z</time></trkpt><trkpt lat="43.79698936928613" lon="11.875631836967985"><ele>900.0</ele><time>2026-04-13T14:39:39Z</time></trkpt><trkpt lat="43.79686870113108" lon="11.875690138590123"><ele>900.0</ele><time>2026-04-13T14:39:40Z</time></trkpt><trkpt lat="43.79675760730337" lon="11.875759764367313"><ele>897.0</ele><time>2026-04-13T14:39:41Z</time></trkpt><trkpt lat="43.79665055636838" lon="11.875832849872173"><ele>894.0</ele><time>2026-04-13T14:39:42Z</time></trkpt><trkpt lat="43.796545876802234" lon="11.875908538922365"><ele>891.0</ele><time>2026-04-13T14:39:43Z</time></trkpt><trkpt lat="43.796444078256016" lon="11.875993102048547"><ele>888.0</ele><time>2026-04-13T14:39:44Z</time></trkpt><trkpt lat="43.79634572316366" lon="11.876085549314745"><ele>888.0</ele><time>2026-04-13T14:39:45Z</time></trkpt><trkpt lat="43.796257118895" lon="11.876183068387245"><ele>888.0</ele><time>2026-04-13T14:39:46Z</time></trkpt><trkpt lat="43.79618002017429" lon="11.876293289474374"><ele>888.0</ele><time>2026-04-13T14:39:47Z</time></trkpt><trkpt lat="43.79610194918265" lon="11.876401586014047"><ele>888.0</ele><time>2026-04-13T14:39:48Z</time></trkpt><trkpt lat="43.79602273603032" lon="11.876514022645486"><ele>888.0</ele><time>2026-04-13T14:39:49Z</time></trkpt><trkpt lat="43.79593342308953" lon="11.876618364394679"><ele>882.4</ele><time>2026-04-13T14:39:50Z</time></trkpt><trkpt lat="43.7958586298783" lon="11.876729578997528"><ele>876.8</ele><time>2026-04-13T14:39:51Z</time></trkpt><trkpt lat="43.79578200179395" lon="11.876842695521352"><ele>871.2</ele><time>2026-04-13T14:39:52Z</time></trkpt><trkpt lat="43.79570285969985" lon="11.876946928077349"><ele>865.6</ele><time>2026-04-13T14:39:53Z</time></trkpt><trkpt lat="43.7956270410756" lon="11.877050766653548"><ele>860.0</ele><time>2026-04-13T14:39:54Z</time></trkpt><trkpt lat="43.79555164852378" lon="11.877149451947192"><ele>860.0</ele><time>2026-04-13T14:39:55Z</time></trkpt><trkpt lat="43.79547716248314" lon="11.877249072120776"><ele>860.0</ele><time>2026-04-13T14:39:56Z</time></trkpt><trkpt lat="43.795404693867866" lon="11.877343527354066"><ele>860.0</ele><time>2026-04-13T14:39:57Z</time></trkpt><trkpt lat="43.795333840264746" lon="11.87743212329068"><ele>860.0</ele><time>2026-04-13T14:39:58Z</time></trkpt><trkpt lat="43.79526076061531" lon="11.877515397049736"><ele>860.0</ele><time>2026-04-13T14:39:59Z</time></trkpt><trkpt lat="43.795183037727924" lon="11.877585122262273"><ele>859.1666666666667</ele><time>2026-04-13T14:40:00Z</time></trkpt><trkpt lat="43.795111086815496" lon="11.877659254780141"><ele>858.3333333333334</ele><time>2026-04-13T14:40:01Z</time></trkpt><trkpt lat="43.79503365473487" lon="11.877714475389869"><ele>857.5</ele><time>2026-04-13T14:40:02Z</time></trkpt><trkpt lat="43.794962206060966" lon="11.877778131920401"><ele>856.6666666666667</ele><time>2026-04-13T14:40:03Z</time></trkpt><trkpt lat="43.79489873420068" lon="11.877818493769787"><ele>855.8333333333334</ele><time>2026-04-13T14:40:04Z</time></trkpt><trkpt lat="43.79479180719162" lon="11.87785343373672"><ele>855.0</ele><time>2026-04-13T14:40:06Z</time></trkpt><trkpt lat="43.794725081859575" lon="11.877837572966362"><ele>855.0</ele><time>2026-04-13T14:40:08Z</time></trkpt><trkpt lat="43.7946605328417" lon="11.87787570400469"><ele>855.0</ele><time>2026-04-13T14:40:12Z</time></trkpt><trkpt lat="43.794575165124684" lon="11.877996854083099"><ele>855.0</ele><time>2026-04-13T14:40:14Z</time></trkpt><trkpt lat="43.79450211128514" lon="11.878070410775697"><ele>855.0</ele><time>2026-04-13T14:40:15Z</time></trkpt><trkpt lat="43.7944236440228" lon="11.878144208758371"><ele>855.0</ele><time>2026-04-13T14:40:16Z</time></trkpt><trkpt lat="43.794333744936274" lon="11.878231919379628"><ele>855.0</ele><time>2026-04-13T14:40:17Z</time></trkpt><trkpt lat="43.79424817309448" lon="11.878339466156772"><ele>855.0</ele><time>2026-04-13T14:40:18Z</time></trkpt><trkpt lat="43.79415014688622" lon="11.878429801450153"><ele>855.0</ele><time>2026-04-13T14:40:19Z</time></trkpt><trkpt lat="43.7940581979799" lon="11.87852482281404"><ele>855.0</ele><time>2026-04-13T14:40:20Z</time></trkpt><trkpt lat="43.793970552413434" lon="11.87863024491053"><ele>855.0</ele><time>2026-04-13T14:40:21Z</time></trkpt><trkpt lat="43.79388924007466" lon="11.87874501443028"><ele>855.0</ele><time>2026-04-13T14:40:22Z</time></trkpt><trkpt lat="43.79381345063384" lon="11.878869717934988"><ele>855.0</ele><time>2026-04-13T14:40:23Z</time></trkpt><trkpt lat="43.793743376268566" lon="11.879003227399368"><ele>855.0</ele><time>2026-04-13T14:40:24Z</time></trkpt><trkpt lat="43.79368385173008" lon="11.879144965921505"><ele>857.25</ele><time>2026-04-13T14:40:25Z</time></trkpt><trkpt lat="43.79363505847597" lon="11.879296162155923"><ele>859.5</ele><time>2026-04-13T14:40:26Z</time></trkpt><trkpt lat="43.7936035080132" lon="11.879458974587635"><ele>861.75</ele><time>2026-04-13T14:40:27Z</time></trkpt><trkpt lat="43.793564192575815" lon="11.87961984393043"><ele>864.0</ele><time>2026-04-13T14:40:28Z</time></trkpt><trkpt lat="43.79356167696657" lon="11.879791773402369"><ele>864.0</ele><time>2026-04-13T14:40:29Z</time></trkpt><trkpt lat="43.793548349541055" lon="11.879964613041953"><ele>864.0</ele><time>2026-04-13T14:40:30Z</time></trkpt><trkpt lat="43.79353663194209" lon="11.880138482870295"><ele>864.0</ele><time>2026-04-13T14:40:31Z</time></trkpt><trkpt lat="43.79352492961849" lon="11.880321494511"><ele>864.0</ele><time>2026-04-13T14:40:32Z</time></trkpt><trkpt lat="43.79351563495052" lon="11.88050752921655"><ele>864.0</ele><time>2026-04-13T14:40:33Z</time></trkpt><trkpt lat="43.79350854357065" lon="11.880678715522683"><ele>864.0</ele><time>2026-04-13T14:40:34Z</time></trkpt><trkpt lat="43.79350166514831" lon="11.880834883001395"><ele>864.0</ele><time>2026-04-13T14:40:35Z</time></trkpt><trkpt lat="43.793502839437714" lon="11.880997761746302"><ele>864.0</ele><time>2026-04-13T14:40:36Z</time></trkpt><trkpt lat="43.79352452776184" lon="11.881165982669051"><ele>864.0</ele><time>2026-04-13T14:40:37Z</time></trkpt><trkpt lat="43.79357422949104" lon="11.881321951990762"><ele>864.0</ele><time>2026-04-13T14:40:38Z</time></trkpt><trkpt lat="43.793652565208994" lon="11.881453726840649"><ele>864.0</ele><time>2026-04-13T14:40:39Z</time></trkpt><trkpt lat="43.79372453133641" lon="11.881588573062709"><ele>864.0</ele><time>2026-04-13T14:40:40Z</time></trkpt><trkpt lat="43.793799107493626" lon="11.881697801917012"><ele>859.4000000000001</ele><time>2026-04-13T14:40:41Z</time></trkpt><trkpt lat="43.79387828577579" lon="11.881778695086645"><ele>854.8000000000001</ele><time>2026-04-13T14:40:42Z</time></trkpt><trkpt lat="43.793978400944425" lon="11.881812244829758"><ele>850.2</ele><time>2026-04-13T14:40:43Z</time></trkpt><trkpt lat="43.794090397701304" lon="11.881822784678358"><ele>845.5999999999999</ele><time>2026-04-13T14:40:44Z</time></trkpt><trkpt lat="43.79420416919244" lon="11.881799998989326"><ele>841.0</ele><time>2026-04-13T14:40:45Z</time></trkpt><trkpt lat="43.79432372981082" lon="11.881779568620992"><ele>849.25</ele><time>2026-04-13T14:40:46Z</time></trkpt><trkpt lat="43.794444848915354" lon="11.881762119023596"><ele>857.5</ele><time>2026-04-13T14:40:47Z</time></trkpt><trkpt lat="43.794561053095755" lon="11.881757419665204"><ele>865.75</ele><time>2026-04-13T14:40:48Z</time></trkpt><trkpt lat="43.794677960476825" lon="11.881770878878246"><ele>874.0</ele><time>2026-04-13T14:40:49Z</time></trkpt><trkpt lat="43.794785049969896" lon="11.881828642313481"><ele>874.0</ele><time>2026-04-13T14:40:50Z</time></trkpt><trkpt lat="43.79486927908641" lon="11.881952512057895"><ele>874.0</ele><time>2026-04-13T14:40:51Z</time></trkpt><trkpt lat="43.794938362439986" lon="11.882101948214718"><ele>874.0</ele><time>2026-04-13T14:40:52Z</time></trkpt><trkpt lat="43.795015543387926" lon="11.882261986667205"><ele>874.0</ele><time>2026-04-13T14:40:53Z</time></trkpt><trkpt lat="43.795097349002035" lon="11.882436095180081"><ele>885.6666666666666</ele><time>2026-04-13T14:40:54Z</time></trkpt><trkpt lat="43.79518462097199" lon="11.882619264399306"><ele>897.3333333333333</ele><time>2026-04-13T14:40:55Z</time></trkpt><trkpt lat="43.795280697137194" lon="11.882800312272293"><ele>909.0</ele><time>2026-04-13T14:40:56Z</time></trkpt><trkpt lat="43.795371577491984" lon="11.882977120121286"><ele>909.0</ele><time>2026-04-13T14:40:57Z</time></trkpt><trkpt lat="43.79546008477681" lon="11.883147536729702"><ele>909.0</ele><time>2026-04-13T14:40:58Z</time></trkpt><trkpt lat="43.79553980154943" lon="11.883301942215219"><ele>909.0</ele><time>2026-04-13T14:40:59Z</time></trkpt><trkpt lat="43.795600217181324" lon="11.883461338348194"><ele>909.0</ele><time>2026-04-13T14:41:00Z</time></trkpt><trkpt lat="43.79567059143933" lon="11.883588816331867"><ele>910.3333333333334</ele><time>2026-04-13T14:41:01Z</time></trkpt><trkpt lat="43.7956970062973" lon="11.88370874544617"><ele>911.6666666666667</ele><time>2026-04-13T14:41:02Z</time></trkpt><trkpt lat="43.79567528150422" lon="11.883811302867805"><ele>913.0</ele><time>2026-04-13T14:41:03Z</time></trkpt><trkpt lat="43.79561214939723" lon="11.883883340906145"><ele>914.3333333333334</ele><time>2026-04-13T14:41:04Z</time></trkpt><trkpt lat="43.79553210683546" lon="11.883907951481016"><ele>915.6666666666667</ele><time>2026-04-13T14:41:05Z</time></trkpt><trkpt lat="43.79543497654873" lon="11.883888441466969"><ele>917.0</ele><time>2026-04-13T14:41:06Z</time></trkpt><trkpt lat="43.79532213348729" lon="11.883828981014755"><ele>917.0</ele><time>2026-04-13T14:41:07Z</time></trkpt><trkpt lat="43.79520736925783" lon="11.883803089786252"><ele>917.0</ele><time>2026-04-13T14:41:08Z</time></trkpt><trkpt lat="43.795078880547884" lon="11.88381850243692"><ele>917.0</ele><time>2026-04-13T14:41:09Z</time></trkpt><trkpt lat="43.794941602160605" lon="11.883866066078783"><ele>917.0</ele><time>2026-04-13T14:41:10Z</time></trkpt><trkpt lat="43.79482058863231" lon="11.883932816541623"><ele>914.5</ele><time>2026-04-13T14:41:11Z</time></trkpt><trkpt lat="43.794715512829754" lon="11.88401283516745"><ele>912.0</ele><time>2026-04-13T14:41:12Z</time></trkpt><trkpt lat="43.794622236119906" lon="11.88412227577289"><ele>909.5</ele><time>2026-04-13T14:41:13Z</time></trkpt><trkpt lat="43.79453441235882" lon="11.884257473029752"><ele>907.0</ele><time>2026-04-13T14:41:14Z</time></trkpt><trkpt lat="43.7944410397428" lon="11.884403754994127"><ele>912.25</ele><time>2026-04-13T14:41:15Z</time></trkpt><trkpt lat="43.79434727920798" lon="11.884535868610977"><ele>917.5</ele><time>2026-04-13T14:41:16Z</time></trkpt><trkpt lat="43.79427395345811" lon="11.88466440418471"><ele>922.75</ele><time>2026-04-13T14:41:17Z</time></trkpt><trkpt lat="43.794230410599596" lon="11.884802932864677"><ele>928.0</ele><time>2026-04-13T14:41:18Z</time></trkpt><trkpt lat="43.79422766974216" lon="11.884939420825496"><ele>926.5</ele><time>2026-04-13T14:41:19Z</time></trkpt><trkpt lat="43.794286052163564" lon="11.88506263826607"><ele>925.0</ele><time>2026-04-13T14:41:20Z</time></trkpt><trkpt lat="43.7943735171938" lon="11.885169313564335"><ele>923.5</ele><time>2026-04-13T14:41:21Z</time></trkpt><trkpt lat="43.79447745765228" lon="11.885243914576028"><ele>922.0</ele><time>2026-04-13T14:41:22Z</time></trkpt><trkpt lat="43.79456658392206" lon="11.885355673020841"><ele>922.0</ele><time>2026-04-13T14:41:23Z</time></trkpt><trkpt lat="43.794654629954394" lon="11.885490697369798"><ele>922.0</ele><time>2026-04-13T14:41:24Z</time></trkpt><trkpt lat="43.79475308496268" lon="11.885641528999148"><ele>922.0</ele><time>2026-04-13T14:41:25Z</time></trkpt><trkpt lat="43.794838988530636" lon="11.88579523300611"><ele>922.0</ele><time>2026-04-13T14:41:26Z</time></trkpt><trkpt lat="43.79492702576427" lon="11.885955571029196"><ele>920.25</ele><time>2026-04-13T14:41:27Z</time></trkpt><trkpt lat="43.79498915024081" lon="11.886143335530932"><ele>918.5</ele><time>2026-04-13T14:41:28Z</time></trkpt><trkpt lat="43.79502801473957" lon="11.88633166928489"><ele>916.75</ele><time>2026-04-13T14:41:29Z</time></trkpt><trkpt lat="43.795073582538635" lon="11.886531435380904"><ele>915.0</ele><time>2026-04-13T14:41:30Z</time></trkpt><trkpt lat="43.79512156029127" lon="11.88674037810598"><ele>925.5</ele><time>2026-04-13T14:41:31Z</time></trkpt><trkpt lat="43.79518012385895" lon="11.886937876202715"><ele>936.0</ele><time>2026-04-13T14:41:32Z</time></trkpt><trkpt lat="43.79522134095578" lon="11.887133360547418"><ele>946.5</ele><time>2026-04-13T14:41:33Z</time></trkpt><trkpt lat="43.79523601863417" lon="11.887329028482363"><ele>957.0</ele><time>2026-04-13T14:41:34Z</time></trkpt><trkpt lat="43.79525014746095" lon="11.887501803633604"><ele>954.75</ele><time>2026-04-13T14:41:35Z</time></trkpt><trkpt lat="43.795276088905695" lon="11.88767729293124"><ele>952.5</ele><time>2026-04-13T14:41:36Z</time></trkpt><trkpt lat="43.79534114897061" lon="11.887830713189462"><ele>950.25</ele><time>2026-04-13T14:41:37Z</time></trkpt><trkpt lat="43.795429927502695" lon="11.88797672688225"><ele>948.0</ele><time>2026-04-13T14:41:38Z</time></trkpt><trkpt lat="43.79551412398" lon="11.888121918096624"><ele>948.0</ele><time>2026-04-13T14:41:39Z</time></trkpt><trkpt lat="43.79555244234248" lon="11.888291461442705"><ele>948.0</ele><time>2026-04-13T14:41:40Z</time></trkpt><trkpt lat="43.795596447336195" lon="11.888459925924318"><ele>948.0</ele><time>2026-04-13T14:41:41Z</time></trkpt><trkpt lat="43.795591269233554" lon="11.888643547376125"><ele>948.0</ele><time>2026-04-13T14:41:42Z</time></trkpt><trkpt lat="43.79560746220139" lon="11.88883285449427"><ele>947.3333333333333</ele><time>2026-04-13T14:41:43Z</time></trkpt><trkpt lat="43.795613057467186" lon="11.889037070049435"><ele>946.6666666666666</ele><time>2026-04-13T14:41:44Z</time></trkpt><trkpt lat="43.7956269647607" lon="11.88925666776445"><ele>946.0</ele><time>2026-04-13T14:41:45Z</time></trkpt><trkpt lat="43.79562494928087" lon="11.889469182704365"><ele>946.0</ele><time>2026-04-13T14:41:46Z</time></trkpt><trkpt lat="43.79563231597874" lon="11.889669332764507"><ele>946.0</ele><time>2026-04-13T14:41:47Z</time></trkpt><trkpt lat="43.795632258497676" lon="11.8898828413031"><ele>946.0</ele><time>2026-04-13T14:41:48Z</time></trkpt><trkpt lat="43.795638053315194" lon="11.890068168495075"><ele>946.0</ele><time>2026-04-13T14:41:49Z</time></trkpt><trkpt lat="43.79564455268856" lon="11.890214215677883"><ele>947.6666666666666</ele><time>2026-04-13T14:41:50Z</time></trkpt><trkpt lat="43.79565493615202" lon="11.89032217955912"><ele>949.3333333333333</ele><time>2026-04-13T14:41:51Z</time></trkpt><trkpt lat="43.795701482637654" lon="11.890406171776961"><ele>951.0</ele><time>2026-04-13T14:41:52Z</time></trkpt><trkpt lat="43.79576502105542" lon="11.890442573228924"><ele>952.6666666666667</ele><time>2026-04-13T14:41:53Z</time></trkpt><trkpt lat="43.79584594591329" lon="11.890392271985666"><ele>954.3333333333334</ele><time>2026-04-13T14:41:54Z</time></trkpt><trkpt lat="43.7958938698519" lon="11.890263888414824"><ele>956.0</ele><time>2026-04-13T14:41:55Z</time></trkpt><trkpt lat="43.79593512691113" lon="11.890127049117933"><ele>953.5</ele><time>2026-04-13T14:41:56Z</time></trkpt><trkpt lat="43.79597141474525" lon="11.889956461721711"><ele>951.0</ele><time>2026-04-13T14:41:57Z</time></trkpt><trkpt lat="43.79602528388258" lon="11.889771566064768"><ele>948.5</ele><time>2026-04-13T14:41:58Z</time></trkpt><trkpt lat="43.796094461768035" lon="11.889573968771673"><ele>946.0</ele><time>2026-04-13T14:41:59Z</time></trkpt><trkpt lat="43.796164529023436" lon="11.889354130235406"><ele>954.3333333333333</ele><time>2026-04-13T14:42:00Z</time></trkpt><trkpt lat="43.79623823734858" lon="11.88914271022582"><ele>962.6666666666667</ele><time>2026-04-13T14:42:01Z</time></trkpt><trkpt lat="43.79629771154582" lon="11.888950958617185"><ele>971.0</ele><time>2026-04-13T14:42:02Z</time></trkpt><trkpt lat="43.79633604326066" lon="11.88876035316481"><ele>971.0</ele><time>2026-04-13T14:42:03Z</time></trkpt><trkpt lat="43.79634509798706" lon="11.888576266230613"><ele>971.0</ele><time>2026-04-13T14:42:04Z</time></trkpt><trkpt lat="43.796335802443785" lon="11.888412302893263"><ele>971.0</ele><time>2026-04-13T14:42:05Z</time></trkpt><trkpt lat="43.7963139217475" lon="11.888255959020437"><ele>971.0</ele><time>2026-04-13T14:42:06Z</time></trkpt><trkpt lat="43.796294272214254" lon="11.888141831054734"><ele>971.0</ele><time>2026-04-13T14:42:07Z</time></trkpt><trkpt lat="43.79628177249087" lon="11.88805237666095"><ele>970.9999999999999</ele><time>2026-04-13T14:42:08Z</time></trkpt><trkpt lat="43.79638037959462" lon="11.887954385344644"><ele>970.9999999999999</ele><time>2026-04-13T14:42:10Z</time></trkpt><trkpt lat="43.796452752516174" lon="11.888003100202116"><ele>971.0</ele><time>2026-04-13T14:42:11Z</time></trkpt><trkpt lat="43.79650580412346" lon="11.888110055724843"><ele>971.0</ele><time>2026-04-13T14:42:12Z</time></trkpt><trkpt lat="43.796541188073704" lon="11.888237379364915"><ele>971.0</ele><time>2026-04-13T14:42:13Z</time></trkpt><trkpt lat="43.79657565442568" lon="11.888383473406781"><ele>971.0</ele><time>2026-04-13T14:42:14Z</time></trkpt><trkpt lat="43.796599122343935" lon="11.88854309746291"><ele>971.0</ele><time>2026-04-13T14:42:15Z</time></trkpt><trkpt lat="43.79660253668137" lon="11.888727165626465"><ele>971.0</ele><time>2026-04-13T14:42:16Z</time></trkpt><trkpt lat="43.796592647553645" lon="11.88893788141243"><ele>971.0</ele><time>2026-04-13T14:42:17Z</time></trkpt><trkpt lat="43.79658999966419" lon="11.889162415735585"><ele>971.0</ele><time>2026-04-13T14:42:18Z</time></trkpt><trkpt lat="43.7965930264687" lon="11.889394587697499"><ele>971.0</ele><time>2026-04-13T14:42:19Z</time></trkpt><trkpt lat="43.79658847305175" lon="11.88964053390653"><ele>971.0</ele><time>2026-04-13T14:42:20Z</time></trkpt><trkpt lat="43.79658718443504" lon="11.889885695540329"><ele>971.0</ele><time>2026-04-13T14:42:21Z</time></trkpt><trkpt lat="43.7965802494225" lon="11.890136711986736"><ele>971.0</ele><time>2026-04-13T14:42:22Z</time></trkpt><trkpt lat="43.79657536274429" lon="11.890386502770486"><ele>973.6666666666667</ele><time>2026-04-13T14:42:23Z</time></trkpt><trkpt lat="43.79657020363557" lon="11.89063690453862"><ele>976.3333333333333</ele><time>2026-04-13T14:42:24Z</time></trkpt><trkpt lat="43.796574488652226" lon="11.890889658104461"><ele>979.0</ele><time>2026-04-13T14:42:25Z</time></trkpt><trkpt lat="43.796589656946125" lon="11.89113613449511"><ele>980.0</ele><time>2026-04-13T14:42:26Z</time></trkpt><trkpt lat="43.796603964295805" lon="11.891378872080582"><ele>981.0</ele><time>2026-04-13T14:42:27Z</time></trkpt><trkpt lat="43.79661951016054" lon="11.891612520585081"><ele>982.0</ele><time>2026-04-13T14:42:28Z</time></trkpt><trkpt lat="43.79662037315873" lon="11.891831370505852"><ele>983.5</ele><time>2026-04-13T14:42:29Z</time></trkpt><trkpt lat="43.7966518775949" lon="11.892027402115044"><ele>985.0</ele><time>2026-04-13T14:42:30Z</time></trkpt><trkpt lat="43.79667774869557" lon="11.892206160806625"><ele>986.5</ele><time>2026-04-13T14:42:31Z</time></trkpt><trkpt lat="43.79671639475978" lon="11.892373940926591"><ele>988.0</ele><time>2026-04-13T14:42:32Z</time></trkpt><trkpt lat="43.796815848207395" lon="11.892496301701557"><ele>988.25</ele><time>2026-04-13T14:42:33Z</time></trkpt><trkpt lat="43.79692571030397" lon="11.892599551143253"><ele>988.5</ele><time>2026-04-13T14:42:34Z</time></trkpt><trkpt lat="43.79705090456614" lon="11.892676851077209"><ele>988.75</ele><time>2026-04-13T14:42:35Z</time></trkpt><trkpt lat="43.79719350446203" lon="11.892732180014061"><ele>989.0</ele><time>2026-04-13T14:42:36Z</time></trkpt><trkpt lat="43.79732488814656" lon="11.892765024973675"><ele>989.0</ele><time>2026-04-13T14:42:37Z</time></trkpt><trkpt lat="43.79744529886548" lon="11.892790124901355"><ele>989.0000000000001</ele><time>2026-04-13T14:42:38Z</time></trkpt><trkpt lat="43.79754498042927" lon="11.89285595493047"><ele>989.0000000000001</ele><time>2026-04-13T14:42:39Z</time></trkpt><trkpt lat="43.79762040985749" lon="11.892953805113606"><ele>989.0</ele><time>2026-04-13T14:42:40Z</time></trkpt><trkpt lat="43.79761057778979" lon="11.89305812683846"><ele>989.0</ele><time>2026-04-13T14:42:41Z</time></trkpt><trkpt lat="43.79758332175282" lon="11.893137453195683"><ele>989.0</ele><time>2026-04-13T14:42:42Z</time></trkpt><trkpt lat="43.797538576165266" lon="11.89322770451705"><ele>989.0000000000001</ele><time>2026-04-13T14:42:43Z</time></trkpt><trkpt lat="43.79744826888031" lon="11.893326193658423"><ele>989.0000000000001</ele><time>2026-04-13T14:42:44Z</time></trkpt><trkpt lat="43.79735037371114" lon="11.893424765728671"><ele>989.0</ele><time>2026-04-13T14:42:45Z</time></trkpt><trkpt lat="43.7972544400606" lon="11.89348611305744"><ele>989.0</ele><time>2026-04-13T14:42:46Z</time></trkpt><trkpt lat="43.79713829882537" lon="11.893494334705682"><ele>989.0</ele><time>2026-04-13T14:42:47Z</time></trkpt><trkpt lat="43.79701613311878" lon="11.893452848536661"><ele>989.0</ele><time>2026-04-13T14:42:48Z</time></trkpt><trkpt lat="43.796886843246924" lon="11.893379025881266"><ele>989.0</ele><time>2026-04-13T14:42:49Z</time></trkpt><trkpt lat="43.79675020398669" lon="11.893286756757472"><ele>989.0</ele><time>2026-04-13T14:42:50Z</time></trkpt><trkpt lat="43.79660988107808" lon="11.893181864968989"><ele>996.6666666666667</ele><time>2026-04-13T14:42:51Z</time></trkpt><trkpt lat="43.79646081950809" lon="11.893043188217804"><ele>1004.3333333333333</ele><time>2026-04-13T14:42:52Z</time></trkpt><trkpt lat="43.796313053550065" lon="11.89288583466871"><ele>1012.0</ele><time>2026-04-13T14:42:53Z</time></trkpt><trkpt lat="43.79617926570244" lon="11.892726705623582"><ele>1012.25</ele><time>2026-04-13T14:42:54Z</time></trkpt><trkpt lat="43.79605546834054" lon="11.892584499499337"><ele>1012.5</ele><time>2026-04-13T14:42:55Z</time></trkpt><trkpt lat="43.7959442549702" lon="11.892456985886582"><ele>1012.75</ele><time>2026-04-13T14:42:56Z</time></trkpt><trkpt lat="43.79584363811064" lon="11.892327958633963"><ele>1013.0</ele><time>2026-04-13T14:42:57Z</time></trkpt><trkpt lat="43.795774275197914" lon="11.892196723276735"><ele>1013.0</ele><time>2026-04-13T14:42:58Z</time></trkpt><trkpt lat="43.795704704512815" lon="11.892083774895026"><ele>1013.0</ele><time>2026-04-13T14:42:59Z</time></trkpt><trkpt lat="43.79560778029589" lon="11.892013586229863"><ele>1013.0</ele><time>2026-04-13T14:43:00Z</time></trkpt><trkpt lat="43.79549066794202" lon="11.891972754072027"><ele>1013.0</ele><time>2026-04-13T14:43:01Z</time></trkpt><trkpt lat="43.79537706152743" lon="11.891920320106736"><ele>1013.0</ele><time>2026-04-13T14:43:02Z</time></trkpt><trkpt lat="43.795278865504606" lon="11.891821907008959"><ele>1013.0</ele><time>2026-04-13T14:43:03Z</time></trkpt><trkpt lat="43.795181670023325" lon="11.89169695546173"><ele>1013.0</ele><time>2026-04-13T14:43:04Z</time></trkpt><trkpt lat="43.795078671987135" lon="11.891561087578058"><ele>1013.0</ele><time>2026-04-13T14:43:05Z</time></trkpt><trkpt lat="43.794964589348666" lon="11.891433472589233"><ele>1015.0</ele><time>2026-04-13T14:43:06Z</time></trkpt><trkpt lat="43.79485013727585" lon="11.891321957978654"><ele>1017.0</ele><time>2026-04-13T14:43:07Z</time></trkpt><trkpt lat="43.79474845504657" lon="11.891211622194199"><ele>1019.0</ele><time>2026-04-13T14:43:08Z</time></trkpt><trkpt lat="43.79465252235324" lon="11.891098844982801"><ele>1021.0</ele><time>2026-04-13T14:43:09Z</time></trkpt><trkpt lat="43.794581335889646" lon="11.890984403105826"><ele>1020.0</ele><time>2026-04-13T14:43:10Z</time></trkpt><trkpt lat="43.79451021250996" lon="11.890875418204356"><ele>1018.9999999999999</ele><time>2026-04-13T14:43:11Z</time></trkpt><trkpt lat="43.79445308526707" lon="11.890784847840495"><ele>1017.9999999999999</ele><time>2026-04-13T14:43:12Z</time></trkpt><trkpt lat="43.79438581121381" lon="11.89072983798219"><ele>1017.0</ele><time>2026-04-13T14:43:13Z</time></trkpt><trkpt lat="43.79429837715071" lon="11.890681713715725"><ele>1016.0</ele><time>2026-04-13T14:43:14Z</time></trkpt><trkpt lat="43.79419647508942" lon="11.890721645925124"><ele>1016.0</ele><time>2026-04-13T14:43:15Z</time></trkpt><trkpt lat="43.79409986000607" lon="11.890816171444147"><ele>1016.0</ele><time>2026-04-13T14:43:16Z</time></trkpt><trkpt lat="43.79400520611819" lon="11.89090867804214"><ele>1016.0</ele><time>2026-04-13T14:43:17Z</time></trkpt><trkpt lat="43.79390573481944" lon="11.891012216080917"><ele>1016.0</ele><time>2026-04-13T14:43:18Z</time></trkpt><trkpt lat="43.79380334088103" lon="11.891132869776609"><ele>1019.0</ele><time>2026-04-13T14:43:19Z</time></trkpt><trkpt lat="43.79372035830488" lon="11.891279737929437"><ele>1021.9999999999999</ele><time>2026-04-13T14:43:20Z</time></trkpt><trkpt lat="43.793677546305496" lon="11.891425662076589"><ele>1025.0</ele><time>2026-04-13T14:43:21Z</time></trkpt><trkpt lat="43.79363348551162" lon="11.891540810018803"><ele>1028.0</ele><time>2026-04-13T14:43:22Z</time></trkpt><trkpt lat="43.79359118694278" lon="11.891638399662142"><ele>1031.0</ele><time>2026-04-13T14:43:23Z</time></trkpt><trkpt lat="43.793553130333954" lon="11.891719326334636"><ele>1031.0</ele><time>2026-04-13T14:43:24Z</time></trkpt><trkpt lat="43.79358323381838" lon="11.89182217126857"><ele>1031.0</ele><time>2026-04-13T14:43:25Z</time></trkpt><trkpt lat="43.793669795469654" lon="11.89184482810618"><ele>1031.0</ele><time>2026-04-13T14:43:26Z</time></trkpt><trkpt lat="43.793753643265745" lon="11.891812319186288"><ele>1031.0</ele><time>2026-04-13T14:43:27Z</time></trkpt><trkpt lat="43.79379790474036" lon="11.891705867348612"><ele>1031.0</ele><time>2026-04-13T14:43:28Z</time></trkpt><trkpt lat="43.79384390890181" lon="11.891586367018641"><ele>1031.0</ele><time>2026-04-13T14:43:29Z</time></trkpt><trkpt lat="43.79391482896381" lon="11.891474183464714"><ele>1031.0</ele><time>2026-04-13T14:43:30Z</time></trkpt><trkpt lat="43.794015052111554" lon="11.891405107531908"><ele>1031.0</ele><time>2026-04-13T14:43:31Z</time></trkpt><trkpt lat="43.79412997107055" lon="11.891351271488418"><ele>1031.0</ele><time>2026-04-13T14:43:32Z</time></trkpt><trkpt lat="43.794234081269245" lon="11.891336558431133"><ele>1031.0</ele><time>2026-04-13T14:43:33Z</time></trkpt><trkpt lat="43.794335462180285" lon="11.891354815390489"><ele>1031.0</ele><time>2026-04-13T14:43:34Z</time></trkpt><trkpt lat="43.794428611396654" lon="11.89142183595076"><ele>1028.5</ele><time>2026-04-13T14:43:35Z</time></trkpt><trkpt lat="43.794517827729884" lon="11.8915316661279"><ele>1026.0</ele><time>2026-04-13T14:43:36Z</time></trkpt><trkpt lat="43.794599268848906" lon="11.891665223647136"><ele>1023.5</ele><time>2026-04-13T14:43:37Z</time></trkpt><trkpt lat="43.79469927761911" lon="11.891797275847612"><ele>1021.0</ele><time>2026-04-13T14:43:38Z</time></trkpt><trkpt lat="43.7948080672278" lon="11.891956457533997"><ele>1030.6666666666665</ele><time>2026-04-13T14:43:39Z</time></trkpt><trkpt lat="43.79492420618481" lon="11.892129359101952"><ele>1040.3333333333333</ele><time>2026-04-13T14:43:40Z</time></trkpt><trkpt lat="43.79502988586037" lon="11.89228092688207"><ele>1050.0</ele><time>2026-04-13T14:43:41Z</time></trkpt><trkpt lat="43.79513345870596" lon="11.892412914918971"><ele>1050.5</ele><time>2026-04-13T14:43:42Z</time></trkpt><trkpt lat="43.795243502431596" lon="11.892512061761893"><ele>1051.0</ele><time>2026-04-13T14:43:43Z</time></trkpt><trkpt lat="43.79535286439968" lon="11.892594487560832"><ele>1051.5</ele><time>2026-04-13T14:43:44Z</time></trkpt><trkpt lat="43.795445785540004" lon="11.892658199532296"><ele>1052.0</ele><time>2026-04-13T14:43:45Z</time></trkpt><trkpt lat="43.79551781205638" lon="11.892744843632554"><ele>1052.0</ele><time>2026-04-13T14:43:46Z</time></trkpt><trkpt lat="43.795522441030734" lon="11.892887657965337"><ele>1052.0</ele><time>2026-04-13T14:43:48Z</time></trkpt><trkpt lat="43.795405145927894" lon="11.892902569437561"><ele>1052.0</ele><time>2026-04-13T14:43:50Z</time></trkpt><trkpt lat="43.79532901851906" lon="11.892821772797221"><ele>1052.0</ele><time>2026-04-13T14:43:51Z</time></trkpt><trkpt lat="43.795234604219274" lon="11.892730428897314"><ele>1052.0</ele><time>2026-04-13T14:43:52Z</time></trkpt><trkpt lat="43.795122583249054" lon="11.892626968145874"><ele>1051.3333333333335</ele><time>2026-04-13T14:43:53Z</time></trkpt><trkpt lat="43.79498558112739" lon="11.892494673769301"><ele>1050.6666666666667</ele><time>2026-04-13T14:43:54Z</time></trkpt><trkpt lat="43.79485071517215" lon="11.892368653009136"><ele>1050.0</ele><time>2026-04-13T14:43:55Z</time></trkpt><trkpt lat="43.794721979504445" lon="11.892248917199344"><ele>1050.0</ele><time>2026-04-13T14:43:56Z</time></trkpt><trkpt lat="43.794616695089225" lon="11.892162373779758"><ele>1050.0</ele><time>2026-04-13T14:43:57Z</time></trkpt><trkpt lat="43.79451803048746" lon="11.892106989746999"><ele>1050.0</ele><time>2026-04-13T14:43:58Z</time></trkpt><trkpt lat="43.79441478461833" lon="11.892094552560401"><ele>1050.0</ele><time>2026-04-13T14:43:59Z</time></trkpt><trkpt lat="43.79431051482184" lon="11.89210824400815"><ele>1050.0</ele><time>2026-04-13T14:44:00Z</time></trkpt><trkpt lat="43.79422079746298" lon="11.89223506826217"><ele>1048.75</ele><time>2026-04-13T14:44:01Z</time></trkpt><trkpt lat="43.79413920402743" lon="11.892382629945748"><ele>1047.5</ele><time>2026-04-13T14:44:02Z</time></trkpt><trkpt lat="43.79403915011589" lon="11.892538537794218"><ele>1046.25</ele><time>2026-04-13T14:44:03Z</time></trkpt><trkpt lat="43.793961299476" lon="11.892719588678046"><ele>1045.0</ele><time>2026-04-13T14:44:04Z</time></trkpt><trkpt lat="43.79386203288559" lon="11.892863581389964"><ele>1049.5</ele><time>2026-04-13T14:44:05Z</time></trkpt><trkpt lat="43.793784592295324" lon="11.893016626266053"><ele>1054.0</ele><time>2026-04-13T14:44:06Z</time></trkpt><trkpt lat="43.79372051567164" lon="11.893149764388326"><ele>1058.5</ele><time>2026-04-13T14:44:07Z</time></trkpt><trkpt lat="43.79367199889009" lon="11.893282454390919"><ele>1063.0</ele><time>2026-04-13T14:44:08Z</time></trkpt><trkpt lat="43.79367511583878" lon="11.893456973448357"><ele>1063.0</ele><time>2026-04-13T14:44:09Z</time></trkpt><trkpt lat="43.79371351348633" lon="11.893630386430171"><ele>1063.0</ele><time>2026-04-13T14:44:10Z</time></trkpt><trkpt lat="43.79375150432779" lon="11.893811990219879"><ele>1063.0</ele><time>2026-04-13T14:44:11Z</time></trkpt><trkpt lat="43.79379389391448" lon="11.894013696936558"><ele>1063.0</ele><time>2026-04-13T14:44:12Z</time></trkpt><trkpt lat="43.79383063397072" lon="11.894228931027792"><ele>1063.3333333333333</ele><time>2026-04-13T14:44:13Z</time></trkpt><trkpt lat="43.79384545651876" lon="11.89444374820255"><ele>1063.6666666666667</ele><time>2026-04-13T14:44:14Z</time></trkpt><trkpt lat="43.79385824389714" lon="11.894672744220442"><ele>1064.0</ele><time>2026-04-13T14:44:15Z</time></trkpt><trkpt lat="43.793892460019755" lon="11.894901611890722"><ele>1057.6666666666667</ele><time>2026-04-13T14:44:16Z</time></trkpt><trkpt lat="43.79393651919788" lon="11.895118012323545"><ele>1051.3333333333333</ele><time>2026-04-13T14:44:17Z</time></trkpt><trkpt lat="43.79399276707812" lon="11.895330996970383"><ele>1045.0</ele><time>2026-04-13T14:44:18Z</time></trkpt><trkpt lat="43.79406697467533" lon="11.895539969698804"><ele>1045.0</ele><time>2026-04-13T14:44:19Z</time></trkpt><trkpt lat="43.79416456097236" lon="11.895721527882536"><ele>1045.0</ele><time>2026-04-13T14:44:20Z</time></trkpt><trkpt lat="43.79425831703514" lon="11.895927260087893"><ele>1045.0</ele><time>2026-04-13T14:44:21Z</time></trkpt><trkpt lat="43.7943860558718" lon="11.896095755271295"><ele>1053.0</ele><time>2026-04-13T14:44:22Z</time></trkpt><trkpt lat="43.794503581912295" lon="11.89627248829677"><ele>1061.0</ele><time>2026-04-13T14:44:23Z</time></trkpt><trkpt lat="43.79461345224879" lon="11.896462352433948"><ele>1069.0</ele><time>2026-04-13T14:44:24Z</time></trkpt><trkpt lat="43.7947320066615" lon="11.896624321532173"><ele>1064.6666666666665</ele><time>2026-04-13T14:44:25Z</time></trkpt><trkpt lat="43.79485232928233" lon="11.896766452173823"><ele>1060.3333333333333</ele><time>2026-04-13T14:44:26Z</time></trkpt><trkpt lat="43.794985119119524" lon="11.896901537844148"><ele>1056.0</ele><time>2026-04-13T14:44:27Z</time></trkpt><trkpt lat="43.79513772492829" lon="11.897014225313292"><ele>1066.3333333333333</ele><time>2026-04-13T14:44:28Z</time></trkpt><trkpt lat="43.79527297637801" lon="11.89716354618339"><ele>1076.6666666666665</ele><time>2026-04-13T14:44:29Z</time></trkpt><trkpt lat="43.795416727119544" lon="11.89729876587687"><ele>1087.0</ele><time>2026-04-13T14:44:30Z</time></trkpt><trkpt lat="43.79555274662379" lon="11.89742812892714"><ele>1087.0</ele><time>2026-04-13T14:44:31Z</time></trkpt><trkpt lat="43.795690349366645" lon="11.897534700198454"><ele>1087.0</ele><time>2026-04-13T14:44:32Z</time></trkpt><trkpt lat="43.79582235104968" lon="11.897655321976403"><ele>1087.0</ele><time>2026-04-13T14:44:33Z</time></trkpt><trkpt lat="43.79595311358684" lon="11.897769257469896"><ele>1089.6666666666665</ele><time>2026-04-13T14:44:34Z</time></trkpt><trkpt lat="43.79609583873239" lon="11.897871019146619"><ele>1092.3333333333333</ele><time>2026-04-13T14:44:35Z</time></trkpt><trkpt lat="43.796250975316816" lon="11.897949942594792"><ele>1095.0</ele><time>2026-04-13T14:44:36Z</time></trkpt><trkpt lat="43.79641433478134" lon="11.898019001241831"><ele>1095.0</ele><time>2026-04-13T14:44:37Z</time></trkpt><trkpt lat="43.79656986664031" lon="11.898083806069158"><ele>1095.0</ele><time>2026-04-13T14:44:38Z</time></trkpt><trkpt lat="43.796711504398814" lon="11.898135590823042"><ele>1095.0</ele><time>2026-04-13T14:44:39Z</time></trkpt><trkpt lat="43.796842135259816" lon="11.898189816193923"><ele>1095.0</ele><time>2026-04-13T14:44:40Z</time></trkpt><trkpt lat="43.79695759443608" lon="11.898247685281556"><ele>1098.0</ele><time>2026-04-13T14:44:41Z</time></trkpt><trkpt lat="43.79704505804425" lon="11.898340767405541"><ele>1101.0</ele><time>2026-04-13T14:44:42Z</time></trkpt><trkpt lat="43.79708906939829" lon="11.898453866864335"><ele>1104.0</ele><time>2026-04-13T14:44:43Z</time></trkpt><trkpt lat="43.79708674176013" lon="11.898569725171168"><ele>1107.0</ele><time>2026-04-13T14:44:44Z</time></trkpt><trkpt lat="43.797027683513065" lon="11.898675957199178"><ele>1110.0</ele><time>2026-04-13T14:44:45Z</time></trkpt><trkpt lat="43.79696377877778" lon="11.898780834503624"><ele>1110.0</ele><time>2026-04-13T14:44:46Z</time></trkpt><trkpt lat="43.79687163048882" lon="11.898891602589966"><ele>1110.0</ele><time>2026-04-13T14:44:47Z</time></trkpt><trkpt lat="43.79681342781967" lon="11.899007470353244"><ele>1110.0</ele><time>2026-04-13T14:44:48Z</time></trkpt><trkpt lat="43.79678805537352" lon="11.899119403988657"><ele>1110.0</ele><time>2026-04-13T14:44:49Z</time></trkpt><trkpt lat="43.79680948438171" lon="11.899229692731225"><ele>1110.0</ele><time>2026-04-13T14:44:50Z</time></trkpt><trkpt lat="43.796866919175635" lon="11.89930897364083"><ele>1109.8</ele><time>2026-04-13T14:44:51Z</time></trkpt><trkpt lat="43.7969560299099" lon="11.8993487797651"><ele>1109.6</ele><time>2026-04-13T14:44:52Z</time></trkpt><trkpt lat="43.797060108727244" lon="11.899388236804446"><ele>1109.4</ele><time>2026-04-13T14:44:53Z</time></trkpt><trkpt lat="43.79716033729646" lon="11.899449014710793"><ele>1109.2</ele><time>2026-04-13T14:44:54Z</time></trkpt><trkpt lat="43.79725604310201" lon="11.899561861439487"><ele>1109.0</ele><time>2026-04-13T14:44:55Z</time></trkpt><trkpt lat="43.79732392268958" lon="11.899716906986491"><ele>1109.0</ele><time>2026-04-13T14:44:56Z</time></trkpt><trkpt lat="43.79733972993368" lon="11.899868109189494"><ele>1109.0</ele><time>2026-04-13T14:44:57Z</time></trkpt><trkpt lat="43.79732859061938" lon="11.900016493622378"><ele>1109.0</ele><time>2026-04-13T14:44:58Z</time></trkpt><trkpt lat="43.79732127589451" lon="11.900166707824566"><ele>1109.0</ele><time>2026-04-13T14:44:59Z</time></trkpt><trkpt lat="43.79735446394718" lon="11.900332876731937"><ele>1110.0</ele><time>2026-04-13T14:45:00Z</time></trkpt><trkpt lat="43.79740622653534" lon="11.9005220730655"><ele>1111.0</ele><time>2026-04-13T14:45:01Z</time></trkpt><trkpt lat="43.79745814555838" lon="11.900737667977838"><ele>1112.0</ele><time>2026-04-13T14:45:02Z</time></trkpt><trkpt lat="43.797506784321065" lon="11.900939984372545"><ele>1112.0</ele><time>2026-04-13T14:45:03Z</time></trkpt><trkpt lat="43.797568303746985" lon="11.901106225882122"><ele>1112.0</ele><time>2026-04-13T14:45:04Z</time></trkpt><trkpt lat="43.797635480608285" lon="11.901252768076587"><ele>1112.0</ele><time>2026-04-13T14:45:05Z</time></trkpt><trkpt lat="43.79768343758312" lon="11.901417913035546"><ele>1112.0</ele><time>2026-04-13T14:45:06Z</time></trkpt><trkpt lat="43.79769086337719" lon="11.901607020431257"><ele>1112.25</ele><time>2026-04-13T14:45:07Z</time></trkpt><trkpt lat="43.797674421465686" lon="11.901814609052538"><ele>1112.5</ele><time>2026-04-13T14:45:08Z</time></trkpt><trkpt lat="43.797666207802976" lon="11.9020228213088"><ele>1112.75</ele><time>2026-04-13T14:45:09Z</time></trkpt><trkpt lat="43.79767427441444" lon="11.902226750265186"><ele>1113.0</ele><time>2026-04-13T14:45:10Z</time></trkpt><trkpt lat="43.79770920116642" lon="11.90243063502485"><ele>1123.25</ele><time>2026-04-13T14:45:11Z</time></trkpt><trkpt lat="43.79776531337737" lon="11.90262790369175"><ele>1133.5</ele><time>2026-04-13T14:45:12Z</time></trkpt><trkpt lat="43.79782770263158" lon="11.902799133823766"><ele>1143.75</ele><time>2026-04-13T14:45:13Z</time></trkpt><trkpt lat="43.797868280259756" lon="11.902968236794857"><ele>1154.0</ele><time>2026-04-13T14:45:14Z</time></trkpt><trkpt lat="43.79792243601458" lon="11.903106756111187"><ele>1154.0</ele><time>2026-04-13T14:45:15Z</time></trkpt><trkpt lat="43.79790670251664" lon="11.903263537500981"><ele>1154.0</ele><time>2026-04-13T14:45:16Z</time></trkpt><trkpt lat="43.797853163209275" lon="11.903384947282385"><ele>1154.0</ele><time>2026-04-13T14:45:17Z</time></trkpt><trkpt lat="43.797764881937454" lon="11.903493223913252"><ele>1154.0</ele><time>2026-04-13T14:45:18Z</time></trkpt><trkpt lat="43.797661324362295" lon="11.90360946412689"><ele>1150.2</ele><time>2026-04-13T14:45:19Z</time></trkpt><trkpt lat="43.79756323259871" lon="11.903685405835045"><ele>1146.4</ele><time>2026-04-13T14:45:20Z</time></trkpt><trkpt lat="43.79744881158309" lon="11.903706824206537"><ele>1142.6</ele><time>2026-04-13T14:45:21Z</time></trkpt><trkpt lat="43.79733779101167" lon="11.903681486064452"><ele>1138.8</ele><time>2026-04-13T14:45:22Z</time></trkpt><trkpt lat="43.79724365932069" lon="11.903688391484792"><ele>1135.0</ele><time>2026-04-13T14:45:23Z</time></trkpt><trkpt lat="43.797165646182364" lon="11.903760954737058"><ele>1135.0</ele><time>2026-04-13T14:45:24Z</time></trkpt><trkpt lat="43.7971154959137" lon="11.90388873350278"><ele>1135.0</ele><time>2026-04-13T14:45:25Z</time></trkpt><trkpt lat="43.79707850547655" lon="11.904035174971387"><ele>1135.0</ele><time>2026-04-13T14:45:26Z</time></trkpt><trkpt lat="43.797057334954154" lon="11.90417330169719"><ele>1135.0</ele><time>2026-04-13T14:45:27Z</time></trkpt><trkpt lat="43.79703299637885" lon="11.904287523594427"><ele>1135.0</ele><time>2026-04-13T14:45:28Z</time></trkpt><trkpt lat="43.797081460625456" lon="11.90440050411671"><ele>1133.6</ele><time>2026-04-13T14:45:29Z</time></trkpt><trkpt lat="43.79715176114455" lon="11.904472226659545"><ele>1132.2</ele><time>2026-04-13T14:45:30Z</time></trkpt><trkpt lat="43.797251045609634" lon="11.904507648996171"><ele>1130.8</ele><time>2026-04-13T14:45:31Z</time></trkpt><trkpt lat="43.797365878012734" lon="11.904547315503857"><ele>1129.4</ele><time>2026-04-13T14:45:32Z</time></trkpt><trkpt lat="43.797470519908344" lon="11.904645189528196"><ele>1128.0</ele><time>2026-04-13T14:45:33Z</time></trkpt><trkpt lat="43.79753421596416" lon="11.904820764127408"><ele>1128.0</ele><time>2026-04-13T14:45:34Z</time></trkpt><trkpt lat="43.797639264669556" lon="11.904968912077072"><ele>1128.0</ele><time>2026-04-13T14:45:35Z</time></trkpt><trkpt lat="43.79776097033023" lon="11.9051034675332"><ele>1128.0</ele><time>2026-04-13T14:45:36Z</time></trkpt><trkpt lat="43.797874575780924" lon="11.90525307568773"><ele>1135.5</ele><time>2026-04-13T14:45:37Z</time></trkpt><trkpt lat="43.79798298813778" lon="11.90538614290012"><ele>1143.0</ele><time>2026-04-13T14:45:38Z</time></trkpt><trkpt lat="43.7980778125807" lon="11.905519763488266"><ele>1150.5</ele><time>2026-04-13T14:45:39Z</time></trkpt><trkpt lat="43.79816926414341" lon="11.905631560735683"><ele>1158.0</ele><time>2026-04-13T14:45:40Z</time></trkpt><trkpt lat="43.7982605108396" lon="11.90572550349229"><ele>1158.0</ele><time>2026-04-13T14:45:41Z</time></trkpt><trkpt lat="43.798304646574536" lon="11.90587639682094"><ele>1158.0</ele><time>2026-04-13T14:45:42Z</time></trkpt><trkpt lat="43.7983308215089" lon="11.90603579578244"><ele>1158.0</ele><time>2026-04-13T14:45:43Z</time></trkpt><trkpt lat="43.79835518608806" lon="11.906194789779335"><ele>1158.0</ele><time>2026-04-13T14:45:44Z</time></trkpt><trkpt lat="43.798376380987534" lon="11.906354606897876"><ele>1157.25</ele><time>2026-04-13T14:45:45Z</time></trkpt><trkpt lat="43.79838654253306" lon="11.906509567565157"><ele>1156.5</ele><time>2026-04-13T14:45:46Z</time></trkpt><trkpt lat="43.798374951673054" lon="11.906660688805873"><ele>1155.75</ele><time>2026-04-13T14:45:47Z</time></trkpt><trkpt lat="43.798335455833936" lon="11.906804998810117"><ele>1155.0</ele><time>2026-04-13T14:45:48Z</time></trkpt><trkpt lat="43.79827509754521" lon="11.906958936776352"><ele>1156.5</ele><time>2026-04-13T14:45:49Z</time></trkpt><trkpt lat="43.79822223940361" lon="11.907115048455726"><ele>1158.0</ele><time>2026-04-13T14:45:50Z</time></trkpt><trkpt lat="43.79816827254953" lon="11.90724885304237"><ele>1159.5</ele><time>2026-04-13T14:45:51Z</time></trkpt><trkpt lat="43.798142576600405" lon="11.90738829621535"><ele>1161.0</ele><time>2026-04-13T14:45:52Z</time></trkpt><trkpt lat="43.79813638071348" lon="11.907542295681685"><ele>1162.3999999999999</ele><time>2026-04-13T14:45:53Z</time></trkpt><trkpt lat="43.798162918884586" lon="11.90769658945575"><ele>1163.8</ele><time>2026-04-13T14:45:54Z</time></trkpt><trkpt lat="43.798180652159964" lon="11.907864209563568"><ele>1165.1999999999998</ele><time>2026-04-13T14:45:55Z</time></trkpt><trkpt lat="43.79821125387351" lon="11.908007985100133"><ele>1166.6</ele><time>2026-04-13T14:45:56Z</time></trkpt><trkpt lat="43.79819604191741" lon="11.908145232585465"><ele>1168.0</ele><time>2026-04-13T14:45:57Z</time></trkpt><trkpt lat="43.7981503743749" lon="11.908239568719083"><ele>1168.0</ele><time>2026-04-13T14:45:58Z</time></trkpt><trkpt lat="43.798104220072865" lon="11.908348199011245"><ele>1168.0</ele><time>2026-04-13T14:45:59Z</time></trkpt><trkpt lat="43.79809567733897" lon="11.908461438488573"><ele>1168.0</ele><time>2026-04-13T14:46:00Z</time></trkpt><trkpt lat="43.79810095202143" lon="11.908559950768439"><ele>1168.0</ele><time>2026-04-13T14:46:01Z</time></trkpt><trkpt lat="43.79812872352399" lon="11.908665212809245"><ele>1168.0</ele><time>2026-04-13T14:46:02Z</time></trkpt><trkpt lat="43.798172292013604" lon="11.908775519748373"><ele>1168.0</ele><time>2026-04-13T14:46:03Z</time></trkpt><trkpt lat="43.79820820216997" lon="11.908894599060776"><ele>1168.8333333333333</ele><time>2026-04-13T14:46:04Z</time></trkpt><trkpt lat="43.79824105228062" lon="11.90901987694831"><ele>1169.6666666666665</ele><time>2026-04-13T14:46:05Z</time></trkpt><trkpt lat="43.79826568550087" lon="11.90914536506975"><ele>1170.5</ele><time>2026-04-13T14:46:06Z</time></trkpt><trkpt lat="43.798278320803384" lon="11.90925279419555"><ele>1171.3333333333333</ele><time>2026-04-13T14:46:07Z</time></trkpt><trkpt lat="43.79827097651536" lon="11.909369038368665"><ele>1172.1666666666667</ele><time>2026-04-13T14:46:08Z</time></trkpt><trkpt lat="43.79824061358603" lon="11.909448844907084"><ele>1173.0</ele><time>2026-04-13T14:46:09Z</time></trkpt><trkpt lat="43.79819491159195" lon="11.909557326118211"><ele>1175.25</ele><time>2026-04-13T14:46:10Z</time></trkpt><trkpt lat="43.79808679492363" lon="11.909622348802495"><ele>1177.5</ele><time>2026-04-13T14:46:11Z</time></trkpt><trkpt lat="43.79797178903365" lon="11.90969853808738"><ele>1179.75</ele><time>2026-04-13T14:46:12Z</time></trkpt><trkpt lat="43.79783465233337" lon="11.90978274617848"><ele>1182.0</ele><time>2026-04-13T14:46:13Z</time></trkpt><trkpt lat="43.79770056867078" lon="11.90989133796835"><ele>1181.75</ele><time>2026-04-13T14:46:14Z</time></trkpt><trkpt lat="43.79758058513704" lon="11.910007170937009"><ele>1181.5</ele><time>2026-04-13T14:46:15Z</time></trkpt><trkpt lat="43.797471678630316" lon="11.910136639716479"><ele>1181.25</ele><time>2026-04-13T14:46:16Z</time></trkpt><trkpt lat="43.79736650469735" lon="11.910268157109616"><ele>1181.0</ele><time>2026-04-13T14:46:17Z</time></trkpt><trkpt lat="43.79727839835022" lon="11.91039999874227"><ele>1181.0</ele><time>2026-04-13T14:46:18Z</time></trkpt><trkpt lat="43.79719138818217" lon="11.91052858296047"><ele>1181.0</ele><time>2026-04-13T14:46:19Z</time></trkpt><trkpt lat="43.797107311362" lon="11.91064732761973"><ele>1181.0</ele><time>2026-04-13T14:46:20Z</time></trkpt><trkpt lat="43.797010415060285" lon="11.910746196994362"><ele>1181.0</ele><time>2026-04-13T14:46:21Z</time></trkpt><trkpt lat="43.79689991038009" lon="11.910800440573801"><ele>1175.5</ele><time>2026-04-13T14:46:22Z</time></trkpt><trkpt lat="43.796768758356976" lon="11.910820562024606"><ele>1170.0</ele><time>2026-04-13T14:46:23Z</time></trkpt><trkpt lat="43.796628674144486" lon="11.910846186846529"><ele>1164.5</ele><time>2026-04-13T14:46:24Z</time></trkpt><trkpt lat="43.79650877990522" lon="11.910856971871931"><ele>1159.0</ele><time>2026-04-13T14:46:25Z</time></trkpt><trkpt lat="43.79640041130769" lon="11.91085186470054"><ele>1159.0</ele><time>2026-04-13T14:46:26Z</time></trkpt><trkpt lat="43.79629740737705" lon="11.910892424410246"><ele>1159.0</ele><time>2026-04-13T14:46:27Z</time></trkpt><trkpt lat="43.79623039792125" lon="11.910949676212256"><ele>1159.0</ele><time>2026-04-13T14:46:28Z</time></trkpt><trkpt lat="43.79618893332438" lon="11.9110252519457"><ele>1159.0</ele><time>2026-04-13T14:46:29Z</time></trkpt><trkpt lat="43.79618415333213" lon="11.911136613647193"><ele>1159.0</ele><time>2026-04-13T14:46:30Z</time></trkpt><trkpt lat="43.79620521044724" lon="11.911276931087164"><ele>1159.0</ele><time>2026-04-13T14:46:31Z</time></trkpt><trkpt lat="43.796250795418125" lon="11.91143237057711"><ele>1164.0</ele><time>2026-04-13T14:46:32Z</time></trkpt><trkpt lat="43.7962956750681" lon="11.911608521007233"><ele>1169.0</ele><time>2026-04-13T14:46:33Z</time></trkpt><trkpt lat="43.796343680126704" lon="11.911802704887865"><ele>1174.0</ele><time>2026-04-13T14:46:34Z</time></trkpt><trkpt lat="43.796384645620805" lon="11.911998401936817"><ele>1179.0</ele><time>2026-04-13T14:46:35Z</time></trkpt><trkpt lat="43.796445558048305" lon="11.912179844338082"><ele>1179.0</ele><time>2026-04-13T14:46:36Z</time></trkpt><trkpt lat="43.79651816437452" lon="11.912335951349425"><ele>1179.0</ele><time>2026-04-13T14:46:37Z</time></trkpt><trkpt lat="43.796591436742695" lon="11.912474332428285"><ele>1179.0</ele><time>2026-04-13T14:46:38Z</time></trkpt><trkpt lat="43.79665000957544" lon="11.912632972592004"><ele>1179.0</ele><time>2026-04-13T14:46:39Z</time></trkpt><trkpt lat="43.796684807149" lon="11.912809895292277"><ele>1175.75</ele><time>2026-04-13T14:46:40Z</time></trkpt><trkpt lat="43.79670338717112" lon="11.912993905713202"><ele>1172.5</ele><time>2026-04-13T14:46:41Z</time></trkpt><trkpt lat="43.79670841375596" lon="11.913168790712561"><ele>1169.25</ele><time>2026-04-13T14:46:42Z</time></trkpt><trkpt lat="43.79672915861544" lon="11.913325631962058"><ele>1166.0</ele><time>2026-04-13T14:46:43Z</time></trkpt><trkpt lat="43.796756417334876" lon="11.913471687600204"><ele>1162.8</ele><time>2026-04-13T14:46:44Z</time></trkpt><trkpt lat="43.79679493604619" lon="11.913609185172596"><ele>1159.6</ele><time>2026-04-13T14:46:45Z</time></trkpt><trkpt lat="43.79685440781272" lon="11.91372829857214"><ele>1156.4</ele><time>2026-04-13T14:46:46Z</time></trkpt><trkpt lat="43.79691852196192" lon="11.913838823838576"><ele>1153.2</ele><time>2026-04-13T14:46:47Z</time></trkpt><trkpt lat="43.79702099305462" lon="11.913897911089807"><ele>1150.0</ele><time>2026-04-13T14:46:48Z</time></trkpt><trkpt lat="43.79712005726587" lon="11.91392162025117"><ele>1157.4</ele><time>2026-04-13T14:46:49Z</time></trkpt><trkpt lat="43.797222964102815" lon="11.913945383541249"><ele>1164.8</ele><time>2026-04-13T14:46:50Z</time></trkpt><trkpt lat="43.79731571747109" lon="11.913931526320043"><ele>1172.2</ele><time>2026-04-13T14:46:51Z</time></trkpt><trkpt lat="43.797400981257255" lon="11.913969869613982"><ele>1179.6</ele><time>2026-04-13T14:46:52Z</time></trkpt><trkpt lat="43.79745430760059" lon="11.914064145238463"><ele>1187.0</ele><time>2026-04-13T14:46:53Z</time></trkpt><trkpt lat="43.797497644634284" lon="11.914173402846743"><ele>1184.8333333333335</ele><time>2026-04-13T14:46:54Z</time></trkpt><trkpt lat="43.7975056472201" lon="11.914305143343126"><ele>1182.6666666666667</ele><time>2026-04-13T14:46:55Z</time></trkpt><trkpt lat="43.79749483369907" lon="11.914419076524625"><ele>1180.5</ele><time>2026-04-13T14:46:56Z</time></trkpt><trkpt lat="43.797478947232435" lon="11.914530822329663"><ele>1178.3333333333333</ele><time>2026-04-13T14:46:57Z</time></trkpt><trkpt lat="43.79746477869908" lon="11.914637917699809"><ele>1176.1666666666665</ele><time>2026-04-13T14:46:58Z</time></trkpt><trkpt lat="43.79745386739283" lon="11.914732815823086"><ele>1174.0</ele><time>2026-04-13T14:46:59Z</time></trkpt><trkpt lat="43.79744115473633" lon="11.914878806358944"><ele>1174.0</ele><time>2026-04-13T14:47:01Z</time></trkpt><trkpt lat="43.79745203932236" lon="11.914969504842679"><ele>1174.0</ele><time>2026-04-13T14:47:03Z</time></trkpt><trkpt lat="43.79748789710036" lon="11.915095299053815"><ele>1174.0</ele><time>2026-04-13T14:47:05Z</time></trkpt><trkpt lat="43.79753571459846" lon="11.915170637577257"><ele>1174.0</ele><time>2026-04-13T14:47:06Z</time></trkpt><trkpt lat="43.79759320580994" lon="11.915224870522911"><ele>1174.0</ele><time>2026-04-13T14:47:07Z</time></trkpt><trkpt lat="43.79766020816599" lon="11.915246169050008"><ele>1174.0</ele><time>2026-04-13T14:47:08Z</time></trkpt><trkpt lat="43.79773348755211" lon="11.915237179211477"><ele>1174.0</ele><time>2026-04-13T14:47:09Z</time></trkpt><trkpt lat="43.797802483224714" lon="11.915209164126487"><ele>1173.3333333333333</ele><time>2026-04-13T14:47:10Z</time></trkpt><trkpt lat="43.79789695397961" lon="11.915124335598646"><ele>1172.6666666666665</ele><time>2026-04-13T14:47:12Z</time></trkpt><trkpt lat="43.79793861810506" lon="11.915046918319732"><ele>1172.0</ele><time>2026-04-13T14:47:13Z</time></trkpt><trkpt lat="43.79799126978745" lon="11.914972973887023"><ele>1171.3333333333333</ele><time>2026-04-13T14:47:14Z</time></trkpt><trkpt lat="43.79805221934354" lon="11.914900921192562"><ele>1170.6666666666667</ele><time>2026-04-13T14:47:15Z</time></trkpt><trkpt lat="43.798118813299766" lon="11.914844359068143"><ele>1170.0</ele><time>2026-04-13T14:47:16Z</time></trkpt><trkpt lat="43.79818827878574" lon="11.914798321003637"><ele>1170.0</ele><time>2026-04-13T14:47:17Z</time></trkpt><trkpt lat="43.79826147031954" lon="11.914761658565585"><ele>1170.0</ele><time>2026-04-13T14:47:18Z</time></trkpt><trkpt lat="43.798331100060636" lon="11.914721935381216"><ele>1170.0</ele><time>2026-04-13T14:47:19Z</time></trkpt><trkpt lat="43.79840402674405" lon="11.914662147443412"><ele>1170.0</ele><time>2026-04-13T14:47:20Z</time></trkpt><trkpt lat="43.798476645578766" lon="11.914584603772663"><ele>1170.0</ele><time>2026-04-13T14:47:21Z</time></trkpt><trkpt lat="43.79854724587645" lon="11.914528401394335"><ele>1170.0</ele><time>2026-04-13T14:47:22Z</time></trkpt><trkpt lat="43.7986268599462" lon="11.914488053620124"><ele>1166.0</ele><time>2026-04-13T14:47:23Z</time></trkpt><trkpt lat="43.79871216183884" lon="11.914477670753401"><ele>1162.0</ele><time>2026-04-13T14:47:24Z</time></trkpt><trkpt lat="43.798802275465405" lon="11.91448197359708"><ele>1158.0</ele><time>2026-04-13T14:47:25Z</time></trkpt><trkpt lat="43.798889488357354" lon="11.914493494628116"><ele>1154.0</ele><time>2026-04-13T14:47:26Z</time></trkpt><trkpt lat="43.798972457504526" lon="11.91450646875922"><ele>1150.0</ele><time>2026-04-13T14:47:27Z</time></trkpt><trkpt lat="43.79904901233283" lon="11.914499205689221"><ele>1146.0</ele><time>2026-04-13T14:47:28Z</time></trkpt><trkpt lat="43.799117192067" lon="11.91445444919779"><ele>1146.0</ele><time>2026-04-13T14:47:29Z</time></trkpt><trkpt lat="43.79917062827474" lon="11.914386496248891"><ele>1146.0</ele><time>2026-04-13T14:47:30Z</time></trkpt><trkpt lat="43.79920265322462" lon="11.914292442756608"><ele>1146.0</ele><time>2026-04-13T14:47:31Z</time></trkpt><trkpt lat="43.79921481537324" lon="11.91418466320184"><ele>1146.0</ele><time>2026-04-13T14:47:32Z</time></trkpt><trkpt lat="43.79922477115809" lon="11.914086153717058"><ele>1146.0</ele><time>2026-04-13T14:47:33Z</time></trkpt><trkpt lat="43.79925930928806" lon="11.913990015827364"><ele>1146.0</ele><time>2026-04-13T14:47:34Z</time></trkpt><trkpt lat="43.799324715468295" lon="11.91391261639046"><ele>1149.0</ele><time>2026-04-13T14:47:35Z</time></trkpt><trkpt lat="43.7994036986101" lon="11.913845048135853"><ele>1152.0</ele><time>2026-04-13T14:47:36Z</time></trkpt><trkpt lat="43.799486575507316" lon="11.913795996503447"><ele>1155.0</ele><time>2026-04-13T14:47:37Z</time></trkpt><trkpt lat="43.79958446497368" lon="11.913768045862508"><ele>1158.0</ele><time>2026-04-13T14:47:38Z</time></trkpt><trkpt lat="43.79968258248304" lon="11.913752147927072"><ele>1161.0</ele><time>2026-04-13T14:47:39Z</time></trkpt><trkpt lat="43.799780015058886" lon="11.913739981426454"><ele>1161.0</ele><time>2026-04-13T14:47:40Z</time></trkpt><trkpt lat="43.79987329619337" lon="11.913729956247433"><ele>1161.0</ele><time>2026-04-13T14:47:41Z</time></trkpt><trkpt lat="43.79996936154545" lon="11.913706421706223"><ele>1161.0</ele><time>2026-04-13T14:47:42Z</time></trkpt><trkpt lat="43.80005975585767" lon="11.91369846588812"><ele>1161.0</ele><time>2026-04-13T14:47:43Z</time></trkpt><trkpt lat="43.80014794169668" lon="11.913705717684344"><ele>1161.0</ele><time>2026-04-13T14:47:44Z</time></trkpt><trkpt lat="43.80023391688192" lon="11.91371296403875"><ele>1160.2</ele><time>2026-04-13T14:47:45Z</time></trkpt><trkpt lat="43.800328049760864" lon="11.913734189061131"><ele>1159.3999999999999</ele><time>2026-04-13T14:47:46Z</time></trkpt><trkpt lat="43.80042543979649" lon="11.913755177620738"><ele>1158.6</ele><time>2026-04-13T14:47:47Z</time></trkpt><trkpt lat="43.80051915001915" lon="11.913768986433949"><ele>1157.8</ele><time>2026-04-13T14:47:48Z</time></trkpt><trkpt lat="43.80061420737114" lon="11.913770036014808"><ele>1157.0</ele><time>2026-04-13T14:47:49Z</time></trkpt><trkpt lat="43.80071019931288" lon="11.913762561967197"><ele>1157.0</ele><time>2026-04-13T14:47:50Z</time></trkpt><trkpt lat="43.80080579473785" lon="11.91373602415551"><ele>1157.0</ele><time>2026-04-13T14:47:51Z</time></trkpt><trkpt lat="43.80089986994534" lon="11.91369785209727"><ele>1157.0</ele><time>2026-04-13T14:47:52Z</time></trkpt><trkpt lat="43.800994190371135" lon="11.913649456431578"><ele>1157.0</ele><time>2026-04-13T14:47:53Z</time></trkpt><trkpt lat="43.801084122825245" lon="11.913602302247652"><ele>1157.0</ele><time>2026-04-13T14:47:54Z</time></trkpt><trkpt lat="43.80117399237765" lon="11.913548716556207"><ele>1153.4</ele><time>2026-04-13T14:47:55Z</time></trkpt><trkpt lat="43.80126636225621" lon="11.913496616449223"><ele>1149.8000000000002</ele><time>2026-04-13T14:47:56Z</time></trkpt><trkpt lat="43.801356155703004" lon="11.91344367968609"><ele>1146.2</ele><time>2026-04-13T14:47:57Z</time></trkpt><trkpt lat="43.80145138204644" lon="11.913399790627874"><ele>1142.6000000000001</ele><time>2026-04-13T14:47:58Z</time></trkpt><trkpt lat="43.80154914027368" lon="11.913369338311254"><ele>1139.0</ele><time>2026-04-13T14:47:59Z</time></trkpt><trkpt lat="43.80165078430145" lon="11.913366894796702"><ele>1138.4</ele><time>2026-04-13T14:48:00Z</time></trkpt><trkpt lat="43.801752817308106" lon="11.913389869690812"><ele>1137.8000000000002</ele><time>2026-04-13T14:48:01Z</time></trkpt><trkpt lat="43.80185306447709" lon="11.91340781322651"><ele>1137.1999999999998</ele><time>2026-04-13T14:48:02Z</time></trkpt><trkpt lat="43.801954424481075" lon="11.913421243988891"><ele>1136.6</ele><time>2026-04-13T14:48:03Z</time></trkpt><trkpt lat="43.80205576728087" lon="11.913404046684585"><ele>1136.0</ele><time>2026-04-13T14:48:04Z</time></trkpt><trkpt lat="43.80215700087611" lon="11.913387615412084"><ele>1136.0</ele><time>2026-04-13T14:48:05Z</time></trkpt><trkpt lat="43.80225597561699" lon="11.913373978703188"><ele>1136.0</ele><time>2026-04-13T14:48:06Z</time></trkpt><trkpt lat="43.80236271868395" lon="11.913375255979396"><ele>1136.0</ele><time>2026-04-13T14:48:07Z</time></trkpt><trkpt lat="43.80247336163312" lon="11.913403392205185"><ele>1136.0</ele><time>2026-04-13T14:48:08Z</time></trkpt><trkpt lat="43.802588644591445" lon="11.913456364080126"><ele>1136.0</ele><time>2026-04-13T14:48:09Z</time></trkpt><trkpt lat="43.80270766118494" lon="11.913508404988502"><ele>1142.5</ele><time>2026-04-13T14:48:10Z</time></trkpt><trkpt lat="43.80282400906755" lon="11.913565091817597"><ele>1149.0</ele><time>2026-04-13T14:48:11Z</time></trkpt><trkpt lat="43.80294123164561" lon="11.913610728333932"><ele>1155.5</ele><time>2026-04-13T14:48:12Z</time></trkpt><trkpt lat="43.80305735225749" lon="11.913655800927271"><ele>1162.0</ele><time>2026-04-13T14:48:13Z</time></trkpt><trkpt lat="43.803164349905806" lon="11.913724529531796"><ele>1162.0</ele><time>2026-04-13T14:48:14Z</time></trkpt><trkpt lat="43.803254901614494" lon="11.913827505919832"><ele>1162.0</ele><time>2026-04-13T14:48:15Z</time></trkpt><trkpt lat="43.80332253275469" lon="11.913960043502763"><ele>1162.0</ele><time>2026-04-13T14:48:16Z</time></trkpt><trkpt lat="43.80335847164266" lon="11.914110367726405"><ele>1162.0</ele><time>2026-04-13T14:48:17Z</time></trkpt><trkpt lat="43.80336499477084" lon="11.914266635201606"><ele>1158.75</ele><time>2026-04-13T14:48:18Z</time></trkpt><trkpt lat="43.803351555782314" lon="11.91444640935604"><ele>1155.5</ele><time>2026-04-13T14:48:19Z</time></trkpt><trkpt lat="43.80333655144739" lon="11.91463009495482"><ele>1152.25</ele><time>2026-04-13T14:48:20Z</time></trkpt><trkpt lat="43.80332831742973" lon="11.914816181134618"><ele>1149.0</ele><time>2026-04-13T14:48:21Z</time></trkpt><trkpt lat="43.80332330092422" lon="11.914989572064595"><ele>1148.75</ele><time>2026-04-13T14:48:22Z</time></trkpt><trkpt lat="43.80330646447711" lon="11.915163396281795"><ele>1148.5</ele><time>2026-04-13T14:48:23Z</time></trkpt><trkpt lat="43.803258266466926" lon="11.915322336846028"><ele>1148.25</ele><time>2026-04-13T14:48:24Z</time></trkpt><trkpt lat="43.80318761749893" lon="11.915453427529384"><ele>1148.0</ele><time>2026-04-13T14:48:25Z</time></trkpt><trkpt lat="43.803129720673674" lon="11.915580658498774"><ele>1148.0</ele><time>2026-04-13T14:48:26Z</time></trkpt><trkpt lat="43.80309723384153" lon="11.915731014200688"><ele>1148.0</ele><time>2026-04-13T14:48:27Z</time></trkpt><trkpt lat="43.803089272229734" lon="11.915905206566746"><ele>1148.0</ele><time>2026-04-13T14:48:28Z</time></trkpt><trkpt lat="43.803098105256055" lon="11.91608100838857"><ele>1148.0</ele><time>2026-04-13T14:48:29Z</time></trkpt><trkpt lat="43.80310645133457" lon="11.916251708922989"><ele>1143.0</ele><time>2026-04-13T14:48:30Z</time></trkpt><trkpt lat="43.80312334924978" lon="11.916420738363714"><ele>1138.0</ele><time>2026-04-13T14:48:31Z</time></trkpt><trkpt lat="43.803153700878084" lon="11.916557191771025"><ele>1133.0</ele><time>2026-04-13T14:48:32Z</time></trkpt><trkpt lat="43.80320034823958" lon="11.916649207293366"><ele>1128.0</ele><time>2026-04-13T14:48:33Z</time></trkpt><trkpt lat="43.80325855606899" lon="11.916722766860161"><ele>1123.0</ele><time>2026-04-13T14:48:34Z</time></trkpt><trkpt lat="43.803327649170356" lon="11.916745892958232"><ele>1123.0</ele><time>2026-04-13T14:48:35Z</time></trkpt><trkpt lat="43.80341357667372" lon="11.916714616509948"><ele>1123.0</ele><time>2026-04-13T14:48:36Z</time></trkpt><trkpt lat="43.80349383724106" lon="11.916633221797872"><ele>1123.0</ele><time>2026-04-13T14:48:37Z</time></trkpt><trkpt lat="43.80357054135191" lon="11.91653227042367"><ele>1123.0</ele><time>2026-04-13T14:48:38Z</time></trkpt><trkpt lat="43.80365816718821" lon="11.916404822596883"><ele>1123.0</ele><time>2026-04-13T14:48:39Z</time></trkpt><trkpt lat="43.80374747880795" lon="11.916298077378492"><ele>1117.0</ele><time>2026-04-13T14:48:40Z</time></trkpt><trkpt lat="43.803846751449754" lon="11.916201495464462"><ele>1111.0</ele><time>2026-04-13T14:48:41Z</time></trkpt><trkpt lat="43.80395643074389" lon="11.916112926346173"><ele>1105.0</ele><time>2026-04-13T14:48:42Z</time></trkpt><trkpt lat="43.80406489568236" lon="11.916028224586965"><ele>1099.0</ele><time>2026-04-13T14:48:43Z</time></trkpt><trkpt lat="43.80417233477215" lon="11.915946835141796"><ele>1105.25</ele><time>2026-04-13T14:48:44Z</time></trkpt><trkpt lat="43.804270097618875" lon="11.915852898164212"><ele>1111.5</ele><time>2026-04-13T14:48:45Z</time></trkpt><trkpt lat="43.804361522056304" lon="11.915745660965928"><ele>1117.75</ele><time>2026-04-13T14:48:46Z</time></trkpt><trkpt lat="43.804444875067524" lon="11.915630280891975"><ele>1124.0</ele><time>2026-04-13T14:48:47Z</time></trkpt><trkpt lat="43.80453647863839" lon="11.915513330621351"><ele>1124.0</ele><time>2026-04-13T14:48:48Z</time></trkpt><trkpt lat="43.80463665215832" lon="11.91541875902034"><ele>1124.0</ele><time>2026-04-13T14:48:49Z</time></trkpt><trkpt lat="43.80475106740585" lon="11.915369574985718"><ele>1124.0</ele><time>2026-04-13T14:48:50Z</time></trkpt><trkpt lat="43.80487295998658" lon="11.91535646569573"><ele>1124.0</ele><time>2026-04-13T14:48:51Z</time></trkpt><trkpt lat="43.80500282653704" lon="11.915367505267845"><ele>1124.0</ele><time>2026-04-13T14:48:52Z</time></trkpt><trkpt lat="43.80512548867846" lon="11.91538348637378"><ele>1124.0</ele><time>2026-04-13T14:48:53Z</time></trkpt><trkpt lat="43.805254732396484" lon="11.91541050595882"><ele>1124.0</ele><time>2026-04-13T14:48:54Z</time></trkpt><trkpt lat="43.80538050665547" lon="11.915455199093302"><ele>1124.0</ele><time>2026-04-13T14:48:55Z</time></trkpt><trkpt lat="43.80549808239762" lon="11.915522785273161"><ele>1122.5</ele><time>2026-04-13T14:48:56Z</time></trkpt><trkpt lat="43.80559215077677" lon="11.915617315885884"><ele>1121.0</ele><time>2026-04-13T14:48:57Z</time></trkpt><trkpt lat="43.8056428234625" lon="11.915758136611181"><ele>1119.5</ele><time>2026-04-13T14:48:58Z</time></trkpt><trkpt lat="43.80569797571687" lon="11.915909556136485"><ele>1118.0</ele><time>2026-04-13T14:48:59Z</time></trkpt><trkpt lat="43.80573043315572" lon="11.916079813429004"><ele>1118.0</ele><time>2026-04-13T14:49:00Z</time></trkpt><trkpt lat="43.805767874474746" lon="11.916234359429723"><ele>1118.0</ele><time>2026-04-13T14:49:01Z</time></trkpt><trkpt lat="43.80581713186396" lon="11.916389497182518"><ele>1118.0</ele><time>2026-04-13T14:49:02Z</time></trkpt><trkpt lat="43.805863476686525" lon="11.91654323206193"><ele>1118.0</ele><time>2026-04-13T14:49:03Z</time></trkpt><trkpt lat="43.8059120715148" lon="11.916674228155495"><ele>1111.6</ele><time>2026-04-13T14:49:04Z</time></trkpt><trkpt lat="43.80597099341904" lon="11.916765825017546"><ele>1105.1999999999998</ele><time>2026-04-13T14:49:05Z</time></trkpt><trkpt lat="43.80604025136774" lon="11.916831010677692"><ele>1098.8</ele><time>2026-04-13T14:49:06Z</time></trkpt><trkpt lat="43.806130727191054" lon="11.91685116283491"><ele>1092.3999999999999</ele><time>2026-04-13T14:49:07Z</time></trkpt><trkpt lat="43.80622346393276" lon="11.916831894668569"><ele>1086.0</ele><time>2026-04-13T14:49:08Z</time></trkpt><trkpt lat="43.806324197170966" lon="11.916780855352995"><ele>1081.0</ele><time>2026-04-13T14:49:09Z</time></trkpt><trkpt lat="43.806412581486875" lon="11.916755473254549"><ele>1076.0</ele><time>2026-04-13T14:49:10Z</time></trkpt><trkpt lat="43.806490949884164" lon="11.916686838207426"><ele>1071.0</ele><time>2026-04-13T14:49:11Z</time></trkpt><trkpt lat="43.80654803386039" lon="11.916582760037311"><ele>1066.0</ele><time>2026-04-13T14:49:12Z</time></trkpt><trkpt lat="43.80659549316211" lon="11.916466097111423"><ele>1061.0</ele><time>2026-04-13T14:49:13Z</time></trkpt><trkpt lat="43.80665472831056" lon="11.916352282304281"><ele>1070.2</ele><time>2026-04-13T14:49:14Z</time></trkpt><trkpt lat="43.806734744589384" lon="11.91626047197027"><ele>1079.3999999999999</ele><time>2026-04-13T14:49:15Z</time></trkpt><trkpt lat="43.806830379737704" lon="11.916195523463042"><ele>1088.6</ele><time>2026-04-13T14:49:16Z</time></trkpt><trkpt lat="43.80693509203093" lon="11.916161429045683"><ele>1097.8</ele><time>2026-04-13T14:49:17Z</time></trkpt><trkpt lat="43.80704264897" lon="11.91617093871133"><ele>1107.0</ele><time>2026-04-13T14:49:18Z</time></trkpt><trkpt lat="43.80714554286093" lon="11.916221403591987"><ele>1107.0</ele><time>2026-04-13T14:49:19Z</time></trkpt><trkpt lat="43.807244252176666" lon="11.916282064259336"><ele>1107.0</ele><time>2026-04-13T14:49:20Z</time></trkpt><trkpt lat="43.80734455385968" lon="11.916343726542415"><ele>1107.0</ele><time>2026-04-13T14:49:21Z</time></trkpt><trkpt lat="43.80745461735" lon="11.916384060863342"><ele>1107.0</ele><time>2026-04-13T14:49:22Z</time></trkpt><trkpt lat="43.80757664809488" lon="11.916390901291452"><ele>1111.0</ele><time>2026-04-13T14:49:23Z</time></trkpt><trkpt lat="43.80769779389716" lon="11.916370897458325"><ele>1115.0</ele><time>2026-04-13T14:49:24Z</time></trkpt><trkpt lat="43.80781645780775" lon="11.91634635463019"><ele>1119.0</ele><time>2026-04-13T14:49:25Z</time></trkpt><trkpt lat="43.80794021129276" lon="11.91634389252832"><ele>1123.0</ele><time>2026-04-13T14:49:26Z</time></trkpt><trkpt lat="43.808060189380235" lon="11.91638840670038"><ele>1123.0</ele><time>2026-04-13T14:49:27Z</time></trkpt><trkpt lat="43.80815765300226" lon="11.91648711382153"><ele>1123.0</ele><time>2026-04-13T14:49:28Z</time></trkpt><trkpt lat="43.808233718497576" lon="11.916623175382231"><ele>1123.0</ele><time>2026-04-13T14:49:29Z</time></trkpt><trkpt lat="43.808285472892855" lon="11.916791621061133"><ele>1123.0</ele><time>2026-04-13T14:49:30Z</time></trkpt><trkpt lat="43.80834755400265" lon="11.916913069386831"><ele>1122.4</ele><time>2026-04-13T14:49:31Z</time></trkpt><trkpt lat="43.80844275004292" lon="11.916999106636625"><ele>1121.8</ele><time>2026-04-13T14:49:32Z</time></trkpt><trkpt lat="43.80855305127047" lon="11.917056121085693"><ele>1121.2</ele><time>2026-04-13T14:49:33Z</time></trkpt><trkpt lat="43.808661548348944" lon="11.917102934830805"><ele>1120.6</ele><time>2026-04-13T14:49:34Z</time></trkpt><trkpt lat="43.80874853000524" lon="11.91718064240573"><ele>1120.0</ele><time>2026-04-13T14:49:35Z</time></trkpt><trkpt lat="43.808796768279635" lon="11.917300911300996"><ele>1120.0</ele><time>2026-04-13T14:49:36Z</time></trkpt><trkpt lat="43.8088094957734" lon="11.917431457868725"><ele>1120.0</ele><time>2026-04-13T14:49:37Z</time></trkpt><trkpt lat="43.808804197450016" lon="11.917577519993614"><ele>1120.0</ele><time>2026-04-13T14:49:38Z</time></trkpt><trkpt lat="43.8087822141079" lon="11.917744578902697"><ele>1120.0</ele><time>2026-04-13T14:49:39Z</time></trkpt><trkpt lat="43.80874982303836" lon="11.917919114186219"><ele>1119.0</ele><time>2026-04-13T14:49:40Z</time></trkpt><trkpt lat="43.808712250932665" lon="11.918091904287834"><ele>1118.0</ele><time>2026-04-13T14:49:41Z</time></trkpt><trkpt lat="43.80868019365078" lon="11.918263939219809"><ele>1117.0</ele><time>2026-04-13T14:49:42Z</time></trkpt><trkpt lat="43.80866912837999" lon="11.918460262675774"><ele>1116.0</ele><time>2026-04-13T14:49:43Z</time></trkpt><trkpt lat="43.80867419272412" lon="11.918662875941727"><ele>1114.3333333333333</ele><time>2026-04-13T14:49:44Z</time></trkpt><trkpt lat="43.80868391250941" lon="11.918872584974507"><ele>1112.6666666666665</ele><time>2026-04-13T14:49:45Z</time></trkpt><trkpt lat="43.80869741541441" lon="11.91908212502755"><ele>1111.0</ele><time>2026-04-13T14:49:46Z</time></trkpt><trkpt lat="43.8087115937219" lon="11.919291730314395"><ele>1105.0</ele><time>2026-04-13T14:49:47Z</time></trkpt><trkpt lat="43.80872049594373" lon="11.919501536021258"><ele>1099.0</ele><time>2026-04-13T14:49:48Z</time></trkpt><trkpt lat="43.808725996517246" lon="11.919713819009624"><ele>1093.0</ele><time>2026-04-13T14:49:49Z</time></trkpt><trkpt lat="43.808725444067875" lon="11.919923462813838"><ele>1085.0</ele><time>2026-04-13T14:49:50Z</time></trkpt><trkpt lat="43.808727714024506" lon="11.920126891540065"><ele>1077.0</ele><time>2026-04-13T14:49:51Z</time></trkpt><trkpt lat="43.80873779130012" lon="11.92029423277053"><ele>1069.0</ele><time>2026-04-13T14:49:52Z</time></trkpt><trkpt lat="43.808754511808495" lon="11.920445762387523"><ele>1061.0</ele><time>2026-04-13T14:49:53Z</time></trkpt><trkpt lat="43.808795988356195" lon="11.920571026118276"><ele>1061.0</ele><time>2026-04-13T14:49:54Z</time></trkpt><trkpt lat="43.80886439535786" lon="11.920658407824048"><ele>1061.0</ele><time>2026-04-13T14:49:55Z</time></trkpt><trkpt lat="43.808956374639635" lon="11.920696161251328"><ele>1061.0</ele><time>2026-04-13T14:49:56Z</time></trkpt><trkpt lat="43.809066619740086" lon="11.920679964500476"><ele>1061.0</ele><time>2026-04-13T14:49:57Z</time></trkpt><trkpt lat="43.80917831982603" lon="11.920616131894528"><ele>1061.0</ele><time>2026-04-13T14:49:58Z</time></trkpt><trkpt lat="43.80930193403461" lon="11.920562262388074"><ele>1055.8</ele><time>2026-04-13T14:49:59Z</time></trkpt><trkpt lat="43.80942207496211" lon="11.920497587852676"><ele>1050.6</ele><time>2026-04-13T14:50:00Z</time></trkpt><trkpt lat="43.80952237318019" lon="11.920428803972007"><ele>1045.4</ele><time>2026-04-13T14:50:01Z</time></trkpt><trkpt lat="43.80960603692734" lon="11.920388593215616"><ele>1040.2</ele><time>2026-04-13T14:50:02Z</time></trkpt><trkpt lat="43.809675666277535" lon="11.920354437305843"><ele>1035.0</ele><time>2026-04-13T14:50:03Z</time></trkpt><trkpt lat="43.80975920972254" lon="11.920323336859855"><ele>1035.0</ele><time>2026-04-13T14:50:05Z</time></trkpt><trkpt lat="43.80983413795442" lon="11.920261267932979"><ele>1035.0</ele><time>2026-04-13T14:51:07Z</time></trkpt><trkpt lat="43.809909439248244" lon="11.920179632203551"><ele>1035.0</ele><time>2026-04-13T14:51:09Z</time></trkpt><trkpt lat="43.80995641386851" lon="11.920048941487389"><ele>1035.0</ele><time>2026-04-13T14:51:11Z</time></trkpt><trkpt lat="43.80995064571164" lon="11.91994919060603"><ele>1035.0</ele><time>2026-04-13T14:51:12Z</time></trkpt><trkpt lat="43.809930635514625" lon="11.919832674537842"><ele>1035.0</ele><time>2026-04-13T14:51:13Z</time></trkpt><trkpt lat="43.80989508646189" lon="11.9197095415969"><ele>1039.6</ele><time>2026-04-13T14:51:14Z</time></trkpt><trkpt lat="43.80985320418352" lon="11.91958765815047"><ele>1044.2</ele><time>2026-04-13T14:51:15Z</time></trkpt><trkpt lat="43.80981734681822" lon="11.919464086984226"><ele>1048.8</ele><time>2026-04-13T14:51:16Z</time></trkpt><trkpt lat="43.809804017281714" lon="11.919342718671174"><ele>1053.4</ele><time>2026-04-13T14:51:17Z</time></trkpt><trkpt lat="43.809842270427055" lon="11.919224564129683"><ele>1058.0</ele><time>2026-04-13T14:51:18Z</time></trkpt><trkpt lat="43.80992517430916" lon="11.91914731822496"><ele>1060.0</ele><time>2026-04-13T14:51:19Z</time></trkpt><trkpt lat="43.8099867626945" lon="11.91903205445848"><ele>1062.0</ele><time>2026-04-13T14:51:20Z</time></trkpt><trkpt lat="43.810047137074044" lon="11.918901318770342"><ele>1064.0</ele><time>2026-04-13T14:51:21Z</time></trkpt><trkpt lat="43.81008830896059" lon="11.918757967879614"><ele>1066.0</ele><time>2026-04-13T14:51:22Z</time></trkpt><trkpt lat="43.810143829174656" lon="11.91862638699981"><ele>1068.0</ele><time>2026-04-13T14:51:23Z</time></trkpt><trkpt lat="43.81021299718836" lon="11.918514873180195"><ele>1059.5</ele><time>2026-04-13T14:51:24Z</time></trkpt><trkpt lat="43.810294641884916" lon="11.918456524889795"><ele>1051.0</ele><time>2026-04-13T14:51:25Z</time></trkpt><trkpt lat="43.810350119350254" lon="11.918386868443395"><ele>1042.5</ele><time>2026-04-13T14:51:26Z</time></trkpt><trkpt lat="43.81038177156793" lon="11.918281988687701"><ele>1034.0</ele><time>2026-04-13T14:51:27Z</time></trkpt><trkpt lat="43.81037783020882" lon="11.91815146768783"><ele>1025.5</ele><time>2026-04-13T14:51:28Z</time></trkpt><trkpt lat="43.810343207797935" lon="11.918038970458603"><ele>1017.0</ele><time>2026-04-13T14:51:29Z</time></trkpt><trkpt lat="43.81029823777591" lon="11.91793210410614"><ele>1017.0</ele><time>2026-04-13T14:51:30Z</time></trkpt><trkpt lat="43.810262582384766" lon="11.917799360418526"><ele>1017.0</ele><time>2026-04-13T14:51:31Z</time></trkpt><trkpt lat="43.81027578272489" lon="11.917648567491815"><ele>1017.0</ele><time>2026-04-13T14:51:32Z</time></trkpt><trkpt lat="43.810314571490295" lon="11.917527302566995"><ele>1017.0</ele><time>2026-04-13T14:51:33Z</time></trkpt><trkpt lat="43.81035354637649" lon="11.917395053233493"><ele>1017.0</ele><time>2026-04-13T14:51:34Z</time></trkpt><trkpt lat="43.8104323412786" lon="11.9172853099369"><ele>1019.8</ele><time>2026-04-13T14:51:35Z</time></trkpt><trkpt lat="43.810554249111334" lon="11.91722903467649"><ele>1022.6</ele><time>2026-04-13T14:51:36Z</time></trkpt><trkpt lat="43.81065811940335" lon="11.917192208970032"><ele>1025.3999999999999</ele><time>2026-04-13T14:51:37Z</time></trkpt><trkpt lat="43.81075513269101" lon="11.91713539790969"><ele>1028.2</ele><time>2026-04-13T14:51:38Z</time></trkpt><trkpt lat="43.81084029921785" lon="11.917112124174965"><ele>1031.0</ele><time>2026-04-13T14:51:39Z</time></trkpt><trkpt lat="43.81091954317315" lon="11.917049933637726"><ele>1031.0</ele><time>2026-04-13T14:51:40Z</time></trkpt><trkpt lat="43.81097366919601" lon="11.91695880433495"><ele>1031.0</ele><time>2026-04-13T14:51:41Z</time></trkpt><trkpt lat="43.81098862327403" lon="11.916830912274232"><ele>1031.0</ele><time>2026-04-13T14:51:42Z</time></trkpt><trkpt lat="43.81098157927983" lon="11.916700138707844"><ele>1031.0</ele><time>2026-04-13T14:51:43Z</time></trkpt><trkpt lat="43.81098806198723" lon="11.91657087411666"><ele>1031.0</ele><time>2026-04-13T14:51:44Z</time></trkpt><trkpt lat="43.81103797809266" lon="11.91645732782852"><ele>1028.0</ele><time>2026-04-13T14:51:45Z</time></trkpt><trkpt lat="43.81111654637163" lon="11.916368762890672"><ele>1025.0</ele><time>2026-04-13T14:51:46Z</time></trkpt><trkpt lat="43.811226958589614" lon="11.916297876330201"><ele>1022.0</ele><time>2026-04-13T14:51:47Z</time></trkpt><trkpt lat="43.811350749085115" lon="11.916265580760232"><ele>1019.0</ele><time>2026-04-13T14:51:48Z</time></trkpt><trkpt lat="43.811458505822074" lon="11.916270886342145"><ele>1019.0</ele><time>2026-04-13T14:51:49Z</time></trkpt><trkpt lat="43.81156918635896" lon="11.91625964914288"><ele>1019.0000000000001</ele><time>2026-04-13T14:51:50Z</time></trkpt><trkpt lat="43.81167337732571" lon="11.916196775701032"><ele>1019.0000000000001</ele><time>2026-04-13T14:51:51Z</time></trkpt><trkpt lat="43.81175565561277" lon="11.916105231287167"><ele>1019.0</ele><time>2026-04-13T14:51:52Z</time></trkpt><trkpt lat="43.81185635106277" lon="11.916041601799634"><ele>1019.0</ele><time>2026-04-13T14:51:53Z</time></trkpt><trkpt lat="43.81197053611517" lon="11.91604160503594"><ele>1016.6</ele><time>2026-04-13T14:51:54Z</time></trkpt><trkpt lat="43.812075860490545" lon="11.916088039566079"><ele>1014.2</ele><time>2026-04-13T14:51:55Z</time></trkpt><trkpt lat="43.8121834079528" lon="11.916143269975377"><ele>1011.8000000000001</ele><time>2026-04-13T14:51:56Z</time></trkpt><trkpt lat="43.812285450815175" lon="11.916198620613716"><ele>1009.4000000000001</ele><time>2026-04-13T14:51:57Z</time></trkpt><trkpt lat="43.81238307319503" lon="11.916229964254322"><ele>1007.0</ele><time>2026-04-13T14:51:58Z</time></trkpt><trkpt lat="43.812476655408645" lon="11.91622387077615"><ele>1007.0</ele><time>2026-04-13T14:51:59Z</time></trkpt><trkpt lat="43.812556261670785" lon="11.916174327381645"><ele>1007.0</ele><time>2026-04-13T14:52:00Z</time></trkpt><trkpt lat="43.81263367747701" lon="11.916075137283434"><ele>1007.0</ele><time>2026-04-13T14:52:01Z</time></trkpt><trkpt lat="43.81269628980141" lon="11.915957697992726"><ele>1007.0</ele><time>2026-04-13T14:52:02Z</time></trkpt><trkpt lat="43.81276813332185" lon="11.9158559390068"><ele>1007.0</ele><time>2026-04-13T14:52:03Z</time></trkpt><trkpt lat="43.81286745284043" lon="11.915775659347917"><ele>1011.5</ele><time>2026-04-13T14:52:04Z</time></trkpt><trkpt lat="43.812984119896285" lon="11.915734511986303"><ele>1016.0</ele><time>2026-04-13T14:52:05Z</time></trkpt><trkpt lat="43.81311329427556" lon="11.91571963908758"><ele>1020.5</ele><time>2026-04-13T14:52:06Z</time></trkpt><trkpt lat="43.813246387590496" lon="11.915724541900792"><ele>1025.0</ele><time>2026-04-13T14:52:07Z</time></trkpt><trkpt lat="43.813375535010024" lon="11.915744840881892"><ele>1023.25</ele><time>2026-04-13T14:52:08Z</time></trkpt><trkpt lat="43.81350360095237" lon="11.915777135390053"><ele>1021.5</ele><time>2026-04-13T14:52:09Z</time></trkpt><trkpt lat="43.81363425424875" lon="11.915802896989112"><ele>1019.75</ele><time>2026-04-13T14:52:10Z</time></trkpt><trkpt lat="43.81376820090951" lon="11.915826029404327"><ele>1018.0</ele><time>2026-04-13T14:52:11Z</time></trkpt><trkpt lat="43.81390137826712" lon="11.91584418124296"><ele>1018.0</ele><time>2026-04-13T14:52:12Z</time></trkpt><trkpt lat="43.81403265754198" lon="11.915871747433073"><ele>1018.0</ele><time>2026-04-13T14:52:13Z</time></trkpt><trkpt lat="43.814153942913876" lon="11.915899258680806"><ele>1018.0</ele><time>2026-04-13T14:52:14Z</time></trkpt><trkpt lat="43.8142584285919" lon="11.915922578664857"><ele>1018.0</ele><time>2026-04-13T14:52:15Z</time></trkpt><trkpt lat="43.8143520291169" lon="11.915921765028315"><ele>1012.8</ele><time>2026-04-13T14:52:16Z</time></trkpt><trkpt lat="43.81442812736443" lon="11.915870116014451"><ele>1007.5999999999999</ele><time>2026-04-13T14:52:17Z</time></trkpt><trkpt lat="43.81449497835372" lon="11.915775617845215"><ele>1002.4000000000001</ele><time>2026-04-13T14:52:18Z</time></trkpt><trkpt lat="43.81453419662753" lon="11.915637714108328"><ele>997.2</ele><time>2026-04-13T14:52:19Z</time></trkpt><trkpt lat="43.814574027473384" lon="11.915496133072802"><ele>992.0</ele><time>2026-04-13T14:52:20Z</time></trkpt><trkpt lat="43.81463725918967" lon="11.91537027881784"><ele>992.0</ele><time>2026-04-13T14:52:21Z</time></trkpt><trkpt lat="43.81472960687282" lon="11.91527286980237"><ele>992.0</ele><time>2026-04-13T14:52:22Z</time></trkpt><trkpt lat="43.81484328709231" lon="11.915193198796443"><ele>992.0</ele><time>2026-04-13T14:52:23Z</time></trkpt><trkpt lat="43.81496187592584" lon="11.915118214096784"><ele>992.0</ele><time>2026-04-13T14:52:24Z</time></trkpt><trkpt lat="43.81508991022813" lon="11.915050824202565"><ele>994.0</ele><time>2026-04-13T14:52:25Z</time></trkpt><trkpt lat="43.81522586326162" lon="11.914994574500904"><ele>996.0</ele><time>2026-04-13T14:52:26Z</time></trkpt><trkpt lat="43.81536752375367" lon="11.914949319477566"><ele>998.0</ele><time>2026-04-13T14:52:27Z</time></trkpt><trkpt lat="43.815504534608834" lon="11.91492243638892"><ele>1000.0</ele><time>2026-04-13T14:52:28Z</time></trkpt><trkpt lat="43.81564046395257" lon="11.914897210713395"><ele>999.9999999999999</ele><time>2026-04-13T14:52:29Z</time></trkpt><trkpt lat="43.81575775173101" lon="11.914868359621723"><ele>1000.0</ele><time>2026-04-13T14:52:30Z</time></trkpt><trkpt lat="43.81584990506396" lon="11.91483568620254"><ele>1000.0</ele><time>2026-04-13T14:52:31Z</time></trkpt><trkpt lat="43.81592855348885" lon="11.914813928524495"><ele>1000.0</ele><time>2026-04-13T14:52:32Z</time></trkpt><trkpt lat="43.81599647600618" lon="11.914816905117627"><ele>999.9999999999999</ele><time>2026-04-13T14:52:33Z</time></trkpt><trkpt lat="43.816053022386555" lon="11.91486204555435"><ele>1000.0</ele><time>2026-04-13T14:52:34Z</time></trkpt><trkpt lat="43.816070643230056" lon="11.914947184585266"><ele>997.8</ele><time>2026-04-13T14:52:35Z</time></trkpt><trkpt lat="43.81604396445298" lon="11.915033985315953"><ele>995.6</ele><time>2026-04-13T14:52:36Z</time></trkpt><trkpt lat="43.81598462993707" lon="11.91509133603598"><ele>993.4000000000001</ele><time>2026-04-13T14:52:37Z</time></trkpt><trkpt lat="43.81589447470586" lon="11.915115334241685"><ele>991.2</ele><time>2026-04-13T14:52:38Z</time></trkpt><trkpt lat="43.815791557330286" lon="11.915129245331181"><ele>989.0</ele><time>2026-04-13T14:52:39Z</time></trkpt><trkpt lat="43.81567827964035" lon="11.915150093515798"><ele>989.0</ele><time>2026-04-13T14:52:40Z</time></trkpt><trkpt lat="43.81555830577882" lon="11.91517658513085"><ele>989.0</ele><time>2026-04-13T14:52:41Z</time></trkpt><trkpt lat="43.81543519442012" lon="11.915220649918735"><ele>989.0</ele><time>2026-04-13T14:52:42Z</time></trkpt><trkpt lat="43.815311189906495" lon="11.915293308169868"><ele>989.0</ele><time>2026-04-13T14:52:43Z</time></trkpt><trkpt lat="43.81519871117505" lon="11.915390226973281"><ele>989.75</ele><time>2026-04-13T14:52:44Z</time></trkpt><trkpt lat="43.81509747515357" lon="11.915508904177331"><ele>990.5</ele><time>2026-04-13T14:52:45Z</time></trkpt><trkpt lat="43.81501308933119" lon="11.915651798017976"><ele>991.25</ele><time>2026-04-13T14:52:46Z</time></trkpt><trkpt lat="43.814946161664906" lon="11.915802448273878"><ele>992.0</ele><time>2026-04-13T14:52:47Z</time></trkpt><trkpt lat="43.81489716535711" lon="11.915966100222825"><ele>987.5</ele><time>2026-04-13T14:52:48Z</time></trkpt><trkpt lat="43.81485605301665" lon="11.91614132863877"><ele>983.0</ele><time>2026-04-13T14:52:49Z</time></trkpt><trkpt lat="43.81479791839152" lon="11.916290376940136"><ele>978.5</ele><time>2026-04-13T14:52:50Z</time></trkpt><trkpt lat="43.81472909368603" lon="11.91642058657587"><ele>974.0</ele><time>2026-04-13T14:52:51Z</time></trkpt><trkpt lat="43.81462282550937" lon="11.91651794496896"><ele>974.0</ele><time>2026-04-13T14:52:52Z</time></trkpt><trkpt lat="43.814515779002924" lon="11.916585585021666"><ele>974.0</ele><time>2026-04-13T14:52:53Z</time></trkpt><trkpt lat="43.81438771152954" lon="11.91662391192599"><ele>974.0</ele><time>2026-04-13T14:52:54Z</time></trkpt><trkpt lat="43.81425545067115" lon="11.916642034879287"><ele>974.0</ele><time>2026-04-13T14:52:55Z</time></trkpt><trkpt lat="43.81412565507179" lon="11.91665574272889"><ele>972.0</ele><time>2026-04-13T14:52:56Z</time></trkpt><trkpt lat="43.81399614301546" lon="11.916679613355814"><ele>970.0</ele><time>2026-04-13T14:52:57Z</time></trkpt><trkpt lat="43.81387487130832" lon="11.916716131533093"><ele>968.0</ele><time>2026-04-13T14:52:58Z</time></trkpt><trkpt lat="43.813771646116386" lon="11.916788996332281"><ele>966.0</ele><time>2026-04-13T14:52:59Z</time></trkpt><trkpt lat="43.81370096761467" lon="11.916897251354031"><ele>966.0</ele><time>2026-04-13T14:53:00Z</time></trkpt><trkpt lat="43.8136672510665" lon="11.917044779443684"><ele>965.9999999999999</ele><time>2026-04-13T14:53:01Z</time></trkpt><trkpt lat="43.81367848091795" lon="11.917183297865638"><ele>965.9999999999999</ele><time>2026-04-13T14:53:02Z</time></trkpt><trkpt lat="43.81373251238679" lon="11.917311006293899"><ele>966.0</ele><time>2026-04-13T14:53:03Z</time></trkpt><trkpt lat="43.813795456880094" lon="11.917439722413503"><ele>966.0</ele><time>2026-04-13T14:53:04Z</time></trkpt><trkpt lat="43.81383885092418" lon="11.917575559016646"><ele>964.4</ele><time>2026-04-13T14:53:05Z</time></trkpt><trkpt lat="43.81384332875426" lon="11.91772222668737"><ele>962.8</ele><time>2026-04-13T14:53:06Z</time></trkpt><trkpt lat="43.8137975740214" lon="11.91783869861483"><ele>961.1999999999999</ele><time>2026-04-13T14:53:07Z</time></trkpt><trkpt lat="43.81371353438803" lon="11.917909558564151"><ele>959.5999999999999</ele><time>2026-04-13T14:53:08Z</time></trkpt><trkpt lat="43.813605478318756" lon="11.917913507492715"><ele>958.0</ele><time>2026-04-13T14:53:09Z</time></trkpt><trkpt lat="43.8134959282926" lon="11.917867251858777"><ele>958.0</ele><time>2026-04-13T14:53:10Z</time></trkpt><trkpt lat="43.81338298845437" lon="11.917802622485356"><ele>958.0</ele><time>2026-04-13T14:53:11Z</time></trkpt><trkpt lat="43.81326478471428" lon="11.917722561194674"><ele>958.0</ele><time>2026-04-13T14:53:12Z</time></trkpt><trkpt lat="43.8131529019851" lon="11.917630845975646"><ele>958.0</ele><time>2026-04-13T14:53:13Z</time></trkpt><trkpt lat="43.8130449160444" lon="11.91755338716783"><ele>961.5</ele><time>2026-04-13T14:53:14Z</time></trkpt><trkpt lat="43.8129306040301" lon="11.917498235408882"><ele>965.0</ele><time>2026-04-13T14:53:15Z</time></trkpt><trkpt lat="43.81280620424184" lon="11.917481727157092"><ele>968.5</ele><time>2026-04-13T14:53:16Z</time></trkpt><trkpt lat="43.81268388094892" lon="11.917499259551322"><ele>972.0</ele><time>2026-04-13T14:53:17Z</time></trkpt><trkpt lat="43.812578131742185" lon="11.917550283507543"><ele>967.0</ele><time>2026-04-13T14:53:18Z</time></trkpt><trkpt lat="43.81249236591343" lon="11.917652543374308"><ele>962.0</ele><time>2026-04-13T14:53:19Z</time></trkpt><trkpt lat="43.81242142027626" lon="11.917801623390488"><ele>957.0</ele><time>2026-04-13T14:53:20Z</time></trkpt><trkpt lat="43.812351200448916" lon="11.91796095890732"><ele>952.0</ele><time>2026-04-13T14:53:21Z</time></trkpt><trkpt lat="43.81226778255675" lon="11.918113677009195"><ele>952.0</ele><time>2026-04-13T14:53:22Z</time></trkpt><trkpt lat="43.81219141359354" lon="11.918284892469428"><ele>952.0</ele><time>2026-04-13T14:53:23Z</time></trkpt><trkpt lat="43.81211692188402" lon="11.918466438969686"><ele>952.0</ele><time>2026-04-13T14:53:24Z</time></trkpt><trkpt lat="43.81202879464873" lon="11.918647954178626"><ele>954.6666666666666</ele><time>2026-04-13T14:53:25Z</time></trkpt><trkpt lat="43.811938271267564" lon="11.918824779414162"><ele>957.3333333333333</ele><time>2026-04-13T14:53:26Z</time></trkpt><trkpt lat="43.811866884285166" lon="11.919014599708493"><ele>960.0</ele><time>2026-04-13T14:53:27Z</time></trkpt><trkpt lat="43.81178959209314" lon="11.919194986624644"><ele>958.5</ele><time>2026-04-13T14:53:28Z</time></trkpt><trkpt lat="43.811709327772334" lon="11.919368553499762"><ele>957.0</ele><time>2026-04-13T14:53:29Z</time></trkpt><trkpt lat="43.81163981072534" lon="11.919524466732462"><ele>955.5</ele><time>2026-04-13T14:53:30Z</time></trkpt><trkpt lat="43.81158639528372" lon="11.919670811891214"><ele>954.0</ele><time>2026-04-13T14:53:31Z</time></trkpt><trkpt lat="43.81155607787484" lon="11.919827706856157"><ele>954.0</ele><time>2026-04-13T14:53:32Z</time></trkpt><trkpt lat="43.81156640387201" lon="11.919985546785998"><ele>954.0</ele><time>2026-04-13T14:53:33Z</time></trkpt><trkpt lat="43.81160964880556" lon="11.920143415769083"><ele>954.0</ele><time>2026-04-13T14:53:34Z</time></trkpt><trkpt lat="43.81167585090668" lon="11.920284206691251"><ele>954.0</ele><time>2026-04-13T14:53:35Z</time></trkpt><trkpt lat="43.81175165765546" lon="11.920418774021446"><ele>946.5</ele><time>2026-04-13T14:53:36Z</time></trkpt><trkpt lat="43.811833735783075" lon="11.920545250239744"><ele>939.0</ele><time>2026-04-13T14:53:37Z</time></trkpt><trkpt lat="43.81191179575516" lon="11.92067312789712"><ele>931.5</ele><time>2026-04-13T14:53:38Z</time></trkpt><trkpt lat="43.81198815724952" lon="11.920814281633266"><ele>924.0</ele><time>2026-04-13T14:53:39Z</time></trkpt><trkpt lat="43.812049103655795" lon="11.920948393699128"><ele>923.5</ele><time>2026-04-13T14:53:40Z</time></trkpt><trkpt lat="43.81208136806312" lon="11.921091438009837"><ele>923.0</ele><time>2026-04-13T14:53:41Z</time></trkpt><trkpt lat="43.81208280065598" lon="11.921243248071253"><ele>922.5</ele><time>2026-04-13T14:53:42Z</time></trkpt><trkpt lat="43.81205850134503" lon="11.921400005155192"><ele>922.0</ele><time>2026-04-13T14:53:43Z</time></trkpt><trkpt lat="43.81204130835529" lon="11.921562801294861"><ele>919.25</ele><time>2026-04-13T14:53:44Z</time></trkpt><trkpt lat="43.81205003583979" lon="11.921733112478046"><ele>916.5</ele><time>2026-04-13T14:53:45Z</time></trkpt><trkpt lat="43.81206860189875" lon="11.921899395006436"><ele>913.75</ele><time>2026-04-13T14:53:46Z</time></trkpt><trkpt lat="43.81210265979043" lon="11.922063281919044"><ele>911.0</ele><time>2026-04-13T14:53:47Z</time></trkpt><trkpt lat="43.81213070755746" lon="11.922233269934628"><ele>911.0</ele><time>2026-04-13T14:53:48Z</time></trkpt><trkpt lat="43.81213299792744" lon="11.92239875797728"><ele>910.9999999999999</ele><time>2026-04-13T14:53:49Z</time></trkpt><trkpt lat="43.81210950059157" lon="11.9225392315869"><ele>910.9999999999999</ele><time>2026-04-13T14:53:50Z</time></trkpt><trkpt lat="43.81206225283482" lon="11.92266744780405"><ele>911.0</ele><time>2026-04-13T14:53:51Z</time></trkpt><trkpt lat="43.81199161494675" lon="11.92277947611562"><ele>911.0</ele><time>2026-04-13T14:53:52Z</time></trkpt><trkpt lat="43.81189377136801" lon="11.92286075096285"><ele>914.25</ele><time>2026-04-13T14:53:53Z</time></trkpt><trkpt lat="43.81178414810377" lon="11.92296359816431"><ele>917.5</ele><time>2026-04-13T14:53:54Z</time></trkpt><trkpt lat="43.81166387815524" lon="11.923057023573133"><ele>920.75</ele><time>2026-04-13T14:53:55Z</time></trkpt><trkpt lat="43.81154832797762" lon="11.92315051166596"><ele>924.0</ele><time>2026-04-13T14:53:56Z</time></trkpt><trkpt lat="43.81143319678011" lon="11.923235041122913"><ele>924.0</ele><time>2026-04-13T14:53:57Z</time></trkpt><trkpt lat="43.81132148670899" lon="11.923323251720113"><ele>924.0</ele><time>2026-04-13T14:53:58Z</time></trkpt><trkpt lat="43.81120647148227" lon="11.92341414106654"><ele>924.0</ele><time>2026-04-13T14:53:59Z</time></trkpt><trkpt lat="43.81111330710706" lon="11.9235037146049"><ele>924.0</ele><time>2026-04-13T14:54:00Z</time></trkpt><trkpt lat="43.81103100549905" lon="11.923568342584009"><ele>922.8000000000001</ele><time>2026-04-13T14:54:01Z</time></trkpt><trkpt lat="43.8109571525465" lon="11.92365693138961"><ele>921.6000000000001</ele><time>2026-04-13T14:54:02Z</time></trkpt><trkpt lat="43.81091225956258" lon="11.923774167172496"><ele>920.4</ele><time>2026-04-13T14:54:03Z</time></trkpt><trkpt lat="43.81090013333892" lon="11.923905671042343"><ele>919.2</ele><time>2026-04-13T14:54:04Z</time></trkpt><trkpt lat="43.81093699761733" lon="11.924051599428434"><ele>918.0</ele><time>2026-04-13T14:54:05Z</time></trkpt><trkpt lat="43.8109981512333" lon="11.924197217762556"><ele>915.75</ele><time>2026-04-13T14:54:06Z</time></trkpt><trkpt lat="43.81106338976197" lon="11.924331858362473"><ele>913.5</ele><time>2026-04-13T14:54:07Z</time></trkpt><trkpt lat="43.81113269531756" lon="11.924465561918637"><ele>911.25</ele><time>2026-04-13T14:54:08Z</time></trkpt><trkpt lat="43.811190284044415" lon="11.924599143608637"><ele>909.0</ele><time>2026-04-13T14:54:09Z</time></trkpt><trkpt lat="43.81123104844502" lon="11.924732908889574"><ele>909.0</ele><time>2026-04-13T14:54:10Z</time></trkpt><trkpt lat="43.81123669311986" lon="11.924865792997826"><ele>909.0</ele><time>2026-04-13T14:54:11Z</time></trkpt><trkpt lat="43.81121093566117" lon="11.92494771750225"><ele>909.0</ele><time>2026-04-13T14:54:12Z</time></trkpt><trkpt lat="43.811148259251695" lon="11.924997895510437"><ele>909.0</ele><time>2026-04-13T14:54:13Z</time></trkpt><trkpt lat="43.81107356494757" lon="11.924986778140264"><ele>909.0</ele><time>2026-04-13T14:54:14Z</time></trkpt><trkpt lat="43.810994494947614" lon="11.924913430329864"><ele>909.0</ele><time>2026-04-13T14:54:15Z</time></trkpt><trkpt lat="43.810916086862406" lon="11.924801404163489"><ele>907.75</ele><time>2026-04-13T14:54:16Z</time></trkpt><trkpt lat="43.81081972352909" lon="11.924680347738114"><ele>906.5</ele><time>2026-04-13T14:54:17Z</time></trkpt><trkpt lat="43.81071987644624" lon="11.924566246063277"><ele>905.25</ele><time>2026-04-13T14:54:18Z</time></trkpt><trkpt lat="43.810624143659716" lon="11.9244596505449"><ele>904.0</ele><time>2026-04-13T14:54:19Z</time></trkpt><trkpt lat="43.81054123525919" lon="11.924341333824707"><ele>904.0</ele><time>2026-04-13T14:54:20Z</time></trkpt><trkpt lat="43.810435718385044" lon="11.924236357587107"><ele>904.0</ele><time>2026-04-13T14:54:21Z</time></trkpt><trkpt lat="43.81031069447823" lon="11.924183455519291"><ele>904.0</ele><time>2026-04-13T14:54:22Z</time></trkpt><trkpt lat="43.810190060177824" lon="11.924106449616371"><ele>904.0</ele><time>2026-04-13T14:54:23Z</time></trkpt><trkpt lat="43.81007141530719" lon="11.924044938039028"><ele>904.0</ele><time>2026-04-13T14:54:24Z</time></trkpt><trkpt lat="43.809953972295475" lon="11.923977953786817"><ele>904.0</ele><time>2026-04-13T14:54:25Z</time></trkpt><trkpt lat="43.80983774094195" lon="11.923911491695335"><ele>904.0</ele><time>2026-04-13T14:54:26Z</time></trkpt><trkpt lat="43.80971985910264" lon="11.923851414854592"><ele>904.0</ele><time>2026-04-13T14:54:27Z</time></trkpt><trkpt lat="43.80960218349318" lon="11.923780151498066"><ele>904.0</ele><time>2026-04-13T14:54:28Z</time></trkpt><trkpt lat="43.80948416705084" lon="11.923720465556375"><ele>904.0</ele><time>2026-04-13T14:54:29Z</time></trkpt><trkpt lat="43.809371638725935" lon="11.923671758586346"><ele>904.0</ele><time>2026-04-13T14:54:30Z</time></trkpt><trkpt lat="43.809255660173626" lon="11.923666582188257"><ele>904.0</ele><time>2026-04-13T14:54:31Z</time></trkpt><trkpt lat="43.80914078347281" lon="11.923716246586682"><ele>901.0</ele><time>2026-04-13T14:54:32Z</time></trkpt><trkpt lat="43.809034251646445" lon="11.92379697863273"><ele>898.0</ele><time>2026-04-13T14:54:33Z</time></trkpt><trkpt lat="43.80892635287742" lon="11.923880005473897"><ele>895.0</ele><time>2026-04-13T14:54:34Z</time></trkpt><trkpt lat="43.808821000433504" lon="11.923958619612533"><ele>892.0</ele><time>2026-04-13T14:54:35Z</time></trkpt><trkpt lat="43.80871365366307" lon="11.924040652979032"><ele>892.0</ele><time>2026-04-13T14:54:36Z</time></trkpt><trkpt lat="43.808620943905154" lon="11.924107463718535"><ele>892.0</ele><time>2026-04-13T14:54:37Z</time></trkpt><trkpt lat="43.80853667009581" lon="11.924164640248298"><ele>892.0</ele><time>2026-04-13T14:54:38Z</time></trkpt><trkpt lat="43.808478957741755" lon="11.92422192764682"><ele>892.0</ele><time>2026-04-13T14:54:39Z</time></trkpt><trkpt lat="43.808466316867765" lon="11.92438394394698"><ele>892.0</ele><time>2026-04-13T14:54:41Z</time></trkpt><trkpt lat="43.80851846497132" lon="11.924439135196165"><ele>892.0</ele><time>2026-04-13T14:54:42Z</time></trkpt><trkpt lat="43.80858587601331" lon="11.924428856234288"><ele>892.0</ele><time>2026-04-13T14:54:43Z</time></trkpt><trkpt lat="43.80866503119938" lon="11.92437269958512"><ele>892.0</ele><time>2026-04-13T14:54:44Z</time></trkpt><trkpt lat="43.808752711007486" lon="11.924304957794813"><ele>892.0</ele><time>2026-04-13T14:54:45Z</time></trkpt><trkpt lat="43.80884290174746" lon="11.924233721280329"><ele>892.0</ele><time>2026-04-13T14:54:46Z</time></trkpt><trkpt lat="43.8089361185578" lon="11.924163138053771"><ele>892.0</ele><time>2026-04-13T14:54:47Z</time></trkpt><trkpt lat="43.8090343054239" lon="11.924108224334667"><ele>892.0</ele><time>2026-04-13T14:54:48Z</time></trkpt><trkpt lat="43.809136946922905" lon="11.924068896985084"><ele>892.0</ele><time>2026-04-13T14:54:49Z</time></trkpt><trkpt lat="43.809244034497425" lon="11.924089910787162"><ele>892.0</ele><time>2026-04-13T14:54:50Z</time></trkpt><trkpt lat="43.80934345850565" lon="11.924146814698824"><ele>892.0</ele><time>2026-04-13T14:54:51Z</time></trkpt><trkpt lat="43.80942439731792" lon="11.924238582341026"><ele>890.75</ele><time>2026-04-13T14:54:52Z</time></trkpt><trkpt lat="43.80948437480736" lon="11.924383969691558"><ele>889.5</ele><time>2026-04-13T14:54:53Z</time></trkpt><trkpt lat="43.80954422896826" lon="11.924538512524682"><ele>888.25</ele><time>2026-04-13T14:54:54Z</time></trkpt><trkpt lat="43.80961385414201" lon="11.924709419073968"><ele>887.0</ele><time>2026-04-13T14:54:55Z</time></trkpt><trkpt lat="43.8096766813376" lon="11.924866867359325"><ele>887.0</ele><time>2026-04-13T14:54:56Z</time></trkpt><trkpt lat="43.80973752125645" lon="11.92502347842877"><ele>887.0</ele><time>2026-04-13T14:54:57Z</time></trkpt><trkpt lat="43.809797372676485" lon="11.925178745048955"><ele>887.0</ele><time>2026-04-13T14:54:58Z</time></trkpt><trkpt lat="43.809851226387906" lon="11.925330290084698"><ele>887.0</ele><time>2026-04-13T14:54:59Z</time></trkpt><trkpt lat="43.80990234161582" lon="11.925472863826926"><ele>887.6</ele><time>2026-04-13T14:55:00Z</time></trkpt><trkpt lat="43.809956061524225" lon="11.925595447723731"><ele>888.2</ele><time>2026-04-13T14:55:01Z</time></trkpt><trkpt lat="43.810016593013" lon="11.925679303113874"><ele>888.8</ele><time>2026-04-13T14:55:02Z</time></trkpt><trkpt lat="43.81009922605563" lon="11.925717254479764"><ele>889.4</ele><time>2026-04-13T14:55:03Z</time></trkpt><trkpt lat="43.81018214133189" lon="11.925693726392465"><ele>890.0</ele><time>2026-04-13T14:55:04Z</time></trkpt><trkpt lat="43.81026538329251" lon="11.925632869349274"><ele>890.0</ele><time>2026-04-13T14:55:05Z</time></trkpt><trkpt lat="43.81033887443833" lon="11.925546290006864"><ele>890.0</ele><time>2026-04-13T14:55:06Z</time></trkpt><trkpt lat="43.81041908461494" lon="11.925472454825456"><ele>890.0</ele><time>2026-04-13T14:55:07Z</time></trkpt><trkpt lat="43.810509991388955" lon="11.925428131038123"><ele>890.0</ele><time>2026-04-13T14:55:08Z</time></trkpt><trkpt lat="43.810596245090814" lon="11.92543014414125"><ele>890.0</ele><time>2026-04-13T14:55:09Z</time></trkpt><trkpt lat="43.81067642209005" lon="11.92547717159679"><ele>890.0000000000001</ele><time>2026-04-13T14:55:10Z</time></trkpt><trkpt lat="43.81072640204511" lon="11.925582038976273"><ele>890.0</ele><time>2026-04-13T14:55:11Z</time></trkpt><trkpt lat="43.810729038655104" lon="11.925721026249946"><ele>890.0</ele><time>2026-04-13T14:55:12Z</time></trkpt><trkpt lat="43.81075193320616" lon="11.925829342655707"><ele>890.0</ele><time>2026-04-13T14:55:13Z</time></trkpt><trkpt lat="43.81075887922082" lon="11.92592295235627"><ele>890.0000000000001</ele><time>2026-04-13T14:55:14Z</time></trkpt><trkpt lat="43.810772953391435" lon="11.926027268893582"><ele>890.0</ele><time>2026-04-13T14:55:16Z</time></trkpt><trkpt lat="43.81081318674499" lon="11.926118020931186"><ele>887.4</ele><time>2026-04-13T14:55:27Z</time></trkpt><trkpt lat="43.81090809821912" lon="11.92624275337639"><ele>884.8</ele><time>2026-04-13T14:55:29Z</time></trkpt><trkpt lat="43.81096724199411" lon="11.926345812345803"><ele>882.2</ele><time>2026-04-13T14:55:30Z</time></trkpt><trkpt lat="43.8110249780652" lon="11.926468873466881"><ele>879.6</ele><time>2026-04-13T14:55:31Z</time></trkpt><trkpt lat="43.81108423710418" lon="11.926582787824021"><ele>877.0</ele><time>2026-04-13T14:55:32Z</time></trkpt><trkpt lat="43.811138060441536" lon="11.926698878203812"><ele>871.6</ele><time>2026-04-13T14:55:33Z</time></trkpt><trkpt lat="43.81118720272638" lon="11.926817049766436"><ele>866.2</ele><time>2026-04-13T14:55:34Z</time></trkpt><trkpt lat="43.81123684977034" lon="11.926921479213815"><ele>860.8</ele><time>2026-04-13T14:55:35Z</time></trkpt><trkpt lat="43.81129885610973" lon="11.926997659869189"><ele>855.4</ele><time>2026-04-13T14:55:36Z</time></trkpt><trkpt lat="43.81138435915033" lon="11.927035691133636"><ele>850.0</ele><time>2026-04-13T14:55:37Z</time></trkpt><trkpt lat="43.811485548262965" lon="11.927032915271994"><ele>850.0</ele><time>2026-04-13T14:55:38Z</time></trkpt><trkpt lat="43.811592785580395" lon="11.927000145785584"><ele>850.0</ele><time>2026-04-13T14:55:39Z</time></trkpt><trkpt lat="43.81169222157439" lon="11.926943826793787"><ele>850.0</ele><time>2026-04-13T14:55:40Z</time></trkpt><trkpt lat="43.81177475288247" lon="11.926840144552513"><ele>850.0</ele><time>2026-04-13T14:55:41Z</time></trkpt><trkpt lat="43.81182585250378" lon="11.926706240801057"><ele>850.0</ele><time>2026-04-13T14:55:42Z</time></trkpt><trkpt lat="43.8118523334655" lon="11.926580209921667"><ele>855.6666666666666</ele><time>2026-04-13T14:55:43Z</time></trkpt><trkpt lat="43.81189913507965" lon="11.926495286055259"><ele>861.3333333333333</ele><time>2026-04-13T14:55:44Z</time></trkpt><trkpt lat="43.81197498366474" lon="11.926453698997982"><ele>867.0</ele><time>2026-04-13T14:55:45Z</time></trkpt><trkpt lat="43.81205063274555" lon="11.926462481117898"><ele>872.6666666666667</ele><time>2026-04-13T14:55:46Z</time></trkpt><trkpt lat="43.812124673278284" lon="11.926524543513231"><ele>878.3333333333334</ele><time>2026-04-13T14:55:47Z</time></trkpt><trkpt lat="43.8121840841574" lon="11.926633022123733"><ele>884.0</ele><time>2026-04-13T14:55:48Z</time></trkpt><trkpt lat="43.81222478145358" lon="11.926774839148509"><ele>884.0</ele><time>2026-04-13T14:55:49Z</time></trkpt><trkpt lat="43.81224902605018" lon="11.926941823936813"><ele>884.0</ele><time>2026-04-13T14:55:50Z</time></trkpt><trkpt lat="43.81225497645677" lon="11.927113501565682"><ele>884.0</ele><time>2026-04-13T14:55:51Z</time></trkpt><trkpt lat="43.81223540400915" lon="11.927274618241459"><ele>884.0</ele><time>2026-04-13T14:55:52Z</time></trkpt><trkpt lat="43.81220272668648" lon="11.927433176786097"><ele>886.75</ele><time>2026-04-13T14:55:53Z</time></trkpt><trkpt lat="43.81215101289961" lon="11.927582570022206"><ele>889.5</ele><time>2026-04-13T14:55:54Z</time></trkpt><trkpt lat="43.812078819921275" lon="11.927716587854754"><ele>892.25</ele><time>2026-04-13T14:55:55Z</time></trkpt><trkpt lat="43.81199916792028" lon="11.927853872510697"><ele>895.0</ele><time>2026-04-13T14:55:56Z</time></trkpt><trkpt lat="43.811935261808436" lon="11.928002943042133"><ele>895.0</ele><time>2026-04-13T14:55:57Z</time></trkpt><trkpt lat="43.8118850601816" lon="11.928164973188053"><ele>895.0</ele><time>2026-04-13T14:55:58Z</time></trkpt><trkpt lat="43.81184002453367" lon="11.928331750602537"><ele>895.0</ele><time>2026-04-13T14:55:59Z</time></trkpt><trkpt lat="43.81177923522342" lon="11.92849195668155"><ele>895.0</ele><time>2026-04-13T14:56:00Z</time></trkpt><trkpt lat="43.81169748939477" lon="11.928629557865003"><ele>889.8</ele><time>2026-04-13T14:56:01Z</time></trkpt><trkpt lat="43.8116193221285" lon="11.928733568446239"><ele>884.6</ele><time>2026-04-13T14:56:02Z</time></trkpt><trkpt lat="43.81157008778427" lon="11.928847688309055"><ele>879.4000000000001</ele><time>2026-04-13T14:56:03Z</time></trkpt><trkpt lat="43.81154662945905" lon="11.928983322954014"><ele>874.2</ele><time>2026-04-13T14:56:04Z</time></trkpt><trkpt lat="43.81159347488257" lon="11.929128423740686"><ele>869.0</ele><time>2026-04-13T14:56:05Z</time></trkpt><trkpt lat="43.8116283961014" lon="11.929266345876854"><ele>869.0</ele><time>2026-04-13T14:56:06Z</time></trkpt><trkpt lat="43.81164114175747" lon="11.929408699093981"><ele>869.0</ele><time>2026-04-13T14:56:07Z</time></trkpt><trkpt lat="43.8116125640668" lon="11.929554587098982"><ele>869.0</ele><time>2026-04-13T14:56:08Z</time></trkpt><trkpt lat="43.811531403190564" lon="11.929674409517878"><ele>869.0</ele><time>2026-04-13T14:56:09Z</time></trkpt><trkpt lat="43.81146792250323" lon="11.929823149844319"><ele>869.0</ele><time>2026-04-13T14:56:10Z</time></trkpt><trkpt lat="43.81138512274654" lon="11.929965446126513"><ele>869.0</ele><time>2026-04-13T14:56:11Z</time></trkpt><trkpt lat="43.81130221983532" lon="11.93010948236508"><ele>869.0</ele><time>2026-04-13T14:56:12Z</time></trkpt><trkpt lat="43.81121363537503" lon="11.930249201995304"><ele>869.0</ele><time>2026-04-13T14:56:13Z</time></trkpt><trkpt lat="43.81111225063593" lon="11.930375867513312"><ele>871.8000000000001</ele><time>2026-04-13T14:56:14Z</time></trkpt><trkpt lat="43.81100939365387" lon="11.93047143061482"><ele>874.6000000000001</ele><time>2026-04-13T14:56:15Z</time></trkpt><trkpt lat="43.810921124883656" lon="11.930555031273416"><ele>877.4</ele><time>2026-04-13T14:56:16Z</time></trkpt><trkpt lat="43.81085062994676" lon="11.930656837648282"><ele>880.2</ele><time>2026-04-13T14:56:17Z</time></trkpt><trkpt lat="43.810808469489054" lon="11.930789222942291"><ele>883.0</ele><time>2026-04-13T14:56:18Z</time></trkpt><trkpt lat="43.81080339969135" lon="11.930944267298367"><ele>871.75</ele><time>2026-04-13T14:56:19Z</time></trkpt><trkpt lat="43.81081338897778" lon="11.931120194587317"><ele>860.5</ele><time>2026-04-13T14:56:20Z</time></trkpt><trkpt lat="43.81082423611037" lon="11.931301943178692"><ele>849.25</ele><time>2026-04-13T14:56:21Z</time></trkpt><trkpt lat="43.810813552451044" lon="11.931482919665529"><ele>838.0</ele><time>2026-04-13T14:56:22Z</time></trkpt><trkpt lat="43.81083407039584" lon="11.931664832060411"><ele>833.75</ele><time>2026-04-13T14:56:23Z</time></trkpt><trkpt lat="43.81084163463077" lon="11.931849449243373"><ele>829.5</ele><time>2026-04-13T14:56:24Z</time></trkpt><trkpt lat="43.81087006422041" lon="11.932029853523598"><ele>825.25</ele><time>2026-04-13T14:56:25Z</time></trkpt><trkpt lat="43.81092892124858" lon="11.9321963115753"><ele>821.0</ele><time>2026-04-13T14:56:26Z</time></trkpt><trkpt lat="43.81100898312882" lon="11.932347982051784"><ele>831.25</ele><time>2026-04-13T14:56:27Z</time></trkpt><trkpt lat="43.8110924626321" lon="11.932474984932215"><ele>841.5</ele><time>2026-04-13T14:56:28Z</time></trkpt><trkpt lat="43.811168265682056" lon="11.932605170539833"><ele>851.75</ele><time>2026-04-13T14:56:29Z</time></trkpt><trkpt lat="43.81122104108365" lon="11.932762649098917"><ele>862.0</ele><time>2026-04-13T14:56:30Z</time></trkpt><trkpt lat="43.811248885885774" lon="11.932936840513133"><ele>862.0</ele><time>2026-04-13T14:56:31Z</time></trkpt><trkpt lat="43.81125754465495" lon="11.933116981262119"><ele>862.0</ele><time>2026-04-13T14:56:32Z</time></trkpt><trkpt lat="43.811244473488024" lon="11.933300138157"><ele>862.0</ele><time>2026-04-13T14:56:33Z</time></trkpt><trkpt lat="43.81120941324281" lon="11.933476859589415"><ele>862.0</ele><time>2026-04-13T14:56:34Z</time></trkpt><trkpt lat="43.81115895918181" lon="11.933645422251358"><ele>859.5</ele><time>2026-04-13T14:56:35Z</time></trkpt><trkpt lat="43.811104400139804" lon="11.933805557068503"><ele>857.0</ele><time>2026-04-13T14:56:36Z</time></trkpt><trkpt lat="43.81104033319311" lon="11.93395430520941"><ele>854.5</ele><time>2026-04-13T14:56:37Z</time></trkpt><trkpt lat="43.81097182746194" lon="11.934091759983918"><ele>852.0</ele><time>2026-04-13T14:56:38Z</time></trkpt><trkpt lat="43.81089340104708" lon="11.934214890972804"><ele>844.0</ele><time>2026-04-13T14:56:39Z</time></trkpt><trkpt lat="43.81080731790701" lon="11.934326495881606"><ele>836.0</ele><time>2026-04-13T14:56:40Z</time></trkpt><trkpt lat="43.810715567774054" lon="11.934428154238336"><ele>828.0</ele><time>2026-04-13T14:56:41Z</time></trkpt><trkpt lat="43.810622924422916" lon="11.934522073591904"><ele>820.0</ele><time>2026-04-13T14:56:42Z</time></trkpt><trkpt lat="43.81053986975349" lon="11.934606773782747"><ele>819.9999999999999</ele><time>2026-04-13T14:56:43Z</time></trkpt><trkpt lat="43.81048100447064" lon="11.934690694409223"><ele>820.0</ele><time>2026-04-13T14:56:44Z</time></trkpt><trkpt lat="43.8104516972627" lon="11.934791585575166"><ele>820.0</ele><time>2026-04-13T14:56:45Z</time></trkpt><trkpt lat="43.810461330286884" lon="11.934898203692896"><ele>820.0</ele><time>2026-04-13T14:56:46Z</time></trkpt><trkpt lat="43.810512685421436" lon="11.934994150139442"><ele>819.9999999999999</ele><time>2026-04-13T14:56:47Z</time></trkpt><trkpt lat="43.81059571253302" lon="11.935088382099158"><ele>820.0</ele><time>2026-04-13T14:56:48Z</time></trkpt><trkpt lat="43.81068183713976" lon="11.935193836641972"><ele>814.5</ele><time>2026-04-13T14:56:49Z</time></trkpt><trkpt lat="43.81077373032952" lon="11.93531476281183"><ele>809.0</ele><time>2026-04-13T14:56:50Z</time></trkpt><trkpt lat="43.81086207225496" lon="11.935436215920731"><ele>803.5</ele><time>2026-04-13T14:56:51Z</time></trkpt><trkpt lat="43.81094736765989" lon="11.93555516352394"><ele>798.0</ele><time>2026-04-13T14:56:52Z</time></trkpt><trkpt lat="43.81102955607612" lon="11.93566665997814"><ele>796.5999999999999</ele><time>2026-04-13T14:56:53Z</time></trkpt><trkpt lat="43.81110597168659" lon="11.935748465651772"><ele>795.1999999999999</ele><time>2026-04-13T14:56:54Z</time></trkpt><trkpt lat="43.811194105223066" lon="11.935785546472959"><ele>793.8</ele><time>2026-04-13T14:56:55Z</time></trkpt><trkpt lat="43.81129392879484" lon="11.935768323842934"><ele>792.4</ele><time>2026-04-13T14:56:56Z</time></trkpt><trkpt lat="43.811385622941" lon="11.935713608844702"><ele>791.0</ele><time>2026-04-13T14:56:57Z</time></trkpt><trkpt lat="43.81147095209406" lon="11.935626044096145"><ele>791.0</ele><time>2026-04-13T14:56:58Z</time></trkpt><trkpt lat="43.81154759254891" lon="11.935515616685288"><ele>791.0</ele><time>2026-04-13T14:56:59Z</time></trkpt><trkpt lat="43.81162078805168" lon="11.935407125477314"><ele>791.0</ele><time>2026-04-13T14:57:00Z</time></trkpt><trkpt lat="43.811695174773256" lon="11.93531078429387"><ele>791.0</ele><time>2026-04-13T14:57:01Z</time></trkpt><trkpt lat="43.81176884920931" lon="11.935245369537775"><ele>791.0</ele><time>2026-04-13T14:57:02Z</time></trkpt><trkpt lat="43.81185515122788" lon="11.935230135594809"><ele>795.4</ele><time>2026-04-13T14:57:03Z</time></trkpt><trkpt lat="43.811945802406285" lon="11.935271472140355"><ele>799.8</ele><time>2026-04-13T14:57:04Z</time></trkpt><trkpt lat="43.81202871014268" lon="11.935355901264035"><ele>804.1999999999999</ele><time>2026-04-13T14:57:05Z</time></trkpt><trkpt lat="43.812109412293154" lon="11.935468957139609"><ele>808.5999999999999</ele><time>2026-04-13T14:57:06Z</time></trkpt><trkpt lat="43.81219220790929" lon="11.935592999107905"><ele>813.0</ele><time>2026-04-13T14:57:07Z</time></trkpt><trkpt lat="43.81227229135236" lon="11.935724094503858"><ele>813.0</ele><time>2026-04-13T14:57:08Z</time></trkpt><trkpt lat="43.81234865740212" lon="11.935858551925335"><ele>813.0</ele><time>2026-04-13T14:57:09Z</time></trkpt><trkpt lat="43.81242091891594" lon="11.936000932187723"><ele>813.0</ele><time>2026-04-13T14:57:10Z</time></trkpt><trkpt lat="43.81247240618126" lon="11.93615380267194"><ele>813.0</ele><time>2026-04-13T14:57:11Z</time></trkpt><trkpt lat="43.81249541243618" lon="11.936322351509162"><ele>806.75</ele><time>2026-04-13T14:57:12Z</time></trkpt><trkpt lat="43.81249400428313" lon="11.936497371429352"><ele>800.5</ele><time>2026-04-13T14:57:13Z</time></trkpt><trkpt lat="43.81247437152581" lon="11.936660350018434"><ele>794.25</ele><time>2026-04-13T14:57:14Z</time></trkpt><trkpt lat="43.81245596589717" lon="11.936810302861469"><ele>788.0</ele><time>2026-04-13T14:57:15Z</time></trkpt><trkpt lat="43.812456740150616" lon="11.936944384980011"><ele>785.4</ele><time>2026-04-13T14:57:16Z</time></trkpt><trkpt lat="43.812487253165166" lon="11.937065846321397"><ele>782.8</ele><time>2026-04-13T14:57:17Z</time></trkpt><trkpt lat="43.81255211698538" lon="11.937157271587559"><ele>780.2</ele><time>2026-04-13T14:57:18Z</time></trkpt><trkpt lat="43.81264170359688" lon="11.937200768039851"><ele>777.6</ele><time>2026-04-13T14:57:19Z</time></trkpt><trkpt lat="43.81274147305778" lon="11.937196136519356"><ele>775.0</ele><time>2026-04-13T14:57:20Z</time></trkpt><trkpt lat="43.81284704680299" lon="11.937165744064286"><ele>775.0</ele><time>2026-04-13T14:57:21Z</time></trkpt><trkpt lat="43.8129608796117" lon="11.937139365421746"><ele>775.0</ele><time>2026-04-13T14:57:22Z</time></trkpt><trkpt lat="43.8130843406093" lon="11.937114354737242"><ele>775.0</ele><time>2026-04-13T14:57:23Z</time></trkpt><trkpt lat="43.813210062362316" lon="11.937086233576787"><ele>775.0</ele><time>2026-04-13T14:57:24Z</time></trkpt><trkpt lat="43.81333513629804" lon="11.93706613265336"><ele>775.0</ele><time>2026-04-13T14:57:25Z</time></trkpt><trkpt lat="43.813461051826934" lon="11.937088133696225"><ele>775.0</ele><time>2026-04-13T14:57:26Z</time></trkpt><trkpt lat="43.813580051776704" lon="11.937158077338497"><ele>775.0</ele><time>2026-04-13T14:57:27Z</time></trkpt><trkpt lat="43.813689675005584" lon="11.937253565115865"><ele>775.0</ele><time>2026-04-13T14:57:28Z</time></trkpt><trkpt lat="43.81379582677441" lon="11.937354423744132"><ele>773.75</ele><time>2026-04-13T14:57:29Z</time></trkpt><trkpt lat="43.813905307309305" lon="11.937451506779865"><ele>772.5</ele><time>2026-04-13T14:57:30Z</time></trkpt><trkpt lat="43.81401838650108" lon="11.9375448643723"><ele>771.25</ele><time>2026-04-13T14:57:31Z</time></trkpt><trkpt lat="43.814124744232466" lon="11.937641650837016"><ele>770.0</ele><time>2026-04-13T14:57:32Z</time></trkpt><trkpt lat="43.814212706404575" lon="11.937757112816168"><ele>770.0</ele><time>2026-04-13T14:57:33Z</time></trkpt><trkpt lat="43.81427274039856" lon="11.937899552870384"><ele>770.0</ele><time>2026-04-13T14:57:34Z</time></trkpt><trkpt lat="43.8143125418829" lon="11.938055292792475"><ele>770.0</ele><time>2026-04-13T14:57:35Z</time></trkpt><trkpt lat="43.81434647347737" lon="11.938221218165065"><ele>770.0</ele><time>2026-04-13T14:57:36Z</time></trkpt><trkpt lat="43.81438233686083" lon="11.93839059306849"><ele>774.25</ele><time>2026-04-13T14:57:37Z</time></trkpt><trkpt lat="43.81442435443875" lon="11.938557239349466"><ele>778.5</ele><time>2026-04-13T14:57:38Z</time></trkpt><trkpt lat="43.81446904006193" lon="11.938724296601618"><ele>782.75</ele><time>2026-04-13T14:57:39Z</time></trkpt><trkpt lat="43.81451501924621" lon="11.938892827544024"><ele>787.0</ele><time>2026-04-13T14:57:40Z</time></trkpt><trkpt lat="43.81456514762464" lon="11.939061729775876"><ele>786.25</ele><time>2026-04-13T14:57:41Z</time></trkpt><trkpt lat="43.814618084775645" lon="11.939227386460223"><ele>785.5</ele><time>2026-04-13T14:57:42Z</time></trkpt><trkpt lat="43.8146757168227" lon="11.939384978512066"><ele>784.75</ele><time>2026-04-13T14:57:43Z</time></trkpt><trkpt lat="43.81472479746694" lon="11.939538796883856"><ele>784.0</ele><time>2026-04-13T14:57:44Z</time></trkpt><trkpt lat="43.8147433767135" lon="11.939702081790333"><ele>784.0</ele><time>2026-04-13T14:57:45Z</time></trkpt><trkpt lat="43.81472503831175" lon="11.939865289313676"><ele>784.0</ele><time>2026-04-13T14:57:46Z</time></trkpt><trkpt lat="43.81468413799449" lon="11.94003199364033"><ele>784.0</ele><time>2026-04-13T14:57:47Z</time></trkpt><trkpt lat="43.81463666144289" lon="11.940193172291465"><ele>784.0</ele><time>2026-04-13T14:57:48Z</time></trkpt><trkpt lat="43.814597868873825" lon="11.940343796691968"><ele>783.75</ele><time>2026-04-13T14:57:49Z</time></trkpt><trkpt lat="43.81457154708595" lon="11.940496668746816"><ele>783.5</ele><time>2026-04-13T14:57:50Z</time></trkpt><trkpt lat="43.81457034236866" lon="11.940655192793741"><ele>783.25</ele><time>2026-04-13T14:57:51Z</time></trkpt><trkpt lat="43.814601158974725" lon="11.940822679774476"><ele>783.0</ele><time>2026-04-13T14:57:52Z</time></trkpt><trkpt lat="43.81465308408501" lon="11.940984810816397"><ele>780.0</ele><time>2026-04-13T14:57:53Z</time></trkpt><trkpt lat="43.81469321608018" lon="11.941150498706271"><ele>777.0</ele><time>2026-04-13T14:57:54Z</time></trkpt><trkpt lat="43.814698794213086" lon="11.94132690430086"><ele>774.0</ele><time>2026-04-13T14:57:55Z</time></trkpt><trkpt lat="43.814700117600545" lon="11.94150363856086"><ele>771.0</ele><time>2026-04-13T14:57:56Z</time></trkpt><trkpt lat="43.81470762864401" lon="11.941683049097382"><ele>765.75</ele><time>2026-04-13T14:57:57Z</time></trkpt><trkpt lat="43.81472878971771" lon="11.94186301691904"><ele>760.5</ele><time>2026-04-13T14:57:58Z</time></trkpt><trkpt lat="43.81477196557942" lon="11.942034312692758"><ele>755.25</ele><time>2026-04-13T14:57:59Z</time></trkpt><trkpt lat="43.81484057031807" lon="11.942189541079301"><ele>750.0</ele><time>2026-04-13T14:58:00Z</time></trkpt><trkpt lat="43.81492455963197" lon="11.942332070861616"><ele>750.0</ele><time>2026-04-13T14:58:01Z</time></trkpt><trkpt lat="43.815024510658716" lon="11.94246259351768"><ele>750.0</ele><time>2026-04-13T14:58:02Z</time></trkpt><trkpt lat="43.81512638113416" lon="11.942586342099638"><ele>750.0</ele><time>2026-04-13T14:58:03Z</time></trkpt><trkpt lat="43.815232277658524" lon="11.942703768628766"><ele>750.0</ele><time>2026-04-13T14:58:04Z</time></trkpt><trkpt lat="43.81533146118106" lon="11.942817841136591"><ele>750.5</ele><time>2026-04-13T14:58:05Z</time></trkpt><trkpt lat="43.81541276848742" lon="11.94294755440446"><ele>751.0</ele><time>2026-04-13T14:58:06Z</time></trkpt><trkpt lat="43.8154807389375" lon="11.94310048631224"><ele>751.5</ele><time>2026-04-13T14:58:07Z</time></trkpt><trkpt lat="43.815532368261465" lon="11.94326818438296"><ele>752.0</ele><time>2026-04-13T14:58:08Z</time></trkpt><trkpt lat="43.81556952349932" lon="11.943443845468153"><ele>752.25</ele><time>2026-04-13T14:58:09Z</time></trkpt><trkpt lat="43.81559051539114" lon="11.943625369828657"><ele>752.5</ele><time>2026-04-13T14:58:10Z</time></trkpt><trkpt lat="43.81560315400714" lon="11.943814477800425"><ele>752.75</ele><time>2026-04-13T14:58:11Z</time></trkpt><trkpt lat="43.81561250299166" lon="11.94400759959088"><ele>753.0</ele><time>2026-04-13T14:58:12Z</time></trkpt><trkpt lat="43.81561841252679" lon="11.944200018321895"><ele>753.25</ele><time>2026-04-13T14:58:13Z</time></trkpt><trkpt lat="43.81562025892508" lon="11.944391594948053"><ele>753.5</ele><time>2026-04-13T14:58:14Z</time></trkpt><trkpt lat="43.81562040705422" lon="11.94458339702067"><ele>753.75</ele><time>2026-04-13T14:58:15Z</time></trkpt><trkpt lat="43.815619216013886" lon="11.944777348351964"><ele>754.0</ele><time>2026-04-13T14:58:16Z</time></trkpt><trkpt lat="43.81562027744123" lon="11.944971370690114"><ele>750.25</ele><time>2026-04-13T14:58:17Z</time></trkpt><trkpt lat="43.815629570662146" lon="11.94516172949224"><ele>746.5</ele><time>2026-04-13T14:58:18Z</time></trkpt><trkpt lat="43.815654421505535" lon="11.94535036492228"><ele>742.75</ele><time>2026-04-13T14:58:19Z</time></trkpt><trkpt lat="43.81570620457742" lon="11.94552851126618"><ele>739.0</ele><time>2026-04-13T14:58:20Z</time></trkpt><trkpt lat="43.815766757221525" lon="11.945697205829733"><ele>739.0</ele><time>2026-04-13T14:58:21Z</time></trkpt><trkpt lat="43.81583133501129" lon="11.945863059980512"><ele>739.0</ele><time>2026-04-13T14:58:22Z</time></trkpt><trkpt lat="43.81589481081665" lon="11.946033448722769"><ele>739.0</ele><time>2026-04-13T14:58:23Z</time></trkpt><trkpt lat="43.815955074758214" lon="11.946205565546697"><ele>739.0</ele><time>2026-04-13T14:58:24Z</time></trkpt><trkpt lat="43.81600747755566" lon="11.94637816611936"><ele>747.0</ele><time>2026-04-13T14:58:25Z</time></trkpt><trkpt lat="43.816041030530336" lon="11.946553163629531"><ele>755.0</ele><time>2026-04-13T14:58:26Z</time></trkpt><trkpt lat="43.81605168203579" lon="11.946724448423982"><ele>763.0</ele><time>2026-04-13T14:58:27Z</time></trkpt><trkpt lat="43.81605114689628" lon="11.946901103203686"><ele>771.0</ele><time>2026-04-13T14:58:28Z</time></trkpt><trkpt lat="43.81603985229533" lon="11.947084546756715"><ele>771.0</ele><time>2026-04-13T14:58:29Z</time></trkpt><trkpt lat="43.81602038699814" lon="11.947267442986368"><ele>771.0</ele><time>2026-04-13T14:58:30Z</time></trkpt><trkpt lat="43.815999257658575" lon="11.947454884187408"><ele>771.0</ele><time>2026-04-13T14:58:31Z</time></trkpt><trkpt lat="43.81599261365911" lon="11.947625005141905"><ele>771.0</ele><time>2026-04-13T14:58:32Z</time></trkpt><trkpt lat="43.81596697606742" lon="11.947828602542227"><ele>756.5</ele><time>2026-04-13T14:58:33Z</time></trkpt><trkpt lat="43.815941873269686" lon="11.948017923720812"><ele>742.0</ele><time>2026-04-13T14:58:34Z</time></trkpt><trkpt lat="43.81591709686408" lon="11.948201573085486"><ele>727.5</ele><time>2026-04-13T14:58:35Z</time></trkpt><trkpt lat="43.8158958888429" lon="11.94837648979085"><ele>713.0</ele><time>2026-04-13T14:58:36Z</time></trkpt><trkpt lat="43.815898547872926" lon="11.94854612453258"><ele>710.0</ele><time>2026-04-13T14:58:37Z</time></trkpt><trkpt lat="43.81592971857428" lon="11.948703319275568"><ele>707.0</ele><time>2026-04-13T14:58:38Z</time></trkpt><trkpt lat="43.81598545787905" lon="11.948843444397236"><ele>704.0</ele><time>2026-04-13T14:58:39Z</time></trkpt><trkpt lat="43.81605440839978" lon="11.94897006298262"><ele>701.0</ele><time>2026-04-13T14:58:40Z</time></trkpt><trkpt lat="43.81612865007004" lon="11.949090492196484"><ele>706.5</ele><time>2026-04-13T14:58:41Z</time></trkpt><trkpt lat="43.816195323722724" lon="11.94922146957233"><ele>712.0</ele><time>2026-04-13T14:58:42Z</time></trkpt><trkpt lat="43.8162410394408" lon="11.94936799958681"><ele>717.5</ele><time>2026-04-13T14:58:43Z</time></trkpt><trkpt lat="43.816264865920665" lon="11.949525147523929"><ele>723.0</ele><time>2026-04-13T14:58:44Z</time></trkpt><trkpt lat="43.81626684612967" lon="11.949690678244615"><ele>723.0</ele><time>2026-04-13T14:58:45Z</time></trkpt><trkpt lat="43.81625062699309" lon="11.949859099230551"><ele>723.0</ele><time>2026-04-13T14:58:46Z</time></trkpt><trkpt lat="43.816234304301574" lon="11.95002116058214"><ele>723.0</ele><time>2026-04-13T14:58:47Z</time></trkpt><trkpt lat="43.816228186091564" lon="11.950188884312258"><ele>723.0</ele><time>2026-04-13T14:58:48Z</time></trkpt><trkpt lat="43.81623787960908" lon="11.95035888440825"><ele>716.75</ele><time>2026-04-13T14:58:49Z</time></trkpt><trkpt lat="43.81625683865394" lon="11.950529240527649"><ele>710.5</ele><time>2026-04-13T14:58:50Z</time></trkpt><trkpt lat="43.816282008052596" lon="11.950695614974055"><ele>704.25</ele><time>2026-04-13T14:58:51Z</time></trkpt><trkpt lat="43.81631152388601" lon="11.950853587625202"><ele>698.0</ele><time>2026-04-13T14:58:52Z</time></trkpt><trkpt lat="43.816336418684465" lon="11.950997219517197"><ele>692.2</ele><time>2026-04-13T14:58:53Z</time></trkpt><trkpt lat="43.816354001301974" lon="11.95110798313831"><ele>686.4</ele><time>2026-04-13T14:58:54Z</time></trkpt><trkpt lat="43.81635765713348" lon="11.951199955770992"><ele>680.6</ele><time>2026-04-13T14:58:55Z</time></trkpt><trkpt lat="43.81628436956645" lon="11.951304383592822"><ele>674.8000000000001</ele><time>2026-04-13T14:58:57Z</time></trkpt><trkpt lat="43.81618739454848" lon="11.951197678542094"><ele>669.0</ele><time>2026-04-13T14:58:59Z</time></trkpt><trkpt lat="43.81616214694871" lon="11.951075525938219"><ele>669.0</ele><time>2026-04-13T14:59:00Z</time></trkpt><trkpt lat="43.816138694501525" lon="11.950932755145718"><ele>669.0</ele><time>2026-04-13T14:59:01Z</time></trkpt><trkpt lat="43.816114323597205" lon="11.95076472426905"><ele>669.0</ele><time>2026-04-13T14:59:02Z</time></trkpt><trkpt lat="43.81608858486934" lon="11.950595067785482"><ele>669.0</ele><time>2026-04-13T14:59:03Z</time></trkpt><trkpt lat="43.81606223036439" lon="11.950431366922084"><ele>673.0</ele><time>2026-04-13T14:59:04Z</time></trkpt><trkpt lat="43.81603789470891" lon="11.950267679903781"><ele>677.0</ele><time>2026-04-13T14:59:05Z</time></trkpt><trkpt lat="43.81601415290533" lon="11.950105594898702"><ele>681.0</ele><time>2026-04-13T14:59:06Z</time></trkpt><trkpt lat="43.81598859922676" lon="11.949945274077212"><ele>685.0</ele><time>2026-04-13T14:59:07Z</time></trkpt><trkpt lat="43.81596597338292" lon="11.949793478312946"><ele>685.0</ele><time>2026-04-13T14:59:08Z</time></trkpt><trkpt lat="43.815934510699584" lon="11.949655804805392"><ele>685.0</ele><time>2026-04-13T14:59:09Z</time></trkpt><trkpt lat="43.815883922451825" lon="11.949534341793946"><ele>685.0</ele><time>2026-04-13T14:59:10Z</time></trkpt><trkpt lat="43.81581392452345" lon="11.949443895353621"><ele>685.0</ele><time>2026-04-13T14:59:11Z</time></trkpt><trkpt lat="43.81572444563715" lon="11.949385381673046"><ele>685.0</ele><time>2026-04-13T14:59:12Z</time></trkpt><trkpt lat="43.81562956174531" lon="11.949346069468122"><ele>685.0</ele><time>2026-04-13T14:59:13Z</time></trkpt><trkpt lat="43.81554817161829" lon="11.949268453402558"><ele>685.0</ele><time>2026-04-13T14:59:14Z</time></trkpt><trkpt lat="43.81549417389863" lon="11.949144234447875"><ele>685.0</ele><time>2026-04-13T14:59:15Z</time></trkpt><trkpt lat="43.815457926092414" lon="11.94899072457628"><ele>685.0</ele><time>2026-04-13T14:59:16Z</time></trkpt><trkpt lat="43.815426061036426" lon="11.948822195731566"><ele>685.0</ele><time>2026-04-13T14:59:17Z</time></trkpt><trkpt lat="43.81538808323576" lon="11.948649767716432"><ele>689.0</ele><time>2026-04-13T14:59:18Z</time></trkpt><trkpt lat="43.81534969123917" lon="11.948478133339256"><ele>693.0</ele><time>2026-04-13T14:59:19Z</time></trkpt><trkpt lat="43.815310795336636" lon="11.94830449784995"><ele>697.0</ele><time>2026-04-13T14:59:20Z</time></trkpt><trkpt lat="43.81527132937545" lon="11.948128546787473"><ele>701.0</ele><time>2026-04-13T14:59:21Z</time></trkpt><trkpt lat="43.81523391600909" lon="11.947947440795437"><ele>704.0</ele><time>2026-04-13T14:59:22Z</time></trkpt><trkpt lat="43.81519912979256" lon="11.94776542241798"><ele>707.0</ele><time>2026-04-13T14:59:23Z</time></trkpt><trkpt lat="43.81516927288058" lon="11.947597036224467"><ele>710.0</ele><time>2026-04-13T14:59:24Z</time></trkpt><trkpt lat="43.815147498443054" lon="11.947446850291568"><ele>713.0</ele><time>2026-04-13T14:59:25Z</time></trkpt><trkpt lat="43.81513409127413" lon="11.947314297048285"><ele>706.0</ele><time>2026-04-13T14:59:26Z</time></trkpt><trkpt lat="43.81510698406818" lon="11.947217707630355"><ele>699.0</ele><time>2026-04-13T14:59:27Z</time></trkpt><trkpt lat="43.81500576150526" lon="11.947149659558924"><ele>692.0</ele><time>2026-04-13T14:59:29Z</time></trkpt><trkpt lat="43.81495084237092" lon="11.94719666752123"><ele>685.0</ele><time>2026-04-13T14:59:30Z</time></trkpt><trkpt lat="43.81491761289002" lon="11.947298737398896"><ele>678.0</ele><time>2026-04-13T14:59:31Z</time></trkpt><trkpt lat="43.81491920027855" lon="11.94741851251325"><ele>671.0</ele><time>2026-04-13T14:59:32Z</time></trkpt><trkpt lat="43.814939083489335" lon="11.947559397974526"><ele>668.0</ele><time>2026-04-13T14:59:33Z</time></trkpt><trkpt lat="43.81496934728308" lon="11.94772330518145"><ele>665.0</ele><time>2026-04-13T14:59:34Z</time></trkpt><trkpt lat="43.81500222820556" lon="11.947905705601523"><ele>662.0</ele><time>2026-04-13T14:59:35Z</time></trkpt><trkpt lat="43.8150347694998" lon="11.948094128515018"><ele>659.0</ele><time>2026-04-13T14:59:36Z</time></trkpt><trkpt lat="43.815075293831484" lon="11.948278168872179"><ele>655.75</ele><time>2026-04-13T14:59:37Z</time></trkpt><trkpt lat="43.81511666425115" lon="11.94846213382749"><ele>652.5</ele><time>2026-04-13T14:59:38Z</time></trkpt><trkpt lat="43.81515419430478" lon="11.948644963906181"><ele>649.25</ele><time>2026-04-13T14:59:39Z</time></trkpt><trkpt lat="43.81518971603489" lon="11.948828921286797"><ele>646.0</ele><time>2026-04-13T14:59:40Z</time></trkpt><trkpt lat="43.81522517672049" lon="11.949013342313146"><ele>655.75</ele><time>2026-04-13T14:59:41Z</time></trkpt><trkpt lat="43.81527188729432" lon="11.949195417533888"><ele>665.5</ele><time>2026-04-13T14:59:42Z</time></trkpt><trkpt lat="43.81532456737991" lon="11.949373725597452"><ele>675.25</ele><time>2026-04-13T14:59:43Z</time></trkpt><trkpt lat="43.81537972956044" lon="11.949551807638706"><ele>685.0</ele><time>2026-04-13T14:59:44Z</time></trkpt><trkpt lat="43.81543451227615" lon="11.949731551303902"><ele>685.0</ele><time>2026-04-13T14:59:45Z</time></trkpt><trkpt lat="43.815485173347625" lon="11.949912400398498"><ele>685.0</ele><time>2026-04-13T14:59:46Z</time></trkpt><trkpt lat="43.815528823359244" lon="11.950096477963287"><ele>685.0</ele><time>2026-04-13T14:59:47Z</time></trkpt><trkpt lat="43.8155482373732" lon="11.95027953071744"><ele>685.0</ele><time>2026-04-13T14:59:48Z</time></trkpt><trkpt lat="43.81553086547191" lon="11.950465317807017"><ele>681.75</ele><time>2026-04-13T14:59:49Z</time></trkpt><trkpt lat="43.815486274902916" lon="11.950641307115365"><ele>678.5</ele><time>2026-04-13T14:59:50Z</time></trkpt><trkpt lat="43.81543097100783" lon="11.950802482862006"><ele>675.25</ele><time>2026-04-13T14:59:51Z</time></trkpt><trkpt lat="43.81538165466423" lon="11.950954600871594"><ele>672.0</ele><time>2026-04-13T14:59:52Z</time></trkpt><trkpt lat="43.81533696003291" lon="11.951102131023973"><ele>669.25</ele><time>2026-04-13T14:59:53Z</time></trkpt><trkpt lat="43.81530326170689" lon="11.951257775381457"><ele>666.5</ele><time>2026-04-13T14:59:54Z</time></trkpt><trkpt lat="43.81529480154171" lon="11.951415104979539"><ele>663.75</ele><time>2026-04-13T14:59:55Z</time></trkpt><trkpt lat="43.81532110141474" lon="11.95156535541112"><ele>661.0</ele><time>2026-04-13T14:59:56Z</time></trkpt><trkpt lat="43.815375861745736" lon="11.951705624712924"><ele>655.0</ele><time>2026-04-13T14:59:57Z</time></trkpt><trkpt lat="43.81544552386181" lon="11.951846106305005"><ele>649.0</ele><time>2026-04-13T14:59:58Z</time></trkpt><trkpt lat="43.81552539604714" lon="11.951965807773611"><ele>643.0</ele><time>2026-04-13T14:59:59Z</time></trkpt><trkpt lat="43.81562232757611" lon="11.952054167309303"><ele>637.0</ele><time>2026-04-13T15:00:00Z</time></trkpt><trkpt lat="43.81572769993755" lon="11.952121781176167"><ele>637.0</ele><time>2026-04-13T15:00:01Z</time></trkpt><trkpt lat="43.81582292421028" lon="11.952206025118809"><ele>637.0</ele><time>2026-04-13T15:00:02Z</time></trkpt><trkpt lat="43.81586564598874" lon="11.95236075488199"><ele>637.0</ele><time>2026-04-13T15:00:03Z</time></trkpt><trkpt lat="43.81594443725479" lon="11.952468774995697"><ele>637.0</ele><time>2026-04-13T15:00:04Z</time></trkpt><trkpt lat="43.81602112708142" lon="11.952591310054387"><ele>630.0</ele><time>2026-04-13T15:00:05Z</time></trkpt><trkpt lat="43.816122528426284" lon="11.95269457817646"><ele>623.0</ele><time>2026-04-13T15:00:06Z</time></trkpt><trkpt lat="43.81622614674815" lon="11.952791522462046"><ele>616.0</ele><time>2026-04-13T15:00:07Z</time></trkpt><trkpt lat="43.81632543865995" lon="11.952882317254884"><ele>609.0</ele><time>2026-04-13T15:00:08Z</time></trkpt><trkpt lat="43.81641387764341" lon="11.952950153165137"><ele>609.0</ele><time>2026-04-13T15:00:09Z</time></trkpt><trkpt lat="43.81649642783699" lon="11.95298115671034"><ele>609.0</ele><time>2026-04-13T15:00:10Z</time></trkpt><trkpt lat="43.8165759398829" lon="11.952965292285967"><ele>609.0</ele><time>2026-04-13T15:00:11Z</time></trkpt><trkpt lat="43.816643781110386" lon="11.952894203946213"><ele>609.0</ele><time>2026-04-13T15:00:12Z</time></trkpt><trkpt lat="43.81668201728242" lon="11.952778848505963"><ele>609.0</ele><time>2026-04-13T15:00:13Z</time></trkpt><trkpt lat="43.81668574675594" lon="11.952641272685836"><ele>609.0</ele><time>2026-04-13T15:00:14Z</time></trkpt><trkpt lat="43.81666507303382" lon="11.95251326351854"><ele>609.3333333333334</ele><time>2026-04-13T15:00:15Z</time></trkpt><trkpt lat="43.816652932411834" lon="11.952394041286821"><ele>609.6666666666666</ele><time>2026-04-13T15:00:16Z</time></trkpt><trkpt lat="43.81666997896129" lon="11.95227652467762"><ele>610.0</ele><time>2026-04-13T15:00:17Z</time></trkpt><trkpt lat="43.81671585867248" lon="11.952171823687028"><ele>610.3333333333333</ele><time>2026-04-13T15:00:18Z</time></trkpt><trkpt lat="43.816787192317676" lon="11.952100926656549"><ele>610.6666666666666</ele><time>2026-04-13T15:00:19Z</time></trkpt><trkpt lat="43.81687669685796" lon="11.952078065475511"><ele>611.0</ele><time>2026-04-13T15:00:20Z</time></trkpt><trkpt lat="43.81696951262028" lon="11.95209055051271"><ele>611.0</ele><time>2026-04-13T15:00:21Z</time></trkpt><trkpt lat="43.817062467421344" lon="11.952123630446852"><ele>611.0</ele><time>2026-04-13T15:00:22Z</time></trkpt><trkpt lat="43.817153997302725" lon="11.95210771261546"><ele>611.0</ele><time>2026-04-13T15:00:23Z</time></trkpt><trkpt lat="43.817225699958406" lon="11.952021825134965"><ele>611.0</ele><time>2026-04-13T15:00:24Z</time></trkpt><trkpt lat="43.817284951869695" lon="11.951922243900595"><ele>611.0</ele><time>2026-04-13T15:00:25Z</time></trkpt><trkpt lat="43.8173228390639" lon="11.951803442993802"><ele>613.1666666666666</ele><time>2026-04-13T15:00:26Z</time></trkpt><trkpt lat="43.81735454675711" lon="11.951688904578946"><ele>615.3333333333333</ele><time>2026-04-13T15:00:27Z</time></trkpt><trkpt lat="43.81740160438819" lon="11.951587954171519"><ele>617.5</ele><time>2026-04-13T15:00:28Z</time></trkpt><trkpt lat="43.81747447394373" lon="11.951530469114626"><ele>619.6666666666666</ele><time>2026-04-13T15:00:29Z</time></trkpt><trkpt lat="43.81755753658702" lon="11.951531878362665"><ele>621.8333333333334</ele><time>2026-04-13T15:00:30Z</time></trkpt><trkpt lat="43.81763238886877" lon="11.951594584942134"><ele>624.0</ele><time>2026-04-13T15:00:31Z</time></trkpt><trkpt lat="43.81767135838149" lon="11.95171576490382"><ele>624.0</ele><time>2026-04-13T15:00:32Z</time></trkpt><trkpt lat="43.81771721551956" lon="11.951844288500421"><ele>624.0</ele><time>2026-04-13T15:00:33Z</time></trkpt><trkpt lat="43.817768137109" lon="11.951984757374747"><ele>624.0</ele><time>2026-04-13T15:00:34Z</time></trkpt><trkpt lat="43.817827518730255" lon="11.952113219205426"><ele>624.0</ele><time>2026-04-13T15:00:35Z</time></trkpt><trkpt lat="43.8178852973694" lon="11.952250326408743"><ele>624.0</ele><time>2026-04-13T15:00:36Z</time></trkpt><trkpt lat="43.81789722838346" lon="11.95239798230207"><ele>619.5</ele><time>2026-04-13T15:00:37Z</time></trkpt><trkpt lat="43.81788683772495" lon="11.952539697050398"><ele>615.0</ele><time>2026-04-13T15:00:38Z</time></trkpt><trkpt lat="43.81788856753201" lon="11.952651876113562"><ele>610.5</ele><time>2026-04-13T15:00:39Z</time></trkpt><trkpt lat="43.8179273493899" lon="11.952736960445646"><ele>606.0</ele><time>2026-04-13T15:00:40Z</time></trkpt><trkpt lat="43.817999778876214" lon="11.952780102825185"><ele>601.5</ele><time>2026-04-13T15:00:41Z</time></trkpt><trkpt lat="43.81808995382167" lon="11.952763759709065"><ele>597.0</ele><time>2026-04-13T15:00:42Z</time></trkpt><trkpt lat="43.81817784628687" lon="11.952695762075038"><ele>597.0</ele><time>2026-04-13T15:00:43Z</time></trkpt><trkpt lat="43.81825432602576" lon="11.952598031294594"><ele>597.0</ele><time>2026-04-13T15:00:44Z</time></trkpt><trkpt lat="43.818324742273674" lon="11.952490159954285"><ele>597.0</ele><time>2026-04-13T15:00:45Z</time></trkpt><trkpt lat="43.818388775997676" lon="11.952381689538667"><ele>597.0</ele><time>2026-04-13T15:00:46Z</time></trkpt><trkpt lat="43.8184491663446" lon="11.952288147159992"><ele>597.0</ele><time>2026-04-13T15:00:47Z</time></trkpt><trkpt lat="43.818518966232304" lon="11.952216470892449"><ele>602.2</ele><time>2026-04-13T15:00:48Z</time></trkpt><trkpt lat="43.818602178704246" lon="11.952183513739906"><ele>607.4000000000001</ele><time>2026-04-13T15:00:49Z</time></trkpt><trkpt lat="43.81868690143805" lon="11.952211483113405"><ele>612.5999999999999</ele><time>2026-04-13T15:00:50Z</time></trkpt><trkpt lat="43.818766577154925" lon="11.952292479492176"><ele>617.8</ele><time>2026-04-13T15:00:51Z</time></trkpt><trkpt lat="43.81883797057909" lon="11.952413682203435"><ele>623.0</ele><time>2026-04-13T15:00:52Z</time></trkpt><trkpt lat="43.81890124480099" lon="11.952557422522753"><ele>623.0</ele><time>2026-04-13T15:00:53Z</time></trkpt><trkpt lat="43.8189571104416" lon="11.952701005016165"><ele>623.0</ele><time>2026-04-13T15:00:54Z</time></trkpt><trkpt lat="43.818987105472196" lon="11.952858679740302"><ele>623.0</ele><time>2026-04-13T15:00:55Z</time></trkpt><trkpt lat="43.81901683446002" lon="11.953011711405253"><ele>623.0</ele><time>2026-04-13T15:00:56Z</time></trkpt><trkpt lat="43.81903337454101" lon="11.95317657499752"><ele>623.0</ele><time>2026-04-13T15:00:57Z</time></trkpt><trkpt lat="43.81904981109496" lon="11.953345136503524"><ele>623.0</ele><time>2026-04-13T15:00:58Z</time></trkpt><trkpt lat="43.81902408157579" lon="11.953517253092004"><ele>623.0</ele><time>2026-04-13T15:00:59Z</time></trkpt><trkpt lat="43.81898758659406" lon="11.953683865828099"><ele>623.0</ele><time>2026-04-13T15:01:00Z</time></trkpt><trkpt lat="43.818951044576565" lon="11.953845462933424"><ele>618.8</ele><time>2026-04-13T15:01:01Z</time></trkpt><trkpt lat="43.818915493716766" lon="11.954004583076816"><ele>614.5999999999999</ele><time>2026-04-13T15:01:02Z</time></trkpt><trkpt lat="43.81888244457653" lon="11.954158470810734"><ele>610.4000000000001</ele><time>2026-04-13T15:01:03Z</time></trkpt><trkpt lat="43.81886702606502" lon="11.954291691227754"><ele>606.2</ele><time>2026-04-13T15:01:04Z</time></trkpt><trkpt lat="43.81888712507174" lon="11.95441231874171"><ele>602.0</ele><time>2026-04-13T15:01:05Z</time></trkpt><trkpt lat="43.8189425991577" lon="11.95451430140275"><ele>599.8000000000001</ele><time>2026-04-13T15:01:06Z</time></trkpt><trkpt lat="43.81902418491153" lon="11.954565402294575"><ele>597.6</ele><time>2026-04-13T15:01:07Z</time></trkpt><trkpt lat="43.81911451131928" lon="11.954552295410105"><ele>595.4000000000001</ele><time>2026-04-13T15:01:08Z</time></trkpt><trkpt lat="43.819194300076795" lon="11.954494599185391"><ele>593.2</ele><time>2026-04-13T15:01:09Z</time></trkpt><trkpt lat="43.81926521611927" lon="11.9543955718578"><ele>591.0</ele><time>2026-04-13T15:01:10Z</time></trkpt><trkpt lat="43.81932378313296" lon="11.95429720864916"><ele>591.0</ele><time>2026-04-13T15:01:11Z</time></trkpt><trkpt lat="43.81939105126273" lon="11.954216018027472"><ele>591.0</ele><time>2026-04-13T15:01:12Z</time></trkpt><trkpt lat="43.81947623019279" lon="11.954174883276876"><ele>591.0</ele><time>2026-04-13T15:01:13Z</time></trkpt><trkpt lat="43.81956587245597" lon="11.954173338221572"><ele>591.0</ele><time>2026-04-13T15:01:14Z</time></trkpt><trkpt lat="43.81964996139443" lon="11.954241384566695"><ele>591.0</ele><time>2026-04-13T15:01:15Z</time></trkpt><trkpt lat="43.81974513351737" lon="11.95431926655493"><ele>591.0</ele><time>2026-04-13T15:01:16Z</time></trkpt><trkpt lat="43.8198383985413" lon="11.954380803461023"><ele>591.0</ele><time>2026-04-13T15:01:17Z</time></trkpt><trkpt lat="43.81990308895671" lon="11.95447069260136"><ele>591.0</ele><time>2026-04-13T15:01:18Z</time></trkpt><trkpt lat="43.81995340781162" lon="11.954578925184906"><ele>591.0</ele><time>2026-04-13T15:01:19Z</time></trkpt><trkpt lat="43.81998136495221" lon="11.954719033218607"><ele>591.0</ele><time>2026-04-13T15:01:20Z</time></trkpt><trkpt lat="43.81997738435288" lon="11.954861246541917"><ele>591.0</ele><time>2026-04-13T15:01:21Z</time></trkpt><trkpt lat="43.81996417141498" lon="11.954986314271993"><ele>591.0</ele><time>2026-04-13T15:01:22Z</time></trkpt><trkpt lat="43.81997726291276" lon="11.955100026081546"><ele>591.0</ele><time>2026-04-13T15:01:23Z</time></trkpt><trkpt lat="43.82002979712269" lon="11.955189802524245"><ele>591.0</ele><time>2026-04-13T15:01:24Z</time></trkpt><trkpt lat="43.820114312358434" lon="11.955228210926025"><ele>591.0</ele><time>2026-04-13T15:01:25Z</time></trkpt><trkpt lat="43.82020930002941" lon="11.95522776980117"><ele>591.0</ele><time>2026-04-13T15:01:26Z</time></trkpt><trkpt lat="43.82030012782943" lon="11.955223457812533"><ele>595.0</ele><time>2026-04-13T15:01:27Z</time></trkpt><trkpt lat="43.8203779462332" lon="11.955279918080317"><ele>599.0</ele><time>2026-04-13T15:01:28Z</time></trkpt><trkpt lat="43.82045524898248" lon="11.9553342006967"><ele>603.0</ele><time>2026-04-13T15:01:29Z</time></trkpt><trkpt lat="43.82048976556025" lon="11.95547336970795"><ele>607.0</ele><time>2026-04-13T15:01:30Z</time></trkpt><trkpt lat="43.82051195402051" lon="11.95562953290076"><ele>611.0</ele><time>2026-04-13T15:01:31Z</time></trkpt><trkpt lat="43.820523006512566" lon="11.955795842646616"><ele>603.0</ele><time>2026-04-13T15:01:32Z</time></trkpt><trkpt lat="43.82054157761548" lon="11.95596263240745"><ele>595.0</ele><time>2026-04-13T15:01:33Z</time></trkpt><trkpt lat="43.82054523244281" lon="11.956121592465047"><ele>587.0</ele><time>2026-04-13T15:01:34Z</time></trkpt><trkpt lat="43.82055404964613" lon="11.956280815953766"><ele>579.0</ele><time>2026-04-13T15:01:35Z</time></trkpt><trkpt lat="43.82056015605408" lon="11.956441336953496"><ele>579.0</ele><time>2026-04-13T15:01:36Z</time></trkpt><trkpt lat="43.820563677150815" lon="11.956597791290836"><ele>579.0</ele><time>2026-04-13T15:01:37Z</time></trkpt><trkpt lat="43.82057123937887" lon="11.956732161601007"><ele>579.0</ele><time>2026-04-13T15:01:38Z</time></trkpt><trkpt lat="43.82060507612422" lon="11.95685730085496"><ele>579.0</ele><time>2026-04-13T15:01:39Z</time></trkpt><trkpt lat="43.82066840976565" lon="11.956946086656059"><ele>579.0</ele><time>2026-04-13T15:01:40Z</time></trkpt><trkpt lat="43.82074958818338" lon="11.95699615277125"><ele>569.75</ele><time>2026-04-13T15:01:41Z</time></trkpt><trkpt lat="43.82085101621065" lon="11.957016619419381"><ele>560.5</ele><time>2026-04-13T15:01:42Z</time></trkpt><trkpt lat="43.820976203788035" lon="11.95701704232543"><ele>551.25</ele><time>2026-04-13T15:01:43Z</time></trkpt><trkpt lat="43.82110577210044" lon="11.957020506803866"><ele>542.0</ele><time>2026-04-13T15:01:44Z</time></trkpt><trkpt lat="43.82123365445157" lon="11.95706874152067"><ele>541.5</ele><time>2026-04-13T15:01:45Z</time></trkpt><trkpt lat="43.821356034216194" lon="11.957098450365496"><ele>541.0</ele><time>2026-04-13T15:01:46Z</time></trkpt><trkpt lat="43.821473382913844" lon="11.957129679037916"><ele>540.5</ele><time>2026-04-13T15:01:47Z</time></trkpt><trkpt lat="43.82158345523316" lon="11.957174683710655"><ele>540.0</ele><time>2026-04-13T15:01:48Z</time></trkpt><trkpt lat="43.82168853518766" lon="11.957196690287406"><ele>540.0</ele><time>2026-04-13T15:01:49Z</time></trkpt><trkpt lat="43.82178888092116" lon="11.957158201981219"><ele>540.0</ele><time>2026-04-13T15:01:50Z</time></trkpt><trkpt lat="43.82189464898568" lon="11.9570574264836"><ele>540.0</ele><time>2026-04-13T15:01:51Z</time></trkpt><trkpt lat="43.82200909370258" lon="11.957002970615129"><ele>540.0</ele><time>2026-04-13T15:01:52Z</time></trkpt><trkpt lat="43.822122919459645" lon="11.95694840534185"><ele>538.25</ele><time>2026-04-13T15:01:53Z</time></trkpt><trkpt lat="43.822236097323966" lon="11.956930118808867"><ele>536.5</ele><time>2026-04-13T15:01:54Z</time></trkpt><trkpt lat="43.82234698429216" lon="11.956899762800337"><ele>534.75</ele><time>2026-04-13T15:01:55Z</time></trkpt><trkpt lat="43.822458460855295" lon="11.956870048285252"><ele>533.0</ele><time>2026-04-13T15:01:56Z</time></trkpt><trkpt lat="43.822573251076555" lon="11.9568502527807"><ele>532.6</ele><time>2026-04-13T15:01:57Z</time></trkpt><trkpt lat="43.8226803387681" lon="11.956824485126253"><ele>532.1999999999999</ele><time>2026-04-13T15:01:58Z</time></trkpt><trkpt lat="43.82278526617822" lon="11.95680251482958"><ele>531.8</ele><time>2026-04-13T15:01:59Z</time></trkpt><trkpt lat="43.822877920909114" lon="11.956777952032835"><ele>531.4</ele><time>2026-04-13T15:02:00Z</time></trkpt><trkpt lat="43.822944292847765" lon="11.956717715172859"><ele>531.0</ele><time>2026-04-13T15:02:01Z</time></trkpt><trkpt lat="43.822984063979426" lon="11.956614823742456"><ele>531.0</ele><time>2026-04-13T15:02:02Z</time></trkpt><trkpt lat="43.82299526719166" lon="11.956489094595632"><ele>531.0</ele><time>2026-04-13T15:02:03Z</time></trkpt><trkpt lat="43.82299234155515" lon="11.956329027933705"><ele>531.0</ele><time>2026-04-13T15:02:04Z</time></trkpt><trkpt lat="43.822979865794714" lon="11.95616047310134"><ele>531.0</ele><time>2026-04-13T15:02:05Z</time></trkpt><trkpt lat="43.82297262133762" lon="11.956001181020817"><ele>531.0</ele><time>2026-04-13T15:02:06Z</time></trkpt><trkpt lat="43.82296501283671" lon="11.955841961541106"><ele>532.5</ele><time>2026-04-13T15:02:07Z</time></trkpt><trkpt lat="43.82296795201319" lon="11.955685667130567"><ele>534.0</ele><time>2026-04-13T15:02:08Z</time></trkpt><trkpt lat="43.82299186359799" lon="11.955529032605016"><ele>535.5</ele><time>2026-04-13T15:02:09Z</time></trkpt><trkpt lat="43.82301926282262" lon="11.955374933471253"><ele>537.0</ele><time>2026-04-13T15:02:10Z</time></trkpt><trkpt lat="43.8230369501051" lon="11.955216273404861"><ele>537.0</ele><time>2026-04-13T15:02:11Z</time></trkpt><trkpt lat="43.82306194887463" lon="11.955060579416838"><ele>537.0</ele><time>2026-04-13T15:02:12Z</time></trkpt><trkpt lat="43.82310674868514" lon="11.95491505179257"><ele>537.0</ele><time>2026-04-13T15:02:13Z</time></trkpt><trkpt lat="43.82316289682657" lon="11.954765278907704"><ele>537.0</ele><time>2026-04-13T15:02:14Z</time></trkpt><trkpt lat="43.82317989104564" lon="11.954597833202046"><ele>536.8000000000001</ele><time>2026-04-13T15:02:15Z</time></trkpt><trkpt lat="43.82316854802236" lon="11.954433891221976"><ele>536.6</ele><time>2026-04-13T15:02:16Z</time></trkpt><trkpt lat="43.82313619159909" lon="11.954292286924845"><ele>536.4000000000001</ele><time>2026-04-13T15:02:17Z</time></trkpt><trkpt lat="43.82306907587602" lon="11.954175357917702"><ele>536.2</ele><time>2026-04-13T15:02:18Z</time></trkpt><trkpt lat="43.82297282786879" lon="11.95409126515441"><ele>536.0</ele><time>2026-04-13T15:02:19Z</time></trkpt><trkpt lat="43.82287093318926" lon="11.954027573808421"><ele>534.4</ele><time>2026-04-13T15:02:20Z</time></trkpt><trkpt lat="43.82278171058804" lon="11.95395215854475"><ele>532.8</ele><time>2026-04-13T15:02:21Z</time></trkpt><trkpt lat="43.82271742841633" lon="11.95385278622385"><ele>531.1999999999999</ele><time>2026-04-13T15:02:22Z</time></trkpt><trkpt lat="43.822691485236646" lon="11.953736479576248"><ele>529.6</ele><time>2026-04-13T15:02:23Z</time></trkpt><trkpt lat="43.82270293975432" lon="11.95361852346712"><ele>528.0</ele><time>2026-04-13T15:02:24Z</time></trkpt><trkpt lat="43.822757137227676" lon="11.953527907887"><ele>528.0</ele><time>2026-04-13T15:02:25Z</time></trkpt><trkpt lat="43.82283314343201" lon="11.953470831734714"><ele>528.0</ele><time>2026-04-13T15:02:26Z</time></trkpt><trkpt lat="43.82293112015782" lon="11.95341850981018"><ele>528.0</ele><time>2026-04-13T15:02:27Z</time></trkpt><trkpt lat="43.82304429853845" lon="11.953367181168513"><ele>528.0</ele><time>2026-04-13T15:02:28Z</time></trkpt><trkpt lat="43.82315730740859" lon="11.953306543637236"><ele>528.0</ele><time>2026-04-13T15:02:29Z</time></trkpt><trkpt lat="43.82325960108646" lon="11.953237878634448"><ele>529.0</ele><time>2026-04-13T15:02:30Z</time></trkpt><trkpt lat="43.82336148600324" lon="11.953169774811949"><ele>530.0</ele><time>2026-04-13T15:02:31Z</time></trkpt><trkpt lat="43.82346412077402" lon="11.953107450171451"><ele>531.0</ele><time>2026-04-13T15:02:32Z</time></trkpt><trkpt lat="43.823564440703095" lon="11.953083886065713"><ele>532.0</ele><time>2026-04-13T15:02:33Z</time></trkpt><trkpt lat="43.823659370519195" lon="11.953114755061101"><ele>533.0</ele><time>2026-04-13T15:02:34Z</time></trkpt><trkpt lat="43.823746139901665" lon="11.953193077954852"><ele>536.75</ele><time>2026-04-13T15:02:35Z</time></trkpt><trkpt lat="43.823791147903734" lon="11.953323893586427"><ele>540.5</ele><time>2026-04-13T15:02:36Z</time></trkpt><trkpt lat="43.823814455015835" lon="11.953464675561333"><ele>544.25</ele><time>2026-04-13T15:02:37Z</time></trkpt><trkpt lat="43.82382005103793" lon="11.953630730532208"><ele>548.0</ele><time>2026-04-13T15:02:38Z</time></trkpt><trkpt lat="43.8238165805656" lon="11.95382063480001"><ele>548.0</ele><time>2026-04-13T15:02:39Z</time></trkpt><trkpt lat="43.82380620455416" lon="11.954014994429375"><ele>548.0</ele><time>2026-04-13T15:02:40Z</time></trkpt><trkpt lat="43.82379423879994" lon="11.954199876995517"><ele>548.0</ele><time>2026-04-13T15:02:41Z</time></trkpt><trkpt lat="43.82381119386239" lon="11.95438934167504"><ele>548.0</ele><time>2026-04-13T15:02:42Z</time></trkpt><trkpt lat="43.82382644047088" lon="11.954575860781473"><ele>547.5</ele><time>2026-04-13T15:02:43Z</time></trkpt><trkpt lat="43.82383427276985" lon="11.954761196164405"><ele>547.0</ele><time>2026-04-13T15:02:44Z</time></trkpt><trkpt lat="43.82385594969008" lon="11.954931082896168"><ele>546.5</ele><time>2026-04-13T15:02:45Z</time></trkpt><trkpt lat="43.823872229930394" lon="11.955091139875583"><ele>546.0</ele><time>2026-04-13T15:02:46Z</time></trkpt><trkpt lat="43.82384274406053" lon="11.955251683497272"><ele>546.0</ele><time>2026-04-13T15:02:47Z</time></trkpt><trkpt lat="43.82379646470549" lon="11.9554153240379"><ele>546.0</ele><time>2026-04-13T15:02:48Z</time></trkpt><trkpt lat="43.823752526192784" lon="11.955569292267535"><ele>546.0</ele><time>2026-04-13T15:02:49Z</time></trkpt><trkpt lat="43.823715993708184" lon="11.955722392692664"><ele>546.0</ele><time>2026-04-13T15:02:50Z</time></trkpt><trkpt lat="43.82370074095359" lon="11.955884484227434"><ele>546.5</ele><time>2026-04-13T15:02:51Z</time></trkpt><trkpt lat="43.82370844319899" lon="11.956057048794285"><ele>547.0</ele><time>2026-04-13T15:02:52Z</time></trkpt><trkpt lat="43.82373300801437" lon="11.95623722953365"><ele>547.5</ele><time>2026-04-13T15:02:53Z</time></trkpt><trkpt lat="43.82374105812142" lon="11.956426395727087"><ele>548.0</ele><time>2026-04-13T15:02:54Z</time></trkpt><trkpt lat="43.82376107309413" lon="11.95660874167015"><ele>545.0</ele><time>2026-04-13T15:02:55Z</time></trkpt><trkpt lat="43.82377301080683" lon="11.956791537203394"><ele>542.0</ele><time>2026-04-13T15:02:56Z</time></trkpt><trkpt lat="43.82378140074325" lon="11.956977888714025"><ele>539.0</ele><time>2026-04-13T15:02:57Z</time></trkpt><trkpt lat="43.82376742609611" lon="11.95715711118508"><ele>536.0</ele><time>2026-04-13T15:02:58Z</time></trkpt><trkpt lat="43.823765475153905" lon="11.95732666340753"><ele>536.0</ele><time>2026-04-13T15:02:59Z</time></trkpt><trkpt lat="43.823783022718885" lon="11.957488710863496"><ele>536.0</ele><time>2026-04-13T15:03:00Z</time></trkpt><trkpt lat="43.82382904569993" lon="11.957639995452558"><ele>536.0</ele><time>2026-04-13T15:03:01Z</time></trkpt><trkpt lat="43.82389971338317" lon="11.957777622208853"><ele>536.0</ele><time>2026-04-13T15:03:02Z</time></trkpt><trkpt lat="43.82398017613567" lon="11.95790433663779"><ele>532.2</ele><time>2026-04-13T15:03:03Z</time></trkpt><trkpt lat="43.82404813277786" lon="11.958031380008903"><ele>528.4000000000001</ele><time>2026-04-13T15:03:04Z</time></trkpt><trkpt lat="43.82408940084777" lon="11.958175301029236"><ele>524.6</ele><time>2026-04-13T15:03:05Z</time></trkpt><trkpt lat="43.82410799021358" lon="11.958320531050827"><ele>520.8000000000001</ele><time>2026-04-13T15:03:06Z</time></trkpt><trkpt lat="43.82411811640039" lon="11.95846308233207"><ele>517.0</ele><time>2026-04-13T15:03:07Z</time></trkpt><trkpt lat="43.82414102426075" lon="11.958593325586794"><ele>515.4</ele><time>2026-04-13T15:03:08Z</time></trkpt><trkpt lat="43.82418821631463" lon="11.95870165633172"><ele>513.8000000000001</ele><time>2026-04-13T15:03:09Z</time></trkpt><trkpt lat="43.82426008351327" lon="11.958775499792983"><ele>512.2</ele><time>2026-04-13T15:03:10Z</time></trkpt><trkpt lat="43.82434129800442" lon="11.95883177209293"><ele>510.6</ele><time>2026-04-13T15:03:11Z</time></trkpt><trkpt lat="43.824444026643846" lon="11.95879009382814"><ele>509.0</ele><time>2026-04-13T15:03:12Z</time></trkpt><trkpt lat="43.82454726372449" lon="11.958744043318283"><ele>508.25</ele><time>2026-04-13T15:03:13Z</time></trkpt><trkpt lat="43.824652621261436" lon="11.958668453937943"><ele>507.5</ele><time>2026-04-13T15:03:14Z</time></trkpt><trkpt lat="43.82476353670069" lon="11.958587764398407"><ele>506.75</ele><time>2026-04-13T15:03:15Z</time></trkpt><trkpt lat="43.8248880741742" lon="11.958511008178535"><ele>506.0</ele><time>2026-04-13T15:03:16Z</time></trkpt><trkpt lat="43.82501461751295" lon="11.95844093995007"><ele>506.0</ele><time>2026-04-13T15:03:17Z</time></trkpt><trkpt lat="43.82513646519759" lon="11.958392941196784"><ele>506.0</ele><time>2026-04-13T15:03:18Z</time></trkpt><trkpt lat="43.82526872672614" lon="11.958373227895153"><ele>506.0</ele><time>2026-04-13T15:03:19Z</time></trkpt><trkpt lat="43.82540497544615" lon="11.958378445047156"><ele>506.0</ele><time>2026-04-13T15:03:20Z</time></trkpt><trkpt lat="43.82554589186895" lon="11.958409582327148"><ele>506.3333333333333</ele><time>2026-04-13T15:03:21Z</time></trkpt><trkpt lat="43.82569252420585" lon="11.95845312263357"><ele>506.66666666666663</ele><time>2026-04-13T15:03:22Z</time></trkpt><trkpt lat="43.82584378411215" lon="11.9585058119508"><ele>507.0</ele><time>2026-04-13T15:03:23Z</time></trkpt><trkpt lat="43.825996178752185" lon="11.958557009642856"><ele>506.5</ele><time>2026-04-13T15:03:24Z</time></trkpt><trkpt lat="43.826139210208545" lon="11.958601037142767"><ele>506.0</ele><time>2026-04-13T15:03:25Z</time></trkpt><trkpt lat="43.82628028106695" lon="11.958644430920296"><ele>505.5</ele><time>2026-04-13T15:03:26Z</time></trkpt><trkpt lat="43.826418864969" lon="11.958691929202894"><ele>505.0</ele><time>2026-04-13T15:03:27Z</time></trkpt><trkpt lat="43.826552919425104" lon="11.958746663477186"><ele>505.0</ele><time>2026-04-13T15:03:28Z</time></trkpt><trkpt lat="43.826682853330105" lon="11.958811100011282"><ele>505.0</ele><time>2026-04-13T15:03:29Z</time></trkpt><trkpt lat="43.82681214548832" lon="11.958882210225443"><ele>505.0</ele><time>2026-04-13T15:03:30Z</time></trkpt><trkpt lat="43.82694196292311" lon="11.95895431939951"><ele>505.0</ele><time>2026-04-13T15:03:31Z</time></trkpt><trkpt lat="43.82706700165507" lon="11.959021854496221"><ele>504.5</ele><time>2026-04-13T15:03:32Z</time></trkpt><trkpt lat="43.8271899225307" lon="11.959085052133593"><ele>504.0</ele><time>2026-04-13T15:03:33Z</time></trkpt><trkpt lat="43.82731014527812" lon="11.959139541045564"><ele>503.5</ele><time>2026-04-13T15:03:34Z</time></trkpt><trkpt lat="43.82743366038505" lon="11.959178921397422"><ele>503.0</ele><time>2026-04-13T15:03:35Z</time></trkpt><trkpt lat="43.827555524120115" lon="11.959191504066883"><ele>502.25</ele><time>2026-04-13T15:03:36Z</time></trkpt><trkpt lat="43.82768220886601" lon="11.959168876034196"><ele>501.5</ele><time>2026-04-13T15:03:37Z</time></trkpt><trkpt lat="43.82781109541808" lon="11.95911070548443"><ele>500.75</ele><time>2026-04-13T15:03:38Z</time></trkpt><trkpt lat="43.82794337435233" lon="11.959032165405981"><ele>500.0</ele><time>2026-04-13T15:03:39Z</time></trkpt><trkpt lat="43.828077414275484" lon="11.958947703763563"><ele>500.0</ele><time>2026-04-13T15:03:40Z</time></trkpt><trkpt lat="43.828212043951375" lon="11.958855447424442"><ele>500.0</ele><time>2026-04-13T15:03:41Z</time></trkpt><trkpt lat="43.82834650974232" lon="11.958761475536276"><ele>500.0</ele><time>2026-04-13T15:03:42Z</time></trkpt><trkpt lat="43.82848053226168" lon="11.958668453765878"><ele>499.75</ele><time>2026-04-13T15:03:43Z</time></trkpt><trkpt lat="43.828614301645416" lon="11.958579664757876"><ele>499.5</ele><time>2026-04-13T15:03:44Z</time></trkpt><trkpt lat="43.828745978336045" lon="11.958489461772482"><ele>499.25</ele><time>2026-04-13T15:03:45Z</time></trkpt><trkpt lat="43.82887227943974" lon="11.958399206956594"><ele>499.0</ele><time>2026-04-13T15:03:46Z</time></trkpt><trkpt lat="43.828995928413924" lon="11.958311265319841"><ele>499.0</ele><time>2026-04-13T15:03:47Z</time></trkpt><trkpt lat="43.829116199096944" lon="11.958228830283748"><ele>499.0</ele><time>2026-04-13T15:03:48Z</time></trkpt><trkpt lat="43.82922877013571" lon="11.95814444587503"><ele>499.0</ele><time>2026-04-13T15:03:49Z</time></trkpt><trkpt lat="43.82933074666642" lon="11.958049249367011"><ele>499.0</ele><time>2026-04-13T15:03:50Z</time></trkpt><trkpt lat="43.8294145697125" lon="11.95792982423165"><ele>499.0</ele><time>2026-04-13T15:03:51Z</time></trkpt><trkpt lat="43.82948184854298" lon="11.957776886291317"><ele>499.0</ele><time>2026-04-13T15:03:52Z</time></trkpt><trkpt lat="43.82953269889423" lon="11.957601037708073"><ele>499.0</ele><time>2026-04-13T15:03:53Z</time></trkpt><trkpt lat="43.829579735273626" lon="11.957413422513753"><ele>499.0</ele><time>2026-04-13T15:03:54Z</time></trkpt><trkpt lat="43.82964015316084" lon="11.95722721316933"><ele>499.0</ele><time>2026-04-13T15:03:55Z</time></trkpt><trkpt lat="43.829710238753854" lon="11.957046355489684"><ele>499.0</ele><time>2026-04-13T15:03:56Z</time></trkpt><trkpt lat="43.829782497529536" lon="11.95686908457004"><ele>499.0</ele><time>2026-04-13T15:03:57Z</time></trkpt><trkpt lat="43.82986457019153" lon="11.956690814257795"><ele>499.0</ele><time>2026-04-13T15:03:58Z</time></trkpt><trkpt lat="43.829951349158726" lon="11.956519609101834"><ele>499.5</ele><time>2026-04-13T15:03:59Z</time></trkpt><trkpt lat="43.830035645177425" lon="11.956354841139884"><ele>500.0</ele><time>2026-04-13T15:04:00Z</time></trkpt><trkpt lat="43.83011635432892" lon="11.956190079250868"><ele>500.5</ele><time>2026-04-13T15:04:01Z</time></trkpt><trkpt lat="43.83019857295834" lon="11.956034061354892"><ele>501.0</ele><time>2026-04-13T15:04:02Z</time></trkpt><trkpt lat="43.830290823276975" lon="11.95589209213823"><ele>499.75</ele><time>2026-04-13T15:04:03Z</time></trkpt><trkpt lat="43.83039609772802" lon="11.955777750535177"><ele>498.5</ele><time>2026-04-13T15:04:04Z</time></trkpt><trkpt lat="43.83051161760548" lon="11.955690162188617"><ele>497.25</ele><time>2026-04-13T15:04:05Z</time></trkpt><trkpt lat="43.830630431657234" lon="11.955625079345426"><ele>496.0</ele><time>2026-04-13T15:04:06Z</time></trkpt><trkpt lat="43.83075414134424" lon="11.955588774177485"><ele>496.0</ele><time>2026-04-13T15:04:07Z</time></trkpt><trkpt lat="43.830876901931774" lon="11.955578556856853"><ele>496.0</ele><time>2026-04-13T15:04:08Z</time></trkpt><trkpt lat="43.830998095119575" lon="11.95559294941498"><ele>496.0</ele><time>2026-04-13T15:04:09Z</time></trkpt><trkpt lat="43.83111869880186" lon="11.955626959211225"><ele>496.0</ele><time>2026-04-13T15:04:10Z</time></trkpt><trkpt lat="43.831242813820154" lon="11.955687245084086"><ele>496.0</ele><time>2026-04-13T15:04:11Z</time></trkpt><trkpt lat="43.831349582513496" lon="11.955792125659501"><ele>496.0</ele><time>2026-04-13T15:04:12Z</time></trkpt><trkpt lat="43.83147145968969" lon="11.95587336275543"><ele>496.0</ele><time>2026-04-13T15:04:13Z</time></trkpt><trkpt lat="43.83158070122625" lon="11.955985461851112"><ele>496.0</ele><time>2026-04-13T15:04:14Z</time></trkpt><trkpt lat="43.83169025425905" lon="11.956097428662423"><ele>496.0</ele><time>2026-04-13T15:04:15Z</time></trkpt><trkpt lat="43.83179833475299" lon="11.956204450101763"><ele>496.0</ele><time>2026-04-13T15:04:16Z</time></trkpt><trkpt lat="43.83190436067452" lon="11.956305097673585"><ele>496.0</ele><time>2026-04-13T15:04:17Z</time></trkpt><trkpt lat="43.83201341372713" lon="11.956404971258342"><ele>496.0</ele><time>2026-04-13T15:04:18Z</time></trkpt><trkpt lat="43.83212232026942" lon="11.956506216912063"><ele>495.25</ele><time>2026-04-13T15:04:19Z</time></trkpt><trkpt lat="43.8322315773106" lon="11.956607509988817"><ele>494.5</ele><time>2026-04-13T15:04:20Z</time></trkpt><trkpt lat="43.8323374667031" lon="11.956706743113262"><ele>493.75</ele><time>2026-04-13T15:04:21Z</time></trkpt><trkpt lat="43.83244095480251" lon="11.956802633975384"><ele>493.0</ele><time>2026-04-13T15:04:22Z</time></trkpt><trkpt lat="43.832538278360836" lon="11.956910673998465"><ele>495.25</ele><time>2026-04-13T15:04:23Z</time></trkpt><trkpt lat="43.83264350989844" lon="11.957003876173761"><ele>497.5</ele><time>2026-04-13T15:04:24Z</time></trkpt><trkpt lat="43.8327472432547" lon="11.957107752332568"><ele>499.75</ele><time>2026-04-13T15:04:25Z</time></trkpt><trkpt lat="43.83285466933896" lon="11.957208171640874"><ele>502.0</ele><time>2026-04-13T15:04:26Z</time></trkpt><trkpt lat="43.83296089623774" lon="11.957308269722162"><ele>502.0</ele><time>2026-04-13T15:04:27Z</time></trkpt><trkpt lat="43.83306227224647" lon="11.957407760729225"><ele>502.0</ele><time>2026-04-13T15:04:28Z</time></trkpt><trkpt lat="43.833166626555474" lon="11.957504394875706"><ele>502.0</ele><time>2026-04-13T15:04:29Z</time></trkpt><trkpt lat="43.833272760853546" lon="11.957599023744326"><ele>502.0</ele><time>2026-04-13T15:04:30Z</time></trkpt><trkpt lat="43.83338689600135" lon="11.95768924732259"><ele>501.25</ele><time>2026-04-13T15:04:31Z</time></trkpt><trkpt lat="43.833502017965145" lon="11.957774761556605"><ele>500.5</ele><time>2026-04-13T15:04:32Z</time></trkpt><trkpt lat="43.833621124321695" lon="11.957854150342703"><ele>499.75</ele><time>2026-04-13T15:04:33Z</time></trkpt><trkpt lat="43.833745235417965" lon="11.95793709257207"><ele>499.0</ele><time>2026-04-13T15:04:34Z</time></trkpt><trkpt lat="43.83387218601147" lon="11.958019623470667"><ele>499.0</ele><time>2026-04-13T15:04:35Z</time></trkpt><trkpt lat="43.83399628397563" lon="11.958099566264497"><ele>499.0</ele><time>2026-04-13T15:04:36Z</time></trkpt><trkpt lat="43.83411711046701" lon="11.958182609847395"><ele>499.0</ele><time>2026-04-13T15:04:37Z</time></trkpt><trkpt lat="43.8342359675519" lon="11.95826451923763"><ele>499.0</ele><time>2026-04-13T15:04:38Z</time></trkpt><trkpt lat="43.83435509100879" lon="11.95834380137717"><ele>498.5</ele><time>2026-04-13T15:04:39Z</time></trkpt><trkpt lat="43.83446990798928" lon="11.958420459910101"><ele>498.0</ele><time>2026-04-13T15:04:40Z</time></trkpt><trkpt lat="43.83458473306869" lon="11.95849327688834"><ele>497.5</ele><time>2026-04-13T15:04:41Z</time></trkpt><trkpt lat="43.83469929676451" lon="11.958565673301242"><ele>497.0</ele><time>2026-04-13T15:04:42Z</time></trkpt><trkpt lat="43.83481640583067" lon="11.958644122247824"><ele>497.0</ele><time>2026-04-13T15:04:43Z</time></trkpt><trkpt lat="43.8349326778802" lon="11.958728437517031"><ele>497.0</ele><time>2026-04-13T15:04:44Z</time></trkpt><trkpt lat="43.83504880634413" lon="11.958817773597662"><ele>497.0</ele><time>2026-04-13T15:04:45Z</time></trkpt><trkpt lat="43.8351615656512" lon="11.958906592622625"><ele>497.0</ele><time>2026-04-13T15:04:46Z</time></trkpt><trkpt lat="43.83526995990843" lon="11.958992243791224"><ele>497.75</ele><time>2026-04-13T15:04:47Z</time></trkpt><trkpt lat="43.83537930199244" lon="11.959079601872384"><ele>498.5</ele><time>2026-04-13T15:04:48Z</time></trkpt><trkpt lat="43.83549085570015" lon="11.959169833141685"><ele>499.25</ele><time>2026-04-13T15:04:49Z</time></trkpt><trkpt lat="43.8356030976866" lon="11.959260780771492"><ele>500.0</ele><time>2026-04-13T15:04:50Z</time></trkpt><trkpt lat="43.8357163808862" lon="11.95935587956894"><ele>498.0</ele><time>2026-04-13T15:04:51Z</time></trkpt><trkpt lat="43.835833160277836" lon="11.959449023541339"><ele>496.0</ele><time>2026-04-13T15:04:52Z</time></trkpt><trkpt lat="43.83595006653282" lon="11.95954010202811"><ele>494.0</ele><time>2026-04-13T15:04:53Z</time></trkpt><trkpt lat="43.836064533718336" lon="11.959628782197838"><ele>492.0</ele><time>2026-04-13T15:04:54Z</time></trkpt><trkpt lat="43.836176620501035" lon="11.959718260287215"><ele>492.0</ele><time>2026-04-13T15:04:55Z</time></trkpt><trkpt lat="43.836283203605106" lon="11.9598126323296"><ele>492.0</ele><time>2026-04-13T15:04:56Z</time></trkpt><trkpt lat="43.83638375358763" lon="11.959914176306969"><ele>492.0</ele><time>2026-04-13T15:04:57Z</time></trkpt><trkpt lat="43.8364787678494" lon="11.960023542109953"><ele>492.0</ele><time>2026-04-13T15:04:58Z</time></trkpt><trkpt lat="43.83656671207065" lon="11.96013874368827"><ele>491.25</ele><time>2026-04-13T15:04:59Z</time></trkpt><trkpt lat="43.83664762515549" lon="11.960261277832819"><ele>490.5</ele><time>2026-04-13T15:05:00Z</time></trkpt><trkpt lat="43.83672642086585" lon="11.960388513098696"><ele>489.75</ele><time>2026-04-13T15:05:01Z</time></trkpt><trkpt lat="43.83680042548398" lon="11.96051407874684"><ele>489.0</ele><time>2026-04-13T15:05:02Z</time></trkpt><trkpt lat="43.83687255716678" lon="11.960642073837016"><ele>488.79999999999995</ele><time>2026-04-13T15:05:03Z</time></trkpt><trkpt lat="43.83693368312124" lon="11.96076745253155"><ele>488.59999999999997</ele><time>2026-04-13T15:05:04Z</time></trkpt><trkpt lat="43.83698522947893" lon="11.960875904258206"><ele>488.4</ele><time>2026-04-13T15:05:05Z</time></trkpt><trkpt lat="43.837028885090675" lon="11.96097814231082"><ele>488.2</ele><time>2026-04-13T15:05:06Z</time></trkpt><trkpt lat="43.83705930629149" lon="11.961064980011349"><ele>488.0</ele><time>2026-04-13T15:05:07Z</time></trkpt><trkpt lat="43.83708438962861" lon="11.961213254098514"><ele>488.0</ele><time>2026-04-13T15:05:09Z</time></trkpt><trkpt lat="43.837085116564374" lon="11.961316042252147"><ele>487.99999999999994</ele><time>2026-04-13T15:05:11Z</time></trkpt><trkpt lat="43.83706376789347" lon="11.961401571022474"><ele>487.99999999999994</ele><time>2026-04-13T15:05:14Z</time></trkpt><trkpt lat="43.837134057034206" lon="11.961412466635572"><ele>488.0</ele><time>2026-04-13T15:05:52Z</time></trkpt><trkpt lat="43.83709723870477" lon="11.961661236544549"><ele>488.0</ele><time>2026-04-13T15:05:58Z</time></trkpt><trkpt lat="43.83712747902518" lon="11.961757129254527"><ele>487.2</ele><time>2026-04-13T15:06:00Z</time></trkpt><trkpt lat="43.83718835203693" lon="11.961837658906388"><ele>486.4</ele><time>2026-04-13T15:06:01Z</time></trkpt><trkpt lat="43.83726635352268" lon="11.961896602491741"><ele>485.59999999999997</ele><time>2026-04-13T15:06:02Z</time></trkpt><trkpt lat="43.83736089648427" lon="11.961927809169042"><ele>484.79999999999995</ele><time>2026-04-13T15:06:03Z</time></trkpt><trkpt lat="43.83746592929284" lon="11.961949022341337"><ele>484.0</ele><time>2026-04-13T15:06:04Z</time></trkpt><trkpt lat="43.83756759344851" lon="11.961979063358433"><ele>484.6</ele><time>2026-04-13T15:06:05Z</time></trkpt><trkpt lat="43.83766714288231" lon="11.961992649204259"><ele>485.2</ele><time>2026-04-13T15:06:06Z</time></trkpt><trkpt lat="43.83776561692382" lon="11.96206806278688"><ele>485.80000000000007</ele><time>2026-04-13T15:06:07Z</time></trkpt><trkpt lat="43.83786520360131" lon="11.962120188092701"><ele>486.40000000000003</ele><time>2026-04-13T15:06:08Z</time></trkpt><trkpt lat="43.83795725023811" lon="11.962200982822797"><ele>487.0</ele><time>2026-04-13T15:06:09Z</time></trkpt><trkpt lat="43.83806624437662" lon="11.962271982051451"><ele>487.0</ele><time>2026-04-13T15:06:10Z</time></trkpt><trkpt lat="43.83818735575868" lon="11.962350874515243"><ele>487.0</ele><time>2026-04-13T15:06:11Z</time></trkpt><trkpt lat="43.83830552973894" lon="11.962438863704739"><ele>487.0</ele><time>2026-04-13T15:06:12Z</time></trkpt><trkpt lat="43.838432665817926" lon="11.962510226842879"><ele>487.0</ele><time>2026-04-13T15:06:13Z</time></trkpt><trkpt lat="43.838546096940256" lon="11.962619630897796"><ele>486.75</ele><time>2026-04-13T15:06:14Z</time></trkpt><trkpt lat="43.83866572852658" lon="11.962726337439724"><ele>486.5</ele><time>2026-04-13T15:06:15Z</time></trkpt><trkpt lat="43.83878598285873" lon="11.962829805996817"><ele>486.25</ele><time>2026-04-13T15:06:16Z</time></trkpt><trkpt lat="43.83889728551992" lon="11.96292969433481"><ele>486.0</ele><time>2026-04-13T15:06:17Z</time></trkpt><trkpt lat="43.83900768766631" lon="11.96302364869795"><ele>486.0</ele><time>2026-04-13T15:06:18Z</time></trkpt><trkpt lat="43.83911787867665" lon="11.963114165354211"><ele>486.0</ele><time>2026-04-13T15:06:19Z</time></trkpt><trkpt lat="43.839226623171314" lon="11.963203629445953"><ele>486.0</ele><time>2026-04-13T15:06:20Z</time></trkpt><trkpt lat="43.83933931009269" lon="11.963295906525863"><ele>486.0</ele><time>2026-04-13T15:06:21Z</time></trkpt><trkpt lat="43.839454621588175" lon="11.963391749755752"><ele>485.75</ele><time>2026-04-13T15:06:22Z</time></trkpt><trkpt lat="43.839571088052764" lon="11.963488532710663"><ele>485.5</ele><time>2026-04-13T15:06:23Z</time></trkpt><trkpt lat="43.83968248046279" lon="11.963584014637208"><ele>485.25</ele><time>2026-04-13T15:06:24Z</time></trkpt><trkpt lat="43.83979242129517" lon="11.963678919936648"><ele>485.0</ele><time>2026-04-13T15:06:25Z</time></trkpt><trkpt lat="43.839903380615795" lon="11.963773693122617"><ele>485.0</ele><time>2026-04-13T15:06:26Z</time></trkpt><trkpt lat="43.84001962908808" lon="11.96387064059936"><ele>485.0</ele><time>2026-04-13T15:06:27Z</time></trkpt><trkpt lat="43.84013692750719" lon="11.963966242878744"><ele>485.0</ele><time>2026-04-13T15:06:28Z</time></trkpt><trkpt lat="43.840249339443474" lon="11.964060567850952"><ele>485.0</ele><time>2026-04-13T15:06:29Z</time></trkpt><trkpt lat="43.84035666657909" lon="11.96415423623041"><ele>484.5</ele><time>2026-04-13T15:06:30Z</time></trkpt><trkpt lat="43.84046543619455" lon="11.964247572650974"><ele>484.0</ele><time>2026-04-13T15:06:31Z</time></trkpt><trkpt lat="43.84057320460856" lon="11.964341548655453"><ele>483.5</ele><time>2026-04-13T15:06:32Z</time></trkpt><trkpt lat="43.84067485116775" lon="11.964438856290512"><ele>483.0</ele><time>2026-04-13T15:06:33Z</time></trkpt><trkpt lat="43.840768049372166" lon="11.964540659021724"><ele>483.0</ele><time>2026-04-13T15:06:34Z</time></trkpt><trkpt lat="43.840847013025886" lon="11.96464950159827"><ele>482.99999999999994</ele><time>2026-04-13T15:06:35Z</time></trkpt><trkpt lat="43.84090310100584" lon="11.964772872481287"><ele>482.99999999999994</ele><time>2026-04-13T15:06:36Z</time></trkpt><trkpt lat="43.84094510500854" lon="11.964901078845953"><ele>483.0</ele><time>2026-04-13T15:06:37Z</time></trkpt><trkpt lat="43.840979800368295" lon="11.965029128936159"><ele>483.0</ele><time>2026-04-13T15:06:38Z</time></trkpt><trkpt lat="43.84101525056849" lon="11.965147331918036"><ele>482.79999999999995</ele><time>2026-04-13T15:06:39Z</time></trkpt><trkpt lat="43.841103480855224" lon="11.965207774094651"><ele>482.59999999999997</ele><time>2026-04-13T15:06:40Z</time></trkpt><trkpt lat="43.84119479109939" lon="11.965262603040655"><ele>482.40000000000003</ele><time>2026-04-13T15:06:41Z</time></trkpt><trkpt lat="43.84129857492687" lon="11.965302278442302"><ele>482.20000000000005</ele><time>2026-04-13T15:06:42Z</time></trkpt><trkpt lat="43.84140970159588" lon="11.965353774740823"><ele>482.0</ele><time>2026-04-13T15:06:43Z</time></trkpt><trkpt lat="43.84153015759601" lon="11.965366689836651"><ele>482.0</ele><time>2026-04-13T15:06:44Z</time></trkpt><trkpt lat="43.84163239728038" lon="11.965539834586455"><ele>482.0</ele><time>2026-04-13T15:06:45Z</time></trkpt><trkpt lat="43.841740679533885" lon="11.965674425940499"><ele>482.0</ele><time>2026-04-13T15:06:46Z</time></trkpt><trkpt lat="43.84184669849236" lon="11.965828838467521"><ele>487.3333333333333</ele><time>2026-04-13T15:06:47Z</time></trkpt><trkpt lat="43.84195344014904" lon="11.965991285120408"><ele>492.66666666666663</ele><time>2026-04-13T15:06:48Z</time></trkpt><trkpt lat="43.842059231213625" lon="11.96616602211114"><ele>498.0</ele><time>2026-04-13T15:06:49Z</time></trkpt><trkpt lat="43.842161711042074" lon="11.966357007239496"><ele>498.0</ele><time>2026-04-13T15:06:50Z</time></trkpt><trkpt lat="43.842258382709886" lon="11.966545161705536"><ele>498.0</ele><time>2026-04-13T15:06:51Z</time></trkpt><trkpt lat="43.84234613217111" lon="11.966727122890488"><ele>498.0</ele><time>2026-04-13T15:06:52Z</time></trkpt><trkpt lat="43.84242379401511" lon="11.966908376556852"><ele>496.75</ele><time>2026-04-13T15:06:53Z</time></trkpt><trkpt lat="43.842494388972845" lon="11.967094456171724"><ele>495.5</ele><time>2026-04-13T15:06:54Z</time></trkpt><trkpt lat="43.84256246083882" lon="11.967267897841563"><ele>494.25</ele><time>2026-04-13T15:06:55Z</time></trkpt><trkpt lat="43.84262752393052" lon="11.967435182387652"><ele>493.0</ele><time>2026-04-13T15:06:56Z</time></trkpt><trkpt lat="43.842702845255644" lon="11.967593248209209"><ele>493.0</ele><time>2026-04-13T15:06:57Z</time></trkpt><trkpt lat="43.842788302084735" lon="11.967749138529374"><ele>493.0</ele><time>2026-04-13T15:06:58Z</time></trkpt><trkpt lat="43.84288079342419" lon="11.967911726826674"><ele>493.0</ele><time>2026-04-13T15:06:59Z</time></trkpt><trkpt lat="43.84298232001397" lon="11.968071064613397"><ele>493.0</ele><time>2026-04-13T15:07:00Z</time></trkpt><trkpt lat="43.84309126717355" lon="11.96822911738506"><ele>488.33333333333337</ele><time>2026-04-13T15:07:01Z</time></trkpt><trkpt lat="43.8431945937731" lon="11.968390584242474"><ele>483.66666666666663</ele><time>2026-04-13T15:07:02Z</time></trkpt><trkpt lat="43.843300290322574" lon="11.968549959507062"><ele>479.0</ele><time>2026-04-13T15:07:03Z</time></trkpt><trkpt lat="43.84339563297671" lon="11.968718899556638"><ele>481.0</ele><time>2026-04-13T15:07:04Z</time></trkpt><trkpt lat="43.843513255164225" lon="11.968846868136687"><ele>483.0</ele><time>2026-04-13T15:07:05Z</time></trkpt><trkpt lat="43.843626843037185" lon="11.968979492774716"><ele>485.0</ele><time>2026-04-13T15:07:06Z</time></trkpt><trkpt lat="43.84375483054771" lon="11.969084014087823"><ele>487.0</ele><time>2026-04-13T15:07:07Z</time></trkpt><trkpt lat="43.84389816735432" lon="11.969167328417093"><ele>484.0</ele><time>2026-04-13T15:07:08Z</time></trkpt><trkpt lat="43.844042969371955" lon="11.96924405888928"><ele>481.0</ele><time>2026-04-13T15:07:09Z</time></trkpt><trkpt lat="43.84418228445722" lon="11.969311204351472"><ele>478.0</ele><time>2026-04-13T15:07:10Z</time></trkpt><trkpt lat="43.844317242070076" lon="11.969376425524265"><ele>475.0</ele><time>2026-04-13T15:07:11Z</time></trkpt><trkpt lat="43.84445695536636" lon="11.969438632972645"><ele>474.75</ele><time>2026-04-13T15:07:12Z</time></trkpt><trkpt lat="43.844596398377874" lon="11.969507633562623"><ele>474.5</ele><time>2026-04-13T15:07:13Z</time></trkpt><trkpt lat="43.84473212559886" lon="11.969559057054282"><ele>474.25</ele><time>2026-04-13T15:07:14Z</time></trkpt><trkpt lat="43.84485953947969" lon="11.969632267924148"><ele>474.0</ele><time>2026-04-13T15:07:15Z</time></trkpt><trkpt lat="43.844985834706186" lon="11.969683978340777"><ele>474.0</ele><time>2026-04-13T15:07:16Z</time></trkpt><trkpt lat="43.84511311869726" lon="11.969715019809628"><ele>474.0</ele><time>2026-04-13T15:07:17Z</time></trkpt><trkpt lat="43.84522371349659" lon="11.969776874290895"><ele>474.0</ele><time>2026-04-13T15:07:18Z</time></trkpt><trkpt lat="43.84533380121548" lon="11.969838558290736"><ele>474.0</ele><time>2026-04-13T15:07:19Z</time></trkpt><trkpt lat="43.845435167226185" lon="11.969911223502745"><ele>474.0</ele><time>2026-04-13T15:07:20Z</time></trkpt><trkpt lat="43.84551898673077" lon="11.969998347505463"><ele>474.0</ele><time>2026-04-13T15:07:21Z</time></trkpt><trkpt lat="43.84559394119336" lon="11.970089175068544"><ele>474.0</ele><time>2026-04-13T15:07:22Z</time></trkpt><trkpt lat="43.84566842542078" lon="11.970169647844516"><ele>474.0</ele><time>2026-04-13T15:07:23Z</time></trkpt><trkpt lat="43.84573141739529" lon="11.970275352629537"><ele>474.0</ele><time>2026-04-13T15:07:24Z</time></trkpt><trkpt lat="43.84582163506125" lon="11.970317040331599"><ele>473.6</ele><time>2026-04-13T15:07:25Z</time></trkpt><trkpt lat="43.84591555807986" lon="11.970285119784126"><ele>473.2</ele><time>2026-04-13T15:07:26Z</time></trkpt><trkpt lat="43.84599050274728" lon="11.970239550721457"><ele>472.80000000000007</ele><time>2026-04-13T15:07:27Z</time></trkpt><trkpt lat="43.84607747955813" lon="11.970218020948778"><ele>472.40000000000003</ele><time>2026-04-13T15:07:28Z</time></trkpt><trkpt lat="43.84617596788907" lon="11.97020319335548"><ele>472.0</ele><time>2026-04-13T15:07:29Z</time></trkpt><trkpt lat="43.84628417039572" lon="11.97018711734731"><ele>472.0</ele><time>2026-04-13T15:07:30Z</time></trkpt><trkpt lat="43.84641282145373" lon="11.970239056480724"><ele>472.0</ele><time>2026-04-13T15:07:31Z</time></trkpt><trkpt lat="43.84655114783867" lon="11.970273230868326"><ele>472.0</ele><time>2026-04-13T15:07:32Z</time></trkpt><trkpt lat="43.84668628171452" lon="11.970316591385343"><ele>472.0</ele><time>2026-04-13T15:07:33Z</time></trkpt><trkpt lat="43.84681784320101" lon="11.970366921568752"><ele>472.75</ele><time>2026-04-13T15:07:34Z</time></trkpt><trkpt lat="43.846946584686215" lon="11.970426163691952"><ele>473.5</ele><time>2026-04-13T15:07:35Z</time></trkpt><trkpt lat="43.84707154332338" lon="11.970500074591692"><ele>474.25</ele><time>2026-04-13T15:07:36Z</time></trkpt><trkpt lat="43.8471875016122" lon="11.970591065382623"><ele>475.0</ele><time>2026-04-13T15:07:37Z</time></trkpt><trkpt lat="43.84729645956235" lon="11.97069522560593"><ele>475.0</ele><time>2026-04-13T15:07:38Z</time></trkpt><trkpt lat="43.847400277587894" lon="11.970806719338881"><ele>475.0</ele><time>2026-04-13T15:07:39Z</time></trkpt><trkpt lat="43.847497891348276" lon="11.970924475377936"><ele>475.0</ele><time>2026-04-13T15:07:40Z</time></trkpt><trkpt lat="43.847592413781705" lon="11.971044474954564"><ele>475.0</ele><time>2026-04-13T15:07:41Z</time></trkpt><trkpt lat="43.84768724542131" lon="11.971165574910819"><ele>475.0</ele><time>2026-04-13T15:07:42Z</time></trkpt><trkpt lat="43.84778623516159" lon="11.971289903427214"><ele>475.0</ele><time>2026-04-13T15:07:43Z</time></trkpt><trkpt lat="43.847885908396286" lon="11.971416457648647"><ele>475.0</ele><time>2026-04-13T15:07:44Z</time></trkpt><trkpt lat="43.84798976173011" lon="11.971547279898342"><ele>475.0</ele><time>2026-04-13T15:07:45Z</time></trkpt><trkpt lat="43.84809464652961" lon="11.971682821970013"><ele>473.0</ele><time>2026-04-13T15:07:46Z</time></trkpt><trkpt lat="43.8482065572832" lon="11.971825580641571"><ele>471.0</ele><time>2026-04-13T15:07:47Z</time></trkpt><trkpt lat="43.84832356781508" lon="11.971973590238813"><ele>469.0</ele><time>2026-04-13T15:07:48Z</time></trkpt><trkpt lat="43.84844390502831" lon="11.972128122635418"><ele>470.0</ele><time>2026-04-13T15:07:49Z</time></trkpt><trkpt lat="43.84856534755216" lon="11.972277592698877"><ele>471.0</ele><time>2026-04-13T15:07:50Z</time></trkpt><trkpt lat="43.84868147383163" lon="11.9724190597057"><ele>472.0</ele><time>2026-04-13T15:07:51Z</time></trkpt><trkpt lat="43.84879805551741" lon="11.972557655049222"><ele>472.0</ele><time>2026-04-13T15:07:52Z</time></trkpt><trkpt lat="43.848912512766965" lon="11.972700261657677"><ele>472.0</ele><time>2026-04-13T15:07:53Z</time></trkpt><trkpt lat="43.849029276617046" lon="11.972844984533186"><ele>472.0</ele><time>2026-04-13T15:07:54Z</time></trkpt><trkpt lat="43.8491410862839" lon="11.972984161006227"><ele>472.0</ele><time>2026-04-13T15:07:55Z</time></trkpt><trkpt lat="43.84925040495728" lon="11.97311987967715"><ele>472.0</ele><time>2026-04-13T15:07:56Z</time></trkpt><trkpt lat="43.84935785953003" lon="11.973253328181556"><ele>472.0</ele><time>2026-04-13T15:07:57Z</time></trkpt><trkpt lat="43.849466111355945" lon="11.973388458871796"><ele>472.0</ele><time>2026-04-13T15:07:58Z</time></trkpt><trkpt lat="43.849573977497705" lon="11.973523338892932"><ele>472.75</ele><time>2026-04-13T15:07:59Z</time></trkpt><trkpt lat="43.84967320405871" lon="11.97365768874596"><ele>473.5</ele><time>2026-04-13T15:08:00Z</time></trkpt><trkpt lat="43.84978218037094" lon="11.97379254089266"><ele>474.25</ele><time>2026-04-13T15:08:01Z</time></trkpt><trkpt lat="43.84989184001468" lon="11.973931856475339"><ele>475.0</ele><time>2026-04-13T15:08:02Z</time></trkpt><trkpt lat="43.84999694734018" lon="11.974063521934967"><ele>473.5</ele><time>2026-04-13T15:08:03Z</time></trkpt><trkpt lat="43.85009943287205" lon="11.974193453115369"><ele>472.0</ele><time>2026-04-13T15:08:04Z</time></trkpt><trkpt lat="43.85019903105247" lon="11.974316915457289"><ele>470.5</ele><time>2026-04-13T15:08:05Z</time></trkpt><trkpt lat="43.8502994100253" lon="11.9744405399263"><ele>469.0</ele><time>2026-04-13T15:08:06Z</time></trkpt><trkpt lat="43.85039139806416" lon="11.97455847895921"><ele>469.0</ele><time>2026-04-13T15:08:07Z</time></trkpt><trkpt lat="43.850482406530524" lon="11.974673938373522"><ele>469.0</ele><time>2026-04-13T15:08:08Z</time></trkpt><trkpt lat="43.8505735491966" lon="11.974786039395411"><ele>469.0</ele><time>2026-04-13T15:08:09Z</time></trkpt><trkpt lat="43.850665631764876" lon="11.974892245902272"><ele>469.0</ele><time>2026-04-13T15:08:10Z</time></trkpt><trkpt lat="43.85075528912878" lon="11.974997551752502"><ele>468.2</ele><time>2026-04-13T15:08:11Z</time></trkpt><trkpt lat="43.85084004188904" lon="11.975101025247653"><ele>467.4</ele><time>2026-04-13T15:08:12Z</time></trkpt><trkpt lat="43.85093311225896" lon="11.975194510101904"><ele>466.6</ele><time>2026-04-13T15:08:13Z</time></trkpt><trkpt lat="43.851029948533274" lon="11.975267557152055"><ele>465.8</ele><time>2026-04-13T15:08:14Z</time></trkpt><trkpt lat="43.85112979725132" lon="11.975327897559383"><ele>465.0</ele><time>2026-04-13T15:08:15Z</time></trkpt><trkpt lat="43.85123772886442" lon="11.975379089563765"><ele>465.0</ele><time>2026-04-13T15:08:16Z</time></trkpt><trkpt lat="43.851358159896115" lon="11.975425250722862"><ele>465.0</ele><time>2026-04-13T15:08:17Z</time></trkpt><trkpt lat="43.851484697383775" lon="11.97546018534437"><ele>465.0</ele><time>2026-04-13T15:08:18Z</time></trkpt><trkpt lat="43.851608151151225" lon="11.97549372698"><ele>465.0</ele><time>2026-04-13T15:08:19Z</time></trkpt><trkpt lat="43.85172895884935" lon="11.975528570905036"><ele>465.75</ele><time>2026-04-13T15:08:20Z</time></trkpt><trkpt lat="43.85184901606618" lon="11.975566204935111"><ele>466.5</ele><time>2026-04-13T15:08:21Z</time></trkpt><trkpt lat="43.851971749535075" lon="11.975605403543721"><ele>467.25</ele><time>2026-04-13T15:08:22Z</time></trkpt><trkpt lat="43.85209789547934" lon="11.975643582492477"><ele>468.0</ele><time>2026-04-13T15:08:23Z</time></trkpt><trkpt lat="43.85222298584956" lon="11.97567275546007"><ele>468.0</ele><time>2026-04-13T15:08:24Z</time></trkpt><trkpt lat="43.85234537613094" lon="11.975709674571737"><ele>468.0</ele><time>2026-04-13T15:08:25Z</time></trkpt><trkpt lat="43.85246338649811" lon="11.975740453874943"><ele>468.0</ele><time>2026-04-13T15:08:26Z</time></trkpt><trkpt lat="43.85258494811805" lon="11.975768947193163"><ele>468.0</ele><time>2026-04-13T15:08:27Z</time></trkpt><trkpt lat="43.852701700830735" lon="11.975805281751141"><ele>467.79999999999995</ele><time>2026-04-13T15:08:28Z</time></trkpt><trkpt lat="43.85281834583717" lon="11.975836329679248"><ele>467.59999999999997</ele><time>2026-04-13T15:08:29Z</time></trkpt><trkpt lat="43.85293044466639" lon="11.975866547590595"><ele>467.40000000000003</ele><time>2026-04-13T15:08:30Z</time></trkpt><trkpt lat="43.853035243306024" lon="11.97589639071998"><ele>467.20000000000005</ele><time>2026-04-13T15:08:31Z</time></trkpt><trkpt lat="43.85313336308007" lon="11.975918831446062"><ele>467.0</ele><time>2026-04-13T15:08:32Z</time></trkpt><trkpt lat="43.85323717134157" lon="11.97596306574452"><ele>466.0</ele><time>2026-04-13T15:08:33Z</time></trkpt><trkpt lat="43.85335130930025" lon="11.975971855319333"><ele>465.0</ele><time>2026-04-13T15:08:34Z</time></trkpt><trkpt lat="43.853461402104124" lon="11.976014685053517"><ele>464.0</ele><time>2026-04-13T15:08:35Z</time></trkpt><trkpt lat="43.85357177994059" lon="11.976045923352155"><ele>463.0</ele><time>2026-04-13T15:08:36Z</time></trkpt><trkpt lat="43.853682470716834" lon="11.976072959891361"><ele>463.0</ele><time>2026-04-13T15:08:37Z</time></trkpt><trkpt lat="43.85378946622648" lon="11.976094883343439"><ele>462.99999999999994</ele><time>2026-04-13T15:08:38Z</time></trkpt><trkpt lat="43.85389232990947" lon="11.9761313362099"><ele>462.99999999999994</ele><time>2026-04-13T15:08:39Z</time></trkpt><trkpt lat="43.853994139561934" lon="11.976156714978458"><ele>463.0</ele><time>2026-04-13T15:08:40Z</time></trkpt><trkpt lat="43.854100052382144" lon="11.976181518820658"><ele>463.0</ele><time>2026-04-13T15:08:41Z</time></trkpt><trkpt lat="43.85420770143698" lon="11.976215700343815"><ele>463.59999999999997</ele><time>2026-04-13T15:08:42Z</time></trkpt><trkpt lat="43.85431380739861" lon="11.976245576771735"><ele>464.19999999999993</ele><time>2026-04-13T15:08:43Z</time></trkpt><trkpt lat="43.854421310899916" lon="11.976270201705248"><ele>464.8</ele><time>2026-04-13T15:08:44Z</time></trkpt><trkpt lat="43.85452807695027" lon="11.976297407356027"><ele>465.4</ele><time>2026-04-13T15:08:45Z</time></trkpt><trkpt lat="43.85462898940571" lon="11.976344891441505"><ele>466.0</ele><time>2026-04-13T15:08:46Z</time></trkpt><trkpt lat="43.854730550408995" lon="11.976350621554335"><ele>466.0</ele><time>2026-04-13T15:08:47Z</time></trkpt><trkpt lat="43.85482701617458" lon="11.976380636697089"><ele>466.0</ele><time>2026-04-13T15:08:48Z</time></trkpt><trkpt lat="43.85491772023921" lon="11.976407192927631"><ele>466.0</ele><time>2026-04-13T15:08:49Z</time></trkpt><trkpt lat="43.855009500088315" lon="11.976421001963628"><ele>466.0</ele><time>2026-04-13T15:08:50Z</time></trkpt><trkpt lat="43.8551044835752" lon="11.976465469655189"><ele>466.0</ele><time>2026-04-13T15:08:51Z</time></trkpt><trkpt lat="43.85519931655699" lon="11.976488890873789"><ele>466.20000000000005</ele><time>2026-04-13T15:08:52Z</time></trkpt><trkpt lat="43.855293711672" lon="11.976490614923604"><ele>466.40000000000003</ele><time>2026-04-13T15:08:53Z</time></trkpt><trkpt lat="43.855387624667735" lon="11.976516501825584"><ele>466.6</ele><time>2026-04-13T15:08:54Z</time></trkpt><trkpt lat="43.85548103570022" lon="11.976538636863637"><ele>466.8</ele><time>2026-04-13T15:08:55Z</time></trkpt><trkpt lat="43.85557276306867" lon="11.97656038918983"><ele>467.0</ele><time>2026-04-13T15:08:56Z</time></trkpt><trkpt lat="43.855659271576066" lon="11.97658880128968"><ele>466.99999999999994</ele><time>2026-04-13T15:08:57Z</time></trkpt><trkpt lat="43.85574365525785" lon="11.976617049636372"><ele>467.0</ele><time>2026-04-13T15:08:58Z</time></trkpt><trkpt lat="43.85582761589356" lon="11.976638103961903"><ele>467.0</ele><time>2026-04-13T15:08:59Z</time></trkpt><trkpt lat="43.85591104628139" lon="11.97665839288709"><ele>467.0</ele><time>2026-04-13T15:09:00Z</time></trkpt><trkpt lat="43.85599458766037" lon="11.976675282836078"><ele>466.99999999999994</ele><time>2026-04-13T15:09:01Z</time></trkpt><trkpt lat="43.85607485751355" lon="11.976702844539266"><ele>467.0</ele><time>2026-04-13T15:09:02Z</time></trkpt><trkpt lat="43.856154297465686" lon="11.976720956425222"><ele>466.3333333333333</ele><time>2026-04-13T15:09:03Z</time></trkpt><trkpt lat="43.8562297584217" lon="11.976744653835281"><ele>465.66666666666663</ele><time>2026-04-13T15:09:04Z</time></trkpt><trkpt lat="43.85630447519166" lon="11.97676934229735"><ele>465.0</ele><time>2026-04-13T15:09:05Z</time></trkpt><trkpt lat="43.856375131117964" lon="11.976790095549196"><ele>464.33333333333337</ele><time>2026-04-13T15:09:06Z</time></trkpt><trkpt lat="43.856442200482384" lon="11.976807319187634"><ele>463.6666666666667</ele><time>2026-04-13T15:09:07Z</time></trkpt><trkpt lat="43.856568323124726" lon="11.976837482234464"><ele>463.0</ele><time>2026-04-13T15:09:09Z</time></trkpt><trkpt lat="43.856635910670796" lon="11.97685514381666"><ele>463.0</ele><time>2026-04-13T15:09:10Z</time></trkpt><trkpt lat="43.85669982921834" lon="11.976872746089027"><ele>462.99999999999994</ele><time>2026-04-13T15:09:11Z</time></trkpt><trkpt lat="43.85676617312501" lon="11.976892113020934"><ele>463.0</ele><time>2026-04-13T15:09:12Z</time></trkpt><trkpt lat="43.85683194216151" lon="11.976904346408121"><ele>463.0</ele><time>2026-04-13T15:09:13Z</time></trkpt><trkpt lat="43.85690402270937" lon="11.97692641128009"><ele>462.99999999999994</ele><time>2026-04-13T15:09:14Z</time></trkpt><trkpt lat="43.856983945389814" lon="11.976941628098531"><ele>463.0</ele><time>2026-04-13T15:09:15Z</time></trkpt><trkpt lat="43.857064838555395" lon="11.976959659102803"><ele>463.0</ele><time>2026-04-13T15:09:16Z</time></trkpt><trkpt lat="43.857141526183135" lon="11.976979985705256"><ele>463.50000000000006</ele><time>2026-04-13T15:09:17Z</time></trkpt><trkpt lat="43.857214939422825" lon="11.977000431188877"><ele>464.0</ele><time>2026-04-13T15:09:18Z</time></trkpt><trkpt lat="43.85728052243083" lon="11.977014532175899"><ele>464.5</ele><time>2026-04-13T15:09:19Z</time></trkpt><trkpt lat="43.85734501314342" lon="11.977028468106372"><ele>465.0</ele><time>2026-04-13T15:09:20Z</time></trkpt><trkpt lat="43.857410081324076" lon="11.977048263353938"><ele>465.50000000000006</ele><time>2026-04-13T15:09:21Z</time></trkpt><trkpt lat="43.857534203910596" lon="11.977086049329627"><ele>466.0</ele><time>2026-04-13T15:09:23Z</time></trkpt><trkpt lat="43.85760794268882" lon="11.97710205589661"><ele>466.00000000000006</ele><time>2026-04-13T15:09:24Z</time></trkpt><trkpt lat="43.85769026136703" lon="11.977115788077874"><ele>466.0</ele><time>2026-04-13T15:09:25Z</time></trkpt><trkpt lat="43.8577744782022" lon="11.977139885724569"><ele>466.0</ele><time>2026-04-13T15:09:26Z</time></trkpt><trkpt lat="43.857846950632315" lon="11.977175768469634"><ele>466.0</ele><time>2026-04-13T15:09:27Z</time></trkpt><trkpt lat="43.857927619255406" lon="11.977194786679481"><ele>466.00000000000006</ele><time>2026-04-13T15:09:28Z</time></trkpt><trkpt lat="43.85800630699116" lon="11.97719182745698"><ele>466.0</ele><time>2026-04-13T15:09:29Z</time></trkpt><trkpt lat="43.85808066687066" lon="11.977207947288779"><ele>466.0</ele><time>2026-04-13T15:09:30Z</time></trkpt><trkpt lat="43.858147601655" lon="11.97722163306751"><ele>466.0</ele><time>2026-04-13T15:09:31Z</time></trkpt><trkpt lat="43.85820997808374" lon="11.977233857379064"><ele>466.0</ele><time>2026-04-13T15:09:32Z</time></trkpt><trkpt lat="43.85833174960535" lon="11.977254609083516"><ele>466.0</ele><time>2026-04-13T15:09:34Z</time></trkpt><trkpt lat="43.85844550818157" lon="11.977256295070426"><ele>466.0</ele><time>2026-04-13T15:09:36Z</time></trkpt><trkpt lat="43.858559415867916" lon="11.977257789743295"><ele>465.5</ele><time>2026-04-13T15:09:38Z</time></trkpt><trkpt lat="43.858682453526065" lon="11.97725940421783"><ele>465.0</ele><time>2026-04-13T15:09:40Z</time></trkpt><trkpt lat="43.85880190575227" lon="11.977260971647455"><ele>464.5</ele><time>2026-04-13T15:09:42Z</time></trkpt><trkpt lat="43.85891754300707" lon="11.977262137211147"><ele>464.0</ele><time>2026-04-13T15:09:44Z</time></trkpt><trkpt lat="43.859042497860564" lon="11.977263288278598"><ele>463.99999999999994</ele><time>2026-04-13T15:09:46Z</time></trkpt><trkpt lat="43.85911071607934" lon="11.977263916695415"><ele>464.0</ele><time>2026-04-13T15:09:47Z</time></trkpt><trkpt lat="43.85917757454579" lon="11.977264463935303"><ele>464.0</ele><time>2026-04-13T15:09:48Z</time></trkpt><trkpt lat="43.85924710944961" lon="11.977265020559301"><ele>464.0</ele><time>2026-04-13T15:09:49Z</time></trkpt><trkpt lat="43.85935133931781" lon="11.977265371939124"><ele>463.99999999999994</ele><time>2026-04-13T15:09:51Z</time></trkpt><trkpt lat="43.859427530557745" lon="11.97724367268695"><ele>464.0</ele><time>2026-04-13T15:09:53Z</time></trkpt><trkpt lat="43.859494017443836" lon="11.977245312915148"><ele>463.79999999999995</ele><time>2026-04-13T15:09:55Z</time></trkpt><trkpt lat="43.859586381846185" lon="11.977267911001288"><ele>463.59999999999997</ele><time>2026-04-13T15:09:57Z</time></trkpt><trkpt lat="43.85969298556921" lon="11.97726873917192"><ele>463.4</ele><time>2026-04-13T15:09:59Z</time></trkpt><trkpt lat="43.859805267792396" lon="11.977269572852219"><ele>463.2</ele><time>2026-04-13T15:10:01Z</time></trkpt><trkpt lat="43.85991128703173" lon="11.977270360029955"><ele>463.0</ele><time>2026-04-13T15:10:03Z</time></trkpt><trkpt lat="43.860017149929774" lon="11.977271146045023"><ele>463.1428571428571</ele><time>2026-04-13T15:10:05Z</time></trkpt><trkpt lat="43.860134784629736" lon="11.977272019465651"><ele>463.2857142857142</ele><time>2026-04-13T15:10:07Z</time></trkpt><trkpt lat="43.86019844183971" lon="11.977272855711288"><ele>463.42857142857144</ele><time>2026-04-13T15:10:08Z</time></trkpt><trkpt lat="43.86026419139795" lon="11.977273806537147"><ele>463.57142857142856</ele><time>2026-04-13T15:10:09Z</time></trkpt><trkpt lat="43.860331557448056" lon="11.97727478073805"><ele>463.7142857142857</ele><time>2026-04-13T15:10:10Z</time></trkpt><trkpt lat="43.86039769081612" lon="11.977275737113708"><ele>463.8571428571429</ele><time>2026-04-13T15:10:11Z</time></trkpt><trkpt lat="43.86046436820315" lon="11.977276701353464"><ele>464.00000000000006</ele><time>2026-04-13T15:10:12Z</time></trkpt><trkpt lat="43.860585865689394" lon="11.97726071917542"><ele>464.0</ele><time>2026-04-13T15:10:14Z</time></trkpt><trkpt lat="43.86070243802872" lon="11.977263876266006"><ele>464.0</ele><time>2026-04-13T15:10:16Z</time></trkpt><trkpt lat="43.86082181887376" lon="11.977263402531134"><ele>464.0</ele><time>2026-04-13T15:10:18Z</time></trkpt><trkpt lat="43.86094051479018" lon="11.977283046125095"><ele>464.0</ele><time>2026-04-13T15:10:20Z</time></trkpt><trkpt lat="43.861036305227636" lon="11.977284447437919"><ele>463.28571428571433</ele><time>2026-04-13T15:10:22Z</time></trkpt><trkpt lat="43.861137511799924" lon="11.977286513985899"><ele>462.57142857142856</ele><time>2026-04-13T15:10:24Z</time></trkpt><trkpt lat="43.861203869364495" lon="11.977287667021951"><ele>461.8571428571429</ele><time>2026-04-13T15:10:25Z</time></trkpt><trkpt lat="43.86127334524525" lon="11.977267786850637"><ele>461.14285714285717</ele><time>2026-04-13T15:10:26Z</time></trkpt><trkpt lat="43.861346499068354" lon="11.977267840812289"><ele>460.42857142857144</ele><time>2026-04-13T15:10:27Z</time></trkpt><trkpt lat="43.86141207670231" lon="11.977291864415085"><ele>459.7142857142857</ele><time>2026-04-13T15:10:28Z</time></trkpt><trkpt lat="43.86147558079598" lon="11.977293110686848"><ele>459.0</ele><time>2026-04-13T15:10:29Z</time></trkpt><trkpt lat="43.86158428273823" lon="11.977298444006925"><ele>459.0</ele><time>2026-04-13T15:10:31Z</time></trkpt><trkpt lat="43.86165442683241" lon="11.977357246652964"><ele>459.0</ele><time>2026-04-13T15:10:33Z</time></trkpt><trkpt lat="43.861712672268254" lon="11.977507195165463"><ele>459.0</ele><time>2026-04-13T15:10:37Z</time></trkpt><trkpt lat="43.86175802947058" lon="11.977584362644098"><ele>459.0</ele><time>2026-04-13T15:10:39Z</time></trkpt><trkpt lat="43.86182723886551" lon="11.977607175198237"><ele>459.0</ele><time>2026-04-13T15:10:42Z</time></trkpt><trkpt lat="43.861887650634756" lon="11.977571718823002"><ele>459.0</ele><time>2026-04-13T15:13:33Z</time></trkpt><trkpt lat="43.86196331999883" lon="11.977619117045842"><ele>457.0</ele><time>2026-04-13T15:14:35Z</time></trkpt><trkpt lat="43.862028780983174" lon="11.977650843339152"><ele>457.0</ele><time>2026-04-13T15:14:38Z</time></trkpt></trkseg></trk></gpx>